<?xml version="1.0" encoding="UTF-8" standalone="no" ?>
<gpx xmlns="http://www.topografix.com/GPX/1/1" xmlns:xsi="http://www.w3.org/2001/XMLSchema-instance" xsi:schemaLocation="http://www.topografix.com/GPX/1/1 http://www.topografix.com/GPX/1/1/gpx.xsd" version="1.1" creator="VisuGPX - https://www.visugpx.com">
  <metadata>
    <name>12 Tour de Bretagne 2025</name>
    <desc><![CDATA[Etape 12 de Plérin à Saint Cast le Guildo]]></desc>
  </metadata>
  <trk>
    <name><![CDATA[12 Tour de Bretagne 2025_1]]></name>
    <trkseg>
      <trkpt lat="48.53607" lon="-2.76387">
        <ele>106.8</ele>
        <time>2025-09-30T07:56:45Z</time>
      </trkpt>
      <trkpt lat="48.53605" lon="-2.76393">
        <ele>106.8</ele>
        <time>2025-09-30T07:56:51Z</time>
      </trkpt>
      <trkpt lat="48.53605" lon="-2.76394">
        <ele>106.8</ele>
        <time>2025-09-30T07:56:53Z</time>
      </trkpt>
      <trkpt lat="48.53608" lon="-2.76392">
        <ele>106.8</ele>
        <time>2025-09-30T07:57:00Z</time>
      </trkpt>
      <trkpt lat="48.53611" lon="-2.76392">
        <ele>106.8</ele>
        <time>2025-09-30T07:57:02Z</time>
      </trkpt>
      <trkpt lat="48.5362" lon="-2.76393">
        <ele>106.8</ele>
        <time>2025-09-30T07:57:06Z</time>
      </trkpt>
      <trkpt lat="48.53626" lon="-2.76397">
        <ele>106.8</ele>
        <time>2025-09-30T07:57:08Z</time>
      </trkpt>
      <trkpt lat="48.53648" lon="-2.76412">
        <ele>106.8</ele>
        <time>2025-09-30T07:57:14Z</time>
      </trkpt>
      <trkpt lat="48.53659" lon="-2.76421">
        <ele>106.8</ele>
        <time>2025-09-30T07:57:19Z</time>
      </trkpt>
      <trkpt lat="48.53667" lon="-2.76412">
        <ele>106.8</ele>
        <time>2025-09-30T07:57:23Z</time>
      </trkpt>
      <trkpt lat="48.53677" lon="-2.76385">
        <ele>107</ele>
        <time>2025-09-30T07:57:29Z</time>
      </trkpt>
      <trkpt lat="48.53679" lon="-2.76373">
        <ele>107</ele>
        <time>2025-09-30T07:57:32Z</time>
      </trkpt>
      <trkpt lat="48.53678" lon="-2.76357">
        <ele>107</ele>
        <time>2025-09-30T07:57:35Z</time>
      </trkpt>
      <trkpt lat="48.53684" lon="-2.76335">
        <ele>107</ele>
        <time>2025-09-30T07:57:39Z</time>
      </trkpt>
      <trkpt lat="48.53687" lon="-2.7633">
        <ele>107</ele>
        <time>2025-09-30T07:57:40Z</time>
      </trkpt>
      <trkpt lat="48.53696" lon="-2.76303">
        <ele>107.6</ele>
        <time>2025-09-30T07:57:45Z</time>
      </trkpt>
      <trkpt lat="48.53698" lon="-2.7629">
        <ele>107.8</ele>
        <time>2025-09-30T07:57:47Z</time>
      </trkpt>
      <trkpt lat="48.53699" lon="-2.76277">
        <ele>108</ele>
        <time>2025-09-30T07:57:49Z</time>
      </trkpt>
      <trkpt lat="48.537" lon="-2.76271">
        <ele>108.2</ele>
        <time>2025-09-30T07:57:50Z</time>
      </trkpt>
      <trkpt lat="48.53702" lon="-2.76264">
        <ele>108.2</ele>
        <time>2025-09-30T07:57:51Z</time>
      </trkpt>
      <trkpt lat="48.53711" lon="-2.76228">
        <ele>109</ele>
        <time>2025-09-30T07:57:56Z</time>
      </trkpt>
      <trkpt lat="48.53716" lon="-2.76214">
        <ele>109.2</ele>
        <time>2025-09-30T07:57:58Z</time>
      </trkpt>
      <trkpt lat="48.53723" lon="-2.76192">
        <ele>109.6</ele>
        <time>2025-09-30T07:58:01Z</time>
      </trkpt>
      <trkpt lat="48.53747" lon="-2.76119">
        <ele>109.8</ele>
        <time>2025-09-30T07:58:10Z</time>
      </trkpt>
      <trkpt lat="48.53761" lon="-2.76082">
        <ele>109.6</ele>
        <time>2025-09-30T07:58:15Z</time>
      </trkpt>
      <trkpt lat="48.53764" lon="-2.76078">
        <ele>109.6</ele>
        <time>2025-09-30T07:58:16Z</time>
      </trkpt>
      <trkpt lat="48.53768" lon="-2.76076">
        <ele>109.4</ele>
        <time>2025-09-30T07:58:17Z</time>
      </trkpt>
      <trkpt lat="48.53775" lon="-2.76079">
        <ele>109</ele>
        <time>2025-09-30T07:58:19Z</time>
      </trkpt>
      <trkpt lat="48.53782" lon="-2.76086">
        <ele>108.8</ele>
        <time>2025-09-30T07:58:21Z</time>
      </trkpt>
      <trkpt lat="48.53791" lon="-2.76095">
        <ele>108.4</ele>
        <time>2025-09-30T07:58:23Z</time>
      </trkpt>
      <trkpt lat="48.53795" lon="-2.761">
        <ele>108</ele>
        <time>2025-09-30T07:58:24Z</time>
      </trkpt>
      <trkpt lat="48.5381" lon="-2.76116">
        <ele>106.8</ele>
        <time>2025-09-30T07:58:27Z</time>
      </trkpt>
      <trkpt lat="48.53815" lon="-2.76122">
        <ele>106.8</ele>
        <time>2025-09-30T07:58:28Z</time>
      </trkpt>
      <trkpt lat="48.53832" lon="-2.7614">
        <ele>105.8</ele>
        <time>2025-09-30T07:58:31Z</time>
      </trkpt>
      <trkpt lat="48.5385" lon="-2.76158">
        <ele>104.8</ele>
        <time>2025-09-30T07:58:34Z</time>
      </trkpt>
      <trkpt lat="48.53855" lon="-2.76164">
        <ele>104.8</ele>
        <time>2025-09-30T07:58:35Z</time>
      </trkpt>
      <trkpt lat="48.53892" lon="-2.76198">
        <ele>104.8</ele>
        <time>2025-09-30T07:58:42Z</time>
      </trkpt>
      <trkpt lat="48.53921" lon="-2.76225">
        <ele>104.8</ele>
        <time>2025-09-30T07:58:48Z</time>
      </trkpt>
      <trkpt lat="48.5393" lon="-2.76233">
        <ele>104.6</ele>
        <time>2025-09-30T07:58:50Z</time>
      </trkpt>
      <trkpt lat="48.5394" lon="-2.76236">
        <ele>104.6</ele>
        <time>2025-09-30T07:58:52Z</time>
      </trkpt>
      <trkpt lat="48.53947" lon="-2.76226">
        <ele>104.4</ele>
        <time>2025-09-30T07:58:54Z</time>
      </trkpt>
      <trkpt lat="48.5395" lon="-2.76219">
        <ele>104.4</ele>
        <time>2025-09-30T07:58:55Z</time>
      </trkpt>
      <trkpt lat="48.53955" lon="-2.76196">
        <ele>103.8</ele>
        <time>2025-09-30T07:58:58Z</time>
      </trkpt>
      <trkpt lat="48.53961" lon="-2.76181">
        <ele>103.6</ele>
        <time>2025-09-30T07:59:00Z</time>
      </trkpt>
      <trkpt lat="48.53971" lon="-2.76158">
        <ele>103.2</ele>
        <time>2025-09-30T07:59:03Z</time>
      </trkpt>
      <trkpt lat="48.53976" lon="-2.7615">
        <ele>103</ele>
        <time>2025-09-30T07:59:04Z</time>
      </trkpt>
      <trkpt lat="48.53985" lon="-2.76137">
        <ele>102.6</ele>
        <time>2025-09-30T07:59:06Z</time>
      </trkpt>
      <trkpt lat="48.54003" lon="-2.76112">
        <ele>101.4</ele>
        <time>2025-09-30T07:59:10Z</time>
      </trkpt>
      <trkpt lat="48.54011" lon="-2.761">
        <ele>101</ele>
        <time>2025-09-30T07:59:12Z</time>
      </trkpt>
      <trkpt lat="48.54015" lon="-2.76086">
        <ele>100.4</ele>
        <time>2025-09-30T07:59:14Z</time>
      </trkpt>
      <trkpt lat="48.54014" lon="-2.76079">
        <ele>100.4</ele>
        <time>2025-09-30T07:59:15Z</time>
      </trkpt>
      <trkpt lat="48.54011" lon="-2.76072">
        <ele>100.2</ele>
        <time>2025-09-30T07:59:16Z</time>
      </trkpt>
      <trkpt lat="48.54005" lon="-2.76058">
        <ele>100.2</ele>
        <time>2025-09-30T07:59:18Z</time>
      </trkpt>
      <trkpt lat="48.54003" lon="-2.76052">
        <ele>100</ele>
        <time>2025-09-30T07:59:19Z</time>
      </trkpt>
      <trkpt lat="48.54001" lon="-2.76043">
        <ele>99.8</ele>
        <time>2025-09-30T07:59:20Z</time>
      </trkpt>
      <trkpt lat="48.53998" lon="-2.76028">
        <ele>99.6</ele>
        <time>2025-09-30T07:59:22Z</time>
      </trkpt>
      <trkpt lat="48.53996" lon="-2.7601">
        <ele>99.8</ele>
        <time>2025-09-30T07:59:24Z</time>
      </trkpt>
      <trkpt lat="48.53992" lon="-2.75977">
        <ele>99.2</ele>
        <time>2025-09-30T07:59:28Z</time>
      </trkpt>
      <trkpt lat="48.53988" lon="-2.75961">
        <ele>99</ele>
        <time>2025-09-30T07:59:30Z</time>
      </trkpt>
      <trkpt lat="48.53968" lon="-2.759">
        <ele>98.8</ele>
        <time>2025-09-30T07:59:38Z</time>
      </trkpt>
      <trkpt lat="48.5396" lon="-2.75871">
        <ele>98.2</ele>
        <time>2025-09-30T07:59:42Z</time>
      </trkpt>
      <trkpt lat="48.53958" lon="-2.75864">
        <ele>98.2</ele>
        <time>2025-09-30T07:59:43Z</time>
      </trkpt>
      <trkpt lat="48.53957" lon="-2.7586">
        <ele>98</ele>
        <time>2025-09-30T07:59:44Z</time>
      </trkpt>
      <trkpt lat="48.53955" lon="-2.75845">
        <ele>98</ele>
        <time>2025-09-30T07:59:47Z</time>
      </trkpt>
      <trkpt lat="48.53958" lon="-2.75832">
        <ele>98</ele>
        <time>2025-09-30T07:59:49Z</time>
      </trkpt>
      <trkpt lat="48.53961" lon="-2.7582">
        <ele>97.8</ele>
        <time>2025-09-30T07:59:51Z</time>
      </trkpt>
      <trkpt lat="48.5396" lon="-2.75809">
        <ele>97.4</ele>
        <time>2025-09-30T07:59:53Z</time>
      </trkpt>
      <trkpt lat="48.53958" lon="-2.75803">
        <ele>97.4</ele>
        <time>2025-09-30T07:59:54Z</time>
      </trkpt>
      <trkpt lat="48.5395" lon="-2.75787">
        <ele>97.6</ele>
        <time>2025-09-30T07:59:57Z</time>
      </trkpt>
      <trkpt lat="48.53947" lon="-2.75781">
        <ele>97.8</ele>
        <time>2025-09-30T07:59:58Z</time>
      </trkpt>
      <trkpt lat="48.53939" lon="-2.75771">
        <ele>97.8</ele>
        <time>2025-09-30T08:00:00Z</time>
      </trkpt>
      <trkpt lat="48.53935" lon="-2.75766">
        <ele>97.8</ele>
        <time>2025-09-30T08:00:01Z</time>
      </trkpt>
      <trkpt lat="48.53932" lon="-2.75762">
        <ele>98</ele>
        <time>2025-09-30T08:00:02Z</time>
      </trkpt>
      <trkpt lat="48.53902" lon="-2.7572">
        <ele>98.8</ele>
        <time>2025-09-30T08:00:10Z</time>
      </trkpt>
      <trkpt lat="48.53899" lon="-2.75716">
        <ele>98.8</ele>
        <time>2025-09-30T08:00:11Z</time>
      </trkpt>
      <trkpt lat="48.53892" lon="-2.75706">
        <ele>98.8</ele>
        <time>2025-09-30T08:00:15Z</time>
      </trkpt>
      <trkpt lat="48.53889" lon="-2.75699">
        <ele>98.8</ele>
        <time>2025-09-30T08:00:18Z</time>
      </trkpt>
      <trkpt lat="48.53887" lon="-2.75689">
        <ele>98.8</ele>
        <time>2025-09-30T08:00:20Z</time>
      </trkpt>
      <trkpt lat="48.53894" lon="-2.75669">
        <ele>98.8</ele>
        <time>2025-09-30T08:00:24Z</time>
      </trkpt>
      <trkpt lat="48.5391" lon="-2.75623">
        <ele>98.6</ele>
        <time>2025-09-30T08:00:31Z</time>
      </trkpt>
      <trkpt lat="48.53927" lon="-2.75564">
        <ele>98.4</ele>
        <time>2025-09-30T08:00:39Z</time>
      </trkpt>
      <trkpt lat="48.53936" lon="-2.75537">
        <ele>98.2</ele>
        <time>2025-09-30T08:00:43Z</time>
      </trkpt>
      <trkpt lat="48.53936" lon="-2.75523">
        <ele>98</ele>
        <time>2025-09-30T08:00:45Z</time>
      </trkpt>
      <trkpt lat="48.53936" lon="-2.75508">
        <ele>98</ele>
        <time>2025-09-30T08:00:47Z</time>
      </trkpt>
      <trkpt lat="48.53938" lon="-2.75493">
        <ele>98.2</ele>
        <time>2025-09-30T08:00:49Z</time>
      </trkpt>
      <trkpt lat="48.5394" lon="-2.75487">
        <ele>98.2</ele>
        <time>2025-09-30T08:00:50Z</time>
      </trkpt>
      <trkpt lat="48.53961" lon="-2.75414">
        <ele>97.6</ele>
        <time>2025-09-30T08:01:00Z</time>
      </trkpt>
      <trkpt lat="48.53964" lon="-2.75407">
        <ele>97.8</ele>
        <time>2025-09-30T08:01:01Z</time>
      </trkpt>
      <trkpt lat="48.53977" lon="-2.7538">
        <ele>97.8</ele>
        <time>2025-09-30T08:01:05Z</time>
      </trkpt>
      <trkpt lat="48.53991" lon="-2.75326">
        <ele>97.6</ele>
        <time>2025-09-30T08:01:12Z</time>
      </trkpt>
      <trkpt lat="48.53998" lon="-2.75288">
        <ele>97</ele>
        <time>2025-09-30T08:01:17Z</time>
      </trkpt>
      <trkpt lat="48.54008" lon="-2.75244">
        <ele>96.6</ele>
        <time>2025-09-30T08:01:22Z</time>
      </trkpt>
      <trkpt lat="48.54017" lon="-2.75208">
        <ele>95.8</ele>
        <time>2025-09-30T08:01:26Z</time>
      </trkpt>
      <trkpt lat="48.54027" lon="-2.75183">
        <ele>95.6</ele>
        <time>2025-09-30T08:01:29Z</time>
      </trkpt>
      <trkpt lat="48.5403" lon="-2.75174">
        <ele>95.4</ele>
        <time>2025-09-30T08:01:30Z</time>
      </trkpt>
      <trkpt lat="48.54034" lon="-2.75166">
        <ele>95.2</ele>
        <time>2025-09-30T08:01:31Z</time>
      </trkpt>
      <trkpt lat="48.54041" lon="-2.75149">
        <ele>94.8</ele>
        <time>2025-09-30T08:01:33Z</time>
      </trkpt>
      <trkpt lat="48.54063" lon="-2.75111">
        <ele>94</ele>
        <time>2025-09-30T08:01:38Z</time>
      </trkpt>
      <trkpt lat="48.5408" lon="-2.75083">
        <ele>93.6</ele>
        <time>2025-09-30T08:01:42Z</time>
      </trkpt>
      <trkpt lat="48.54093" lon="-2.75066">
        <ele>93.2</ele>
        <time>2025-09-30T08:01:45Z</time>
      </trkpt>
      <trkpt lat="48.54097" lon="-2.7506">
        <ele>93.2</ele>
        <time>2025-09-30T08:01:46Z</time>
      </trkpt>
      <trkpt lat="48.54102" lon="-2.75045">
        <ele>93</ele>
        <time>2025-09-30T08:01:48Z</time>
      </trkpt>
      <trkpt lat="48.54103" lon="-2.75037">
        <ele>93</ele>
        <time>2025-09-30T08:01:49Z</time>
      </trkpt>
      <trkpt lat="48.54107" lon="-2.74991">
        <ele>92.4</ele>
        <time>2025-09-30T08:01:54Z</time>
      </trkpt>
      <trkpt lat="48.5411" lon="-2.74953">
        <ele>92.2</ele>
        <time>2025-09-30T08:01:58Z</time>
      </trkpt>
      <trkpt lat="48.54118" lon="-2.74868">
        <ele>92</ele>
        <time>2025-09-30T08:02:07Z</time>
      </trkpt>
      <trkpt lat="48.54123" lon="-2.7483">
        <ele>92.2</ele>
        <time>2025-09-30T08:02:11Z</time>
      </trkpt>
      <trkpt lat="48.54126" lon="-2.74801">
        <ele>92</ele>
        <time>2025-09-30T08:02:14Z</time>
      </trkpt>
      <trkpt lat="48.54129" lon="-2.74772">
        <ele>91.8</ele>
        <time>2025-09-30T08:02:17Z</time>
      </trkpt>
      <trkpt lat="48.54137" lon="-2.74707">
        <ele>91.4</ele>
        <time>2025-09-30T08:02:24Z</time>
      </trkpt>
      <trkpt lat="48.54152" lon="-2.74623">
        <ele>91.2</ele>
        <time>2025-09-30T08:02:33Z</time>
      </trkpt>
      <trkpt lat="48.54155" lon="-2.74605">
        <ele>91</ele>
        <time>2025-09-30T08:02:35Z</time>
      </trkpt>
      <trkpt lat="48.54165" lon="-2.74548">
        <ele>90.2</ele>
        <time>2025-09-30T08:02:41Z</time>
      </trkpt>
      <trkpt lat="48.54176" lon="-2.74489">
        <ele>90</ele>
        <time>2025-09-30T08:02:47Z</time>
      </trkpt>
      <trkpt lat="48.54183" lon="-2.74449">
        <ele>89.2</ele>
        <time>2025-09-30T08:02:51Z</time>
      </trkpt>
      <trkpt lat="48.54198" lon="-2.74367">
        <ele>88.4</ele>
        <time>2025-09-30T08:02:59Z</time>
      </trkpt>
      <trkpt lat="48.54203" lon="-2.74337">
        <ele>88</ele>
        <time>2025-09-30T08:03:02Z</time>
      </trkpt>
      <trkpt lat="48.54217" lon="-2.74257">
        <ele>87.6</ele>
        <time>2025-09-30T08:03:10Z</time>
      </trkpt>
      <trkpt lat="48.5422" lon="-2.74237">
        <ele>87.4</ele>
        <time>2025-09-30T08:03:12Z</time>
      </trkpt>
      <trkpt lat="48.54222" lon="-2.74216">
        <ele>87</ele>
        <time>2025-09-30T08:03:14Z</time>
      </trkpt>
      <trkpt lat="48.54224" lon="-2.74152">
        <ele>86.4</ele>
        <time>2025-09-30T08:03:20Z</time>
      </trkpt>
      <trkpt lat="48.54222" lon="-2.74109">
        <ele>86</ele>
        <time>2025-09-30T08:03:24Z</time>
      </trkpt>
      <trkpt lat="48.54217" lon="-2.74067">
        <ele>85.4</ele>
        <time>2025-09-30T08:03:28Z</time>
      </trkpt>
      <trkpt lat="48.54212" lon="-2.74035">
        <ele>85</ele>
        <time>2025-09-30T08:03:31Z</time>
      </trkpt>
      <trkpt lat="48.54207" lon="-2.73992">
        <ele>84.2</ele>
        <time>2025-09-30T08:03:35Z</time>
      </trkpt>
      <trkpt lat="48.54201" lon="-2.7395">
        <ele>84</ele>
        <time>2025-09-30T08:03:39Z</time>
      </trkpt>
      <trkpt lat="48.542" lon="-2.73939">
        <ele>83.8</ele>
        <time>2025-09-30T08:03:40Z</time>
      </trkpt>
      <trkpt lat="48.54197" lon="-2.73879">
        <ele>83.2</ele>
        <time>2025-09-30T08:03:46Z</time>
      </trkpt>
      <trkpt lat="48.54199" lon="-2.7384">
        <ele>82.6</ele>
        <time>2025-09-30T08:03:50Z</time>
      </trkpt>
      <trkpt lat="48.54204" lon="-2.738">
        <ele>82</ele>
        <time>2025-09-30T08:03:54Z</time>
      </trkpt>
      <trkpt lat="48.54208" lon="-2.73758">
        <ele>81.4</ele>
        <time>2025-09-30T08:03:58Z</time>
      </trkpt>
      <trkpt lat="48.54213" lon="-2.73705">
        <ele>80.2</ele>
        <time>2025-09-30T08:04:03Z</time>
      </trkpt>
      <trkpt lat="48.54214" lon="-2.73695">
        <ele>80.2</ele>
        <time>2025-09-30T08:04:04Z</time>
      </trkpt>
      <trkpt lat="48.5422" lon="-2.73653">
        <ele>79.6</ele>
        <time>2025-09-30T08:04:08Z</time>
      </trkpt>
      <trkpt lat="48.54222" lon="-2.73632">
        <ele>79.2</ele>
        <time>2025-09-30T08:04:10Z</time>
      </trkpt>
      <trkpt lat="48.54224" lon="-2.73621">
        <ele>79</ele>
        <time>2025-09-30T08:04:11Z</time>
      </trkpt>
      <trkpt lat="48.5423" lon="-2.73578">
        <ele>78.2</ele>
        <time>2025-09-30T08:04:15Z</time>
      </trkpt>
      <trkpt lat="48.54233" lon="-2.73556">
        <ele>77.2</ele>
        <time>2025-09-30T08:04:17Z</time>
      </trkpt>
      <trkpt lat="48.54235" lon="-2.73544">
        <ele>77.2</ele>
        <time>2025-09-30T08:04:18Z</time>
      </trkpt>
      <trkpt lat="48.54239" lon="-2.7352">
        <ele>76.6</ele>
        <time>2025-09-30T08:04:20Z</time>
      </trkpt>
      <trkpt lat="48.54242" lon="-2.73498">
        <ele>76</ele>
        <time>2025-09-30T08:04:22Z</time>
      </trkpt>
      <trkpt lat="48.54245" lon="-2.73471">
        <ele>75.2</ele>
        <time>2025-09-30T08:04:25Z</time>
      </trkpt>
      <trkpt lat="48.54245" lon="-2.73462">
        <ele>75</ele>
        <time>2025-09-30T08:04:26Z</time>
      </trkpt>
      <trkpt lat="48.54247" lon="-2.73454">
        <ele>74.8</ele>
        <time>2025-09-30T08:04:27Z</time>
      </trkpt>
      <trkpt lat="48.54252" lon="-2.73417">
        <ele>73.8</ele>
        <time>2025-09-30T08:04:31Z</time>
      </trkpt>
      <trkpt lat="48.54253" lon="-2.73407">
        <ele>73.4</ele>
        <time>2025-09-30T08:04:32Z</time>
      </trkpt>
      <trkpt lat="48.54256" lon="-2.73377">
        <ele>72.6</ele>
        <time>2025-09-30T08:04:35Z</time>
      </trkpt>
      <trkpt lat="48.54259" lon="-2.73351">
        <ele>71.6</ele>
        <time>2025-09-30T08:04:37Z</time>
      </trkpt>
      <trkpt lat="48.54263" lon="-2.73303">
        <ele>70.4</ele>
        <time>2025-09-30T08:04:41Z</time>
      </trkpt>
      <trkpt lat="48.54266" lon="-2.73279">
        <ele>69.4</ele>
        <time>2025-09-30T08:04:43Z</time>
      </trkpt>
      <trkpt lat="48.54269" lon="-2.73258">
        <ele>68</ele>
        <time>2025-09-30T08:04:45Z</time>
      </trkpt>
      <trkpt lat="48.54274" lon="-2.73232">
        <ele>66.6</ele>
        <time>2025-09-30T08:04:48Z</time>
      </trkpt>
      <trkpt lat="48.54276" lon="-2.73214">
        <ele>65.6</ele>
        <time>2025-09-30T08:04:52Z</time>
      </trkpt>
      <trkpt lat="48.54276" lon="-2.7321">
        <ele>65.4</ele>
        <time>2025-09-30T08:04:53Z</time>
      </trkpt>
      <trkpt lat="48.54276" lon="-2.73184">
        <ele>65</ele>
        <time>2025-09-30T08:04:57Z</time>
      </trkpt>
      <trkpt lat="48.54275" lon="-2.73158">
        <ele>64.4</ele>
        <time>2025-09-30T08:05:00Z</time>
      </trkpt>
      <trkpt lat="48.54273" lon="-2.73139">
        <ele>64</ele>
        <time>2025-09-30T08:05:02Z</time>
      </trkpt>
      <trkpt lat="48.54271" lon="-2.73129">
        <ele>63.2</ele>
        <time>2025-09-30T08:05:03Z</time>
      </trkpt>
      <trkpt lat="48.54261" lon="-2.73097">
        <ele>61.2</ele>
        <time>2025-09-30T08:05:06Z</time>
      </trkpt>
      <trkpt lat="48.54247" lon="-2.73063">
        <ele>59.8</ele>
        <time>2025-09-30T08:05:09Z</time>
      </trkpt>
      <trkpt lat="48.54238" lon="-2.73043">
        <ele>58.6</ele>
        <time>2025-09-30T08:05:11Z</time>
      </trkpt>
      <trkpt lat="48.54233" lon="-2.73033">
        <ele>58.2</ele>
        <time>2025-09-30T08:05:12Z</time>
      </trkpt>
      <trkpt lat="48.54228" lon="-2.73023">
        <ele>57.6</ele>
        <time>2025-09-30T08:05:13Z</time>
      </trkpt>
      <trkpt lat="48.54212" lon="-2.72991">
        <ele>56</ele>
        <time>2025-09-30T08:05:16Z</time>
      </trkpt>
      <trkpt lat="48.54208" lon="-2.72979">
        <ele>55.6</ele>
        <time>2025-09-30T08:05:17Z</time>
      </trkpt>
      <trkpt lat="48.54202" lon="-2.72956">
        <ele>54.8</ele>
        <time>2025-09-30T08:05:19Z</time>
      </trkpt>
      <trkpt lat="48.54202" lon="-2.72919">
        <ele>53.2</ele>
        <time>2025-09-30T08:05:22Z</time>
      </trkpt>
      <trkpt lat="48.54203" lon="-2.72908">
        <ele>53</ele>
        <time>2025-09-30T08:05:23Z</time>
      </trkpt>
      <trkpt lat="48.54203" lon="-2.72886">
        <ele>52.6</ele>
        <time>2025-09-30T08:05:25Z</time>
      </trkpt>
      <trkpt lat="48.54202" lon="-2.72869">
        <ele>52.6</ele>
        <time>2025-09-30T08:05:27Z</time>
      </trkpt>
      <trkpt lat="48.54199" lon="-2.72852">
        <ele>53</ele>
        <time>2025-09-30T08:05:29Z</time>
      </trkpt>
      <trkpt lat="48.54194" lon="-2.7283">
        <ele>54</ele>
        <time>2025-09-30T08:05:32Z</time>
      </trkpt>
      <trkpt lat="48.54192" lon="-2.72823">
        <ele>54.4</ele>
        <time>2025-09-30T08:05:33Z</time>
      </trkpt>
      <trkpt lat="48.54179" lon="-2.72793">
        <ele>55</ele>
        <time>2025-09-30T08:05:38Z</time>
      </trkpt>
      <trkpt lat="48.54173" lon="-2.72782">
        <ele>55.2</ele>
        <time>2025-09-30T08:05:40Z</time>
      </trkpt>
      <trkpt lat="48.54166" lon="-2.72772">
        <ele>55.4</ele>
        <time>2025-09-30T08:05:42Z</time>
      </trkpt>
      <trkpt lat="48.54163" lon="-2.72767">
        <ele>55.6</ele>
        <time>2025-09-30T08:05:43Z</time>
      </trkpt>
      <trkpt lat="48.54159" lon="-2.72762">
        <ele>55.6</ele>
        <time>2025-09-30T08:05:44Z</time>
      </trkpt>
      <trkpt lat="48.54155" lon="-2.72758">
        <ele>55.8</ele>
        <time>2025-09-30T08:05:45Z</time>
      </trkpt>
      <trkpt lat="48.5415" lon="-2.72754">
        <ele>56</ele>
        <time>2025-09-30T08:05:46Z</time>
      </trkpt>
      <trkpt lat="48.54141" lon="-2.72751">
        <ele>56.4</ele>
        <time>2025-09-30T08:05:48Z</time>
      </trkpt>
      <trkpt lat="48.54131" lon="-2.72745">
        <ele>56.8</ele>
        <time>2025-09-30T08:05:50Z</time>
      </trkpt>
      <trkpt lat="48.54108" lon="-2.72721">
        <ele>56.8</ele>
        <time>2025-09-30T08:05:55Z</time>
      </trkpt>
      <trkpt lat="48.54089" lon="-2.72702">
        <ele>55.4</ele>
        <time>2025-09-30T08:05:58Z</time>
      </trkpt>
      <trkpt lat="48.54082" lon="-2.72695">
        <ele>54.8</ele>
        <time>2025-09-30T08:05:59Z</time>
      </trkpt>
      <trkpt lat="48.54074" lon="-2.72689">
        <ele>54</ele>
        <time>2025-09-30T08:06:00Z</time>
      </trkpt>
      <trkpt lat="48.54058" lon="-2.72677">
        <ele>52.8</ele>
        <time>2025-09-30T08:06:02Z</time>
      </trkpt>
      <trkpt lat="48.54041" lon="-2.72665">
        <ele>51.8</ele>
        <time>2025-09-30T08:06:04Z</time>
      </trkpt>
      <trkpt lat="48.54026" lon="-2.72653">
        <ele>50.6</ele>
        <time>2025-09-30T08:06:06Z</time>
      </trkpt>
      <trkpt lat="48.53994" lon="-2.72623">
        <ele>49.4</ele>
        <time>2025-09-30T08:06:10Z</time>
      </trkpt>
      <trkpt lat="48.53962" lon="-2.72584">
        <ele>48.6</ele>
        <time>2025-09-30T08:06:15Z</time>
      </trkpt>
      <trkpt lat="48.53956" lon="-2.72577">
        <ele>48.4</ele>
        <time>2025-09-30T08:06:16Z</time>
      </trkpt>
      <trkpt lat="48.53935" lon="-2.72547">
        <ele>48</ele>
        <time>2025-09-30T08:06:20Z</time>
      </trkpt>
      <trkpt lat="48.53926" lon="-2.72532">
        <ele>47.4</ele>
        <time>2025-09-30T08:06:22Z</time>
      </trkpt>
      <trkpt lat="48.53907" lon="-2.725">
        <ele>46.2</ele>
        <time>2025-09-30T08:06:26Z</time>
      </trkpt>
      <trkpt lat="48.53902" lon="-2.72492">
        <ele>46</ele>
        <time>2025-09-30T08:06:27Z</time>
      </trkpt>
      <trkpt lat="48.53875" lon="-2.72444">
        <ele>44.4</ele>
        <time>2025-09-30T08:06:32Z</time>
      </trkpt>
      <trkpt lat="48.5387" lon="-2.72433">
        <ele>43.4</ele>
        <time>2025-09-30T08:06:33Z</time>
      </trkpt>
      <trkpt lat="48.53861" lon="-2.72408">
        <ele>42.2</ele>
        <time>2025-09-30T08:06:35Z</time>
      </trkpt>
      <trkpt lat="48.53857" lon="-2.72395">
        <ele>41.6</ele>
        <time>2025-09-30T08:06:36Z</time>
      </trkpt>
      <trkpt lat="48.53852" lon="-2.72382">
        <ele>41.4</ele>
        <time>2025-09-30T08:06:37Z</time>
      </trkpt>
      <trkpt lat="48.53848" lon="-2.72368">
        <ele>41</ele>
        <time>2025-09-30T08:06:38Z</time>
      </trkpt>
      <trkpt lat="48.53845" lon="-2.72357">
        <ele>40.8</ele>
        <time>2025-09-30T08:06:39Z</time>
      </trkpt>
      <trkpt lat="48.53835" lon="-2.72328">
        <ele>40.2</ele>
        <time>2025-09-30T08:06:41Z</time>
      </trkpt>
      <trkpt lat="48.53832" lon="-2.7232">
        <ele>40</ele>
        <time>2025-09-30T08:06:42Z</time>
      </trkpt>
      <trkpt lat="48.53826" lon="-2.72307">
        <ele>39.6</ele>
        <time>2025-09-30T08:06:43Z</time>
      </trkpt>
      <trkpt lat="48.53807" lon="-2.72272">
        <ele>39.4</ele>
        <time>2025-09-30T08:06:47Z</time>
      </trkpt>
      <trkpt lat="48.53803" lon="-2.72264">
        <ele>39.4</ele>
        <time>2025-09-30T08:06:48Z</time>
      </trkpt>
      <trkpt lat="48.53774" lon="-2.72214">
        <ele>40</ele>
        <time>2025-09-30T08:06:55Z</time>
      </trkpt>
      <trkpt lat="48.53749" lon="-2.72161">
        <ele>41</ele>
        <time>2025-09-30T08:07:02Z</time>
      </trkpt>
      <trkpt lat="48.5373" lon="-2.72112">
        <ele>42.4</ele>
        <time>2025-09-30T08:07:08Z</time>
      </trkpt>
      <trkpt lat="48.53721" lon="-2.72088">
        <ele>42.4</ele>
        <time>2025-09-30T08:07:11Z</time>
      </trkpt>
      <trkpt lat="48.53698" lon="-2.72027">
        <ele>41.8</ele>
        <time>2025-09-30T08:07:18Z</time>
      </trkpt>
      <trkpt lat="48.53692" lon="-2.72009">
        <ele>41.2</ele>
        <time>2025-09-30T08:07:20Z</time>
      </trkpt>
      <trkpt lat="48.53682" lon="-2.71981">
        <ele>40</ele>
        <time>2025-09-30T08:07:23Z</time>
      </trkpt>
      <trkpt lat="48.53674" lon="-2.71961">
        <ele>39.6</ele>
        <time>2025-09-30T08:07:25Z</time>
      </trkpt>
      <trkpt lat="48.53664" lon="-2.71942">
        <ele>39</ele>
        <time>2025-09-30T08:07:27Z</time>
      </trkpt>
      <trkpt lat="48.53658" lon="-2.71933">
        <ele>38.8</ele>
        <time>2025-09-30T08:07:28Z</time>
      </trkpt>
      <trkpt lat="48.53652" lon="-2.71926">
        <ele>38.4</ele>
        <time>2025-09-30T08:07:29Z</time>
      </trkpt>
      <trkpt lat="48.53638" lon="-2.71916">
        <ele>37.4</ele>
        <time>2025-09-30T08:07:31Z</time>
      </trkpt>
      <trkpt lat="48.53631" lon="-2.71913">
        <ele>36.8</ele>
        <time>2025-09-30T08:07:32Z</time>
      </trkpt>
      <trkpt lat="48.53624" lon="-2.71912">
        <ele>36.4</ele>
        <time>2025-09-30T08:07:33Z</time>
      </trkpt>
      <trkpt lat="48.53616" lon="-2.71913">
        <ele>36.2</ele>
        <time>2025-09-30T08:07:34Z</time>
      </trkpt>
      <trkpt lat="48.5361" lon="-2.71915">
        <ele>35.4</ele>
        <time>2025-09-30T08:07:35Z</time>
      </trkpt>
      <trkpt lat="48.53602" lon="-2.71919">
        <ele>34.8</ele>
        <time>2025-09-30T08:07:36Z</time>
      </trkpt>
      <trkpt lat="48.53595" lon="-2.71923">
        <ele>34.2</ele>
        <time>2025-09-30T08:07:37Z</time>
      </trkpt>
      <trkpt lat="48.53588" lon="-2.71929">
        <ele>34.2</ele>
        <time>2025-09-30T08:07:38Z</time>
      </trkpt>
      <trkpt lat="48.53581" lon="-2.71937">
        <ele>33.8</ele>
        <time>2025-09-30T08:07:39Z</time>
      </trkpt>
      <trkpt lat="48.53569" lon="-2.71951">
        <ele>33.2</ele>
        <time>2025-09-30T08:07:41Z</time>
      </trkpt>
      <trkpt lat="48.53562" lon="-2.7196">
        <ele>32.8</ele>
        <time>2025-09-30T08:07:42Z</time>
      </trkpt>
      <trkpt lat="48.53545" lon="-2.71987">
        <ele>31.4</ele>
        <time>2025-09-30T08:07:45Z</time>
      </trkpt>
      <trkpt lat="48.53521" lon="-2.72026">
        <ele>30.2</ele>
        <time>2025-09-30T08:07:49Z</time>
      </trkpt>
      <trkpt lat="48.53506" lon="-2.72045">
        <ele>29.4</ele>
        <time>2025-09-30T08:07:51Z</time>
      </trkpt>
      <trkpt lat="48.53499" lon="-2.72053">
        <ele>29</ele>
        <time>2025-09-30T08:07:52Z</time>
      </trkpt>
      <trkpt lat="48.53479" lon="-2.72078">
        <ele>27.4</ele>
        <time>2025-09-30T08:07:55Z</time>
      </trkpt>
      <trkpt lat="48.53454" lon="-2.72105">
        <ele>26</ele>
        <time>2025-09-30T08:07:58Z</time>
      </trkpt>
      <trkpt lat="48.53447" lon="-2.72113">
        <ele>25.2</ele>
        <time>2025-09-30T08:07:59Z</time>
      </trkpt>
      <trkpt lat="48.53439" lon="-2.72122">
        <ele>24.8</ele>
        <time>2025-09-30T08:08:00Z</time>
      </trkpt>
      <trkpt lat="48.53423" lon="-2.72139">
        <ele>23.8</ele>
        <time>2025-09-30T08:08:02Z</time>
      </trkpt>
      <trkpt lat="48.53406" lon="-2.72158">
        <ele>22</ele>
        <time>2025-09-30T08:08:04Z</time>
      </trkpt>
      <trkpt lat="48.53382" lon="-2.72185">
        <ele>20.6</ele>
        <time>2025-09-30T08:08:07Z</time>
      </trkpt>
      <trkpt lat="48.53373" lon="-2.72194">
        <ele>19.6</ele>
        <time>2025-09-30T08:08:08Z</time>
      </trkpt>
      <trkpt lat="48.53365" lon="-2.72203">
        <ele>19</ele>
        <time>2025-09-30T08:08:09Z</time>
      </trkpt>
      <trkpt lat="48.53349" lon="-2.72223">
        <ele>17.8</ele>
        <time>2025-09-30T08:08:11Z</time>
      </trkpt>
      <trkpt lat="48.53329" lon="-2.72252">
        <ele>16</ele>
        <time>2025-09-30T08:08:14Z</time>
      </trkpt>
      <trkpt lat="48.53315" lon="-2.72275">
        <ele>15.2</ele>
        <time>2025-09-30T08:08:16Z</time>
      </trkpt>
      <trkpt lat="48.53308" lon="-2.72286">
        <ele>14.8</ele>
        <time>2025-09-30T08:08:17Z</time>
      </trkpt>
      <trkpt lat="48.53288" lon="-2.72316">
        <ele>13.6</ele>
        <time>2025-09-30T08:08:20Z</time>
      </trkpt>
      <trkpt lat="48.53282" lon="-2.72325">
        <ele>13.6</ele>
        <time>2025-09-30T08:08:21Z</time>
      </trkpt>
      <trkpt lat="48.53263" lon="-2.7235">
        <ele>12.6</ele>
        <time>2025-09-30T08:08:24Z</time>
      </trkpt>
      <trkpt lat="48.53251" lon="-2.72366">
        <ele>12.4</ele>
        <time>2025-09-30T08:08:26Z</time>
      </trkpt>
      <trkpt lat="48.53224" lon="-2.72402">
        <ele>11.6</ele>
        <time>2025-09-30T08:08:31Z</time>
      </trkpt>
      <trkpt lat="48.53213" lon="-2.72415">
        <ele>11</ele>
        <time>2025-09-30T08:08:33Z</time>
      </trkpt>
      <trkpt lat="48.53197" lon="-2.72437">
        <ele>10.2</ele>
        <time>2025-09-30T08:08:36Z</time>
      </trkpt>
      <trkpt lat="48.53166" lon="-2.72478">
        <ele>9.2</ele>
        <time>2025-09-30T08:08:42Z</time>
      </trkpt>
      <trkpt lat="48.53156" lon="-2.7249">
        <ele>9</ele>
        <time>2025-09-30T08:08:44Z</time>
      </trkpt>
      <trkpt lat="48.53136" lon="-2.72515">
        <ele>8.6</ele>
        <time>2025-09-30T08:08:48Z</time>
      </trkpt>
      <trkpt lat="48.53132" lon="-2.72521">
        <ele>8.6</ele>
        <time>2025-09-30T08:08:49Z</time>
      </trkpt>
      <trkpt lat="48.53123" lon="-2.72534">
        <ele>8.6</ele>
        <time>2025-09-30T08:08:51Z</time>
      </trkpt>
      <trkpt lat="48.53114" lon="-2.72546">
        <ele>8.6</ele>
        <time>2025-09-30T08:08:53Z</time>
      </trkpt>
      <trkpt lat="48.53086" lon="-2.72593">
        <ele>8.4</ele>
        <time>2025-09-30T08:09:00Z</time>
      </trkpt>
      <trkpt lat="48.53062" lon="-2.72634">
        <ele>8.4</ele>
        <time>2025-09-30T08:09:06Z</time>
      </trkpt>
      <trkpt lat="48.53055" lon="-2.72648">
        <ele>8.4</ele>
        <time>2025-09-30T08:09:08Z</time>
      </trkpt>
      <trkpt lat="48.53043" lon="-2.72668">
        <ele>8</ele>
        <time>2025-09-30T08:09:11Z</time>
      </trkpt>
      <trkpt lat="48.53025" lon="-2.72704">
        <ele>7.8</ele>
        <time>2025-09-30T08:09:16Z</time>
      </trkpt>
      <trkpt lat="48.5301" lon="-2.72752">
        <ele>7.8</ele>
        <time>2025-09-30T08:09:22Z</time>
      </trkpt>
      <trkpt lat="48.53002" lon="-2.72814">
        <ele>7.6</ele>
        <time>2025-09-30T08:09:29Z</time>
      </trkpt>
      <trkpt lat="48.52993" lon="-2.72878">
        <ele>7.8</ele>
        <time>2025-09-30T08:09:36Z</time>
      </trkpt>
      <trkpt lat="48.52976" lon="-2.72958">
        <ele>8.2</ele>
        <time>2025-09-30T08:09:45Z</time>
      </trkpt>
      <trkpt lat="48.52958" lon="-2.73037">
        <ele>8</ele>
        <time>2025-09-30T08:09:54Z</time>
      </trkpt>
      <trkpt lat="48.52945" lon="-2.73107">
        <ele>8.2</ele>
        <time>2025-09-30T08:10:02Z</time>
      </trkpt>
      <trkpt lat="48.52943" lon="-2.73179">
        <ele>8.2</ele>
        <time>2025-09-30T08:10:10Z</time>
      </trkpt>
      <trkpt lat="48.52943" lon="-2.73197">
        <ele>8.4</ele>
        <time>2025-09-30T08:10:12Z</time>
      </trkpt>
      <trkpt lat="48.52946" lon="-2.73223">
        <ele>8.4</ele>
        <time>2025-09-30T08:10:15Z</time>
      </trkpt>
      <trkpt lat="48.52956" lon="-2.73304">
        <ele>8.2</ele>
        <time>2025-09-30T08:10:24Z</time>
      </trkpt>
      <trkpt lat="48.52959" lon="-2.73358">
        <ele>8</ele>
        <time>2025-09-30T08:10:30Z</time>
      </trkpt>
      <trkpt lat="48.52949" lon="-2.7344">
        <ele>8.2</ele>
        <time>2025-09-30T08:10:39Z</time>
      </trkpt>
      <trkpt lat="48.52938" lon="-2.73521">
        <ele>8</ele>
        <time>2025-09-30T08:10:48Z</time>
      </trkpt>
      <trkpt lat="48.52927" lon="-2.73601">
        <ele>8.4</ele>
        <time>2025-09-30T08:10:57Z</time>
      </trkpt>
      <trkpt lat="48.52909" lon="-2.73679">
        <ele>8.6</ele>
        <time>2025-09-30T08:11:06Z</time>
      </trkpt>
      <trkpt lat="48.52889" lon="-2.73727">
        <ele>8.2</ele>
        <time>2025-09-30T08:11:12Z</time>
      </trkpt>
      <trkpt lat="48.52861" lon="-2.73765">
        <ele>8</ele>
        <time>2025-09-30T08:11:18Z</time>
      </trkpt>
      <trkpt lat="48.52821" lon="-2.73807">
        <ele>8</ele>
        <time>2025-09-30T08:11:26Z</time>
      </trkpt>
      <trkpt lat="48.5277" lon="-2.73844">
        <ele>7.8</ele>
        <time>2025-09-30T08:11:35Z</time>
      </trkpt>
      <trkpt lat="48.52736" lon="-2.73867">
        <ele>7.2</ele>
        <time>2025-09-30T08:11:41Z</time>
      </trkpt>
      <trkpt lat="48.52718" lon="-2.73878">
        <ele>7</ele>
        <time>2025-09-30T08:11:44Z</time>
      </trkpt>
      <trkpt lat="48.5267" lon="-2.73908">
        <ele>6.8</ele>
        <time>2025-09-30T08:11:52Z</time>
      </trkpt>
      <trkpt lat="48.52619" lon="-2.73937">
        <ele>6.6</ele>
        <time>2025-09-30T08:12:01Z</time>
      </trkpt>
      <trkpt lat="48.52614" lon="-2.73941">
        <ele>6.6</ele>
        <time>2025-09-30T08:12:02Z</time>
      </trkpt>
      <trkpt lat="48.52595" lon="-2.73965">
        <ele>6.6</ele>
        <time>2025-09-30T08:12:06Z</time>
      </trkpt>
      <trkpt lat="48.52567" lon="-2.74012">
        <ele>6.6</ele>
        <time>2025-09-30T08:12:13Z</time>
      </trkpt>
      <trkpt lat="48.52544" lon="-2.74063">
        <ele>6.6</ele>
        <time>2025-09-30T08:12:20Z</time>
      </trkpt>
      <trkpt lat="48.52529" lon="-2.7411">
        <ele>6.4</ele>
        <time>2025-09-30T08:12:26Z</time>
      </trkpt>
      <trkpt lat="48.52527" lon="-2.74117">
        <ele>6.2</ele>
        <time>2025-09-30T08:12:27Z</time>
      </trkpt>
      <trkpt lat="48.52523" lon="-2.7413">
        <ele>6.2</ele>
        <time>2025-09-30T08:12:29Z</time>
      </trkpt>
      <trkpt lat="48.5252" lon="-2.74143">
        <ele>6.2</ele>
        <time>2025-09-30T08:12:31Z</time>
      </trkpt>
      <trkpt lat="48.52514" lon="-2.74175">
        <ele>6</ele>
        <time>2025-09-30T08:12:36Z</time>
      </trkpt>
      <trkpt lat="48.52512" lon="-2.74179">
        <ele>6</ele>
        <time>2025-09-30T08:12:37Z</time>
      </trkpt>
      <trkpt lat="48.52509" lon="-2.74182">
        <ele>6</ele>
        <time>2025-09-30T08:12:38Z</time>
      </trkpt>
      <trkpt lat="48.52504" lon="-2.74183">
        <ele>5.8</ele>
        <time>2025-09-30T08:12:40Z</time>
      </trkpt>
      <trkpt lat="48.52489" lon="-2.74177">
        <ele>5.8</ele>
        <time>2025-09-30T08:12:45Z</time>
      </trkpt>
      <trkpt lat="48.52466" lon="-2.74168">
        <ele>5.6</ele>
        <time>2025-09-30T08:12:50Z</time>
      </trkpt>
      <trkpt lat="48.52461" lon="-2.74166">
        <ele>5.6</ele>
        <time>2025-09-30T08:12:51Z</time>
      </trkpt>
      <trkpt lat="48.52452" lon="-2.74163">
        <ele>5.6</ele>
        <time>2025-09-30T08:12:53Z</time>
      </trkpt>
      <trkpt lat="48.52427" lon="-2.74153">
        <ele>5.8</ele>
        <time>2025-09-30T08:12:59Z</time>
      </trkpt>
      <trkpt lat="48.52418" lon="-2.74148">
        <ele>6.2</ele>
        <time>2025-09-30T08:13:03Z</time>
      </trkpt>
      <trkpt lat="48.52412" lon="-2.7413">
        <ele>6.2</ele>
        <time>2025-09-30T08:13:07Z</time>
      </trkpt>
      <trkpt lat="48.5241" lon="-2.74115">
        <ele>6.2</ele>
        <time>2025-09-30T08:13:09Z</time>
      </trkpt>
      <trkpt lat="48.52409" lon="-2.7409">
        <ele>5.8</ele>
        <time>2025-09-30T08:13:13Z</time>
      </trkpt>
      <trkpt lat="48.52409" lon="-2.74076">
        <ele>5.8</ele>
        <time>2025-09-30T08:13:15Z</time>
      </trkpt>
      <trkpt lat="48.52405" lon="-2.74062">
        <ele>5.8</ele>
        <time>2025-09-30T08:13:17Z</time>
      </trkpt>
      <trkpt lat="48.52402" lon="-2.74057">
        <ele>5.8</ele>
        <time>2025-09-30T08:13:18Z</time>
      </trkpt>
      <trkpt lat="48.52396" lon="-2.74052">
        <ele>5.8</ele>
        <time>2025-09-30T08:13:20Z</time>
      </trkpt>
      <trkpt lat="48.5239" lon="-2.74052">
        <ele>6</ele>
        <time>2025-09-30T08:13:22Z</time>
      </trkpt>
      <trkpt lat="48.52375" lon="-2.74049">
        <ele>6.6</ele>
        <time>2025-09-30T08:13:28Z</time>
      </trkpt>
      <trkpt lat="48.52364" lon="-2.74045">
        <ele>6.8</ele>
        <time>2025-09-30T08:13:34Z</time>
      </trkpt>
      <trkpt lat="48.52367" lon="-2.74038">
        <ele>6.8</ele>
        <time>2025-09-30T08:13:37Z</time>
      </trkpt>
      <trkpt lat="48.52382" lon="-2.74021">
        <ele>6.6</ele>
        <time>2025-09-30T08:13:42Z</time>
      </trkpt>
      <trkpt lat="48.52384" lon="-2.74016">
        <ele>6.6</ele>
        <time>2025-09-30T08:13:43Z</time>
      </trkpt>
      <trkpt lat="48.52395" lon="-2.7399">
        <ele>6.2</ele>
        <time>2025-09-30T08:13:47Z</time>
      </trkpt>
      <trkpt lat="48.52401" lon="-2.73965">
        <ele>5.8</ele>
        <time>2025-09-30T08:13:50Z</time>
      </trkpt>
      <trkpt lat="48.52406" lon="-2.73949">
        <ele>5.8</ele>
        <time>2025-09-30T08:13:52Z</time>
      </trkpt>
      <trkpt lat="48.52426" lon="-2.73896">
        <ele>6</ele>
        <time>2025-09-30T08:13:59Z</time>
      </trkpt>
      <trkpt lat="48.52455" lon="-2.73827">
        <ele>5.8</ele>
        <time>2025-09-30T08:14:09Z</time>
      </trkpt>
      <trkpt lat="48.52468" lon="-2.738">
        <ele>6</ele>
        <time>2025-09-30T08:14:13Z</time>
      </trkpt>
      <trkpt lat="48.52476" lon="-2.73787">
        <ele>6</ele>
        <time>2025-09-30T08:14:15Z</time>
      </trkpt>
      <trkpt lat="48.52505" lon="-2.73742">
        <ele>6</ele>
        <time>2025-09-30T08:14:23Z</time>
      </trkpt>
      <trkpt lat="48.52512" lon="-2.73732">
        <ele>5.8</ele>
        <time>2025-09-30T08:14:25Z</time>
      </trkpt>
      <trkpt lat="48.5252" lon="-2.73721">
        <ele>5.8</ele>
        <time>2025-09-30T08:14:27Z</time>
      </trkpt>
      <trkpt lat="48.52547" lon="-2.73694">
        <ele>5.8</ele>
        <time>2025-09-30T08:14:33Z</time>
      </trkpt>
      <trkpt lat="48.52558" lon="-2.73688">
        <ele>5.8</ele>
        <time>2025-09-30T08:14:35Z</time>
      </trkpt>
      <trkpt lat="48.52568" lon="-2.73682">
        <ele>5.8</ele>
        <time>2025-09-30T08:14:37Z</time>
      </trkpt>
      <trkpt lat="48.52584" lon="-2.73675">
        <ele>5.8</ele>
        <time>2025-09-30T08:14:40Z</time>
      </trkpt>
      <trkpt lat="48.5262" lon="-2.73662">
        <ele>5.8</ele>
        <time>2025-09-30T08:14:47Z</time>
      </trkpt>
      <trkpt lat="48.52635" lon="-2.73656">
        <ele>6</ele>
        <time>2025-09-30T08:14:50Z</time>
      </trkpt>
      <trkpt lat="48.52681" lon="-2.73634">
        <ele>6.4</ele>
        <time>2025-09-30T08:14:59Z</time>
      </trkpt>
      <trkpt lat="48.52696" lon="-2.73627">
        <ele>6.4</ele>
        <time>2025-09-30T08:15:02Z</time>
      </trkpt>
      <trkpt lat="48.52706" lon="-2.73627">
        <ele>6.4</ele>
        <time>2025-09-30T08:15:04Z</time>
      </trkpt>
      <trkpt lat="48.52711" lon="-2.73626">
        <ele>6.4</ele>
        <time>2025-09-30T08:15:05Z</time>
      </trkpt>
      <trkpt lat="48.5272" lon="-2.7362">
        <ele>6.6</ele>
        <time>2025-09-30T08:15:07Z</time>
      </trkpt>
      <trkpt lat="48.52724" lon="-2.73615">
        <ele>6.6</ele>
        <time>2025-09-30T08:15:08Z</time>
      </trkpt>
      <trkpt lat="48.52748" lon="-2.73577">
        <ele>6</ele>
        <time>2025-09-30T08:15:14Z</time>
      </trkpt>
      <trkpt lat="48.52752" lon="-2.7357">
        <ele>6</ele>
        <time>2025-09-30T08:15:15Z</time>
      </trkpt>
      <trkpt lat="48.52772" lon="-2.73524">
        <ele>5.8</ele>
        <time>2025-09-30T08:15:21Z</time>
      </trkpt>
      <trkpt lat="48.52776" lon="-2.73506">
        <ele>5.8</ele>
        <time>2025-09-30T08:15:23Z</time>
      </trkpt>
      <trkpt lat="48.5278" lon="-2.73479">
        <ele>5.8</ele>
        <time>2025-09-30T08:15:26Z</time>
      </trkpt>
      <trkpt lat="48.52787" lon="-2.73404">
        <ele>6.2</ele>
        <time>2025-09-30T08:15:34Z</time>
      </trkpt>
      <trkpt lat="48.52787" lon="-2.73324">
        <ele>6.2</ele>
        <time>2025-09-30T08:15:43Z</time>
      </trkpt>
      <trkpt lat="48.52778" lon="-2.73254">
        <ele>6.2</ele>
        <time>2025-09-30T08:15:51Z</time>
      </trkpt>
      <trkpt lat="48.52773" lon="-2.73173">
        <ele>6.4</ele>
        <time>2025-09-30T08:16:00Z</time>
      </trkpt>
      <trkpt lat="48.52773" lon="-2.73164">
        <ele>6.2</ele>
        <time>2025-09-30T08:16:01Z</time>
      </trkpt>
      <trkpt lat="48.52772" lon="-2.73148">
        <ele>6.2</ele>
        <time>2025-09-30T08:16:03Z</time>
      </trkpt>
      <trkpt lat="48.52771" lon="-2.73139">
        <ele>6.2</ele>
        <time>2025-09-30T08:16:04Z</time>
      </trkpt>
      <trkpt lat="48.52766" lon="-2.73115">
        <ele>6.2</ele>
        <time>2025-09-30T08:16:07Z</time>
      </trkpt>
      <trkpt lat="48.52753" lon="-2.73075">
        <ele>6.8</ele>
        <time>2025-09-30T08:16:13Z</time>
      </trkpt>
      <trkpt lat="48.52744" lon="-2.73048">
        <ele>7.2</ele>
        <time>2025-09-30T08:16:17Z</time>
      </trkpt>
      <trkpt lat="48.5274" lon="-2.73028">
        <ele>7.8</ele>
        <time>2025-09-30T08:16:20Z</time>
      </trkpt>
      <trkpt lat="48.52739" lon="-2.73021">
        <ele>8.2</ele>
        <time>2025-09-30T08:16:21Z</time>
      </trkpt>
      <trkpt lat="48.52738" lon="-2.73014">
        <ele>8.6</ele>
        <time>2025-09-30T08:16:22Z</time>
      </trkpt>
      <trkpt lat="48.52738" lon="-2.73007">
        <ele>9.6</ele>
        <time>2025-09-30T08:16:23Z</time>
      </trkpt>
      <trkpt lat="48.52737" lon="-2.73">
        <ele>9.8</ele>
        <time>2025-09-30T08:16:24Z</time>
      </trkpt>
      <trkpt lat="48.52738" lon="-2.72979">
        <ele>10.8</ele>
        <time>2025-09-30T08:16:27Z</time>
      </trkpt>
      <trkpt lat="48.52738" lon="-2.72943">
        <ele>12</ele>
        <time>2025-09-30T08:16:32Z</time>
      </trkpt>
      <trkpt lat="48.52738" lon="-2.72921">
        <ele>12.8</ele>
        <time>2025-09-30T08:16:35Z</time>
      </trkpt>
      <trkpt lat="48.52737" lon="-2.72913">
        <ele>13</ele>
        <time>2025-09-30T08:16:36Z</time>
      </trkpt>
      <trkpt lat="48.52736" lon="-2.72892">
        <ele>14.4</ele>
        <time>2025-09-30T08:16:39Z</time>
      </trkpt>
      <trkpt lat="48.52734" lon="-2.72878">
        <ele>15.2</ele>
        <time>2025-09-30T08:16:41Z</time>
      </trkpt>
      <trkpt lat="48.52733" lon="-2.72873">
        <ele>15.8</ele>
        <time>2025-09-30T08:16:42Z</time>
      </trkpt>
      <trkpt lat="48.5273" lon="-2.72867">
        <ele>16</ele>
        <time>2025-09-30T08:16:43Z</time>
      </trkpt>
      <trkpt lat="48.52724" lon="-2.7285">
        <ele>16.8</ele>
        <time>2025-09-30T08:16:46Z</time>
      </trkpt>
      <trkpt lat="48.52722" lon="-2.72837">
        <ele>17</ele>
        <time>2025-09-30T08:16:48Z</time>
      </trkpt>
      <trkpt lat="48.52721" lon="-2.7283">
        <ele>17.4</ele>
        <time>2025-09-30T08:16:49Z</time>
      </trkpt>
      <trkpt lat="48.52721" lon="-2.72823">
        <ele>17.4</ele>
        <time>2025-09-30T08:16:50Z</time>
      </trkpt>
      <trkpt lat="48.5272" lon="-2.7281">
        <ele>18.2</ele>
        <time>2025-09-30T08:16:52Z</time>
      </trkpt>
      <trkpt lat="48.52721" lon="-2.72789">
        <ele>19.2</ele>
        <time>2025-09-30T08:16:55Z</time>
      </trkpt>
      <trkpt lat="48.52721" lon="-2.72776">
        <ele>20</ele>
        <time>2025-09-30T08:16:57Z</time>
      </trkpt>
      <trkpt lat="48.5272" lon="-2.7277">
        <ele>20.6</ele>
        <time>2025-09-30T08:16:58Z</time>
      </trkpt>
      <trkpt lat="48.52719" lon="-2.72752">
        <ele>21.8</ele>
        <time>2025-09-30T08:17:01Z</time>
      </trkpt>
      <trkpt lat="48.52719" lon="-2.7274">
        <ele>22.8</ele>
        <time>2025-09-30T08:17:03Z</time>
      </trkpt>
      <trkpt lat="48.52719" lon="-2.72734">
        <ele>23.2</ele>
        <time>2025-09-30T08:17:04Z</time>
      </trkpt>
      <trkpt lat="48.52719" lon="-2.72717">
        <ele>24.8</ele>
        <time>2025-09-30T08:17:07Z</time>
      </trkpt>
      <trkpt lat="48.52719" lon="-2.72712">
        <ele>25.6</ele>
        <time>2025-09-30T08:17:08Z</time>
      </trkpt>
      <trkpt lat="48.52719" lon="-2.72707">
        <ele>26</ele>
        <time>2025-09-30T08:17:09Z</time>
      </trkpt>
      <trkpt lat="48.5272" lon="-2.72698">
        <ele>27</ele>
        <time>2025-09-30T08:17:11Z</time>
      </trkpt>
      <trkpt lat="48.5272" lon="-2.72693">
        <ele>27.2</ele>
        <time>2025-09-30T08:17:12Z</time>
      </trkpt>
      <trkpt lat="48.52722" lon="-2.72676">
        <ele>28.6</ele>
        <time>2025-09-30T08:17:15Z</time>
      </trkpt>
      <trkpt lat="48.52723" lon="-2.7266">
        <ele>29.6</ele>
        <time>2025-09-30T08:17:18Z</time>
      </trkpt>
      <trkpt lat="48.52722" lon="-2.72655">
        <ele>30.4</ele>
        <time>2025-09-30T08:17:19Z</time>
      </trkpt>
      <trkpt lat="48.52721" lon="-2.72646">
        <ele>31.2</ele>
        <time>2025-09-30T08:17:21Z</time>
      </trkpt>
      <trkpt lat="48.52723" lon="-2.72632">
        <ele>32.8</ele>
        <time>2025-09-30T08:17:24Z</time>
      </trkpt>
      <trkpt lat="48.52727" lon="-2.72617">
        <ele>33.8</ele>
        <time>2025-09-30T08:17:27Z</time>
      </trkpt>
      <trkpt lat="48.52729" lon="-2.72607">
        <ele>35.2</ele>
        <time>2025-09-30T08:17:29Z</time>
      </trkpt>
      <trkpt lat="48.52732" lon="-2.72596">
        <ele>36.2</ele>
        <time>2025-09-30T08:17:31Z</time>
      </trkpt>
      <trkpt lat="48.52735" lon="-2.72586">
        <ele>37</ele>
        <time>2025-09-30T08:17:33Z</time>
      </trkpt>
      <trkpt lat="48.52736" lon="-2.72581">
        <ele>37.2</ele>
        <time>2025-09-30T08:17:34Z</time>
      </trkpt>
      <trkpt lat="48.52737" lon="-2.7257">
        <ele>38.4</ele>
        <time>2025-09-30T08:17:36Z</time>
      </trkpt>
      <trkpt lat="48.52737" lon="-2.72561">
        <ele>39.6</ele>
        <time>2025-09-30T08:17:38Z</time>
      </trkpt>
      <trkpt lat="48.52736" lon="-2.72552">
        <ele>40.8</ele>
        <time>2025-09-30T08:17:40Z</time>
      </trkpt>
      <trkpt lat="48.52735" lon="-2.72542">
        <ele>41.8</ele>
        <time>2025-09-30T08:17:42Z</time>
      </trkpt>
      <trkpt lat="48.52735" lon="-2.72537">
        <ele>42.4</ele>
        <time>2025-09-30T08:17:43Z</time>
      </trkpt>
      <trkpt lat="48.52734" lon="-2.72532">
        <ele>42.6</ele>
        <time>2025-09-30T08:17:44Z</time>
      </trkpt>
      <trkpt lat="48.52734" lon="-2.72526">
        <ele>43</ele>
        <time>2025-09-30T08:17:45Z</time>
      </trkpt>
      <trkpt lat="48.52732" lon="-2.72515">
        <ele>44.2</ele>
        <time>2025-09-30T08:17:47Z</time>
      </trkpt>
      <trkpt lat="48.52729" lon="-2.72501">
        <ele>45.8</ele>
        <time>2025-09-30T08:17:50Z</time>
      </trkpt>
      <trkpt lat="48.52725" lon="-2.72493">
        <ele>46.6</ele>
        <time>2025-09-30T08:17:52Z</time>
      </trkpt>
      <trkpt lat="48.52724" lon="-2.72491">
        <ele>46.8</ele>
        <time>2025-09-30T08:17:53Z</time>
      </trkpt>
      <trkpt lat="48.52721" lon="-2.72489">
        <ele>47</ele>
        <time>2025-09-30T08:17:56Z</time>
      </trkpt>
      <trkpt lat="48.52721" lon="-2.72489">
        <ele>47</ele>
        <time>2025-09-30T08:18:01Z</time>
      </trkpt>
      <trkpt lat="48.52721" lon="-2.72489">
        <ele>46.8</ele>
        <time>2025-09-30T08:18:06Z</time>
      </trkpt>
      <trkpt lat="48.52721" lon="-2.72489">
        <ele>46.8</ele>
        <time>2025-09-30T08:18:10Z</time>
      </trkpt>
      <trkpt lat="48.52721" lon="-2.72489">
        <ele>46.8</ele>
        <time>2025-09-30T08:18:11Z</time>
      </trkpt>
      <trkpt lat="48.52721" lon="-2.7249">
        <ele>46.8</ele>
        <time>2025-09-30T08:18:12Z</time>
      </trkpt>
      <trkpt lat="48.5272" lon="-2.7249">
        <ele>46.8</ele>
        <time>2025-09-30T08:18:13Z</time>
      </trkpt>
      <trkpt lat="48.52718" lon="-2.72492">
        <ele>47</ele>
        <time>2025-09-30T08:18:14Z</time>
      </trkpt>
      <trkpt lat="48.52712" lon="-2.72501">
        <ele>47</ele>
        <time>2025-09-30T08:18:17Z</time>
      </trkpt>
      <trkpt lat="48.52695" lon="-2.72526">
        <ele>47.6</ele>
        <time>2025-09-30T08:18:24Z</time>
      </trkpt>
      <trkpt lat="48.52686" lon="-2.7254">
        <ele>48</ele>
        <time>2025-09-30T08:18:27Z</time>
      </trkpt>
      <trkpt lat="48.52672" lon="-2.7256">
        <ele>49</ele>
        <time>2025-09-30T08:18:32Z</time>
      </trkpt>
      <trkpt lat="48.52665" lon="-2.72575">
        <ele>49.8</ele>
        <time>2025-09-30T08:18:35Z</time>
      </trkpt>
      <trkpt lat="48.52662" lon="-2.72587">
        <ele>50.2</ele>
        <time>2025-09-30T08:18:37Z</time>
      </trkpt>
      <trkpt lat="48.52659" lon="-2.726">
        <ele>50.6</ele>
        <time>2025-09-30T08:18:39Z</time>
      </trkpt>
      <trkpt lat="48.52655" lon="-2.72618">
        <ele>51.2</ele>
        <time>2025-09-30T08:18:42Z</time>
      </trkpt>
      <trkpt lat="48.52648" lon="-2.72634">
        <ele>51.6</ele>
        <time>2025-09-30T08:18:45Z</time>
      </trkpt>
      <trkpt lat="48.52645" lon="-2.72639">
        <ele>51.8</ele>
        <time>2025-09-30T08:18:46Z</time>
      </trkpt>
      <trkpt lat="48.52637" lon="-2.72653">
        <ele>52</ele>
        <time>2025-09-30T08:18:49Z</time>
      </trkpt>
      <trkpt lat="48.52622" lon="-2.7267">
        <ele>52.2</ele>
        <time>2025-09-30T08:18:53Z</time>
      </trkpt>
      <trkpt lat="48.52618" lon="-2.72674">
        <ele>52.2</ele>
        <time>2025-09-30T08:18:54Z</time>
      </trkpt>
      <trkpt lat="48.52591" lon="-2.72705">
        <ele>53</ele>
        <time>2025-09-30T08:19:01Z</time>
      </trkpt>
      <trkpt lat="48.52583" lon="-2.72715">
        <ele>53.2</ele>
        <time>2025-09-30T08:19:03Z</time>
      </trkpt>
      <trkpt lat="48.52574" lon="-2.72723">
        <ele>53.4</ele>
        <time>2025-09-30T08:19:05Z</time>
      </trkpt>
      <trkpt lat="48.52557" lon="-2.72741">
        <ele>53.4</ele>
        <time>2025-09-30T08:19:09Z</time>
      </trkpt>
      <trkpt lat="48.52548" lon="-2.72748">
        <ele>53.6</ele>
        <time>2025-09-30T08:19:11Z</time>
      </trkpt>
      <trkpt lat="48.52509" lon="-2.72779">
        <ele>53.6</ele>
        <time>2025-09-30T08:19:20Z</time>
      </trkpt>
      <trkpt lat="48.52491" lon="-2.72794">
        <ele>54.4</ele>
        <time>2025-09-30T08:19:24Z</time>
      </trkpt>
      <trkpt lat="48.52468" lon="-2.72811">
        <ele>54.8</ele>
        <time>2025-09-30T08:19:29Z</time>
      </trkpt>
      <trkpt lat="48.5245" lon="-2.72824">
        <ele>55.6</ele>
        <time>2025-09-30T08:19:33Z</time>
      </trkpt>
      <trkpt lat="48.52436" lon="-2.72829">
        <ele>56</ele>
        <time>2025-09-30T08:19:36Z</time>
      </trkpt>
      <trkpt lat="48.52411" lon="-2.7283">
        <ele>56.6</ele>
        <time>2025-09-30T08:19:41Z</time>
      </trkpt>
      <trkpt lat="48.52396" lon="-2.72829">
        <ele>57</ele>
        <time>2025-09-30T08:19:44Z</time>
      </trkpt>
      <trkpt lat="48.52377" lon="-2.72829">
        <ele>57.4</ele>
        <time>2025-09-30T08:19:48Z</time>
      </trkpt>
      <trkpt lat="48.52372" lon="-2.7283">
        <ele>57.6</ele>
        <time>2025-09-30T08:19:49Z</time>
      </trkpt>
      <trkpt lat="48.52368" lon="-2.72832">
        <ele>57.6</ele>
        <time>2025-09-30T08:19:50Z</time>
      </trkpt>
      <trkpt lat="48.52363" lon="-2.72834">
        <ele>57.8</ele>
        <time>2025-09-30T08:19:51Z</time>
      </trkpt>
      <trkpt lat="48.52327" lon="-2.7284">
        <ele>58.2</ele>
        <time>2025-09-30T08:19:58Z</time>
      </trkpt>
      <trkpt lat="48.52293" lon="-2.72847">
        <ele>58.2</ele>
        <time>2025-09-30T08:20:05Z</time>
      </trkpt>
      <trkpt lat="48.52284" lon="-2.72849">
        <ele>58.2</ele>
        <time>2025-09-30T08:20:07Z</time>
      </trkpt>
      <trkpt lat="48.52275" lon="-2.7285">
        <ele>58.2</ele>
        <time>2025-09-30T08:20:09Z</time>
      </trkpt>
      <trkpt lat="48.52262" lon="-2.7285">
        <ele>58.2</ele>
        <time>2025-09-30T08:20:12Z</time>
      </trkpt>
      <trkpt lat="48.52254" lon="-2.72853">
        <ele>58.4</ele>
        <time>2025-09-30T08:20:14Z</time>
      </trkpt>
      <trkpt lat="48.52243" lon="-2.72861">
        <ele>58.6</ele>
        <time>2025-09-30T08:20:17Z</time>
      </trkpt>
      <trkpt lat="48.52235" lon="-2.72866">
        <ele>58.6</ele>
        <time>2025-09-30T08:20:19Z</time>
      </trkpt>
      <trkpt lat="48.52219" lon="-2.72881">
        <ele>58.8</ele>
        <time>2025-09-30T08:20:24Z</time>
      </trkpt>
      <trkpt lat="48.52214" lon="-2.72884">
        <ele>59</ele>
        <time>2025-09-30T08:20:26Z</time>
      </trkpt>
      <trkpt lat="48.52212" lon="-2.72883">
        <ele>59.2</ele>
        <time>2025-09-30T08:20:27Z</time>
      </trkpt>
      <trkpt lat="48.5221" lon="-2.72883">
        <ele>59</ele>
        <time>2025-09-30T08:20:28Z</time>
      </trkpt>
      <trkpt lat="48.52205" lon="-2.7288">
        <ele>59</ele>
        <time>2025-09-30T08:20:31Z</time>
      </trkpt>
      <trkpt lat="48.52198" lon="-2.72875">
        <ele>59.2</ele>
        <time>2025-09-30T08:20:33Z</time>
      </trkpt>
      <trkpt lat="48.52187" lon="-2.72867">
        <ele>59.2</ele>
        <time>2025-09-30T08:20:36Z</time>
      </trkpt>
      <trkpt lat="48.52172" lon="-2.72859">
        <ele>58.8</ele>
        <time>2025-09-30T08:20:40Z</time>
      </trkpt>
      <trkpt lat="48.52143" lon="-2.72847">
        <ele>58.8</ele>
        <time>2025-09-30T08:20:48Z</time>
      </trkpt>
      <trkpt lat="48.52137" lon="-2.72848">
        <ele>58.6</ele>
        <time>2025-09-30T08:20:50Z</time>
      </trkpt>
      <trkpt lat="48.52131" lon="-2.72848">
        <ele>58.8</ele>
        <time>2025-09-30T08:20:53Z</time>
      </trkpt>
      <trkpt lat="48.52112" lon="-2.72854">
        <ele>59</ele>
        <time>2025-09-30T08:20:58Z</time>
      </trkpt>
      <trkpt lat="48.52079" lon="-2.72871">
        <ele>59.4</ele>
        <time>2025-09-30T08:21:05Z</time>
      </trkpt>
      <trkpt lat="48.52034" lon="-2.72892">
        <ele>59</ele>
        <time>2025-09-30T08:21:14Z</time>
      </trkpt>
      <trkpt lat="48.52019" lon="-2.72898">
        <ele>59</ele>
        <time>2025-09-30T08:21:17Z</time>
      </trkpt>
      <trkpt lat="48.52009" lon="-2.72903">
        <ele>59</ele>
        <time>2025-09-30T08:21:19Z</time>
      </trkpt>
      <trkpt lat="48.51989" lon="-2.72913">
        <ele>58.6</ele>
        <time>2025-09-30T08:21:23Z</time>
      </trkpt>
      <trkpt lat="48.51984" lon="-2.72915">
        <ele>58.4</ele>
        <time>2025-09-30T08:21:24Z</time>
      </trkpt>
      <trkpt lat="48.5196" lon="-2.72927">
        <ele>57.4</ele>
        <time>2025-09-30T08:21:29Z</time>
      </trkpt>
      <trkpt lat="48.51952" lon="-2.72934">
        <ele>57.2</ele>
        <time>2025-09-30T08:21:31Z</time>
      </trkpt>
      <trkpt lat="48.51941" lon="-2.72942">
        <ele>57</ele>
        <time>2025-09-30T08:21:35Z</time>
      </trkpt>
      <trkpt lat="48.51926" lon="-2.72939">
        <ele>57.2</ele>
        <time>2025-09-30T08:21:39Z</time>
      </trkpt>
      <trkpt lat="48.51923" lon="-2.72934">
        <ele>57</ele>
        <time>2025-09-30T08:21:40Z</time>
      </trkpt>
      <trkpt lat="48.51916" lon="-2.72923">
        <ele>56.2</ele>
        <time>2025-09-30T08:21:42Z</time>
      </trkpt>
      <trkpt lat="48.51912" lon="-2.72918">
        <ele>56</ele>
        <time>2025-09-30T08:21:43Z</time>
      </trkpt>
      <trkpt lat="48.51909" lon="-2.72913">
        <ele>55.2</ele>
        <time>2025-09-30T08:21:44Z</time>
      </trkpt>
      <trkpt lat="48.519" lon="-2.72902">
        <ele>53.8</ele>
        <time>2025-09-30T08:21:47Z</time>
      </trkpt>
      <trkpt lat="48.51895" lon="-2.72894">
        <ele>53</ele>
        <time>2025-09-30T08:21:49Z</time>
      </trkpt>
      <trkpt lat="48.51891" lon="-2.72885">
        <ele>52.6</ele>
        <time>2025-09-30T08:21:51Z</time>
      </trkpt>
      <trkpt lat="48.51888" lon="-2.72872">
        <ele>52.2</ele>
        <time>2025-09-30T08:21:53Z</time>
      </trkpt>
      <trkpt lat="48.51887" lon="-2.72866">
        <ele>52</ele>
        <time>2025-09-30T08:21:54Z</time>
      </trkpt>
      <trkpt lat="48.51887" lon="-2.72843">
        <ele>51.6</ele>
        <time>2025-09-30T08:21:57Z</time>
      </trkpt>
      <trkpt lat="48.51887" lon="-2.72834">
        <ele>51.4</ele>
        <time>2025-09-30T08:21:58Z</time>
      </trkpt>
      <trkpt lat="48.51888" lon="-2.72807">
        <ele>50.4</ele>
        <time>2025-09-30T08:22:01Z</time>
      </trkpt>
      <trkpt lat="48.51889" lon="-2.72778">
        <ele>50.2</ele>
        <time>2025-09-30T08:22:04Z</time>
      </trkpt>
      <trkpt lat="48.5189" lon="-2.72732">
        <ele>49.4</ele>
        <time>2025-09-30T08:22:09Z</time>
      </trkpt>
      <trkpt lat="48.51891" lon="-2.72724">
        <ele>49.2</ele>
        <time>2025-09-30T08:22:10Z</time>
      </trkpt>
      <trkpt lat="48.51891" lon="-2.72716">
        <ele>49</ele>
        <time>2025-09-30T08:22:11Z</time>
      </trkpt>
      <trkpt lat="48.51891" lon="-2.7271">
        <ele>49</ele>
        <time>2025-09-30T08:22:12Z</time>
      </trkpt>
      <trkpt lat="48.51889" lon="-2.72689">
        <ele>48.4</ele>
        <time>2025-09-30T08:22:15Z</time>
      </trkpt>
      <trkpt lat="48.51889" lon="-2.72679">
        <ele>48.2</ele>
        <time>2025-09-30T08:22:16Z</time>
      </trkpt>
      <trkpt lat="48.5189" lon="-2.72642">
        <ele>47.4</ele>
        <time>2025-09-30T08:22:21Z</time>
      </trkpt>
      <trkpt lat="48.51891" lon="-2.72625">
        <ele>46.6</ele>
        <time>2025-09-30T08:22:24Z</time>
      </trkpt>
      <trkpt lat="48.51891" lon="-2.72615">
        <ele>46.2</ele>
        <time>2025-09-30T08:22:26Z</time>
      </trkpt>
      <trkpt lat="48.51892" lon="-2.72589">
        <ele>45.8</ele>
        <time>2025-09-30T08:22:30Z</time>
      </trkpt>
      <trkpt lat="48.51892" lon="-2.72545">
        <ele>45</ele>
        <time>2025-09-30T08:22:35Z</time>
      </trkpt>
      <trkpt lat="48.51886" lon="-2.72492">
        <ele>44</ele>
        <time>2025-09-30T08:22:41Z</time>
      </trkpt>
      <trkpt lat="48.51883" lon="-2.72484">
        <ele>44</ele>
        <time>2025-09-30T08:22:42Z</time>
      </trkpt>
      <trkpt lat="48.51867" lon="-2.72444">
        <ele>43.4</ele>
        <time>2025-09-30T08:22:47Z</time>
      </trkpt>
      <trkpt lat="48.51858" lon="-2.72429">
        <ele>42.8</ele>
        <time>2025-09-30T08:22:49Z</time>
      </trkpt>
      <trkpt lat="48.51848" lon="-2.72416">
        <ele>42.2</ele>
        <time>2025-09-30T08:22:51Z</time>
      </trkpt>
      <trkpt lat="48.51838" lon="-2.72405">
        <ele>42</ele>
        <time>2025-09-30T08:22:53Z</time>
      </trkpt>
      <trkpt lat="48.51827" lon="-2.72395">
        <ele>41.8</ele>
        <time>2025-09-30T08:22:55Z</time>
      </trkpt>
      <trkpt lat="48.51798" lon="-2.72365">
        <ele>40.8</ele>
        <time>2025-09-30T08:23:01Z</time>
      </trkpt>
      <trkpt lat="48.51793" lon="-2.72358">
        <ele>40.6</ele>
        <time>2025-09-30T08:23:02Z</time>
      </trkpt>
      <trkpt lat="48.51779" lon="-2.72331">
        <ele>40.4</ele>
        <time>2025-09-30T08:23:06Z</time>
      </trkpt>
      <trkpt lat="48.51774" lon="-2.72316">
        <ele>40.2</ele>
        <time>2025-09-30T08:23:08Z</time>
      </trkpt>
      <trkpt lat="48.51771" lon="-2.72301">
        <ele>40.2</ele>
        <time>2025-09-30T08:23:10Z</time>
      </trkpt>
      <trkpt lat="48.51769" lon="-2.72293">
        <ele>39.8</ele>
        <time>2025-09-30T08:23:11Z</time>
      </trkpt>
      <trkpt lat="48.51768" lon="-2.72287">
        <ele>39.8</ele>
        <time>2025-09-30T08:23:12Z</time>
      </trkpt>
      <trkpt lat="48.51768" lon="-2.72235">
        <ele>39</ele>
        <time>2025-09-30T08:23:18Z</time>
      </trkpt>
      <trkpt lat="48.51771" lon="-2.72195">
        <ele>38.6</ele>
        <time>2025-09-30T08:23:22Z</time>
      </trkpt>
      <trkpt lat="48.5177" lon="-2.72164">
        <ele>38</ele>
        <time>2025-09-30T08:23:25Z</time>
      </trkpt>
      <trkpt lat="48.51769" lon="-2.72154">
        <ele>37.8</ele>
        <time>2025-09-30T08:23:26Z</time>
      </trkpt>
      <trkpt lat="48.51767" lon="-2.72144">
        <ele>37.6</ele>
        <time>2025-09-30T08:23:27Z</time>
      </trkpt>
      <trkpt lat="48.51765" lon="-2.72134">
        <ele>37.4</ele>
        <time>2025-09-30T08:23:28Z</time>
      </trkpt>
      <trkpt lat="48.51762" lon="-2.72125">
        <ele>37.2</ele>
        <time>2025-09-30T08:23:29Z</time>
      </trkpt>
      <trkpt lat="48.51759" lon="-2.72116">
        <ele>37</ele>
        <time>2025-09-30T08:23:30Z</time>
      </trkpt>
      <trkpt lat="48.5175" lon="-2.72099">
        <ele>36.6</ele>
        <time>2025-09-30T08:23:32Z</time>
      </trkpt>
      <trkpt lat="48.51741" lon="-2.72083">
        <ele>36.4</ele>
        <time>2025-09-30T08:23:34Z</time>
      </trkpt>
      <trkpt lat="48.51721" lon="-2.72057">
        <ele>35.8</ele>
        <time>2025-09-30T08:23:38Z</time>
      </trkpt>
      <trkpt lat="48.51716" lon="-2.72051">
        <ele>35.4</ele>
        <time>2025-09-30T08:23:39Z</time>
      </trkpt>
      <trkpt lat="48.51701" lon="-2.72031">
        <ele>34.4</ele>
        <time>2025-09-30T08:23:42Z</time>
      </trkpt>
      <trkpt lat="48.51683" lon="-2.72006">
        <ele>33.8</ele>
        <time>2025-09-30T08:23:46Z</time>
      </trkpt>
      <trkpt lat="48.51677" lon="-2.71994">
        <ele>33.6</ele>
        <time>2025-09-30T08:23:48Z</time>
      </trkpt>
      <trkpt lat="48.5167" lon="-2.7198">
        <ele>33.2</ele>
        <time>2025-09-30T08:23:50Z</time>
      </trkpt>
      <trkpt lat="48.51668" lon="-2.71973">
        <ele>33</ele>
        <time>2025-09-30T08:23:51Z</time>
      </trkpt>
      <trkpt lat="48.51666" lon="-2.71966">
        <ele>32.8</ele>
        <time>2025-09-30T08:23:52Z</time>
      </trkpt>
      <trkpt lat="48.51664" lon="-2.71959">
        <ele>32.6</ele>
        <time>2025-09-30T08:23:53Z</time>
      </trkpt>
      <trkpt lat="48.51663" lon="-2.71953">
        <ele>32.4</ele>
        <time>2025-09-30T08:23:54Z</time>
      </trkpt>
      <trkpt lat="48.51662" lon="-2.71948">
        <ele>32.4</ele>
        <time>2025-09-30T08:23:55Z</time>
      </trkpt>
      <trkpt lat="48.51662" lon="-2.71943">
        <ele>32</ele>
        <time>2025-09-30T08:23:56Z</time>
      </trkpt>
      <trkpt lat="48.51661" lon="-2.7194">
        <ele>32</ele>
        <time>2025-09-30T08:23:57Z</time>
      </trkpt>
      <trkpt lat="48.51661" lon="-2.71939">
        <ele>31.4</ele>
        <time>2025-09-30T08:24:01Z</time>
      </trkpt>
      <trkpt lat="48.51661" lon="-2.71939">
        <ele>31.4</ele>
        <time>2025-09-30T08:24:09Z</time>
      </trkpt>
      <trkpt lat="48.51661" lon="-2.71939">
        <ele>31.6</ele>
        <time>2025-09-30T08:24:17Z</time>
      </trkpt>
      <trkpt lat="48.51661" lon="-2.71939">
        <ele>31.6</ele>
        <time>2025-09-30T08:24:18Z</time>
      </trkpt>
      <trkpt lat="48.51661" lon="-2.71939">
        <ele>31.8</ele>
        <time>2025-09-30T08:24:35Z</time>
      </trkpt>
      <trkpt lat="48.51661" lon="-2.71939">
        <ele>31.6</ele>
        <time>2025-09-30T08:24:38Z</time>
      </trkpt>
      <trkpt lat="48.51661" lon="-2.71939">
        <ele>31</ele>
        <time>2025-09-30T08:24:44Z</time>
      </trkpt>
      <trkpt lat="48.51661" lon="-2.71939">
        <ele>31.2</ele>
        <time>2025-09-30T08:24:50Z</time>
      </trkpt>
      <trkpt lat="48.5166" lon="-2.71932">
        <ele>31.4</ele>
        <time>2025-09-30T08:24:57Z</time>
      </trkpt>
      <trkpt lat="48.51658" lon="-2.7191">
        <ele>31.2</ele>
        <time>2025-09-30T08:25:03Z</time>
      </trkpt>
      <trkpt lat="48.5166" lon="-2.71885">
        <ele>30.6</ele>
        <time>2025-09-30T08:25:09Z</time>
      </trkpt>
      <trkpt lat="48.51661" lon="-2.71875">
        <ele>30.4</ele>
        <time>2025-09-30T08:25:12Z</time>
      </trkpt>
      <trkpt lat="48.51662" lon="-2.71866">
        <ele>30.2</ele>
        <time>2025-09-30T08:25:14Z</time>
      </trkpt>
      <trkpt lat="48.51663" lon="-2.71861">
        <ele>30.2</ele>
        <time>2025-09-30T08:25:15Z</time>
      </trkpt>
      <trkpt lat="48.51664" lon="-2.71856">
        <ele>30</ele>
        <time>2025-09-30T08:25:16Z</time>
      </trkpt>
      <trkpt lat="48.51666" lon="-2.71852">
        <ele>30</ele>
        <time>2025-09-30T08:25:17Z</time>
      </trkpt>
      <trkpt lat="48.5168" lon="-2.71814">
        <ele>29</ele>
        <time>2025-09-30T08:25:25Z</time>
      </trkpt>
      <trkpt lat="48.51683" lon="-2.71809">
        <ele>28.8</ele>
        <time>2025-09-30T08:25:26Z</time>
      </trkpt>
      <trkpt lat="48.517" lon="-2.71785">
        <ele>28.4</ele>
        <time>2025-09-30T08:25:31Z</time>
      </trkpt>
      <trkpt lat="48.51707" lon="-2.71775">
        <ele>28.2</ele>
        <time>2025-09-30T08:25:33Z</time>
      </trkpt>
      <trkpt lat="48.51716" lon="-2.71764">
        <ele>27.8</ele>
        <time>2025-09-30T08:25:35Z</time>
      </trkpt>
      <trkpt lat="48.51724" lon="-2.71754">
        <ele>27.6</ele>
        <time>2025-09-30T08:25:37Z</time>
      </trkpt>
      <trkpt lat="48.51751" lon="-2.7171">
        <ele>26.8</ele>
        <time>2025-09-30T08:25:44Z</time>
      </trkpt>
      <trkpt lat="48.51754" lon="-2.71704">
        <ele>26.8</ele>
        <time>2025-09-30T08:25:45Z</time>
      </trkpt>
      <trkpt lat="48.51764" lon="-2.71672">
        <ele>26.4</ele>
        <time>2025-09-30T08:25:49Z</time>
      </trkpt>
      <trkpt lat="48.51766" lon="-2.71664">
        <ele>26.2</ele>
        <time>2025-09-30T08:25:50Z</time>
      </trkpt>
      <trkpt lat="48.51768" lon="-2.71647">
        <ele>25.6</ele>
        <time>2025-09-30T08:25:52Z</time>
      </trkpt>
      <trkpt lat="48.51771" lon="-2.71622">
        <ele>25.2</ele>
        <time>2025-09-30T08:25:55Z</time>
      </trkpt>
      <trkpt lat="48.51772" lon="-2.71606">
        <ele>25</ele>
        <time>2025-09-30T08:25:57Z</time>
      </trkpt>
      <trkpt lat="48.51771" lon="-2.71597">
        <ele>24.6</ele>
        <time>2025-09-30T08:25:58Z</time>
      </trkpt>
      <trkpt lat="48.5177" lon="-2.7158">
        <ele>24.4</ele>
        <time>2025-09-30T08:26:00Z</time>
      </trkpt>
      <trkpt lat="48.51762" lon="-2.71536">
        <ele>24</ele>
        <time>2025-09-30T08:26:05Z</time>
      </trkpt>
      <trkpt lat="48.51759" lon="-2.71517">
        <ele>23.8</ele>
        <time>2025-09-30T08:26:07Z</time>
      </trkpt>
      <trkpt lat="48.5174" lon="-2.71433">
        <ele>24</ele>
        <time>2025-09-30T08:26:17Z</time>
      </trkpt>
      <trkpt lat="48.51738" lon="-2.71426">
        <ele>24</ele>
        <time>2025-09-30T08:26:18Z</time>
      </trkpt>
      <trkpt lat="48.51724" lon="-2.7139">
        <ele>23.8</ele>
        <time>2025-09-30T08:26:24Z</time>
      </trkpt>
      <trkpt lat="48.5172" lon="-2.71374">
        <ele>23.6</ele>
        <time>2025-09-30T08:26:28Z</time>
      </trkpt>
      <trkpt lat="48.51722" lon="-2.71372">
        <ele>23.4</ele>
        <time>2025-09-30T08:26:29Z</time>
      </trkpt>
      <trkpt lat="48.5173" lon="-2.71379">
        <ele>23.2</ele>
        <time>2025-09-30T08:26:32Z</time>
      </trkpt>
      <trkpt lat="48.51733" lon="-2.71384">
        <ele>22.8</ele>
        <time>2025-09-30T08:26:33Z</time>
      </trkpt>
      <trkpt lat="48.51745" lon="-2.71407">
        <ele>22.2</ele>
        <time>2025-09-30T08:26:36Z</time>
      </trkpt>
      <trkpt lat="48.51758" lon="-2.71433">
        <ele>21</ele>
        <time>2025-09-30T08:26:39Z</time>
      </trkpt>
      <trkpt lat="48.51768" lon="-2.71453">
        <ele>19.8</ele>
        <time>2025-09-30T08:26:41Z</time>
      </trkpt>
      <trkpt lat="48.51784" lon="-2.71485">
        <ele>18.6</ele>
        <time>2025-09-30T08:26:44Z</time>
      </trkpt>
      <trkpt lat="48.51793" lon="-2.71505">
        <ele>17</ele>
        <time>2025-09-30T08:26:46Z</time>
      </trkpt>
      <trkpt lat="48.51798" lon="-2.71516">
        <ele>16</ele>
        <time>2025-09-30T08:26:47Z</time>
      </trkpt>
      <trkpt lat="48.51802" lon="-2.71527">
        <ele>15.2</ele>
        <time>2025-09-30T08:26:48Z</time>
      </trkpt>
      <trkpt lat="48.51809" lon="-2.71546">
        <ele>14</ele>
        <time>2025-09-30T08:26:50Z</time>
      </trkpt>
      <trkpt lat="48.51818" lon="-2.71564">
        <ele>12.4</ele>
        <time>2025-09-30T08:26:52Z</time>
      </trkpt>
      <trkpt lat="48.51824" lon="-2.71575">
        <ele>12</ele>
        <time>2025-09-30T08:26:53Z</time>
      </trkpt>
      <trkpt lat="48.51836" lon="-2.7159">
        <ele>10.8</ele>
        <time>2025-09-30T08:26:55Z</time>
      </trkpt>
      <trkpt lat="48.51849" lon="-2.716">
        <ele>9.4</ele>
        <time>2025-09-30T08:26:57Z</time>
      </trkpt>
      <trkpt lat="48.51862" lon="-2.71605">
        <ele>8.4</ele>
        <time>2025-09-30T08:26:59Z</time>
      </trkpt>
      <trkpt lat="48.51874" lon="-2.71607">
        <ele>7</ele>
        <time>2025-09-30T08:27:01Z</time>
      </trkpt>
      <trkpt lat="48.51888" lon="-2.71609">
        <ele>5.8</ele>
        <time>2025-09-30T08:27:04Z</time>
      </trkpt>
      <trkpt lat="48.51893" lon="-2.71601">
        <ele>5.2</ele>
        <time>2025-09-30T08:27:06Z</time>
      </trkpt>
      <trkpt lat="48.51893" lon="-2.71596">
        <ele>5</ele>
        <time>2025-09-30T08:27:07Z</time>
      </trkpt>
      <trkpt lat="48.51882" lon="-2.71566">
        <ele>5.4</ele>
        <time>2025-09-30T08:27:12Z</time>
      </trkpt>
      <trkpt lat="48.51861" lon="-2.71512">
        <ele>6.2</ele>
        <time>2025-09-30T08:27:19Z</time>
      </trkpt>
      <trkpt lat="48.51843" lon="-2.71468">
        <ele>6.4</ele>
        <time>2025-09-30T08:27:26Z</time>
      </trkpt>
      <trkpt lat="48.51833" lon="-2.71439">
        <ele>6.8</ele>
        <time>2025-09-30T08:27:30Z</time>
      </trkpt>
      <trkpt lat="48.51823" lon="-2.71414">
        <ele>6.8</ele>
        <time>2025-09-30T08:27:34Z</time>
      </trkpt>
      <trkpt lat="48.51807" lon="-2.71367">
        <ele>6.6</ele>
        <time>2025-09-30T08:27:42Z</time>
      </trkpt>
      <trkpt lat="48.51795" lon="-2.71336">
        <ele>6.6</ele>
        <time>2025-09-30T08:27:48Z</time>
      </trkpt>
      <trkpt lat="48.51792" lon="-2.71327">
        <ele>6.6</ele>
        <time>2025-09-30T08:27:50Z</time>
      </trkpt>
      <trkpt lat="48.51786" lon="-2.7131">
        <ele>6.6</ele>
        <time>2025-09-30T08:27:54Z</time>
      </trkpt>
      <trkpt lat="48.5178" lon="-2.71293">
        <ele>6.6</ele>
        <time>2025-09-30T08:27:58Z</time>
      </trkpt>
      <trkpt lat="48.51778" lon="-2.71287">
        <ele>6.2</ele>
        <time>2025-09-30T08:28:02Z</time>
      </trkpt>
      <trkpt lat="48.51782" lon="-2.71286">
        <ele>6.2</ele>
        <time>2025-09-30T08:28:13Z</time>
      </trkpt>
      <trkpt lat="48.51786" lon="-2.71298">
        <ele>6.4</ele>
        <time>2025-09-30T08:28:17Z</time>
      </trkpt>
      <trkpt lat="48.51796" lon="-2.71328">
        <ele>6.2</ele>
        <time>2025-09-30T08:28:23Z</time>
      </trkpt>
      <trkpt lat="48.51803" lon="-2.7135">
        <ele>6.2</ele>
        <time>2025-09-30T08:28:27Z</time>
      </trkpt>
      <trkpt lat="48.51805" lon="-2.71355">
        <ele>6.2</ele>
        <time>2025-09-30T08:28:28Z</time>
      </trkpt>
      <trkpt lat="48.51824" lon="-2.71408">
        <ele>6.6</ele>
        <time>2025-09-30T08:28:36Z</time>
      </trkpt>
      <trkpt lat="48.51851" lon="-2.71479">
        <ele>6.2</ele>
        <time>2025-09-30T08:28:47Z</time>
      </trkpt>
      <trkpt lat="48.51853" lon="-2.71485">
        <ele>6</ele>
        <time>2025-09-30T08:28:48Z</time>
      </trkpt>
      <trkpt lat="48.51861" lon="-2.71508">
        <ele>5.8</ele>
        <time>2025-09-30T08:28:53Z</time>
      </trkpt>
      <trkpt lat="48.51859" lon="-2.71509">
        <ele>5.4</ele>
        <time>2025-09-30T08:28:56Z</time>
      </trkpt>
      <trkpt lat="48.51858" lon="-2.71509">
        <ele>5.4</ele>
        <time>2025-09-30T08:29:01Z</time>
      </trkpt>
      <trkpt lat="48.51858" lon="-2.71509">
        <ele>5.4</ele>
        <time>2025-09-30T08:29:13Z</time>
      </trkpt>
      <trkpt lat="48.51858" lon="-2.71509">
        <ele>5.4</ele>
        <time>2025-09-30T08:29:16Z</time>
      </trkpt>
      <trkpt lat="48.51858" lon="-2.71508">
        <ele>5.4</ele>
        <time>2025-09-30T08:29:17Z</time>
      </trkpt>
      <trkpt lat="48.51858" lon="-2.71508">
        <ele>5.4</ele>
        <time>2025-09-30T08:29:19Z</time>
      </trkpt>
      <trkpt lat="48.51858" lon="-2.71508">
        <ele>5.2</ele>
        <time>2025-09-30T08:29:20Z</time>
      </trkpt>
      <trkpt lat="48.51858" lon="-2.71508">
        <ele>5</ele>
        <time>2025-09-30T08:29:31Z</time>
      </trkpt>
      <trkpt lat="48.51858" lon="-2.71508">
        <ele>5</ele>
        <time>2025-09-30T08:29:33Z</time>
      </trkpt>
      <trkpt lat="48.51858" lon="-2.71508">
        <ele>5.2</ele>
        <time>2025-09-30T08:29:34Z</time>
      </trkpt>
      <trkpt lat="48.51858" lon="-2.71508">
        <ele>5.2</ele>
        <time>2025-09-30T08:29:36Z</time>
      </trkpt>
      <trkpt lat="48.51858" lon="-2.71508">
        <ele>5.2</ele>
        <time>2025-09-30T08:29:42Z</time>
      </trkpt>
      <trkpt lat="48.51858" lon="-2.71508">
        <ele>5.2</ele>
        <time>2025-09-30T08:29:45Z</time>
      </trkpt>
      <trkpt lat="48.51858" lon="-2.71508">
        <ele>5</ele>
        <time>2025-09-30T08:29:50Z</time>
      </trkpt>
      <trkpt lat="48.51858" lon="-2.71508">
        <ele>5</ele>
        <time>2025-09-30T08:30:02Z</time>
      </trkpt>
      <trkpt lat="48.51858" lon="-2.71508">
        <ele>5</ele>
        <time>2025-09-30T08:30:04Z</time>
      </trkpt>
      <trkpt lat="48.51858" lon="-2.71508">
        <ele>5</ele>
        <time>2025-09-30T08:30:05Z</time>
      </trkpt>
      <trkpt lat="48.51858" lon="-2.71508">
        <ele>5</ele>
        <time>2025-09-30T08:30:10Z</time>
      </trkpt>
      <trkpt lat="48.51858" lon="-2.71508">
        <ele>5</ele>
        <time>2025-09-30T08:30:11Z</time>
      </trkpt>
      <trkpt lat="48.51858" lon="-2.71508">
        <ele>5</ele>
        <time>2025-09-30T08:30:12Z</time>
      </trkpt>
      <trkpt lat="48.51858" lon="-2.71508">
        <ele>5</ele>
        <time>2025-09-30T08:30:13Z</time>
      </trkpt>
      <trkpt lat="48.51858" lon="-2.71508">
        <ele>5</ele>
        <time>2025-09-30T08:30:19Z</time>
      </trkpt>
      <trkpt lat="48.51858" lon="-2.71508">
        <ele>5</ele>
        <time>2025-09-30T08:30:36Z</time>
      </trkpt>
      <trkpt lat="48.51858" lon="-2.71508">
        <ele>5</ele>
        <time>2025-09-30T08:30:56Z</time>
      </trkpt>
      <trkpt lat="48.51858" lon="-2.71508">
        <ele>5</ele>
        <time>2025-09-30T08:31:08Z</time>
      </trkpt>
      <trkpt lat="48.51858" lon="-2.71508">
        <ele>5</ele>
        <time>2025-09-30T08:31:09Z</time>
      </trkpt>
      <trkpt lat="48.51858" lon="-2.71508">
        <ele>5</ele>
        <time>2025-09-30T08:31:11Z</time>
      </trkpt>
      <trkpt lat="48.51858" lon="-2.71508">
        <ele>5</ele>
        <time>2025-09-30T08:31:19Z</time>
      </trkpt>
      <trkpt lat="48.51858" lon="-2.71508">
        <ele>5</ele>
        <time>2025-09-30T08:31:21Z</time>
      </trkpt>
      <trkpt lat="48.51858" lon="-2.71508">
        <ele>5</ele>
        <time>2025-09-30T08:31:23Z</time>
      </trkpt>
      <trkpt lat="48.51858" lon="-2.71508">
        <ele>5</ele>
        <time>2025-09-30T08:32:05Z</time>
      </trkpt>
      <trkpt lat="48.51858" lon="-2.71508">
        <ele>5</ele>
        <time>2025-09-30T08:32:27Z</time>
      </trkpt>
      <trkpt lat="48.51858" lon="-2.71508">
        <ele>5</ele>
        <time>2025-09-30T08:32:36Z</time>
      </trkpt>
      <trkpt lat="48.51858" lon="-2.71508">
        <ele>5</ele>
        <time>2025-09-30T08:32:51Z</time>
      </trkpt>
      <trkpt lat="48.51858" lon="-2.71508">
        <ele>4.4</ele>
        <time>2025-09-30T08:32:58Z</time>
      </trkpt>
      <trkpt lat="48.51858" lon="-2.71508">
        <ele>4.4</ele>
        <time>2025-09-30T08:33:04Z</time>
      </trkpt>
      <trkpt lat="48.51858" lon="-2.71508">
        <ele>4.4</ele>
        <time>2025-09-30T08:33:11Z</time>
      </trkpt>
      <trkpt lat="48.51858" lon="-2.71508">
        <ele>4.6</ele>
        <time>2025-09-30T08:33:16Z</time>
      </trkpt>
      <trkpt lat="48.51858" lon="-2.71508">
        <ele>4.4</ele>
        <time>2025-09-30T08:33:24Z</time>
      </trkpt>
      <trkpt lat="48.51858" lon="-2.71508">
        <ele>4.4</ele>
        <time>2025-09-30T08:33:28Z</time>
      </trkpt>
      <trkpt lat="48.51858" lon="-2.71508">
        <ele>4.4</ele>
        <time>2025-09-30T08:33:32Z</time>
      </trkpt>
      <trkpt lat="48.51858" lon="-2.71509">
        <ele>4.4</ele>
        <time>2025-09-30T08:33:52Z</time>
      </trkpt>
      <trkpt lat="48.51858" lon="-2.71509">
        <ele>4.4</ele>
        <time>2025-09-30T08:33:54Z</time>
      </trkpt>
      <trkpt lat="48.51858" lon="-2.71509">
        <ele>4.4</ele>
        <time>2025-09-30T08:34:07Z</time>
      </trkpt>
      <trkpt lat="48.51858" lon="-2.71509">
        <ele>4.6</ele>
        <time>2025-09-30T08:34:21Z</time>
      </trkpt>
      <trkpt lat="48.51858" lon="-2.71509">
        <ele>4.6</ele>
        <time>2025-09-30T08:34:34Z</time>
      </trkpt>
      <trkpt lat="48.51858" lon="-2.71505">
        <ele>4.6</ele>
        <time>2025-09-30T08:34:42Z</time>
      </trkpt>
      <trkpt lat="48.51851" lon="-2.71489">
        <ele>4.8</ele>
        <time>2025-09-30T08:34:48Z</time>
      </trkpt>
      <trkpt lat="48.51841" lon="-2.71463">
        <ele>5</ele>
        <time>2025-09-30T08:34:53Z</time>
      </trkpt>
      <trkpt lat="48.51839" lon="-2.71458">
        <ele>5</ele>
        <time>2025-09-30T08:34:54Z</time>
      </trkpt>
      <trkpt lat="48.51826" lon="-2.71427">
        <ele>5.6</ele>
        <time>2025-09-30T08:34:59Z</time>
      </trkpt>
      <trkpt lat="48.51809" lon="-2.71377">
        <ele>5.8</ele>
        <time>2025-09-30T08:35:06Z</time>
      </trkpt>
      <trkpt lat="48.51787" lon="-2.71312">
        <ele>5.6</ele>
        <time>2025-09-30T08:35:14Z</time>
      </trkpt>
      <trkpt lat="48.51766" lon="-2.71241">
        <ele>5.6</ele>
        <time>2025-09-30T08:35:23Z</time>
      </trkpt>
      <trkpt lat="48.51739" lon="-2.71162">
        <ele>5.6</ele>
        <time>2025-09-30T08:35:33Z</time>
      </trkpt>
      <trkpt lat="48.51721" lon="-2.71131">
        <ele>6.2</ele>
        <time>2025-09-30T08:35:38Z</time>
      </trkpt>
      <trkpt lat="48.51718" lon="-2.71128">
        <ele>6.6</ele>
        <time>2025-09-30T08:35:39Z</time>
      </trkpt>
      <trkpt lat="48.5171" lon="-2.71118">
        <ele>8</ele>
        <time>2025-09-30T08:35:41Z</time>
      </trkpt>
      <trkpt lat="48.517" lon="-2.71108">
        <ele>9</ele>
        <time>2025-09-30T08:35:44Z</time>
      </trkpt>
      <trkpt lat="48.51693" lon="-2.71101">
        <ele>10</ele>
        <time>2025-09-30T08:35:46Z</time>
      </trkpt>
      <trkpt lat="48.51689" lon="-2.71098">
        <ele>10.8</ele>
        <time>2025-09-30T08:35:47Z</time>
      </trkpt>
      <trkpt lat="48.51682" lon="-2.71094">
        <ele>11.8</ele>
        <time>2025-09-30T08:35:49Z</time>
      </trkpt>
      <trkpt lat="48.51676" lon="-2.7109">
        <ele>12.6</ele>
        <time>2025-09-30T08:35:51Z</time>
      </trkpt>
      <trkpt lat="48.51671" lon="-2.71087">
        <ele>13</ele>
        <time>2025-09-30T08:35:52Z</time>
      </trkpt>
      <trkpt lat="48.5166" lon="-2.7108">
        <ele>14.4</ele>
        <time>2025-09-30T08:35:55Z</time>
      </trkpt>
      <trkpt lat="48.51648" lon="-2.71075">
        <ele>15.4</ele>
        <time>2025-09-30T08:35:58Z</time>
      </trkpt>
      <trkpt lat="48.51636" lon="-2.71071">
        <ele>16.8</ele>
        <time>2025-09-30T08:36:01Z</time>
      </trkpt>
      <trkpt lat="48.51633" lon="-2.71069">
        <ele>17.2</ele>
        <time>2025-09-30T08:36:02Z</time>
      </trkpt>
      <trkpt lat="48.51627" lon="-2.71066">
        <ele>17.8</ele>
        <time>2025-09-30T08:36:04Z</time>
      </trkpt>
      <trkpt lat="48.5161" lon="-2.71063">
        <ele>19.2</ele>
        <time>2025-09-30T08:36:08Z</time>
      </trkpt>
      <trkpt lat="48.51605" lon="-2.71063">
        <ele>19.4</ele>
        <time>2025-09-30T08:36:09Z</time>
      </trkpt>
      <trkpt lat="48.51598" lon="-2.71062">
        <ele>20.4</ele>
        <time>2025-09-30T08:36:11Z</time>
      </trkpt>
      <trkpt lat="48.51586" lon="-2.71063">
        <ele>21.4</ele>
        <time>2025-09-30T08:36:14Z</time>
      </trkpt>
      <trkpt lat="48.51573" lon="-2.71062">
        <ele>22.8</ele>
        <time>2025-09-30T08:36:17Z</time>
      </trkpt>
      <trkpt lat="48.51552" lon="-2.7106">
        <ele>24</ele>
        <time>2025-09-30T08:36:22Z</time>
      </trkpt>
      <trkpt lat="48.51536" lon="-2.71057">
        <ele>25.2</ele>
        <time>2025-09-30T08:36:26Z</time>
      </trkpt>
      <trkpt lat="48.51524" lon="-2.71053">
        <ele>26.6</ele>
        <time>2025-09-30T08:36:29Z</time>
      </trkpt>
      <trkpt lat="48.51509" lon="-2.71047">
        <ele>28</ele>
        <time>2025-09-30T08:36:33Z</time>
      </trkpt>
      <trkpt lat="48.51506" lon="-2.71045">
        <ele>28.2</ele>
        <time>2025-09-30T08:36:34Z</time>
      </trkpt>
      <trkpt lat="48.51499" lon="-2.71042">
        <ele>29</ele>
        <time>2025-09-30T08:36:36Z</time>
      </trkpt>
      <trkpt lat="48.51495" lon="-2.7104">
        <ele>29.6</ele>
        <time>2025-09-30T08:36:37Z</time>
      </trkpt>
      <trkpt lat="48.51484" lon="-2.71034">
        <ele>31</ele>
        <time>2025-09-30T08:36:40Z</time>
      </trkpt>
      <trkpt lat="48.51476" lon="-2.7103">
        <ele>31.8</ele>
        <time>2025-09-30T08:36:42Z</time>
      </trkpt>
      <trkpt lat="48.51473" lon="-2.71029">
        <ele>32.2</ele>
        <time>2025-09-30T08:36:43Z</time>
      </trkpt>
      <trkpt lat="48.51466" lon="-2.71025">
        <ele>33.4</ele>
        <time>2025-09-30T08:36:45Z</time>
      </trkpt>
      <trkpt lat="48.51454" lon="-2.71019">
        <ele>34.6</ele>
        <time>2025-09-30T08:36:48Z</time>
      </trkpt>
      <trkpt lat="48.51446" lon="-2.71015">
        <ele>35.8</ele>
        <time>2025-09-30T08:36:50Z</time>
      </trkpt>
      <trkpt lat="48.51443" lon="-2.71013">
        <ele>36.2</ele>
        <time>2025-09-30T08:36:51Z</time>
      </trkpt>
      <trkpt lat="48.51435" lon="-2.71009">
        <ele>36.8</ele>
        <time>2025-09-30T08:36:53Z</time>
      </trkpt>
      <trkpt lat="48.51428" lon="-2.71005">
        <ele>38</ele>
        <time>2025-09-30T08:36:55Z</time>
      </trkpt>
      <trkpt lat="48.5142" lon="-2.71001">
        <ele>39</ele>
        <time>2025-09-30T08:36:57Z</time>
      </trkpt>
      <trkpt lat="48.51405" lon="-2.70995">
        <ele>40.4</ele>
        <time>2025-09-30T08:37:01Z</time>
      </trkpt>
      <trkpt lat="48.51386" lon="-2.70987">
        <ele>41.6</ele>
        <time>2025-09-30T08:37:06Z</time>
      </trkpt>
      <trkpt lat="48.51368" lon="-2.70972">
        <ele>42.8</ele>
        <time>2025-09-30T08:37:11Z</time>
      </trkpt>
      <trkpt lat="48.51366" lon="-2.70967">
        <ele>43</ele>
        <time>2025-09-30T08:37:12Z</time>
      </trkpt>
      <trkpt lat="48.51359" lon="-2.70951">
        <ele>43.6</ele>
        <time>2025-09-30T08:37:15Z</time>
      </trkpt>
      <trkpt lat="48.51357" lon="-2.70945">
        <ele>44</ele>
        <time>2025-09-30T08:37:16Z</time>
      </trkpt>
      <trkpt lat="48.51356" lon="-2.70939">
        <ele>44.2</ele>
        <time>2025-09-30T08:37:17Z</time>
      </trkpt>
      <trkpt lat="48.51352" lon="-2.70915">
        <ele>44.2</ele>
        <time>2025-09-30T08:37:21Z</time>
      </trkpt>
      <trkpt lat="48.51349" lon="-2.70906">
        <ele>44.2</ele>
        <time>2025-09-30T08:37:23Z</time>
      </trkpt>
      <trkpt lat="48.51335" lon="-2.70895">
        <ele>44.2</ele>
        <time>2025-09-30T08:37:27Z</time>
      </trkpt>
      <trkpt lat="48.51297" lon="-2.70891">
        <ele>43.6</ele>
        <time>2025-09-30T08:37:35Z</time>
      </trkpt>
      <trkpt lat="48.51276" lon="-2.70888">
        <ele>43.4</ele>
        <time>2025-09-30T08:37:39Z</time>
      </trkpt>
      <trkpt lat="48.51257" lon="-2.70885">
        <ele>43.6</ele>
        <time>2025-09-30T08:37:43Z</time>
      </trkpt>
      <trkpt lat="48.51253" lon="-2.70883">
        <ele>43.6</ele>
        <time>2025-09-30T08:37:44Z</time>
      </trkpt>
      <trkpt lat="48.5124" lon="-2.70872">
        <ele>43.6</ele>
        <time>2025-09-30T08:37:47Z</time>
      </trkpt>
      <trkpt lat="48.51224" lon="-2.70847">
        <ele>42.8</ele>
        <time>2025-09-30T08:37:51Z</time>
      </trkpt>
      <trkpt lat="48.51219" lon="-2.70841">
        <ele>42.6</ele>
        <time>2025-09-30T08:37:52Z</time>
      </trkpt>
      <trkpt lat="48.51215" lon="-2.70835">
        <ele>42.4</ele>
        <time>2025-09-30T08:37:53Z</time>
      </trkpt>
      <trkpt lat="48.51202" lon="-2.70817">
        <ele>42</ele>
        <time>2025-09-30T08:37:56Z</time>
      </trkpt>
      <trkpt lat="48.51197" lon="-2.70812">
        <ele>41.6</ele>
        <time>2025-09-30T08:37:57Z</time>
      </trkpt>
      <trkpt lat="48.51188" lon="-2.70802">
        <ele>41.4</ele>
        <time>2025-09-30T08:37:59Z</time>
      </trkpt>
      <trkpt lat="48.51165" lon="-2.70782">
        <ele>40.8</ele>
        <time>2025-09-30T08:38:04Z</time>
      </trkpt>
      <trkpt lat="48.5116" lon="-2.7078">
        <ele>40.8</ele>
        <time>2025-09-30T08:38:05Z</time>
      </trkpt>
      <trkpt lat="48.51131" lon="-2.70765">
        <ele>40.8</ele>
        <time>2025-09-30T08:38:11Z</time>
      </trkpt>
      <trkpt lat="48.51108" lon="-2.70749">
        <ele>40.6</ele>
        <time>2025-09-30T08:38:16Z</time>
      </trkpt>
      <trkpt lat="48.51104" lon="-2.70745">
        <ele>40.8</ele>
        <time>2025-09-30T08:38:17Z</time>
      </trkpt>
      <trkpt lat="48.5109" lon="-2.70733">
        <ele>40.8</ele>
        <time>2025-09-30T08:38:20Z</time>
      </trkpt>
      <trkpt lat="48.51073" lon="-2.70715">
        <ele>41.2</ele>
        <time>2025-09-30T08:38:24Z</time>
      </trkpt>
      <trkpt lat="48.5107" lon="-2.70709">
        <ele>41.2</ele>
        <time>2025-09-30T08:38:25Z</time>
      </trkpt>
      <trkpt lat="48.51048" lon="-2.7067">
        <ele>40.4</ele>
        <time>2025-09-30T08:38:31Z</time>
      </trkpt>
      <trkpt lat="48.51044" lon="-2.70662">
        <ele>40.4</ele>
        <time>2025-09-30T08:38:32Z</time>
      </trkpt>
      <trkpt lat="48.51027" lon="-2.70631">
        <ele>39.6</ele>
        <time>2025-09-30T08:38:36Z</time>
      </trkpt>
      <trkpt lat="48.51022" lon="-2.70623">
        <ele>39.2</ele>
        <time>2025-09-30T08:38:37Z</time>
      </trkpt>
      <trkpt lat="48.51016" lon="-2.70617">
        <ele>38.8</ele>
        <time>2025-09-30T08:38:38Z</time>
      </trkpt>
      <trkpt lat="48.5101" lon="-2.7061">
        <ele>38.6</ele>
        <time>2025-09-30T08:38:39Z</time>
      </trkpt>
      <trkpt lat="48.50973" lon="-2.70569">
        <ele>38.4</ele>
        <time>2025-09-30T08:38:46Z</time>
      </trkpt>
      <trkpt lat="48.50951" lon="-2.7055">
        <ele>38</ele>
        <time>2025-09-30T08:38:51Z</time>
      </trkpt>
      <trkpt lat="48.50936" lon="-2.70544">
        <ele>38</ele>
        <time>2025-09-30T08:38:55Z</time>
      </trkpt>
      <trkpt lat="48.50931" lon="-2.70542">
        <ele>38</ele>
        <time>2025-09-30T08:38:56Z</time>
      </trkpt>
      <trkpt lat="48.50927" lon="-2.70539">
        <ele>38.4</ele>
        <time>2025-09-30T08:38:57Z</time>
      </trkpt>
      <trkpt lat="48.50908" lon="-2.70519">
        <ele>38.2</ele>
        <time>2025-09-30T08:39:01Z</time>
      </trkpt>
      <trkpt lat="48.50872" lon="-2.70484">
        <ele>37.2</ele>
        <time>2025-09-30T08:39:08Z</time>
      </trkpt>
      <trkpt lat="48.50868" lon="-2.70478">
        <ele>37</ele>
        <time>2025-09-30T08:39:09Z</time>
      </trkpt>
      <trkpt lat="48.50844" lon="-2.70447">
        <ele>36.2</ele>
        <time>2025-09-30T08:39:14Z</time>
      </trkpt>
      <trkpt lat="48.50834" lon="-2.70434">
        <ele>35.6</ele>
        <time>2025-09-30T08:39:16Z</time>
      </trkpt>
      <trkpt lat="48.50823" lon="-2.70419">
        <ele>35</ele>
        <time>2025-09-30T08:39:18Z</time>
      </trkpt>
      <trkpt lat="48.50805" lon="-2.70395">
        <ele>34</ele>
        <time>2025-09-30T08:39:21Z</time>
      </trkpt>
      <trkpt lat="48.50799" lon="-2.70387">
        <ele>33.8</ele>
        <time>2025-09-30T08:39:22Z</time>
      </trkpt>
      <trkpt lat="48.50789" lon="-2.70371">
        <ele>33.4</ele>
        <time>2025-09-30T08:39:24Z</time>
      </trkpt>
      <trkpt lat="48.50785" lon="-2.70359">
        <ele>33.2</ele>
        <time>2025-09-30T08:39:25Z</time>
      </trkpt>
      <trkpt lat="48.50782" lon="-2.70349">
        <ele>33</ele>
        <time>2025-09-30T08:39:26Z</time>
      </trkpt>
      <trkpt lat="48.50776" lon="-2.70331">
        <ele>32.8</ele>
        <time>2025-09-30T08:39:28Z</time>
      </trkpt>
      <trkpt lat="48.50774" lon="-2.70325">
        <ele>32.6</ele>
        <time>2025-09-30T08:39:29Z</time>
      </trkpt>
      <trkpt lat="48.50754" lon="-2.70283">
        <ele>32.4</ele>
        <time>2025-09-30T08:39:34Z</time>
      </trkpt>
      <trkpt lat="48.5075" lon="-2.70275">
        <ele>32.4</ele>
        <time>2025-09-30T08:39:35Z</time>
      </trkpt>
      <trkpt lat="48.50734" lon="-2.70248">
        <ele>32.2</ele>
        <time>2025-09-30T08:39:39Z</time>
      </trkpt>
      <trkpt lat="48.50719" lon="-2.70229">
        <ele>32</ele>
        <time>2025-09-30T08:39:42Z</time>
      </trkpt>
      <trkpt lat="48.50715" lon="-2.70224">
        <ele>31.8</ele>
        <time>2025-09-30T08:39:43Z</time>
      </trkpt>
      <trkpt lat="48.50708" lon="-2.70211">
        <ele>31.6</ele>
        <time>2025-09-30T08:39:45Z</time>
      </trkpt>
      <trkpt lat="48.50699" lon="-2.70195">
        <ele>31.4</ele>
        <time>2025-09-30T08:39:47Z</time>
      </trkpt>
      <trkpt lat="48.50691" lon="-2.70184">
        <ele>30.4</ele>
        <time>2025-09-30T08:39:49Z</time>
      </trkpt>
      <trkpt lat="48.50689" lon="-2.70182">
        <ele>30.2</ele>
        <time>2025-09-30T08:39:50Z</time>
      </trkpt>
      <trkpt lat="48.50686" lon="-2.7018">
        <ele>29.4</ele>
        <time>2025-09-30T08:39:51Z</time>
      </trkpt>
      <trkpt lat="48.50675" lon="-2.70169">
        <ele>28.8</ele>
        <time>2025-09-30T08:39:54Z</time>
      </trkpt>
      <trkpt lat="48.50669" lon="-2.70162">
        <ele>28.2</ele>
        <time>2025-09-30T08:39:55Z</time>
      </trkpt>
      <trkpt lat="48.50648" lon="-2.70145">
        <ele>27</ele>
        <time>2025-09-30T08:39:58Z</time>
      </trkpt>
      <trkpt lat="48.50639" lon="-2.70138">
        <ele>25.8</ele>
        <time>2025-09-30T08:39:59Z</time>
      </trkpt>
      <trkpt lat="48.5062" lon="-2.70128">
        <ele>23.8</ele>
        <time>2025-09-30T08:40:01Z</time>
      </trkpt>
      <trkpt lat="48.5061" lon="-2.70124">
        <ele>23.2</ele>
        <time>2025-09-30T08:40:02Z</time>
      </trkpt>
      <trkpt lat="48.50599" lon="-2.70121">
        <ele>22.4</ele>
        <time>2025-09-30T08:40:03Z</time>
      </trkpt>
      <trkpt lat="48.50579" lon="-2.70118">
        <ele>20</ele>
        <time>2025-09-30T08:40:05Z</time>
      </trkpt>
      <trkpt lat="48.50569" lon="-2.70115">
        <ele>19.6</ele>
        <time>2025-09-30T08:40:06Z</time>
      </trkpt>
      <trkpt lat="48.50559" lon="-2.7011">
        <ele>19.4</ele>
        <time>2025-09-30T08:40:07Z</time>
      </trkpt>
      <trkpt lat="48.5054" lon="-2.70097">
        <ele>18.8</ele>
        <time>2025-09-30T08:40:09Z</time>
      </trkpt>
      <trkpt lat="48.50522" lon="-2.70085">
        <ele>17.6</ele>
        <time>2025-09-30T08:40:11Z</time>
      </trkpt>
      <trkpt lat="48.50515" lon="-2.7008">
        <ele>17</ele>
        <time>2025-09-30T08:40:12Z</time>
      </trkpt>
      <trkpt lat="48.50504" lon="-2.70072">
        <ele>16.2</ele>
        <time>2025-09-30T08:40:13Z</time>
      </trkpt>
      <trkpt lat="48.50496" lon="-2.70067">
        <ele>15.6</ele>
        <time>2025-09-30T08:40:14Z</time>
      </trkpt>
      <trkpt lat="48.5048" lon="-2.70057">
        <ele>14.4</ele>
        <time>2025-09-30T08:40:16Z</time>
      </trkpt>
      <trkpt lat="48.50464" lon="-2.70048">
        <ele>13.8</ele>
        <time>2025-09-30T08:40:18Z</time>
      </trkpt>
      <trkpt lat="48.50456" lon="-2.70042">
        <ele>13.2</ele>
        <time>2025-09-30T08:40:19Z</time>
      </trkpt>
      <trkpt lat="48.50412" lon="-2.70005">
        <ele>11.8</ele>
        <time>2025-09-30T08:40:25Z</time>
      </trkpt>
      <trkpt lat="48.50387" lon="-2.6998">
        <ele>10.4</ele>
        <time>2025-09-30T08:40:29Z</time>
      </trkpt>
      <trkpt lat="48.50378" lon="-2.69968">
        <ele>9.6</ele>
        <time>2025-09-30T08:40:31Z</time>
      </trkpt>
      <trkpt lat="48.50374" lon="-2.69961">
        <ele>9.4</ele>
        <time>2025-09-30T08:40:32Z</time>
      </trkpt>
      <trkpt lat="48.5037" lon="-2.69945">
        <ele>8.6</ele>
        <time>2025-09-30T08:40:34Z</time>
      </trkpt>
      <trkpt lat="48.5037" lon="-2.69936">
        <ele>8.4</ele>
        <time>2025-09-30T08:40:35Z</time>
      </trkpt>
      <trkpt lat="48.50372" lon="-2.69926">
        <ele>8.2</ele>
        <time>2025-09-30T08:40:36Z</time>
      </trkpt>
      <trkpt lat="48.50375" lon="-2.69916">
        <ele>7.8</ele>
        <time>2025-09-30T08:40:37Z</time>
      </trkpt>
      <trkpt lat="48.50382" lon="-2.69896">
        <ele>7</ele>
        <time>2025-09-30T08:40:39Z</time>
      </trkpt>
      <trkpt lat="48.50396" lon="-2.69866">
        <ele>5.8</ele>
        <time>2025-09-30T08:40:42Z</time>
      </trkpt>
      <trkpt lat="48.5042" lon="-2.69804">
        <ele>4.6</ele>
        <time>2025-09-30T08:40:48Z</time>
      </trkpt>
      <trkpt lat="48.50429" lon="-2.69766">
        <ele>3.4</ele>
        <time>2025-09-30T08:40:52Z</time>
      </trkpt>
      <trkpt lat="48.50429" lon="-2.69758">
        <ele>3.4</ele>
        <time>2025-09-30T08:40:53Z</time>
      </trkpt>
      <trkpt lat="48.50428" lon="-2.69751">
        <ele>3.2</ele>
        <time>2025-09-30T08:40:54Z</time>
      </trkpt>
      <trkpt lat="48.50422" lon="-2.69742">
        <ele>3</ele>
        <time>2025-09-30T08:40:56Z</time>
      </trkpt>
      <trkpt lat="48.50396" lon="-2.69711">
        <ele>2.8</ele>
        <time>2025-09-30T08:41:03Z</time>
      </trkpt>
      <trkpt lat="48.50374" lon="-2.69683">
        <ele>2.8</ele>
        <time>2025-09-30T08:41:08Z</time>
      </trkpt>
      <trkpt lat="48.50344" lon="-2.69638">
        <ele>2.8</ele>
        <time>2025-09-30T08:41:15Z</time>
      </trkpt>
      <trkpt lat="48.50335" lon="-2.69626">
        <ele>2.6</ele>
        <time>2025-09-30T08:41:17Z</time>
      </trkpt>
      <trkpt lat="48.50307" lon="-2.69589">
        <ele>2.4</ele>
        <time>2025-09-30T08:41:23Z</time>
      </trkpt>
      <trkpt lat="48.50298" lon="-2.69576">
        <ele>2.4</ele>
        <time>2025-09-30T08:41:25Z</time>
      </trkpt>
      <trkpt lat="48.50255" lon="-2.69515">
        <ele>2.2</ele>
        <time>2025-09-30T08:41:35Z</time>
      </trkpt>
      <trkpt lat="48.5025" lon="-2.69508">
        <ele>2.2</ele>
        <time>2025-09-30T08:41:36Z</time>
      </trkpt>
      <trkpt lat="48.50209" lon="-2.6945">
        <ele>2.8</ele>
        <time>2025-09-30T08:41:45Z</time>
      </trkpt>
      <trkpt lat="48.5019" lon="-2.69424">
        <ele>2.6</ele>
        <time>2025-09-30T08:41:49Z</time>
      </trkpt>
      <trkpt lat="48.50149" lon="-2.69368">
        <ele>3</ele>
        <time>2025-09-30T08:41:58Z</time>
      </trkpt>
      <trkpt lat="48.50134" lon="-2.6935">
        <ele>2.8</ele>
        <time>2025-09-30T08:42:01Z</time>
      </trkpt>
      <trkpt lat="48.50091" lon="-2.69299">
        <ele>3</ele>
        <time>2025-09-30T08:42:10Z</time>
      </trkpt>
      <trkpt lat="48.50047" lon="-2.69247">
        <ele>2.6</ele>
        <time>2025-09-30T08:42:19Z</time>
      </trkpt>
      <trkpt lat="48.50041" lon="-2.69239">
        <ele>2.6</ele>
        <time>2025-09-30T08:42:20Z</time>
      </trkpt>
      <trkpt lat="48.50003" lon="-2.69195">
        <ele>2.2</ele>
        <time>2025-09-30T08:42:28Z</time>
      </trkpt>
      <trkpt lat="48.49992" lon="-2.69185">
        <ele>2.2</ele>
        <time>2025-09-30T08:42:30Z</time>
      </trkpt>
      <trkpt lat="48.49979" lon="-2.69166">
        <ele>2.2</ele>
        <time>2025-09-30T08:42:33Z</time>
      </trkpt>
      <trkpt lat="48.49934" lon="-2.6911">
        <ele>1.8</ele>
        <time>2025-09-30T08:42:42Z</time>
      </trkpt>
      <trkpt lat="48.49899" lon="-2.69068">
        <ele>1.8</ele>
        <time>2025-09-30T08:42:49Z</time>
      </trkpt>
      <trkpt lat="48.49855" lon="-2.69018">
        <ele>2</ele>
        <time>2025-09-30T08:42:58Z</time>
      </trkpt>
      <trkpt lat="48.49841" lon="-2.69002">
        <ele>2.2</ele>
        <time>2025-09-30T08:43:01Z</time>
      </trkpt>
      <trkpt lat="48.49804" lon="-2.68973">
        <ele>2.4</ele>
        <time>2025-09-30T08:43:08Z</time>
      </trkpt>
      <trkpt lat="48.49748" lon="-2.6894">
        <ele>2.6</ele>
        <time>2025-09-30T08:43:18Z</time>
      </trkpt>
      <trkpt lat="48.49721" lon="-2.6892">
        <ele>2.8</ele>
        <time>2025-09-30T08:43:24Z</time>
      </trkpt>
      <trkpt lat="48.49711" lon="-2.68912">
        <ele>2.6</ele>
        <time>2025-09-30T08:43:29Z</time>
      </trkpt>
      <trkpt lat="48.49696" lon="-2.68897">
        <ele>2.6</ele>
        <time>2025-09-30T08:43:33Z</time>
      </trkpt>
      <trkpt lat="48.49667" lon="-2.68866">
        <ele>2.8</ele>
        <time>2025-09-30T08:43:39Z</time>
      </trkpt>
      <trkpt lat="48.49657" lon="-2.68856">
        <ele>2.8</ele>
        <time>2025-09-30T08:43:41Z</time>
      </trkpt>
      <trkpt lat="48.4964" lon="-2.68839">
        <ele>3</ele>
        <time>2025-09-30T08:43:44Z</time>
      </trkpt>
      <trkpt lat="48.49624" lon="-2.68823">
        <ele>2.8</ele>
        <time>2025-09-30T08:43:47Z</time>
      </trkpt>
      <trkpt lat="48.49575" lon="-2.68779">
        <ele>3</ele>
        <time>2025-09-30T08:43:56Z</time>
      </trkpt>
      <trkpt lat="48.49569" lon="-2.68774">
        <ele>3</ele>
        <time>2025-09-30T08:43:57Z</time>
      </trkpt>
      <trkpt lat="48.49524" lon="-2.68744">
        <ele>3</ele>
        <time>2025-09-30T08:44:05Z</time>
      </trkpt>
      <trkpt lat="48.49513" lon="-2.68738">
        <ele>2.8</ele>
        <time>2025-09-30T08:44:07Z</time>
      </trkpt>
      <trkpt lat="48.49479" lon="-2.68719">
        <ele>3</ele>
        <time>2025-09-30T08:44:13Z</time>
      </trkpt>
      <trkpt lat="48.49467" lon="-2.68713">
        <ele>3</ele>
        <time>2025-09-30T08:44:15Z</time>
      </trkpt>
      <trkpt lat="48.4945" lon="-2.68704">
        <ele>2.8</ele>
        <time>2025-09-30T08:44:18Z</time>
      </trkpt>
      <trkpt lat="48.49396" lon="-2.68677">
        <ele>3</ele>
        <time>2025-09-30T08:44:28Z</time>
      </trkpt>
      <trkpt lat="48.49372" lon="-2.68665">
        <ele>3.2</ele>
        <time>2025-09-30T08:44:33Z</time>
      </trkpt>
      <trkpt lat="48.49362" lon="-2.68661">
        <ele>3</ele>
        <time>2025-09-30T08:44:35Z</time>
      </trkpt>
      <trkpt lat="48.49357" lon="-2.68659">
        <ele>3</ele>
        <time>2025-09-30T08:44:36Z</time>
      </trkpt>
      <trkpt lat="48.49311" lon="-2.68642">
        <ele>3.2</ele>
        <time>2025-09-30T08:44:45Z</time>
      </trkpt>
      <trkpt lat="48.49302" lon="-2.68637">
        <ele>3.2</ele>
        <time>2025-09-30T08:44:47Z</time>
      </trkpt>
      <trkpt lat="48.49294" lon="-2.6863">
        <ele>3.2</ele>
        <time>2025-09-30T08:44:49Z</time>
      </trkpt>
      <trkpt lat="48.4929" lon="-2.68626">
        <ele>3.2</ele>
        <time>2025-09-30T08:44:50Z</time>
      </trkpt>
      <trkpt lat="48.49267" lon="-2.68592">
        <ele>3.4</ele>
        <time>2025-09-30T08:44:56Z</time>
      </trkpt>
      <trkpt lat="48.49264" lon="-2.68586">
        <ele>3.4</ele>
        <time>2025-09-30T08:44:57Z</time>
      </trkpt>
      <trkpt lat="48.49247" lon="-2.68552">
        <ele>3.2</ele>
        <time>2025-09-30T08:45:02Z</time>
      </trkpt>
      <trkpt lat="48.49244" lon="-2.68545">
        <ele>3</ele>
        <time>2025-09-30T08:45:03Z</time>
      </trkpt>
      <trkpt lat="48.49214" lon="-2.68483">
        <ele>3.2</ele>
        <time>2025-09-30T08:45:12Z</time>
      </trkpt>
      <trkpt lat="48.49184" lon="-2.68449">
        <ele>3.4</ele>
        <time>2025-09-30T08:45:19Z</time>
      </trkpt>
      <trkpt lat="48.49166" lon="-2.68429">
        <ele>3.2</ele>
        <time>2025-09-30T08:45:23Z</time>
      </trkpt>
      <trkpt lat="48.49159" lon="-2.68417">
        <ele>3.4</ele>
        <time>2025-09-30T08:45:25Z</time>
      </trkpt>
      <trkpt lat="48.49155" lon="-2.68411">
        <ele>3.4</ele>
        <time>2025-09-30T08:45:26Z</time>
      </trkpt>
      <trkpt lat="48.49129" lon="-2.68353">
        <ele>3.4</ele>
        <time>2025-09-30T08:45:34Z</time>
      </trkpt>
      <trkpt lat="48.4911" lon="-2.68309">
        <ele>3.4</ele>
        <time>2025-09-30T08:45:40Z</time>
      </trkpt>
      <trkpt lat="48.491" lon="-2.68287">
        <ele>3.2</ele>
        <time>2025-09-30T08:45:43Z</time>
      </trkpt>
      <trkpt lat="48.49094" lon="-2.68273">
        <ele>3.4</ele>
        <time>2025-09-30T08:45:45Z</time>
      </trkpt>
      <trkpt lat="48.49063" lon="-2.68197">
        <ele>3.4</ele>
        <time>2025-09-30T08:45:55Z</time>
      </trkpt>
      <trkpt lat="48.49052" lon="-2.68173">
        <ele>3.4</ele>
        <time>2025-09-30T08:45:58Z</time>
      </trkpt>
      <trkpt lat="48.49022" lon="-2.681">
        <ele>3.2</ele>
        <time>2025-09-30T08:46:07Z</time>
      </trkpt>
      <trkpt lat="48.49018" lon="-2.68092">
        <ele>3.2</ele>
        <time>2025-09-30T08:46:08Z</time>
      </trkpt>
      <trkpt lat="48.48997" lon="-2.68044">
        <ele>3.2</ele>
        <time>2025-09-30T08:46:14Z</time>
      </trkpt>
      <trkpt lat="48.48989" lon="-2.68028">
        <ele>3</ele>
        <time>2025-09-30T08:46:16Z</time>
      </trkpt>
      <trkpt lat="48.48982" lon="-2.68013">
        <ele>3.2</ele>
        <time>2025-09-30T08:46:18Z</time>
      </trkpt>
      <trkpt lat="48.48968" lon="-2.67992">
        <ele>3.2</ele>
        <time>2025-09-30T08:46:21Z</time>
      </trkpt>
      <trkpt lat="48.48933" lon="-2.67954">
        <ele>3</ele>
        <time>2025-09-30T08:46:28Z</time>
      </trkpt>
      <trkpt lat="48.48882" lon="-2.6791">
        <ele>3</ele>
        <time>2025-09-30T08:46:38Z</time>
      </trkpt>
      <trkpt lat="48.48878" lon="-2.67906">
        <ele>3</ele>
        <time>2025-09-30T08:46:39Z</time>
      </trkpt>
      <trkpt lat="48.4885" lon="-2.67879">
        <ele>3</ele>
        <time>2025-09-30T08:46:45Z</time>
      </trkpt>
      <trkpt lat="48.4884" lon="-2.67861">
        <ele>3.2</ele>
        <time>2025-09-30T08:46:49Z</time>
      </trkpt>
      <trkpt lat="48.48841" lon="-2.67851">
        <ele>3.2</ele>
        <time>2025-09-30T08:46:51Z</time>
      </trkpt>
      <trkpt lat="48.48845" lon="-2.67847">
        <ele>3.2</ele>
        <time>2025-09-30T08:46:52Z</time>
      </trkpt>
      <trkpt lat="48.48849" lon="-2.67845">
        <ele>3.2</ele>
        <time>2025-09-30T08:46:53Z</time>
      </trkpt>
      <trkpt lat="48.48865" lon="-2.67843">
        <ele>3.2</ele>
        <time>2025-09-30T08:46:56Z</time>
      </trkpt>
      <trkpt lat="48.48902" lon="-2.67834">
        <ele>3.2</ele>
        <time>2025-09-30T08:47:03Z</time>
      </trkpt>
      <trkpt lat="48.48935" lon="-2.67815">
        <ele>3.6</ele>
        <time>2025-09-30T08:47:10Z</time>
      </trkpt>
      <trkpt lat="48.48958" lon="-2.6779">
        <ele>3.2</ele>
        <time>2025-09-30T08:47:15Z</time>
      </trkpt>
      <trkpt lat="48.48976" lon="-2.67768">
        <ele>3.2</ele>
        <time>2025-09-30T08:47:19Z</time>
      </trkpt>
      <trkpt lat="48.49004" lon="-2.67715">
        <ele>3</ele>
        <time>2025-09-30T08:47:27Z</time>
      </trkpt>
      <trkpt lat="48.49026" lon="-2.67671">
        <ele>2.8</ele>
        <time>2025-09-30T08:47:34Z</time>
      </trkpt>
      <trkpt lat="48.49049" lon="-2.67624">
        <ele>2.6</ele>
        <time>2025-09-30T08:47:42Z</time>
      </trkpt>
      <trkpt lat="48.49056" lon="-2.67611">
        <ele>2.6</ele>
        <time>2025-09-30T08:47:45Z</time>
      </trkpt>
      <trkpt lat="48.49063" lon="-2.67597">
        <ele>2.6</ele>
        <time>2025-09-30T08:47:49Z</time>
      </trkpt>
      <trkpt lat="48.49066" lon="-2.67592">
        <ele>2.6</ele>
        <time>2025-09-30T08:47:51Z</time>
      </trkpt>
      <trkpt lat="48.49068" lon="-2.67588">
        <ele>2.6</ele>
        <time>2025-09-30T08:47:53Z</time>
      </trkpt>
      <trkpt lat="48.49069" lon="-2.67586">
        <ele>2.6</ele>
        <time>2025-09-30T08:47:54Z</time>
      </trkpt>
      <trkpt lat="48.49073" lon="-2.67579">
        <ele>2.6</ele>
        <time>2025-09-30T08:47:58Z</time>
      </trkpt>
      <trkpt lat="48.49076" lon="-2.67572">
        <ele>2.6</ele>
        <time>2025-09-30T08:48:02Z</time>
      </trkpt>
      <trkpt lat="48.49082" lon="-2.67561">
        <ele>2.8</ele>
        <time>2025-09-30T08:48:05Z</time>
      </trkpt>
      <trkpt lat="48.49097" lon="-2.67532">
        <ele>3.2</ele>
        <time>2025-09-30T08:48:10Z</time>
      </trkpt>
      <trkpt lat="48.49118" lon="-2.67488">
        <ele>2.8</ele>
        <time>2025-09-30T08:48:17Z</time>
      </trkpt>
      <trkpt lat="48.49128" lon="-2.67467">
        <ele>2.8</ele>
        <time>2025-09-30T08:48:22Z</time>
      </trkpt>
      <trkpt lat="48.49132" lon="-2.67461">
        <ele>2.6</ele>
        <time>2025-09-30T08:48:25Z</time>
      </trkpt>
      <trkpt lat="48.49133" lon="-2.67461">
        <ele>2.6</ele>
        <time>2025-09-30T08:48:26Z</time>
      </trkpt>
      <trkpt lat="48.49132" lon="-2.67466">
        <ele>2.6</ele>
        <time>2025-09-30T08:48:29Z</time>
      </trkpt>
      <trkpt lat="48.49131" lon="-2.67467">
        <ele>2.6</ele>
        <time>2025-09-30T08:48:30Z</time>
      </trkpt>
      <trkpt lat="48.49125" lon="-2.67479">
        <ele>2.6</ele>
        <time>2025-09-30T08:48:34Z</time>
      </trkpt>
      <trkpt lat="48.49123" lon="-2.67483">
        <ele>2.6</ele>
        <time>2025-09-30T08:48:35Z</time>
      </trkpt>
      <trkpt lat="48.49111" lon="-2.67503">
        <ele>2.8</ele>
        <time>2025-09-30T08:48:40Z</time>
      </trkpt>
      <trkpt lat="48.49109" lon="-2.67504">
        <ele>2.8</ele>
        <time>2025-09-30T08:48:41Z</time>
      </trkpt>
      <trkpt lat="48.49105" lon="-2.67502">
        <ele>2.8</ele>
        <time>2025-09-30T08:48:43Z</time>
      </trkpt>
      <trkpt lat="48.49101" lon="-2.67495">
        <ele>2.6</ele>
        <time>2025-09-30T08:48:47Z</time>
      </trkpt>
      <trkpt lat="48.491" lon="-2.67494">
        <ele>2.6</ele>
        <time>2025-09-30T08:48:48Z</time>
      </trkpt>
      <trkpt lat="48.49093" lon="-2.67473">
        <ele>2.4</ele>
        <time>2025-09-30T08:48:53Z</time>
      </trkpt>
      <trkpt lat="48.49087" lon="-2.67455">
        <ele>2.4</ele>
        <time>2025-09-30T08:48:56Z</time>
      </trkpt>
      <trkpt lat="48.49085" lon="-2.67448">
        <ele>2</ele>
        <time>2025-09-30T08:48:58Z</time>
      </trkpt>
      <trkpt lat="48.49085" lon="-2.67446">
        <ele>1.8</ele>
        <time>2025-09-30T08:49:01Z</time>
      </trkpt>
      <trkpt lat="48.49087" lon="-2.67446">
        <ele>1.8</ele>
        <time>2025-09-30T08:49:04Z</time>
      </trkpt>
      <trkpt lat="48.49089" lon="-2.67449">
        <ele>1.6</ele>
        <time>2025-09-30T08:49:06Z</time>
      </trkpt>
      <trkpt lat="48.49092" lon="-2.67467">
        <ele>2</ele>
        <time>2025-09-30T08:49:10Z</time>
      </trkpt>
      <trkpt lat="48.49095" lon="-2.67477">
        <ele>2.2</ele>
        <time>2025-09-30T08:49:12Z</time>
      </trkpt>
      <trkpt lat="48.49096" lon="-2.67481">
        <ele>2.2</ele>
        <time>2025-09-30T08:49:13Z</time>
      </trkpt>
      <trkpt lat="48.49098" lon="-2.67485">
        <ele>2.2</ele>
        <time>2025-09-30T08:49:15Z</time>
      </trkpt>
      <trkpt lat="48.49098" lon="-2.67486">
        <ele>2</ele>
        <time>2025-09-30T08:49:19Z</time>
      </trkpt>
      <trkpt lat="48.49102" lon="-2.67493">
        <ele>2.2</ele>
        <time>2025-09-30T08:49:37Z</time>
      </trkpt>
      <trkpt lat="48.49106" lon="-2.67499">
        <ele>2.2</ele>
        <time>2025-09-30T08:49:39Z</time>
      </trkpt>
      <trkpt lat="48.49113" lon="-2.67499">
        <ele>2.4</ele>
        <time>2025-09-30T08:49:41Z</time>
      </trkpt>
      <trkpt lat="48.49123" lon="-2.67479">
        <ele>2.4</ele>
        <time>2025-09-30T08:49:45Z</time>
      </trkpt>
      <trkpt lat="48.49144" lon="-2.67436">
        <ele>2.4</ele>
        <time>2025-09-30T08:49:52Z</time>
      </trkpt>
      <trkpt lat="48.4917" lon="-2.67384">
        <ele>2.2</ele>
        <time>2025-09-30T08:50:00Z</time>
      </trkpt>
      <trkpt lat="48.49174" lon="-2.67377">
        <ele>2.2</ele>
        <time>2025-09-30T08:50:01Z</time>
      </trkpt>
      <trkpt lat="48.49193" lon="-2.67338">
        <ele>2.2</ele>
        <time>2025-09-30T08:50:07Z</time>
      </trkpt>
      <trkpt lat="48.49199" lon="-2.67325">
        <ele>2.4</ele>
        <time>2025-09-30T08:50:09Z</time>
      </trkpt>
      <trkpt lat="48.49231" lon="-2.67261">
        <ele>2.4</ele>
        <time>2025-09-30T08:50:19Z</time>
      </trkpt>
      <trkpt lat="48.49247" lon="-2.67228">
        <ele>2.2</ele>
        <time>2025-09-30T08:50:24Z</time>
      </trkpt>
      <trkpt lat="48.49256" lon="-2.6721">
        <ele>2.6</ele>
        <time>2025-09-30T08:50:27Z</time>
      </trkpt>
      <trkpt lat="48.49277" lon="-2.67166">
        <ele>2.6</ele>
        <time>2025-09-30T08:50:35Z</time>
      </trkpt>
      <trkpt lat="48.49286" lon="-2.67147">
        <ele>2</ele>
        <time>2025-09-30T08:50:40Z</time>
      </trkpt>
      <trkpt lat="48.49293" lon="-2.67137">
        <ele>2</ele>
        <time>2025-09-30T08:50:44Z</time>
      </trkpt>
      <trkpt lat="48.49296" lon="-2.67138">
        <ele>2</ele>
        <time>2025-09-30T08:50:45Z</time>
      </trkpt>
      <trkpt lat="48.49298" lon="-2.67138">
        <ele>2</ele>
        <time>2025-09-30T08:50:46Z</time>
      </trkpt>
      <trkpt lat="48.49302" lon="-2.67144">
        <ele>2</ele>
        <time>2025-09-30T08:50:48Z</time>
      </trkpt>
      <trkpt lat="48.49309" lon="-2.67169">
        <ele>1.4</ele>
        <time>2025-09-30T08:50:52Z</time>
      </trkpt>
      <trkpt lat="48.49313" lon="-2.67184">
        <ele>1.4</ele>
        <time>2025-09-30T08:50:54Z</time>
      </trkpt>
      <trkpt lat="48.49325" lon="-2.67223">
        <ele>1.2</ele>
        <time>2025-09-30T08:50:59Z</time>
      </trkpt>
      <trkpt lat="48.49331" lon="-2.67277">
        <ele>1.6</ele>
        <time>2025-09-30T08:51:05Z</time>
      </trkpt>
      <trkpt lat="48.49334" lon="-2.67351">
        <ele>2</ele>
        <time>2025-09-30T08:51:13Z</time>
      </trkpt>
      <trkpt lat="48.49335" lon="-2.67359">
        <ele>1.8</ele>
        <time>2025-09-30T08:51:14Z</time>
      </trkpt>
      <trkpt lat="48.49341" lon="-2.67386">
        <ele>1.4</ele>
        <time>2025-09-30T08:51:17Z</time>
      </trkpt>
      <trkpt lat="48.49347" lon="-2.67402">
        <ele>1.2</ele>
        <time>2025-09-30T08:51:19Z</time>
      </trkpt>
      <trkpt lat="48.49368" lon="-2.67434">
        <ele>0.80000000000001</ele>
        <time>2025-09-30T08:51:24Z</time>
      </trkpt>
      <trkpt lat="48.49377" lon="-2.67446">
        <ele>0.60000000000002</ele>
        <time>2025-09-30T08:51:26Z</time>
      </trkpt>
      <trkpt lat="48.49391" lon="-2.67473">
        <ele>0.80000000000001</ele>
        <time>2025-09-30T08:51:30Z</time>
      </trkpt>
      <trkpt lat="48.49408" lon="-2.67505">
        <ele>0.80000000000001</ele>
        <time>2025-09-30T08:51:35Z</time>
      </trkpt>
      <trkpt lat="48.49416" lon="-2.67514">
        <ele>0.39999999999998</ele>
        <time>2025-09-30T08:51:37Z</time>
      </trkpt>
      <trkpt lat="48.4942" lon="-2.67517">
        <ele>0.60000000000002</ele>
        <time>2025-09-30T08:51:38Z</time>
      </trkpt>
      <trkpt lat="48.49423" lon="-2.67518">
        <ele>0.39999999999998</ele>
        <time>2025-09-30T08:51:39Z</time>
      </trkpt>
      <trkpt lat="48.49426" lon="-2.67519">
        <ele>0.60000000000002</ele>
        <time>2025-09-30T08:51:40Z</time>
      </trkpt>
      <trkpt lat="48.4943" lon="-2.67519">
        <ele>0.39999999999998</ele>
        <time>2025-09-30T08:51:41Z</time>
      </trkpt>
      <trkpt lat="48.49444" lon="-2.6752">
        <ele>0.60000000000002</ele>
        <time>2025-09-30T08:51:45Z</time>
      </trkpt>
      <trkpt lat="48.49449" lon="-2.6752">
        <ele>0.80000000000001</ele>
        <time>2025-09-30T08:51:46Z</time>
      </trkpt>
      <trkpt lat="48.49453" lon="-2.67522">
        <ele>0.80000000000001</ele>
        <time>2025-09-30T08:51:47Z</time>
      </trkpt>
      <trkpt lat="48.49458" lon="-2.67524">
        <ele>1</ele>
        <time>2025-09-30T08:51:48Z</time>
      </trkpt>
      <trkpt lat="48.49475" lon="-2.67537">
        <ele>1.6</ele>
        <time>2025-09-30T08:51:52Z</time>
      </trkpt>
      <trkpt lat="48.49492" lon="-2.67555">
        <ele>1.8</ele>
        <time>2025-09-30T08:51:56Z</time>
      </trkpt>
      <trkpt lat="48.495" lon="-2.67564">
        <ele>1.8</ele>
        <time>2025-09-30T08:51:58Z</time>
      </trkpt>
      <trkpt lat="48.49505" lon="-2.67568">
        <ele>1.8</ele>
        <time>2025-09-30T08:51:59Z</time>
      </trkpt>
      <trkpt lat="48.49531" lon="-2.67595">
        <ele>2.4</ele>
        <time>2025-09-30T08:52:05Z</time>
      </trkpt>
      <trkpt lat="48.49539" lon="-2.67605">
        <ele>2.6</ele>
        <time>2025-09-30T08:52:07Z</time>
      </trkpt>
      <trkpt lat="48.49574" lon="-2.67656">
        <ele>2.4</ele>
        <time>2025-09-30T08:52:16Z</time>
      </trkpt>
      <trkpt lat="48.49604" lon="-2.67692">
        <ele>2.8</ele>
        <time>2025-09-30T08:52:23Z</time>
      </trkpt>
      <trkpt lat="48.49629" lon="-2.67719">
        <ele>2.6</ele>
        <time>2025-09-30T08:52:29Z</time>
      </trkpt>
      <trkpt lat="48.49634" lon="-2.67723">
        <ele>2.6</ele>
        <time>2025-09-30T08:52:30Z</time>
      </trkpt>
      <trkpt lat="48.4966" lon="-2.6774">
        <ele>2.6</ele>
        <time>2025-09-30T08:52:35Z</time>
      </trkpt>
      <trkpt lat="48.49676" lon="-2.67746">
        <ele>2</ele>
        <time>2025-09-30T08:52:38Z</time>
      </trkpt>
      <trkpt lat="48.49687" lon="-2.67749">
        <ele>2</ele>
        <time>2025-09-30T08:52:40Z</time>
      </trkpt>
      <trkpt lat="48.49704" lon="-2.67757">
        <ele>2</ele>
        <time>2025-09-30T08:52:43Z</time>
      </trkpt>
      <trkpt lat="48.49709" lon="-2.6776">
        <ele>2</ele>
        <time>2025-09-30T08:52:44Z</time>
      </trkpt>
      <trkpt lat="48.49714" lon="-2.67765">
        <ele>2.2</ele>
        <time>2025-09-30T08:52:45Z</time>
      </trkpt>
      <trkpt lat="48.49718" lon="-2.67771">
        <ele>2</ele>
        <time>2025-09-30T08:52:46Z</time>
      </trkpt>
      <trkpt lat="48.49722" lon="-2.67777">
        <ele>2</ele>
        <time>2025-09-30T08:52:47Z</time>
      </trkpt>
      <trkpt lat="48.49726" lon="-2.67783">
        <ele>2</ele>
        <time>2025-09-30T08:52:48Z</time>
      </trkpt>
      <trkpt lat="48.49729" lon="-2.6779">
        <ele>2</ele>
        <time>2025-09-30T08:52:49Z</time>
      </trkpt>
      <trkpt lat="48.49732" lon="-2.67797">
        <ele>1.8</ele>
        <time>2025-09-30T08:52:50Z</time>
      </trkpt>
      <trkpt lat="48.4974" lon="-2.67811">
        <ele>1.6</ele>
        <time>2025-09-30T08:52:52Z</time>
      </trkpt>
      <trkpt lat="48.49748" lon="-2.67823">
        <ele>1.6</ele>
        <time>2025-09-30T08:52:54Z</time>
      </trkpt>
      <trkpt lat="48.49761" lon="-2.67841">
        <ele>1.6</ele>
        <time>2025-09-30T08:52:57Z</time>
      </trkpt>
      <trkpt lat="48.49798" lon="-2.67895">
        <ele>1.8</ele>
        <time>2025-09-30T08:53:06Z</time>
      </trkpt>
      <trkpt lat="48.49806" lon="-2.67906">
        <ele>2</ele>
        <time>2025-09-30T08:53:08Z</time>
      </trkpt>
      <trkpt lat="48.49817" lon="-2.6791">
        <ele>2.2</ele>
        <time>2025-09-30T08:53:10Z</time>
      </trkpt>
      <trkpt lat="48.49826" lon="-2.67905">
        <ele>2.2</ele>
        <time>2025-09-30T08:53:12Z</time>
      </trkpt>
      <trkpt lat="48.4983" lon="-2.67899">
        <ele>2</ele>
        <time>2025-09-30T08:53:13Z</time>
      </trkpt>
      <trkpt lat="48.49834" lon="-2.67892">
        <ele>2</ele>
        <time>2025-09-30T08:53:14Z</time>
      </trkpt>
      <trkpt lat="48.49841" lon="-2.67868">
        <ele>1.4</ele>
        <time>2025-09-30T08:53:17Z</time>
      </trkpt>
      <trkpt lat="48.49856" lon="-2.67813">
        <ele>1.8</ele>
        <time>2025-09-30T08:53:24Z</time>
      </trkpt>
      <trkpt lat="48.49873" lon="-2.67758">
        <ele>2.4</ele>
        <time>2025-09-30T08:53:31Z</time>
      </trkpt>
      <trkpt lat="48.49874" lon="-2.67749">
        <ele>2.4</ele>
        <time>2025-09-30T08:53:32Z</time>
      </trkpt>
      <trkpt lat="48.49875" lon="-2.67732">
        <ele>2.4</ele>
        <time>2025-09-30T08:53:34Z</time>
      </trkpt>
      <trkpt lat="48.49875" lon="-2.67715">
        <ele>2.6</ele>
        <time>2025-09-30T08:53:36Z</time>
      </trkpt>
      <trkpt lat="48.49873" lon="-2.67666">
        <ele>3.4</ele>
        <time>2025-09-30T08:53:42Z</time>
      </trkpt>
      <trkpt lat="48.49873" lon="-2.6765">
        <ele>4.4</ele>
        <time>2025-09-30T08:53:44Z</time>
      </trkpt>
      <trkpt lat="48.49874" lon="-2.67642">
        <ele>4.6</ele>
        <time>2025-09-30T08:53:45Z</time>
      </trkpt>
      <trkpt lat="48.49875" lon="-2.67634">
        <ele>4.8</ele>
        <time>2025-09-30T08:53:46Z</time>
      </trkpt>
      <trkpt lat="48.49878" lon="-2.6762">
        <ele>5.4</ele>
        <time>2025-09-30T08:53:48Z</time>
      </trkpt>
      <trkpt lat="48.4988" lon="-2.67613">
        <ele>5.4</ele>
        <time>2025-09-30T08:53:49Z</time>
      </trkpt>
      <trkpt lat="48.49882" lon="-2.67606">
        <ele>5.6</ele>
        <time>2025-09-30T08:53:50Z</time>
      </trkpt>
      <trkpt lat="48.49884" lon="-2.67599">
        <ele>5.8</ele>
        <time>2025-09-30T08:53:51Z</time>
      </trkpt>
      <trkpt lat="48.4989" lon="-2.67585">
        <ele>6.8</ele>
        <time>2025-09-30T08:53:53Z</time>
      </trkpt>
      <trkpt lat="48.49893" lon="-2.67579">
        <ele>6.8</ele>
        <time>2025-09-30T08:53:54Z</time>
      </trkpt>
      <trkpt lat="48.49904" lon="-2.67562">
        <ele>7</ele>
        <time>2025-09-30T08:53:57Z</time>
      </trkpt>
      <trkpt lat="48.49912" lon="-2.6755">
        <ele>7.8</ele>
        <time>2025-09-30T08:53:59Z</time>
      </trkpt>
      <trkpt lat="48.49923" lon="-2.67533">
        <ele>8.6</ele>
        <time>2025-09-30T08:54:02Z</time>
      </trkpt>
      <trkpt lat="48.49926" lon="-2.67528">
        <ele>8.8</ele>
        <time>2025-09-30T08:54:03Z</time>
      </trkpt>
      <trkpt lat="48.4993" lon="-2.67523">
        <ele>9</ele>
        <time>2025-09-30T08:54:04Z</time>
      </trkpt>
      <trkpt lat="48.49939" lon="-2.67507">
        <ele>9.2</ele>
        <time>2025-09-30T08:54:07Z</time>
      </trkpt>
      <trkpt lat="48.49946" lon="-2.67495">
        <ele>9.6</ele>
        <time>2025-09-30T08:54:09Z</time>
      </trkpt>
      <trkpt lat="48.4995" lon="-2.6749">
        <ele>9.8</ele>
        <time>2025-09-30T08:54:10Z</time>
      </trkpt>
      <trkpt lat="48.49955" lon="-2.67485">
        <ele>10</ele>
        <time>2025-09-30T08:54:11Z</time>
      </trkpt>
      <trkpt lat="48.4996" lon="-2.67482">
        <ele>10.6</ele>
        <time>2025-09-30T08:54:12Z</time>
      </trkpt>
      <trkpt lat="48.49965" lon="-2.67479">
        <ele>10.8</ele>
        <time>2025-09-30T08:54:13Z</time>
      </trkpt>
      <trkpt lat="48.4997" lon="-2.67478">
        <ele>11</ele>
        <time>2025-09-30T08:54:14Z</time>
      </trkpt>
      <trkpt lat="48.49985" lon="-2.67477">
        <ele>12.2</ele>
        <time>2025-09-30T08:54:17Z</time>
      </trkpt>
      <trkpt lat="48.49998" lon="-2.67477">
        <ele>13.4</ele>
        <time>2025-09-30T08:54:20Z</time>
      </trkpt>
      <trkpt lat="48.50007" lon="-2.67477">
        <ele>14.6</ele>
        <time>2025-09-30T08:54:22Z</time>
      </trkpt>
      <trkpt lat="48.50021" lon="-2.67476">
        <ele>15.8</ele>
        <time>2025-09-30T08:54:25Z</time>
      </trkpt>
      <trkpt lat="48.5003" lon="-2.67475">
        <ele>16.2</ele>
        <time>2025-09-30T08:54:27Z</time>
      </trkpt>
      <trkpt lat="48.50044" lon="-2.67473">
        <ele>17</ele>
        <time>2025-09-30T08:54:30Z</time>
      </trkpt>
      <trkpt lat="48.50048" lon="-2.67472">
        <ele>17.2</ele>
        <time>2025-09-30T08:54:31Z</time>
      </trkpt>
      <trkpt lat="48.50061" lon="-2.67466">
        <ele>17.8</ele>
        <time>2025-09-30T08:54:34Z</time>
      </trkpt>
      <trkpt lat="48.50069" lon="-2.67459">
        <ele>17.8</ele>
        <time>2025-09-30T08:54:36Z</time>
      </trkpt>
      <trkpt lat="48.50108" lon="-2.67423">
        <ele>17.6</ele>
        <time>2025-09-30T08:54:45Z</time>
      </trkpt>
      <trkpt lat="48.50156" lon="-2.67382">
        <ele>17.2</ele>
        <time>2025-09-30T08:54:55Z</time>
      </trkpt>
      <trkpt lat="48.5016" lon="-2.67378">
        <ele>17.2</ele>
        <time>2025-09-30T08:54:56Z</time>
      </trkpt>
      <trkpt lat="48.50174" lon="-2.67364">
        <ele>17</ele>
        <time>2025-09-30T08:54:59Z</time>
      </trkpt>
      <trkpt lat="48.50189" lon="-2.67339">
        <ele>17</ele>
        <time>2025-09-30T08:55:03Z</time>
      </trkpt>
      <trkpt lat="48.50211" lon="-2.67291">
        <ele>17.2</ele>
        <time>2025-09-30T08:55:10Z</time>
      </trkpt>
      <trkpt lat="48.5024" lon="-2.67227">
        <ele>17.6</ele>
        <time>2025-09-30T08:55:19Z</time>
      </trkpt>
      <trkpt lat="48.50254" lon="-2.67184">
        <ele>17.8</ele>
        <time>2025-09-30T08:55:25Z</time>
      </trkpt>
      <trkpt lat="48.50255" lon="-2.67177">
        <ele>18</ele>
        <time>2025-09-30T08:55:26Z</time>
      </trkpt>
      <trkpt lat="48.50261" lon="-2.67159">
        <ele>17.8</ele>
        <time>2025-09-30T08:55:30Z</time>
      </trkpt>
      <trkpt lat="48.50271" lon="-2.67163">
        <ele>17.8</ele>
        <time>2025-09-30T08:55:33Z</time>
      </trkpt>
      <trkpt lat="48.50285" lon="-2.67188">
        <ele>18</ele>
        <time>2025-09-30T08:55:37Z</time>
      </trkpt>
      <trkpt lat="48.50289" lon="-2.67194">
        <ele>17.8</ele>
        <time>2025-09-30T08:55:38Z</time>
      </trkpt>
      <trkpt lat="48.50298" lon="-2.67206">
        <ele>18</ele>
        <time>2025-09-30T08:55:40Z</time>
      </trkpt>
      <trkpt lat="48.50306" lon="-2.6722">
        <ele>18</ele>
        <time>2025-09-30T08:55:42Z</time>
      </trkpt>
      <trkpt lat="48.50329" lon="-2.67255">
        <ele>17.8</ele>
        <time>2025-09-30T08:55:47Z</time>
      </trkpt>
      <trkpt lat="48.50334" lon="-2.6726">
        <ele>17.8</ele>
        <time>2025-09-30T08:55:48Z</time>
      </trkpt>
      <trkpt lat="48.50363" lon="-2.67298">
        <ele>17</ele>
        <time>2025-09-30T08:55:54Z</time>
      </trkpt>
      <trkpt lat="48.50398" lon="-2.67333">
        <ele>16.6</ele>
        <time>2025-09-30T08:56:01Z</time>
      </trkpt>
      <trkpt lat="48.50403" lon="-2.67336">
        <ele>16.6</ele>
        <time>2025-09-30T08:56:02Z</time>
      </trkpt>
      <trkpt lat="48.50408" lon="-2.67338">
        <ele>16.6</ele>
        <time>2025-09-30T08:56:03Z</time>
      </trkpt>
      <trkpt lat="48.50418" lon="-2.67336">
        <ele>16.8</ele>
        <time>2025-09-30T08:56:05Z</time>
      </trkpt>
      <trkpt lat="48.50423" lon="-2.67335">
        <ele>17</ele>
        <time>2025-09-30T08:56:06Z</time>
      </trkpt>
      <trkpt lat="48.5047" lon="-2.67321">
        <ele>18.2</ele>
        <time>2025-09-30T08:56:14Z</time>
      </trkpt>
      <trkpt lat="48.50476" lon="-2.6732">
        <ele>18.4</ele>
        <time>2025-09-30T08:56:15Z</time>
      </trkpt>
      <trkpt lat="48.50518" lon="-2.67311">
        <ele>19.4</ele>
        <time>2025-09-30T08:56:22Z</time>
      </trkpt>
      <trkpt lat="48.50524" lon="-2.67311">
        <ele>19.6</ele>
        <time>2025-09-30T08:56:23Z</time>
      </trkpt>
      <trkpt lat="48.50547" lon="-2.67306">
        <ele>19.8</ele>
        <time>2025-09-30T08:56:27Z</time>
      </trkpt>
      <trkpt lat="48.50559" lon="-2.67303">
        <ele>19.8</ele>
        <time>2025-09-30T08:56:29Z</time>
      </trkpt>
      <trkpt lat="48.50613" lon="-2.67289">
        <ele>20</ele>
        <time>2025-09-30T08:56:38Z</time>
      </trkpt>
      <trkpt lat="48.50666" lon="-2.67266">
        <ele>20.4</ele>
        <time>2025-09-30T08:56:47Z</time>
      </trkpt>
      <trkpt lat="48.50671" lon="-2.67264">
        <ele>20.6</ele>
        <time>2025-09-30T08:56:48Z</time>
      </trkpt>
      <trkpt lat="48.50707" lon="-2.67248">
        <ele>21.4</ele>
        <time>2025-09-30T08:56:54Z</time>
      </trkpt>
      <trkpt lat="48.50713" lon="-2.67245">
        <ele>21.6</ele>
        <time>2025-09-30T08:56:55Z</time>
      </trkpt>
      <trkpt lat="48.50767" lon="-2.67221">
        <ele>22.2</ele>
        <time>2025-09-30T08:57:04Z</time>
      </trkpt>
      <trkpt lat="48.50773" lon="-2.67219">
        <ele>22.2</ele>
        <time>2025-09-30T08:57:05Z</time>
      </trkpt>
      <trkpt lat="48.50804" lon="-2.67205">
        <ele>22.6</ele>
        <time>2025-09-30T08:57:10Z</time>
      </trkpt>
      <trkpt lat="48.50828" lon="-2.67194">
        <ele>22</ele>
        <time>2025-09-30T08:57:14Z</time>
      </trkpt>
      <trkpt lat="48.50858" lon="-2.6718">
        <ele>21.4</ele>
        <time>2025-09-30T08:57:19Z</time>
      </trkpt>
      <trkpt lat="48.50876" lon="-2.67171">
        <ele>21.4</ele>
        <time>2025-09-30T08:57:22Z</time>
      </trkpt>
      <trkpt lat="48.50919" lon="-2.67155">
        <ele>21.2</ele>
        <time>2025-09-30T08:57:29Z</time>
      </trkpt>
      <trkpt lat="48.5096" lon="-2.67137">
        <ele>21.4</ele>
        <time>2025-09-30T08:57:36Z</time>
      </trkpt>
      <trkpt lat="48.51011" lon="-2.6711">
        <ele>22.6</ele>
        <time>2025-09-30T08:57:45Z</time>
      </trkpt>
      <trkpt lat="48.51025" lon="-2.67094">
        <ele>23.6</ele>
        <time>2025-09-30T08:57:48Z</time>
      </trkpt>
      <trkpt lat="48.5103" lon="-2.67088">
        <ele>23.8</ele>
        <time>2025-09-30T08:57:49Z</time>
      </trkpt>
      <trkpt lat="48.51037" lon="-2.67076">
        <ele>24.6</ele>
        <time>2025-09-30T08:57:51Z</time>
      </trkpt>
      <trkpt lat="48.5104" lon="-2.67069">
        <ele>24.8</ele>
        <time>2025-09-30T08:57:52Z</time>
      </trkpt>
      <trkpt lat="48.51045" lon="-2.67056">
        <ele>24.8</ele>
        <time>2025-09-30T08:57:54Z</time>
      </trkpt>
      <trkpt lat="48.51049" lon="-2.67046">
        <ele>24.8</ele>
        <time>2025-09-30T08:57:56Z</time>
      </trkpt>
      <trkpt lat="48.51062" lon="-2.67026">
        <ele>24.6</ele>
        <time>2025-09-30T08:58:00Z</time>
      </trkpt>
      <trkpt lat="48.51072" lon="-2.67021">
        <ele>24.4</ele>
        <time>2025-09-30T08:58:02Z</time>
      </trkpt>
      <trkpt lat="48.51083" lon="-2.67019">
        <ele>24.2</ele>
        <time>2025-09-30T08:58:04Z</time>
      </trkpt>
      <trkpt lat="48.511" lon="-2.67018">
        <ele>24</ele>
        <time>2025-09-30T08:58:07Z</time>
      </trkpt>
      <trkpt lat="48.51112" lon="-2.6702">
        <ele>23.6</ele>
        <time>2025-09-30T08:58:09Z</time>
      </trkpt>
      <trkpt lat="48.51117" lon="-2.67021">
        <ele>23.6</ele>
        <time>2025-09-30T08:58:10Z</time>
      </trkpt>
      <trkpt lat="48.51122" lon="-2.67022">
        <ele>23.6</ele>
        <time>2025-09-30T08:58:11Z</time>
      </trkpt>
      <trkpt lat="48.51151" lon="-2.67028">
        <ele>23.2</ele>
        <time>2025-09-30T08:58:16Z</time>
      </trkpt>
      <trkpt lat="48.51181" lon="-2.67027">
        <ele>22.6</ele>
        <time>2025-09-30T08:58:21Z</time>
      </trkpt>
      <trkpt lat="48.51199" lon="-2.67025">
        <ele>22.2</ele>
        <time>2025-09-30T08:58:24Z</time>
      </trkpt>
      <trkpt lat="48.51204" lon="-2.67024">
        <ele>22.2</ele>
        <time>2025-09-30T08:58:25Z</time>
      </trkpt>
      <trkpt lat="48.51248" lon="-2.67016">
        <ele>22.2</ele>
        <time>2025-09-30T08:58:33Z</time>
      </trkpt>
      <trkpt lat="48.51288" lon="-2.67004">
        <ele>22</ele>
        <time>2025-09-30T08:58:41Z</time>
      </trkpt>
      <trkpt lat="48.51303" lon="-2.66998">
        <ele>21.8</ele>
        <time>2025-09-30T08:58:46Z</time>
      </trkpt>
      <trkpt lat="48.51311" lon="-2.66995">
        <ele>21.8</ele>
        <time>2025-09-30T08:58:48Z</time>
      </trkpt>
      <trkpt lat="48.51323" lon="-2.66994">
        <ele>21.8</ele>
        <time>2025-09-30T08:58:51Z</time>
      </trkpt>
      <trkpt lat="48.51356" lon="-2.66992">
        <ele>22</ele>
        <time>2025-09-30T08:58:59Z</time>
      </trkpt>
      <trkpt lat="48.51377" lon="-2.66991">
        <ele>21.6</ele>
        <time>2025-09-30T08:59:05Z</time>
      </trkpt>
      <trkpt lat="48.5138" lon="-2.6699">
        <ele>21.6</ele>
        <time>2025-09-30T08:59:06Z</time>
      </trkpt>
      <trkpt lat="48.51382" lon="-2.66989">
        <ele>21.4</ele>
        <time>2025-09-30T08:59:08Z</time>
      </trkpt>
      <trkpt lat="48.51382" lon="-2.66989">
        <ele>21.4</ele>
        <time>2025-09-30T08:59:10Z</time>
      </trkpt>
      <trkpt lat="48.51382" lon="-2.66986">
        <ele>21.6</ele>
        <time>2025-09-30T08:59:14Z</time>
      </trkpt>
      <trkpt lat="48.51382" lon="-2.66979">
        <ele>21.6</ele>
        <time>2025-09-30T08:59:16Z</time>
      </trkpt>
      <trkpt lat="48.51381" lon="-2.66955">
        <ele>22</ele>
        <time>2025-09-30T08:59:21Z</time>
      </trkpt>
      <trkpt lat="48.51379" lon="-2.66931">
        <ele>22.6</ele>
        <time>2025-09-30T08:59:25Z</time>
      </trkpt>
      <trkpt lat="48.5138" lon="-2.6692">
        <ele>23</ele>
        <time>2025-09-30T08:59:27Z</time>
      </trkpt>
      <trkpt lat="48.51382" lon="-2.66908">
        <ele>23.6</ele>
        <time>2025-09-30T08:59:30Z</time>
      </trkpt>
      <trkpt lat="48.51384" lon="-2.66904">
        <ele>23.8</ele>
        <time>2025-09-30T08:59:31Z</time>
      </trkpt>
      <trkpt lat="48.51392" lon="-2.66892">
        <ele>23.8</ele>
        <time>2025-09-30T08:59:36Z</time>
      </trkpt>
      <trkpt lat="48.51392" lon="-2.66892">
        <ele>23.8</ele>
        <time>2025-09-30T08:59:41Z</time>
      </trkpt>
      <trkpt lat="48.51392" lon="-2.66892">
        <ele>23.8</ele>
        <time>2025-09-30T08:59:49Z</time>
      </trkpt>
      <trkpt lat="48.51392" lon="-2.66892">
        <ele>23.8</ele>
        <time>2025-09-30T08:59:52Z</time>
      </trkpt>
      <trkpt lat="48.51392" lon="-2.66892">
        <ele>24</ele>
        <time>2025-09-30T08:59:53Z</time>
      </trkpt>
      <trkpt lat="48.51392" lon="-2.66892">
        <ele>24</ele>
        <time>2025-09-30T08:59:54Z</time>
      </trkpt>
      <trkpt lat="48.51393" lon="-2.66892">
        <ele>24</ele>
        <time>2025-09-30T08:59:55Z</time>
      </trkpt>
      <trkpt lat="48.51393" lon="-2.66892">
        <ele>24</ele>
        <time>2025-09-30T08:59:57Z</time>
      </trkpt>
      <trkpt lat="48.51393" lon="-2.66892">
        <ele>24</ele>
        <time>2025-09-30T08:59:58Z</time>
      </trkpt>
      <trkpt lat="48.51393" lon="-2.66892">
        <ele>23.6</ele>
        <time>2025-09-30T09:00:06Z</time>
      </trkpt>
      <trkpt lat="48.51393" lon="-2.66892">
        <ele>23.4</ele>
        <time>2025-09-30T09:00:16Z</time>
      </trkpt>
      <trkpt lat="48.51393" lon="-2.66892">
        <ele>23.6</ele>
        <time>2025-09-30T09:00:18Z</time>
      </trkpt>
      <trkpt lat="48.51393" lon="-2.66892">
        <ele>23.6</ele>
        <time>2025-09-30T09:00:21Z</time>
      </trkpt>
      <trkpt lat="48.51392" lon="-2.66892">
        <ele>23.4</ele>
        <time>2025-09-30T09:00:26Z</time>
      </trkpt>
      <trkpt lat="48.51392" lon="-2.66892">
        <ele>23.4</ele>
        <time>2025-09-30T09:00:28Z</time>
      </trkpt>
      <trkpt lat="48.51391" lon="-2.66891">
        <ele>23.4</ele>
        <time>2025-09-30T09:00:34Z</time>
      </trkpt>
      <trkpt lat="48.51391" lon="-2.66891">
        <ele>23.4</ele>
        <time>2025-09-30T09:00:43Z</time>
      </trkpt>
      <trkpt lat="48.51391" lon="-2.66891">
        <ele>23.4</ele>
        <time>2025-09-30T09:00:52Z</time>
      </trkpt>
      <trkpt lat="48.51391" lon="-2.66891">
        <ele>23.4</ele>
        <time>2025-09-30T09:00:57Z</time>
      </trkpt>
      <trkpt lat="48.51391" lon="-2.66891">
        <ele>23.4</ele>
        <time>2025-09-30T09:00:58Z</time>
      </trkpt>
      <trkpt lat="48.51391" lon="-2.66892">
        <ele>23.4</ele>
        <time>2025-09-30T09:01:00Z</time>
      </trkpt>
      <trkpt lat="48.51391" lon="-2.66892">
        <ele>23.4</ele>
        <time>2025-09-30T09:01:08Z</time>
      </trkpt>
      <trkpt lat="48.51391" lon="-2.66892">
        <ele>23.4</ele>
        <time>2025-09-30T09:01:10Z</time>
      </trkpt>
      <trkpt lat="48.51391" lon="-2.66892">
        <ele>23.2</ele>
        <time>2025-09-30T09:01:12Z</time>
      </trkpt>
      <trkpt lat="48.51391" lon="-2.66892">
        <ele>23.2</ele>
        <time>2025-09-30T09:01:16Z</time>
      </trkpt>
      <trkpt lat="48.51391" lon="-2.66892">
        <ele>23.2</ele>
        <time>2025-09-30T09:01:18Z</time>
      </trkpt>
      <trkpt lat="48.51391" lon="-2.66892">
        <ele>23.2</ele>
        <time>2025-09-30T09:01:20Z</time>
      </trkpt>
      <trkpt lat="48.51391" lon="-2.66892">
        <ele>23.2</ele>
        <time>2025-09-30T09:01:23Z</time>
      </trkpt>
      <trkpt lat="48.51391" lon="-2.66892">
        <ele>23.2</ele>
        <time>2025-09-30T09:01:33Z</time>
      </trkpt>
      <trkpt lat="48.51391" lon="-2.66892">
        <ele>23.2</ele>
        <time>2025-09-30T09:01:49Z</time>
      </trkpt>
      <trkpt lat="48.51391" lon="-2.66892">
        <ele>23.2</ele>
        <time>2025-09-30T09:01:52Z</time>
      </trkpt>
      <trkpt lat="48.51391" lon="-2.66892">
        <ele>23.2</ele>
        <time>2025-09-30T09:01:54Z</time>
      </trkpt>
      <trkpt lat="48.51391" lon="-2.66892">
        <ele>23.2</ele>
        <time>2025-09-30T09:01:55Z</time>
      </trkpt>
      <trkpt lat="48.51391" lon="-2.66892">
        <ele>23.2</ele>
        <time>2025-09-30T09:01:57Z</time>
      </trkpt>
      <trkpt lat="48.51391" lon="-2.66892">
        <ele>23.2</ele>
        <time>2025-09-30T09:02:03Z</time>
      </trkpt>
      <trkpt lat="48.51391" lon="-2.66892">
        <ele>23.2</ele>
        <time>2025-09-30T09:02:13Z</time>
      </trkpt>
      <trkpt lat="48.51391" lon="-2.66892">
        <ele>23.2</ele>
        <time>2025-09-30T09:02:26Z</time>
      </trkpt>
      <trkpt lat="48.51391" lon="-2.66892">
        <ele>23.2</ele>
        <time>2025-09-30T09:02:28Z</time>
      </trkpt>
      <trkpt lat="48.51391" lon="-2.66892">
        <ele>23.2</ele>
        <time>2025-09-30T09:02:29Z</time>
      </trkpt>
      <trkpt lat="48.51391" lon="-2.66892">
        <ele>23.2</ele>
        <time>2025-09-30T09:02:30Z</time>
      </trkpt>
      <trkpt lat="48.51391" lon="-2.66892">
        <ele>23.2</ele>
        <time>2025-09-30T09:02:32Z</time>
      </trkpt>
      <trkpt lat="48.51392" lon="-2.66892">
        <ele>23.2</ele>
        <time>2025-09-30T09:02:53Z</time>
      </trkpt>
      <trkpt lat="48.51392" lon="-2.66892">
        <ele>23.2</ele>
        <time>2025-09-30T09:03:01Z</time>
      </trkpt>
      <trkpt lat="48.51392" lon="-2.66892">
        <ele>23.2</ele>
        <time>2025-09-30T09:03:12Z</time>
      </trkpt>
      <trkpt lat="48.51392" lon="-2.66892">
        <ele>23.2</ele>
        <time>2025-09-30T09:03:18Z</time>
      </trkpt>
      <trkpt lat="48.51392" lon="-2.66892">
        <ele>23.2</ele>
        <time>2025-09-30T09:03:26Z</time>
      </trkpt>
      <trkpt lat="48.51392" lon="-2.66892">
        <ele>23.2</ele>
        <time>2025-09-30T09:03:36Z</time>
      </trkpt>
      <trkpt lat="48.51392" lon="-2.66892">
        <ele>23.2</ele>
        <time>2025-09-30T09:03:39Z</time>
      </trkpt>
      <trkpt lat="48.51392" lon="-2.66892">
        <ele>23.2</ele>
        <time>2025-09-30T09:03:42Z</time>
      </trkpt>
      <trkpt lat="48.51392" lon="-2.66892">
        <ele>23.2</ele>
        <time>2025-09-30T09:03:45Z</time>
      </trkpt>
      <trkpt lat="48.51392" lon="-2.66892">
        <ele>23.2</ele>
        <time>2025-09-30T09:03:46Z</time>
      </trkpt>
      <trkpt lat="48.51392" lon="-2.66892">
        <ele>23.2</ele>
        <time>2025-09-30T09:03:48Z</time>
      </trkpt>
      <trkpt lat="48.51392" lon="-2.66892">
        <ele>23.2</ele>
        <time>2025-09-30T09:03:49Z</time>
      </trkpt>
      <trkpt lat="48.51391" lon="-2.66892">
        <ele>23.2</ele>
        <time>2025-09-30T09:03:51Z</time>
      </trkpt>
      <trkpt lat="48.51391" lon="-2.66892">
        <ele>23.2</ele>
        <time>2025-09-30T09:03:54Z</time>
      </trkpt>
      <trkpt lat="48.51389" lon="-2.66894">
        <ele>23.2</ele>
        <time>2025-09-30T09:03:57Z</time>
      </trkpt>
      <trkpt lat="48.51388" lon="-2.66894">
        <ele>23.2</ele>
        <time>2025-09-30T09:03:59Z</time>
      </trkpt>
      <trkpt lat="48.51388" lon="-2.66894">
        <ele>23.2</ele>
        <time>2025-09-30T09:04:05Z</time>
      </trkpt>
      <trkpt lat="48.51388" lon="-2.66895">
        <ele>23.2</ele>
        <time>2025-09-30T09:04:11Z</time>
      </trkpt>
      <trkpt lat="48.51388" lon="-2.66895">
        <ele>23.2</ele>
        <time>2025-09-30T09:04:13Z</time>
      </trkpt>
      <trkpt lat="48.51388" lon="-2.66895">
        <ele>23.2</ele>
        <time>2025-09-30T09:04:15Z</time>
      </trkpt>
      <trkpt lat="48.51388" lon="-2.66895">
        <ele>23.2</ele>
        <time>2025-09-30T09:04:18Z</time>
      </trkpt>
      <trkpt lat="48.51388" lon="-2.66895">
        <ele>23.2</ele>
        <time>2025-09-30T09:04:30Z</time>
      </trkpt>
      <trkpt lat="48.51388" lon="-2.66895">
        <ele>23.2</ele>
        <time>2025-09-30T09:04:37Z</time>
      </trkpt>
      <trkpt lat="48.51388" lon="-2.66895">
        <ele>23.2</ele>
        <time>2025-09-30T09:04:38Z</time>
      </trkpt>
      <trkpt lat="48.51388" lon="-2.66895">
        <ele>23.2</ele>
        <time>2025-09-30T09:04:39Z</time>
      </trkpt>
      <trkpt lat="48.51388" lon="-2.66895">
        <ele>23.2</ele>
        <time>2025-09-30T09:04:40Z</time>
      </trkpt>
      <trkpt lat="48.51388" lon="-2.66895">
        <ele>23.2</ele>
        <time>2025-09-30T09:04:41Z</time>
      </trkpt>
      <trkpt lat="48.51388" lon="-2.66895">
        <ele>23.2</ele>
        <time>2025-09-30T09:04:56Z</time>
      </trkpt>
      <trkpt lat="48.51388" lon="-2.66895">
        <ele>23.2</ele>
        <time>2025-09-30T09:05:06Z</time>
      </trkpt>
      <trkpt lat="48.51388" lon="-2.66895">
        <ele>23.2</ele>
        <time>2025-09-30T09:05:12Z</time>
      </trkpt>
      <trkpt lat="48.51388" lon="-2.66895">
        <ele>23.2</ele>
        <time>2025-09-30T09:05:15Z</time>
      </trkpt>
      <trkpt lat="48.51388" lon="-2.66895">
        <ele>23.2</ele>
        <time>2025-09-30T09:05:18Z</time>
      </trkpt>
      <trkpt lat="48.51388" lon="-2.66895">
        <ele>23.2</ele>
        <time>2025-09-30T09:05:27Z</time>
      </trkpt>
      <trkpt lat="48.51388" lon="-2.66895">
        <ele>23.2</ele>
        <time>2025-09-30T09:05:30Z</time>
      </trkpt>
      <trkpt lat="48.51388" lon="-2.66895">
        <ele>23.2</ele>
        <time>2025-09-30T09:05:33Z</time>
      </trkpt>
      <trkpt lat="48.51388" lon="-2.66894">
        <ele>23.2</ele>
        <time>2025-09-30T09:05:46Z</time>
      </trkpt>
      <trkpt lat="48.51388" lon="-2.66894">
        <ele>23.2</ele>
        <time>2025-09-30T09:05:48Z</time>
      </trkpt>
      <trkpt lat="48.51388" lon="-2.66894">
        <ele>23.2</ele>
        <time>2025-09-30T09:05:49Z</time>
      </trkpt>
      <trkpt lat="48.51388" lon="-2.66894">
        <ele>23.2</ele>
        <time>2025-09-30T09:05:51Z</time>
      </trkpt>
      <trkpt lat="48.51388" lon="-2.66894">
        <ele>23.2</ele>
        <time>2025-09-30T09:05:53Z</time>
      </trkpt>
      <trkpt lat="48.51388" lon="-2.66894">
        <ele>23.2</ele>
        <time>2025-09-30T09:05:58Z</time>
      </trkpt>
      <trkpt lat="48.51387" lon="-2.66893">
        <ele>23.2</ele>
        <time>2025-09-30T09:06:00Z</time>
      </trkpt>
      <trkpt lat="48.51383" lon="-2.66886">
        <ele>23.2</ele>
        <time>2025-09-30T09:06:04Z</time>
      </trkpt>
      <trkpt lat="48.51383" lon="-2.66869">
        <ele>23</ele>
        <time>2025-09-30T09:06:12Z</time>
      </trkpt>
      <trkpt lat="48.51383" lon="-2.66863">
        <ele>22.8</ele>
        <time>2025-09-30T09:06:14Z</time>
      </trkpt>
      <trkpt lat="48.51384" lon="-2.66847">
        <ele>22.6</ele>
        <time>2025-09-30T09:06:18Z</time>
      </trkpt>
      <trkpt lat="48.51382" lon="-2.66819">
        <ele>22.4</ele>
        <time>2025-09-30T09:06:25Z</time>
      </trkpt>
      <trkpt lat="48.51364" lon="-2.66797">
        <ele>22.8</ele>
        <time>2025-09-30T09:06:33Z</time>
      </trkpt>
      <trkpt lat="48.51361" lon="-2.66793">
        <ele>22.8</ele>
        <time>2025-09-30T09:06:37Z</time>
      </trkpt>
      <trkpt lat="48.51358" lon="-2.6679">
        <ele>22.8</ele>
        <time>2025-09-30T09:06:39Z</time>
      </trkpt>
      <trkpt lat="48.5136" lon="-2.66775">
        <ele>22.8</ele>
        <time>2025-09-30T09:06:43Z</time>
      </trkpt>
      <trkpt lat="48.51366" lon="-2.66751">
        <ele>22.8</ele>
        <time>2025-09-30T09:06:48Z</time>
      </trkpt>
      <trkpt lat="48.51365" lon="-2.66706">
        <ele>22.6</ele>
        <time>2025-09-30T09:06:55Z</time>
      </trkpt>
      <trkpt lat="48.51368" lon="-2.66659">
        <ele>22.8</ele>
        <time>2025-09-30T09:07:02Z</time>
      </trkpt>
      <trkpt lat="48.51365" lon="-2.66637">
        <ele>23.2</ele>
        <time>2025-09-30T09:07:06Z</time>
      </trkpt>
      <trkpt lat="48.51364" lon="-2.66631">
        <ele>23.2</ele>
        <time>2025-09-30T09:07:07Z</time>
      </trkpt>
      <trkpt lat="48.5136" lon="-2.66595">
        <ele>23.4</ele>
        <time>2025-09-30T09:07:13Z</time>
      </trkpt>
      <trkpt lat="48.5136" lon="-2.6659">
        <ele>23.6</ele>
        <time>2025-09-30T09:07:14Z</time>
      </trkpt>
      <trkpt lat="48.51356" lon="-2.66551">
        <ele>24.2</ele>
        <time>2025-09-30T09:07:21Z</time>
      </trkpt>
      <trkpt lat="48.51349" lon="-2.6649">
        <ele>24.6</ele>
        <time>2025-09-30T09:07:30Z</time>
      </trkpt>
      <trkpt lat="48.51348" lon="-2.66482">
        <ele>24.6</ele>
        <time>2025-09-30T09:07:31Z</time>
      </trkpt>
      <trkpt lat="48.51344" lon="-2.66449">
        <ele>25</ele>
        <time>2025-09-30T09:07:36Z</time>
      </trkpt>
      <trkpt lat="48.51337" lon="-2.66388">
        <ele>25.4</ele>
        <time>2025-09-30T09:07:45Z</time>
      </trkpt>
      <trkpt lat="48.51332" lon="-2.66356">
        <ele>25.4</ele>
        <time>2025-09-30T09:07:51Z</time>
      </trkpt>
      <trkpt lat="48.51319" lon="-2.66351">
        <ele>25.6</ele>
        <time>2025-09-30T09:07:55Z</time>
      </trkpt>
      <trkpt lat="48.51315" lon="-2.66342">
        <ele>25.6</ele>
        <time>2025-09-30T09:07:57Z</time>
      </trkpt>
      <trkpt lat="48.51316" lon="-2.66336">
        <ele>25.6</ele>
        <time>2025-09-30T09:07:58Z</time>
      </trkpt>
      <trkpt lat="48.51319" lon="-2.66331">
        <ele>25.6</ele>
        <time>2025-09-30T09:07:59Z</time>
      </trkpt>
      <trkpt lat="48.51322" lon="-2.66327">
        <ele>25.6</ele>
        <time>2025-09-30T09:08:00Z</time>
      </trkpt>
      <trkpt lat="48.51328" lon="-2.6632">
        <ele>25.8</ele>
        <time>2025-09-30T09:08:02Z</time>
      </trkpt>
      <trkpt lat="48.51331" lon="-2.66315">
        <ele>25.8</ele>
        <time>2025-09-30T09:08:03Z</time>
      </trkpt>
      <trkpt lat="48.51332" lon="-2.66302">
        <ele>26.2</ele>
        <time>2025-09-30T09:08:05Z</time>
      </trkpt>
      <trkpt lat="48.51331" lon="-2.66246">
        <ele>26.4</ele>
        <time>2025-09-30T09:08:13Z</time>
      </trkpt>
      <trkpt lat="48.51329" lon="-2.6621">
        <ele>26.6</ele>
        <time>2025-09-30T09:08:18Z</time>
      </trkpt>
      <trkpt lat="48.51328" lon="-2.66203">
        <ele>26.8</ele>
        <time>2025-09-30T09:08:19Z</time>
      </trkpt>
      <trkpt lat="48.51326" lon="-2.66189">
        <ele>27</ele>
        <time>2025-09-30T09:08:21Z</time>
      </trkpt>
      <trkpt lat="48.51308" lon="-2.66135">
        <ele>27.6</ele>
        <time>2025-09-30T09:08:29Z</time>
      </trkpt>
      <trkpt lat="48.51298" lon="-2.66109">
        <ele>27.8</ele>
        <time>2025-09-30T09:08:33Z</time>
      </trkpt>
      <trkpt lat="48.5129" lon="-2.66089">
        <ele>27.8</ele>
        <time>2025-09-30T09:08:36Z</time>
      </trkpt>
      <trkpt lat="48.51267" lon="-2.66027">
        <ele>29</ele>
        <time>2025-09-30T09:08:45Z</time>
      </trkpt>
      <trkpt lat="48.51265" lon="-2.66019">
        <ele>29</ele>
        <time>2025-09-30T09:08:46Z</time>
      </trkpt>
      <trkpt lat="48.51255" lon="-2.65961">
        <ele>29.6</ele>
        <time>2025-09-30T09:08:53Z</time>
      </trkpt>
      <trkpt lat="48.51251" lon="-2.65927">
        <ele>30</ele>
        <time>2025-09-30T09:08:57Z</time>
      </trkpt>
      <trkpt lat="48.5125" lon="-2.6591">
        <ele>30</ele>
        <time>2025-09-30T09:08:59Z</time>
      </trkpt>
      <trkpt lat="48.51247" lon="-2.6587">
        <ele>30.6</ele>
        <time>2025-09-30T09:09:04Z</time>
      </trkpt>
      <trkpt lat="48.51244" lon="-2.65845">
        <ele>31</ele>
        <time>2025-09-30T09:09:07Z</time>
      </trkpt>
      <trkpt lat="48.51236" lon="-2.6579">
        <ele>32</ele>
        <time>2025-09-30T09:09:14Z</time>
      </trkpt>
      <trkpt lat="48.51226" lon="-2.65739">
        <ele>33.2</ele>
        <time>2025-09-30T09:09:21Z</time>
      </trkpt>
      <trkpt lat="48.51222" lon="-2.65717">
        <ele>33.6</ele>
        <time>2025-09-30T09:09:24Z</time>
      </trkpt>
      <trkpt lat="48.51217" lon="-2.65697">
        <ele>34.2</ele>
        <time>2025-09-30T09:09:27Z</time>
      </trkpt>
      <trkpt lat="48.5121" lon="-2.65662">
        <ele>35.4</ele>
        <time>2025-09-30T09:09:32Z</time>
      </trkpt>
      <trkpt lat="48.51209" lon="-2.65655">
        <ele>35.8</ele>
        <time>2025-09-30T09:09:33Z</time>
      </trkpt>
      <trkpt lat="48.51205" lon="-2.65634">
        <ele>36.6</ele>
        <time>2025-09-30T09:09:36Z</time>
      </trkpt>
      <trkpt lat="48.51198" lon="-2.656">
        <ele>37.8</ele>
        <time>2025-09-30T09:09:41Z</time>
      </trkpt>
      <trkpt lat="48.51195" lon="-2.65578">
        <ele>38.6</ele>
        <time>2025-09-30T09:09:44Z</time>
      </trkpt>
      <trkpt lat="48.51194" lon="-2.65572">
        <ele>38.8</ele>
        <time>2025-09-30T09:09:45Z</time>
      </trkpt>
      <trkpt lat="48.51192" lon="-2.6555">
        <ele>40</ele>
        <time>2025-09-30T09:09:48Z</time>
      </trkpt>
      <trkpt lat="48.5119" lon="-2.65529">
        <ele>41</ele>
        <time>2025-09-30T09:09:51Z</time>
      </trkpt>
      <trkpt lat="48.51189" lon="-2.65522">
        <ele>41.6</ele>
        <time>2025-09-30T09:09:52Z</time>
      </trkpt>
      <trkpt lat="48.51188" lon="-2.65508">
        <ele>42.4</ele>
        <time>2025-09-30T09:09:54Z</time>
      </trkpt>
      <trkpt lat="48.51187" lon="-2.65487">
        <ele>43.2</ele>
        <time>2025-09-30T09:09:57Z</time>
      </trkpt>
      <trkpt lat="48.51186" lon="-2.6548">
        <ele>43.6</ele>
        <time>2025-09-30T09:09:58Z</time>
      </trkpt>
      <trkpt lat="48.51186" lon="-2.65472">
        <ele>44</ele>
        <time>2025-09-30T09:09:59Z</time>
      </trkpt>
      <trkpt lat="48.51184" lon="-2.65458">
        <ele>44.8</ele>
        <time>2025-09-30T09:10:01Z</time>
      </trkpt>
      <trkpt lat="48.51183" lon="-2.65437">
        <ele>46.2</ele>
        <time>2025-09-30T09:10:04Z</time>
      </trkpt>
      <trkpt lat="48.51181" lon="-2.65416">
        <ele>47.4</ele>
        <time>2025-09-30T09:10:07Z</time>
      </trkpt>
      <trkpt lat="48.5118" lon="-2.65409">
        <ele>47.8</ele>
        <time>2025-09-30T09:10:08Z</time>
      </trkpt>
      <trkpt lat="48.51179" lon="-2.65395">
        <ele>48.6</ele>
        <time>2025-09-30T09:10:10Z</time>
      </trkpt>
      <trkpt lat="48.51177" lon="-2.65374">
        <ele>49.6</ele>
        <time>2025-09-30T09:10:13Z</time>
      </trkpt>
      <trkpt lat="48.51174" lon="-2.65344">
        <ele>50.6</ele>
        <time>2025-09-30T09:10:17Z</time>
      </trkpt>
      <trkpt lat="48.51173" lon="-2.65329">
        <ele>51</ele>
        <time>2025-09-30T09:10:19Z</time>
      </trkpt>
      <trkpt lat="48.51168" lon="-2.65285">
        <ele>51.8</ele>
        <time>2025-09-30T09:10:25Z</time>
      </trkpt>
      <trkpt lat="48.51167" lon="-2.65278">
        <ele>52.2</ele>
        <time>2025-09-30T09:10:26Z</time>
      </trkpt>
      <trkpt lat="48.51164" lon="-2.65244">
        <ele>53</ele>
        <time>2025-09-30T09:10:31Z</time>
      </trkpt>
      <trkpt lat="48.51161" lon="-2.6521">
        <ele>54</ele>
        <time>2025-09-30T09:10:36Z</time>
      </trkpt>
      <trkpt lat="48.5116" lon="-2.65204">
        <ele>54.2</ele>
        <time>2025-09-30T09:10:37Z</time>
      </trkpt>
      <trkpt lat="48.51158" lon="-2.65173">
        <ele>55.2</ele>
        <time>2025-09-30T09:10:42Z</time>
      </trkpt>
      <trkpt lat="48.51157" lon="-2.65149">
        <ele>55.8</ele>
        <time>2025-09-30T09:10:46Z</time>
      </trkpt>
      <trkpt lat="48.51156" lon="-2.65138">
        <ele>56</ele>
        <time>2025-09-30T09:10:48Z</time>
      </trkpt>
      <trkpt lat="48.51156" lon="-2.65103">
        <ele>56.2</ele>
        <time>2025-09-30T09:10:54Z</time>
      </trkpt>
      <trkpt lat="48.51155" lon="-2.65041">
        <ele>56.6</ele>
        <time>2025-09-30T09:11:04Z</time>
      </trkpt>
      <trkpt lat="48.51154" lon="-2.65003">
        <ele>57.4</ele>
        <time>2025-09-30T09:11:10Z</time>
      </trkpt>
      <trkpt lat="48.51154" lon="-2.64985">
        <ele>57.6</ele>
        <time>2025-09-30T09:11:13Z</time>
      </trkpt>
      <trkpt lat="48.51154" lon="-2.64949">
        <ele>58.4</ele>
        <time>2025-09-30T09:11:19Z</time>
      </trkpt>
      <trkpt lat="48.51153" lon="-2.64936">
        <ele>58.8</ele>
        <time>2025-09-30T09:11:21Z</time>
      </trkpt>
      <trkpt lat="48.51151" lon="-2.64905">
        <ele>59.6</ele>
        <time>2025-09-30T09:11:26Z</time>
      </trkpt>
      <trkpt lat="48.51147" lon="-2.64881">
        <ele>60</ele>
        <time>2025-09-30T09:11:30Z</time>
      </trkpt>
      <trkpt lat="48.5114" lon="-2.64832">
        <ele>60.6</ele>
        <time>2025-09-30T09:11:38Z</time>
      </trkpt>
      <trkpt lat="48.51137" lon="-2.64814">
        <ele>60.8</ele>
        <time>2025-09-30T09:11:41Z</time>
      </trkpt>
      <trkpt lat="48.51128" lon="-2.64757">
        <ele>61.6</ele>
        <time>2025-09-30T09:11:51Z</time>
      </trkpt>
      <trkpt lat="48.51127" lon="-2.64752">
        <ele>61.8</ele>
        <time>2025-09-30T09:11:52Z</time>
      </trkpt>
      <trkpt lat="48.51125" lon="-2.64743">
        <ele>61.8</ele>
        <time>2025-09-30T09:11:54Z</time>
      </trkpt>
      <trkpt lat="48.51123" lon="-2.64717">
        <ele>61.6</ele>
        <time>2025-09-30T09:12:01Z</time>
      </trkpt>
      <trkpt lat="48.51123" lon="-2.64715">
        <ele>61.4</ele>
        <time>2025-09-30T09:12:02Z</time>
      </trkpt>
      <trkpt lat="48.51126" lon="-2.64713">
        <ele>61.4</ele>
        <time>2025-09-30T09:12:04Z</time>
      </trkpt>
      <trkpt lat="48.51127" lon="-2.64713">
        <ele>61.4</ele>
        <time>2025-09-30T09:12:05Z</time>
      </trkpt>
      <trkpt lat="48.51129" lon="-2.64713">
        <ele>61.2</ele>
        <time>2025-09-30T09:12:06Z</time>
      </trkpt>
      <trkpt lat="48.51133" lon="-2.64714">
        <ele>61.4</ele>
        <time>2025-09-30T09:12:08Z</time>
      </trkpt>
      <trkpt lat="48.51138" lon="-2.64716">
        <ele>61.4</ele>
        <time>2025-09-30T09:12:10Z</time>
      </trkpt>
      <trkpt lat="48.51156" lon="-2.64726">
        <ele>61.4</ele>
        <time>2025-09-30T09:12:16Z</time>
      </trkpt>
      <trkpt lat="48.51172" lon="-2.64729">
        <ele>61.8</ele>
        <time>2025-09-30T09:12:20Z</time>
      </trkpt>
      <trkpt lat="48.51176" lon="-2.64728">
        <ele>61.8</ele>
        <time>2025-09-30T09:12:21Z</time>
      </trkpt>
      <trkpt lat="48.5118" lon="-2.64727">
        <ele>62</ele>
        <time>2025-09-30T09:12:22Z</time>
      </trkpt>
      <trkpt lat="48.51191" lon="-2.64716">
        <ele>62.6</ele>
        <time>2025-09-30T09:12:25Z</time>
      </trkpt>
      <trkpt lat="48.51193" lon="-2.64711">
        <ele>62.8</ele>
        <time>2025-09-30T09:12:26Z</time>
      </trkpt>
      <trkpt lat="48.51206" lon="-2.64685">
        <ele>63.4</ele>
        <time>2025-09-30T09:12:31Z</time>
      </trkpt>
      <trkpt lat="48.51231" lon="-2.64634">
        <ele>62.8</ele>
        <time>2025-09-30T09:12:41Z</time>
      </trkpt>
      <trkpt lat="48.51247" lon="-2.64602">
        <ele>62.6</ele>
        <time>2025-09-30T09:12:47Z</time>
      </trkpt>
      <trkpt lat="48.51249" lon="-2.64598">
        <ele>62.4</ele>
        <time>2025-09-30T09:12:48Z</time>
      </trkpt>
      <trkpt lat="48.51264" lon="-2.64575">
        <ele>62.2</ele>
        <time>2025-09-30T09:12:54Z</time>
      </trkpt>
      <trkpt lat="48.51286" lon="-2.64536">
        <ele>62.4</ele>
        <time>2025-09-30T09:13:02Z</time>
      </trkpt>
      <trkpt lat="48.51293" lon="-2.64513">
        <ele>62.2</ele>
        <time>2025-09-30T09:13:05Z</time>
      </trkpt>
      <trkpt lat="48.51295" lon="-2.64504">
        <ele>61.8</ele>
        <time>2025-09-30T09:13:06Z</time>
      </trkpt>
      <trkpt lat="48.51296" lon="-2.64495">
        <ele>61.4</ele>
        <time>2025-09-30T09:13:07Z</time>
      </trkpt>
      <trkpt lat="48.51302" lon="-2.64435">
        <ele>61.2</ele>
        <time>2025-09-30T09:13:14Z</time>
      </trkpt>
      <trkpt lat="48.51308" lon="-2.64381">
        <ele>61.4</ele>
        <time>2025-09-30T09:13:21Z</time>
      </trkpt>
      <trkpt lat="48.51316" lon="-2.64299">
        <ele>61</ele>
        <time>2025-09-30T09:13:31Z</time>
      </trkpt>
      <trkpt lat="48.51321" lon="-2.64275">
        <ele>61</ele>
        <time>2025-09-30T09:13:34Z</time>
      </trkpt>
      <trkpt lat="48.51327" lon="-2.64243">
        <ele>60.6</ele>
        <time>2025-09-30T09:13:38Z</time>
      </trkpt>
      <trkpt lat="48.51336" lon="-2.64199">
        <ele>59.4</ele>
        <time>2025-09-30T09:13:43Z</time>
      </trkpt>
      <trkpt lat="48.51338" lon="-2.64189">
        <ele>59.2</ele>
        <time>2025-09-30T09:13:44Z</time>
      </trkpt>
      <trkpt lat="48.51344" lon="-2.6416">
        <ele>58.4</ele>
        <time>2025-09-30T09:13:47Z</time>
      </trkpt>
      <trkpt lat="48.51348" lon="-2.6414">
        <ele>58.2</ele>
        <time>2025-09-30T09:13:49Z</time>
      </trkpt>
      <trkpt lat="48.51353" lon="-2.64118">
        <ele>57.8</ele>
        <time>2025-09-30T09:13:51Z</time>
      </trkpt>
      <trkpt lat="48.51355" lon="-2.64108">
        <ele>57</ele>
        <time>2025-09-30T09:13:52Z</time>
      </trkpt>
      <trkpt lat="48.51365" lon="-2.64068">
        <ele>55.6</ele>
        <time>2025-09-30T09:13:56Z</time>
      </trkpt>
      <trkpt lat="48.51375" lon="-2.64026">
        <ele>54.6</ele>
        <time>2025-09-30T09:14:00Z</time>
      </trkpt>
      <trkpt lat="48.51384" lon="-2.63994">
        <ele>53.6</ele>
        <time>2025-09-30T09:14:03Z</time>
      </trkpt>
      <trkpt lat="48.51394" lon="-2.63962">
        <ele>52.4</ele>
        <time>2025-09-30T09:14:06Z</time>
      </trkpt>
      <trkpt lat="48.51401" lon="-2.63942">
        <ele>52</ele>
        <time>2025-09-30T09:14:08Z</time>
      </trkpt>
      <trkpt lat="48.51409" lon="-2.63913">
        <ele>51.2</ele>
        <time>2025-09-30T09:14:11Z</time>
      </trkpt>
      <trkpt lat="48.51417" lon="-2.63873">
        <ele>50.2</ele>
        <time>2025-09-30T09:14:15Z</time>
      </trkpt>
      <trkpt lat="48.51418" lon="-2.63864">
        <ele>50.2</ele>
        <time>2025-09-30T09:14:16Z</time>
      </trkpt>
      <trkpt lat="48.51421" lon="-2.63831">
        <ele>49.4</ele>
        <time>2025-09-30T09:14:20Z</time>
      </trkpt>
      <trkpt lat="48.51422" lon="-2.63811">
        <ele>49.2</ele>
        <time>2025-09-30T09:14:23Z</time>
      </trkpt>
      <trkpt lat="48.51424" lon="-2.63794">
        <ele>48.8</ele>
        <time>2025-09-30T09:14:26Z</time>
      </trkpt>
      <trkpt lat="48.51429" lon="-2.63775">
        <ele>48.2</ele>
        <time>2025-09-30T09:14:31Z</time>
      </trkpt>
      <trkpt lat="48.51431" lon="-2.63771">
        <ele>47.8</ele>
        <time>2025-09-30T09:14:32Z</time>
      </trkpt>
      <trkpt lat="48.51437" lon="-2.63752">
        <ele>47.6</ele>
        <time>2025-09-30T09:14:36Z</time>
      </trkpt>
      <trkpt lat="48.51436" lon="-2.63724">
        <ele>47.4</ele>
        <time>2025-09-30T09:14:41Z</time>
      </trkpt>
      <trkpt lat="48.51433" lon="-2.63699">
        <ele>47.2</ele>
        <time>2025-09-30T09:14:45Z</time>
      </trkpt>
      <trkpt lat="48.5143" lon="-2.63668">
        <ele>47</ele>
        <time>2025-09-30T09:14:49Z</time>
      </trkpt>
      <trkpt lat="48.51429" lon="-2.63651">
        <ele>46.8</ele>
        <time>2025-09-30T09:14:51Z</time>
      </trkpt>
      <trkpt lat="48.5143" lon="-2.63606">
        <ele>45.8</ele>
        <time>2025-09-30T09:14:56Z</time>
      </trkpt>
      <trkpt lat="48.51431" lon="-2.63597">
        <ele>45.8</ele>
        <time>2025-09-30T09:14:57Z</time>
      </trkpt>
      <trkpt lat="48.51434" lon="-2.63559">
        <ele>44.8</ele>
        <time>2025-09-30T09:15:01Z</time>
      </trkpt>
      <trkpt lat="48.51435" lon="-2.6354">
        <ele>44</ele>
        <time>2025-09-30T09:15:03Z</time>
      </trkpt>
      <trkpt lat="48.51435" lon="-2.6353">
        <ele>43.6</ele>
        <time>2025-09-30T09:15:04Z</time>
      </trkpt>
      <trkpt lat="48.51435" lon="-2.6348">
        <ele>42.6</ele>
        <time>2025-09-30T09:15:09Z</time>
      </trkpt>
      <trkpt lat="48.51436" lon="-2.6347">
        <ele>42.4</ele>
        <time>2025-09-30T09:15:10Z</time>
      </trkpt>
      <trkpt lat="48.51438" lon="-2.6344">
        <ele>41.4</ele>
        <time>2025-09-30T09:15:13Z</time>
      </trkpt>
      <trkpt lat="48.5144" lon="-2.63387">
        <ele>40</ele>
        <time>2025-09-30T09:15:18Z</time>
      </trkpt>
      <trkpt lat="48.5144" lon="-2.63366">
        <ele>39.6</ele>
        <time>2025-09-30T09:15:20Z</time>
      </trkpt>
      <trkpt lat="48.51438" lon="-2.63335">
        <ele>38.8</ele>
        <time>2025-09-30T09:15:23Z</time>
      </trkpt>
      <trkpt lat="48.51434" lon="-2.63271">
        <ele>37.6</ele>
        <time>2025-09-30T09:15:29Z</time>
      </trkpt>
      <trkpt lat="48.51433" lon="-2.63232">
        <ele>37</ele>
        <time>2025-09-30T09:15:33Z</time>
      </trkpt>
      <trkpt lat="48.51434" lon="-2.63216">
        <ele>37.2</ele>
        <time>2025-09-30T09:15:35Z</time>
      </trkpt>
      <trkpt lat="48.51436" lon="-2.632">
        <ele>37.4</ele>
        <time>2025-09-30T09:15:37Z</time>
      </trkpt>
      <trkpt lat="48.51436" lon="-2.63176">
        <ele>37.6</ele>
        <time>2025-09-30T09:15:40Z</time>
      </trkpt>
      <trkpt lat="48.51435" lon="-2.63169">
        <ele>38</ele>
        <time>2025-09-30T09:15:41Z</time>
      </trkpt>
      <trkpt lat="48.51434" lon="-2.63141">
        <ele>38.8</ele>
        <time>2025-09-30T09:15:45Z</time>
      </trkpt>
      <trkpt lat="48.51431" lon="-2.63112">
        <ele>39.8</ele>
        <time>2025-09-30T09:15:49Z</time>
      </trkpt>
      <trkpt lat="48.5143" lon="-2.63091">
        <ele>40.4</ele>
        <time>2025-09-30T09:15:52Z</time>
      </trkpt>
      <trkpt lat="48.5143" lon="-2.63076">
        <ele>40.8</ele>
        <time>2025-09-30T09:15:54Z</time>
      </trkpt>
      <trkpt lat="48.51427" lon="-2.6305">
        <ele>42.2</ele>
        <time>2025-09-30T09:15:58Z</time>
      </trkpt>
      <trkpt lat="48.51424" lon="-2.6303">
        <ele>42.8</ele>
        <time>2025-09-30T09:16:01Z</time>
      </trkpt>
      <trkpt lat="48.51422" lon="-2.63017">
        <ele>43.2</ele>
        <time>2025-09-30T09:16:03Z</time>
      </trkpt>
      <trkpt lat="48.51416" lon="-2.62992">
        <ele>43.4</ele>
        <time>2025-09-30T09:16:07Z</time>
      </trkpt>
      <trkpt lat="48.51412" lon="-2.62954">
        <ele>44.4</ele>
        <time>2025-09-30T09:16:13Z</time>
      </trkpt>
      <trkpt lat="48.51411" lon="-2.62948">
        <ele>44.4</ele>
        <time>2025-09-30T09:16:14Z</time>
      </trkpt>
      <trkpt lat="48.51411" lon="-2.62942">
        <ele>44.6</ele>
        <time>2025-09-30T09:16:15Z</time>
      </trkpt>
      <trkpt lat="48.51414" lon="-2.62922">
        <ele>45</ele>
        <time>2025-09-30T09:16:18Z</time>
      </trkpt>
      <trkpt lat="48.51415" lon="-2.62916">
        <ele>45</ele>
        <time>2025-09-30T09:16:19Z</time>
      </trkpt>
      <trkpt lat="48.51411" lon="-2.629">
        <ele>45.2</ele>
        <time>2025-09-30T09:16:22Z</time>
      </trkpt>
      <trkpt lat="48.51406" lon="-2.62885">
        <ele>45.4</ele>
        <time>2025-09-30T09:16:25Z</time>
      </trkpt>
      <trkpt lat="48.51385" lon="-2.62839">
        <ele>45.4</ele>
        <time>2025-09-30T09:16:33Z</time>
      </trkpt>
      <trkpt lat="48.5137" lon="-2.62807">
        <ele>45.8</ele>
        <time>2025-09-30T09:16:39Z</time>
      </trkpt>
      <trkpt lat="48.51366" lon="-2.62796">
        <ele>45.8</ele>
        <time>2025-09-30T09:16:41Z</time>
      </trkpt>
      <trkpt lat="48.51362" lon="-2.62786">
        <ele>46</ele>
        <time>2025-09-30T09:16:43Z</time>
      </trkpt>
      <trkpt lat="48.51358" lon="-2.62776">
        <ele>46.2</ele>
        <time>2025-09-30T09:16:45Z</time>
      </trkpt>
      <trkpt lat="48.51354" lon="-2.62766">
        <ele>46.4</ele>
        <time>2025-09-30T09:16:47Z</time>
      </trkpt>
      <trkpt lat="48.51344" lon="-2.62742">
        <ele>47.2</ele>
        <time>2025-09-30T09:16:52Z</time>
      </trkpt>
      <trkpt lat="48.51341" lon="-2.62728">
        <ele>47.6</ele>
        <time>2025-09-30T09:16:55Z</time>
      </trkpt>
      <trkpt lat="48.51342" lon="-2.62724">
        <ele>47.6</ele>
        <time>2025-09-30T09:16:56Z</time>
      </trkpt>
      <trkpt lat="48.51343" lon="-2.62721">
        <ele>47.8</ele>
        <time>2025-09-30T09:16:57Z</time>
      </trkpt>
      <trkpt lat="48.51346" lon="-2.62718">
        <ele>47.8</ele>
        <time>2025-09-30T09:16:58Z</time>
      </trkpt>
      <trkpt lat="48.51356" lon="-2.62718">
        <ele>48</ele>
        <time>2025-09-30T09:17:01Z</time>
      </trkpt>
      <trkpt lat="48.51376" lon="-2.62724">
        <ele>47.8</ele>
        <time>2025-09-30T09:17:06Z</time>
      </trkpt>
      <trkpt lat="48.51404" lon="-2.6273">
        <ele>47.2</ele>
        <time>2025-09-30T09:17:12Z</time>
      </trkpt>
      <trkpt lat="48.51409" lon="-2.62731">
        <ele>47</ele>
        <time>2025-09-30T09:17:13Z</time>
      </trkpt>
      <trkpt lat="48.5144" lon="-2.62735">
        <ele>46.6</ele>
        <time>2025-09-30T09:17:19Z</time>
      </trkpt>
      <trkpt lat="48.51451" lon="-2.62734">
        <ele>46.6</ele>
        <time>2025-09-30T09:17:21Z</time>
      </trkpt>
      <trkpt lat="48.51456" lon="-2.62732">
        <ele>46.4</ele>
        <time>2025-09-30T09:17:22Z</time>
      </trkpt>
      <trkpt lat="48.51464" lon="-2.62726">
        <ele>46.2</ele>
        <time>2025-09-30T09:17:24Z</time>
      </trkpt>
      <trkpt lat="48.51467" lon="-2.62723">
        <ele>46</ele>
        <time>2025-09-30T09:17:25Z</time>
      </trkpt>
      <trkpt lat="48.5147" lon="-2.62718">
        <ele>46</ele>
        <time>2025-09-30T09:17:26Z</time>
      </trkpt>
      <trkpt lat="48.5147" lon="-2.62708">
        <ele>46</ele>
        <time>2025-09-30T09:17:28Z</time>
      </trkpt>
      <trkpt lat="48.51467" lon="-2.62688">
        <ele>46.6</ele>
        <time>2025-09-30T09:17:32Z</time>
      </trkpt>
      <trkpt lat="48.51466" lon="-2.62676">
        <ele>47</ele>
        <time>2025-09-30T09:17:34Z</time>
      </trkpt>
      <trkpt lat="48.51466" lon="-2.62664">
        <ele>47.4</ele>
        <time>2025-09-30T09:17:36Z</time>
      </trkpt>
      <trkpt lat="48.51464" lon="-2.62633">
        <ele>48</ele>
        <time>2025-09-30T09:17:41Z</time>
      </trkpt>
      <trkpt lat="48.51459" lon="-2.62613">
        <ele>48.6</ele>
        <time>2025-09-30T09:17:45Z</time>
      </trkpt>
      <trkpt lat="48.51456" lon="-2.62605">
        <ele>49</ele>
        <time>2025-09-30T09:17:47Z</time>
      </trkpt>
      <trkpt lat="48.51451" lon="-2.62593">
        <ele>49.6</ele>
        <time>2025-09-30T09:17:50Z</time>
      </trkpt>
      <trkpt lat="48.51444" lon="-2.62582">
        <ele>50.2</ele>
        <time>2025-09-30T09:17:53Z</time>
      </trkpt>
      <trkpt lat="48.51438" lon="-2.62575">
        <ele>50.6</ele>
        <time>2025-09-30T09:17:55Z</time>
      </trkpt>
      <trkpt lat="48.51421" lon="-2.62563">
        <ele>51.6</ele>
        <time>2025-09-30T09:18:00Z</time>
      </trkpt>
      <trkpt lat="48.51413" lon="-2.62559">
        <ele>52</ele>
        <time>2025-09-30T09:18:02Z</time>
      </trkpt>
      <trkpt lat="48.51395" lon="-2.62547">
        <ele>52.6</ele>
        <time>2025-09-30T09:18:07Z</time>
      </trkpt>
      <trkpt lat="48.51376" lon="-2.62534">
        <ele>53.4</ele>
        <time>2025-09-30T09:18:12Z</time>
      </trkpt>
      <trkpt lat="48.51372" lon="-2.62531">
        <ele>53.8</ele>
        <time>2025-09-30T09:18:13Z</time>
      </trkpt>
      <trkpt lat="48.51335" lon="-2.62506">
        <ele>54.6</ele>
        <time>2025-09-30T09:18:22Z</time>
      </trkpt>
      <trkpt lat="48.5133" lon="-2.62504">
        <ele>54.8</ele>
        <time>2025-09-30T09:18:23Z</time>
      </trkpt>
      <trkpt lat="48.51326" lon="-2.62501">
        <ele>54.8</ele>
        <time>2025-09-30T09:18:24Z</time>
      </trkpt>
      <trkpt lat="48.51287" lon="-2.62475">
        <ele>55.8</ele>
        <time>2025-09-30T09:18:33Z</time>
      </trkpt>
      <trkpt lat="48.51283" lon="-2.62472">
        <ele>56</ele>
        <time>2025-09-30T09:18:34Z</time>
      </trkpt>
      <trkpt lat="48.51259" lon="-2.62448">
        <ele>57</ele>
        <time>2025-09-30T09:18:41Z</time>
      </trkpt>
      <trkpt lat="48.51252" lon="-2.62433">
        <ele>57.6</ele>
        <time>2025-09-30T09:18:44Z</time>
      </trkpt>
      <trkpt lat="48.51249" lon="-2.62421">
        <ele>57.8</ele>
        <time>2025-09-30T09:18:46Z</time>
      </trkpt>
      <trkpt lat="48.51248" lon="-2.62416">
        <ele>58.2</ele>
        <time>2025-09-30T09:18:47Z</time>
      </trkpt>
      <trkpt lat="48.51247" lon="-2.6241">
        <ele>58.2</ele>
        <time>2025-09-30T09:18:48Z</time>
      </trkpt>
      <trkpt lat="48.5124" lon="-2.62398">
        <ele>58.6</ele>
        <time>2025-09-30T09:18:51Z</time>
      </trkpt>
      <trkpt lat="48.51234" lon="-2.62394">
        <ele>59.2</ele>
        <time>2025-09-30T09:18:53Z</time>
      </trkpt>
      <trkpt lat="48.51224" lon="-2.62391">
        <ele>60</ele>
        <time>2025-09-30T09:18:56Z</time>
      </trkpt>
      <trkpt lat="48.51216" lon="-2.6239">
        <ele>60.2</ele>
        <time>2025-09-30T09:18:58Z</time>
      </trkpt>
      <trkpt lat="48.51198" lon="-2.62384">
        <ele>61.4</ele>
        <time>2025-09-30T09:19:03Z</time>
      </trkpt>
      <trkpt lat="48.51194" lon="-2.62382">
        <ele>61.8</ele>
        <time>2025-09-30T09:19:04Z</time>
      </trkpt>
      <trkpt lat="48.51187" lon="-2.6238">
        <ele>62.2</ele>
        <time>2025-09-30T09:19:06Z</time>
      </trkpt>
      <trkpt lat="48.5118" lon="-2.62376">
        <ele>62.6</ele>
        <time>2025-09-30T09:19:08Z</time>
      </trkpt>
      <trkpt lat="48.51168" lon="-2.62378">
        <ele>63.6</ele>
        <time>2025-09-30T09:19:12Z</time>
      </trkpt>
      <trkpt lat="48.51163" lon="-2.62386">
        <ele>63.8</ele>
        <time>2025-09-30T09:19:14Z</time>
      </trkpt>
      <trkpt lat="48.5116" lon="-2.62395">
        <ele>63.8</ele>
        <time>2025-09-30T09:19:16Z</time>
      </trkpt>
      <trkpt lat="48.51149" lon="-2.62437">
        <ele>63.6</ele>
        <time>2025-09-30T09:19:24Z</time>
      </trkpt>
      <trkpt lat="48.51139" lon="-2.62487">
        <ele>62.6</ele>
        <time>2025-09-30T09:19:32Z</time>
      </trkpt>
      <trkpt lat="48.51138" lon="-2.62494">
        <ele>62.4</ele>
        <time>2025-09-30T09:19:33Z</time>
      </trkpt>
      <trkpt lat="48.51132" lon="-2.62514">
        <ele>62</ele>
        <time>2025-09-30T09:19:36Z</time>
      </trkpt>
      <trkpt lat="48.51131" lon="-2.62521">
        <ele>62</ele>
        <time>2025-09-30T09:19:37Z</time>
      </trkpt>
      <trkpt lat="48.51122" lon="-2.62545">
        <ele>61.6</ele>
        <time>2025-09-30T09:19:41Z</time>
      </trkpt>
      <trkpt lat="48.5111" lon="-2.62559">
        <ele>61.8</ele>
        <time>2025-09-30T09:19:45Z</time>
      </trkpt>
      <trkpt lat="48.5109" lon="-2.62562">
        <ele>62.4</ele>
        <time>2025-09-30T09:19:50Z</time>
      </trkpt>
      <trkpt lat="48.5108" lon="-2.62557">
        <ele>62.8</ele>
        <time>2025-09-30T09:19:53Z</time>
      </trkpt>
      <trkpt lat="48.51072" lon="-2.62549">
        <ele>63.4</ele>
        <time>2025-09-30T09:19:56Z</time>
      </trkpt>
      <trkpt lat="48.51067" lon="-2.62542">
        <ele>63.8</ele>
        <time>2025-09-30T09:19:58Z</time>
      </trkpt>
      <trkpt lat="48.51065" lon="-2.62532">
        <ele>64.2</ele>
        <time>2025-09-30T09:20:00Z</time>
      </trkpt>
      <trkpt lat="48.51063" lon="-2.62505">
        <ele>65</ele>
        <time>2025-09-30T09:20:05Z</time>
      </trkpt>
      <trkpt lat="48.51062" lon="-2.62493">
        <ele>65</ele>
        <time>2025-09-30T09:20:08Z</time>
      </trkpt>
      <trkpt lat="48.51059" lon="-2.62473">
        <ele>65.4</ele>
        <time>2025-09-30T09:20:14Z</time>
      </trkpt>
      <trkpt lat="48.51051" lon="-2.62441">
        <ele>66</ele>
        <time>2025-09-30T09:20:22Z</time>
      </trkpt>
      <trkpt lat="48.5105" lon="-2.62436">
        <ele>66.2</ele>
        <time>2025-09-30T09:20:23Z</time>
      </trkpt>
      <trkpt lat="48.51031" lon="-2.62391">
        <ele>66.8</ele>
        <time>2025-09-30T09:20:32Z</time>
      </trkpt>
      <trkpt lat="48.51022" lon="-2.62376">
        <ele>66.6</ele>
        <time>2025-09-30T09:20:35Z</time>
      </trkpt>
      <trkpt lat="48.51016" lon="-2.62366">
        <ele>66.4</ele>
        <time>2025-09-30T09:20:37Z</time>
      </trkpt>
      <trkpt lat="48.51012" lon="-2.62361">
        <ele>66.2</ele>
        <time>2025-09-30T09:20:38Z</time>
      </trkpt>
      <trkpt lat="48.5098" lon="-2.62313">
        <ele>65</ele>
        <time>2025-09-30T09:20:47Z</time>
      </trkpt>
      <trkpt lat="48.50977" lon="-2.6231">
        <ele>64.8</ele>
        <time>2025-09-30T09:20:48Z</time>
      </trkpt>
      <trkpt lat="48.50971" lon="-2.62302">
        <ele>64.2</ele>
        <time>2025-09-30T09:20:51Z</time>
      </trkpt>
      <trkpt lat="48.50968" lon="-2.62298">
        <ele>63.8</ele>
        <time>2025-09-30T09:20:55Z</time>
      </trkpt>
      <trkpt lat="48.50967" lon="-2.62296">
        <ele>63.6</ele>
        <time>2025-09-30T09:20:58Z</time>
      </trkpt>
      <trkpt lat="48.50965" lon="-2.62291">
        <ele>63.4</ele>
        <time>2025-09-30T09:21:01Z</time>
      </trkpt>
      <trkpt lat="48.50952" lon="-2.62272">
        <ele>63.2</ele>
        <time>2025-09-30T09:21:06Z</time>
      </trkpt>
      <trkpt lat="48.50939" lon="-2.62255">
        <ele>62.6</ele>
        <time>2025-09-30T09:21:10Z</time>
      </trkpt>
      <trkpt lat="48.50928" lon="-2.62239">
        <ele>62.2</ele>
        <time>2025-09-30T09:21:13Z</time>
      </trkpt>
      <trkpt lat="48.50907" lon="-2.62206">
        <ele>61.4</ele>
        <time>2025-09-30T09:21:19Z</time>
      </trkpt>
      <trkpt lat="48.50904" lon="-2.62201">
        <ele>61.2</ele>
        <time>2025-09-30T09:21:20Z</time>
      </trkpt>
      <trkpt lat="48.50901" lon="-2.62195">
        <ele>61.2</ele>
        <time>2025-09-30T09:21:21Z</time>
      </trkpt>
      <trkpt lat="48.50889" lon="-2.62167">
        <ele>60.2</ele>
        <time>2025-09-30T09:21:25Z</time>
      </trkpt>
      <trkpt lat="48.50883" lon="-2.62143">
        <ele>60</ele>
        <time>2025-09-30T09:21:28Z</time>
      </trkpt>
      <trkpt lat="48.50881" lon="-2.62135">
        <ele>59.8</ele>
        <time>2025-09-30T09:21:29Z</time>
      </trkpt>
      <trkpt lat="48.50878" lon="-2.62119">
        <ele>59.2</ele>
        <time>2025-09-30T09:21:31Z</time>
      </trkpt>
      <trkpt lat="48.50875" lon="-2.62094">
        <ele>59</ele>
        <time>2025-09-30T09:21:34Z</time>
      </trkpt>
      <trkpt lat="48.50874" lon="-2.62055">
        <ele>58.2</ele>
        <time>2025-09-30T09:21:39Z</time>
      </trkpt>
      <trkpt lat="48.50875" lon="-2.6204">
        <ele>57.8</ele>
        <time>2025-09-30T09:21:41Z</time>
      </trkpt>
      <trkpt lat="48.50882" lon="-2.6201">
        <ele>57.2</ele>
        <time>2025-09-30T09:21:45Z</time>
      </trkpt>
      <trkpt lat="48.50889" lon="-2.6198">
        <ele>56.2</ele>
        <time>2025-09-30T09:21:49Z</time>
      </trkpt>
      <trkpt lat="48.50891" lon="-2.61973">
        <ele>56</ele>
        <time>2025-09-30T09:21:50Z</time>
      </trkpt>
      <trkpt lat="48.50909" lon="-2.61921">
        <ele>55</ele>
        <time>2025-09-30T09:21:57Z</time>
      </trkpt>
      <trkpt lat="48.50911" lon="-2.61913">
        <ele>55</ele>
        <time>2025-09-30T09:21:58Z</time>
      </trkpt>
      <trkpt lat="48.50914" lon="-2.61895">
        <ele>54.4</ele>
        <time>2025-09-30T09:22:00Z</time>
      </trkpt>
      <trkpt lat="48.50916" lon="-2.61877">
        <ele>53.8</ele>
        <time>2025-09-30T09:22:02Z</time>
      </trkpt>
      <trkpt lat="48.50918" lon="-2.6186">
        <ele>53.4</ele>
        <time>2025-09-30T09:22:04Z</time>
      </trkpt>
      <trkpt lat="48.5092" lon="-2.61851">
        <ele>53.4</ele>
        <time>2025-09-30T09:22:05Z</time>
      </trkpt>
      <trkpt lat="48.50928" lon="-2.61832">
        <ele>52.6</ele>
        <time>2025-09-30T09:22:08Z</time>
      </trkpt>
      <trkpt lat="48.50942" lon="-2.61807">
        <ele>51.6</ele>
        <time>2025-09-30T09:22:13Z</time>
      </trkpt>
      <trkpt lat="48.50944" lon="-2.61802">
        <ele>51.2</ele>
        <time>2025-09-30T09:22:14Z</time>
      </trkpt>
      <trkpt lat="48.50944" lon="-2.6179">
        <ele>50.8</ele>
        <time>2025-09-30T09:22:16Z</time>
      </trkpt>
      <trkpt lat="48.50939" lon="-2.6178">
        <ele>50.4</ele>
        <time>2025-09-30T09:22:18Z</time>
      </trkpt>
      <trkpt lat="48.50936" lon="-2.61777">
        <ele>50.2</ele>
        <time>2025-09-30T09:22:19Z</time>
      </trkpt>
      <trkpt lat="48.50916" lon="-2.61754">
        <ele>50.2</ele>
        <time>2025-09-30T09:22:24Z</time>
      </trkpt>
      <trkpt lat="48.50906" lon="-2.6174">
        <ele>50.2</ele>
        <time>2025-09-30T09:22:27Z</time>
      </trkpt>
      <trkpt lat="48.50881" lon="-2.61712">
        <ele>49.8</ele>
        <time>2025-09-30T09:22:32Z</time>
      </trkpt>
      <trkpt lat="48.50852" lon="-2.61677">
        <ele>49.2</ele>
        <time>2025-09-30T09:22:38Z</time>
      </trkpt>
      <trkpt lat="48.50848" lon="-2.61672">
        <ele>49</ele>
        <time>2025-09-30T09:22:39Z</time>
      </trkpt>
      <trkpt lat="48.50837" lon="-2.61658">
        <ele>48.6</ele>
        <time>2025-09-30T09:22:41Z</time>
      </trkpt>
      <trkpt lat="48.50827" lon="-2.61647">
        <ele>48</ele>
        <time>2025-09-30T09:22:43Z</time>
      </trkpt>
      <trkpt lat="48.50816" lon="-2.61633">
        <ele>47.8</ele>
        <time>2025-09-30T09:22:45Z</time>
      </trkpt>
      <trkpt lat="48.5078" lon="-2.6159">
        <ele>46.8</ele>
        <time>2025-09-30T09:22:52Z</time>
      </trkpt>
      <trkpt lat="48.50758" lon="-2.61563">
        <ele>46</ele>
        <time>2025-09-30T09:22:56Z</time>
      </trkpt>
      <trkpt lat="48.50748" lon="-2.61553">
        <ele>45.6</ele>
        <time>2025-09-30T09:22:58Z</time>
      </trkpt>
      <trkpt lat="48.50744" lon="-2.61549">
        <ele>45</ele>
        <time>2025-09-30T09:22:59Z</time>
      </trkpt>
      <trkpt lat="48.50743" lon="-2.61545">
        <ele>44.4</ele>
        <time>2025-09-30T09:23:00Z</time>
      </trkpt>
      <trkpt lat="48.50735" lon="-2.61526">
        <ele>43.6</ele>
        <time>2025-09-30T09:23:04Z</time>
      </trkpt>
      <trkpt lat="48.50724" lon="-2.61515">
        <ele>43.4</ele>
        <time>2025-09-30T09:23:08Z</time>
      </trkpt>
      <trkpt lat="48.50723" lon="-2.6151">
        <ele>43.6</ele>
        <time>2025-09-30T09:23:09Z</time>
      </trkpt>
      <trkpt lat="48.50715" lon="-2.61482">
        <ele>43.8</ele>
        <time>2025-09-30T09:23:14Z</time>
      </trkpt>
      <trkpt lat="48.50712" lon="-2.61464">
        <ele>44</ele>
        <time>2025-09-30T09:23:17Z</time>
      </trkpt>
      <trkpt lat="48.50711" lon="-2.61458">
        <ele>44</ele>
        <time>2025-09-30T09:23:18Z</time>
      </trkpt>
      <trkpt lat="48.50712" lon="-2.61416">
        <ele>43.8</ele>
        <time>2025-09-30T09:23:25Z</time>
      </trkpt>
      <trkpt lat="48.5072" lon="-2.61372">
        <ele>44.2</ele>
        <time>2025-09-30T09:23:33Z</time>
      </trkpt>
      <trkpt lat="48.50737" lon="-2.61331">
        <ele>44.2</ele>
        <time>2025-09-30T09:23:41Z</time>
      </trkpt>
      <trkpt lat="48.5075" lon="-2.61313">
        <ele>44</ele>
        <time>2025-09-30T09:23:47Z</time>
      </trkpt>
      <trkpt lat="48.5075" lon="-2.61313">
        <ele>43.8</ele>
        <time>2025-09-30T09:23:51Z</time>
      </trkpt>
      <trkpt lat="48.5075" lon="-2.61313">
        <ele>43.6</ele>
        <time>2025-09-30T09:24:02Z</time>
      </trkpt>
      <trkpt lat="48.5075" lon="-2.61313">
        <ele>43.8</ele>
        <time>2025-09-30T09:24:06Z</time>
      </trkpt>
      <trkpt lat="48.50749" lon="-2.61313">
        <ele>43.8</ele>
        <time>2025-09-30T09:24:11Z</time>
      </trkpt>
      <trkpt lat="48.50746" lon="-2.61318">
        <ele>43.8</ele>
        <time>2025-09-30T09:24:16Z</time>
      </trkpt>
      <trkpt lat="48.50745" lon="-2.61321">
        <ele>43.8</ele>
        <time>2025-09-30T09:24:18Z</time>
      </trkpt>
      <trkpt lat="48.50745" lon="-2.61322">
        <ele>43.6</ele>
        <time>2025-09-30T09:24:20Z</time>
      </trkpt>
      <trkpt lat="48.50745" lon="-2.61324">
        <ele>43.6</ele>
        <time>2025-09-30T09:24:39Z</time>
      </trkpt>
      <trkpt lat="48.50745" lon="-2.61324">
        <ele>43.8</ele>
        <time>2025-09-30T09:24:48Z</time>
      </trkpt>
      <trkpt lat="48.50745" lon="-2.61324">
        <ele>43.8</ele>
        <time>2025-09-30T09:24:51Z</time>
      </trkpt>
      <trkpt lat="48.50745" lon="-2.61323">
        <ele>43.8</ele>
        <time>2025-09-30T09:25:00Z</time>
      </trkpt>
      <trkpt lat="48.50745" lon="-2.61322">
        <ele>43.8</ele>
        <time>2025-09-30T09:25:04Z</time>
      </trkpt>
      <trkpt lat="48.50745" lon="-2.6132">
        <ele>43.8</ele>
        <time>2025-09-30T09:25:05Z</time>
      </trkpt>
      <trkpt lat="48.50746" lon="-2.61319">
        <ele>43.8</ele>
        <time>2025-09-30T09:25:06Z</time>
      </trkpt>
      <trkpt lat="48.50747" lon="-2.61318">
        <ele>43.8</ele>
        <time>2025-09-30T09:25:08Z</time>
      </trkpt>
      <trkpt lat="48.5075" lon="-2.61313">
        <ele>43.8</ele>
        <time>2025-09-30T09:25:15Z</time>
      </trkpt>
      <trkpt lat="48.5075" lon="-2.61313">
        <ele>43.8</ele>
        <time>2025-09-30T09:25:24Z</time>
      </trkpt>
      <trkpt lat="48.5075" lon="-2.61313">
        <ele>44.2</ele>
        <time>2025-09-30T09:25:30Z</time>
      </trkpt>
      <trkpt lat="48.5075" lon="-2.61313">
        <ele>44</ele>
        <time>2025-09-30T09:25:40Z</time>
      </trkpt>
      <trkpt lat="48.5075" lon="-2.61313">
        <ele>44</ele>
        <time>2025-09-30T09:25:47Z</time>
      </trkpt>
      <trkpt lat="48.50752" lon="-2.6131">
        <ele>44</ele>
        <time>2025-09-30T09:25:51Z</time>
      </trkpt>
      <trkpt lat="48.50755" lon="-2.61306">
        <ele>44</ele>
        <time>2025-09-30T09:25:53Z</time>
      </trkpt>
      <trkpt lat="48.50774" lon="-2.61289">
        <ele>43.8</ele>
        <time>2025-09-30T09:26:00Z</time>
      </trkpt>
      <trkpt lat="48.50799" lon="-2.61277">
        <ele>43.8</ele>
        <time>2025-09-30T09:26:09Z</time>
      </trkpt>
      <trkpt lat="48.50801" lon="-2.61274">
        <ele>43.6</ele>
        <time>2025-09-30T09:26:11Z</time>
      </trkpt>
      <trkpt lat="48.50802" lon="-2.61271">
        <ele>43.4</ele>
        <time>2025-09-30T09:26:12Z</time>
      </trkpt>
      <trkpt lat="48.50803" lon="-2.61269">
        <ele>43.4</ele>
        <time>2025-09-30T09:26:13Z</time>
      </trkpt>
      <trkpt lat="48.50809" lon="-2.61258">
        <ele>42.4</ele>
        <time>2025-09-30T09:26:18Z</time>
      </trkpt>
      <trkpt lat="48.50811" lon="-2.61255">
        <ele>42.2</ele>
        <time>2025-09-30T09:26:20Z</time>
      </trkpt>
      <trkpt lat="48.50814" lon="-2.61249">
        <ele>41.4</ele>
        <time>2025-09-30T09:26:24Z</time>
      </trkpt>
      <trkpt lat="48.50816" lon="-2.61249">
        <ele>41.4</ele>
        <time>2025-09-30T09:26:26Z</time>
      </trkpt>
      <trkpt lat="48.50821" lon="-2.61247">
        <ele>41.6</ele>
        <time>2025-09-30T09:26:32Z</time>
      </trkpt>
      <trkpt lat="48.5082" lon="-2.61247">
        <ele>41.6</ele>
        <time>2025-09-30T09:26:37Z</time>
      </trkpt>
      <trkpt lat="48.5082" lon="-2.61247">
        <ele>41.6</ele>
        <time>2025-09-30T09:26:43Z</time>
      </trkpt>
      <trkpt lat="48.5082" lon="-2.61247">
        <ele>41.4</ele>
        <time>2025-09-30T09:26:54Z</time>
      </trkpt>
      <trkpt lat="48.50823" lon="-2.61247">
        <ele>41.4</ele>
        <time>2025-09-30T09:27:00Z</time>
      </trkpt>
      <trkpt lat="48.50825" lon="-2.61246">
        <ele>41.8</ele>
        <time>2025-09-30T09:27:02Z</time>
      </trkpt>
      <trkpt lat="48.50826" lon="-2.61246">
        <ele>41.6</ele>
        <time>2025-09-30T09:27:07Z</time>
      </trkpt>
      <trkpt lat="48.50826" lon="-2.61246">
        <ele>41.6</ele>
        <time>2025-09-30T09:27:25Z</time>
      </trkpt>
      <trkpt lat="48.5083" lon="-2.61246">
        <ele>42</ele>
        <time>2025-09-30T09:27:35Z</time>
      </trkpt>
      <trkpt lat="48.50844" lon="-2.61245">
        <ele>42.4</ele>
        <time>2025-09-30T09:27:40Z</time>
      </trkpt>
      <trkpt lat="48.50847" lon="-2.61244">
        <ele>42.4</ele>
        <time>2025-09-30T09:27:41Z</time>
      </trkpt>
      <trkpt lat="48.5086" lon="-2.61243">
        <ele>42.8</ele>
        <time>2025-09-30T09:27:45Z</time>
      </trkpt>
      <trkpt lat="48.50882" lon="-2.61244">
        <ele>43.2</ele>
        <time>2025-09-30T09:27:52Z</time>
      </trkpt>
      <trkpt lat="48.50906" lon="-2.61244">
        <ele>43.2</ele>
        <time>2025-09-30T09:27:59Z</time>
      </trkpt>
      <trkpt lat="48.5091" lon="-2.61244">
        <ele>43.2</ele>
        <time>2025-09-30T09:28:00Z</time>
      </trkpt>
      <trkpt lat="48.50927" lon="-2.6124">
        <ele>43.2</ele>
        <time>2025-09-30T09:28:05Z</time>
      </trkpt>
      <trkpt lat="48.50934" lon="-2.61234">
        <ele>43.4</ele>
        <time>2025-09-30T09:28:07Z</time>
      </trkpt>
      <trkpt lat="48.5094" lon="-2.61227">
        <ele>43.6</ele>
        <time>2025-09-30T09:28:09Z</time>
      </trkpt>
      <trkpt lat="48.50958" lon="-2.61202">
        <ele>44.2</ele>
        <time>2025-09-30T09:28:15Z</time>
      </trkpt>
      <trkpt lat="48.50964" lon="-2.61192">
        <ele>44.6</ele>
        <time>2025-09-30T09:28:17Z</time>
      </trkpt>
      <trkpt lat="48.50984" lon="-2.61163">
        <ele>45.6</ele>
        <time>2025-09-30T09:28:23Z</time>
      </trkpt>
      <trkpt lat="48.50998" lon="-2.61142">
        <ele>46.8</ele>
        <time>2025-09-30T09:28:28Z</time>
      </trkpt>
      <trkpt lat="48.51008" lon="-2.61131">
        <ele>47.2</ele>
        <time>2025-09-30T09:28:32Z</time>
      </trkpt>
      <trkpt lat="48.51015" lon="-2.61129">
        <ele>47.8</ele>
        <time>2025-09-30T09:28:35Z</time>
      </trkpt>
      <trkpt lat="48.51018" lon="-2.6113">
        <ele>47.8</ele>
        <time>2025-09-30T09:28:36Z</time>
      </trkpt>
      <trkpt lat="48.51039" lon="-2.61144">
        <ele>48.4</ele>
        <time>2025-09-30T09:28:41Z</time>
      </trkpt>
      <trkpt lat="48.51053" lon="-2.61151">
        <ele>48.8</ele>
        <time>2025-09-30T09:28:44Z</time>
      </trkpt>
      <trkpt lat="48.51071" lon="-2.61158">
        <ele>49.6</ele>
        <time>2025-09-30T09:28:48Z</time>
      </trkpt>
      <trkpt lat="48.5108" lon="-2.61162">
        <ele>50</ele>
        <time>2025-09-30T09:28:50Z</time>
      </trkpt>
      <trkpt lat="48.5111" lon="-2.61171">
        <ele>50.4</ele>
        <time>2025-09-30T09:28:56Z</time>
      </trkpt>
      <trkpt lat="48.51149" lon="-2.61184">
        <ele>50</ele>
        <time>2025-09-30T09:29:03Z</time>
      </trkpt>
      <trkpt lat="48.51208" lon="-2.61199">
        <ele>49.8</ele>
        <time>2025-09-30T09:29:13Z</time>
      </trkpt>
      <trkpt lat="48.51263" lon="-2.61207">
        <ele>49.6</ele>
        <time>2025-09-30T09:29:22Z</time>
      </trkpt>
      <trkpt lat="48.51275" lon="-2.61209">
        <ele>49.4</ele>
        <time>2025-09-30T09:29:24Z</time>
      </trkpt>
      <trkpt lat="48.51323" lon="-2.61223">
        <ele>49.4</ele>
        <time>2025-09-30T09:29:32Z</time>
      </trkpt>
      <trkpt lat="48.51371" lon="-2.61229">
        <ele>49.2</ele>
        <time>2025-09-30T09:29:40Z</time>
      </trkpt>
      <trkpt lat="48.51412" lon="-2.61219">
        <ele>50.4</ele>
        <time>2025-09-30T09:29:47Z</time>
      </trkpt>
      <trkpt lat="48.5143" lon="-2.61214">
        <ele>51</ele>
        <time>2025-09-30T09:29:50Z</time>
      </trkpt>
      <trkpt lat="48.51447" lon="-2.61214">
        <ele>51.8</ele>
        <time>2025-09-30T09:29:53Z</time>
      </trkpt>
      <trkpt lat="48.51459" lon="-2.61214">
        <ele>52.4</ele>
        <time>2025-09-30T09:29:55Z</time>
      </trkpt>
      <trkpt lat="48.51483" lon="-2.61216">
        <ele>53.4</ele>
        <time>2025-09-30T09:29:59Z</time>
      </trkpt>
      <trkpt lat="48.51494" lon="-2.61217">
        <ele>54.2</ele>
        <time>2025-09-30T09:30:01Z</time>
      </trkpt>
      <trkpt lat="48.51506" lon="-2.61217">
        <ele>54.8</ele>
        <time>2025-09-30T09:30:03Z</time>
      </trkpt>
      <trkpt lat="48.51524" lon="-2.61218">
        <ele>56</ele>
        <time>2025-09-30T09:30:06Z</time>
      </trkpt>
      <trkpt lat="48.5154" lon="-2.6122">
        <ele>57.2</ele>
        <time>2025-09-30T09:30:09Z</time>
      </trkpt>
      <trkpt lat="48.51557" lon="-2.61222">
        <ele>58.6</ele>
        <time>2025-09-30T09:30:12Z</time>
      </trkpt>
      <trkpt lat="48.5158" lon="-2.61225">
        <ele>60.2</ele>
        <time>2025-09-30T09:30:16Z</time>
      </trkpt>
      <trkpt lat="48.51592" lon="-2.61227">
        <ele>60.8</ele>
        <time>2025-09-30T09:30:18Z</time>
      </trkpt>
      <trkpt lat="48.51599" lon="-2.61228">
        <ele>61.2</ele>
        <time>2025-09-30T09:30:19Z</time>
      </trkpt>
      <trkpt lat="48.51622" lon="-2.61231">
        <ele>62.2</ele>
        <time>2025-09-30T09:30:23Z</time>
      </trkpt>
      <trkpt lat="48.51628" lon="-2.61232">
        <ele>62.6</ele>
        <time>2025-09-30T09:30:24Z</time>
      </trkpt>
      <trkpt lat="48.5165" lon="-2.61237">
        <ele>63.6</ele>
        <time>2025-09-30T09:30:28Z</time>
      </trkpt>
      <trkpt lat="48.51691" lon="-2.61254">
        <ele>64</ele>
        <time>2025-09-30T09:30:36Z</time>
      </trkpt>
      <trkpt lat="48.51712" lon="-2.61261">
        <ele>63.8</ele>
        <time>2025-09-30T09:30:40Z</time>
      </trkpt>
      <trkpt lat="48.51729" lon="-2.61263">
        <ele>63.4</ele>
        <time>2025-09-30T09:30:43Z</time>
      </trkpt>
      <trkpt lat="48.51757" lon="-2.61254">
        <ele>63.4</ele>
        <time>2025-09-30T09:30:48Z</time>
      </trkpt>
      <trkpt lat="48.51762" lon="-2.61251">
        <ele>63.4</ele>
        <time>2025-09-30T09:30:49Z</time>
      </trkpt>
      <trkpt lat="48.51787" lon="-2.61231">
        <ele>63.6</ele>
        <time>2025-09-30T09:30:54Z</time>
      </trkpt>
      <trkpt lat="48.51835" lon="-2.61189">
        <ele>64.6</ele>
        <time>2025-09-30T09:31:04Z</time>
      </trkpt>
      <trkpt lat="48.51839" lon="-2.61185">
        <ele>64.6</ele>
        <time>2025-09-30T09:31:05Z</time>
      </trkpt>
      <trkpt lat="48.51862" lon="-2.61165">
        <ele>65.8</ele>
        <time>2025-09-30T09:31:10Z</time>
      </trkpt>
      <trkpt lat="48.5188" lon="-2.61149">
        <ele>67</ele>
        <time>2025-09-30T09:31:14Z</time>
      </trkpt>
      <trkpt lat="48.51885" lon="-2.61145">
        <ele>67</ele>
        <time>2025-09-30T09:31:15Z</time>
      </trkpt>
      <trkpt lat="48.51898" lon="-2.61133">
        <ele>67.4</ele>
        <time>2025-09-30T09:31:18Z</time>
      </trkpt>
      <trkpt lat="48.51927" lon="-2.6111">
        <ele>68</ele>
        <time>2025-09-30T09:31:24Z</time>
      </trkpt>
      <trkpt lat="48.51963" lon="-2.61082">
        <ele>69.2</ele>
        <time>2025-09-30T09:31:32Z</time>
      </trkpt>
      <trkpt lat="48.51972" lon="-2.61076">
        <ele>69.6</ele>
        <time>2025-09-30T09:31:34Z</time>
      </trkpt>
      <trkpt lat="48.5199" lon="-2.61063">
        <ele>70.2</ele>
        <time>2025-09-30T09:31:38Z</time>
      </trkpt>
      <trkpt lat="48.5201" lon="-2.61048">
        <ele>70.6</ele>
        <time>2025-09-30T09:31:43Z</time>
      </trkpt>
      <trkpt lat="48.52052" lon="-2.61014">
        <ele>70.4</ele>
        <time>2025-09-30T09:31:53Z</time>
      </trkpt>
      <trkpt lat="48.52065" lon="-2.61004">
        <ele>70.6</ele>
        <time>2025-09-30T09:31:56Z</time>
      </trkpt>
      <trkpt lat="48.52105" lon="-2.60972">
        <ele>70.8</ele>
        <time>2025-09-30T09:32:05Z</time>
      </trkpt>
      <trkpt lat="48.52118" lon="-2.6096">
        <ele>70.8</ele>
        <time>2025-09-30T09:32:08Z</time>
      </trkpt>
      <trkpt lat="48.52136" lon="-2.60939">
        <ele>70.8</ele>
        <time>2025-09-30T09:32:13Z</time>
      </trkpt>
      <trkpt lat="48.5214" lon="-2.60934">
        <ele>70.8</ele>
        <time>2025-09-30T09:32:14Z</time>
      </trkpt>
      <trkpt lat="48.52148" lon="-2.60925">
        <ele>70.8</ele>
        <time>2025-09-30T09:32:16Z</time>
      </trkpt>
      <trkpt lat="48.52157" lon="-2.60918">
        <ele>71</ele>
        <time>2025-09-30T09:32:18Z</time>
      </trkpt>
      <trkpt lat="48.52161" lon="-2.60916">
        <ele>71</ele>
        <time>2025-09-30T09:32:19Z</time>
      </trkpt>
      <trkpt lat="48.52171" lon="-2.60912">
        <ele>71.2</ele>
        <time>2025-09-30T09:32:21Z</time>
      </trkpt>
      <trkpt lat="48.52194" lon="-2.60909">
        <ele>72</ele>
        <time>2025-09-30T09:32:26Z</time>
      </trkpt>
      <trkpt lat="48.52199" lon="-2.60909">
        <ele>72.2</ele>
        <time>2025-09-30T09:32:27Z</time>
      </trkpt>
      <trkpt lat="48.52222" lon="-2.60906">
        <ele>73</ele>
        <time>2025-09-30T09:32:33Z</time>
      </trkpt>
      <trkpt lat="48.52225" lon="-2.60905">
        <ele>73.2</ele>
        <time>2025-09-30T09:32:34Z</time>
      </trkpt>
      <trkpt lat="48.52236" lon="-2.60904">
        <ele>73.6</ele>
        <time>2025-09-30T09:32:38Z</time>
      </trkpt>
      <trkpt lat="48.5225" lon="-2.60898">
        <ele>74</ele>
        <time>2025-09-30T09:32:43Z</time>
      </trkpt>
      <trkpt lat="48.52267" lon="-2.60892">
        <ele>74</ele>
        <time>2025-09-30T09:32:49Z</time>
      </trkpt>
      <trkpt lat="48.52285" lon="-2.60899">
        <ele>73.4</ele>
        <time>2025-09-30T09:32:55Z</time>
      </trkpt>
      <trkpt lat="48.52299" lon="-2.60907">
        <ele>72.8</ele>
        <time>2025-09-30T09:32:59Z</time>
      </trkpt>
      <trkpt lat="48.52303" lon="-2.60907">
        <ele>72.6</ele>
        <time>2025-09-30T09:33:00Z</time>
      </trkpt>
      <trkpt lat="48.52313" lon="-2.60907">
        <ele>72</ele>
        <time>2025-09-30T09:33:02Z</time>
      </trkpt>
      <trkpt lat="48.52338" lon="-2.60907">
        <ele>71</ele>
        <time>2025-09-30T09:33:06Z</time>
      </trkpt>
      <trkpt lat="48.52344" lon="-2.60907">
        <ele>70.8</ele>
        <time>2025-09-30T09:33:07Z</time>
      </trkpt>
      <trkpt lat="48.52367" lon="-2.60908">
        <ele>69.6</ele>
        <time>2025-09-30T09:33:10Z</time>
      </trkpt>
      <trkpt lat="48.52383" lon="-2.60909">
        <ele>68.6</ele>
        <time>2025-09-30T09:33:12Z</time>
      </trkpt>
      <trkpt lat="48.52425" lon="-2.60912">
        <ele>67.4</ele>
        <time>2025-09-30T09:33:17Z</time>
      </trkpt>
      <trkpt lat="48.52442" lon="-2.60914">
        <ele>66.6</ele>
        <time>2025-09-30T09:33:19Z</time>
      </trkpt>
      <trkpt lat="48.52466" lon="-2.60915">
        <ele>66.2</ele>
        <time>2025-09-30T09:33:22Z</time>
      </trkpt>
      <trkpt lat="48.52486" lon="-2.60912">
        <ele>66.2</ele>
        <time>2025-09-30T09:33:25Z</time>
      </trkpt>
      <trkpt lat="48.52498" lon="-2.60907">
        <ele>66.4</ele>
        <time>2025-09-30T09:33:27Z</time>
      </trkpt>
      <trkpt lat="48.52514" lon="-2.60895">
        <ele>66.8</ele>
        <time>2025-09-30T09:33:30Z</time>
      </trkpt>
      <trkpt lat="48.52534" lon="-2.60882">
        <ele>67.2</ele>
        <time>2025-09-30T09:33:34Z</time>
      </trkpt>
      <trkpt lat="48.52553" lon="-2.60869">
        <ele>67.8</ele>
        <time>2025-09-30T09:33:38Z</time>
      </trkpt>
      <trkpt lat="48.52563" lon="-2.60862">
        <ele>68.2</ele>
        <time>2025-09-30T09:33:40Z</time>
      </trkpt>
      <trkpt lat="48.52572" lon="-2.60853">
        <ele>68.4</ele>
        <time>2025-09-30T09:33:42Z</time>
      </trkpt>
      <trkpt lat="48.5258" lon="-2.60845">
        <ele>68.6</ele>
        <time>2025-09-30T09:33:44Z</time>
      </trkpt>
      <trkpt lat="48.52593" lon="-2.60832">
        <ele>69.2</ele>
        <time>2025-09-30T09:33:47Z</time>
      </trkpt>
      <trkpt lat="48.52601" lon="-2.60824">
        <ele>69.6</ele>
        <time>2025-09-30T09:33:49Z</time>
      </trkpt>
      <trkpt lat="48.52616" lon="-2.60807">
        <ele>70.6</ele>
        <time>2025-09-30T09:33:53Z</time>
      </trkpt>
      <trkpt lat="48.5262" lon="-2.60803">
        <ele>70.6</ele>
        <time>2025-09-30T09:33:54Z</time>
      </trkpt>
      <trkpt lat="48.52639" lon="-2.60782">
        <ele>71.8</ele>
        <time>2025-09-30T09:33:59Z</time>
      </trkpt>
      <trkpt lat="48.52659" lon="-2.60761">
        <ele>73</ele>
        <time>2025-09-30T09:34:04Z</time>
      </trkpt>
      <trkpt lat="48.52675" lon="-2.60745">
        <ele>74.2</ele>
        <time>2025-09-30T09:34:08Z</time>
      </trkpt>
      <trkpt lat="48.52698" lon="-2.60718">
        <ele>75.4</ele>
        <time>2025-09-30T09:34:14Z</time>
      </trkpt>
      <trkpt lat="48.52718" lon="-2.60695">
        <ele>76.6</ele>
        <time>2025-09-30T09:34:19Z</time>
      </trkpt>
      <trkpt lat="48.5274" lon="-2.60669">
        <ele>77</ele>
        <time>2025-09-30T09:34:25Z</time>
      </trkpt>
      <trkpt lat="48.52744" lon="-2.60665">
        <ele>77.2</ele>
        <time>2025-09-30T09:34:26Z</time>
      </trkpt>
      <trkpt lat="48.52762" lon="-2.60644">
        <ele>77.6</ele>
        <time>2025-09-30T09:34:31Z</time>
      </trkpt>
      <trkpt lat="48.52775" lon="-2.60628">
        <ele>78</ele>
        <time>2025-09-30T09:34:35Z</time>
      </trkpt>
      <trkpt lat="48.5279" lon="-2.60614">
        <ele>78.8</ele>
        <time>2025-09-30T09:34:39Z</time>
      </trkpt>
      <trkpt lat="48.52806" lon="-2.60602">
        <ele>79.4</ele>
        <time>2025-09-30T09:34:43Z</time>
      </trkpt>
      <trkpt lat="48.52815" lon="-2.60596">
        <ele>79.8</ele>
        <time>2025-09-30T09:34:45Z</time>
      </trkpt>
      <trkpt lat="48.52836" lon="-2.60587">
        <ele>81</ele>
        <time>2025-09-30T09:34:50Z</time>
      </trkpt>
      <trkpt lat="48.52849" lon="-2.60581">
        <ele>81.6</ele>
        <time>2025-09-30T09:34:53Z</time>
      </trkpt>
      <trkpt lat="48.52858" lon="-2.60578">
        <ele>82.2</ele>
        <time>2025-09-30T09:34:55Z</time>
      </trkpt>
      <trkpt lat="48.52896" lon="-2.60567">
        <ele>83.2</ele>
        <time>2025-09-30T09:35:04Z</time>
      </trkpt>
      <trkpt lat="48.529" lon="-2.60565">
        <ele>83.4</ele>
        <time>2025-09-30T09:35:05Z</time>
      </trkpt>
      <trkpt lat="48.52929" lon="-2.60555">
        <ele>84.2</ele>
        <time>2025-09-30T09:35:12Z</time>
      </trkpt>
      <trkpt lat="48.52937" lon="-2.60553">
        <ele>84.4</ele>
        <time>2025-09-30T09:35:14Z</time>
      </trkpt>
      <trkpt lat="48.52969" lon="-2.60543">
        <ele>85.6</ele>
        <time>2025-09-30T09:35:22Z</time>
      </trkpt>
      <trkpt lat="48.52977" lon="-2.6054">
        <ele>85.8</ele>
        <time>2025-09-30T09:35:24Z</time>
      </trkpt>
      <trkpt lat="48.53004" lon="-2.60532">
        <ele>86.8</ele>
        <time>2025-09-30T09:35:31Z</time>
      </trkpt>
      <trkpt lat="48.53019" lon="-2.60526">
        <ele>87.2</ele>
        <time>2025-09-30T09:35:35Z</time>
      </trkpt>
      <trkpt lat="48.53043" lon="-2.60517">
        <ele>87.6</ele>
        <time>2025-09-30T09:35:41Z</time>
      </trkpt>
      <trkpt lat="48.53047" lon="-2.60516">
        <ele>87.8</ele>
        <time>2025-09-30T09:35:42Z</time>
      </trkpt>
      <trkpt lat="48.53055" lon="-2.60512">
        <ele>88</ele>
        <time>2025-09-30T09:35:44Z</time>
      </trkpt>
      <trkpt lat="48.53098" lon="-2.60489">
        <ele>88.6</ele>
        <time>2025-09-30T09:35:55Z</time>
      </trkpt>
      <trkpt lat="48.53142" lon="-2.60461">
        <ele>88.2</ele>
        <time>2025-09-30T09:36:06Z</time>
      </trkpt>
      <trkpt lat="48.53146" lon="-2.60458">
        <ele>88.2</ele>
        <time>2025-09-30T09:36:07Z</time>
      </trkpt>
      <trkpt lat="48.53164" lon="-2.60449">
        <ele>87.6</ele>
        <time>2025-09-30T09:36:11Z</time>
      </trkpt>
      <trkpt lat="48.53172" lon="-2.6045">
        <ele>87.4</ele>
        <time>2025-09-30T09:36:13Z</time>
      </trkpt>
      <trkpt lat="48.53179" lon="-2.60452">
        <ele>87.4</ele>
        <time>2025-09-30T09:36:15Z</time>
      </trkpt>
      <trkpt lat="48.53183" lon="-2.60456">
        <ele>87.4</ele>
        <time>2025-09-30T09:36:17Z</time>
      </trkpt>
      <trkpt lat="48.53193" lon="-2.60466">
        <ele>87.4</ele>
        <time>2025-09-30T09:36:23Z</time>
      </trkpt>
      <trkpt lat="48.53202" lon="-2.6049">
        <ele>87.6</ele>
        <time>2025-09-30T09:36:30Z</time>
      </trkpt>
      <trkpt lat="48.53211" lon="-2.60526">
        <ele>87.6</ele>
        <time>2025-09-30T09:36:37Z</time>
      </trkpt>
      <trkpt lat="48.53225" lon="-2.60547">
        <ele>88</ele>
        <time>2025-09-30T09:36:42Z</time>
      </trkpt>
      <trkpt lat="48.53249" lon="-2.60572">
        <ele>88.2</ele>
        <time>2025-09-30T09:36:49Z</time>
      </trkpt>
      <trkpt lat="48.53266" lon="-2.60597">
        <ele>88.2</ele>
        <time>2025-09-30T09:36:55Z</time>
      </trkpt>
      <trkpt lat="48.53272" lon="-2.60607">
        <ele>88.2</ele>
        <time>2025-09-30T09:36:57Z</time>
      </trkpt>
      <trkpt lat="48.53292" lon="-2.6065">
        <ele>88.6</ele>
        <time>2025-09-30T09:37:06Z</time>
      </trkpt>
      <trkpt lat="48.53308" lon="-2.60692">
        <ele>88.4</ele>
        <time>2025-09-30T09:37:14Z</time>
      </trkpt>
      <trkpt lat="48.53318" lon="-2.60713">
        <ele>88</ele>
        <time>2025-09-30T09:37:18Z</time>
      </trkpt>
      <trkpt lat="48.53326" lon="-2.60732">
        <ele>87.8</ele>
        <time>2025-09-30T09:37:22Z</time>
      </trkpt>
      <trkpt lat="48.53332" lon="-2.60749">
        <ele>87.8</ele>
        <time>2025-09-30T09:37:27Z</time>
      </trkpt>
      <trkpt lat="48.53333" lon="-2.60752">
        <ele>87.8</ele>
        <time>2025-09-30T09:37:31Z</time>
      </trkpt>
      <trkpt lat="48.53333" lon="-2.60752">
        <ele>87.8</ele>
        <time>2025-09-30T09:37:38Z</time>
      </trkpt>
      <trkpt lat="48.53331" lon="-2.60751">
        <ele>87.6</ele>
        <time>2025-09-30T09:37:47Z</time>
      </trkpt>
      <trkpt lat="48.53331" lon="-2.60751">
        <ele>87.6</ele>
        <time>2025-09-30T09:37:50Z</time>
      </trkpt>
      <trkpt lat="48.53331" lon="-2.6075">
        <ele>87.6</ele>
        <time>2025-09-30T09:37:51Z</time>
      </trkpt>
      <trkpt lat="48.53331" lon="-2.60751">
        <ele>87.6</ele>
        <time>2025-09-30T09:37:52Z</time>
      </trkpt>
      <trkpt lat="48.53332" lon="-2.6075">
        <ele>87.8</ele>
        <time>2025-09-30T09:37:54Z</time>
      </trkpt>
      <trkpt lat="48.53332" lon="-2.6075">
        <ele>87.6</ele>
        <time>2025-09-30T09:37:59Z</time>
      </trkpt>
      <trkpt lat="48.53334" lon="-2.60753">
        <ele>88</ele>
        <time>2025-09-30T09:38:03Z</time>
      </trkpt>
      <trkpt lat="48.53337" lon="-2.6076">
        <ele>88</ele>
        <time>2025-09-30T09:38:05Z</time>
      </trkpt>
      <trkpt lat="48.53344" lon="-2.60779">
        <ele>88.2</ele>
        <time>2025-09-30T09:38:09Z</time>
      </trkpt>
      <trkpt lat="48.53347" lon="-2.60785">
        <ele>88.2</ele>
        <time>2025-09-30T09:38:10Z</time>
      </trkpt>
      <trkpt lat="48.5336" lon="-2.60808">
        <ele>88.4</ele>
        <time>2025-09-30T09:38:16Z</time>
      </trkpt>
      <trkpt lat="48.53379" lon="-2.60835">
        <ele>88.4</ele>
        <time>2025-09-30T09:38:23Z</time>
      </trkpt>
      <trkpt lat="48.53397" lon="-2.60857">
        <ele>88</ele>
        <time>2025-09-30T09:38:30Z</time>
      </trkpt>
      <trkpt lat="48.53402" lon="-2.60863">
        <ele>87.4</ele>
        <time>2025-09-30T09:38:35Z</time>
      </trkpt>
      <trkpt lat="48.53401" lon="-2.60862">
        <ele>87.4</ele>
        <time>2025-09-30T09:38:43Z</time>
      </trkpt>
      <trkpt lat="48.53399" lon="-2.60862">
        <ele>87.4</ele>
        <time>2025-09-30T09:38:50Z</time>
      </trkpt>
      <trkpt lat="48.53399" lon="-2.60864">
        <ele>87.4</ele>
        <time>2025-09-30T09:38:55Z</time>
      </trkpt>
      <trkpt lat="48.53397" lon="-2.60865">
        <ele>87.4</ele>
        <time>2025-09-30T09:39:03Z</time>
      </trkpt>
      <trkpt lat="48.53397" lon="-2.60865">
        <ele>87.4</ele>
        <time>2025-09-30T09:39:28Z</time>
      </trkpt>
      <trkpt lat="48.53398" lon="-2.60864">
        <ele>87.6</ele>
        <time>2025-09-30T09:39:32Z</time>
      </trkpt>
      <trkpt lat="48.53402" lon="-2.60862">
        <ele>87.4</ele>
        <time>2025-09-30T09:39:40Z</time>
      </trkpt>
      <trkpt lat="48.53403" lon="-2.60862">
        <ele>87.4</ele>
        <time>2025-09-30T09:39:48Z</time>
      </trkpt>
      <trkpt lat="48.53403" lon="-2.60862">
        <ele>87.4</ele>
        <time>2025-09-30T09:39:55Z</time>
      </trkpt>
      <trkpt lat="48.53403" lon="-2.60862">
        <ele>87.4</ele>
        <time>2025-09-30T09:40:01Z</time>
      </trkpt>
      <trkpt lat="48.53403" lon="-2.60862">
        <ele>87.4</ele>
        <time>2025-09-30T09:40:10Z</time>
      </trkpt>
      <trkpt lat="48.53403" lon="-2.60862">
        <ele>87.4</ele>
        <time>2025-09-30T09:40:12Z</time>
      </trkpt>
      <trkpt lat="48.53403" lon="-2.60862">
        <ele>87.4</ele>
        <time>2025-09-30T09:40:13Z</time>
      </trkpt>
      <trkpt lat="48.53403" lon="-2.60862">
        <ele>87.4</ele>
        <time>2025-09-30T09:40:17Z</time>
      </trkpt>
      <trkpt lat="48.53403" lon="-2.60862">
        <ele>87.4</ele>
        <time>2025-09-30T09:40:20Z</time>
      </trkpt>
      <trkpt lat="48.53403" lon="-2.60862">
        <ele>87.4</ele>
        <time>2025-09-30T09:40:26Z</time>
      </trkpt>
      <trkpt lat="48.53403" lon="-2.60862">
        <ele>87.4</ele>
        <time>2025-09-30T09:40:32Z</time>
      </trkpt>
      <trkpt lat="48.53404" lon="-2.60862">
        <ele>87.4</ele>
        <time>2025-09-30T09:40:34Z</time>
      </trkpt>
      <trkpt lat="48.53404" lon="-2.60863">
        <ele>87.4</ele>
        <time>2025-09-30T09:40:36Z</time>
      </trkpt>
      <trkpt lat="48.53404" lon="-2.60863">
        <ele>87.4</ele>
        <time>2025-09-30T09:40:40Z</time>
      </trkpt>
      <trkpt lat="48.53405" lon="-2.60863">
        <ele>87.4</ele>
        <time>2025-09-30T09:40:43Z</time>
      </trkpt>
      <trkpt lat="48.53404" lon="-2.60864">
        <ele>87.4</ele>
        <time>2025-09-30T09:40:48Z</time>
      </trkpt>
      <trkpt lat="48.53404" lon="-2.60864">
        <ele>87.4</ele>
        <time>2025-09-30T09:40:52Z</time>
      </trkpt>
      <trkpt lat="48.53404" lon="-2.60863">
        <ele>87.4</ele>
        <time>2025-09-30T09:40:56Z</time>
      </trkpt>
      <trkpt lat="48.53404" lon="-2.60862">
        <ele>87.4</ele>
        <time>2025-09-30T09:40:57Z</time>
      </trkpt>
      <trkpt lat="48.53405" lon="-2.60862">
        <ele>87</ele>
        <time>2025-09-30T09:41:00Z</time>
      </trkpt>
      <trkpt lat="48.53405" lon="-2.60862">
        <ele>86.8</ele>
        <time>2025-09-30T09:41:07Z</time>
      </trkpt>
      <trkpt lat="48.53405" lon="-2.60862">
        <ele>87</ele>
        <time>2025-09-30T09:41:10Z</time>
      </trkpt>
      <trkpt lat="48.53405" lon="-2.60862">
        <ele>87.6</ele>
        <time>2025-09-30T09:41:19Z</time>
      </trkpt>
      <trkpt lat="48.53405" lon="-2.60862">
        <ele>87.6</ele>
        <time>2025-09-30T09:41:22Z</time>
      </trkpt>
      <trkpt lat="48.53404" lon="-2.60863">
        <ele>87.2</ele>
        <time>2025-09-30T09:41:30Z</time>
      </trkpt>
      <trkpt lat="48.53404" lon="-2.60863">
        <ele>87.2</ele>
        <time>2025-09-30T09:41:32Z</time>
      </trkpt>
      <trkpt lat="48.53404" lon="-2.60863">
        <ele>87.2</ele>
        <time>2025-09-30T09:41:34Z</time>
      </trkpt>
      <trkpt lat="48.53404" lon="-2.60863">
        <ele>87.2</ele>
        <time>2025-09-30T09:41:35Z</time>
      </trkpt>
      <trkpt lat="48.53404" lon="-2.60863">
        <ele>87.2</ele>
        <time>2025-09-30T09:41:38Z</time>
      </trkpt>
      <trkpt lat="48.53404" lon="-2.60863">
        <ele>87.6</ele>
        <time>2025-09-30T09:41:43Z</time>
      </trkpt>
      <trkpt lat="48.53404" lon="-2.60863">
        <ele>87.6</ele>
        <time>2025-09-30T09:41:44Z</time>
      </trkpt>
      <trkpt lat="48.53404" lon="-2.60863">
        <ele>87.6</ele>
        <time>2025-09-30T09:41:45Z</time>
      </trkpt>
      <trkpt lat="48.53404" lon="-2.60863">
        <ele>87.6</ele>
        <time>2025-09-30T09:41:48Z</time>
      </trkpt>
      <trkpt lat="48.53404" lon="-2.60863">
        <ele>87.2</ele>
        <time>2025-09-30T09:42:01Z</time>
      </trkpt>
      <trkpt lat="48.53404" lon="-2.60863">
        <ele>87.2</ele>
        <time>2025-09-30T09:42:07Z</time>
      </trkpt>
      <trkpt lat="48.53404" lon="-2.60863">
        <ele>87.2</ele>
        <time>2025-09-30T09:42:10Z</time>
      </trkpt>
      <trkpt lat="48.53404" lon="-2.60863">
        <ele>87.2</ele>
        <time>2025-09-30T09:42:11Z</time>
      </trkpt>
      <trkpt lat="48.53404" lon="-2.60863">
        <ele>87.2</ele>
        <time>2025-09-30T09:42:17Z</time>
      </trkpt>
      <trkpt lat="48.53404" lon="-2.60863">
        <ele>87.2</ele>
        <time>2025-09-30T09:42:23Z</time>
      </trkpt>
      <trkpt lat="48.53404" lon="-2.60863">
        <ele>87.2</ele>
        <time>2025-09-30T09:42:33Z</time>
      </trkpt>
      <trkpt lat="48.53404" lon="-2.60863">
        <ele>87.2</ele>
        <time>2025-09-30T09:42:36Z</time>
      </trkpt>
      <trkpt lat="48.53404" lon="-2.60863">
        <ele>87.2</ele>
        <time>2025-09-30T09:42:41Z</time>
      </trkpt>
      <trkpt lat="48.53404" lon="-2.60863">
        <ele>87.2</ele>
        <time>2025-09-30T09:42:43Z</time>
      </trkpt>
      <trkpt lat="48.53404" lon="-2.60863">
        <ele>87.2</ele>
        <time>2025-09-30T09:42:47Z</time>
      </trkpt>
      <trkpt lat="48.53404" lon="-2.60863">
        <ele>87.2</ele>
        <time>2025-09-30T09:42:51Z</time>
      </trkpt>
      <trkpt lat="48.53405" lon="-2.60864">
        <ele>87.2</ele>
        <time>2025-09-30T09:42:55Z</time>
      </trkpt>
      <trkpt lat="48.53406" lon="-2.60864">
        <ele>87.2</ele>
        <time>2025-09-30T09:43:02Z</time>
      </trkpt>
      <trkpt lat="48.53408" lon="-2.60864">
        <ele>87.2</ele>
        <time>2025-09-30T09:43:07Z</time>
      </trkpt>
      <trkpt lat="48.5341" lon="-2.60865">
        <ele>87.2</ele>
        <time>2025-09-30T09:43:08Z</time>
      </trkpt>
      <trkpt lat="48.53422" lon="-2.60869">
        <ele>86.8</ele>
        <time>2025-09-30T09:43:13Z</time>
      </trkpt>
      <trkpt lat="48.53432" lon="-2.60877">
        <ele>86.8</ele>
        <time>2025-09-30T09:43:17Z</time>
      </trkpt>
      <trkpt lat="48.53436" lon="-2.60882">
        <ele>86.8</ele>
        <time>2025-09-30T09:43:18Z</time>
      </trkpt>
      <trkpt lat="48.53442" lon="-2.60892">
        <ele>87</ele>
        <time>2025-09-30T09:43:21Z</time>
      </trkpt>
      <trkpt lat="48.53447" lon="-2.60907">
        <ele>87</ele>
        <time>2025-09-30T09:43:24Z</time>
      </trkpt>
      <trkpt lat="48.5345" lon="-2.60917">
        <ele>87.2</ele>
        <time>2025-09-30T09:43:26Z</time>
      </trkpt>
      <trkpt lat="48.53458" lon="-2.60942">
        <ele>87.4</ele>
        <time>2025-09-30T09:43:31Z</time>
      </trkpt>
      <trkpt lat="48.53462" lon="-2.60947">
        <ele>87.2</ele>
        <time>2025-09-30T09:43:33Z</time>
      </trkpt>
      <trkpt lat="48.53467" lon="-2.60947">
        <ele>87.2</ele>
        <time>2025-09-30T09:43:35Z</time>
      </trkpt>
      <trkpt lat="48.53476" lon="-2.6093">
        <ele>87.2</ele>
        <time>2025-09-30T09:43:39Z</time>
      </trkpt>
      <trkpt lat="48.53496" lon="-2.60888">
        <ele>87.2</ele>
        <time>2025-09-30T09:43:46Z</time>
      </trkpt>
      <trkpt lat="48.53521" lon="-2.60836">
        <ele>87.8</ele>
        <time>2025-09-30T09:43:55Z</time>
      </trkpt>
      <trkpt lat="48.53524" lon="-2.60831">
        <ele>88</ele>
        <time>2025-09-30T09:43:56Z</time>
      </trkpt>
      <trkpt lat="48.53532" lon="-2.60814">
        <ele>88.4</ele>
        <time>2025-09-30T09:43:59Z</time>
      </trkpt>
      <trkpt lat="48.53547" lon="-2.60783">
        <ele>88.4</ele>
        <time>2025-09-30T09:44:04Z</time>
      </trkpt>
      <trkpt lat="48.53574" lon="-2.60727">
        <ele>87.4</ele>
        <time>2025-09-30T09:44:13Z</time>
      </trkpt>
      <trkpt lat="48.53585" lon="-2.60705">
        <ele>86.8</ele>
        <time>2025-09-30T09:44:16Z</time>
      </trkpt>
      <trkpt lat="48.53593" lon="-2.6069">
        <ele>86.6</ele>
        <time>2025-09-30T09:44:18Z</time>
      </trkpt>
      <trkpt lat="48.53602" lon="-2.60674">
        <ele>86.2</ele>
        <time>2025-09-30T09:44:20Z</time>
      </trkpt>
      <trkpt lat="48.5361" lon="-2.60657">
        <ele>85.8</ele>
        <time>2025-09-30T09:44:22Z</time>
      </trkpt>
      <trkpt lat="48.53631" lon="-2.60615">
        <ele>84.4</ele>
        <time>2025-09-30T09:44:27Z</time>
      </trkpt>
      <trkpt lat="48.53641" lon="-2.60596">
        <ele>83.8</ele>
        <time>2025-09-30T09:44:29Z</time>
      </trkpt>
      <trkpt lat="48.53654" lon="-2.60568">
        <ele>83.4</ele>
        <time>2025-09-30T09:44:32Z</time>
      </trkpt>
      <trkpt lat="48.53679" lon="-2.60511">
        <ele>82</ele>
        <time>2025-09-30T09:44:38Z</time>
      </trkpt>
      <trkpt lat="48.53692" lon="-2.60472">
        <ele>80.8</ele>
        <time>2025-09-30T09:44:42Z</time>
      </trkpt>
      <trkpt lat="48.53707" lon="-2.60417">
        <ele>79.8</ele>
        <time>2025-09-30T09:44:47Z</time>
      </trkpt>
      <trkpt lat="48.53729" lon="-2.60346">
        <ele>78.6</ele>
        <time>2025-09-30T09:44:54Z</time>
      </trkpt>
      <trkpt lat="48.53736" lon="-2.60327">
        <ele>78.2</ele>
        <time>2025-09-30T09:44:56Z</time>
      </trkpt>
      <trkpt lat="48.53748" lon="-2.60292">
        <ele>77</ele>
        <time>2025-09-30T09:45:00Z</time>
      </trkpt>
      <trkpt lat="48.53766" lon="-2.60243">
        <ele>75.8</ele>
        <time>2025-09-30T09:45:05Z</time>
      </trkpt>
      <trkpt lat="48.53774" lon="-2.60224">
        <ele>75.4</ele>
        <time>2025-09-30T09:45:07Z</time>
      </trkpt>
      <trkpt lat="48.53779" lon="-2.60215">
        <ele>74.8</ele>
        <time>2025-09-30T09:45:08Z</time>
      </trkpt>
      <trkpt lat="48.53799" lon="-2.60177">
        <ele>73.6</ele>
        <time>2025-09-30T09:45:12Z</time>
      </trkpt>
      <trkpt lat="48.53814" lon="-2.60148">
        <ele>72.6</ele>
        <time>2025-09-30T09:45:15Z</time>
      </trkpt>
      <trkpt lat="48.53835" lon="-2.60108">
        <ele>71.4</ele>
        <time>2025-09-30T09:45:19Z</time>
      </trkpt>
      <trkpt lat="48.53859" lon="-2.6007">
        <ele>70.4</ele>
        <time>2025-09-30T09:45:23Z</time>
      </trkpt>
      <trkpt lat="48.53865" lon="-2.60059">
        <ele>70</ele>
        <time>2025-09-30T09:45:24Z</time>
      </trkpt>
      <trkpt lat="48.53877" lon="-2.60042">
        <ele>69</ele>
        <time>2025-09-30T09:45:26Z</time>
      </trkpt>
      <trkpt lat="48.53903" lon="-2.59999">
        <ele>68</ele>
        <time>2025-09-30T09:45:30Z</time>
      </trkpt>
      <trkpt lat="48.5391" lon="-2.59988">
        <ele>67.4</ele>
        <time>2025-09-30T09:45:31Z</time>
      </trkpt>
      <trkpt lat="48.53916" lon="-2.59977">
        <ele>67</ele>
        <time>2025-09-30T09:45:32Z</time>
      </trkpt>
      <trkpt lat="48.5393" lon="-2.59954">
        <ele>65.4</ele>
        <time>2025-09-30T09:45:34Z</time>
      </trkpt>
      <trkpt lat="48.53951" lon="-2.59919">
        <ele>63.6</ele>
        <time>2025-09-30T09:45:37Z</time>
      </trkpt>
      <trkpt lat="48.53958" lon="-2.59906">
        <ele>63</ele>
        <time>2025-09-30T09:45:38Z</time>
      </trkpt>
      <trkpt lat="48.53965" lon="-2.59894">
        <ele>62.6</ele>
        <time>2025-09-30T09:45:39Z</time>
      </trkpt>
      <trkpt lat="48.53986" lon="-2.59857">
        <ele>60.6</ele>
        <time>2025-09-30T09:45:42Z</time>
      </trkpt>
      <trkpt lat="48.54007" lon="-2.59819">
        <ele>58.6</ele>
        <time>2025-09-30T09:45:45Z</time>
      </trkpt>
      <trkpt lat="48.54014" lon="-2.59807">
        <ele>58</ele>
        <time>2025-09-30T09:45:46Z</time>
      </trkpt>
      <trkpt lat="48.54027" lon="-2.59783">
        <ele>57</ele>
        <time>2025-09-30T09:45:48Z</time>
      </trkpt>
      <trkpt lat="48.5405" lon="-2.59743">
        <ele>55.6</ele>
        <time>2025-09-30T09:45:52Z</time>
      </trkpt>
      <trkpt lat="48.54063" lon="-2.59719">
        <ele>54.6</ele>
        <time>2025-09-30T09:45:55Z</time>
      </trkpt>
      <trkpt lat="48.54066" lon="-2.59713">
        <ele>54.2</ele>
        <time>2025-09-30T09:45:56Z</time>
      </trkpt>
      <trkpt lat="48.54088" lon="-2.59676">
        <ele>53.4</ele>
        <time>2025-09-30T09:46:02Z</time>
      </trkpt>
      <trkpt lat="48.54125" lon="-2.59612">
        <ele>52.6</ele>
        <time>2025-09-30T09:46:11Z</time>
      </trkpt>
      <trkpt lat="48.5413" lon="-2.59605">
        <ele>52.6</ele>
        <time>2025-09-30T09:46:12Z</time>
      </trkpt>
      <trkpt lat="48.54134" lon="-2.59596">
        <ele>52.2</ele>
        <time>2025-09-30T09:46:13Z</time>
      </trkpt>
      <trkpt lat="48.54145" lon="-2.59578">
        <ele>52</ele>
        <time>2025-09-30T09:46:16Z</time>
      </trkpt>
      <trkpt lat="48.54146" lon="-2.59572">
        <ele>51.8</ele>
        <time>2025-09-30T09:46:17Z</time>
      </trkpt>
      <trkpt lat="48.54147" lon="-2.59566">
        <ele>51.6</ele>
        <time>2025-09-30T09:46:18Z</time>
      </trkpt>
      <trkpt lat="48.54146" lon="-2.59553">
        <ele>51.4</ele>
        <time>2025-09-30T09:46:21Z</time>
      </trkpt>
      <trkpt lat="48.54146" lon="-2.59523">
        <ele>51.4</ele>
        <time>2025-09-30T09:46:26Z</time>
      </trkpt>
      <trkpt lat="48.54153" lon="-2.59498">
        <ele>51.2</ele>
        <time>2025-09-30T09:46:32Z</time>
      </trkpt>
      <trkpt lat="48.54157" lon="-2.59487">
        <ele>51.2</ele>
        <time>2025-09-30T09:46:36Z</time>
      </trkpt>
      <trkpt lat="48.54158" lon="-2.59484">
        <ele>51.2</ele>
        <time>2025-09-30T09:46:37Z</time>
      </trkpt>
      <trkpt lat="48.54159" lon="-2.59482">
        <ele>51.2</ele>
        <time>2025-09-30T09:46:38Z</time>
      </trkpt>
      <trkpt lat="48.54159" lon="-2.59477">
        <ele>51</ele>
        <time>2025-09-30T09:46:42Z</time>
      </trkpt>
      <trkpt lat="48.54159" lon="-2.59477">
        <ele>51</ele>
        <time>2025-09-30T09:46:49Z</time>
      </trkpt>
      <trkpt lat="48.54159" lon="-2.59477">
        <ele>51</ele>
        <time>2025-09-30T09:46:55Z</time>
      </trkpt>
      <trkpt lat="48.54159" lon="-2.59479">
        <ele>50.8</ele>
        <time>2025-09-30T09:47:12Z</time>
      </trkpt>
      <trkpt lat="48.54159" lon="-2.59482">
        <ele>51</ele>
        <time>2025-09-30T09:47:14Z</time>
      </trkpt>
      <trkpt lat="48.54155" lon="-2.59493">
        <ele>51.2</ele>
        <time>2025-09-30T09:47:17Z</time>
      </trkpt>
      <trkpt lat="48.5415" lon="-2.59504">
        <ele>51.2</ele>
        <time>2025-09-30T09:47:19Z</time>
      </trkpt>
      <trkpt lat="48.54146" lon="-2.59515">
        <ele>51.4</ele>
        <time>2025-09-30T09:47:21Z</time>
      </trkpt>
      <trkpt lat="48.54145" lon="-2.59519">
        <ele>51.4</ele>
        <time>2025-09-30T09:47:22Z</time>
      </trkpt>
      <trkpt lat="48.54144" lon="-2.59525">
        <ele>51.2</ele>
        <time>2025-09-30T09:47:24Z</time>
      </trkpt>
      <trkpt lat="48.54144" lon="-2.59525">
        <ele>51</ele>
        <time>2025-09-30T09:47:26Z</time>
      </trkpt>
      <trkpt lat="48.54144" lon="-2.59522">
        <ele>51</ele>
        <time>2025-09-30T09:47:29Z</time>
      </trkpt>
      <trkpt lat="48.54146" lon="-2.59514">
        <ele>51.4</ele>
        <time>2025-09-30T09:47:31Z</time>
      </trkpt>
      <trkpt lat="48.54147" lon="-2.59509">
        <ele>51.4</ele>
        <time>2025-09-30T09:47:32Z</time>
      </trkpt>
      <trkpt lat="48.54149" lon="-2.59503">
        <ele>51.4</ele>
        <time>2025-09-30T09:47:33Z</time>
      </trkpt>
      <trkpt lat="48.54154" lon="-2.59489">
        <ele>51.4</ele>
        <time>2025-09-30T09:47:35Z</time>
      </trkpt>
      <trkpt lat="48.5417" lon="-2.59441">
        <ele>51.6</ele>
        <time>2025-09-30T09:47:42Z</time>
      </trkpt>
      <trkpt lat="48.54175" lon="-2.59426">
        <ele>51.8</ele>
        <time>2025-09-30T09:47:44Z</time>
      </trkpt>
      <trkpt lat="48.54188" lon="-2.59388">
        <ele>52.2</ele>
        <time>2025-09-30T09:47:49Z</time>
      </trkpt>
      <trkpt lat="48.54199" lon="-2.59361">
        <ele>53</ele>
        <time>2025-09-30T09:47:53Z</time>
      </trkpt>
      <trkpt lat="48.54204" lon="-2.59348">
        <ele>53.2</ele>
        <time>2025-09-30T09:47:55Z</time>
      </trkpt>
      <trkpt lat="48.54206" lon="-2.59342">
        <ele>53.4</ele>
        <time>2025-09-30T09:47:56Z</time>
      </trkpt>
      <trkpt lat="48.54212" lon="-2.59325">
        <ele>53.8</ele>
        <time>2025-09-30T09:47:59Z</time>
      </trkpt>
      <trkpt lat="48.54215" lon="-2.59315">
        <ele>54.4</ele>
        <time>2025-09-30T09:48:01Z</time>
      </trkpt>
      <trkpt lat="48.54217" lon="-2.59309">
        <ele>54.8</ele>
        <time>2025-09-30T09:48:02Z</time>
      </trkpt>
      <trkpt lat="48.54222" lon="-2.59298">
        <ele>55.6</ele>
        <time>2025-09-30T09:48:04Z</time>
      </trkpt>
      <trkpt lat="48.54228" lon="-2.59285">
        <ele>55.8</ele>
        <time>2025-09-30T09:48:06Z</time>
      </trkpt>
      <trkpt lat="48.54234" lon="-2.59272">
        <ele>56.2</ele>
        <time>2025-09-30T09:48:08Z</time>
      </trkpt>
      <trkpt lat="48.54241" lon="-2.59255">
        <ele>56.6</ele>
        <time>2025-09-30T09:48:11Z</time>
      </trkpt>
      <trkpt lat="48.54243" lon="-2.59251">
        <ele>56.8</ele>
        <time>2025-09-30T09:48:12Z</time>
      </trkpt>
      <trkpt lat="48.54249" lon="-2.59247">
        <ele>57</ele>
        <time>2025-09-30T09:48:14Z</time>
      </trkpt>
      <trkpt lat="48.54252" lon="-2.59247">
        <ele>57</ele>
        <time>2025-09-30T09:48:15Z</time>
      </trkpt>
      <trkpt lat="48.54263" lon="-2.59264">
        <ele>56.6</ele>
        <time>2025-09-30T09:48:19Z</time>
      </trkpt>
      <trkpt lat="48.5428" lon="-2.59294">
        <ele>55.6</ele>
        <time>2025-09-30T09:48:24Z</time>
      </trkpt>
      <trkpt lat="48.54283" lon="-2.59301">
        <ele>55.4</ele>
        <time>2025-09-30T09:48:25Z</time>
      </trkpt>
      <trkpt lat="48.54301" lon="-2.59339">
        <ele>55</ele>
        <time>2025-09-30T09:48:30Z</time>
      </trkpt>
      <trkpt lat="48.54305" lon="-2.59347">
        <ele>54.8</ele>
        <time>2025-09-30T09:48:31Z</time>
      </trkpt>
      <trkpt lat="48.5431" lon="-2.59354">
        <ele>54.4</ele>
        <time>2025-09-30T09:48:32Z</time>
      </trkpt>
      <trkpt lat="48.5432" lon="-2.59366">
        <ele>53.8</ele>
        <time>2025-09-30T09:48:34Z</time>
      </trkpt>
      <trkpt lat="48.54335" lon="-2.5938">
        <ele>53.6</ele>
        <time>2025-09-30T09:48:37Z</time>
      </trkpt>
      <trkpt lat="48.5434" lon="-2.59386">
        <ele>53.4</ele>
        <time>2025-09-30T09:48:38Z</time>
      </trkpt>
      <trkpt lat="48.54351" lon="-2.59396">
        <ele>53.6</ele>
        <time>2025-09-30T09:48:40Z</time>
      </trkpt>
      <trkpt lat="48.54366" lon="-2.5941">
        <ele>53.2</ele>
        <time>2025-09-30T09:48:43Z</time>
      </trkpt>
      <trkpt lat="48.54376" lon="-2.5942">
        <ele>53.2</ele>
        <time>2025-09-30T09:48:45Z</time>
      </trkpt>
      <trkpt lat="48.54381" lon="-2.59426">
        <ele>53</ele>
        <time>2025-09-30T09:48:46Z</time>
      </trkpt>
      <trkpt lat="48.54386" lon="-2.59431">
        <ele>53</ele>
        <time>2025-09-30T09:48:47Z</time>
      </trkpt>
      <trkpt lat="48.54396" lon="-2.59442">
        <ele>52.8</ele>
        <time>2025-09-30T09:48:49Z</time>
      </trkpt>
      <trkpt lat="48.54401" lon="-2.59449">
        <ele>52.8</ele>
        <time>2025-09-30T09:48:50Z</time>
      </trkpt>
      <trkpt lat="48.54415" lon="-2.59468">
        <ele>52.4</ele>
        <time>2025-09-30T09:48:53Z</time>
      </trkpt>
      <trkpt lat="48.54441" lon="-2.59502">
        <ele>51.6</ele>
        <time>2025-09-30T09:48:58Z</time>
      </trkpt>
      <trkpt lat="48.54453" lon="-2.59514">
        <ele>51.2</ele>
        <time>2025-09-30T09:49:00Z</time>
      </trkpt>
      <trkpt lat="48.54479" lon="-2.59533">
        <ele>50.6</ele>
        <time>2025-09-30T09:49:04Z</time>
      </trkpt>
      <trkpt lat="48.54498" lon="-2.59545">
        <ele>50.2</ele>
        <time>2025-09-30T09:49:07Z</time>
      </trkpt>
      <trkpt lat="48.54523" lon="-2.59563">
        <ele>50</ele>
        <time>2025-09-30T09:49:11Z</time>
      </trkpt>
      <trkpt lat="48.54549" lon="-2.5958">
        <ele>50.4</ele>
        <time>2025-09-30T09:49:16Z</time>
      </trkpt>
      <trkpt lat="48.54561" lon="-2.5959">
        <ele>51</ele>
        <time>2025-09-30T09:49:19Z</time>
      </trkpt>
      <trkpt lat="48.54569" lon="-2.59594">
        <ele>51.2</ele>
        <time>2025-09-30T09:49:21Z</time>
      </trkpt>
      <trkpt lat="48.54573" lon="-2.59596">
        <ele>51.4</ele>
        <time>2025-09-30T09:49:22Z</time>
      </trkpt>
      <trkpt lat="48.54582" lon="-2.59603">
        <ele>51.6</ele>
        <time>2025-09-30T09:49:24Z</time>
      </trkpt>
      <trkpt lat="48.54586" lon="-2.59606">
        <ele>51.8</ele>
        <time>2025-09-30T09:49:25Z</time>
      </trkpt>
      <trkpt lat="48.54599" lon="-2.59615">
        <ele>52.2</ele>
        <time>2025-09-30T09:49:28Z</time>
      </trkpt>
      <trkpt lat="48.54607" lon="-2.59619">
        <ele>52.4</ele>
        <time>2025-09-30T09:49:30Z</time>
      </trkpt>
      <trkpt lat="48.54612" lon="-2.5962">
        <ele>52.4</ele>
        <time>2025-09-30T09:49:31Z</time>
      </trkpt>
      <trkpt lat="48.54616" lon="-2.59623">
        <ele>52.6</ele>
        <time>2025-09-30T09:49:32Z</time>
      </trkpt>
      <trkpt lat="48.5463" lon="-2.59634">
        <ele>53</ele>
        <time>2025-09-30T09:49:35Z</time>
      </trkpt>
      <trkpt lat="48.5464" lon="-2.59639">
        <ele>53.4</ele>
        <time>2025-09-30T09:49:37Z</time>
      </trkpt>
      <trkpt lat="48.54662" lon="-2.59656">
        <ele>54</ele>
        <time>2025-09-30T09:49:42Z</time>
      </trkpt>
      <trkpt lat="48.54671" lon="-2.59664">
        <ele>54.2</ele>
        <time>2025-09-30T09:49:44Z</time>
      </trkpt>
      <trkpt lat="48.54675" lon="-2.59667">
        <ele>54.4</ele>
        <time>2025-09-30T09:49:45Z</time>
      </trkpt>
      <trkpt lat="48.54679" lon="-2.59669">
        <ele>54.4</ele>
        <time>2025-09-30T09:49:46Z</time>
      </trkpt>
      <trkpt lat="48.54683" lon="-2.5967">
        <ele>54.6</ele>
        <time>2025-09-30T09:49:47Z</time>
      </trkpt>
      <trkpt lat="48.5469" lon="-2.59674">
        <ele>55</ele>
        <time>2025-09-30T09:49:49Z</time>
      </trkpt>
      <trkpt lat="48.54694" lon="-2.59676">
        <ele>55.2</ele>
        <time>2025-09-30T09:49:50Z</time>
      </trkpt>
      <trkpt lat="48.54698" lon="-2.59677">
        <ele>55.6</ele>
        <time>2025-09-30T09:49:51Z</time>
      </trkpt>
      <trkpt lat="48.5471" lon="-2.59682">
        <ele>56.4</ele>
        <time>2025-09-30T09:49:54Z</time>
      </trkpt>
      <trkpt lat="48.54713" lon="-2.59683">
        <ele>56.6</ele>
        <time>2025-09-30T09:49:55Z</time>
      </trkpt>
      <trkpt lat="48.54731" lon="-2.5969">
        <ele>57.6</ele>
        <time>2025-09-30T09:50:00Z</time>
      </trkpt>
      <trkpt lat="48.54747" lon="-2.59693">
        <ele>59</ele>
        <time>2025-09-30T09:50:04Z</time>
      </trkpt>
      <trkpt lat="48.54759" lon="-2.59695">
        <ele>59.4</ele>
        <time>2025-09-30T09:50:07Z</time>
      </trkpt>
      <trkpt lat="48.5477" lon="-2.59696">
        <ele>60.2</ele>
        <time>2025-09-30T09:50:10Z</time>
      </trkpt>
      <trkpt lat="48.54789" lon="-2.59699">
        <ele>61.6</ele>
        <time>2025-09-30T09:50:15Z</time>
      </trkpt>
      <trkpt lat="48.54798" lon="-2.59701">
        <ele>62</ele>
        <time>2025-09-30T09:50:17Z</time>
      </trkpt>
      <trkpt lat="48.5481" lon="-2.59703">
        <ele>62.8</ele>
        <time>2025-09-30T09:50:20Z</time>
      </trkpt>
      <trkpt lat="48.54841" lon="-2.59711">
        <ele>63.6</ele>
        <time>2025-09-30T09:50:27Z</time>
      </trkpt>
      <trkpt lat="48.54874" lon="-2.59714">
        <ele>63</ele>
        <time>2025-09-30T09:50:34Z</time>
      </trkpt>
      <trkpt lat="48.5491" lon="-2.59709">
        <ele>63</ele>
        <time>2025-09-30T09:50:41Z</time>
      </trkpt>
      <trkpt lat="48.54915" lon="-2.59708">
        <ele>63</ele>
        <time>2025-09-30T09:50:42Z</time>
      </trkpt>
      <trkpt lat="48.54932" lon="-2.59702">
        <ele>63.2</ele>
        <time>2025-09-30T09:50:46Z</time>
      </trkpt>
      <trkpt lat="48.54955" lon="-2.59692">
        <ele>63.4</ele>
        <time>2025-09-30T09:50:51Z</time>
      </trkpt>
      <trkpt lat="48.54983" lon="-2.59684">
        <ele>62.6</ele>
        <time>2025-09-30T09:50:56Z</time>
      </trkpt>
      <trkpt lat="48.54989" lon="-2.59684">
        <ele>62.4</ele>
        <time>2025-09-30T09:50:57Z</time>
      </trkpt>
      <trkpt lat="48.55001" lon="-2.59685">
        <ele>61.6</ele>
        <time>2025-09-30T09:50:59Z</time>
      </trkpt>
      <trkpt lat="48.55034" lon="-2.59692">
        <ele>60.6</ele>
        <time>2025-09-30T09:51:04Z</time>
      </trkpt>
      <trkpt lat="48.55039" lon="-2.59694">
        <ele>60.4</ele>
        <time>2025-09-30T09:51:05Z</time>
      </trkpt>
      <trkpt lat="48.55078" lon="-2.59703">
        <ele>59.4</ele>
        <time>2025-09-30T09:51:11Z</time>
      </trkpt>
      <trkpt lat="48.5509" lon="-2.59704">
        <ele>59.2</ele>
        <time>2025-09-30T09:51:13Z</time>
      </trkpt>
      <trkpt lat="48.55096" lon="-2.59705">
        <ele>59.2</ele>
        <time>2025-09-30T09:51:14Z</time>
      </trkpt>
      <trkpt lat="48.55131" lon="-2.59703">
        <ele>58.4</ele>
        <time>2025-09-30T09:51:20Z</time>
      </trkpt>
      <trkpt lat="48.55138" lon="-2.59702">
        <ele>58.4</ele>
        <time>2025-09-30T09:51:21Z</time>
      </trkpt>
      <trkpt lat="48.55144" lon="-2.59702">
        <ele>58</ele>
        <time>2025-09-30T09:51:22Z</time>
      </trkpt>
      <trkpt lat="48.55151" lon="-2.59702">
        <ele>57.6</ele>
        <time>2025-09-30T09:51:23Z</time>
      </trkpt>
      <trkpt lat="48.55165" lon="-2.59702">
        <ele>57.2</ele>
        <time>2025-09-30T09:51:25Z</time>
      </trkpt>
      <trkpt lat="48.55196" lon="-2.59698">
        <ele>55.6</ele>
        <time>2025-09-30T09:51:29Z</time>
      </trkpt>
      <trkpt lat="48.55228" lon="-2.59684">
        <ele>54.2</ele>
        <time>2025-09-30T09:51:33Z</time>
      </trkpt>
      <trkpt lat="48.55235" lon="-2.5968">
        <ele>53.4</ele>
        <time>2025-09-30T09:51:34Z</time>
      </trkpt>
      <trkpt lat="48.55248" lon="-2.59674">
        <ele>52.6</ele>
        <time>2025-09-30T09:51:36Z</time>
      </trkpt>
      <trkpt lat="48.55253" lon="-2.59671">
        <ele>52.2</ele>
        <time>2025-09-30T09:51:37Z</time>
      </trkpt>
      <trkpt lat="48.55259" lon="-2.59666">
        <ele>52.2</ele>
        <time>2025-09-30T09:51:38Z</time>
      </trkpt>
      <trkpt lat="48.55274" lon="-2.5965">
        <ele>51.6</ele>
        <time>2025-09-30T09:51:41Z</time>
      </trkpt>
      <trkpt lat="48.55288" lon="-2.59631">
        <ele>51.2</ele>
        <time>2025-09-30T09:51:44Z</time>
      </trkpt>
      <trkpt lat="48.553" lon="-2.59614">
        <ele>51.2</ele>
        <time>2025-09-30T09:51:47Z</time>
      </trkpt>
      <trkpt lat="48.55305" lon="-2.59599">
        <ele>51.2</ele>
        <time>2025-09-30T09:51:49Z</time>
      </trkpt>
      <trkpt lat="48.55315" lon="-2.59552">
        <ele>52</ele>
        <time>2025-09-30T09:51:55Z</time>
      </trkpt>
      <trkpt lat="48.55332" lon="-2.59491">
        <ele>52.8</ele>
        <time>2025-09-30T09:52:03Z</time>
      </trkpt>
      <trkpt lat="48.55334" lon="-2.59485">
        <ele>52.8</ele>
        <time>2025-09-30T09:52:04Z</time>
      </trkpt>
      <trkpt lat="48.55365" lon="-2.59419">
        <ele>53.4</ele>
        <time>2025-09-30T09:52:14Z</time>
      </trkpt>
      <trkpt lat="48.55385" lon="-2.59367">
        <ele>53.6</ele>
        <time>2025-09-30T09:52:22Z</time>
      </trkpt>
      <trkpt lat="48.55387" lon="-2.5936">
        <ele>53.8</ele>
        <time>2025-09-30T09:52:23Z</time>
      </trkpt>
      <trkpt lat="48.554" lon="-2.59307">
        <ele>54.2</ele>
        <time>2025-09-30T09:52:31Z</time>
      </trkpt>
      <trkpt lat="48.55402" lon="-2.59294">
        <ele>54.4</ele>
        <time>2025-09-30T09:52:33Z</time>
      </trkpt>
      <trkpt lat="48.55404" lon="-2.59286">
        <ele>54.4</ele>
        <time>2025-09-30T09:52:34Z</time>
      </trkpt>
      <trkpt lat="48.55405" lon="-2.59279">
        <ele>54.6</ele>
        <time>2025-09-30T09:52:35Z</time>
      </trkpt>
      <trkpt lat="48.55405" lon="-2.59274">
        <ele>54.6</ele>
        <time>2025-09-30T09:52:36Z</time>
      </trkpt>
      <trkpt lat="48.55407" lon="-2.59259">
        <ele>54.8</ele>
        <time>2025-09-30T09:52:38Z</time>
      </trkpt>
      <trkpt lat="48.55407" lon="-2.59253">
        <ele>54.8</ele>
        <time>2025-09-30T09:52:39Z</time>
      </trkpt>
      <trkpt lat="48.5541" lon="-2.59212">
        <ele>55.4</ele>
        <time>2025-09-30T09:52:45Z</time>
      </trkpt>
      <trkpt lat="48.55412" lon="-2.59198">
        <ele>55.6</ele>
        <time>2025-09-30T09:52:47Z</time>
      </trkpt>
      <trkpt lat="48.55416" lon="-2.59185">
        <ele>55.8</ele>
        <time>2025-09-30T09:52:49Z</time>
      </trkpt>
      <trkpt lat="48.55421" lon="-2.59174">
        <ele>56</ele>
        <time>2025-09-30T09:52:51Z</time>
      </trkpt>
      <trkpt lat="48.55441" lon="-2.59138">
        <ele>56</ele>
        <time>2025-09-30T09:52:57Z</time>
      </trkpt>
      <trkpt lat="48.5547" lon="-2.59096">
        <ele>55.6</ele>
        <time>2025-09-30T09:53:04Z</time>
      </trkpt>
      <trkpt lat="48.5549" lon="-2.59075">
        <ele>55.8</ele>
        <time>2025-09-30T09:53:09Z</time>
      </trkpt>
      <trkpt lat="48.55496" lon="-2.59064">
        <ele>56</ele>
        <time>2025-09-30T09:53:11Z</time>
      </trkpt>
      <trkpt lat="48.55504" lon="-2.59042">
        <ele>56.6</ele>
        <time>2025-09-30T09:53:15Z</time>
      </trkpt>
      <trkpt lat="48.55508" lon="-2.59028">
        <ele>57.2</ele>
        <time>2025-09-30T09:53:17Z</time>
      </trkpt>
      <trkpt lat="48.55516" lon="-2.59006">
        <ele>58.2</ele>
        <time>2025-09-30T09:53:21Z</time>
      </trkpt>
      <trkpt lat="48.55519" lon="-2.59001">
        <ele>58.4</ele>
        <time>2025-09-30T09:53:22Z</time>
      </trkpt>
      <trkpt lat="48.55524" lon="-2.58992">
        <ele>59</ele>
        <time>2025-09-30T09:53:24Z</time>
      </trkpt>
      <trkpt lat="48.55527" lon="-2.58987">
        <ele>59.4</ele>
        <time>2025-09-30T09:53:25Z</time>
      </trkpt>
      <trkpt lat="48.55536" lon="-2.58977">
        <ele>60.4</ele>
        <time>2025-09-30T09:53:28Z</time>
      </trkpt>
      <trkpt lat="48.55545" lon="-2.58966">
        <ele>61</ele>
        <time>2025-09-30T09:53:31Z</time>
      </trkpt>
      <trkpt lat="48.55556" lon="-2.58954">
        <ele>61.4</ele>
        <time>2025-09-30T09:53:34Z</time>
      </trkpt>
      <trkpt lat="48.55588" lon="-2.5892">
        <ele>62</ele>
        <time>2025-09-30T09:53:43Z</time>
      </trkpt>
      <trkpt lat="48.55603" lon="-2.58902">
        <ele>62.4</ele>
        <time>2025-09-30T09:53:47Z</time>
      </trkpt>
      <trkpt lat="48.55611" lon="-2.58893">
        <ele>62.6</ele>
        <time>2025-09-30T09:53:49Z</time>
      </trkpt>
      <trkpt lat="48.55623" lon="-2.5888">
        <ele>63</ele>
        <time>2025-09-30T09:53:52Z</time>
      </trkpt>
      <trkpt lat="48.5564" lon="-2.58863">
        <ele>63.6</ele>
        <time>2025-09-30T09:53:56Z</time>
      </trkpt>
      <trkpt lat="48.55658" lon="-2.58842">
        <ele>64.4</ele>
        <time>2025-09-30T09:54:01Z</time>
      </trkpt>
      <trkpt lat="48.55662" lon="-2.58838">
        <ele>64.4</ele>
        <time>2025-09-30T09:54:02Z</time>
      </trkpt>
      <trkpt lat="48.55666" lon="-2.58834">
        <ele>64.8</ele>
        <time>2025-09-30T09:54:03Z</time>
      </trkpt>
      <trkpt lat="48.55678" lon="-2.5882">
        <ele>65.2</ele>
        <time>2025-09-30T09:54:06Z</time>
      </trkpt>
      <trkpt lat="48.5569" lon="-2.58807">
        <ele>65.6</ele>
        <time>2025-09-30T09:54:09Z</time>
      </trkpt>
      <trkpt lat="48.55694" lon="-2.58802">
        <ele>65.8</ele>
        <time>2025-09-30T09:54:10Z</time>
      </trkpt>
      <trkpt lat="48.55715" lon="-2.58779">
        <ele>66.4</ele>
        <time>2025-09-30T09:54:17Z</time>
      </trkpt>
      <trkpt lat="48.55729" lon="-2.58764">
        <ele>66.4</ele>
        <time>2025-09-30T09:54:23Z</time>
      </trkpt>
      <trkpt lat="48.55733" lon="-2.58763">
        <ele>66</ele>
        <time>2025-09-30T09:54:28Z</time>
      </trkpt>
      <trkpt lat="48.55735" lon="-2.58762">
        <ele>66.2</ele>
        <time>2025-09-30T09:54:36Z</time>
      </trkpt>
      <trkpt lat="48.55737" lon="-2.58759">
        <ele>66.2</ele>
        <time>2025-09-30T09:54:43Z</time>
      </trkpt>
      <trkpt lat="48.55739" lon="-2.58756">
        <ele>66.2</ele>
        <time>2025-09-30T09:54:44Z</time>
      </trkpt>
      <trkpt lat="48.55744" lon="-2.5875">
        <ele>66.2</ele>
        <time>2025-09-30T09:54:46Z</time>
      </trkpt>
      <trkpt lat="48.5575" lon="-2.58741">
        <ele>66.2</ele>
        <time>2025-09-30T09:54:49Z</time>
      </trkpt>
      <trkpt lat="48.55763" lon="-2.58725">
        <ele>66.2</ele>
        <time>2025-09-30T09:54:55Z</time>
      </trkpt>
      <trkpt lat="48.55765" lon="-2.58723">
        <ele>66.2</ele>
        <time>2025-09-30T09:54:56Z</time>
      </trkpt>
      <trkpt lat="48.55768" lon="-2.58721">
        <ele>65.8</ele>
        <time>2025-09-30T09:54:59Z</time>
      </trkpt>
      <trkpt lat="48.55768" lon="-2.58721">
        <ele>66</ele>
        <time>2025-09-30T09:55:00Z</time>
      </trkpt>
      <trkpt lat="48.55768" lon="-2.58721">
        <ele>66</ele>
        <time>2025-09-30T09:55:06Z</time>
      </trkpt>
      <trkpt lat="48.55768" lon="-2.58721">
        <ele>66.2</ele>
        <time>2025-09-30T09:55:09Z</time>
      </trkpt>
      <trkpt lat="48.55768" lon="-2.58721">
        <ele>66</ele>
        <time>2025-09-30T09:55:19Z</time>
      </trkpt>
      <trkpt lat="48.55767" lon="-2.58721">
        <ele>65.8</ele>
        <time>2025-09-30T09:55:22Z</time>
      </trkpt>
      <trkpt lat="48.55767" lon="-2.58721">
        <ele>65.4</ele>
        <time>2025-09-30T09:55:27Z</time>
      </trkpt>
      <trkpt lat="48.55767" lon="-2.58724">
        <ele>65.8</ele>
        <time>2025-09-30T09:55:29Z</time>
      </trkpt>
      <trkpt lat="48.55767" lon="-2.58724">
        <ele>65.8</ele>
        <time>2025-09-30T09:55:37Z</time>
      </trkpt>
      <trkpt lat="48.55767" lon="-2.58724">
        <ele>65.8</ele>
        <time>2025-09-30T09:55:41Z</time>
      </trkpt>
      <trkpt lat="48.55768" lon="-2.58725">
        <ele>65.8</ele>
        <time>2025-09-30T09:55:44Z</time>
      </trkpt>
      <trkpt lat="48.55767" lon="-2.58723">
        <ele>65.8</ele>
        <time>2025-09-30T09:55:47Z</time>
      </trkpt>
      <trkpt lat="48.55765" lon="-2.58722">
        <ele>65.8</ele>
        <time>2025-09-30T09:55:54Z</time>
      </trkpt>
      <trkpt lat="48.55765" lon="-2.58722">
        <ele>65.8</ele>
        <time>2025-09-30T09:56:03Z</time>
      </trkpt>
      <trkpt lat="48.55765" lon="-2.58722">
        <ele>65.8</ele>
        <time>2025-09-30T09:56:16Z</time>
      </trkpt>
      <trkpt lat="48.55765" lon="-2.58722">
        <ele>65.8</ele>
        <time>2025-09-30T09:56:30Z</time>
      </trkpt>
      <trkpt lat="48.55765" lon="-2.58722">
        <ele>65.8</ele>
        <time>2025-09-30T09:56:45Z</time>
      </trkpt>
      <trkpt lat="48.55765" lon="-2.58722">
        <ele>65.8</ele>
        <time>2025-09-30T09:56:56Z</time>
      </trkpt>
      <trkpt lat="48.55765" lon="-2.58722">
        <ele>65.8</ele>
        <time>2025-09-30T09:56:58Z</time>
      </trkpt>
      <trkpt lat="48.55765" lon="-2.58722">
        <ele>65.8</ele>
        <time>2025-09-30T09:56:59Z</time>
      </trkpt>
      <trkpt lat="48.55765" lon="-2.58722">
        <ele>65.8</ele>
        <time>2025-09-30T09:57:00Z</time>
      </trkpt>
      <trkpt lat="48.55765" lon="-2.58722">
        <ele>65.8</ele>
        <time>2025-09-30T09:57:01Z</time>
      </trkpt>
      <trkpt lat="48.55765" lon="-2.58722">
        <ele>65.8</ele>
        <time>2025-09-30T09:57:03Z</time>
      </trkpt>
      <trkpt lat="48.55765" lon="-2.58722">
        <ele>65.8</ele>
        <time>2025-09-30T09:57:10Z</time>
      </trkpt>
      <trkpt lat="48.55765" lon="-2.58722">
        <ele>65.8</ele>
        <time>2025-09-30T09:57:12Z</time>
      </trkpt>
      <trkpt lat="48.55765" lon="-2.58722">
        <ele>65.8</ele>
        <time>2025-09-30T09:57:17Z</time>
      </trkpt>
      <trkpt lat="48.55765" lon="-2.58722">
        <ele>65.8</ele>
        <time>2025-09-30T09:57:19Z</time>
      </trkpt>
      <trkpt lat="48.55765" lon="-2.58722">
        <ele>65.8</ele>
        <time>2025-09-30T09:57:21Z</time>
      </trkpt>
      <trkpt lat="48.55765" lon="-2.58722">
        <ele>65.8</ele>
        <time>2025-09-30T09:57:25Z</time>
      </trkpt>
      <trkpt lat="48.55765" lon="-2.58722">
        <ele>65.8</ele>
        <time>2025-09-30T09:57:34Z</time>
      </trkpt>
      <trkpt lat="48.55765" lon="-2.58722">
        <ele>65.8</ele>
        <time>2025-09-30T09:57:40Z</time>
      </trkpt>
      <trkpt lat="48.5577" lon="-2.5872">
        <ele>65.8</ele>
        <time>2025-09-30T09:57:51Z</time>
      </trkpt>
      <trkpt lat="48.55785" lon="-2.58703">
        <ele>65.6</ele>
        <time>2025-09-30T09:57:57Z</time>
      </trkpt>
      <trkpt lat="48.55798" lon="-2.58689">
        <ele>65.4</ele>
        <time>2025-09-30T09:58:01Z</time>
      </trkpt>
      <trkpt lat="48.55809" lon="-2.58678">
        <ele>65.2</ele>
        <time>2025-09-30T09:58:04Z</time>
      </trkpt>
      <trkpt lat="48.55831" lon="-2.58657">
        <ele>64.6</ele>
        <time>2025-09-30T09:58:09Z</time>
      </trkpt>
      <trkpt lat="48.5584" lon="-2.58647">
        <ele>64.2</ele>
        <time>2025-09-30T09:58:11Z</time>
      </trkpt>
      <trkpt lat="48.55867" lon="-2.58621">
        <ele>63.4</ele>
        <time>2025-09-30T09:58:16Z</time>
      </trkpt>
      <trkpt lat="48.55878" lon="-2.58611">
        <ele>63.2</ele>
        <time>2025-09-30T09:58:18Z</time>
      </trkpt>
      <trkpt lat="48.559" lon="-2.58588">
        <ele>62.4</ele>
        <time>2025-09-30T09:58:22Z</time>
      </trkpt>
      <trkpt lat="48.55938" lon="-2.5855">
        <ele>62</ele>
        <time>2025-09-30T09:58:29Z</time>
      </trkpt>
      <trkpt lat="48.55985" lon="-2.58502">
        <ele>61.6</ele>
        <time>2025-09-30T09:58:38Z</time>
      </trkpt>
      <trkpt lat="48.56005" lon="-2.58482">
        <ele>61.4</ele>
        <time>2025-09-30T09:58:42Z</time>
      </trkpt>
      <trkpt lat="48.56038" lon="-2.58447">
        <ele>61.4</ele>
        <time>2025-09-30T09:58:49Z</time>
      </trkpt>
      <trkpt lat="48.56044" lon="-2.58441">
        <ele>61.4</ele>
        <time>2025-09-30T09:58:50Z</time>
      </trkpt>
      <trkpt lat="48.56058" lon="-2.58428">
        <ele>61</ele>
        <time>2025-09-30T09:58:53Z</time>
      </trkpt>
      <trkpt lat="48.56092" lon="-2.58392">
        <ele>60.2</ele>
        <time>2025-09-30T09:59:00Z</time>
      </trkpt>
      <trkpt lat="48.56105" lon="-2.58375">
        <ele>60</ele>
        <time>2025-09-30T09:59:03Z</time>
      </trkpt>
      <trkpt lat="48.56131" lon="-2.58331">
        <ele>60</ele>
        <time>2025-09-30T09:59:10Z</time>
      </trkpt>
      <trkpt lat="48.56134" lon="-2.58325">
        <ele>59.8</ele>
        <time>2025-09-30T09:59:11Z</time>
      </trkpt>
      <trkpt lat="48.5615" lon="-2.58287">
        <ele>59.2</ele>
        <time>2025-09-30T09:59:17Z</time>
      </trkpt>
      <trkpt lat="48.56158" lon="-2.58282">
        <ele>58.8</ele>
        <time>2025-09-30T09:59:19Z</time>
      </trkpt>
      <trkpt lat="48.56161" lon="-2.58283">
        <ele>58.6</ele>
        <time>2025-09-30T09:59:20Z</time>
      </trkpt>
      <trkpt lat="48.56165" lon="-2.58286">
        <ele>58.4</ele>
        <time>2025-09-30T09:59:21Z</time>
      </trkpt>
      <trkpt lat="48.56171" lon="-2.58299">
        <ele>58.2</ele>
        <time>2025-09-30T09:59:23Z</time>
      </trkpt>
      <trkpt lat="48.56188" lon="-2.58338">
        <ele>57.4</ele>
        <time>2025-09-30T09:59:28Z</time>
      </trkpt>
      <trkpt lat="48.56196" lon="-2.58352">
        <ele>57.2</ele>
        <time>2025-09-30T09:59:30Z</time>
      </trkpt>
      <trkpt lat="48.56201" lon="-2.58359">
        <ele>57</ele>
        <time>2025-09-30T09:59:31Z</time>
      </trkpt>
      <trkpt lat="48.56207" lon="-2.58366">
        <ele>56.8</ele>
        <time>2025-09-30T09:59:32Z</time>
      </trkpt>
      <trkpt lat="48.56214" lon="-2.58372">
        <ele>55.6</ele>
        <time>2025-09-30T09:59:33Z</time>
      </trkpt>
      <trkpt lat="48.56238" lon="-2.58386">
        <ele>54.4</ele>
        <time>2025-09-30T09:59:36Z</time>
      </trkpt>
      <trkpt lat="48.56256" lon="-2.58392">
        <ele>53.2</ele>
        <time>2025-09-30T09:59:38Z</time>
      </trkpt>
      <trkpt lat="48.56277" lon="-2.58395">
        <ele>52</ele>
        <time>2025-09-30T09:59:40Z</time>
      </trkpt>
      <trkpt lat="48.56294" lon="-2.58395">
        <ele>50.8</ele>
        <time>2025-09-30T09:59:42Z</time>
      </trkpt>
      <trkpt lat="48.56313" lon="-2.58395">
        <ele>49.4</ele>
        <time>2025-09-30T09:59:44Z</time>
      </trkpt>
      <trkpt lat="48.56331" lon="-2.58395">
        <ele>48.6</ele>
        <time>2025-09-30T09:59:46Z</time>
      </trkpt>
      <trkpt lat="48.56339" lon="-2.58393">
        <ele>48.2</ele>
        <time>2025-09-30T09:59:47Z</time>
      </trkpt>
      <trkpt lat="48.56353" lon="-2.58386">
        <ele>47.6</ele>
        <time>2025-09-30T09:59:49Z</time>
      </trkpt>
      <trkpt lat="48.56358" lon="-2.5838">
        <ele>47.2</ele>
        <time>2025-09-30T09:59:50Z</time>
      </trkpt>
      <trkpt lat="48.56364" lon="-2.58373">
        <ele>46.8</ele>
        <time>2025-09-30T09:59:51Z</time>
      </trkpt>
      <trkpt lat="48.56372" lon="-2.58363">
        <ele>46.6</ele>
        <time>2025-09-30T09:59:53Z</time>
      </trkpt>
      <trkpt lat="48.56382" lon="-2.58348">
        <ele>46</ele>
        <time>2025-09-30T09:59:56Z</time>
      </trkpt>
      <trkpt lat="48.56391" lon="-2.58332">
        <ele>45.4</ele>
        <time>2025-09-30T09:59:59Z</time>
      </trkpt>
      <trkpt lat="48.56399" lon="-2.58323">
        <ele>44.8</ele>
        <time>2025-09-30T10:00:01Z</time>
      </trkpt>
      <trkpt lat="48.56419" lon="-2.58305">
        <ele>43.6</ele>
        <time>2025-09-30T10:00:05Z</time>
      </trkpt>
      <trkpt lat="48.5643" lon="-2.58294">
        <ele>42.4</ele>
        <time>2025-09-30T10:00:07Z</time>
      </trkpt>
      <trkpt lat="48.56451" lon="-2.58268">
        <ele>41.2</ele>
        <time>2025-09-30T10:00:11Z</time>
      </trkpt>
      <trkpt lat="48.56457" lon="-2.5826">
        <ele>41</ele>
        <time>2025-09-30T10:00:12Z</time>
      </trkpt>
      <trkpt lat="48.56478" lon="-2.58226">
        <ele>40.2</ele>
        <time>2025-09-30T10:00:17Z</time>
      </trkpt>
      <trkpt lat="48.56487" lon="-2.58214">
        <ele>40</ele>
        <time>2025-09-30T10:00:19Z</time>
      </trkpt>
      <trkpt lat="48.5651" lon="-2.58185">
        <ele>39</ele>
        <time>2025-09-30T10:00:25Z</time>
      </trkpt>
      <trkpt lat="48.56511" lon="-2.58181">
        <ele>38.6</ele>
        <time>2025-09-30T10:00:26Z</time>
      </trkpt>
      <trkpt lat="48.56511" lon="-2.58175">
        <ele>38.4</ele>
        <time>2025-09-30T10:00:28Z</time>
      </trkpt>
      <trkpt lat="48.56506" lon="-2.58154">
        <ele>38.2</ele>
        <time>2025-09-30T10:00:32Z</time>
      </trkpt>
      <trkpt lat="48.56504" lon="-2.58143">
        <ele>37.8</ele>
        <time>2025-09-30T10:00:35Z</time>
      </trkpt>
      <trkpt lat="48.56505" lon="-2.58141">
        <ele>37.6</ele>
        <time>2025-09-30T10:00:36Z</time>
      </trkpt>
      <trkpt lat="48.56506" lon="-2.5814">
        <ele>37.6</ele>
        <time>2025-09-30T10:00:37Z</time>
      </trkpt>
      <trkpt lat="48.56516" lon="-2.58142">
        <ele>37.2</ele>
        <time>2025-09-30T10:00:40Z</time>
      </trkpt>
      <trkpt lat="48.56544" lon="-2.58139">
        <ele>36.8</ele>
        <time>2025-09-30T10:00:46Z</time>
      </trkpt>
      <trkpt lat="48.56555" lon="-2.58137">
        <ele>36.2</ele>
        <time>2025-09-30T10:00:48Z</time>
      </trkpt>
      <trkpt lat="48.56565" lon="-2.58133">
        <ele>36</ele>
        <time>2025-09-30T10:00:50Z</time>
      </trkpt>
      <trkpt lat="48.5657" lon="-2.58128">
        <ele>36</ele>
        <time>2025-09-30T10:00:51Z</time>
      </trkpt>
      <trkpt lat="48.56574" lon="-2.58124">
        <ele>35.8</ele>
        <time>2025-09-30T10:00:52Z</time>
      </trkpt>
      <trkpt lat="48.56578" lon="-2.58118">
        <ele>35.8</ele>
        <time>2025-09-30T10:00:53Z</time>
      </trkpt>
      <trkpt lat="48.56587" lon="-2.58102">
        <ele>35.8</ele>
        <time>2025-09-30T10:00:56Z</time>
      </trkpt>
      <trkpt lat="48.56597" lon="-2.58086">
        <ele>36.8</ele>
        <time>2025-09-30T10:01:00Z</time>
      </trkpt>
      <trkpt lat="48.566" lon="-2.58083">
        <ele>36.8</ele>
        <time>2025-09-30T10:01:01Z</time>
      </trkpt>
      <trkpt lat="48.5661" lon="-2.58076">
        <ele>37.8</ele>
        <time>2025-09-30T10:01:04Z</time>
      </trkpt>
      <trkpt lat="48.56624" lon="-2.58069">
        <ele>38.6</ele>
        <time>2025-09-30T10:01:08Z</time>
      </trkpt>
      <trkpt lat="48.56628" lon="-2.58068">
        <ele>38.8</ele>
        <time>2025-09-30T10:01:09Z</time>
      </trkpt>
      <trkpt lat="48.56643" lon="-2.58067">
        <ele>39.2</ele>
        <time>2025-09-30T10:01:14Z</time>
      </trkpt>
      <trkpt lat="48.56661" lon="-2.58062">
        <ele>37.8</ele>
        <time>2025-09-30T10:01:20Z</time>
      </trkpt>
      <trkpt lat="48.56664" lon="-2.5806">
        <ele>37.6</ele>
        <time>2025-09-30T10:01:21Z</time>
      </trkpt>
      <trkpt lat="48.56683" lon="-2.58047">
        <ele>36.8</ele>
        <time>2025-09-30T10:01:26Z</time>
      </trkpt>
      <trkpt lat="48.56686" lon="-2.58044">
        <ele>36.6</ele>
        <time>2025-09-30T10:01:27Z</time>
      </trkpt>
      <trkpt lat="48.567" lon="-2.58024">
        <ele>35.8</ele>
        <time>2025-09-30T10:01:32Z</time>
      </trkpt>
      <trkpt lat="48.56705" lon="-2.58015">
        <ele>35.2</ele>
        <time>2025-09-30T10:01:34Z</time>
      </trkpt>
      <trkpt lat="48.56715" lon="-2.57999">
        <ele>34.6</ele>
        <time>2025-09-30T10:01:37Z</time>
      </trkpt>
      <trkpt lat="48.56719" lon="-2.57994">
        <ele>34.6</ele>
        <time>2025-09-30T10:01:38Z</time>
      </trkpt>
      <trkpt lat="48.56724" lon="-2.57989">
        <ele>34</ele>
        <time>2025-09-30T10:01:39Z</time>
      </trkpt>
      <trkpt lat="48.56729" lon="-2.57985">
        <ele>33.8</ele>
        <time>2025-09-30T10:01:40Z</time>
      </trkpt>
      <trkpt lat="48.56734" lon="-2.57982">
        <ele>33.6</ele>
        <time>2025-09-30T10:01:41Z</time>
      </trkpt>
      <trkpt lat="48.56739" lon="-2.57979">
        <ele>33.4</ele>
        <time>2025-09-30T10:01:42Z</time>
      </trkpt>
      <trkpt lat="48.56749" lon="-2.57976">
        <ele>33.2</ele>
        <time>2025-09-30T10:01:44Z</time>
      </trkpt>
      <trkpt lat="48.5677" lon="-2.57969">
        <ele>32.6</ele>
        <time>2025-09-30T10:01:48Z</time>
      </trkpt>
      <trkpt lat="48.5678" lon="-2.57964">
        <ele>32.2</ele>
        <time>2025-09-30T10:01:50Z</time>
      </trkpt>
      <trkpt lat="48.56786" lon="-2.57962">
        <ele>32</ele>
        <time>2025-09-30T10:01:51Z</time>
      </trkpt>
      <trkpt lat="48.56804" lon="-2.5796">
        <ele>31</ele>
        <time>2025-09-30T10:01:54Z</time>
      </trkpt>
      <trkpt lat="48.56819" lon="-2.5796">
        <ele>30</ele>
        <time>2025-09-30T10:01:56Z</time>
      </trkpt>
      <trkpt lat="48.56835" lon="-2.57961">
        <ele>29.4</ele>
        <time>2025-09-30T10:01:58Z</time>
      </trkpt>
      <trkpt lat="48.56852" lon="-2.5796">
        <ele>28.6</ele>
        <time>2025-09-30T10:02:00Z</time>
      </trkpt>
      <trkpt lat="48.5686" lon="-2.57959">
        <ele>27.8</ele>
        <time>2025-09-30T10:02:01Z</time>
      </trkpt>
      <trkpt lat="48.56875" lon="-2.57955">
        <ele>27</ele>
        <time>2025-09-30T10:02:03Z</time>
      </trkpt>
      <trkpt lat="48.56893" lon="-2.57949">
        <ele>25.6</ele>
        <time>2025-09-30T10:02:06Z</time>
      </trkpt>
      <trkpt lat="48.56904" lon="-2.57949">
        <ele>24.4</ele>
        <time>2025-09-30T10:02:08Z</time>
      </trkpt>
      <trkpt lat="48.56917" lon="-2.57951">
        <ele>22.8</ele>
        <time>2025-09-30T10:02:10Z</time>
      </trkpt>
      <trkpt lat="48.56923" lon="-2.57952">
        <ele>21.4</ele>
        <time>2025-09-30T10:02:11Z</time>
      </trkpt>
      <trkpt lat="48.56943" lon="-2.57951">
        <ele>19.2</ele>
        <time>2025-09-30T10:02:14Z</time>
      </trkpt>
      <trkpt lat="48.56951" lon="-2.5795">
        <ele>17.8</ele>
        <time>2025-09-30T10:02:15Z</time>
      </trkpt>
      <trkpt lat="48.56967" lon="-2.57946">
        <ele>16.6</ele>
        <time>2025-09-30T10:02:17Z</time>
      </trkpt>
      <trkpt lat="48.56975" lon="-2.57944">
        <ele>15.6</ele>
        <time>2025-09-30T10:02:18Z</time>
      </trkpt>
      <trkpt lat="48.56988" lon="-2.5794">
        <ele>13.8</ele>
        <time>2025-09-30T10:02:20Z</time>
      </trkpt>
      <trkpt lat="48.56995" lon="-2.57937">
        <ele>13.6</ele>
        <time>2025-09-30T10:02:21Z</time>
      </trkpt>
      <trkpt lat="48.57003" lon="-2.57934">
        <ele>12.8</ele>
        <time>2025-09-30T10:02:22Z</time>
      </trkpt>
      <trkpt lat="48.57011" lon="-2.57932">
        <ele>12.2</ele>
        <time>2025-09-30T10:02:23Z</time>
      </trkpt>
      <trkpt lat="48.57033" lon="-2.57926">
        <ele>10.6</ele>
        <time>2025-09-30T10:02:26Z</time>
      </trkpt>
      <trkpt lat="48.57045" lon="-2.57921">
        <ele>10.2</ele>
        <time>2025-09-30T10:02:28Z</time>
      </trkpt>
      <trkpt lat="48.5705" lon="-2.57919">
        <ele>9</ele>
        <time>2025-09-30T10:02:29Z</time>
      </trkpt>
      <trkpt lat="48.57064" lon="-2.57913">
        <ele>7.6</ele>
        <time>2025-09-30T10:02:32Z</time>
      </trkpt>
      <trkpt lat="48.5707" lon="-2.57909">
        <ele>6.2</ele>
        <time>2025-09-30T10:02:34Z</time>
      </trkpt>
      <trkpt lat="48.57072" lon="-2.57909">
        <ele>5.2</ele>
        <time>2025-09-30T10:02:36Z</time>
      </trkpt>
      <trkpt lat="48.57074" lon="-2.57911">
        <ele>4.6</ele>
        <time>2025-09-30T10:02:38Z</time>
      </trkpt>
      <trkpt lat="48.57076" lon="-2.57918">
        <ele>4.4</ele>
        <time>2025-09-30T10:02:40Z</time>
      </trkpt>
      <trkpt lat="48.57079" lon="-2.5793">
        <ele>4</ele>
        <time>2025-09-30T10:02:43Z</time>
      </trkpt>
      <trkpt lat="48.57081" lon="-2.57941">
        <ele>2.8</ele>
        <time>2025-09-30T10:02:47Z</time>
      </trkpt>
      <trkpt lat="48.57081" lon="-2.57941">
        <ele>2.4</ele>
        <time>2025-09-30T10:02:48Z</time>
      </trkpt>
      <trkpt lat="48.57081" lon="-2.57941">
        <ele>2.4</ele>
        <time>2025-09-30T10:02:51Z</time>
      </trkpt>
      <trkpt lat="48.57081" lon="-2.57941">
        <ele>2.4</ele>
        <time>2025-09-30T10:02:55Z</time>
      </trkpt>
      <trkpt lat="48.57081" lon="-2.57941">
        <ele>2</ele>
        <time>2025-09-30T10:03:02Z</time>
      </trkpt>
      <trkpt lat="48.57081" lon="-2.57941">
        <ele>2</ele>
        <time>2025-09-30T10:03:03Z</time>
      </trkpt>
      <trkpt lat="48.57081" lon="-2.57941">
        <ele>1.8</ele>
        <time>2025-09-30T10:03:04Z</time>
      </trkpt>
      <trkpt lat="48.57081" lon="-2.57941">
        <ele>1.8</ele>
        <time>2025-09-30T10:03:06Z</time>
      </trkpt>
      <trkpt lat="48.57081" lon="-2.57941">
        <ele>1.8</ele>
        <time>2025-09-30T10:03:17Z</time>
      </trkpt>
      <trkpt lat="48.5708" lon="-2.57945">
        <ele>1.6</ele>
        <time>2025-09-30T10:03:22Z</time>
      </trkpt>
      <trkpt lat="48.57079" lon="-2.57945">
        <ele>1.6</ele>
        <time>2025-09-30T10:03:24Z</time>
      </trkpt>
      <trkpt lat="48.57077" lon="-2.57944">
        <ele>1.4</ele>
        <time>2025-09-30T10:03:37Z</time>
      </trkpt>
      <trkpt lat="48.57077" lon="-2.57944">
        <ele>1.4</ele>
        <time>2025-09-30T10:03:39Z</time>
      </trkpt>
      <trkpt lat="48.57077" lon="-2.57944">
        <ele>1.8</ele>
        <time>2025-09-30T10:03:41Z</time>
      </trkpt>
      <trkpt lat="48.57077" lon="-2.57944">
        <ele>1.8</ele>
        <time>2025-09-30T10:03:44Z</time>
      </trkpt>
      <trkpt lat="48.57076" lon="-2.57943">
        <ele>1.4</ele>
        <time>2025-09-30T10:03:50Z</time>
      </trkpt>
      <trkpt lat="48.57075" lon="-2.57944">
        <ele>1.8</ele>
        <time>2025-09-30T10:03:57Z</time>
      </trkpt>
      <trkpt lat="48.57074" lon="-2.57946">
        <ele>1.4</ele>
        <time>2025-09-30T10:04:05Z</time>
      </trkpt>
      <trkpt lat="48.57074" lon="-2.57946">
        <ele>1.4</ele>
        <time>2025-09-30T10:04:13Z</time>
      </trkpt>
      <trkpt lat="48.57077" lon="-2.57942">
        <ele>1.4</ele>
        <time>2025-09-30T10:04:21Z</time>
      </trkpt>
      <trkpt lat="48.57078" lon="-2.57942">
        <ele>2</ele>
        <time>2025-09-30T10:04:29Z</time>
      </trkpt>
      <trkpt lat="48.57078" lon="-2.57942">
        <ele>2</ele>
        <time>2025-09-30T10:04:38Z</time>
      </trkpt>
      <trkpt lat="48.57078" lon="-2.57942">
        <ele>1.8</ele>
        <time>2025-09-30T10:04:42Z</time>
      </trkpt>
      <trkpt lat="48.57078" lon="-2.57942">
        <ele>1.8</ele>
        <time>2025-09-30T10:04:52Z</time>
      </trkpt>
      <trkpt lat="48.57079" lon="-2.57943">
        <ele>1.8</ele>
        <time>2025-09-30T10:04:58Z</time>
      </trkpt>
      <trkpt lat="48.57079" lon="-2.57943">
        <ele>1.8</ele>
        <time>2025-09-30T10:05:05Z</time>
      </trkpt>
      <trkpt lat="48.57079" lon="-2.57941">
        <ele>1.8</ele>
        <time>2025-09-30T10:05:11Z</time>
      </trkpt>
      <trkpt lat="48.57079" lon="-2.57936">
        <ele>1.8</ele>
        <time>2025-09-30T10:05:18Z</time>
      </trkpt>
      <trkpt lat="48.57081" lon="-2.57936">
        <ele>1.8</ele>
        <time>2025-09-30T10:05:21Z</time>
      </trkpt>
      <trkpt lat="48.57083" lon="-2.57937">
        <ele>1.8</ele>
        <time>2025-09-30T10:05:24Z</time>
      </trkpt>
      <trkpt lat="48.57082" lon="-2.57933">
        <ele>1.8</ele>
        <time>2025-09-30T10:05:29Z</time>
      </trkpt>
      <trkpt lat="48.57082" lon="-2.57933">
        <ele>1.8</ele>
        <time>2025-09-30T10:05:36Z</time>
      </trkpt>
      <trkpt lat="48.57082" lon="-2.57933">
        <ele>1.8</ele>
        <time>2025-09-30T10:05:48Z</time>
      </trkpt>
      <trkpt lat="48.57082" lon="-2.57933">
        <ele>1.8</ele>
        <time>2025-09-30T10:05:54Z</time>
      </trkpt>
      <trkpt lat="48.57082" lon="-2.57933">
        <ele>1.8</ele>
        <time>2025-09-30T10:05:57Z</time>
      </trkpt>
      <trkpt lat="48.57082" lon="-2.57933">
        <ele>1.8</ele>
        <time>2025-09-30T10:05:59Z</time>
      </trkpt>
      <trkpt lat="48.57082" lon="-2.57933">
        <ele>1.8</ele>
        <time>2025-09-30T10:06:01Z</time>
      </trkpt>
      <trkpt lat="48.57082" lon="-2.57933">
        <ele>1.8</ele>
        <time>2025-09-30T10:06:12Z</time>
      </trkpt>
      <trkpt lat="48.57082" lon="-2.57933">
        <ele>1.8</ele>
        <time>2025-09-30T10:06:21Z</time>
      </trkpt>
      <trkpt lat="48.57082" lon="-2.57933">
        <ele>1.8</ele>
        <time>2025-09-30T10:06:22Z</time>
      </trkpt>
      <trkpt lat="48.57082" lon="-2.57933">
        <ele>1.8</ele>
        <time>2025-09-30T10:06:32Z</time>
      </trkpt>
      <trkpt lat="48.57082" lon="-2.57933">
        <ele>1.8</ele>
        <time>2025-09-30T10:06:48Z</time>
      </trkpt>
      <trkpt lat="48.57081" lon="-2.57932">
        <ele>1.8</ele>
        <time>2025-09-30T10:06:53Z</time>
      </trkpt>
      <trkpt lat="48.57076" lon="-2.57929">
        <ele>1.8</ele>
        <time>2025-09-30T10:06:56Z</time>
      </trkpt>
      <trkpt lat="48.5707" lon="-2.57914">
        <ele>2.6</ele>
        <time>2025-09-30T10:07:01Z</time>
      </trkpt>
      <trkpt lat="48.57068" lon="-2.57907">
        <ele>2.8</ele>
        <time>2025-09-30T10:07:03Z</time>
      </trkpt>
      <trkpt lat="48.57066" lon="-2.5789">
        <ele>4</ele>
        <time>2025-09-30T10:07:08Z</time>
      </trkpt>
      <trkpt lat="48.57073" lon="-2.57878">
        <ele>4.8</ele>
        <time>2025-09-30T10:07:13Z</time>
      </trkpt>
      <trkpt lat="48.5708" lon="-2.57873">
        <ele>5.2</ele>
        <time>2025-09-30T10:07:16Z</time>
      </trkpt>
      <trkpt lat="48.57093" lon="-2.57864">
        <ele>6.2</ele>
        <time>2025-09-30T10:07:21Z</time>
      </trkpt>
      <trkpt lat="48.57095" lon="-2.57863">
        <ele>6.4</ele>
        <time>2025-09-30T10:07:22Z</time>
      </trkpt>
      <trkpt lat="48.57095" lon="-2.57863">
        <ele>6.8</ele>
        <time>2025-09-30T10:07:24Z</time>
      </trkpt>
      <trkpt lat="48.57099" lon="-2.57861">
        <ele>7.4</ele>
        <time>2025-09-30T10:07:30Z</time>
      </trkpt>
      <trkpt lat="48.57103" lon="-2.57859">
        <ele>7.8</ele>
        <time>2025-09-30T10:07:32Z</time>
      </trkpt>
      <trkpt lat="48.57113" lon="-2.57852">
        <ele>8.6</ele>
        <time>2025-09-30T10:07:35Z</time>
      </trkpt>
      <trkpt lat="48.57122" lon="-2.57844">
        <ele>9.2</ele>
        <time>2025-09-30T10:07:38Z</time>
      </trkpt>
      <trkpt lat="48.57128" lon="-2.57837">
        <ele>9.8</ele>
        <time>2025-09-30T10:07:40Z</time>
      </trkpt>
      <trkpt lat="48.57137" lon="-2.57825">
        <ele>10.8</ele>
        <time>2025-09-30T10:07:44Z</time>
      </trkpt>
      <trkpt lat="48.57139" lon="-2.57822">
        <ele>11</ele>
        <time>2025-09-30T10:07:45Z</time>
      </trkpt>
      <trkpt lat="48.57144" lon="-2.57816">
        <ele>12</ele>
        <time>2025-09-30T10:07:47Z</time>
      </trkpt>
      <trkpt lat="48.57149" lon="-2.57809">
        <ele>12.4</ele>
        <time>2025-09-30T10:07:49Z</time>
      </trkpt>
      <trkpt lat="48.57155" lon="-2.57799">
        <ele>13.2</ele>
        <time>2025-09-30T10:07:52Z</time>
      </trkpt>
      <trkpt lat="48.57161" lon="-2.5779">
        <ele>14.2</ele>
        <time>2025-09-30T10:07:55Z</time>
      </trkpt>
      <trkpt lat="48.57165" lon="-2.57785">
        <ele>14.6</ele>
        <time>2025-09-30T10:07:57Z</time>
      </trkpt>
      <trkpt lat="48.5717" lon="-2.57774">
        <ele>15.2</ele>
        <time>2025-09-30T10:08:00Z</time>
      </trkpt>
      <trkpt lat="48.57178" lon="-2.57755">
        <ele>16.2</ele>
        <time>2025-09-30T10:08:04Z</time>
      </trkpt>
      <trkpt lat="48.57179" lon="-2.57751">
        <ele>16.6</ele>
        <time>2025-09-30T10:08:05Z</time>
      </trkpt>
      <trkpt lat="48.57188" lon="-2.57725">
        <ele>17.4</ele>
        <time>2025-09-30T10:08:10Z</time>
      </trkpt>
      <trkpt lat="48.57192" lon="-2.57715">
        <ele>17.6</ele>
        <time>2025-09-30T10:08:12Z</time>
      </trkpt>
      <trkpt lat="48.57196" lon="-2.57699">
        <ele>18</ele>
        <time>2025-09-30T10:08:15Z</time>
      </trkpt>
      <trkpt lat="48.57199" lon="-2.57687">
        <ele>18.4</ele>
        <time>2025-09-30T10:08:17Z</time>
      </trkpt>
      <trkpt lat="48.57201" lon="-2.57671">
        <ele>18.6</ele>
        <time>2025-09-30T10:08:20Z</time>
      </trkpt>
      <trkpt lat="48.57204" lon="-2.57644">
        <ele>18.6</ele>
        <time>2025-09-30T10:08:25Z</time>
      </trkpt>
      <trkpt lat="48.57197" lon="-2.57615">
        <ele>17.8</ele>
        <time>2025-09-30T10:08:30Z</time>
      </trkpt>
      <trkpt lat="48.5719" lon="-2.57595">
        <ele>17</ele>
        <time>2025-09-30T10:08:33Z</time>
      </trkpt>
      <trkpt lat="48.5718" lon="-2.57572">
        <ele>15.6</ele>
        <time>2025-09-30T10:08:37Z</time>
      </trkpt>
      <trkpt lat="48.57163" lon="-2.57533">
        <ele>14.6</ele>
        <time>2025-09-30T10:08:43Z</time>
      </trkpt>
      <trkpt lat="48.5716" lon="-2.57526">
        <ele>14.4</ele>
        <time>2025-09-30T10:08:44Z</time>
      </trkpt>
      <trkpt lat="48.57142" lon="-2.57474">
        <ele>13.6</ele>
        <time>2025-09-30T10:08:50Z</time>
      </trkpt>
      <trkpt lat="48.57139" lon="-2.57465">
        <ele>13.4</ele>
        <time>2025-09-30T10:08:51Z</time>
      </trkpt>
      <trkpt lat="48.57135" lon="-2.57445">
        <ele>13</ele>
        <time>2025-09-30T10:08:53Z</time>
      </trkpt>
      <trkpt lat="48.57134" lon="-2.57435">
        <ele>12.6</ele>
        <time>2025-09-30T10:08:54Z</time>
      </trkpt>
      <trkpt lat="48.57133" lon="-2.57425">
        <ele>12</ele>
        <time>2025-09-30T10:08:55Z</time>
      </trkpt>
      <trkpt lat="48.57133" lon="-2.57414">
        <ele>11.6</ele>
        <time>2025-09-30T10:08:56Z</time>
      </trkpt>
      <trkpt lat="48.57138" lon="-2.57375">
        <ele>11</ele>
        <time>2025-09-30T10:09:00Z</time>
      </trkpt>
      <trkpt lat="48.57141" lon="-2.57358">
        <ele>10.6</ele>
        <time>2025-09-30T10:09:02Z</time>
      </trkpt>
      <trkpt lat="48.57147" lon="-2.57323">
        <ele>9.8</ele>
        <time>2025-09-30T10:09:06Z</time>
      </trkpt>
      <trkpt lat="48.57152" lon="-2.57307">
        <ele>9.6</ele>
        <time>2025-09-30T10:09:08Z</time>
      </trkpt>
      <trkpt lat="48.57159" lon="-2.57294">
        <ele>9.4</ele>
        <time>2025-09-30T10:09:10Z</time>
      </trkpt>
      <trkpt lat="48.57164" lon="-2.5729">
        <ele>9.2</ele>
        <time>2025-09-30T10:09:11Z</time>
      </trkpt>
      <trkpt lat="48.57198" lon="-2.57263">
        <ele>8.8</ele>
        <time>2025-09-30T10:09:18Z</time>
      </trkpt>
      <trkpt lat="48.57203" lon="-2.57259">
        <ele>8.6</ele>
        <time>2025-09-30T10:09:19Z</time>
      </trkpt>
      <trkpt lat="48.57245" lon="-2.57222">
        <ele>8.4</ele>
        <time>2025-09-30T10:09:28Z</time>
      </trkpt>
      <trkpt lat="48.57285" lon="-2.57182">
        <ele>8.6</ele>
        <time>2025-09-30T10:09:37Z</time>
      </trkpt>
      <trkpt lat="48.57317" lon="-2.57153">
        <ele>9</ele>
        <time>2025-09-30T10:09:44Z</time>
      </trkpt>
      <trkpt lat="48.57338" lon="-2.57136">
        <ele>9.8</ele>
        <time>2025-09-30T10:09:49Z</time>
      </trkpt>
      <trkpt lat="48.57343" lon="-2.57133">
        <ele>10</ele>
        <time>2025-09-30T10:09:50Z</time>
      </trkpt>
      <trkpt lat="48.57347" lon="-2.5713">
        <ele>10.2</ele>
        <time>2025-09-30T10:09:51Z</time>
      </trkpt>
      <trkpt lat="48.57355" lon="-2.57123">
        <ele>10.8</ele>
        <time>2025-09-30T10:09:53Z</time>
      </trkpt>
      <trkpt lat="48.57357" lon="-2.5712">
        <ele>11</ele>
        <time>2025-09-30T10:09:54Z</time>
      </trkpt>
      <trkpt lat="48.57359" lon="-2.57115">
        <ele>11.2</ele>
        <time>2025-09-30T10:09:55Z</time>
      </trkpt>
      <trkpt lat="48.57359" lon="-2.5711">
        <ele>11.4</ele>
        <time>2025-09-30T10:09:56Z</time>
      </trkpt>
      <trkpt lat="48.57355" lon="-2.57066">
        <ele>10.2</ele>
        <time>2025-09-30T10:10:03Z</time>
      </trkpt>
      <trkpt lat="48.57354" lon="-2.57059">
        <ele>9.8</ele>
        <time>2025-09-30T10:10:04Z</time>
      </trkpt>
      <trkpt lat="48.57351" lon="-2.57037">
        <ele>8.6</ele>
        <time>2025-09-30T10:10:07Z</time>
      </trkpt>
      <trkpt lat="48.57346" lon="-2.57015">
        <ele>7.4</ele>
        <time>2025-09-30T10:10:10Z</time>
      </trkpt>
      <trkpt lat="48.57343" lon="-2.57007">
        <ele>6.6</ele>
        <time>2025-09-30T10:10:11Z</time>
      </trkpt>
      <trkpt lat="48.57341" lon="-2.57">
        <ele>6.2</ele>
        <time>2025-09-30T10:10:12Z</time>
      </trkpt>
      <trkpt lat="48.57337" lon="-2.56985">
        <ele>5</ele>
        <time>2025-09-30T10:10:14Z</time>
      </trkpt>
      <trkpt lat="48.5733" lon="-2.56966">
        <ele>4</ele>
        <time>2025-09-30T10:10:17Z</time>
      </trkpt>
      <trkpt lat="48.57327" lon="-2.56958">
        <ele>3.8</ele>
        <time>2025-09-30T10:10:18Z</time>
      </trkpt>
      <trkpt lat="48.57325" lon="-2.56952">
        <ele>3.4</ele>
        <time>2025-09-30T10:10:19Z</time>
      </trkpt>
      <trkpt lat="48.57324" lon="-2.56937">
        <ele>2.8</ele>
        <time>2025-09-30T10:10:21Z</time>
      </trkpt>
      <trkpt lat="48.57326" lon="-2.5693">
        <ele>2.4</ele>
        <time>2025-09-30T10:10:22Z</time>
      </trkpt>
      <trkpt lat="48.57329" lon="-2.56923">
        <ele>2.2</ele>
        <time>2025-09-30T10:10:23Z</time>
      </trkpt>
      <trkpt lat="48.57336" lon="-2.56911">
        <ele>1.8</ele>
        <time>2025-09-30T10:10:25Z</time>
      </trkpt>
      <trkpt lat="48.5734" lon="-2.56905">
        <ele>1.8</ele>
        <time>2025-09-30T10:10:26Z</time>
      </trkpt>
      <trkpt lat="48.57344" lon="-2.569">
        <ele>1.4</ele>
        <time>2025-09-30T10:10:27Z</time>
      </trkpt>
      <trkpt lat="48.57376" lon="-2.56855">
        <ele>1</ele>
        <time>2025-09-30T10:10:35Z</time>
      </trkpt>
      <trkpt lat="48.57379" lon="-2.56849">
        <ele>1</ele>
        <time>2025-09-30T10:10:36Z</time>
      </trkpt>
      <trkpt lat="48.57387" lon="-2.56828">
        <ele>0.60000000000002</ele>
        <time>2025-09-30T10:10:39Z</time>
      </trkpt>
      <trkpt lat="48.57389" lon="-2.56821">
        <ele>0.60000000000002</ele>
        <time>2025-09-30T10:10:40Z</time>
      </trkpt>
      <trkpt lat="48.57392" lon="-2.56814">
        <ele>0.39999999999998</ele>
        <time>2025-09-30T10:10:41Z</time>
      </trkpt>
      <trkpt lat="48.574" lon="-2.56804">
        <ele>0.39999999999998</ele>
        <time>2025-09-30T10:10:43Z</time>
      </trkpt>
      <trkpt lat="48.57404" lon="-2.56801">
        <ele>0.39999999999998</ele>
        <time>2025-09-30T10:10:44Z</time>
      </trkpt>
      <trkpt lat="48.57426" lon="-2.56783">
        <ele>-0.39999999999998</ele>
        <time>2025-09-30T10:10:49Z</time>
      </trkpt>
      <trkpt lat="48.57447" lon="-2.56768">
        <ele>-0.39999999999998</ele>
        <time>2025-09-30T10:10:53Z</time>
      </trkpt>
      <trkpt lat="48.57477" lon="-2.56745">
        <ele>-1.4</ele>
        <time>2025-09-30T10:10:59Z</time>
      </trkpt>
      <trkpt lat="48.57487" lon="-2.56737">
        <ele>-1.4</ele>
        <time>2025-09-30T10:11:01Z</time>
      </trkpt>
      <trkpt lat="48.57527" lon="-2.56707">
        <ele>-1.4</ele>
        <time>2025-09-30T10:11:09Z</time>
      </trkpt>
      <trkpt lat="48.57547" lon="-2.56692">
        <ele>-1.4</ele>
        <time>2025-09-30T10:11:13Z</time>
      </trkpt>
      <trkpt lat="48.57575" lon="-2.56672">
        <ele>-1.2</ele>
        <time>2025-09-30T10:11:19Z</time>
      </trkpt>
      <trkpt lat="48.57579" lon="-2.56671">
        <ele>-1.2</ele>
        <time>2025-09-30T10:11:20Z</time>
      </trkpt>
      <trkpt lat="48.57604" lon="-2.56667">
        <ele>-1</ele>
        <time>2025-09-30T10:11:25Z</time>
      </trkpt>
      <trkpt lat="48.57613" lon="-2.56665">
        <ele>-0.80000000000001</ele>
        <time>2025-09-30T10:11:27Z</time>
      </trkpt>
      <trkpt lat="48.57616" lon="-2.56663">
        <ele>-1</ele>
        <time>2025-09-30T10:11:28Z</time>
      </trkpt>
      <trkpt lat="48.57619" lon="-2.56661">
        <ele>-1.2</ele>
        <time>2025-09-30T10:11:30Z</time>
      </trkpt>
      <trkpt lat="48.5762" lon="-2.56661">
        <ele>-1.4</ele>
        <time>2025-09-30T10:11:31Z</time>
      </trkpt>
      <trkpt lat="48.57619" lon="-2.56663">
        <ele>-1.4</ele>
        <time>2025-09-30T10:11:35Z</time>
      </trkpt>
      <trkpt lat="48.57617" lon="-2.56665">
        <ele>-1.2</ele>
        <time>2025-09-30T10:11:36Z</time>
      </trkpt>
      <trkpt lat="48.57601" lon="-2.56671">
        <ele>-1</ele>
        <time>2025-09-30T10:11:40Z</time>
      </trkpt>
      <trkpt lat="48.5758" lon="-2.5667">
        <ele>-1.2</ele>
        <time>2025-09-30T10:11:44Z</time>
      </trkpt>
      <trkpt lat="48.57572" lon="-2.56665">
        <ele>-1.2</ele>
        <time>2025-09-30T10:11:46Z</time>
      </trkpt>
      <trkpt lat="48.57566" lon="-2.56656">
        <ele>-1.2</ele>
        <time>2025-09-30T10:11:48Z</time>
      </trkpt>
      <trkpt lat="48.57562" lon="-2.56644">
        <ele>-1.2</ele>
        <time>2025-09-30T10:11:50Z</time>
      </trkpt>
      <trkpt lat="48.57555" lon="-2.56624">
        <ele>-0.80000000000001</ele>
        <time>2025-09-30T10:11:53Z</time>
      </trkpt>
      <trkpt lat="48.57552" lon="-2.56605">
        <ele>-0.80000000000001</ele>
        <time>2025-09-30T10:11:56Z</time>
      </trkpt>
      <trkpt lat="48.57554" lon="-2.56567">
        <ele>-0.60000000000002</ele>
        <time>2025-09-30T10:12:02Z</time>
      </trkpt>
      <trkpt lat="48.57561" lon="-2.56525">
        <ele>-0.39999999999998</ele>
        <time>2025-09-30T10:12:09Z</time>
      </trkpt>
      <trkpt lat="48.57564" lon="-2.56513">
        <ele>-0.19999999999999</ele>
        <time>2025-09-30T10:12:11Z</time>
      </trkpt>
      <trkpt lat="48.57571" lon="-2.56484">
        <ele>-0.39999999999998</ele>
        <time>2025-09-30T10:12:16Z</time>
      </trkpt>
      <trkpt lat="48.57574" lon="-2.56471">
        <ele>-0.39999999999998</ele>
        <time>2025-09-30T10:12:18Z</time>
      </trkpt>
      <trkpt lat="48.57587" lon="-2.5642">
        <ele>-0.39999999999998</ele>
        <time>2025-09-30T10:12:26Z</time>
      </trkpt>
      <trkpt lat="48.57592" lon="-2.56393">
        <ele>-0.39999999999998</ele>
        <time>2025-09-30T10:12:30Z</time>
      </trkpt>
      <trkpt lat="48.57594" lon="-2.56387">
        <ele>-0.39999999999998</ele>
        <time>2025-09-30T10:12:31Z</time>
      </trkpt>
      <trkpt lat="48.57595" lon="-2.56382">
        <ele>-0.39999999999998</ele>
        <time>2025-09-30T10:12:32Z</time>
      </trkpt>
      <trkpt lat="48.57598" lon="-2.5637">
        <ele>-0.60000000000002</ele>
        <time>2025-09-30T10:12:34Z</time>
      </trkpt>
      <trkpt lat="48.57601" lon="-2.56363">
        <ele>-0.60000000000002</ele>
        <time>2025-09-30T10:12:35Z</time>
      </trkpt>
      <trkpt lat="48.57607" lon="-2.56355">
        <ele>-0.80000000000001</ele>
        <time>2025-09-30T10:12:37Z</time>
      </trkpt>
      <trkpt lat="48.57611" lon="-2.56353">
        <ele>-0.80000000000001</ele>
        <time>2025-09-30T10:12:38Z</time>
      </trkpt>
      <trkpt lat="48.57614" lon="-2.56351">
        <ele>-0.80000000000001</ele>
        <time>2025-09-30T10:12:39Z</time>
      </trkpt>
      <trkpt lat="48.57628" lon="-2.5635">
        <ele>-0.80000000000001</ele>
        <time>2025-09-30T10:12:42Z</time>
      </trkpt>
      <trkpt lat="48.57632" lon="-2.56352">
        <ele>-0.80000000000001</ele>
        <time>2025-09-30T10:12:43Z</time>
      </trkpt>
      <trkpt lat="48.57636" lon="-2.56354">
        <ele>-0.60000000000002</ele>
        <time>2025-09-30T10:12:44Z</time>
      </trkpt>
      <trkpt lat="48.57647" lon="-2.5636">
        <ele>-0.60000000000002</ele>
        <time>2025-09-30T10:12:47Z</time>
      </trkpt>
      <trkpt lat="48.57654" lon="-2.56364">
        <ele>-0.60000000000002</ele>
        <time>2025-09-30T10:12:49Z</time>
      </trkpt>
      <trkpt lat="48.57658" lon="-2.56366">
        <ele>-0.60000000000002</ele>
        <time>2025-09-30T10:12:50Z</time>
      </trkpt>
      <trkpt lat="48.57698" lon="-2.56388">
        <ele>-0.39999999999998</ele>
        <time>2025-09-30T10:13:00Z</time>
      </trkpt>
      <trkpt lat="48.57735" lon="-2.56416">
        <ele>-0.39999999999998</ele>
        <time>2025-09-30T10:13:09Z</time>
      </trkpt>
      <trkpt lat="48.57743" lon="-2.5642">
        <ele>-0.39999999999998</ele>
        <time>2025-09-30T10:13:11Z</time>
      </trkpt>
      <trkpt lat="48.57753" lon="-2.56423">
        <ele>-0.39999999999998</ele>
        <time>2025-09-30T10:13:13Z</time>
      </trkpt>
      <trkpt lat="48.57757" lon="-2.56423">
        <ele>-0.39999999999998</ele>
        <time>2025-09-30T10:13:14Z</time>
      </trkpt>
      <trkpt lat="48.57761" lon="-2.56421">
        <ele>-0.19999999999999</ele>
        <time>2025-09-30T10:13:15Z</time>
      </trkpt>
      <trkpt lat="48.57764" lon="-2.56418">
        <ele>-0.19999999999999</ele>
        <time>2025-09-30T10:13:16Z</time>
      </trkpt>
      <trkpt lat="48.57772" lon="-2.56406">
        <ele>-0.19999999999999</ele>
        <time>2025-09-30T10:13:18Z</time>
      </trkpt>
      <trkpt lat="48.57773" lon="-2.56403">
        <ele>-0.19999999999999</ele>
        <time>2025-09-30T10:13:19Z</time>
      </trkpt>
      <trkpt lat="48.57779" lon="-2.56386">
        <ele>-0.19999999999999</ele>
        <time>2025-09-30T10:13:24Z</time>
      </trkpt>
      <trkpt lat="48.5778" lon="-2.56382">
        <ele>-0.19999999999999</ele>
        <time>2025-09-30T10:13:29Z</time>
      </trkpt>
      <trkpt lat="48.57786" lon="-2.56371">
        <ele>-0.19999999999999</ele>
        <time>2025-09-30T10:13:33Z</time>
      </trkpt>
      <trkpt lat="48.57801" lon="-2.56351">
        <ele>-0.39999999999998</ele>
        <time>2025-09-30T10:13:38Z</time>
      </trkpt>
      <trkpt lat="48.57821" lon="-2.56331">
        <ele>-0.60000000000002</ele>
        <time>2025-09-30T10:13:43Z</time>
      </trkpt>
      <trkpt lat="48.57826" lon="-2.56327">
        <ele>-0.80000000000001</ele>
        <time>2025-09-30T10:13:44Z</time>
      </trkpt>
      <trkpt lat="48.57837" lon="-2.56316">
        <ele>-1</ele>
        <time>2025-09-30T10:13:47Z</time>
      </trkpt>
      <trkpt lat="48.57856" lon="-2.56298">
        <ele>-0.80000000000001</ele>
        <time>2025-09-30T10:13:52Z</time>
      </trkpt>
      <trkpt lat="48.57878" lon="-2.56284">
        <ele>-0.60000000000002</ele>
        <time>2025-09-30T10:13:59Z</time>
      </trkpt>
      <trkpt lat="48.57911" lon="-2.56287">
        <ele>-0.39999999999998</ele>
        <time>2025-09-30T10:14:07Z</time>
      </trkpt>
      <trkpt lat="48.57928" lon="-2.56285">
        <ele>-0.39999999999998</ele>
        <time>2025-09-30T10:14:11Z</time>
      </trkpt>
      <trkpt lat="48.57937" lon="-2.56282">
        <ele>-0.39999999999998</ele>
        <time>2025-09-30T10:14:13Z</time>
      </trkpt>
      <trkpt lat="48.57941" lon="-2.56279">
        <ele>-0.39999999999998</ele>
        <time>2025-09-30T10:14:14Z</time>
      </trkpt>
      <trkpt lat="48.57952" lon="-2.56269">
        <ele>-0.39999999999998</ele>
        <time>2025-09-30T10:14:17Z</time>
      </trkpt>
      <trkpt lat="48.57958" lon="-2.5626">
        <ele>-0.39999999999998</ele>
        <time>2025-09-30T10:14:19Z</time>
      </trkpt>
      <trkpt lat="48.57977" lon="-2.56212">
        <ele>-0.39999999999998</ele>
        <time>2025-09-30T10:14:27Z</time>
      </trkpt>
      <trkpt lat="48.57986" lon="-2.56165">
        <ele>-0.39999999999998</ele>
        <time>2025-09-30T10:14:33Z</time>
      </trkpt>
      <trkpt lat="48.57988" lon="-2.56097">
        <ele>-0.60000000000002</ele>
        <time>2025-09-30T10:14:42Z</time>
      </trkpt>
      <trkpt lat="48.57992" lon="-2.56011">
        <ele>-0.19999999999999</ele>
        <time>2025-09-30T10:14:53Z</time>
      </trkpt>
      <trkpt lat="48.57992" lon="-2.56003">
        <ele>-0.19999999999999</ele>
        <time>2025-09-30T10:14:54Z</time>
      </trkpt>
      <trkpt lat="48.57988" lon="-2.55941">
        <ele>0.80000000000001</ele>
        <time>2025-09-30T10:15:02Z</time>
      </trkpt>
      <trkpt lat="48.57988" lon="-2.55926">
        <ele>1</ele>
        <time>2025-09-30T10:15:04Z</time>
      </trkpt>
      <trkpt lat="48.5799" lon="-2.55882">
        <ele>1.8</ele>
        <time>2025-09-30T10:15:10Z</time>
      </trkpt>
      <trkpt lat="48.57993" lon="-2.55868">
        <ele>2</ele>
        <time>2025-09-30T10:15:12Z</time>
      </trkpt>
      <trkpt lat="48.58001" lon="-2.55835">
        <ele>3</ele>
        <time>2025-09-30T10:15:17Z</time>
      </trkpt>
      <trkpt lat="48.5801" lon="-2.55802">
        <ele>3.6</ele>
        <time>2025-09-30T10:15:22Z</time>
      </trkpt>
      <trkpt lat="48.58015" lon="-2.55782">
        <ele>4</ele>
        <time>2025-09-30T10:15:25Z</time>
      </trkpt>
      <trkpt lat="48.58025" lon="-2.55752">
        <ele>4.8</ele>
        <time>2025-09-30T10:15:30Z</time>
      </trkpt>
      <trkpt lat="48.58027" lon="-2.55746">
        <ele>4.8</ele>
        <time>2025-09-30T10:15:31Z</time>
      </trkpt>
      <trkpt lat="48.5803" lon="-2.55741">
        <ele>5</ele>
        <time>2025-09-30T10:15:32Z</time>
      </trkpt>
      <trkpt lat="48.58044" lon="-2.55706">
        <ele>6.2</ele>
        <time>2025-09-30T10:15:38Z</time>
      </trkpt>
      <trkpt lat="48.58052" lon="-2.55686">
        <ele>6.6</ele>
        <time>2025-09-30T10:15:41Z</time>
      </trkpt>
      <trkpt lat="48.58059" lon="-2.5567">
        <ele>7.2</ele>
        <time>2025-09-30T10:15:44Z</time>
      </trkpt>
      <trkpt lat="48.58069" lon="-2.55641">
        <ele>8</ele>
        <time>2025-09-30T10:15:49Z</time>
      </trkpt>
      <trkpt lat="48.58071" lon="-2.55635">
        <ele>8</ele>
        <time>2025-09-30T10:15:50Z</time>
      </trkpt>
      <trkpt lat="48.58074" lon="-2.55623">
        <ele>8.2</ele>
        <time>2025-09-30T10:15:52Z</time>
      </trkpt>
      <trkpt lat="48.58077" lon="-2.55607">
        <ele>8.8</ele>
        <time>2025-09-30T10:15:55Z</time>
      </trkpt>
      <trkpt lat="48.5808" lon="-2.55594">
        <ele>9</ele>
        <time>2025-09-30T10:15:57Z</time>
      </trkpt>
      <trkpt lat="48.58082" lon="-2.5559">
        <ele>9</ele>
        <time>2025-09-30T10:15:58Z</time>
      </trkpt>
      <trkpt lat="48.58086" lon="-2.55579">
        <ele>9.2</ele>
        <time>2025-09-30T10:16:01Z</time>
      </trkpt>
      <trkpt lat="48.58087" lon="-2.55575">
        <ele>9.2</ele>
        <time>2025-09-30T10:16:03Z</time>
      </trkpt>
      <trkpt lat="48.5809" lon="-2.55565">
        <ele>9.4</ele>
        <time>2025-09-30T10:16:06Z</time>
      </trkpt>
      <trkpt lat="48.58099" lon="-2.55555">
        <ele>9.6</ele>
        <time>2025-09-30T10:16:09Z</time>
      </trkpt>
      <trkpt lat="48.58102" lon="-2.55554">
        <ele>9.6</ele>
        <time>2025-09-30T10:16:10Z</time>
      </trkpt>
      <trkpt lat="48.58116" lon="-2.55566">
        <ele>9.6</ele>
        <time>2025-09-30T10:16:14Z</time>
      </trkpt>
      <trkpt lat="48.58135" lon="-2.55577">
        <ele>9.2</ele>
        <time>2025-09-30T10:16:18Z</time>
      </trkpt>
      <trkpt lat="48.5814" lon="-2.55578">
        <ele>9.2</ele>
        <time>2025-09-30T10:16:19Z</time>
      </trkpt>
      <trkpt lat="48.58155" lon="-2.55581">
        <ele>8</ele>
        <time>2025-09-30T10:16:21Z</time>
      </trkpt>
      <trkpt lat="48.58168" lon="-2.5558">
        <ele>6.6</ele>
        <time>2025-09-30T10:16:23Z</time>
      </trkpt>
      <trkpt lat="48.58183" lon="-2.5558">
        <ele>5.6</ele>
        <time>2025-09-30T10:16:25Z</time>
      </trkpt>
      <trkpt lat="48.58199" lon="-2.55581">
        <ele>4.6</ele>
        <time>2025-09-30T10:16:27Z</time>
      </trkpt>
      <trkpt lat="48.58225" lon="-2.55581">
        <ele>3</ele>
        <time>2025-09-30T10:16:30Z</time>
      </trkpt>
      <trkpt lat="48.58255" lon="-2.55576">
        <ele>2</ele>
        <time>2025-09-30T10:16:34Z</time>
      </trkpt>
      <trkpt lat="48.58264" lon="-2.55576">
        <ele>1.8</ele>
        <time>2025-09-30T10:16:35Z</time>
      </trkpt>
      <trkpt lat="48.58306" lon="-2.55576">
        <ele>1.2</ele>
        <time>2025-09-30T10:16:41Z</time>
      </trkpt>
      <trkpt lat="48.58329" lon="-2.55579">
        <ele>1.2</ele>
        <time>2025-09-30T10:16:45Z</time>
      </trkpt>
      <trkpt lat="48.58334" lon="-2.55581">
        <ele>1.2</ele>
        <time>2025-09-30T10:16:46Z</time>
      </trkpt>
      <trkpt lat="48.58359" lon="-2.55593">
        <ele>1.4</ele>
        <time>2025-09-30T10:16:50Z</time>
      </trkpt>
      <trkpt lat="48.58369" lon="-2.55602">
        <ele>1.6</ele>
        <time>2025-09-30T10:16:52Z</time>
      </trkpt>
      <trkpt lat="48.58402" lon="-2.55638">
        <ele>3</ele>
        <time>2025-09-30T10:16:59Z</time>
      </trkpt>
      <trkpt lat="48.58412" lon="-2.5565">
        <ele>3.6</ele>
        <time>2025-09-30T10:17:01Z</time>
      </trkpt>
      <trkpt lat="48.58417" lon="-2.55655">
        <ele>4.2</ele>
        <time>2025-09-30T10:17:02Z</time>
      </trkpt>
      <trkpt lat="48.5843" lon="-2.55669">
        <ele>5.2</ele>
        <time>2025-09-30T10:17:05Z</time>
      </trkpt>
      <trkpt lat="48.58442" lon="-2.55681">
        <ele>6.2</ele>
        <time>2025-09-30T10:17:08Z</time>
      </trkpt>
      <trkpt lat="48.58446" lon="-2.55685">
        <ele>6.4</ele>
        <time>2025-09-30T10:17:09Z</time>
      </trkpt>
      <trkpt lat="48.58455" lon="-2.55693">
        <ele>6.6</ele>
        <time>2025-09-30T10:17:11Z</time>
      </trkpt>
      <trkpt lat="48.58478" lon="-2.55708">
        <ele>6.4</ele>
        <time>2025-09-30T10:17:16Z</time>
      </trkpt>
      <trkpt lat="48.58495" lon="-2.55716">
        <ele>5.6</ele>
        <time>2025-09-30T10:17:19Z</time>
      </trkpt>
      <trkpt lat="48.58512" lon="-2.55723">
        <ele>5.4</ele>
        <time>2025-09-30T10:17:22Z</time>
      </trkpt>
      <trkpt lat="48.58518" lon="-2.55726">
        <ele>5.2</ele>
        <time>2025-09-30T10:17:23Z</time>
      </trkpt>
      <trkpt lat="48.58538" lon="-2.55737">
        <ele>4.2</ele>
        <time>2025-09-30T10:17:27Z</time>
      </trkpt>
      <trkpt lat="48.58543" lon="-2.55739">
        <ele>4</ele>
        <time>2025-09-30T10:17:28Z</time>
      </trkpt>
      <trkpt lat="48.58551" lon="-2.55741">
        <ele>4</ele>
        <time>2025-09-30T10:17:30Z</time>
      </trkpt>
      <trkpt lat="48.58556" lon="-2.55741">
        <ele>4</ele>
        <time>2025-09-30T10:17:31Z</time>
      </trkpt>
      <trkpt lat="48.58561" lon="-2.5574">
        <ele>3.8</ele>
        <time>2025-09-30T10:17:32Z</time>
      </trkpt>
      <trkpt lat="48.58577" lon="-2.55736">
        <ele>3.6</ele>
        <time>2025-09-30T10:17:35Z</time>
      </trkpt>
      <trkpt lat="48.58581" lon="-2.55735">
        <ele>3.4</ele>
        <time>2025-09-30T10:17:36Z</time>
      </trkpt>
      <trkpt lat="48.58592" lon="-2.55735">
        <ele>3.4</ele>
        <time>2025-09-30T10:17:38Z</time>
      </trkpt>
      <trkpt lat="48.58609" lon="-2.55739">
        <ele>3</ele>
        <time>2025-09-30T10:17:41Z</time>
      </trkpt>
      <trkpt lat="48.58615" lon="-2.55741">
        <ele>2.8</ele>
        <time>2025-09-30T10:17:42Z</time>
      </trkpt>
      <trkpt lat="48.58639" lon="-2.55747">
        <ele>1.8</ele>
        <time>2025-09-30T10:17:46Z</time>
      </trkpt>
      <trkpt lat="48.58656" lon="-2.55752">
        <ele>0.80000000000001</ele>
        <time>2025-09-30T10:17:50Z</time>
      </trkpt>
      <trkpt lat="48.58668" lon="-2.55752">
        <ele>0.39999999999998</ele>
        <time>2025-09-30T10:17:53Z</time>
      </trkpt>
      <trkpt lat="48.58672" lon="-2.55749">
        <ele>0.39999999999998</ele>
        <time>2025-09-30T10:17:54Z</time>
      </trkpt>
      <trkpt lat="48.58675" lon="-2.55746">
        <ele>0.60000000000002</ele>
        <time>2025-09-30T10:17:55Z</time>
      </trkpt>
      <trkpt lat="48.58691" lon="-2.55726">
        <ele>1</ele>
        <time>2025-09-30T10:17:59Z</time>
      </trkpt>
      <trkpt lat="48.58698" lon="-2.55716">
        <ele>1</ele>
        <time>2025-09-30T10:18:01Z</time>
      </trkpt>
      <trkpt lat="48.58704" lon="-2.55707">
        <ele>1</ele>
        <time>2025-09-30T10:18:03Z</time>
      </trkpt>
      <trkpt lat="48.58736" lon="-2.55666">
        <ele>1.8</ele>
        <time>2025-09-30T10:18:12Z</time>
      </trkpt>
      <trkpt lat="48.5874" lon="-2.55662">
        <ele>2</ele>
        <time>2025-09-30T10:18:13Z</time>
      </trkpt>
      <trkpt lat="48.58775" lon="-2.55618">
        <ele>2.4</ele>
        <time>2025-09-30T10:18:22Z</time>
      </trkpt>
      <trkpt lat="48.58782" lon="-2.55609">
        <ele>2.6</ele>
        <time>2025-09-30T10:18:24Z</time>
      </trkpt>
      <trkpt lat="48.5881" lon="-2.55573">
        <ele>2.8</ele>
        <time>2025-09-30T10:18:31Z</time>
      </trkpt>
      <trkpt lat="48.58831" lon="-2.5554">
        <ele>2.8</ele>
        <time>2025-09-30T10:18:38Z</time>
      </trkpt>
      <trkpt lat="48.58834" lon="-2.55536">
        <ele>2.8</ele>
        <time>2025-09-30T10:18:39Z</time>
      </trkpt>
      <trkpt lat="48.58839" lon="-2.55527">
        <ele>3</ele>
        <time>2025-09-30T10:18:42Z</time>
      </trkpt>
      <trkpt lat="48.5884" lon="-2.55521">
        <ele>3</ele>
        <time>2025-09-30T10:18:45Z</time>
      </trkpt>
      <trkpt lat="48.5884" lon="-2.5552">
        <ele>2.8</ele>
        <time>2025-09-30T10:18:46Z</time>
      </trkpt>
      <trkpt lat="48.58842" lon="-2.55516">
        <ele>2.6</ele>
        <time>2025-09-30T10:18:52Z</time>
      </trkpt>
      <trkpt lat="48.58842" lon="-2.55516">
        <ele>2.6</ele>
        <time>2025-09-30T10:18:59Z</time>
      </trkpt>
      <trkpt lat="48.58842" lon="-2.55516">
        <ele>2.6</ele>
        <time>2025-09-30T10:19:08Z</time>
      </trkpt>
      <trkpt lat="48.58842" lon="-2.55516">
        <ele>2.6</ele>
        <time>2025-09-30T10:19:11Z</time>
      </trkpt>
      <trkpt lat="48.58841" lon="-2.55516">
        <ele>2.6</ele>
        <time>2025-09-30T10:19:18Z</time>
      </trkpt>
      <trkpt lat="48.58841" lon="-2.55519">
        <ele>2.6</ele>
        <time>2025-09-30T10:19:20Z</time>
      </trkpt>
      <trkpt lat="48.58841" lon="-2.55523">
        <ele>2.6</ele>
        <time>2025-09-30T10:19:24Z</time>
      </trkpt>
      <trkpt lat="48.58841" lon="-2.55523">
        <ele>2.6</ele>
        <time>2025-09-30T10:19:31Z</time>
      </trkpt>
      <trkpt lat="48.58841" lon="-2.55523">
        <ele>2.6</ele>
        <time>2025-09-30T10:19:38Z</time>
      </trkpt>
      <trkpt lat="48.58841" lon="-2.55523">
        <ele>2.6</ele>
        <time>2025-09-30T10:19:44Z</time>
      </trkpt>
      <trkpt lat="48.58841" lon="-2.55523">
        <ele>2.6</ele>
        <time>2025-09-30T10:19:54Z</time>
      </trkpt>
      <trkpt lat="48.58841" lon="-2.55523">
        <ele>2.6</ele>
        <time>2025-09-30T10:19:56Z</time>
      </trkpt>
      <trkpt lat="48.58841" lon="-2.55523">
        <ele>2.6</ele>
        <time>2025-09-30T10:20:01Z</time>
      </trkpt>
      <trkpt lat="48.58841" lon="-2.55523">
        <ele>2.6</ele>
        <time>2025-09-30T10:20:02Z</time>
      </trkpt>
      <trkpt lat="48.58841" lon="-2.55523">
        <ele>2.6</ele>
        <time>2025-09-30T10:20:03Z</time>
      </trkpt>
      <trkpt lat="48.58841" lon="-2.55523">
        <ele>2.6</ele>
        <time>2025-09-30T10:20:06Z</time>
      </trkpt>
      <trkpt lat="48.58841" lon="-2.55523">
        <ele>2.6</ele>
        <time>2025-09-30T10:20:19Z</time>
      </trkpt>
      <trkpt lat="48.58841" lon="-2.55523">
        <ele>2.6</ele>
        <time>2025-09-30T10:20:30Z</time>
      </trkpt>
      <trkpt lat="48.58841" lon="-2.55523">
        <ele>2.6</ele>
        <time>2025-09-30T10:20:37Z</time>
      </trkpt>
      <trkpt lat="48.58842" lon="-2.55522">
        <ele>2.6</ele>
        <time>2025-09-30T10:20:44Z</time>
      </trkpt>
      <trkpt lat="48.58842" lon="-2.55522">
        <ele>2.6</ele>
        <time>2025-09-30T10:20:54Z</time>
      </trkpt>
      <trkpt lat="48.58842" lon="-2.55522">
        <ele>2.6</ele>
        <time>2025-09-30T10:21:04Z</time>
      </trkpt>
      <trkpt lat="48.58845" lon="-2.55519">
        <ele>2.6</ele>
        <time>2025-09-30T10:21:06Z</time>
      </trkpt>
      <trkpt lat="48.58848" lon="-2.55516">
        <ele>2.6</ele>
        <time>2025-09-30T10:21:08Z</time>
      </trkpt>
      <trkpt lat="48.58855" lon="-2.55513">
        <ele>2.6</ele>
        <time>2025-09-30T10:21:11Z</time>
      </trkpt>
      <trkpt lat="48.58857" lon="-2.55511">
        <ele>2.6</ele>
        <time>2025-09-30T10:21:12Z</time>
      </trkpt>
      <trkpt lat="48.58882" lon="-2.5548">
        <ele>2.8</ele>
        <time>2025-09-30T10:21:21Z</time>
      </trkpt>
      <trkpt lat="48.58908" lon="-2.55446">
        <ele>2.8</ele>
        <time>2025-09-30T10:21:29Z</time>
      </trkpt>
      <trkpt lat="48.58911" lon="-2.55428">
        <ele>2.8</ele>
        <time>2025-09-30T10:21:33Z</time>
      </trkpt>
      <trkpt lat="48.58915" lon="-2.55408">
        <ele>2.6</ele>
        <time>2025-09-30T10:21:38Z</time>
      </trkpt>
      <trkpt lat="48.58916" lon="-2.55402">
        <ele>2.4</ele>
        <time>2025-09-30T10:21:40Z</time>
      </trkpt>
      <trkpt lat="48.58917" lon="-2.55395">
        <ele>2.4</ele>
        <time>2025-09-30T10:21:43Z</time>
      </trkpt>
      <trkpt lat="48.58922" lon="-2.55373">
        <ele>2.2</ele>
        <time>2025-09-30T10:21:50Z</time>
      </trkpt>
      <trkpt lat="48.58924" lon="-2.55348">
        <ele>2</ele>
        <time>2025-09-30T10:21:57Z</time>
      </trkpt>
      <trkpt lat="48.58924" lon="-2.55343">
        <ele>2</ele>
        <time>2025-09-30T10:21:59Z</time>
      </trkpt>
      <trkpt lat="48.58921" lon="-2.5534">
        <ele>2</ele>
        <time>2025-09-30T10:22:01Z</time>
      </trkpt>
      <trkpt lat="48.58908" lon="-2.55346">
        <ele>2.2</ele>
        <time>2025-09-30T10:22:06Z</time>
      </trkpt>
      <trkpt lat="48.589" lon="-2.55346">
        <ele>2.4</ele>
        <time>2025-09-30T10:22:09Z</time>
      </trkpt>
      <trkpt lat="48.58897" lon="-2.55341">
        <ele>2.4</ele>
        <time>2025-09-30T10:22:11Z</time>
      </trkpt>
      <trkpt lat="48.58893" lon="-2.55316">
        <ele>2.8</ele>
        <time>2025-09-30T10:22:17Z</time>
      </trkpt>
      <trkpt lat="48.58889" lon="-2.55284">
        <ele>3</ele>
        <time>2025-09-30T10:22:25Z</time>
      </trkpt>
      <trkpt lat="48.58889" lon="-2.55276">
        <ele>3.2</ele>
        <time>2025-09-30T10:22:27Z</time>
      </trkpt>
      <trkpt lat="48.58889" lon="-2.55273">
        <ele>3.2</ele>
        <time>2025-09-30T10:22:28Z</time>
      </trkpt>
      <trkpt lat="48.58888" lon="-2.55257">
        <ele>3.6</ele>
        <time>2025-09-30T10:22:32Z</time>
      </trkpt>
      <trkpt lat="48.58887" lon="-2.55254">
        <ele>3.6</ele>
        <time>2025-09-30T10:22:33Z</time>
      </trkpt>
      <trkpt lat="48.58885" lon="-2.55239">
        <ele>3.8</ele>
        <time>2025-09-30T10:22:37Z</time>
      </trkpt>
      <trkpt lat="48.58882" lon="-2.55231">
        <ele>4</ele>
        <time>2025-09-30T10:22:40Z</time>
      </trkpt>
      <trkpt lat="48.58871" lon="-2.55219">
        <ele>4.8</ele>
        <time>2025-09-30T10:22:47Z</time>
      </trkpt>
      <trkpt lat="48.58871" lon="-2.55219">
        <ele>4.8</ele>
        <time>2025-09-30T10:22:53Z</time>
      </trkpt>
      <trkpt lat="48.58871" lon="-2.55219">
        <ele>4.8</ele>
        <time>2025-09-30T10:22:57Z</time>
      </trkpt>
      <trkpt lat="48.58871" lon="-2.55219">
        <ele>4.8</ele>
        <time>2025-09-30T10:23:03Z</time>
      </trkpt>
      <trkpt lat="48.58871" lon="-2.55218">
        <ele>4.8</ele>
        <time>2025-09-30T10:23:13Z</time>
      </trkpt>
      <trkpt lat="48.58872" lon="-2.55216">
        <ele>4.8</ele>
        <time>2025-09-30T10:23:14Z</time>
      </trkpt>
      <trkpt lat="48.58878" lon="-2.55212">
        <ele>5</ele>
        <time>2025-09-30T10:23:19Z</time>
      </trkpt>
      <trkpt lat="48.58891" lon="-2.55218">
        <ele>4.6</ele>
        <time>2025-09-30T10:23:24Z</time>
      </trkpt>
      <trkpt lat="48.58909" lon="-2.55228">
        <ele>3.8</ele>
        <time>2025-09-30T10:23:30Z</time>
      </trkpt>
      <trkpt lat="48.58915" lon="-2.55232">
        <ele>3.6</ele>
        <time>2025-09-30T10:23:32Z</time>
      </trkpt>
      <trkpt lat="48.58918" lon="-2.55234">
        <ele>3.6</ele>
        <time>2025-09-30T10:23:33Z</time>
      </trkpt>
      <trkpt lat="48.58946" lon="-2.55251">
        <ele>2.8</ele>
        <time>2025-09-30T10:23:41Z</time>
      </trkpt>
      <trkpt lat="48.58949" lon="-2.55254">
        <ele>2.6</ele>
        <time>2025-09-30T10:23:42Z</time>
      </trkpt>
      <trkpt lat="48.58963" lon="-2.55266">
        <ele>2.4</ele>
        <time>2025-09-30T10:23:46Z</time>
      </trkpt>
      <trkpt lat="48.58971" lon="-2.55273">
        <ele>2.2</ele>
        <time>2025-09-30T10:23:48Z</time>
      </trkpt>
      <trkpt lat="48.58975" lon="-2.55277">
        <ele>2.2</ele>
        <time>2025-09-30T10:23:49Z</time>
      </trkpt>
      <trkpt lat="48.5899" lon="-2.55288">
        <ele>1.8</ele>
        <time>2025-09-30T10:23:53Z</time>
      </trkpt>
      <trkpt lat="48.58996" lon="-2.55293">
        <ele>1.6</ele>
        <time>2025-09-30T10:23:55Z</time>
      </trkpt>
      <trkpt lat="48.59004" lon="-2.553">
        <ele>1.2</ele>
        <time>2025-09-30T10:23:58Z</time>
      </trkpt>
      <trkpt lat="48.59014" lon="-2.5531">
        <ele>1.2</ele>
        <time>2025-09-30T10:24:04Z</time>
      </trkpt>
      <trkpt lat="48.59015" lon="-2.55314">
        <ele>1.2</ele>
        <time>2025-09-30T10:24:10Z</time>
      </trkpt>
      <trkpt lat="48.59015" lon="-2.55319">
        <ele>1.2</ele>
        <time>2025-09-30T10:24:12Z</time>
      </trkpt>
      <trkpt lat="48.59014" lon="-2.55322">
        <ele>1.2</ele>
        <time>2025-09-30T10:24:13Z</time>
      </trkpt>
      <trkpt lat="48.59013" lon="-2.55324">
        <ele>1.2</ele>
        <time>2025-09-30T10:24:14Z</time>
      </trkpt>
      <trkpt lat="48.59012" lon="-2.55326">
        <ele>1</ele>
        <time>2025-09-30T10:24:15Z</time>
      </trkpt>
      <trkpt lat="48.59001" lon="-2.55339">
        <ele>1.6</ele>
        <time>2025-09-30T10:24:20Z</time>
      </trkpt>
      <trkpt lat="48.58983" lon="-2.55363">
        <ele>2</ele>
        <time>2025-09-30T10:24:27Z</time>
      </trkpt>
      <trkpt lat="48.58977" lon="-2.5537">
        <ele>2.2</ele>
        <time>2025-09-30T10:24:29Z</time>
      </trkpt>
      <trkpt lat="48.58969" lon="-2.5538">
        <ele>2.6</ele>
        <time>2025-09-30T10:24:32Z</time>
      </trkpt>
      <trkpt lat="48.58966" lon="-2.55383">
        <ele>2.6</ele>
        <time>2025-09-30T10:24:33Z</time>
      </trkpt>
      <trkpt lat="48.58959" lon="-2.55393">
        <ele>2.8</ele>
        <time>2025-09-30T10:24:36Z</time>
      </trkpt>
      <trkpt lat="48.58948" lon="-2.55409">
        <ele>3.4</ele>
        <time>2025-09-30T10:24:42Z</time>
      </trkpt>
      <trkpt lat="48.58934" lon="-2.55427">
        <ele>3.6</ele>
        <time>2025-09-30T10:24:49Z</time>
      </trkpt>
      <trkpt lat="48.58927" lon="-2.55432">
        <ele>3.6</ele>
        <time>2025-09-30T10:24:52Z</time>
      </trkpt>
      <trkpt lat="48.58923" lon="-2.55435">
        <ele>3.8</ele>
        <time>2025-09-30T10:24:54Z</time>
      </trkpt>
      <trkpt lat="48.5892" lon="-2.55435">
        <ele>3.8</ele>
        <time>2025-09-30T10:24:55Z</time>
      </trkpt>
      <trkpt lat="48.58918" lon="-2.55432">
        <ele>3.6</ele>
        <time>2025-09-30T10:24:56Z</time>
      </trkpt>
      <trkpt lat="48.58917" lon="-2.55425">
        <ele>3.6</ele>
        <time>2025-09-30T10:24:58Z</time>
      </trkpt>
      <trkpt lat="48.58918" lon="-2.55422">
        <ele>3.8</ele>
        <time>2025-09-30T10:24:59Z</time>
      </trkpt>
      <trkpt lat="48.58923" lon="-2.55422">
        <ele>3.8</ele>
        <time>2025-09-30T10:25:01Z</time>
      </trkpt>
      <trkpt lat="48.58931" lon="-2.55424">
        <ele>4</ele>
        <time>2025-09-30T10:25:03Z</time>
      </trkpt>
      <trkpt lat="48.58934" lon="-2.55422">
        <ele>4</ele>
        <time>2025-09-30T10:25:04Z</time>
      </trkpt>
      <trkpt lat="48.58948" lon="-2.55404">
        <ele>4.2</ele>
        <time>2025-09-30T10:25:09Z</time>
      </trkpt>
      <trkpt lat="48.5896" lon="-2.55388">
        <ele>4</ele>
        <time>2025-09-30T10:25:13Z</time>
      </trkpt>
      <trkpt lat="48.58976" lon="-2.55363">
        <ele>3.6</ele>
        <time>2025-09-30T10:25:18Z</time>
      </trkpt>
      <trkpt lat="48.5899" lon="-2.55343">
        <ele>3.4</ele>
        <time>2025-09-30T10:25:22Z</time>
      </trkpt>
      <trkpt lat="48.59001" lon="-2.55328">
        <ele>3</ele>
        <time>2025-09-30T10:25:25Z</time>
      </trkpt>
      <trkpt lat="48.59008" lon="-2.55318">
        <ele>2.6</ele>
        <time>2025-09-30T10:25:27Z</time>
      </trkpt>
      <trkpt lat="48.59024" lon="-2.55297">
        <ele>2.4</ele>
        <time>2025-09-30T10:25:32Z</time>
      </trkpt>
      <trkpt lat="48.59034" lon="-2.55289">
        <ele>2.8</ele>
        <time>2025-09-30T10:25:36Z</time>
      </trkpt>
      <trkpt lat="48.5904" lon="-2.55283">
        <ele>3.2</ele>
        <time>2025-09-30T10:25:38Z</time>
      </trkpt>
      <trkpt lat="48.59043" lon="-2.5528">
        <ele>3.6</ele>
        <time>2025-09-30T10:25:39Z</time>
      </trkpt>
      <trkpt lat="48.59046" lon="-2.55277">
        <ele>3.8</ele>
        <time>2025-09-30T10:25:40Z</time>
      </trkpt>
      <trkpt lat="48.59055" lon="-2.55268">
        <ele>5</ele>
        <time>2025-09-30T10:25:43Z</time>
      </trkpt>
      <trkpt lat="48.59065" lon="-2.5526">
        <ele>5.8</ele>
        <time>2025-09-30T10:25:46Z</time>
      </trkpt>
      <trkpt lat="48.59068" lon="-2.55258">
        <ele>6</ele>
        <time>2025-09-30T10:25:47Z</time>
      </trkpt>
      <trkpt lat="48.59071" lon="-2.55255">
        <ele>6.2</ele>
        <time>2025-09-30T10:25:48Z</time>
      </trkpt>
      <trkpt lat="48.59076" lon="-2.5525">
        <ele>6.4</ele>
        <time>2025-09-30T10:25:50Z</time>
      </trkpt>
      <trkpt lat="48.59079" lon="-2.55246">
        <ele>6.4</ele>
        <time>2025-09-30T10:25:52Z</time>
      </trkpt>
      <trkpt lat="48.59081" lon="-2.55248">
        <ele>6.6</ele>
        <time>2025-09-30T10:25:54Z</time>
      </trkpt>
      <trkpt lat="48.59079" lon="-2.55254">
        <ele>6.6</ele>
        <time>2025-09-30T10:25:56Z</time>
      </trkpt>
      <trkpt lat="48.59077" lon="-2.55257">
        <ele>6.6</ele>
        <time>2025-09-30T10:25:57Z</time>
      </trkpt>
      <trkpt lat="48.59069" lon="-2.55267">
        <ele>6.2</ele>
        <time>2025-09-30T10:26:02Z</time>
      </trkpt>
      <trkpt lat="48.59069" lon="-2.55267">
        <ele>5.8</ele>
        <time>2025-09-30T10:26:09Z</time>
      </trkpt>
      <trkpt lat="48.59069" lon="-2.55267">
        <ele>6</ele>
        <time>2025-09-30T10:26:20Z</time>
      </trkpt>
      <trkpt lat="48.59069" lon="-2.55267">
        <ele>6</ele>
        <time>2025-09-30T10:26:23Z</time>
      </trkpt>
      <trkpt lat="48.59069" lon="-2.55267">
        <ele>6.2</ele>
        <time>2025-09-30T10:26:36Z</time>
      </trkpt>
      <trkpt lat="48.59069" lon="-2.55267">
        <ele>6.2</ele>
        <time>2025-09-30T10:26:41Z</time>
      </trkpt>
      <trkpt lat="48.59068" lon="-2.55269">
        <ele>6.4</ele>
        <time>2025-09-30T10:26:45Z</time>
      </trkpt>
      <trkpt lat="48.59068" lon="-2.5527">
        <ele>6.4</ele>
        <time>2025-09-30T10:26:51Z</time>
      </trkpt>
      <trkpt lat="48.59068" lon="-2.5527">
        <ele>6.4</ele>
        <time>2025-09-30T10:26:52Z</time>
      </trkpt>
      <trkpt lat="48.5907" lon="-2.5527">
        <ele>6.4</ele>
        <time>2025-09-30T10:26:59Z</time>
      </trkpt>
      <trkpt lat="48.5907" lon="-2.5527">
        <ele>6.2</ele>
        <time>2025-09-30T10:27:06Z</time>
      </trkpt>
      <trkpt lat="48.5907" lon="-2.5527">
        <ele>6.2</ele>
        <time>2025-09-30T10:27:08Z</time>
      </trkpt>
      <trkpt lat="48.5907" lon="-2.5527">
        <ele>6.2</ele>
        <time>2025-09-30T10:27:10Z</time>
      </trkpt>
      <trkpt lat="48.5907" lon="-2.5527">
        <ele>6.2</ele>
        <time>2025-09-30T10:27:12Z</time>
      </trkpt>
      <trkpt lat="48.5907" lon="-2.5527">
        <ele>6.2</ele>
        <time>2025-09-30T10:27:18Z</time>
      </trkpt>
      <trkpt lat="48.5907" lon="-2.5527">
        <ele>6.2</ele>
        <time>2025-09-30T10:27:21Z</time>
      </trkpt>
      <trkpt lat="48.5907" lon="-2.5527">
        <ele>6.2</ele>
        <time>2025-09-30T10:27:22Z</time>
      </trkpt>
      <trkpt lat="48.5907" lon="-2.5527">
        <ele>6.2</ele>
        <time>2025-09-30T10:27:24Z</time>
      </trkpt>
      <trkpt lat="48.5907" lon="-2.5527">
        <ele>6.2</ele>
        <time>2025-09-30T10:27:27Z</time>
      </trkpt>
      <trkpt lat="48.59069" lon="-2.55268">
        <ele>6.2</ele>
        <time>2025-09-30T10:27:38Z</time>
      </trkpt>
      <trkpt lat="48.59068" lon="-2.55267">
        <ele>6.2</ele>
        <time>2025-09-30T10:27:39Z</time>
      </trkpt>
      <trkpt lat="48.59062" lon="-2.55271">
        <ele>6</ele>
        <time>2025-09-30T10:27:43Z</time>
      </trkpt>
      <trkpt lat="48.59047" lon="-2.55284">
        <ele>5.4</ele>
        <time>2025-09-30T10:27:48Z</time>
      </trkpt>
      <trkpt lat="48.5904" lon="-2.55291">
        <ele>5</ele>
        <time>2025-09-30T10:27:50Z</time>
      </trkpt>
      <trkpt lat="48.59033" lon="-2.553">
        <ele>4</ele>
        <time>2025-09-30T10:27:53Z</time>
      </trkpt>
      <trkpt lat="48.5903" lon="-2.55303">
        <ele>3.8</ele>
        <time>2025-09-30T10:27:54Z</time>
      </trkpt>
      <trkpt lat="48.59023" lon="-2.5531">
        <ele>2.8</ele>
        <time>2025-09-30T10:27:57Z</time>
      </trkpt>
      <trkpt lat="48.59015" lon="-2.5532">
        <ele>2.8</ele>
        <time>2025-09-30T10:28:00Z</time>
      </trkpt>
      <trkpt lat="48.58999" lon="-2.55341">
        <ele>3</ele>
        <time>2025-09-30T10:28:07Z</time>
      </trkpt>
      <trkpt lat="48.58982" lon="-2.5536">
        <ele>3.4</ele>
        <time>2025-09-30T10:28:14Z</time>
      </trkpt>
      <trkpt lat="48.58965" lon="-2.55379">
        <ele>4</ele>
        <time>2025-09-30T10:28:21Z</time>
      </trkpt>
      <trkpt lat="48.5895" lon="-2.55401">
        <ele>4.4</ele>
        <time>2025-09-30T10:28:28Z</time>
      </trkpt>
      <trkpt lat="48.58932" lon="-2.55424">
        <ele>4.8</ele>
        <time>2025-09-30T10:28:35Z</time>
      </trkpt>
      <trkpt lat="48.58914" lon="-2.55445">
        <ele>5</ele>
        <time>2025-09-30T10:28:41Z</time>
      </trkpt>
      <trkpt lat="48.58908" lon="-2.55452">
        <ele>5</ele>
        <time>2025-09-30T10:28:43Z</time>
      </trkpt>
      <trkpt lat="48.58884" lon="-2.55482">
        <ele>5.2</ele>
        <time>2025-09-30T10:28:51Z</time>
      </trkpt>
      <trkpt lat="48.58869" lon="-2.55501">
        <ele>5.2</ele>
        <time>2025-09-30T10:28:58Z</time>
      </trkpt>
      <trkpt lat="48.58858" lon="-2.55513">
        <ele>5.2</ele>
        <time>2025-09-30T10:29:03Z</time>
      </trkpt>
      <trkpt lat="48.58847" lon="-2.55527">
        <ele>5.2</ele>
        <time>2025-09-30T10:29:08Z</time>
      </trkpt>
      <trkpt lat="48.58845" lon="-2.55528">
        <ele>5.2</ele>
        <time>2025-09-30T10:29:09Z</time>
      </trkpt>
      <trkpt lat="48.58837" lon="-2.55524">
        <ele>5</ele>
        <time>2025-09-30T10:29:13Z</time>
      </trkpt>
      <trkpt lat="48.58832" lon="-2.55519">
        <ele>5</ele>
        <time>2025-09-30T10:29:16Z</time>
      </trkpt>
      <trkpt lat="48.58829" lon="-2.55522">
        <ele>4.8</ele>
        <time>2025-09-30T10:29:18Z</time>
      </trkpt>
      <trkpt lat="48.58828" lon="-2.55524">
        <ele>4.8</ele>
        <time>2025-09-30T10:29:19Z</time>
      </trkpt>
      <trkpt lat="48.58828" lon="-2.5553">
        <ele>4.8</ele>
        <time>2025-09-30T10:29:22Z</time>
      </trkpt>
      <trkpt lat="48.58828" lon="-2.5553">
        <ele>4.8</ele>
        <time>2025-09-30T10:29:27Z</time>
      </trkpt>
      <trkpt lat="48.58829" lon="-2.5553">
        <ele>4.6</ele>
        <time>2025-09-30T10:29:37Z</time>
      </trkpt>
      <trkpt lat="48.58829" lon="-2.5553">
        <ele>4.6</ele>
        <time>2025-09-30T10:29:46Z</time>
      </trkpt>
      <trkpt lat="48.58829" lon="-2.5553">
        <ele>4.6</ele>
        <time>2025-09-30T10:29:48Z</time>
      </trkpt>
      <trkpt lat="48.58828" lon="-2.5553">
        <ele>4.6</ele>
        <time>2025-09-30T10:29:57Z</time>
      </trkpt>
      <trkpt lat="48.58828" lon="-2.5553">
        <ele>4.8</ele>
        <time>2025-09-30T10:30:06Z</time>
      </trkpt>
      <trkpt lat="48.58828" lon="-2.5553">
        <ele>4.8</ele>
        <time>2025-09-30T10:30:11Z</time>
      </trkpt>
      <trkpt lat="48.58828" lon="-2.5553">
        <ele>5</ele>
        <time>2025-09-30T10:30:13Z</time>
      </trkpt>
      <trkpt lat="48.58828" lon="-2.5553">
        <ele>5.2</ele>
        <time>2025-09-30T10:30:15Z</time>
      </trkpt>
      <trkpt lat="48.58828" lon="-2.5553">
        <ele>5.4</ele>
        <time>2025-09-30T10:30:17Z</time>
      </trkpt>
      <trkpt lat="48.58829" lon="-2.5553">
        <ele>5.4</ele>
        <time>2025-09-30T10:30:27Z</time>
      </trkpt>
      <trkpt lat="48.58829" lon="-2.5553">
        <ele>5.2</ele>
        <time>2025-09-30T10:30:34Z</time>
      </trkpt>
      <trkpt lat="48.58829" lon="-2.5553">
        <ele>5</ele>
        <time>2025-09-30T10:30:38Z</time>
      </trkpt>
      <trkpt lat="48.58829" lon="-2.5553">
        <ele>5.4</ele>
        <time>2025-09-30T10:30:41Z</time>
      </trkpt>
      <trkpt lat="48.58829" lon="-2.5553">
        <ele>5.4</ele>
        <time>2025-09-30T10:30:42Z</time>
      </trkpt>
      <trkpt lat="48.58829" lon="-2.5553">
        <ele>5.4</ele>
        <time>2025-09-30T10:30:44Z</time>
      </trkpt>
      <trkpt lat="48.58829" lon="-2.5553">
        <ele>5.2</ele>
        <time>2025-09-30T10:30:46Z</time>
      </trkpt>
      <trkpt lat="48.58829" lon="-2.55531">
        <ele>5.4</ele>
        <time>2025-09-30T10:30:51Z</time>
      </trkpt>
      <trkpt lat="48.58829" lon="-2.55531">
        <ele>5.4</ele>
        <time>2025-09-30T10:30:57Z</time>
      </trkpt>
      <trkpt lat="48.58829" lon="-2.55531">
        <ele>5.4</ele>
        <time>2025-09-30T10:31:08Z</time>
      </trkpt>
      <trkpt lat="48.58829" lon="-2.55531">
        <ele>5.4</ele>
        <time>2025-09-30T10:31:12Z</time>
      </trkpt>
      <trkpt lat="48.58829" lon="-2.55531">
        <ele>5.4</ele>
        <time>2025-09-30T10:31:13Z</time>
      </trkpt>
      <trkpt lat="48.58829" lon="-2.55531">
        <ele>5.4</ele>
        <time>2025-09-30T10:31:14Z</time>
      </trkpt>
      <trkpt lat="48.58828" lon="-2.55532">
        <ele>5.4</ele>
        <time>2025-09-30T10:31:16Z</time>
      </trkpt>
      <trkpt lat="48.58827" lon="-2.55532">
        <ele>5.6</ele>
        <time>2025-09-30T10:31:25Z</time>
      </trkpt>
      <trkpt lat="48.58827" lon="-2.55531">
        <ele>5.6</ele>
        <time>2025-09-30T10:31:32Z</time>
      </trkpt>
      <trkpt lat="48.58827" lon="-2.55532">
        <ele>5.6</ele>
        <time>2025-09-30T10:31:44Z</time>
      </trkpt>
      <trkpt lat="48.58826" lon="-2.55532">
        <ele>5.6</ele>
        <time>2025-09-30T10:31:53Z</time>
      </trkpt>
      <trkpt lat="48.58826" lon="-2.55532">
        <ele>5.6</ele>
        <time>2025-09-30T10:32:03Z</time>
      </trkpt>
      <trkpt lat="48.58826" lon="-2.55532">
        <ele>5.6</ele>
        <time>2025-09-30T10:32:13Z</time>
      </trkpt>
      <trkpt lat="48.58826" lon="-2.55532">
        <ele>5.6</ele>
        <time>2025-09-30T10:32:27Z</time>
      </trkpt>
      <trkpt lat="48.58826" lon="-2.55532">
        <ele>5.6</ele>
        <time>2025-09-30T10:32:41Z</time>
      </trkpt>
      <trkpt lat="48.58826" lon="-2.55532">
        <ele>5.6</ele>
        <time>2025-09-30T10:32:47Z</time>
      </trkpt>
      <trkpt lat="48.58826" lon="-2.55532">
        <ele>5.6</ele>
        <time>2025-09-30T10:32:51Z</time>
      </trkpt>
      <trkpt lat="48.58826" lon="-2.55532">
        <ele>5.6</ele>
        <time>2025-09-30T10:33:06Z</time>
      </trkpt>
      <trkpt lat="48.58826" lon="-2.55532">
        <ele>5.6</ele>
        <time>2025-09-30T10:33:13Z</time>
      </trkpt>
      <trkpt lat="48.58826" lon="-2.55532">
        <ele>5.6</ele>
        <time>2025-09-30T10:33:15Z</time>
      </trkpt>
      <trkpt lat="48.58826" lon="-2.55532">
        <ele>5.6</ele>
        <time>2025-09-30T10:33:18Z</time>
      </trkpt>
      <trkpt lat="48.58826" lon="-2.55532">
        <ele>5.6</ele>
        <time>2025-09-30T10:33:22Z</time>
      </trkpt>
      <trkpt lat="48.58826" lon="-2.55532">
        <ele>5.6</ele>
        <time>2025-09-30T10:33:27Z</time>
      </trkpt>
      <trkpt lat="48.58826" lon="-2.55532">
        <ele>5.6</ele>
        <time>2025-09-30T10:33:29Z</time>
      </trkpt>
      <trkpt lat="48.58827" lon="-2.55531">
        <ele>5.6</ele>
        <time>2025-09-30T10:33:34Z</time>
      </trkpt>
      <trkpt lat="48.58827" lon="-2.5553">
        <ele>5.6</ele>
        <time>2025-09-30T10:33:35Z</time>
      </trkpt>
      <trkpt lat="48.58827" lon="-2.55529">
        <ele>5.6</ele>
        <time>2025-09-30T10:33:36Z</time>
      </trkpt>
      <trkpt lat="48.58827" lon="-2.55529">
        <ele>5.6</ele>
        <time>2025-09-30T10:33:45Z</time>
      </trkpt>
      <trkpt lat="48.58827" lon="-2.55531">
        <ele>5.6</ele>
        <time>2025-09-30T10:33:52Z</time>
      </trkpt>
      <trkpt lat="48.58827" lon="-2.55531">
        <ele>5.6</ele>
        <time>2025-09-30T10:33:57Z</time>
      </trkpt>
      <trkpt lat="48.58827" lon="-2.55531">
        <ele>5.6</ele>
        <time>2025-09-30T10:33:58Z</time>
      </trkpt>
      <trkpt lat="48.58827" lon="-2.55531">
        <ele>5.6</ele>
        <time>2025-09-30T10:34:00Z</time>
      </trkpt>
      <trkpt lat="48.58827" lon="-2.55531">
        <ele>5.6</ele>
        <time>2025-09-30T10:34:05Z</time>
      </trkpt>
      <trkpt lat="48.58827" lon="-2.55531">
        <ele>5.6</ele>
        <time>2025-09-30T10:34:07Z</time>
      </trkpt>
      <trkpt lat="48.58827" lon="-2.55531">
        <ele>5.6</ele>
        <time>2025-09-30T10:34:08Z</time>
      </trkpt>
      <trkpt lat="48.58827" lon="-2.55531">
        <ele>5.6</ele>
        <time>2025-09-30T10:34:12Z</time>
      </trkpt>
      <trkpt lat="48.58827" lon="-2.55531">
        <ele>5.6</ele>
        <time>2025-09-30T10:34:16Z</time>
      </trkpt>
      <trkpt lat="48.58827" lon="-2.55531">
        <ele>5.6</ele>
        <time>2025-09-30T10:34:28Z</time>
      </trkpt>
      <trkpt lat="48.58827" lon="-2.55531">
        <ele>5.6</ele>
        <time>2025-09-30T10:34:38Z</time>
      </trkpt>
      <trkpt lat="48.58827" lon="-2.55531">
        <ele>5.6</ele>
        <time>2025-09-30T10:34:48Z</time>
      </trkpt>
      <trkpt lat="48.58827" lon="-2.5553">
        <ele>5.6</ele>
        <time>2025-09-30T10:34:56Z</time>
      </trkpt>
      <trkpt lat="48.58827" lon="-2.5553">
        <ele>5.6</ele>
        <time>2025-09-30T10:35:03Z</time>
      </trkpt>
      <trkpt lat="48.58827" lon="-2.55529">
        <ele>5.6</ele>
        <time>2025-09-30T10:35:11Z</time>
      </trkpt>
      <trkpt lat="48.58827" lon="-2.5553">
        <ele>5.6</ele>
        <time>2025-09-30T10:35:14Z</time>
      </trkpt>
      <trkpt lat="48.58827" lon="-2.5553">
        <ele>5.6</ele>
        <time>2025-09-30T10:35:23Z</time>
      </trkpt>
      <trkpt lat="48.58827" lon="-2.5553">
        <ele>5.6</ele>
        <time>2025-09-30T10:35:26Z</time>
      </trkpt>
      <trkpt lat="48.58827" lon="-2.55529">
        <ele>5.6</ele>
        <time>2025-09-30T10:35:29Z</time>
      </trkpt>
      <trkpt lat="48.58826" lon="-2.55529">
        <ele>5.6</ele>
        <time>2025-09-30T10:35:30Z</time>
      </trkpt>
      <trkpt lat="48.58826" lon="-2.55529">
        <ele>5.6</ele>
        <time>2025-09-30T10:35:34Z</time>
      </trkpt>
      <trkpt lat="48.58826" lon="-2.55529">
        <ele>5.6</ele>
        <time>2025-09-30T10:35:37Z</time>
      </trkpt>
      <trkpt lat="48.58826" lon="-2.55529">
        <ele>5.6</ele>
        <time>2025-09-30T10:35:45Z</time>
      </trkpt>
      <trkpt lat="48.58826" lon="-2.55529">
        <ele>5.6</ele>
        <time>2025-09-30T10:35:54Z</time>
      </trkpt>
      <trkpt lat="48.58827" lon="-2.55528">
        <ele>5.6</ele>
        <time>2025-09-30T10:36:02Z</time>
      </trkpt>
      <trkpt lat="48.58827" lon="-2.55529">
        <ele>5.6</ele>
        <time>2025-09-30T10:36:10Z</time>
      </trkpt>
      <trkpt lat="48.58827" lon="-2.55529">
        <ele>5.6</ele>
        <time>2025-09-30T10:36:12Z</time>
      </trkpt>
      <trkpt lat="48.58827" lon="-2.55529">
        <ele>5.6</ele>
        <time>2025-09-30T10:36:19Z</time>
      </trkpt>
      <trkpt lat="48.58827" lon="-2.55529">
        <ele>5.6</ele>
        <time>2025-09-30T10:36:21Z</time>
      </trkpt>
      <trkpt lat="48.58827" lon="-2.55529">
        <ele>5.6</ele>
        <time>2025-09-30T10:36:34Z</time>
      </trkpt>
      <trkpt lat="48.58827" lon="-2.55529">
        <ele>5.6</ele>
        <time>2025-09-30T10:36:38Z</time>
      </trkpt>
      <trkpt lat="48.58827" lon="-2.55529">
        <ele>5.6</ele>
        <time>2025-09-30T10:36:39Z</time>
      </trkpt>
      <trkpt lat="48.58827" lon="-2.55529">
        <ele>5.6</ele>
        <time>2025-09-30T10:36:40Z</time>
      </trkpt>
      <trkpt lat="48.58827" lon="-2.55529">
        <ele>5.6</ele>
        <time>2025-09-30T10:36:41Z</time>
      </trkpt>
      <trkpt lat="48.58827" lon="-2.55529">
        <ele>5.6</ele>
        <time>2025-09-30T10:36:48Z</time>
      </trkpt>
      <trkpt lat="48.58827" lon="-2.55529">
        <ele>5.6</ele>
        <time>2025-09-30T10:37:00Z</time>
      </trkpt>
      <trkpt lat="48.58827" lon="-2.55529">
        <ele>5.6</ele>
        <time>2025-09-30T10:37:09Z</time>
      </trkpt>
      <trkpt lat="48.58827" lon="-2.55529">
        <ele>5.6</ele>
        <time>2025-09-30T10:37:16Z</time>
      </trkpt>
      <trkpt lat="48.58827" lon="-2.55529">
        <ele>5.6</ele>
        <time>2025-09-30T10:37:19Z</time>
      </trkpt>
      <trkpt lat="48.58827" lon="-2.55529">
        <ele>5.6</ele>
        <time>2025-09-30T10:37:22Z</time>
      </trkpt>
      <trkpt lat="48.58827" lon="-2.55529">
        <ele>5.6</ele>
        <time>2025-09-30T10:37:28Z</time>
      </trkpt>
      <trkpt lat="48.58828" lon="-2.55527">
        <ele>5.6</ele>
        <time>2025-09-30T10:37:31Z</time>
      </trkpt>
      <trkpt lat="48.58829" lon="-2.55525">
        <ele>5.6</ele>
        <time>2025-09-30T10:37:36Z</time>
      </trkpt>
      <trkpt lat="48.5883" lon="-2.55522">
        <ele>5.6</ele>
        <time>2025-09-30T10:37:37Z</time>
      </trkpt>
      <trkpt lat="48.5883" lon="-2.55522">
        <ele>5.4</ele>
        <time>2025-09-30T10:37:38Z</time>
      </trkpt>
      <trkpt lat="48.58833" lon="-2.55523">
        <ele>5.6</ele>
        <time>2025-09-30T10:37:39Z</time>
      </trkpt>
      <trkpt lat="48.58837" lon="-2.55526">
        <ele>5.8</ele>
        <time>2025-09-30T10:37:41Z</time>
      </trkpt>
      <trkpt lat="48.5884" lon="-2.55527">
        <ele>5.8</ele>
        <time>2025-09-30T10:37:42Z</time>
      </trkpt>
      <trkpt lat="48.58845" lon="-2.55522">
        <ele>5.8</ele>
        <time>2025-09-30T10:37:44Z</time>
      </trkpt>
      <trkpt lat="48.58864" lon="-2.55498">
        <ele>6</ele>
        <time>2025-09-30T10:37:51Z</time>
      </trkpt>
      <trkpt lat="48.58886" lon="-2.55469">
        <ele>6</ele>
        <time>2025-09-30T10:37:59Z</time>
      </trkpt>
      <trkpt lat="48.58909" lon="-2.55442">
        <ele>6</ele>
        <time>2025-09-30T10:38:07Z</time>
      </trkpt>
      <trkpt lat="48.58912" lon="-2.5542">
        <ele>5.8</ele>
        <time>2025-09-30T10:38:11Z</time>
      </trkpt>
      <trkpt lat="48.58909" lon="-2.55395">
        <ele>5.6</ele>
        <time>2025-09-30T10:38:16Z</time>
      </trkpt>
      <trkpt lat="48.589" lon="-2.55367">
        <ele>5.8</ele>
        <time>2025-09-30T10:38:21Z</time>
      </trkpt>
      <trkpt lat="48.58896" lon="-2.55341">
        <ele>5.8</ele>
        <time>2025-09-30T10:38:25Z</time>
      </trkpt>
      <trkpt lat="48.58892" lon="-2.5532">
        <ele>6</ele>
        <time>2025-09-30T10:38:28Z</time>
      </trkpt>
      <trkpt lat="48.58889" lon="-2.5529">
        <ele>6.2</ele>
        <time>2025-09-30T10:38:33Z</time>
      </trkpt>
      <trkpt lat="48.58889" lon="-2.55278">
        <ele>6.2</ele>
        <time>2025-09-30T10:38:35Z</time>
      </trkpt>
      <trkpt lat="48.58885" lon="-2.55237">
        <ele>7</ele>
        <time>2025-09-30T10:38:43Z</time>
      </trkpt>
      <trkpt lat="48.58883" lon="-2.55232">
        <ele>7</ele>
        <time>2025-09-30T10:38:44Z</time>
      </trkpt>
      <trkpt lat="48.58874" lon="-2.55222">
        <ele>7.6</ele>
        <time>2025-09-30T10:38:48Z</time>
      </trkpt>
      <trkpt lat="48.58871" lon="-2.55218">
        <ele>7.8</ele>
        <time>2025-09-30T10:38:51Z</time>
      </trkpt>
      <trkpt lat="48.58871" lon="-2.55216">
        <ele>7.6</ele>
        <time>2025-09-30T10:38:52Z</time>
      </trkpt>
      <trkpt lat="48.58871" lon="-2.55216">
        <ele>8</ele>
        <time>2025-09-30T10:38:57Z</time>
      </trkpt>
      <trkpt lat="48.58871" lon="-2.55216">
        <ele>8</ele>
        <time>2025-09-30T10:38:58Z</time>
      </trkpt>
      <trkpt lat="48.58871" lon="-2.55216">
        <ele>7.8</ele>
        <time>2025-09-30T10:39:04Z</time>
      </trkpt>
      <trkpt lat="48.58871" lon="-2.55216">
        <ele>7.8</ele>
        <time>2025-09-30T10:39:09Z</time>
      </trkpt>
      <trkpt lat="48.5887" lon="-2.55216">
        <ele>7.6</ele>
        <time>2025-09-30T10:39:14Z</time>
      </trkpt>
      <trkpt lat="48.58869" lon="-2.55216">
        <ele>7.6</ele>
        <time>2025-09-30T10:39:17Z</time>
      </trkpt>
      <trkpt lat="48.58868" lon="-2.55217">
        <ele>7.6</ele>
        <time>2025-09-30T10:39:18Z</time>
      </trkpt>
      <trkpt lat="48.58868" lon="-2.55219">
        <ele>8</ele>
        <time>2025-09-30T10:39:22Z</time>
      </trkpt>
      <trkpt lat="48.58868" lon="-2.55219">
        <ele>7.6</ele>
        <time>2025-09-30T10:39:30Z</time>
      </trkpt>
      <trkpt lat="48.58869" lon="-2.55221">
        <ele>7.8</ele>
        <time>2025-09-30T10:39:35Z</time>
      </trkpt>
      <trkpt lat="48.58868" lon="-2.55221">
        <ele>7.8</ele>
        <time>2025-09-30T10:39:42Z</time>
      </trkpt>
      <trkpt lat="48.58868" lon="-2.55221">
        <ele>7.6</ele>
        <time>2025-09-30T10:39:50Z</time>
      </trkpt>
      <trkpt lat="48.58868" lon="-2.55221">
        <ele>7.8</ele>
        <time>2025-09-30T10:39:55Z</time>
      </trkpt>
      <trkpt lat="48.58868" lon="-2.55221">
        <ele>7.8</ele>
        <time>2025-09-30T10:39:59Z</time>
      </trkpt>
      <trkpt lat="48.58868" lon="-2.55221">
        <ele>7.8</ele>
        <time>2025-09-30T10:40:01Z</time>
      </trkpt>
      <trkpt lat="48.58868" lon="-2.55221">
        <ele>7.8</ele>
        <time>2025-09-30T10:40:10Z</time>
      </trkpt>
      <trkpt lat="48.58868" lon="-2.55221">
        <ele>7.8</ele>
        <time>2025-09-30T10:40:12Z</time>
      </trkpt>
      <trkpt lat="48.58868" lon="-2.55221">
        <ele>7.8</ele>
        <time>2025-09-30T10:40:22Z</time>
      </trkpt>
      <trkpt lat="48.58868" lon="-2.55221">
        <ele>7.8</ele>
        <time>2025-09-30T10:40:26Z</time>
      </trkpt>
      <trkpt lat="48.58868" lon="-2.55221">
        <ele>7.8</ele>
        <time>2025-09-30T10:40:28Z</time>
      </trkpt>
      <trkpt lat="48.58868" lon="-2.55221">
        <ele>7.8</ele>
        <time>2025-09-30T10:40:34Z</time>
      </trkpt>
      <trkpt lat="48.58868" lon="-2.55221">
        <ele>7.8</ele>
        <time>2025-09-30T10:40:35Z</time>
      </trkpt>
      <trkpt lat="48.58868" lon="-2.55221">
        <ele>7.8</ele>
        <time>2025-09-30T10:40:48Z</time>
      </trkpt>
      <trkpt lat="48.58868" lon="-2.5522">
        <ele>7.8</ele>
        <time>2025-09-30T10:40:57Z</time>
      </trkpt>
      <trkpt lat="48.58868" lon="-2.5522">
        <ele>7.8</ele>
        <time>2025-09-30T10:41:02Z</time>
      </trkpt>
      <trkpt lat="48.58868" lon="-2.5522">
        <ele>7.8</ele>
        <time>2025-09-30T10:41:08Z</time>
      </trkpt>
      <trkpt lat="48.58868" lon="-2.5522">
        <ele>7.8</ele>
        <time>2025-09-30T10:41:21Z</time>
      </trkpt>
      <trkpt lat="48.58868" lon="-2.5522">
        <ele>7.8</ele>
        <time>2025-09-30T10:41:32Z</time>
      </trkpt>
      <trkpt lat="48.58868" lon="-2.5522">
        <ele>7.8</ele>
        <time>2025-09-30T10:41:35Z</time>
      </trkpt>
      <trkpt lat="48.58868" lon="-2.5522">
        <ele>7.8</ele>
        <time>2025-09-30T10:41:36Z</time>
      </trkpt>
      <trkpt lat="48.58868" lon="-2.5522">
        <ele>7.8</ele>
        <time>2025-09-30T10:41:37Z</time>
      </trkpt>
      <trkpt lat="48.58868" lon="-2.5522">
        <ele>7.8</ele>
        <time>2025-09-30T10:41:45Z</time>
      </trkpt>
      <trkpt lat="48.58868" lon="-2.5522">
        <ele>7.8</ele>
        <time>2025-09-30T10:41:59Z</time>
      </trkpt>
      <trkpt lat="48.58868" lon="-2.5522">
        <ele>7.8</ele>
        <time>2025-09-30T10:42:01Z</time>
      </trkpt>
      <trkpt lat="48.58868" lon="-2.5522">
        <ele>7.8</ele>
        <time>2025-09-30T10:42:03Z</time>
      </trkpt>
      <trkpt lat="48.58868" lon="-2.5522">
        <ele>7.8</ele>
        <time>2025-09-30T10:42:08Z</time>
      </trkpt>
      <trkpt lat="48.58868" lon="-2.5522">
        <ele>7.8</ele>
        <time>2025-09-30T10:42:18Z</time>
      </trkpt>
      <trkpt lat="48.58868" lon="-2.5522">
        <ele>7.8</ele>
        <time>2025-09-30T10:42:24Z</time>
      </trkpt>
      <trkpt lat="48.58868" lon="-2.5522">
        <ele>7.8</ele>
        <time>2025-09-30T10:42:26Z</time>
      </trkpt>
      <trkpt lat="48.58868" lon="-2.5522">
        <ele>7.8</ele>
        <time>2025-09-30T10:42:29Z</time>
      </trkpt>
      <trkpt lat="48.58868" lon="-2.55221">
        <ele>7.8</ele>
        <time>2025-09-30T10:42:41Z</time>
      </trkpt>
      <trkpt lat="48.58869" lon="-2.5522">
        <ele>7.8</ele>
        <time>2025-09-30T10:42:50Z</time>
      </trkpt>
      <trkpt lat="48.58869" lon="-2.5522">
        <ele>7.8</ele>
        <time>2025-09-30T10:42:56Z</time>
      </trkpt>
      <trkpt lat="48.58869" lon="-2.5522">
        <ele>7.8</ele>
        <time>2025-09-30T10:42:58Z</time>
      </trkpt>
      <trkpt lat="48.58869" lon="-2.5522">
        <ele>7.8</ele>
        <time>2025-09-30T10:42:59Z</time>
      </trkpt>
      <trkpt lat="48.58869" lon="-2.5522">
        <ele>7.8</ele>
        <time>2025-09-30T10:43:15Z</time>
      </trkpt>
      <trkpt lat="48.58869" lon="-2.55221">
        <ele>7.8</ele>
        <time>2025-09-30T10:43:25Z</time>
      </trkpt>
      <trkpt lat="48.58869" lon="-2.55221">
        <ele>7.8</ele>
        <time>2025-09-30T10:43:35Z</time>
      </trkpt>
      <trkpt lat="48.58869" lon="-2.55221">
        <ele>7.8</ele>
        <time>2025-09-30T10:43:49Z</time>
      </trkpt>
      <trkpt lat="48.58869" lon="-2.55218">
        <ele>7.8</ele>
        <time>2025-09-30T10:43:54Z</time>
      </trkpt>
      <trkpt lat="48.58869" lon="-2.55218">
        <ele>7.8</ele>
        <time>2025-09-30T10:44:03Z</time>
      </trkpt>
      <trkpt lat="48.58869" lon="-2.55218">
        <ele>7.8</ele>
        <time>2025-09-30T10:44:05Z</time>
      </trkpt>
      <trkpt lat="48.58869" lon="-2.55218">
        <ele>7.8</ele>
        <time>2025-09-30T10:44:13Z</time>
      </trkpt>
      <trkpt lat="48.58869" lon="-2.55218">
        <ele>7.8</ele>
        <time>2025-09-30T10:44:14Z</time>
      </trkpt>
      <trkpt lat="48.58869" lon="-2.55219">
        <ele>7.8</ele>
        <time>2025-09-30T10:44:15Z</time>
      </trkpt>
      <trkpt lat="48.5887" lon="-2.55222">
        <ele>8</ele>
        <time>2025-09-30T10:44:17Z</time>
      </trkpt>
      <trkpt lat="48.5887" lon="-2.55222">
        <ele>7.8</ele>
        <time>2025-09-30T10:44:18Z</time>
      </trkpt>
      <trkpt lat="48.5887" lon="-2.55222">
        <ele>7.8</ele>
        <time>2025-09-30T10:44:25Z</time>
      </trkpt>
      <trkpt lat="48.5887" lon="-2.55222">
        <ele>7.8</ele>
        <time>2025-09-30T10:44:33Z</time>
      </trkpt>
      <trkpt lat="48.5887" lon="-2.55222">
        <ele>8.2</ele>
        <time>2025-09-30T10:44:35Z</time>
      </trkpt>
      <trkpt lat="48.5887" lon="-2.55222">
        <ele>8</ele>
        <time>2025-09-30T10:44:40Z</time>
      </trkpt>
      <trkpt lat="48.5887" lon="-2.55222">
        <ele>8</ele>
        <time>2025-09-30T10:44:42Z</time>
      </trkpt>
      <trkpt lat="48.5887" lon="-2.55222">
        <ele>8</ele>
        <time>2025-09-30T10:44:43Z</time>
      </trkpt>
      <trkpt lat="48.5887" lon="-2.55222">
        <ele>7.8</ele>
        <time>2025-09-30T10:44:45Z</time>
      </trkpt>
      <trkpt lat="48.5887" lon="-2.55222">
        <ele>7.8</ele>
        <time>2025-09-30T10:44:46Z</time>
      </trkpt>
      <trkpt lat="48.5887" lon="-2.55222">
        <ele>7.8</ele>
        <time>2025-09-30T10:44:47Z</time>
      </trkpt>
      <trkpt lat="48.5887" lon="-2.55221">
        <ele>8</ele>
        <time>2025-09-30T10:44:54Z</time>
      </trkpt>
      <trkpt lat="48.5887" lon="-2.5522">
        <ele>8.2</ele>
        <time>2025-09-30T10:44:59Z</time>
      </trkpt>
      <trkpt lat="48.5887" lon="-2.5522">
        <ele>8.2</ele>
        <time>2025-09-30T10:45:00Z</time>
      </trkpt>
      <trkpt lat="48.5887" lon="-2.5522">
        <ele>8.2</ele>
        <time>2025-09-30T10:45:06Z</time>
      </trkpt>
      <trkpt lat="48.5887" lon="-2.5522">
        <ele>8.6</ele>
        <time>2025-09-30T10:45:15Z</time>
      </trkpt>
      <trkpt lat="48.5887" lon="-2.5522">
        <ele>8.6</ele>
        <time>2025-09-30T10:45:20Z</time>
      </trkpt>
      <trkpt lat="48.5887" lon="-2.5522">
        <ele>8.4</ele>
        <time>2025-09-30T10:45:24Z</time>
      </trkpt>
      <trkpt lat="48.5887" lon="-2.5522">
        <ele>8</ele>
        <time>2025-09-30T10:45:36Z</time>
      </trkpt>
      <trkpt lat="48.58869" lon="-2.5522">
        <ele>8.6</ele>
        <time>2025-09-30T10:45:50Z</time>
      </trkpt>
      <trkpt lat="48.58869" lon="-2.5522">
        <ele>8.6</ele>
        <time>2025-09-30T10:45:54Z</time>
      </trkpt>
      <trkpt lat="48.58869" lon="-2.5522">
        <ele>8.8</ele>
        <time>2025-09-30T10:45:58Z</time>
      </trkpt>
      <trkpt lat="48.58869" lon="-2.5522">
        <ele>8.8</ele>
        <time>2025-09-30T10:46:02Z</time>
      </trkpt>
      <trkpt lat="48.58868" lon="-2.55218">
        <ele>8.4</ele>
        <time>2025-09-30T10:46:12Z</time>
      </trkpt>
      <trkpt lat="48.58866" lon="-2.5522">
        <ele>8.4</ele>
        <time>2025-09-30T10:46:16Z</time>
      </trkpt>
      <trkpt lat="48.58864" lon="-2.55222">
        <ele>8.4</ele>
        <time>2025-09-30T10:46:18Z</time>
      </trkpt>
      <trkpt lat="48.58862" lon="-2.55227">
        <ele>8.6</ele>
        <time>2025-09-30T10:46:21Z</time>
      </trkpt>
      <trkpt lat="48.58861" lon="-2.5523">
        <ele>8.6</ele>
        <time>2025-09-30T10:46:23Z</time>
      </trkpt>
      <trkpt lat="48.5886" lon="-2.55236">
        <ele>8.2</ele>
        <time>2025-09-30T10:46:29Z</time>
      </trkpt>
      <trkpt lat="48.58855" lon="-2.55236">
        <ele>8.8</ele>
        <time>2025-09-30T10:46:36Z</time>
      </trkpt>
      <trkpt lat="48.5885" lon="-2.55235">
        <ele>8.6</ele>
        <time>2025-09-30T10:46:41Z</time>
      </trkpt>
      <trkpt lat="48.58849" lon="-2.55234">
        <ele>8.6</ele>
        <time>2025-09-30T10:46:46Z</time>
      </trkpt>
      <trkpt lat="48.58853" lon="-2.55237">
        <ele>8.8</ele>
        <time>2025-09-30T10:46:50Z</time>
      </trkpt>
      <trkpt lat="48.58854" lon="-2.55238">
        <ele>8.4</ele>
        <time>2025-09-30T10:47:04Z</time>
      </trkpt>
      <trkpt lat="48.58854" lon="-2.55238">
        <ele>8.4</ele>
        <time>2025-09-30T10:47:16Z</time>
      </trkpt>
      <trkpt lat="48.58854" lon="-2.55238">
        <ele>8.4</ele>
        <time>2025-09-30T10:47:25Z</time>
      </trkpt>
      <trkpt lat="48.58854" lon="-2.55238">
        <ele>8.4</ele>
        <time>2025-09-30T10:47:26Z</time>
      </trkpt>
      <trkpt lat="48.58854" lon="-2.55238">
        <ele>8.4</ele>
        <time>2025-09-30T10:47:28Z</time>
      </trkpt>
      <trkpt lat="48.58854" lon="-2.55238">
        <ele>8.8</ele>
        <time>2025-09-30T10:47:42Z</time>
      </trkpt>
      <trkpt lat="48.58854" lon="-2.55238">
        <ele>8.8</ele>
        <time>2025-09-30T10:47:47Z</time>
      </trkpt>
      <trkpt lat="48.58854" lon="-2.55238">
        <ele>8.8</ele>
        <time>2025-09-30T10:47:49Z</time>
      </trkpt>
      <trkpt lat="48.58854" lon="-2.55238">
        <ele>8.8</ele>
        <time>2025-09-30T10:47:51Z</time>
      </trkpt>
      <trkpt lat="48.58854" lon="-2.55238">
        <ele>8.8</ele>
        <time>2025-09-30T10:47:54Z</time>
      </trkpt>
      <trkpt lat="48.58854" lon="-2.55238">
        <ele>8.8</ele>
        <time>2025-09-30T10:47:56Z</time>
      </trkpt>
      <trkpt lat="48.58854" lon="-2.55238">
        <ele>8.8</ele>
        <time>2025-09-30T10:47:57Z</time>
      </trkpt>
      <trkpt lat="48.58854" lon="-2.55238">
        <ele>8.8</ele>
        <time>2025-09-30T10:47:59Z</time>
      </trkpt>
      <trkpt lat="48.58854" lon="-2.55238">
        <ele>8.8</ele>
        <time>2025-09-30T10:48:03Z</time>
      </trkpt>
      <trkpt lat="48.58854" lon="-2.55238">
        <ele>8.8</ele>
        <time>2025-09-30T10:48:10Z</time>
      </trkpt>
      <trkpt lat="48.58854" lon="-2.55238">
        <ele>8.8</ele>
        <time>2025-09-30T10:48:12Z</time>
      </trkpt>
      <trkpt lat="48.58854" lon="-2.55238">
        <ele>8.8</ele>
        <time>2025-09-30T10:48:19Z</time>
      </trkpt>
      <trkpt lat="48.58854" lon="-2.55238">
        <ele>8.8</ele>
        <time>2025-09-30T10:48:20Z</time>
      </trkpt>
      <trkpt lat="48.58854" lon="-2.55238">
        <ele>8.8</ele>
        <time>2025-09-30T10:48:21Z</time>
      </trkpt>
      <trkpt lat="48.58854" lon="-2.55238">
        <ele>8.8</ele>
        <time>2025-09-30T10:48:22Z</time>
      </trkpt>
      <trkpt lat="48.58854" lon="-2.55238">
        <ele>8.8</ele>
        <time>2025-09-30T10:48:23Z</time>
      </trkpt>
      <trkpt lat="48.58854" lon="-2.55238">
        <ele>8.8</ele>
        <time>2025-09-30T10:48:27Z</time>
      </trkpt>
      <trkpt lat="48.58854" lon="-2.55238">
        <ele>8.8</ele>
        <time>2025-09-30T10:48:33Z</time>
      </trkpt>
      <trkpt lat="48.58854" lon="-2.55238">
        <ele>8.8</ele>
        <time>2025-09-30T10:48:42Z</time>
      </trkpt>
      <trkpt lat="48.58854" lon="-2.55239">
        <ele>8.8</ele>
        <time>2025-09-30T10:48:51Z</time>
      </trkpt>
      <trkpt lat="48.58854" lon="-2.55239">
        <ele>8.8</ele>
        <time>2025-09-30T10:49:03Z</time>
      </trkpt>
      <trkpt lat="48.58854" lon="-2.55239">
        <ele>8.8</ele>
        <time>2025-09-30T10:49:16Z</time>
      </trkpt>
      <trkpt lat="48.58854" lon="-2.55239">
        <ele>8.8</ele>
        <time>2025-09-30T10:49:30Z</time>
      </trkpt>
      <trkpt lat="48.58854" lon="-2.55239">
        <ele>8.8</ele>
        <time>2025-09-30T10:49:49Z</time>
      </trkpt>
      <trkpt lat="48.58854" lon="-2.55239">
        <ele>8.8</ele>
        <time>2025-09-30T10:50:06Z</time>
      </trkpt>
      <trkpt lat="48.58854" lon="-2.55239">
        <ele>8.8</ele>
        <time>2025-09-30T10:50:14Z</time>
      </trkpt>
      <trkpt lat="48.58854" lon="-2.55239">
        <ele>8.8</ele>
        <time>2025-09-30T10:50:15Z</time>
      </trkpt>
      <trkpt lat="48.58854" lon="-2.55237">
        <ele>8.8</ele>
        <time>2025-09-30T10:50:23Z</time>
      </trkpt>
      <trkpt lat="48.58854" lon="-2.55237">
        <ele>8.8</ele>
        <time>2025-09-30T10:50:28Z</time>
      </trkpt>
      <trkpt lat="48.58854" lon="-2.55237">
        <ele>8.8</ele>
        <time>2025-09-30T10:50:34Z</time>
      </trkpt>
      <trkpt lat="48.58854" lon="-2.55237">
        <ele>8.8</ele>
        <time>2025-09-30T10:50:36Z</time>
      </trkpt>
      <trkpt lat="48.58854" lon="-2.55237">
        <ele>8.8</ele>
        <time>2025-09-30T10:50:41Z</time>
      </trkpt>
      <trkpt lat="48.58854" lon="-2.55237">
        <ele>8.8</ele>
        <time>2025-09-30T10:50:43Z</time>
      </trkpt>
      <trkpt lat="48.58853" lon="-2.55237">
        <ele>8.8</ele>
        <time>2025-09-30T10:50:47Z</time>
      </trkpt>
      <trkpt lat="48.58853" lon="-2.55237">
        <ele>8.8</ele>
        <time>2025-09-30T10:50:54Z</time>
      </trkpt>
      <trkpt lat="48.58853" lon="-2.55237">
        <ele>8.8</ele>
        <time>2025-09-30T10:50:55Z</time>
      </trkpt>
      <trkpt lat="48.58853" lon="-2.55237">
        <ele>8.8</ele>
        <time>2025-09-30T10:51:10Z</time>
      </trkpt>
      <trkpt lat="48.58853" lon="-2.55237">
        <ele>8.8</ele>
        <time>2025-09-30T10:51:13Z</time>
      </trkpt>
      <trkpt lat="48.58852" lon="-2.55237">
        <ele>8.8</ele>
        <time>2025-09-30T10:51:14Z</time>
      </trkpt>
      <trkpt lat="48.58852" lon="-2.55237">
        <ele>8.8</ele>
        <time>2025-09-30T10:51:15Z</time>
      </trkpt>
      <trkpt lat="48.58852" lon="-2.55237">
        <ele>8.8</ele>
        <time>2025-09-30T10:51:17Z</time>
      </trkpt>
      <trkpt lat="48.58852" lon="-2.55237">
        <ele>8.8</ele>
        <time>2025-09-30T10:51:21Z</time>
      </trkpt>
      <trkpt lat="48.58852" lon="-2.55237">
        <ele>8.8</ele>
        <time>2025-09-30T10:51:31Z</time>
      </trkpt>
      <trkpt lat="48.58852" lon="-2.55237">
        <ele>8.8</ele>
        <time>2025-09-30T10:51:40Z</time>
      </trkpt>
      <trkpt lat="48.58852" lon="-2.55237">
        <ele>8.8</ele>
        <time>2025-09-30T10:51:51Z</time>
      </trkpt>
      <trkpt lat="48.58852" lon="-2.55237">
        <ele>8.8</ele>
        <time>2025-09-30T10:52:02Z</time>
      </trkpt>
      <trkpt lat="48.58852" lon="-2.55237">
        <ele>8.8</ele>
        <time>2025-09-30T10:52:15Z</time>
      </trkpt>
      <trkpt lat="48.58852" lon="-2.55237">
        <ele>8.8</ele>
        <time>2025-09-30T10:52:22Z</time>
      </trkpt>
      <trkpt lat="48.58852" lon="-2.55237">
        <ele>8.8</ele>
        <time>2025-09-30T10:52:31Z</time>
      </trkpt>
      <trkpt lat="48.58851" lon="-2.55236">
        <ele>8.8</ele>
        <time>2025-09-30T10:52:43Z</time>
      </trkpt>
      <trkpt lat="48.58852" lon="-2.55236">
        <ele>8.8</ele>
        <time>2025-09-30T10:52:52Z</time>
      </trkpt>
      <trkpt lat="48.58852" lon="-2.55236">
        <ele>8.8</ele>
        <time>2025-09-30T10:52:56Z</time>
      </trkpt>
      <trkpt lat="48.58852" lon="-2.55236">
        <ele>8.8</ele>
        <time>2025-09-30T10:52:57Z</time>
      </trkpt>
      <trkpt lat="48.58852" lon="-2.55236">
        <ele>8.8</ele>
        <time>2025-09-30T10:52:58Z</time>
      </trkpt>
      <trkpt lat="48.58852" lon="-2.55236">
        <ele>8.8</ele>
        <time>2025-09-30T10:53:00Z</time>
      </trkpt>
      <trkpt lat="48.58852" lon="-2.55236">
        <ele>8.8</ele>
        <time>2025-09-30T10:53:01Z</time>
      </trkpt>
      <trkpt lat="48.58852" lon="-2.55236">
        <ele>8.8</ele>
        <time>2025-09-30T10:53:09Z</time>
      </trkpt>
      <trkpt lat="48.58852" lon="-2.55236">
        <ele>8.8</ele>
        <time>2025-09-30T10:53:12Z</time>
      </trkpt>
      <trkpt lat="48.58852" lon="-2.55236">
        <ele>8.8</ele>
        <time>2025-09-30T10:53:17Z</time>
      </trkpt>
      <trkpt lat="48.58852" lon="-2.55236">
        <ele>8.8</ele>
        <time>2025-09-30T10:53:24Z</time>
      </trkpt>
      <trkpt lat="48.58852" lon="-2.55236">
        <ele>8.8</ele>
        <time>2025-09-30T10:53:27Z</time>
      </trkpt>
      <trkpt lat="48.58852" lon="-2.55236">
        <ele>8.8</ele>
        <time>2025-09-30T10:53:35Z</time>
      </trkpt>
      <trkpt lat="48.58852" lon="-2.55236">
        <ele>8.8</ele>
        <time>2025-09-30T10:53:49Z</time>
      </trkpt>
      <trkpt lat="48.58852" lon="-2.55236">
        <ele>8.8</ele>
        <time>2025-09-30T10:53:57Z</time>
      </trkpt>
      <trkpt lat="48.58852" lon="-2.55236">
        <ele>8.8</ele>
        <time>2025-09-30T10:53:58Z</time>
      </trkpt>
      <trkpt lat="48.58852" lon="-2.55236">
        <ele>8.8</ele>
        <time>2025-09-30T10:53:59Z</time>
      </trkpt>
      <trkpt lat="48.58852" lon="-2.55236">
        <ele>8.8</ele>
        <time>2025-09-30T10:54:11Z</time>
      </trkpt>
      <trkpt lat="48.58852" lon="-2.55236">
        <ele>8.8</ele>
        <time>2025-09-30T10:54:21Z</time>
      </trkpt>
      <trkpt lat="48.58852" lon="-2.55236">
        <ele>8.8</ele>
        <time>2025-09-30T10:54:22Z</time>
      </trkpt>
      <trkpt lat="48.58852" lon="-2.55236">
        <ele>8.8</ele>
        <time>2025-09-30T10:54:34Z</time>
      </trkpt>
      <trkpt lat="48.58852" lon="-2.55236">
        <ele>8.8</ele>
        <time>2025-09-30T10:54:45Z</time>
      </trkpt>
      <trkpt lat="48.58852" lon="-2.55236">
        <ele>8.8</ele>
        <time>2025-09-30T10:54:49Z</time>
      </trkpt>
      <trkpt lat="48.58852" lon="-2.55236">
        <ele>8.8</ele>
        <time>2025-09-30T10:55:00Z</time>
      </trkpt>
      <trkpt lat="48.58852" lon="-2.55236">
        <ele>8.8</ele>
        <time>2025-09-30T10:55:17Z</time>
      </trkpt>
      <trkpt lat="48.58852" lon="-2.55236">
        <ele>8.8</ele>
        <time>2025-09-30T10:55:27Z</time>
      </trkpt>
      <trkpt lat="48.58852" lon="-2.55236">
        <ele>8.8</ele>
        <time>2025-09-30T10:55:29Z</time>
      </trkpt>
      <trkpt lat="48.58852" lon="-2.55236">
        <ele>8.8</ele>
        <time>2025-09-30T10:55:30Z</time>
      </trkpt>
      <trkpt lat="48.58852" lon="-2.55236">
        <ele>8.8</ele>
        <time>2025-09-30T10:55:40Z</time>
      </trkpt>
      <trkpt lat="48.58852" lon="-2.55236">
        <ele>8.8</ele>
        <time>2025-09-30T10:55:43Z</time>
      </trkpt>
      <trkpt lat="48.58852" lon="-2.55236">
        <ele>8.8</ele>
        <time>2025-09-30T10:55:44Z</time>
      </trkpt>
      <trkpt lat="48.58852" lon="-2.55236">
        <ele>8.8</ele>
        <time>2025-09-30T10:55:45Z</time>
      </trkpt>
      <trkpt lat="48.58852" lon="-2.55236">
        <ele>8.8</ele>
        <time>2025-09-30T10:55:49Z</time>
      </trkpt>
      <trkpt lat="48.58852" lon="-2.55236">
        <ele>8.8</ele>
        <time>2025-09-30T10:55:55Z</time>
      </trkpt>
      <trkpt lat="48.58852" lon="-2.55236">
        <ele>8.8</ele>
        <time>2025-09-30T10:55:59Z</time>
      </trkpt>
      <trkpt lat="48.58852" lon="-2.55236">
        <ele>8.8</ele>
        <time>2025-09-30T10:56:13Z</time>
      </trkpt>
      <trkpt lat="48.58852" lon="-2.55236">
        <ele>8.8</ele>
        <time>2025-09-30T10:56:22Z</time>
      </trkpt>
      <trkpt lat="48.58852" lon="-2.55236">
        <ele>8.8</ele>
        <time>2025-09-30T10:56:34Z</time>
      </trkpt>
      <trkpt lat="48.58852" lon="-2.55236">
        <ele>8.8</ele>
        <time>2025-09-30T10:56:35Z</time>
      </trkpt>
      <trkpt lat="48.58852" lon="-2.55236">
        <ele>8.8</ele>
        <time>2025-09-30T10:56:41Z</time>
      </trkpt>
      <trkpt lat="48.58852" lon="-2.55236">
        <ele>8.8</ele>
        <time>2025-09-30T10:56:45Z</time>
      </trkpt>
      <trkpt lat="48.58852" lon="-2.55236">
        <ele>8.8</ele>
        <time>2025-09-30T10:56:48Z</time>
      </trkpt>
      <trkpt lat="48.58852" lon="-2.55236">
        <ele>8.8</ele>
        <time>2025-09-30T10:56:50Z</time>
      </trkpt>
      <trkpt lat="48.58852" lon="-2.55236">
        <ele>8.8</ele>
        <time>2025-09-30T10:56:59Z</time>
      </trkpt>
      <trkpt lat="48.58852" lon="-2.55236">
        <ele>8.8</ele>
        <time>2025-09-30T10:57:00Z</time>
      </trkpt>
      <trkpt lat="48.58852" lon="-2.55236">
        <ele>8.8</ele>
        <time>2025-09-30T10:57:01Z</time>
      </trkpt>
      <trkpt lat="48.58852" lon="-2.55236">
        <ele>8.8</ele>
        <time>2025-09-30T10:57:07Z</time>
      </trkpt>
      <trkpt lat="48.58852" lon="-2.55236">
        <ele>8.8</ele>
        <time>2025-09-30T10:57:11Z</time>
      </trkpt>
      <trkpt lat="48.58852" lon="-2.55236">
        <ele>8.8</ele>
        <time>2025-09-30T10:57:16Z</time>
      </trkpt>
      <trkpt lat="48.58852" lon="-2.55236">
        <ele>8.8</ele>
        <time>2025-09-30T10:57:17Z</time>
      </trkpt>
      <trkpt lat="48.58852" lon="-2.55236">
        <ele>8.8</ele>
        <time>2025-09-30T10:57:18Z</time>
      </trkpt>
      <trkpt lat="48.58852" lon="-2.55236">
        <ele>8.8</ele>
        <time>2025-09-30T10:57:20Z</time>
      </trkpt>
      <trkpt lat="48.58852" lon="-2.55236">
        <ele>8.8</ele>
        <time>2025-09-30T10:57:24Z</time>
      </trkpt>
      <trkpt lat="48.58852" lon="-2.55236">
        <ele>8.8</ele>
        <time>2025-09-30T10:57:34Z</time>
      </trkpt>
      <trkpt lat="48.58852" lon="-2.55236">
        <ele>8.8</ele>
        <time>2025-09-30T10:57:43Z</time>
      </trkpt>
      <trkpt lat="48.58852" lon="-2.55236">
        <ele>8.8</ele>
        <time>2025-09-30T10:58:01Z</time>
      </trkpt>
      <trkpt lat="48.58852" lon="-2.55236">
        <ele>8.8</ele>
        <time>2025-09-30T10:58:11Z</time>
      </trkpt>
      <trkpt lat="48.58852" lon="-2.55236">
        <ele>8.8</ele>
        <time>2025-09-30T10:58:26Z</time>
      </trkpt>
      <trkpt lat="48.58852" lon="-2.55236">
        <ele>8.8</ele>
        <time>2025-09-30T10:58:42Z</time>
      </trkpt>
      <trkpt lat="48.58852" lon="-2.55236">
        <ele>8.8</ele>
        <time>2025-09-30T10:58:51Z</time>
      </trkpt>
      <trkpt lat="48.58852" lon="-2.55236">
        <ele>8.8</ele>
        <time>2025-09-30T10:58:54Z</time>
      </trkpt>
      <trkpt lat="48.58852" lon="-2.55236">
        <ele>8.8</ele>
        <time>2025-09-30T10:59:08Z</time>
      </trkpt>
      <trkpt lat="48.58852" lon="-2.55236">
        <ele>8.8</ele>
        <time>2025-09-30T10:59:18Z</time>
      </trkpt>
      <trkpt lat="48.58852" lon="-2.55236">
        <ele>8.8</ele>
        <time>2025-09-30T10:59:30Z</time>
      </trkpt>
      <trkpt lat="48.58852" lon="-2.55236">
        <ele>8.8</ele>
        <time>2025-09-30T10:59:41Z</time>
      </trkpt>
      <trkpt lat="48.58852" lon="-2.55236">
        <ele>8.8</ele>
        <time>2025-09-30T10:59:44Z</time>
      </trkpt>
      <trkpt lat="48.58852" lon="-2.55236">
        <ele>8.8</ele>
        <time>2025-09-30T10:59:49Z</time>
      </trkpt>
      <trkpt lat="48.58852" lon="-2.55236">
        <ele>8.8</ele>
        <time>2025-09-30T10:59:50Z</time>
      </trkpt>
      <trkpt lat="48.58852" lon="-2.55236">
        <ele>8.8</ele>
        <time>2025-09-30T11:00:00Z</time>
      </trkpt>
      <trkpt lat="48.58852" lon="-2.55236">
        <ele>8.8</ele>
        <time>2025-09-30T11:00:11Z</time>
      </trkpt>
      <trkpt lat="48.58852" lon="-2.55236">
        <ele>8.8</ele>
        <time>2025-09-30T11:00:12Z</time>
      </trkpt>
      <trkpt lat="48.58852" lon="-2.55236">
        <ele>8.8</ele>
        <time>2025-09-30T11:00:16Z</time>
      </trkpt>
      <trkpt lat="48.58852" lon="-2.55236">
        <ele>8.8</ele>
        <time>2025-09-30T11:00:22Z</time>
      </trkpt>
      <trkpt lat="48.58852" lon="-2.55236">
        <ele>8.8</ele>
        <time>2025-09-30T11:00:38Z</time>
      </trkpt>
      <trkpt lat="48.58852" lon="-2.55236">
        <ele>8.8</ele>
        <time>2025-09-30T11:00:39Z</time>
      </trkpt>
      <trkpt lat="48.58852" lon="-2.55236">
        <ele>8.8</ele>
        <time>2025-09-30T11:00:46Z</time>
      </trkpt>
      <trkpt lat="48.58852" lon="-2.55236">
        <ele>8.8</ele>
        <time>2025-09-30T11:00:50Z</time>
      </trkpt>
      <trkpt lat="48.58852" lon="-2.55236">
        <ele>8.8</ele>
        <time>2025-09-30T11:00:56Z</time>
      </trkpt>
      <trkpt lat="48.58852" lon="-2.55236">
        <ele>8.8</ele>
        <time>2025-09-30T11:01:07Z</time>
      </trkpt>
      <trkpt lat="48.58852" lon="-2.55236">
        <ele>8.8</ele>
        <time>2025-09-30T11:01:18Z</time>
      </trkpt>
      <trkpt lat="48.58852" lon="-2.55236">
        <ele>8.8</ele>
        <time>2025-09-30T11:01:28Z</time>
      </trkpt>
      <trkpt lat="48.58852" lon="-2.55236">
        <ele>8.8</ele>
        <time>2025-09-30T11:01:32Z</time>
      </trkpt>
      <trkpt lat="48.58852" lon="-2.55236">
        <ele>8.8</ele>
        <time>2025-09-30T11:01:46Z</time>
      </trkpt>
      <trkpt lat="48.58851" lon="-2.55236">
        <ele>8.8</ele>
        <time>2025-09-30T11:01:53Z</time>
      </trkpt>
      <trkpt lat="48.58851" lon="-2.55236">
        <ele>8.8</ele>
        <time>2025-09-30T11:02:04Z</time>
      </trkpt>
      <trkpt lat="48.58851" lon="-2.55236">
        <ele>8.8</ele>
        <time>2025-09-30T11:02:14Z</time>
      </trkpt>
      <trkpt lat="48.58851" lon="-2.55236">
        <ele>8.8</ele>
        <time>2025-09-30T11:02:16Z</time>
      </trkpt>
      <trkpt lat="48.58851" lon="-2.55236">
        <ele>8.8</ele>
        <time>2025-09-30T11:02:24Z</time>
      </trkpt>
      <trkpt lat="48.58851" lon="-2.55236">
        <ele>8.8</ele>
        <time>2025-09-30T11:02:26Z</time>
      </trkpt>
      <trkpt lat="48.58851" lon="-2.55236">
        <ele>8.8</ele>
        <time>2025-09-30T11:02:27Z</time>
      </trkpt>
      <trkpt lat="48.58851" lon="-2.55236">
        <ele>8.8</ele>
        <time>2025-09-30T11:02:28Z</time>
      </trkpt>
      <trkpt lat="48.58852" lon="-2.55236">
        <ele>8.8</ele>
        <time>2025-09-30T11:02:36Z</time>
      </trkpt>
      <trkpt lat="48.58852" lon="-2.55236">
        <ele>8.8</ele>
        <time>2025-09-30T11:02:44Z</time>
      </trkpt>
      <trkpt lat="48.58852" lon="-2.55236">
        <ele>8.8</ele>
        <time>2025-09-30T11:02:46Z</time>
      </trkpt>
      <trkpt lat="48.58852" lon="-2.55236">
        <ele>8.8</ele>
        <time>2025-09-30T11:02:48Z</time>
      </trkpt>
      <trkpt lat="48.58852" lon="-2.55237">
        <ele>8.8</ele>
        <time>2025-09-30T11:02:54Z</time>
      </trkpt>
      <trkpt lat="48.58852" lon="-2.55237">
        <ele>8.8</ele>
        <time>2025-09-30T11:02:58Z</time>
      </trkpt>
      <trkpt lat="48.58853" lon="-2.55236">
        <ele>8.8</ele>
        <time>2025-09-30T11:03:01Z</time>
      </trkpt>
      <trkpt lat="48.58852" lon="-2.55236">
        <ele>8.8</ele>
        <time>2025-09-30T11:03:07Z</time>
      </trkpt>
      <trkpt lat="48.58852" lon="-2.55236">
        <ele>8.8</ele>
        <time>2025-09-30T11:03:11Z</time>
      </trkpt>
      <trkpt lat="48.58852" lon="-2.55236">
        <ele>8.8</ele>
        <time>2025-09-30T11:03:13Z</time>
      </trkpt>
      <trkpt lat="48.58852" lon="-2.55236">
        <ele>8.8</ele>
        <time>2025-09-30T11:03:14Z</time>
      </trkpt>
      <trkpt lat="48.58852" lon="-2.55236">
        <ele>8.8</ele>
        <time>2025-09-30T11:03:16Z</time>
      </trkpt>
      <trkpt lat="48.58852" lon="-2.55236">
        <ele>8.8</ele>
        <time>2025-09-30T11:03:18Z</time>
      </trkpt>
      <trkpt lat="48.58852" lon="-2.55236">
        <ele>8.8</ele>
        <time>2025-09-30T11:03:29Z</time>
      </trkpt>
      <trkpt lat="48.58852" lon="-2.55236">
        <ele>8.8</ele>
        <time>2025-09-30T11:03:32Z</time>
      </trkpt>
      <trkpt lat="48.58852" lon="-2.55236">
        <ele>8.8</ele>
        <time>2025-09-30T11:03:41Z</time>
      </trkpt>
      <trkpt lat="48.58852" lon="-2.55236">
        <ele>8.8</ele>
        <time>2025-09-30T11:03:42Z</time>
      </trkpt>
      <trkpt lat="48.58852" lon="-2.55236">
        <ele>8.8</ele>
        <time>2025-09-30T11:03:43Z</time>
      </trkpt>
      <trkpt lat="48.58852" lon="-2.55236">
        <ele>8.8</ele>
        <time>2025-09-30T11:03:44Z</time>
      </trkpt>
      <trkpt lat="48.58852" lon="-2.55236">
        <ele>8.8</ele>
        <time>2025-09-30T11:03:55Z</time>
      </trkpt>
      <trkpt lat="48.58852" lon="-2.55236">
        <ele>8.8</ele>
        <time>2025-09-30T11:04:05Z</time>
      </trkpt>
      <trkpt lat="48.58852" lon="-2.55236">
        <ele>8.8</ele>
        <time>2025-09-30T11:04:14Z</time>
      </trkpt>
      <trkpt lat="48.58852" lon="-2.55236">
        <ele>8.8</ele>
        <time>2025-09-30T11:04:23Z</time>
      </trkpt>
      <trkpt lat="48.58852" lon="-2.55236">
        <ele>8.8</ele>
        <time>2025-09-30T11:04:34Z</time>
      </trkpt>
      <trkpt lat="48.58852" lon="-2.55236">
        <ele>8.8</ele>
        <time>2025-09-30T11:04:45Z</time>
      </trkpt>
      <trkpt lat="48.58852" lon="-2.55236">
        <ele>8.8</ele>
        <time>2025-09-30T11:04:47Z</time>
      </trkpt>
      <trkpt lat="48.58852" lon="-2.55236">
        <ele>8.8</ele>
        <time>2025-09-30T11:04:49Z</time>
      </trkpt>
      <trkpt lat="48.58852" lon="-2.55235">
        <ele>8.8</ele>
        <time>2025-09-30T11:04:59Z</time>
      </trkpt>
      <trkpt lat="48.58852" lon="-2.55235">
        <ele>8.8</ele>
        <time>2025-09-30T11:05:13Z</time>
      </trkpt>
      <trkpt lat="48.58852" lon="-2.55235">
        <ele>8.8</ele>
        <time>2025-09-30T11:05:20Z</time>
      </trkpt>
      <trkpt lat="48.58852" lon="-2.55235">
        <ele>8.8</ele>
        <time>2025-09-30T11:05:29Z</time>
      </trkpt>
      <trkpt lat="48.58852" lon="-2.55235">
        <ele>8.8</ele>
        <time>2025-09-30T11:05:32Z</time>
      </trkpt>
      <trkpt lat="48.58852" lon="-2.55235">
        <ele>8.8</ele>
        <time>2025-09-30T11:05:33Z</time>
      </trkpt>
      <trkpt lat="48.58852" lon="-2.55235">
        <ele>8.8</ele>
        <time>2025-09-30T11:05:34Z</time>
      </trkpt>
      <trkpt lat="48.58852" lon="-2.55235">
        <ele>8.8</ele>
        <time>2025-09-30T11:05:37Z</time>
      </trkpt>
      <trkpt lat="48.58852" lon="-2.55235">
        <ele>8.8</ele>
        <time>2025-09-30T11:05:42Z</time>
      </trkpt>
      <trkpt lat="48.58852" lon="-2.55235">
        <ele>8.8</ele>
        <time>2025-09-30T11:05:46Z</time>
      </trkpt>
      <trkpt lat="48.58852" lon="-2.55235">
        <ele>8.8</ele>
        <time>2025-09-30T11:05:48Z</time>
      </trkpt>
      <trkpt lat="48.58852" lon="-2.55235">
        <ele>8.8</ele>
        <time>2025-09-30T11:05:51Z</time>
      </trkpt>
      <trkpt lat="48.58852" lon="-2.55235">
        <ele>8.8</ele>
        <time>2025-09-30T11:05:53Z</time>
      </trkpt>
      <trkpt lat="48.58852" lon="-2.55235">
        <ele>8.8</ele>
        <time>2025-09-30T11:05:54Z</time>
      </trkpt>
      <trkpt lat="48.58852" lon="-2.55235">
        <ele>8.8</ele>
        <time>2025-09-30T11:06:05Z</time>
      </trkpt>
      <trkpt lat="48.58852" lon="-2.55235">
        <ele>8.8</ele>
        <time>2025-09-30T11:06:19Z</time>
      </trkpt>
      <trkpt lat="48.58852" lon="-2.55235">
        <ele>8.8</ele>
        <time>2025-09-30T11:06:34Z</time>
      </trkpt>
      <trkpt lat="48.58852" lon="-2.55235">
        <ele>8.8</ele>
        <time>2025-09-30T11:06:47Z</time>
      </trkpt>
      <trkpt lat="48.58852" lon="-2.55235">
        <ele>8.8</ele>
        <time>2025-09-30T11:06:58Z</time>
      </trkpt>
      <trkpt lat="48.58852" lon="-2.55235">
        <ele>8.8</ele>
        <time>2025-09-30T11:07:09Z</time>
      </trkpt>
      <trkpt lat="48.58852" lon="-2.55235">
        <ele>8.8</ele>
        <time>2025-09-30T11:07:20Z</time>
      </trkpt>
      <trkpt lat="48.58852" lon="-2.55235">
        <ele>8.8</ele>
        <time>2025-09-30T11:07:34Z</time>
      </trkpt>
      <trkpt lat="48.58853" lon="-2.55235">
        <ele>8.8</ele>
        <time>2025-09-30T11:07:41Z</time>
      </trkpt>
      <trkpt lat="48.58853" lon="-2.55235">
        <ele>8.8</ele>
        <time>2025-09-30T11:07:53Z</time>
      </trkpt>
      <trkpt lat="48.58853" lon="-2.55235">
        <ele>8.8</ele>
        <time>2025-09-30T11:07:55Z</time>
      </trkpt>
      <trkpt lat="48.58853" lon="-2.55235">
        <ele>8.8</ele>
        <time>2025-09-30T11:08:07Z</time>
      </trkpt>
      <trkpt lat="48.58853" lon="-2.55235">
        <ele>8.8</ele>
        <time>2025-09-30T11:08:18Z</time>
      </trkpt>
      <trkpt lat="48.58853" lon="-2.55235">
        <ele>8.8</ele>
        <time>2025-09-30T11:08:24Z</time>
      </trkpt>
      <trkpt lat="48.58853" lon="-2.55235">
        <ele>8.8</ele>
        <time>2025-09-30T11:08:27Z</time>
      </trkpt>
      <trkpt lat="48.58853" lon="-2.55235">
        <ele>8.8</ele>
        <time>2025-09-30T11:08:31Z</time>
      </trkpt>
      <trkpt lat="48.58853" lon="-2.55235">
        <ele>8.8</ele>
        <time>2025-09-30T11:08:33Z</time>
      </trkpt>
      <trkpt lat="48.58853" lon="-2.55235">
        <ele>8.8</ele>
        <time>2025-09-30T11:08:44Z</time>
      </trkpt>
      <trkpt lat="48.58855" lon="-2.55234">
        <ele>8.8</ele>
        <time>2025-09-30T11:08:56Z</time>
      </trkpt>
      <trkpt lat="48.58855" lon="-2.55234">
        <ele>8.8</ele>
        <time>2025-09-30T11:09:02Z</time>
      </trkpt>
      <trkpt lat="48.58855" lon="-2.55234">
        <ele>8.8</ele>
        <time>2025-09-30T11:09:18Z</time>
      </trkpt>
      <trkpt lat="48.58855" lon="-2.55234">
        <ele>8.8</ele>
        <time>2025-09-30T11:09:21Z</time>
      </trkpt>
      <trkpt lat="48.58855" lon="-2.55234">
        <ele>8.8</ele>
        <time>2025-09-30T11:09:32Z</time>
      </trkpt>
      <trkpt lat="48.58856" lon="-2.55233">
        <ele>8.8</ele>
        <time>2025-09-30T11:09:44Z</time>
      </trkpt>
      <trkpt lat="48.58856" lon="-2.55233">
        <ele>8.8</ele>
        <time>2025-09-30T11:09:54Z</time>
      </trkpt>
      <trkpt lat="48.58855" lon="-2.55234">
        <ele>8.8</ele>
        <time>2025-09-30T11:10:08Z</time>
      </trkpt>
      <trkpt lat="48.58855" lon="-2.55234">
        <ele>8.8</ele>
        <time>2025-09-30T11:10:22Z</time>
      </trkpt>
      <trkpt lat="48.58855" lon="-2.55234">
        <ele>8.8</ele>
        <time>2025-09-30T11:10:28Z</time>
      </trkpt>
      <trkpt lat="48.58856" lon="-2.55234">
        <ele>8.8</ele>
        <time>2025-09-30T11:10:37Z</time>
      </trkpt>
      <trkpt lat="48.58856" lon="-2.55234">
        <ele>8.8</ele>
        <time>2025-09-30T11:10:38Z</time>
      </trkpt>
      <trkpt lat="48.58856" lon="-2.55234">
        <ele>8.8</ele>
        <time>2025-09-30T11:10:50Z</time>
      </trkpt>
      <trkpt lat="48.58856" lon="-2.55234">
        <ele>8.8</ele>
        <time>2025-09-30T11:11:01Z</time>
      </trkpt>
      <trkpt lat="48.58856" lon="-2.55234">
        <ele>8.8</ele>
        <time>2025-09-30T11:11:06Z</time>
      </trkpt>
      <trkpt lat="48.58856" lon="-2.55234">
        <ele>8.8</ele>
        <time>2025-09-30T11:11:13Z</time>
      </trkpt>
      <trkpt lat="48.58856" lon="-2.55234">
        <ele>8.8</ele>
        <time>2025-09-30T11:11:25Z</time>
      </trkpt>
      <trkpt lat="48.58857" lon="-2.55235">
        <ele>8.8</ele>
        <time>2025-09-30T11:11:29Z</time>
      </trkpt>
      <trkpt lat="48.58857" lon="-2.55235">
        <ele>8.8</ele>
        <time>2025-09-30T11:11:39Z</time>
      </trkpt>
      <trkpt lat="48.58858" lon="-2.55235">
        <ele>8.8</ele>
        <time>2025-09-30T11:11:44Z</time>
      </trkpt>
      <trkpt lat="48.58857" lon="-2.55235">
        <ele>8.8</ele>
        <time>2025-09-30T11:11:53Z</time>
      </trkpt>
      <trkpt lat="48.58857" lon="-2.55235">
        <ele>8.8</ele>
        <time>2025-09-30T11:12:06Z</time>
      </trkpt>
      <trkpt lat="48.58857" lon="-2.55235">
        <ele>8.8</ele>
        <time>2025-09-30T11:12:21Z</time>
      </trkpt>
      <trkpt lat="48.58857" lon="-2.55235">
        <ele>8.8</ele>
        <time>2025-09-30T11:12:24Z</time>
      </trkpt>
      <trkpt lat="48.58857" lon="-2.55235">
        <ele>8.8</ele>
        <time>2025-09-30T11:12:25Z</time>
      </trkpt>
      <trkpt lat="48.58857" lon="-2.55235">
        <ele>8.8</ele>
        <time>2025-09-30T11:12:26Z</time>
      </trkpt>
      <trkpt lat="48.58857" lon="-2.55235">
        <ele>8.8</ele>
        <time>2025-09-30T11:12:37Z</time>
      </trkpt>
      <trkpt lat="48.58858" lon="-2.55235">
        <ele>8.8</ele>
        <time>2025-09-30T11:12:48Z</time>
      </trkpt>
      <trkpt lat="48.58858" lon="-2.55235">
        <ele>8.8</ele>
        <time>2025-09-30T11:12:59Z</time>
      </trkpt>
      <trkpt lat="48.58858" lon="-2.55235">
        <ele>8.8</ele>
        <time>2025-09-30T11:13:00Z</time>
      </trkpt>
      <trkpt lat="48.58858" lon="-2.55235">
        <ele>8.8</ele>
        <time>2025-09-30T11:13:06Z</time>
      </trkpt>
      <trkpt lat="48.58858" lon="-2.55235">
        <ele>8.8</ele>
        <time>2025-09-30T11:13:08Z</time>
      </trkpt>
      <trkpt lat="48.58858" lon="-2.55235">
        <ele>8.8</ele>
        <time>2025-09-30T11:13:11Z</time>
      </trkpt>
      <trkpt lat="48.58858" lon="-2.55235">
        <ele>8.8</ele>
        <time>2025-09-30T11:13:23Z</time>
      </trkpt>
      <trkpt lat="48.58858" lon="-2.55236">
        <ele>8.8</ele>
        <time>2025-09-30T11:13:33Z</time>
      </trkpt>
      <trkpt lat="48.58858" lon="-2.55236">
        <ele>8.8</ele>
        <time>2025-09-30T11:13:44Z</time>
      </trkpt>
      <trkpt lat="48.58858" lon="-2.55236">
        <ele>8.8</ele>
        <time>2025-09-30T11:13:49Z</time>
      </trkpt>
      <trkpt lat="48.58857" lon="-2.55236">
        <ele>8.8</ele>
        <time>2025-09-30T11:13:52Z</time>
      </trkpt>
      <trkpt lat="48.58857" lon="-2.55236">
        <ele>8.8</ele>
        <time>2025-09-30T11:13:54Z</time>
      </trkpt>
      <trkpt lat="48.58857" lon="-2.55236">
        <ele>8.8</ele>
        <time>2025-09-30T11:13:58Z</time>
      </trkpt>
      <trkpt lat="48.58857" lon="-2.55236">
        <ele>8.8</ele>
        <time>2025-09-30T11:14:06Z</time>
      </trkpt>
      <trkpt lat="48.58857" lon="-2.55236">
        <ele>8.8</ele>
        <time>2025-09-30T11:14:17Z</time>
      </trkpt>
      <trkpt lat="48.58857" lon="-2.55236">
        <ele>8.8</ele>
        <time>2025-09-30T11:14:27Z</time>
      </trkpt>
      <trkpt lat="48.58857" lon="-2.55236">
        <ele>8.8</ele>
        <time>2025-09-30T11:14:31Z</time>
      </trkpt>
      <trkpt lat="48.58857" lon="-2.55236">
        <ele>8.8</ele>
        <time>2025-09-30T11:14:35Z</time>
      </trkpt>
      <trkpt lat="48.58857" lon="-2.55236">
        <ele>8.8</ele>
        <time>2025-09-30T11:14:44Z</time>
      </trkpt>
      <trkpt lat="48.58857" lon="-2.55236">
        <ele>8.8</ele>
        <time>2025-09-30T11:14:55Z</time>
      </trkpt>
      <trkpt lat="48.58857" lon="-2.55236">
        <ele>8.8</ele>
        <time>2025-09-30T11:14:58Z</time>
      </trkpt>
      <trkpt lat="48.58857" lon="-2.55236">
        <ele>8.8</ele>
        <time>2025-09-30T11:15:02Z</time>
      </trkpt>
      <trkpt lat="48.58857" lon="-2.55236">
        <ele>8.8</ele>
        <time>2025-09-30T11:15:06Z</time>
      </trkpt>
      <trkpt lat="48.58857" lon="-2.55235">
        <ele>8.8</ele>
        <time>2025-09-30T11:15:19Z</time>
      </trkpt>
      <trkpt lat="48.58857" lon="-2.55235">
        <ele>8.8</ele>
        <time>2025-09-30T11:15:27Z</time>
      </trkpt>
      <trkpt lat="48.58857" lon="-2.55235">
        <ele>8.8</ele>
        <time>2025-09-30T11:15:32Z</time>
      </trkpt>
      <trkpt lat="48.58857" lon="-2.55235">
        <ele>8.8</ele>
        <time>2025-09-30T11:15:33Z</time>
      </trkpt>
      <trkpt lat="48.58857" lon="-2.55235">
        <ele>8.8</ele>
        <time>2025-09-30T11:15:36Z</time>
      </trkpt>
      <trkpt lat="48.58857" lon="-2.55235">
        <ele>8.8</ele>
        <time>2025-09-30T11:15:42Z</time>
      </trkpt>
      <trkpt lat="48.58857" lon="-2.55235">
        <ele>8.8</ele>
        <time>2025-09-30T11:15:43Z</time>
      </trkpt>
      <trkpt lat="48.58856" lon="-2.55236">
        <ele>8.8</ele>
        <time>2025-09-30T11:15:46Z</time>
      </trkpt>
      <trkpt lat="48.58856" lon="-2.55236">
        <ele>8.8</ele>
        <time>2025-09-30T11:15:56Z</time>
      </trkpt>
      <trkpt lat="48.58856" lon="-2.55236">
        <ele>8.8</ele>
        <time>2025-09-30T11:15:57Z</time>
      </trkpt>
      <trkpt lat="48.58856" lon="-2.55236">
        <ele>8.8</ele>
        <time>2025-09-30T11:15:58Z</time>
      </trkpt>
      <trkpt lat="48.58856" lon="-2.55236">
        <ele>8.8</ele>
        <time>2025-09-30T11:16:01Z</time>
      </trkpt>
      <trkpt lat="48.58856" lon="-2.55236">
        <ele>8.8</ele>
        <time>2025-09-30T11:16:12Z</time>
      </trkpt>
      <trkpt lat="48.58858" lon="-2.55238">
        <ele>8.8</ele>
        <time>2025-09-30T11:16:15Z</time>
      </trkpt>
      <trkpt lat="48.58861" lon="-2.55238">
        <ele>8.8</ele>
        <time>2025-09-30T11:16:17Z</time>
      </trkpt>
      <trkpt lat="48.58864" lon="-2.55236">
        <ele>8.8</ele>
        <time>2025-09-30T11:16:20Z</time>
      </trkpt>
      <trkpt lat="48.58864" lon="-2.55234">
        <ele>8.6</ele>
        <time>2025-09-30T11:16:21Z</time>
      </trkpt>
      <trkpt lat="48.58864" lon="-2.55233">
        <ele>8.4</ele>
        <time>2025-09-30T11:16:22Z</time>
      </trkpt>
      <trkpt lat="48.58864" lon="-2.55232">
        <ele>8.4</ele>
        <time>2025-09-30T11:16:23Z</time>
      </trkpt>
      <trkpt lat="48.58866" lon="-2.55225">
        <ele>8.4</ele>
        <time>2025-09-30T11:16:28Z</time>
      </trkpt>
      <trkpt lat="48.58867" lon="-2.55223">
        <ele>8.4</ele>
        <time>2025-09-30T11:16:30Z</time>
      </trkpt>
      <trkpt lat="48.58868" lon="-2.55223">
        <ele>8.4</ele>
        <time>2025-09-30T11:16:31Z</time>
      </trkpt>
      <trkpt lat="48.58874" lon="-2.55227">
        <ele>8.2</ele>
        <time>2025-09-30T11:16:36Z</time>
      </trkpt>
      <trkpt lat="48.58878" lon="-2.5523">
        <ele>8</ele>
        <time>2025-09-30T11:16:40Z</time>
      </trkpt>
      <trkpt lat="48.58879" lon="-2.55232">
        <ele>8</ele>
        <time>2025-09-30T11:16:42Z</time>
      </trkpt>
      <trkpt lat="48.58882" lon="-2.55235">
        <ele>7.6</ele>
        <time>2025-09-30T11:16:45Z</time>
      </trkpt>
      <trkpt lat="48.58883" lon="-2.55238">
        <ele>7.4</ele>
        <time>2025-09-30T11:16:47Z</time>
      </trkpt>
      <trkpt lat="48.58883" lon="-2.55241">
        <ele>7.2</ele>
        <time>2025-09-30T11:16:49Z</time>
      </trkpt>
      <trkpt lat="48.58883" lon="-2.55244">
        <ele>7</ele>
        <time>2025-09-30T11:16:52Z</time>
      </trkpt>
      <trkpt lat="48.58882" lon="-2.55245">
        <ele>7.2</ele>
        <time>2025-09-30T11:16:55Z</time>
      </trkpt>
      <trkpt lat="48.58883" lon="-2.55241">
        <ele>7.2</ele>
        <time>2025-09-30T11:16:59Z</time>
      </trkpt>
      <trkpt lat="48.58883" lon="-2.55241">
        <ele>7.2</ele>
        <time>2025-09-30T11:17:01Z</time>
      </trkpt>
      <trkpt lat="48.58881" lon="-2.55242">
        <ele>7</ele>
        <time>2025-09-30T11:17:03Z</time>
      </trkpt>
      <trkpt lat="48.58868" lon="-2.55237">
        <ele>7.4</ele>
        <time>2025-09-30T11:17:10Z</time>
      </trkpt>
      <trkpt lat="48.58891" lon="-2.55235">
        <ele>7.2</ele>
        <time>2025-09-30T11:18:23Z</time>
      </trkpt>
      <trkpt lat="48.58891" lon="-2.55218">
        <ele>7.2</ele>
        <time>2025-09-30T11:18:24Z</time>
      </trkpt>
      <trkpt lat="48.58882" lon="-2.5521">
        <ele>7</ele>
        <time>2025-09-30T11:18:26Z</time>
      </trkpt>
      <trkpt lat="48.58889" lon="-2.55227">
        <ele>7</ele>
        <time>2025-09-30T11:18:30Z</time>
      </trkpt>
      <trkpt lat="48.58887" lon="-2.55227">
        <ele>7</ele>
        <time>2025-09-30T11:18:31Z</time>
      </trkpt>
      <trkpt lat="48.58887" lon="-2.55234">
        <ele>7.2</ele>
        <time>2025-09-30T11:18:33Z</time>
      </trkpt>
      <trkpt lat="48.58889" lon="-2.55237">
        <ele>7.2</ele>
        <time>2025-09-30T11:18:34Z</time>
      </trkpt>
      <trkpt lat="48.58879" lon="-2.55226">
        <ele>7.2</ele>
        <time>2025-09-30T11:18:37Z</time>
      </trkpt>
      <trkpt lat="48.58875" lon="-2.55218">
        <ele>7.6</ele>
        <time>2025-09-30T11:18:42Z</time>
      </trkpt>
      <trkpt lat="48.58875" lon="-2.55218">
        <ele>7.8</ele>
        <time>2025-09-30T11:18:43Z</time>
      </trkpt>
      <trkpt lat="48.58872" lon="-2.55216">
        <ele>8</ele>
        <time>2025-09-30T11:18:47Z</time>
      </trkpt>
      <trkpt lat="48.5887" lon="-2.55215">
        <ele>8</ele>
        <time>2025-09-30T11:18:52Z</time>
      </trkpt>
      <trkpt lat="48.58869" lon="-2.55216">
        <ele>8.2</ele>
        <time>2025-09-30T11:18:53Z</time>
      </trkpt>
      <trkpt lat="48.58866" lon="-2.55219">
        <ele>8.2</ele>
        <time>2025-09-30T11:18:58Z</time>
      </trkpt>
      <trkpt lat="48.58864" lon="-2.5522">
        <ele>8</ele>
        <time>2025-09-30T11:19:02Z</time>
      </trkpt>
      <trkpt lat="48.58864" lon="-2.55224">
        <ele>8</ele>
        <time>2025-09-30T11:19:04Z</time>
      </trkpt>
      <trkpt lat="48.58865" lon="-2.55227">
        <ele>8</ele>
        <time>2025-09-30T11:19:10Z</time>
      </trkpt>
      <trkpt lat="48.58864" lon="-2.5523">
        <ele>8.2</ele>
        <time>2025-09-30T11:19:18Z</time>
      </trkpt>
      <trkpt lat="48.58862" lon="-2.55232">
        <ele>8.2</ele>
        <time>2025-09-30T11:19:22Z</time>
      </trkpt>
      <trkpt lat="48.58861" lon="-2.55233">
        <ele>8.2</ele>
        <time>2025-09-30T11:19:23Z</time>
      </trkpt>
      <trkpt lat="48.58853" lon="-2.55234">
        <ele>8.6</ele>
        <time>2025-09-30T11:19:30Z</time>
      </trkpt>
      <trkpt lat="48.58851" lon="-2.55234">
        <ele>8.6</ele>
        <time>2025-09-30T11:19:32Z</time>
      </trkpt>
      <trkpt lat="48.58851" lon="-2.55235">
        <ele>8.6</ele>
        <time>2025-09-30T11:19:35Z</time>
      </trkpt>
      <trkpt lat="48.58855" lon="-2.55236">
        <ele>8.8</ele>
        <time>2025-09-30T11:19:43Z</time>
      </trkpt>
      <trkpt lat="48.58857" lon="-2.55237">
        <ele>8.6</ele>
        <time>2025-09-30T11:19:46Z</time>
      </trkpt>
      <trkpt lat="48.58859" lon="-2.55237">
        <ele>8.6</ele>
        <time>2025-09-30T11:19:47Z</time>
      </trkpt>
      <trkpt lat="48.58862" lon="-2.55234">
        <ele>8.6</ele>
        <time>2025-09-30T11:19:50Z</time>
      </trkpt>
      <trkpt lat="48.58863" lon="-2.5523">
        <ele>8.4</ele>
        <time>2025-09-30T11:19:52Z</time>
      </trkpt>
      <trkpt lat="48.58866" lon="-2.55223">
        <ele>8.4</ele>
        <time>2025-09-30T11:19:57Z</time>
      </trkpt>
      <trkpt lat="48.58868" lon="-2.5522">
        <ele>8.4</ele>
        <time>2025-09-30T11:20:00Z</time>
      </trkpt>
      <trkpt lat="48.5887" lon="-2.55219">
        <ele>8.4</ele>
        <time>2025-09-30T11:20:02Z</time>
      </trkpt>
      <trkpt lat="48.58872" lon="-2.5522">
        <ele>8.4</ele>
        <time>2025-09-30T11:20:04Z</time>
      </trkpt>
      <trkpt lat="48.58877" lon="-2.55225">
        <ele>8</ele>
        <time>2025-09-30T11:20:11Z</time>
      </trkpt>
      <trkpt lat="48.58881" lon="-2.55235">
        <ele>8</ele>
        <time>2025-09-30T11:20:18Z</time>
      </trkpt>
      <trkpt lat="48.58878" lon="-2.55237">
        <ele>7.8</ele>
        <time>2025-09-30T11:20:24Z</time>
      </trkpt>
      <trkpt lat="48.58877" lon="-2.55237">
        <ele>7.8</ele>
        <time>2025-09-30T11:20:28Z</time>
      </trkpt>
      <trkpt lat="48.58874" lon="-2.55233">
        <ele>7.6</ele>
        <time>2025-09-30T11:20:34Z</time>
      </trkpt>
      <trkpt lat="48.58871" lon="-2.55231">
        <ele>7.6</ele>
        <time>2025-09-30T11:20:40Z</time>
      </trkpt>
      <trkpt lat="48.5887" lon="-2.55234">
        <ele>7.4</ele>
        <time>2025-09-30T11:20:47Z</time>
      </trkpt>
      <trkpt lat="48.5887" lon="-2.55232">
        <ele>7.4</ele>
        <time>2025-09-30T11:20:51Z</time>
      </trkpt>
      <trkpt lat="48.58871" lon="-2.55231">
        <ele>7.6</ele>
        <time>2025-09-30T11:20:53Z</time>
      </trkpt>
      <trkpt lat="48.58869" lon="-2.5523">
        <ele>7.6</ele>
        <time>2025-09-30T11:20:56Z</time>
      </trkpt>
      <trkpt lat="48.58869" lon="-2.55231">
        <ele>7.6</ele>
        <time>2025-09-30T11:20:58Z</time>
      </trkpt>
      <trkpt lat="48.58869" lon="-2.55231">
        <ele>7.6</ele>
        <time>2025-09-30T11:20:59Z</time>
      </trkpt>
      <trkpt lat="48.58869" lon="-2.55228">
        <ele>7.6</ele>
        <time>2025-09-30T11:21:06Z</time>
      </trkpt>
      <trkpt lat="48.58869" lon="-2.55226">
        <ele>7.6</ele>
        <time>2025-09-30T11:21:12Z</time>
      </trkpt>
      <trkpt lat="48.58869" lon="-2.55226">
        <ele>7.8</ele>
        <time>2025-09-30T11:21:14Z</time>
      </trkpt>
      <trkpt lat="48.58869" lon="-2.55226">
        <ele>7.8</ele>
        <time>2025-09-30T11:21:15Z</time>
      </trkpt>
      <trkpt lat="48.58869" lon="-2.55226">
        <ele>7.8</ele>
        <time>2025-09-30T11:21:16Z</time>
      </trkpt>
      <trkpt lat="48.58869" lon="-2.55226">
        <ele>7.4</ele>
        <time>2025-09-30T11:21:28Z</time>
      </trkpt>
      <trkpt lat="48.5887" lon="-2.55226">
        <ele>7.4</ele>
        <time>2025-09-30T11:21:31Z</time>
      </trkpt>
      <trkpt lat="48.5887" lon="-2.55226">
        <ele>7.4</ele>
        <time>2025-09-30T11:21:36Z</time>
      </trkpt>
      <trkpt lat="48.58871" lon="-2.5523">
        <ele>7.4</ele>
        <time>2025-09-30T11:21:44Z</time>
      </trkpt>
      <trkpt lat="48.58869" lon="-2.55232">
        <ele>7.4</ele>
        <time>2025-09-30T11:21:53Z</time>
      </trkpt>
      <trkpt lat="48.58869" lon="-2.55232">
        <ele>7.4</ele>
        <time>2025-09-30T11:21:59Z</time>
      </trkpt>
      <trkpt lat="48.58873" lon="-2.55228">
        <ele>7.4</ele>
        <time>2025-09-30T11:22:55Z</time>
      </trkpt>
      <trkpt lat="48.58873" lon="-2.55221">
        <ele>7.4</ele>
        <time>2025-09-30T11:23:09Z</time>
      </trkpt>
      <trkpt lat="48.58873" lon="-2.55221">
        <ele>7.4</ele>
        <time>2025-09-30T11:23:11Z</time>
      </trkpt>
      <trkpt lat="48.58872" lon="-2.55222">
        <ele>7.4</ele>
        <time>2025-09-30T11:23:35Z</time>
      </trkpt>
      <trkpt lat="48.58869" lon="-2.55227">
        <ele>7.4</ele>
        <time>2025-09-30T11:24:01Z</time>
      </trkpt>
      <trkpt lat="48.58869" lon="-2.55227">
        <ele>7.4</ele>
        <time>2025-09-30T11:24:03Z</time>
      </trkpt>
      <trkpt lat="48.58868" lon="-2.55228">
        <ele>7.4</ele>
        <time>2025-09-30T11:24:10Z</time>
      </trkpt>
      <trkpt lat="48.58868" lon="-2.55228">
        <ele>7.4</ele>
        <time>2025-09-30T11:24:12Z</time>
      </trkpt>
      <trkpt lat="48.58867" lon="-2.55228">
        <ele>7.4</ele>
        <time>2025-09-30T11:24:17Z</time>
      </trkpt>
      <trkpt lat="48.58867" lon="-2.55224">
        <ele>7.4</ele>
        <time>2025-09-30T11:24:50Z</time>
      </trkpt>
      <trkpt lat="48.58865" lon="-2.5522">
        <ele>7.4</ele>
        <time>2025-09-30T11:25:10Z</time>
      </trkpt>
      <trkpt lat="48.58864" lon="-2.55217">
        <ele>7.4</ele>
        <time>2025-09-30T11:25:16Z</time>
      </trkpt>
      <trkpt lat="48.58861" lon="-2.55222">
        <ele>7.4</ele>
        <time>2025-09-30T11:25:42Z</time>
      </trkpt>
      <trkpt lat="48.58868" lon="-2.55233">
        <ele>7.4</ele>
        <time>2025-09-30T11:26:26Z</time>
      </trkpt>
      <trkpt lat="48.58866" lon="-2.55237">
        <ele>7.4</ele>
        <time>2025-09-30T11:26:31Z</time>
      </trkpt>
      <trkpt lat="48.58869" lon="-2.55237">
        <ele>7.4</ele>
        <time>2025-09-30T11:26:39Z</time>
      </trkpt>
      <trkpt lat="48.5887" lon="-2.55238">
        <ele>7.4</ele>
        <time>2025-09-30T11:26:43Z</time>
      </trkpt>
      <trkpt lat="48.58873" lon="-2.55238">
        <ele>7.4</ele>
        <time>2025-09-30T11:26:48Z</time>
      </trkpt>
      <trkpt lat="48.58873" lon="-2.55235">
        <ele>7.4</ele>
        <time>2025-09-30T11:26:55Z</time>
      </trkpt>
      <trkpt lat="48.58874" lon="-2.55237">
        <ele>7.4</ele>
        <time>2025-09-30T11:27:10Z</time>
      </trkpt>
      <trkpt lat="48.58875" lon="-2.5524">
        <ele>7.4</ele>
        <time>2025-09-30T11:27:14Z</time>
      </trkpt>
      <trkpt lat="48.58869" lon="-2.55236">
        <ele>7.4</ele>
        <time>2025-09-30T11:27:21Z</time>
      </trkpt>
      <trkpt lat="48.5887" lon="-2.55238">
        <ele>7.4</ele>
        <time>2025-09-30T11:27:25Z</time>
      </trkpt>
      <trkpt lat="48.58871" lon="-2.55237">
        <ele>7.4</ele>
        <time>2025-09-30T11:27:31Z</time>
      </trkpt>
      <trkpt lat="48.5887" lon="-2.55233">
        <ele>7.4</ele>
        <time>2025-09-30T11:27:35Z</time>
      </trkpt>
      <trkpt lat="48.58871" lon="-2.55231">
        <ele>7.4</ele>
        <time>2025-09-30T11:27:38Z</time>
      </trkpt>
      <trkpt lat="48.58871" lon="-2.55229">
        <ele>7.4</ele>
        <time>2025-09-30T11:27:41Z</time>
      </trkpt>
      <trkpt lat="48.5887" lon="-2.55229">
        <ele>7.4</ele>
        <time>2025-09-30T11:27:43Z</time>
      </trkpt>
      <trkpt lat="48.58866" lon="-2.5523">
        <ele>7.4</ele>
        <time>2025-09-30T11:27:49Z</time>
      </trkpt>
      <trkpt lat="48.58863" lon="-2.55231">
        <ele>7.4</ele>
        <time>2025-09-30T11:27:53Z</time>
      </trkpt>
      <trkpt lat="48.58862" lon="-2.55231">
        <ele>7.4</ele>
        <time>2025-09-30T11:27:55Z</time>
      </trkpt>
      <trkpt lat="48.58861" lon="-2.55232">
        <ele>7.4</ele>
        <time>2025-09-30T11:27:57Z</time>
      </trkpt>
      <trkpt lat="48.5886" lon="-2.55231">
        <ele>7.4</ele>
        <time>2025-09-30T11:27:58Z</time>
      </trkpt>
      <trkpt lat="48.58858" lon="-2.55237">
        <ele>7.4</ele>
        <time>2025-09-30T11:28:04Z</time>
      </trkpt>
      <trkpt lat="48.58857" lon="-2.55236">
        <ele>7.4</ele>
        <time>2025-09-30T11:28:09Z</time>
      </trkpt>
      <trkpt lat="48.58858" lon="-2.55236">
        <ele>7.4</ele>
        <time>2025-09-30T11:28:15Z</time>
      </trkpt>
      <trkpt lat="48.58858" lon="-2.55234">
        <ele>7.4</ele>
        <time>2025-09-30T11:28:20Z</time>
      </trkpt>
      <trkpt lat="48.58858" lon="-2.55232">
        <ele>7.4</ele>
        <time>2025-09-30T11:28:21Z</time>
      </trkpt>
      <trkpt lat="48.5886" lon="-2.55236">
        <ele>7.4</ele>
        <time>2025-09-30T11:28:24Z</time>
      </trkpt>
      <trkpt lat="48.58858" lon="-2.55239">
        <ele>7.4</ele>
        <time>2025-09-30T11:28:29Z</time>
      </trkpt>
      <trkpt lat="48.58859" lon="-2.55233">
        <ele>7.4</ele>
        <time>2025-09-30T11:28:34Z</time>
      </trkpt>
      <trkpt lat="48.58859" lon="-2.55237">
        <ele>7.4</ele>
        <time>2025-09-30T11:28:40Z</time>
      </trkpt>
      <trkpt lat="48.58861" lon="-2.55243">
        <ele>7.4</ele>
        <time>2025-09-30T11:28:47Z</time>
      </trkpt>
      <trkpt lat="48.58864" lon="-2.55242">
        <ele>7.4</ele>
        <time>2025-09-30T11:28:58Z</time>
      </trkpt>
      <trkpt lat="48.58868" lon="-2.55237">
        <ele>7.4</ele>
        <time>2025-09-30T11:29:05Z</time>
      </trkpt>
      <trkpt lat="48.58867" lon="-2.55238">
        <ele>7.4</ele>
        <time>2025-09-30T11:29:12Z</time>
      </trkpt>
      <trkpt lat="48.58867" lon="-2.55239">
        <ele>7.4</ele>
        <time>2025-09-30T11:29:22Z</time>
      </trkpt>
      <trkpt lat="48.58865" lon="-2.55239">
        <ele>7.4</ele>
        <time>2025-09-30T11:29:28Z</time>
      </trkpt>
      <trkpt lat="48.58864" lon="-2.55239">
        <ele>7.4</ele>
        <time>2025-09-30T11:29:35Z</time>
      </trkpt>
      <trkpt lat="48.58865" lon="-2.55238">
        <ele>7.4</ele>
        <time>2025-09-30T11:29:43Z</time>
      </trkpt>
      <trkpt lat="48.5887" lon="-2.55236">
        <ele>7.4</ele>
        <time>2025-09-30T11:29:48Z</time>
      </trkpt>
      <trkpt lat="48.58872" lon="-2.55233">
        <ele>7.4</ele>
        <time>2025-09-30T11:29:53Z</time>
      </trkpt>
      <trkpt lat="48.58873" lon="-2.55236">
        <ele>7.4</ele>
        <time>2025-09-30T11:29:59Z</time>
      </trkpt>
      <trkpt lat="48.5887" lon="-2.55239">
        <ele>7.4</ele>
        <time>2025-09-30T11:30:04Z</time>
      </trkpt>
      <trkpt lat="48.58864" lon="-2.55241">
        <ele>7.4</ele>
        <time>2025-09-30T11:30:11Z</time>
      </trkpt>
      <trkpt lat="48.58864" lon="-2.55239">
        <ele>7.4</ele>
        <time>2025-09-30T11:30:13Z</time>
      </trkpt>
      <trkpt lat="48.58864" lon="-2.55238">
        <ele>7.4</ele>
        <time>2025-09-30T11:30:15Z</time>
      </trkpt>
      <trkpt lat="48.58864" lon="-2.55232">
        <ele>7.4</ele>
        <time>2025-09-30T11:30:21Z</time>
      </trkpt>
      <trkpt lat="48.58862" lon="-2.55232">
        <ele>7.4</ele>
        <time>2025-09-30T11:30:26Z</time>
      </trkpt>
      <trkpt lat="48.58862" lon="-2.5523">
        <ele>7.4</ele>
        <time>2025-09-30T11:30:30Z</time>
      </trkpt>
      <trkpt lat="48.58863" lon="-2.5523">
        <ele>7.6</ele>
        <time>2025-09-30T11:30:32Z</time>
      </trkpt>
      <trkpt lat="48.58876" lon="-2.55231">
        <ele>7.6</ele>
        <time>2025-09-30T11:30:37Z</time>
      </trkpt>
      <trkpt lat="48.58871" lon="-2.55234">
        <ele>7.4</ele>
        <time>2025-09-30T11:30:43Z</time>
      </trkpt>
      <trkpt lat="48.58866" lon="-2.55232">
        <ele>7.4</ele>
        <time>2025-09-30T11:30:49Z</time>
      </trkpt>
      <trkpt lat="48.58866" lon="-2.55231">
        <ele>7.6</ele>
        <time>2025-09-30T11:30:50Z</time>
      </trkpt>
      <trkpt lat="48.58868" lon="-2.55221">
        <ele>7.6</ele>
        <time>2025-09-30T11:30:57Z</time>
      </trkpt>
      <trkpt lat="48.58865" lon="-2.55219">
        <ele>7.6</ele>
        <time>2025-09-30T11:31:05Z</time>
      </trkpt>
      <trkpt lat="48.58865" lon="-2.55221">
        <ele>7.6</ele>
        <time>2025-09-30T11:31:10Z</time>
      </trkpt>
      <trkpt lat="48.58863" lon="-2.55224">
        <ele>7.6</ele>
        <time>2025-09-30T11:31:15Z</time>
      </trkpt>
      <trkpt lat="48.58862" lon="-2.5523">
        <ele>7.8</ele>
        <time>2025-09-30T11:31:21Z</time>
      </trkpt>
      <trkpt lat="48.58862" lon="-2.55233">
        <ele>7.6</ele>
        <time>2025-09-30T11:31:26Z</time>
      </trkpt>
      <trkpt lat="48.58863" lon="-2.55235">
        <ele>7.6</ele>
        <time>2025-09-30T11:31:29Z</time>
      </trkpt>
      <trkpt lat="48.58863" lon="-2.55234">
        <ele>7.6</ele>
        <time>2025-09-30T11:31:30Z</time>
      </trkpt>
      <trkpt lat="48.58862" lon="-2.55233">
        <ele>7.6</ele>
        <time>2025-09-30T11:31:36Z</time>
      </trkpt>
      <trkpt lat="48.58861" lon="-2.55233">
        <ele>7.6</ele>
        <time>2025-09-30T11:31:40Z</time>
      </trkpt>
      <trkpt lat="48.58866" lon="-2.55236">
        <ele>7.6</ele>
        <time>2025-09-30T11:31:43Z</time>
      </trkpt>
      <trkpt lat="48.58867" lon="-2.55234">
        <ele>7.6</ele>
        <time>2025-09-30T11:31:49Z</time>
      </trkpt>
      <trkpt lat="48.58867" lon="-2.55233">
        <ele>7.6</ele>
        <time>2025-09-30T11:31:55Z</time>
      </trkpt>
      <trkpt lat="48.58869" lon="-2.55239">
        <ele>7.6</ele>
        <time>2025-09-30T11:32:01Z</time>
      </trkpt>
      <trkpt lat="48.58868" lon="-2.5524">
        <ele>7.6</ele>
        <time>2025-09-30T11:32:02Z</time>
      </trkpt>
      <trkpt lat="48.58866" lon="-2.5524">
        <ele>7.6</ele>
        <time>2025-09-30T11:32:05Z</time>
      </trkpt>
      <trkpt lat="48.58866" lon="-2.5524">
        <ele>7.6</ele>
        <time>2025-09-30T11:32:06Z</time>
      </trkpt>
      <trkpt lat="48.58866" lon="-2.55238">
        <ele>7.6</ele>
        <time>2025-09-30T11:32:07Z</time>
      </trkpt>
      <trkpt lat="48.58865" lon="-2.55235">
        <ele>7.6</ele>
        <time>2025-09-30T11:32:14Z</time>
      </trkpt>
      <trkpt lat="48.58865" lon="-2.55235">
        <ele>7.6</ele>
        <time>2025-09-30T11:32:16Z</time>
      </trkpt>
      <trkpt lat="48.58864" lon="-2.55233">
        <ele>7.6</ele>
        <time>2025-09-30T11:32:20Z</time>
      </trkpt>
      <trkpt lat="48.58864" lon="-2.55233">
        <ele>7.6</ele>
        <time>2025-09-30T11:32:21Z</time>
      </trkpt>
      <trkpt lat="48.58866" lon="-2.55233">
        <ele>7.6</ele>
        <time>2025-09-30T11:32:29Z</time>
      </trkpt>
      <trkpt lat="48.58865" lon="-2.5523">
        <ele>7.6</ele>
        <time>2025-09-30T11:32:38Z</time>
      </trkpt>
      <trkpt lat="48.58868" lon="-2.55232">
        <ele>7.6</ele>
        <time>2025-09-30T11:32:44Z</time>
      </trkpt>
      <trkpt lat="48.58869" lon="-2.55241">
        <ele>7.6</ele>
        <time>2025-09-30T11:32:51Z</time>
      </trkpt>
      <trkpt lat="48.58871" lon="-2.55239">
        <ele>7.6</ele>
        <time>2025-09-30T11:33:01Z</time>
      </trkpt>
      <trkpt lat="48.58875" lon="-2.55237">
        <ele>7.6</ele>
        <time>2025-09-30T11:33:08Z</time>
      </trkpt>
      <trkpt lat="48.58874" lon="-2.55237">
        <ele>7.6</ele>
        <time>2025-09-30T11:33:15Z</time>
      </trkpt>
      <trkpt lat="48.58871" lon="-2.55233">
        <ele>7.6</ele>
        <time>2025-09-30T11:33:24Z</time>
      </trkpt>
      <trkpt lat="48.58872" lon="-2.5523">
        <ele>7.6</ele>
        <time>2025-09-30T11:33:31Z</time>
      </trkpt>
      <trkpt lat="48.58872" lon="-2.55229">
        <ele>7.6</ele>
        <time>2025-09-30T11:33:32Z</time>
      </trkpt>
      <trkpt lat="48.58871" lon="-2.55228">
        <ele>7.6</ele>
        <time>2025-09-30T11:33:40Z</time>
      </trkpt>
      <trkpt lat="48.58874" lon="-2.5523">
        <ele>7.6</ele>
        <time>2025-09-30T11:33:42Z</time>
      </trkpt>
      <trkpt lat="48.58884" lon="-2.5523">
        <ele>7.6</ele>
        <time>2025-09-30T11:33:48Z</time>
      </trkpt>
      <trkpt lat="48.58885" lon="-2.55229">
        <ele>7.6</ele>
        <time>2025-09-30T11:33:52Z</time>
      </trkpt>
      <trkpt lat="48.58885" lon="-2.55228">
        <ele>7.6</ele>
        <time>2025-09-30T11:33:56Z</time>
      </trkpt>
      <trkpt lat="48.58884" lon="-2.55228">
        <ele>7.6</ele>
        <time>2025-09-30T11:33:58Z</time>
      </trkpt>
      <trkpt lat="48.58883" lon="-2.55228">
        <ele>7.6</ele>
        <time>2025-09-30T11:34:00Z</time>
      </trkpt>
      <trkpt lat="48.5888" lon="-2.55229">
        <ele>7.6</ele>
        <time>2025-09-30T11:34:07Z</time>
      </trkpt>
      <trkpt lat="48.58879" lon="-2.55231">
        <ele>7.6</ele>
        <time>2025-09-30T11:34:13Z</time>
      </trkpt>
      <trkpt lat="48.58879" lon="-2.55233">
        <ele>7.6</ele>
        <time>2025-09-30T11:34:18Z</time>
      </trkpt>
      <trkpt lat="48.58881" lon="-2.55229">
        <ele>7.6</ele>
        <time>2025-09-30T11:34:24Z</time>
      </trkpt>
      <trkpt lat="48.58883" lon="-2.55228">
        <ele>7.6</ele>
        <time>2025-09-30T11:34:28Z</time>
      </trkpt>
      <trkpt lat="48.58886" lon="-2.55229">
        <ele>7.6</ele>
        <time>2025-09-30T11:34:41Z</time>
      </trkpt>
      <trkpt lat="48.58883" lon="-2.55228">
        <ele>5.2</ele>
        <time>2025-09-30T11:34:49Z</time>
      </trkpt>
      <trkpt lat="48.58881" lon="-2.55227">
        <ele>5</ele>
        <time>2025-09-30T11:34:55Z</time>
      </trkpt>
      <trkpt lat="48.58879" lon="-2.55229">
        <ele>4.8</ele>
        <time>2025-09-30T11:34:59Z</time>
      </trkpt>
      <trkpt lat="48.58881" lon="-2.55232">
        <ele>4.6</ele>
        <time>2025-09-30T11:35:05Z</time>
      </trkpt>
      <trkpt lat="48.58879" lon="-2.55232">
        <ele>4</ele>
        <time>2025-09-30T11:35:23Z</time>
      </trkpt>
      <trkpt lat="48.58876" lon="-2.5523">
        <ele>3.8</ele>
        <time>2025-09-30T11:35:30Z</time>
      </trkpt>
      <trkpt lat="48.58875" lon="-2.55231">
        <ele>3.8</ele>
        <time>2025-09-30T11:35:33Z</time>
      </trkpt>
      <trkpt lat="48.58876" lon="-2.55227">
        <ele>3.6</ele>
        <time>2025-09-30T11:35:40Z</time>
      </trkpt>
      <trkpt lat="48.58883" lon="-2.5523">
        <ele>3.4</ele>
        <time>2025-09-30T11:35:44Z</time>
      </trkpt>
      <trkpt lat="48.58883" lon="-2.55235">
        <ele>3.4</ele>
        <time>2025-09-30T11:35:50Z</time>
      </trkpt>
      <trkpt lat="48.58878" lon="-2.55234">
        <ele>3.2</ele>
        <time>2025-09-30T11:35:55Z</time>
      </trkpt>
      <trkpt lat="48.58877" lon="-2.55233">
        <ele>3</ele>
        <time>2025-09-30T11:35:58Z</time>
      </trkpt>
      <trkpt lat="48.58877" lon="-2.55232">
        <ele>3</ele>
        <time>2025-09-30T11:36:00Z</time>
      </trkpt>
      <trkpt lat="48.58877" lon="-2.55232">
        <ele>3</ele>
        <time>2025-09-30T11:36:06Z</time>
      </trkpt>
      <trkpt lat="48.58877" lon="-2.55232">
        <ele>3.2</ele>
        <time>2025-09-30T11:36:07Z</time>
      </trkpt>
      <trkpt lat="48.58875" lon="-2.55231">
        <ele>3.2</ele>
        <time>2025-09-30T11:36:10Z</time>
      </trkpt>
      <trkpt lat="48.58874" lon="-2.55231">
        <ele>3</ele>
        <time>2025-09-30T11:36:15Z</time>
      </trkpt>
      <trkpt lat="48.58875" lon="-2.55233">
        <ele>3</ele>
        <time>2025-09-30T11:36:18Z</time>
      </trkpt>
      <trkpt lat="48.58875" lon="-2.55234">
        <ele>3</ele>
        <time>2025-09-30T11:36:20Z</time>
      </trkpt>
      <trkpt lat="48.58875" lon="-2.55233">
        <ele>2.6</ele>
        <time>2025-09-30T11:36:27Z</time>
      </trkpt>
      <trkpt lat="48.58875" lon="-2.55234">
        <ele>2.6</ele>
        <time>2025-09-30T11:36:32Z</time>
      </trkpt>
      <trkpt lat="48.58876" lon="-2.55235">
        <ele>2.8</ele>
        <time>2025-09-30T11:36:44Z</time>
      </trkpt>
      <trkpt lat="48.58876" lon="-2.55239">
        <ele>2.2</ele>
        <time>2025-09-30T11:37:06Z</time>
      </trkpt>
      <trkpt lat="48.5888" lon="-2.55241">
        <ele>2.6</ele>
        <time>2025-09-30T11:37:12Z</time>
      </trkpt>
      <trkpt lat="48.58879" lon="-2.5524">
        <ele>2.2</ele>
        <time>2025-09-30T11:37:19Z</time>
      </trkpt>
      <trkpt lat="48.58878" lon="-2.55234">
        <ele>2.2</ele>
        <time>2025-09-30T11:37:38Z</time>
      </trkpt>
      <trkpt lat="48.58877" lon="-2.55232">
        <ele>2.2</ele>
        <time>2025-09-30T11:37:39Z</time>
      </trkpt>
      <trkpt lat="48.58875" lon="-2.55225">
        <ele>2.4</ele>
        <time>2025-09-30T11:37:44Z</time>
      </trkpt>
      <trkpt lat="48.58873" lon="-2.55221">
        <ele>2.8</ele>
        <time>2025-09-30T11:37:47Z</time>
      </trkpt>
      <trkpt lat="48.58872" lon="-2.55219">
        <ele>2.8</ele>
        <time>2025-09-30T11:37:50Z</time>
      </trkpt>
      <trkpt lat="48.5887" lon="-2.55214">
        <ele>3.2</ele>
        <time>2025-09-30T11:37:57Z</time>
      </trkpt>
      <trkpt lat="48.58868" lon="-2.55216">
        <ele>3.2</ele>
        <time>2025-09-30T11:38:02Z</time>
      </trkpt>
      <trkpt lat="48.58868" lon="-2.55216">
        <ele>3.2</ele>
        <time>2025-09-30T11:38:12Z</time>
      </trkpt>
      <trkpt lat="48.58868" lon="-2.55216">
        <ele>3.2</ele>
        <time>2025-09-30T11:38:15Z</time>
      </trkpt>
      <trkpt lat="48.5887" lon="-2.55215">
        <ele>4</ele>
        <time>2025-09-30T11:38:41Z</time>
      </trkpt>
      <trkpt lat="48.58871" lon="-2.55215">
        <ele>4.2</ele>
        <time>2025-09-30T11:38:54Z</time>
      </trkpt>
      <trkpt lat="48.58871" lon="-2.55215">
        <ele>4.2</ele>
        <time>2025-09-30T11:38:56Z</time>
      </trkpt>
      <trkpt lat="48.58872" lon="-2.55216">
        <ele>3.8</ele>
        <time>2025-09-30T11:39:05Z</time>
      </trkpt>
      <trkpt lat="48.58872" lon="-2.55216">
        <ele>3.8</ele>
        <time>2025-09-30T11:39:07Z</time>
      </trkpt>
      <trkpt lat="48.58872" lon="-2.55216">
        <ele>4</ele>
        <time>2025-09-30T11:39:18Z</time>
      </trkpt>
      <trkpt lat="48.58873" lon="-2.55215">
        <ele>3.8</ele>
        <time>2025-09-30T11:39:42Z</time>
      </trkpt>
      <trkpt lat="48.58873" lon="-2.55217">
        <ele>4.2</ele>
        <time>2025-09-30T11:39:56Z</time>
      </trkpt>
      <trkpt lat="48.58874" lon="-2.55215">
        <ele>4.2</ele>
        <time>2025-09-30T11:40:03Z</time>
      </trkpt>
      <trkpt lat="48.58871" lon="-2.55215">
        <ele>4.2</ele>
        <time>2025-09-30T11:40:11Z</time>
      </trkpt>
      <trkpt lat="48.58871" lon="-2.55217">
        <ele>4.2</ele>
        <time>2025-09-30T11:40:16Z</time>
      </trkpt>
      <trkpt lat="48.58871" lon="-2.55218">
        <ele>4.2</ele>
        <time>2025-09-30T11:40:27Z</time>
      </trkpt>
      <trkpt lat="48.58872" lon="-2.55218">
        <ele>4.2</ele>
        <time>2025-09-30T11:40:28Z</time>
      </trkpt>
      <trkpt lat="48.58875" lon="-2.55222">
        <ele>4</ele>
        <time>2025-09-30T11:40:32Z</time>
      </trkpt>
      <trkpt lat="48.58877" lon="-2.55229">
        <ele>3.8</ele>
        <time>2025-09-30T11:40:37Z</time>
      </trkpt>
      <trkpt lat="48.58878" lon="-2.55238">
        <ele>3.4</ele>
        <time>2025-09-30T11:40:44Z</time>
      </trkpt>
      <trkpt lat="48.58878" lon="-2.55239">
        <ele>3.4</ele>
        <time>2025-09-30T11:40:45Z</time>
      </trkpt>
      <trkpt lat="48.58879" lon="-2.55239">
        <ele>3.4</ele>
        <time>2025-09-30T11:40:50Z</time>
      </trkpt>
      <trkpt lat="48.58879" lon="-2.55236">
        <ele>3.2</ele>
        <time>2025-09-30T11:40:56Z</time>
      </trkpt>
      <trkpt lat="48.58878" lon="-2.55237">
        <ele>3.4</ele>
        <time>2025-09-30T11:41:01Z</time>
      </trkpt>
      <trkpt lat="48.58878" lon="-2.55237">
        <ele>3.4</ele>
        <time>2025-09-30T11:41:16Z</time>
      </trkpt>
      <trkpt lat="48.58878" lon="-2.55239">
        <ele>3.6</ele>
        <time>2025-09-30T11:41:22Z</time>
      </trkpt>
      <trkpt lat="48.58876" lon="-2.55241">
        <ele>3.6</ele>
        <time>2025-09-30T11:41:31Z</time>
      </trkpt>
      <trkpt lat="48.58876" lon="-2.55241">
        <ele>3.6</ele>
        <time>2025-09-30T11:41:34Z</time>
      </trkpt>
      <trkpt lat="48.58876" lon="-2.55241">
        <ele>3.6</ele>
        <time>2025-09-30T11:41:43Z</time>
      </trkpt>
      <trkpt lat="48.58876" lon="-2.55241">
        <ele>3.6</ele>
        <time>2025-09-30T11:41:44Z</time>
      </trkpt>
      <trkpt lat="48.58878" lon="-2.55242">
        <ele>3.6</ele>
        <time>2025-09-30T11:42:04Z</time>
      </trkpt>
      <trkpt lat="48.58881" lon="-2.55242">
        <ele>3.6</ele>
        <time>2025-09-30T11:42:24Z</time>
      </trkpt>
      <trkpt lat="48.58881" lon="-2.55242">
        <ele>3.6</ele>
        <time>2025-09-30T11:42:33Z</time>
      </trkpt>
      <trkpt lat="48.58881" lon="-2.55241">
        <ele>3.6</ele>
        <time>2025-09-30T11:42:41Z</time>
      </trkpt>
      <trkpt lat="48.58885" lon="-2.55234">
        <ele>3.6</ele>
        <time>2025-09-30T11:42:59Z</time>
      </trkpt>
      <trkpt lat="48.58883" lon="-2.5523">
        <ele>3.6</ele>
        <time>2025-09-30T11:43:11Z</time>
      </trkpt>
      <trkpt lat="48.58882" lon="-2.5523">
        <ele>3.6</ele>
        <time>2025-09-30T11:43:24Z</time>
      </trkpt>
      <trkpt lat="48.58882" lon="-2.55232">
        <ele>3.6</ele>
        <time>2025-09-30T11:44:49Z</time>
      </trkpt>
      <trkpt lat="48.58882" lon="-2.55231">
        <ele>3.6</ele>
        <time>2025-09-30T11:44:59Z</time>
      </trkpt>
      <trkpt lat="48.58881" lon="-2.55233">
        <ele>3.6</ele>
        <time>2025-09-30T11:45:01Z</time>
      </trkpt>
      <trkpt lat="48.58881" lon="-2.55235">
        <ele>3.6</ele>
        <time>2025-09-30T11:45:02Z</time>
      </trkpt>
      <trkpt lat="48.58881" lon="-2.55237">
        <ele>3.6</ele>
        <time>2025-09-30T11:45:03Z</time>
      </trkpt>
      <trkpt lat="48.58882" lon="-2.55241">
        <ele>3.4</ele>
        <time>2025-09-30T11:45:05Z</time>
      </trkpt>
      <trkpt lat="48.58882" lon="-2.55244">
        <ele>3.4</ele>
        <time>2025-09-30T11:45:06Z</time>
      </trkpt>
      <trkpt lat="48.58882" lon="-2.55246">
        <ele>3.4</ele>
        <time>2025-09-30T11:45:07Z</time>
      </trkpt>
      <trkpt lat="48.58882" lon="-2.55252">
        <ele>3.4</ele>
        <time>2025-09-30T11:45:09Z</time>
      </trkpt>
      <trkpt lat="48.58882" lon="-2.55254">
        <ele>3.4</ele>
        <time>2025-09-30T11:45:10Z</time>
      </trkpt>
      <trkpt lat="48.58881" lon="-2.55257">
        <ele>3.2</ele>
        <time>2025-09-30T11:45:11Z</time>
      </trkpt>
      <trkpt lat="48.58881" lon="-2.55264">
        <ele>3.2</ele>
        <time>2025-09-30T11:45:13Z</time>
      </trkpt>
      <trkpt lat="48.58881" lon="-2.55268">
        <ele>3</ele>
        <time>2025-09-30T11:45:15Z</time>
      </trkpt>
      <trkpt lat="48.58883" lon="-2.55284">
        <ele>2.8</ele>
        <time>2025-09-30T11:45:21Z</time>
      </trkpt>
      <trkpt lat="48.58883" lon="-2.55289">
        <ele>2.8</ele>
        <time>2025-09-30T11:45:23Z</time>
      </trkpt>
      <trkpt lat="48.58886" lon="-2.55303">
        <ele>2.8</ele>
        <time>2025-09-30T11:45:29Z</time>
      </trkpt>
      <trkpt lat="48.58886" lon="-2.55309">
        <ele>2.6</ele>
        <time>2025-09-30T11:45:31Z</time>
      </trkpt>
      <trkpt lat="48.58886" lon="-2.55319">
        <ele>2.6</ele>
        <time>2025-09-30T11:45:35Z</time>
      </trkpt>
      <trkpt lat="48.58888" lon="-2.55332">
        <ele>2.6</ele>
        <time>2025-09-30T11:45:42Z</time>
      </trkpt>
      <trkpt lat="48.58888" lon="-2.55334">
        <ele>2.6</ele>
        <time>2025-09-30T11:45:43Z</time>
      </trkpt>
      <trkpt lat="48.58888" lon="-2.55335">
        <ele>2.4</ele>
        <time>2025-09-30T11:45:45Z</time>
      </trkpt>
      <trkpt lat="48.58889" lon="-2.55337">
        <ele>2.6</ele>
        <time>2025-09-30T11:45:47Z</time>
      </trkpt>
      <trkpt lat="48.58891" lon="-2.55349">
        <ele>2.6</ele>
        <time>2025-09-30T11:45:53Z</time>
      </trkpt>
      <trkpt lat="48.58892" lon="-2.55363">
        <ele>2.6</ele>
        <time>2025-09-30T11:45:58Z</time>
      </trkpt>
      <trkpt lat="48.58894" lon="-2.55374">
        <ele>2.6</ele>
        <time>2025-09-30T11:46:03Z</time>
      </trkpt>
      <trkpt lat="48.58897" lon="-2.55387">
        <ele>2.8</ele>
        <time>2025-09-30T11:46:10Z</time>
      </trkpt>
      <trkpt lat="48.58899" lon="-2.55393">
        <ele>2.8</ele>
        <time>2025-09-30T11:46:13Z</time>
      </trkpt>
      <trkpt lat="48.58899" lon="-2.55395">
        <ele>2.6</ele>
        <time>2025-09-30T11:46:15Z</time>
      </trkpt>
      <trkpt lat="48.58898" lon="-2.55397">
        <ele>2.4</ele>
        <time>2025-09-30T11:46:17Z</time>
      </trkpt>
      <trkpt lat="48.589" lon="-2.55399">
        <ele>2.4</ele>
        <time>2025-09-30T11:46:20Z</time>
      </trkpt>
      <trkpt lat="48.58901" lon="-2.554">
        <ele>2.4</ele>
        <time>2025-09-30T11:46:21Z</time>
      </trkpt>
      <trkpt lat="48.58902" lon="-2.55403">
        <ele>2.4</ele>
        <time>2025-09-30T11:46:24Z</time>
      </trkpt>
      <trkpt lat="48.58905" lon="-2.55413">
        <ele>2.4</ele>
        <time>2025-09-30T11:46:28Z</time>
      </trkpt>
      <trkpt lat="48.58906" lon="-2.55415">
        <ele>2.4</ele>
        <time>2025-09-30T11:46:29Z</time>
      </trkpt>
      <trkpt lat="48.58907" lon="-2.55427">
        <ele>2.6</ele>
        <time>2025-09-30T11:46:34Z</time>
      </trkpt>
      <trkpt lat="48.58907" lon="-2.55429">
        <ele>2.6</ele>
        <time>2025-09-30T11:46:35Z</time>
      </trkpt>
      <trkpt lat="48.58908" lon="-2.5544">
        <ele>2.6</ele>
        <time>2025-09-30T11:46:42Z</time>
      </trkpt>
      <trkpt lat="48.58909" lon="-2.55445">
        <ele>2.8</ele>
        <time>2025-09-30T11:46:47Z</time>
      </trkpt>
      <trkpt lat="48.58914" lon="-2.55448">
        <ele>3</ele>
        <time>2025-09-30T11:46:51Z</time>
      </trkpt>
      <trkpt lat="48.58914" lon="-2.55448">
        <ele>3</ele>
        <time>2025-09-30T11:46:52Z</time>
      </trkpt>
      <trkpt lat="48.58915" lon="-2.5545">
        <ele>2.8</ele>
        <time>2025-09-30T11:46:57Z</time>
      </trkpt>
      <trkpt lat="48.58914" lon="-2.55448">
        <ele>2.8</ele>
        <time>2025-09-30T11:47:01Z</time>
      </trkpt>
      <trkpt lat="48.58915" lon="-2.55449">
        <ele>2.6</ele>
        <time>2025-09-30T11:47:02Z</time>
      </trkpt>
      <trkpt lat="48.58915" lon="-2.55449">
        <ele>2.6</ele>
        <time>2025-09-30T11:47:03Z</time>
      </trkpt>
      <trkpt lat="48.58915" lon="-2.55449">
        <ele>2.6</ele>
        <time>2025-09-30T11:47:04Z</time>
      </trkpt>
      <trkpt lat="48.58915" lon="-2.55449">
        <ele>2.6</ele>
        <time>2025-09-30T11:47:08Z</time>
      </trkpt>
      <trkpt lat="48.58915" lon="-2.55449">
        <ele>2.6</ele>
        <time>2025-09-30T11:47:12Z</time>
      </trkpt>
      <trkpt lat="48.58915" lon="-2.55449">
        <ele>2.6</ele>
        <time>2025-09-30T11:47:14Z</time>
      </trkpt>
      <trkpt lat="48.58915" lon="-2.55449">
        <ele>2.6</ele>
        <time>2025-09-30T11:47:18Z</time>
      </trkpt>
      <trkpt lat="48.58915" lon="-2.5545">
        <ele>2.4</ele>
        <time>2025-09-30T11:47:27Z</time>
      </trkpt>
      <trkpt lat="48.58917" lon="-2.55452">
        <ele>2.4</ele>
        <time>2025-09-30T11:47:37Z</time>
      </trkpt>
      <trkpt lat="48.58917" lon="-2.55452">
        <ele>2.4</ele>
        <time>2025-09-30T11:47:50Z</time>
      </trkpt>
      <trkpt lat="48.58917" lon="-2.55452">
        <ele>2.4</ele>
        <time>2025-09-30T11:47:51Z</time>
      </trkpt>
      <trkpt lat="48.58917" lon="-2.55452">
        <ele>2.4</ele>
        <time>2025-09-30T11:48:01Z</time>
      </trkpt>
      <trkpt lat="48.58917" lon="-2.55452">
        <ele>2.4</ele>
        <time>2025-09-30T11:48:03Z</time>
      </trkpt>
      <trkpt lat="48.58917" lon="-2.55452">
        <ele>2.4</ele>
        <time>2025-09-30T11:48:05Z</time>
      </trkpt>
      <trkpt lat="48.58917" lon="-2.55452">
        <ele>2.4</ele>
        <time>2025-09-30T11:48:12Z</time>
      </trkpt>
      <trkpt lat="48.58916" lon="-2.55449">
        <ele>2.4</ele>
        <time>2025-09-30T11:48:57Z</time>
      </trkpt>
      <trkpt lat="48.58916" lon="-2.55449">
        <ele>2.4</ele>
        <time>2025-09-30T11:49:00Z</time>
      </trkpt>
      <trkpt lat="48.58916" lon="-2.55449">
        <ele>2.4</ele>
        <time>2025-09-30T11:49:01Z</time>
      </trkpt>
      <trkpt lat="48.58917" lon="-2.5545">
        <ele>2.4</ele>
        <time>2025-09-30T11:49:08Z</time>
      </trkpt>
      <trkpt lat="48.58917" lon="-2.5545">
        <ele>2.4</ele>
        <time>2025-09-30T11:49:17Z</time>
      </trkpt>
      <trkpt lat="48.58917" lon="-2.5545">
        <ele>2.4</ele>
        <time>2025-09-30T11:49:30Z</time>
      </trkpt>
      <trkpt lat="48.58917" lon="-2.5545">
        <ele>2.4</ele>
        <time>2025-09-30T11:49:36Z</time>
      </trkpt>
      <trkpt lat="48.58917" lon="-2.5545">
        <ele>2.4</ele>
        <time>2025-09-30T11:49:38Z</time>
      </trkpt>
      <trkpt lat="48.58917" lon="-2.5545">
        <ele>2.4</ele>
        <time>2025-09-30T11:49:41Z</time>
      </trkpt>
      <trkpt lat="48.58915" lon="-2.55448">
        <ele>2.4</ele>
        <time>2025-09-30T11:49:50Z</time>
      </trkpt>
      <trkpt lat="48.58913" lon="-2.55445">
        <ele>2.4</ele>
        <time>2025-09-30T11:50:31Z</time>
      </trkpt>
      <trkpt lat="48.58912" lon="-2.55442">
        <ele>2.4</ele>
        <time>2025-09-30T11:50:36Z</time>
      </trkpt>
      <trkpt lat="48.58911" lon="-2.55442">
        <ele>2.4</ele>
        <time>2025-09-30T11:50:50Z</time>
      </trkpt>
      <trkpt lat="48.5891" lon="-2.5544">
        <ele>2.4</ele>
        <time>2025-09-30T11:51:10Z</time>
      </trkpt>
      <trkpt lat="48.58911" lon="-2.55441">
        <ele>2.4</ele>
        <time>2025-09-30T11:51:12Z</time>
      </trkpt>
      <trkpt lat="48.58911" lon="-2.5544">
        <ele>2.4</ele>
        <time>2025-09-30T11:51:22Z</time>
      </trkpt>
      <trkpt lat="48.58911" lon="-2.5544">
        <ele>2.4</ele>
        <time>2025-09-30T11:51:28Z</time>
      </trkpt>
      <trkpt lat="48.5891" lon="-2.55441">
        <ele>2.4</ele>
        <time>2025-09-30T11:51:48Z</time>
      </trkpt>
      <trkpt lat="48.5891" lon="-2.55441">
        <ele>2.4</ele>
        <time>2025-09-30T11:51:51Z</time>
      </trkpt>
      <trkpt lat="48.5891" lon="-2.55441">
        <ele>2.4</ele>
        <time>2025-09-30T11:51:52Z</time>
      </trkpt>
      <trkpt lat="48.5891" lon="-2.55441">
        <ele>2.4</ele>
        <time>2025-09-30T11:51:53Z</time>
      </trkpt>
      <trkpt lat="48.58909" lon="-2.55439">
        <ele>2.4</ele>
        <time>2025-09-30T11:52:06Z</time>
      </trkpt>
      <trkpt lat="48.58909" lon="-2.55439">
        <ele>2.4</ele>
        <time>2025-09-30T11:52:09Z</time>
      </trkpt>
      <trkpt lat="48.58909" lon="-2.55438">
        <ele>2.4</ele>
        <time>2025-09-30T11:52:34Z</time>
      </trkpt>
      <trkpt lat="48.58907" lon="-2.55437">
        <ele>2.4</ele>
        <time>2025-09-30T11:53:18Z</time>
      </trkpt>
      <trkpt lat="48.58907" lon="-2.55437">
        <ele>2.4</ele>
        <time>2025-09-30T11:53:24Z</time>
      </trkpt>
      <trkpt lat="48.58905" lon="-2.55436">
        <ele>2.4</ele>
        <time>2025-09-30T11:53:27Z</time>
      </trkpt>
      <trkpt lat="48.58904" lon="-2.55435">
        <ele>2.4</ele>
        <time>2025-09-30T11:53:32Z</time>
      </trkpt>
      <trkpt lat="48.58904" lon="-2.55435">
        <ele>2.4</ele>
        <time>2025-09-30T11:53:39Z</time>
      </trkpt>
      <trkpt lat="48.58902" lon="-2.55434">
        <ele>2.4</ele>
        <time>2025-09-30T11:53:42Z</time>
      </trkpt>
      <trkpt lat="48.58901" lon="-2.55434">
        <ele>2.2</ele>
        <time>2025-09-30T11:54:12Z</time>
      </trkpt>
      <trkpt lat="48.58901" lon="-2.55434">
        <ele>2.4</ele>
        <time>2025-09-30T11:54:26Z</time>
      </trkpt>
      <trkpt lat="48.589" lon="-2.55432">
        <ele>2</ele>
        <time>2025-09-30T11:54:45Z</time>
      </trkpt>
      <trkpt lat="48.58896" lon="-2.55431">
        <ele>2</ele>
        <time>2025-09-30T11:55:40Z</time>
      </trkpt>
      <trkpt lat="48.58893" lon="-2.55434">
        <ele>2</ele>
        <time>2025-09-30T11:55:43Z</time>
      </trkpt>
      <trkpt lat="48.5889" lon="-2.55435">
        <ele>2</ele>
        <time>2025-09-30T11:55:45Z</time>
      </trkpt>
      <trkpt lat="48.58889" lon="-2.55438">
        <ele>2.2</ele>
        <time>2025-09-30T11:55:47Z</time>
      </trkpt>
      <trkpt lat="48.58887" lon="-2.55443">
        <ele>2</ele>
        <time>2025-09-30T11:55:50Z</time>
      </trkpt>
      <trkpt lat="48.58883" lon="-2.55457">
        <ele>2</ele>
        <time>2025-09-30T11:55:58Z</time>
      </trkpt>
      <trkpt lat="48.58881" lon="-2.55463">
        <ele>2.2</ele>
        <time>2025-09-30T11:56:02Z</time>
      </trkpt>
      <trkpt lat="48.5888" lon="-2.55469">
        <ele>2.4</ele>
        <time>2025-09-30T11:56:07Z</time>
      </trkpt>
      <trkpt lat="48.58879" lon="-2.55471">
        <ele>2.4</ele>
        <time>2025-09-30T11:56:08Z</time>
      </trkpt>
      <trkpt lat="48.58877" lon="-2.55473">
        <ele>2.4</ele>
        <time>2025-09-30T11:56:09Z</time>
      </trkpt>
      <trkpt lat="48.58871" lon="-2.55479">
        <ele>2.4</ele>
        <time>2025-09-30T11:56:13Z</time>
      </trkpt>
      <trkpt lat="48.5887" lon="-2.5548">
        <ele>2.4</ele>
        <time>2025-09-30T11:56:14Z</time>
      </trkpt>
      <trkpt lat="48.58869" lon="-2.55482">
        <ele>2.6</ele>
        <time>2025-09-30T11:56:16Z</time>
      </trkpt>
      <trkpt lat="48.58868" lon="-2.55484">
        <ele>2.6</ele>
        <time>2025-09-30T11:56:18Z</time>
      </trkpt>
      <trkpt lat="48.58865" lon="-2.55488">
        <ele>2.4</ele>
        <time>2025-09-30T11:56:22Z</time>
      </trkpt>
      <trkpt lat="48.58853" lon="-2.55496">
        <ele>2.6</ele>
        <time>2025-09-30T11:56:29Z</time>
      </trkpt>
      <trkpt lat="48.58849" lon="-2.55499">
        <ele>2.6</ele>
        <time>2025-09-30T11:56:32Z</time>
      </trkpt>
      <trkpt lat="48.5885" lon="-2.55502">
        <ele>2.6</ele>
        <time>2025-09-30T11:56:35Z</time>
      </trkpt>
      <trkpt lat="48.58849" lon="-2.55504">
        <ele>2.6</ele>
        <time>2025-09-30T11:56:37Z</time>
      </trkpt>
      <trkpt lat="48.58849" lon="-2.55506">
        <ele>2.6</ele>
        <time>2025-09-30T11:56:38Z</time>
      </trkpt>
      <trkpt lat="48.58839" lon="-2.55514">
        <ele>2.6</ele>
        <time>2025-09-30T11:56:45Z</time>
      </trkpt>
      <trkpt lat="48.58834" lon="-2.55518">
        <ele>2.6</ele>
        <time>2025-09-30T11:56:47Z</time>
      </trkpt>
      <trkpt lat="48.58832" lon="-2.55518">
        <ele>2.4</ele>
        <time>2025-09-30T11:56:50Z</time>
      </trkpt>
      <trkpt lat="48.58829" lon="-2.55519">
        <ele>2.2</ele>
        <time>2025-09-30T11:56:54Z</time>
      </trkpt>
      <trkpt lat="48.58827" lon="-2.5552">
        <ele>2.2</ele>
        <time>2025-09-30T11:56:55Z</time>
      </trkpt>
      <trkpt lat="48.58827" lon="-2.55521">
        <ele>2.4</ele>
        <time>2025-09-30T11:56:57Z</time>
      </trkpt>
      <trkpt lat="48.58824" lon="-2.55524">
        <ele>2.6</ele>
        <time>2025-09-30T11:57:01Z</time>
      </trkpt>
      <trkpt lat="48.58824" lon="-2.55528">
        <ele>2.6</ele>
        <time>2025-09-30T11:57:03Z</time>
      </trkpt>
      <trkpt lat="48.58823" lon="-2.55529">
        <ele>2.6</ele>
        <time>2025-09-30T11:57:05Z</time>
      </trkpt>
      <trkpt lat="48.58822" lon="-2.55529">
        <ele>2.4</ele>
        <time>2025-09-30T11:57:09Z</time>
      </trkpt>
      <trkpt lat="48.58822" lon="-2.55528">
        <ele>2.4</ele>
        <time>2025-09-30T11:57:10Z</time>
      </trkpt>
      <trkpt lat="48.58836" lon="-2.55518">
        <ele>2.4</ele>
        <time>2025-09-30T11:59:41Z</time>
      </trkpt>
      <trkpt lat="48.58839" lon="-2.5552">
        <ele>2.8</ele>
        <time>2025-09-30T11:59:46Z</time>
      </trkpt>
      <trkpt lat="48.58841" lon="-2.55518">
        <ele>2.8</ele>
        <time>2025-09-30T11:59:48Z</time>
      </trkpt>
      <trkpt lat="48.58841" lon="-2.55516">
        <ele>2.8</ele>
        <time>2025-09-30T11:59:49Z</time>
      </trkpt>
      <trkpt lat="48.58846" lon="-2.55513">
        <ele>3</ele>
        <time>2025-09-30T11:59:52Z</time>
      </trkpt>
      <trkpt lat="48.58846" lon="-2.55513">
        <ele>3</ele>
        <time>2025-09-30T11:59:53Z</time>
      </trkpt>
      <trkpt lat="48.58847" lon="-2.55511">
        <ele>3</ele>
        <time>2025-09-30T11:59:54Z</time>
      </trkpt>
      <trkpt lat="48.58848" lon="-2.55508">
        <ele>3</ele>
        <time>2025-09-30T11:59:56Z</time>
      </trkpt>
      <trkpt lat="48.58851" lon="-2.55502">
        <ele>3</ele>
        <time>2025-09-30T12:00:01Z</time>
      </trkpt>
      <trkpt lat="48.58859" lon="-2.55492">
        <ele>3.4</ele>
        <time>2025-09-30T12:00:10Z</time>
      </trkpt>
      <trkpt lat="48.58861" lon="-2.55492">
        <ele>3.4</ele>
        <time>2025-09-30T12:00:11Z</time>
      </trkpt>
      <trkpt lat="48.58862" lon="-2.55491">
        <ele>3.4</ele>
        <time>2025-09-30T12:00:12Z</time>
      </trkpt>
      <trkpt lat="48.58869" lon="-2.55483">
        <ele>3.4</ele>
        <time>2025-09-30T12:00:18Z</time>
      </trkpt>
      <trkpt lat="48.58877" lon="-2.55476">
        <ele>3.4</ele>
        <time>2025-09-30T12:00:24Z</time>
      </trkpt>
      <trkpt lat="48.58881" lon="-2.55471">
        <ele>3.6</ele>
        <time>2025-09-30T12:00:29Z</time>
      </trkpt>
      <trkpt lat="48.58882" lon="-2.5547">
        <ele>3.6</ele>
        <time>2025-09-30T12:00:30Z</time>
      </trkpt>
      <trkpt lat="48.58883" lon="-2.55469">
        <ele>3.6</ele>
        <time>2025-09-30T12:00:31Z</time>
      </trkpt>
      <trkpt lat="48.58885" lon="-2.55466">
        <ele>3.8</ele>
        <time>2025-09-30T12:00:33Z</time>
      </trkpt>
      <trkpt lat="48.58887" lon="-2.55464">
        <ele>3.8</ele>
        <time>2025-09-30T12:00:35Z</time>
      </trkpt>
      <trkpt lat="48.58888" lon="-2.55462">
        <ele>3.8</ele>
        <time>2025-09-30T12:00:37Z</time>
      </trkpt>
      <trkpt lat="48.5889" lon="-2.55458">
        <ele>3.6</ele>
        <time>2025-09-30T12:00:40Z</time>
      </trkpt>
      <trkpt lat="48.58892" lon="-2.55457">
        <ele>3.6</ele>
        <time>2025-09-30T12:00:41Z</time>
      </trkpt>
      <trkpt lat="48.58894" lon="-2.55453">
        <ele>3.6</ele>
        <time>2025-09-30T12:00:43Z</time>
      </trkpt>
      <trkpt lat="48.58898" lon="-2.55448">
        <ele>3.8</ele>
        <time>2025-09-30T12:00:46Z</time>
      </trkpt>
      <trkpt lat="48.58899" lon="-2.55446">
        <ele>3.8</ele>
        <time>2025-09-30T12:00:47Z</time>
      </trkpt>
      <trkpt lat="48.58909" lon="-2.55435">
        <ele>3.6</ele>
        <time>2025-09-30T12:00:53Z</time>
      </trkpt>
      <trkpt lat="48.58913" lon="-2.5543">
        <ele>3.6</ele>
        <time>2025-09-30T12:00:56Z</time>
      </trkpt>
      <trkpt lat="48.58914" lon="-2.55425">
        <ele>3.6</ele>
        <time>2025-09-30T12:00:58Z</time>
      </trkpt>
      <trkpt lat="48.58914" lon="-2.55423">
        <ele>3.6</ele>
        <time>2025-09-30T12:00:59Z</time>
      </trkpt>
      <trkpt lat="48.58912" lon="-2.55417">
        <ele>3.6</ele>
        <time>2025-09-30T12:01:02Z</time>
      </trkpt>
      <trkpt lat="48.58912" lon="-2.55416">
        <ele>3.6</ele>
        <time>2025-09-30T12:01:03Z</time>
      </trkpt>
      <trkpt lat="48.58909" lon="-2.55411">
        <ele>3.4</ele>
        <time>2025-09-30T12:01:08Z</time>
      </trkpt>
      <trkpt lat="48.58906" lon="-2.55403">
        <ele>3.4</ele>
        <time>2025-09-30T12:01:13Z</time>
      </trkpt>
      <trkpt lat="48.58905" lon="-2.55401">
        <ele>3.4</ele>
        <time>2025-09-30T12:01:14Z</time>
      </trkpt>
      <trkpt lat="48.58905" lon="-2.55398">
        <ele>3.4</ele>
        <time>2025-09-30T12:01:15Z</time>
      </trkpt>
      <trkpt lat="48.58904" lon="-2.5539">
        <ele>3.4</ele>
        <time>2025-09-30T12:01:18Z</time>
      </trkpt>
      <trkpt lat="48.58903" lon="-2.55387">
        <ele>3.4</ele>
        <time>2025-09-30T12:01:19Z</time>
      </trkpt>
      <trkpt lat="48.58902" lon="-2.55375">
        <ele>3.4</ele>
        <time>2025-09-30T12:01:23Z</time>
      </trkpt>
      <trkpt lat="48.58901" lon="-2.55373">
        <ele>3.6</ele>
        <time>2025-09-30T12:01:24Z</time>
      </trkpt>
      <trkpt lat="48.58895" lon="-2.55365">
        <ele>3.6</ele>
        <time>2025-09-30T12:01:29Z</time>
      </trkpt>
      <trkpt lat="48.58895" lon="-2.55362">
        <ele>3.6</ele>
        <time>2025-09-30T12:01:31Z</time>
      </trkpt>
      <trkpt lat="48.58895" lon="-2.5536">
        <ele>3.6</ele>
        <time>2025-09-30T12:01:33Z</time>
      </trkpt>
      <trkpt lat="48.58894" lon="-2.55359">
        <ele>3.6</ele>
        <time>2025-09-30T12:01:35Z</time>
      </trkpt>
      <trkpt lat="48.58892" lon="-2.55346">
        <ele>4</ele>
        <time>2025-09-30T12:01:42Z</time>
      </trkpt>
      <trkpt lat="48.58891" lon="-2.55327">
        <ele>4.2</ele>
        <time>2025-09-30T12:01:49Z</time>
      </trkpt>
      <trkpt lat="48.58888" lon="-2.55317">
        <ele>4.2</ele>
        <time>2025-09-30T12:01:55Z</time>
      </trkpt>
      <trkpt lat="48.58886" lon="-2.55311">
        <ele>4.2</ele>
        <time>2025-09-30T12:02:00Z</time>
      </trkpt>
      <trkpt lat="48.58885" lon="-2.55307">
        <ele>4.2</ele>
        <time>2025-09-30T12:02:02Z</time>
      </trkpt>
      <trkpt lat="48.58885" lon="-2.55305">
        <ele>4.2</ele>
        <time>2025-09-30T12:02:03Z</time>
      </trkpt>
      <trkpt lat="48.58884" lon="-2.55303">
        <ele>4.2</ele>
        <time>2025-09-30T12:02:05Z</time>
      </trkpt>
      <trkpt lat="48.58883" lon="-2.55299">
        <ele>4.4</ele>
        <time>2025-09-30T12:02:07Z</time>
      </trkpt>
      <trkpt lat="48.58883" lon="-2.5529">
        <ele>4.6</ele>
        <time>2025-09-30T12:02:10Z</time>
      </trkpt>
      <trkpt lat="48.58883" lon="-2.55285">
        <ele>4.6</ele>
        <time>2025-09-30T12:02:12Z</time>
      </trkpt>
      <trkpt lat="48.58883" lon="-2.5528">
        <ele>4.6</ele>
        <time>2025-09-30T12:02:14Z</time>
      </trkpt>
      <trkpt lat="48.58884" lon="-2.55278">
        <ele>4.8</ele>
        <time>2025-09-30T12:02:16Z</time>
      </trkpt>
      <trkpt lat="48.58884" lon="-2.55276">
        <ele>4.8</ele>
        <time>2025-09-30T12:02:17Z</time>
      </trkpt>
      <trkpt lat="48.58884" lon="-2.55271">
        <ele>4.8</ele>
        <time>2025-09-30T12:02:20Z</time>
      </trkpt>
      <trkpt lat="48.58884" lon="-2.55269">
        <ele>4.8</ele>
        <time>2025-09-30T12:02:21Z</time>
      </trkpt>
      <trkpt lat="48.58884" lon="-2.55268">
        <ele>4.8</ele>
        <time>2025-09-30T12:02:22Z</time>
      </trkpt>
      <trkpt lat="48.58886" lon="-2.55265">
        <ele>4.8</ele>
        <time>2025-09-30T12:02:24Z</time>
      </trkpt>
      <trkpt lat="48.58887" lon="-2.55252">
        <ele>5</ele>
        <time>2025-09-30T12:02:30Z</time>
      </trkpt>
      <trkpt lat="48.58882" lon="-2.55242">
        <ele>5</ele>
        <time>2025-09-30T12:02:33Z</time>
      </trkpt>
      <trkpt lat="48.5888" lon="-2.5524">
        <ele>5</ele>
        <time>2025-09-30T12:02:34Z</time>
      </trkpt>
      <trkpt lat="48.58878" lon="-2.55238">
        <ele>5.2</ele>
        <time>2025-09-30T12:02:35Z</time>
      </trkpt>
      <trkpt lat="48.58878" lon="-2.55232">
        <ele>5.2</ele>
        <time>2025-09-30T12:02:38Z</time>
      </trkpt>
      <trkpt lat="48.58874" lon="-2.55226">
        <ele>5.2</ele>
        <time>2025-09-30T12:02:45Z</time>
      </trkpt>
      <trkpt lat="48.58874" lon="-2.55224">
        <ele>5</ele>
        <time>2025-09-30T12:02:52Z</time>
      </trkpt>
      <trkpt lat="48.58874" lon="-2.55224">
        <ele>5</ele>
        <time>2025-09-30T12:02:55Z</time>
      </trkpt>
      <trkpt lat="48.58874" lon="-2.55225">
        <ele>5</ele>
        <time>2025-09-30T12:03:00Z</time>
      </trkpt>
      <trkpt lat="48.58874" lon="-2.55227">
        <ele>5</ele>
        <time>2025-09-30T12:03:07Z</time>
      </trkpt>
      <trkpt lat="48.58875" lon="-2.55225">
        <ele>5</ele>
        <time>2025-09-30T12:03:11Z</time>
      </trkpt>
      <trkpt lat="48.58876" lon="-2.55225">
        <ele>5</ele>
        <time>2025-09-30T12:03:13Z</time>
      </trkpt>
      <trkpt lat="48.58875" lon="-2.55224">
        <ele>5.4</ele>
        <time>2025-09-30T12:03:18Z</time>
      </trkpt>
      <trkpt lat="48.58872" lon="-2.55221">
        <ele>5.6</ele>
        <time>2025-09-30T12:03:21Z</time>
      </trkpt>
      <trkpt lat="48.58869" lon="-2.55217">
        <ele>5.8</ele>
        <time>2025-09-30T12:03:24Z</time>
      </trkpt>
      <trkpt lat="48.58867" lon="-2.55215">
        <ele>6.2</ele>
        <time>2025-09-30T12:03:29Z</time>
      </trkpt>
      <trkpt lat="48.58867" lon="-2.55215">
        <ele>6.4</ele>
        <time>2025-09-30T12:03:33Z</time>
      </trkpt>
      <trkpt lat="48.58867" lon="-2.55214">
        <ele>6.2</ele>
        <time>2025-09-30T12:03:38Z</time>
      </trkpt>
      <trkpt lat="48.58867" lon="-2.55214">
        <ele>6.2</ele>
        <time>2025-09-30T12:03:54Z</time>
      </trkpt>
      <trkpt lat="48.58867" lon="-2.55214">
        <ele>6.8</ele>
        <time>2025-09-30T12:04:08Z</time>
      </trkpt>
      <trkpt lat="48.58867" lon="-2.55214">
        <ele>6.8</ele>
        <time>2025-09-30T12:04:09Z</time>
      </trkpt>
      <trkpt lat="48.58867" lon="-2.55214">
        <ele>6.8</ele>
        <time>2025-09-30T12:04:10Z</time>
      </trkpt>
      <trkpt lat="48.58869" lon="-2.55214">
        <ele>6.4</ele>
        <time>2025-09-30T12:04:20Z</time>
      </trkpt>
      <trkpt lat="48.5887" lon="-2.55214">
        <ele>6.4</ele>
        <time>2025-09-30T12:04:26Z</time>
      </trkpt>
      <trkpt lat="48.58869" lon="-2.55214">
        <ele>6.2</ele>
        <time>2025-09-30T12:04:38Z</time>
      </trkpt>
      <trkpt lat="48.58869" lon="-2.55214">
        <ele>6.2</ele>
        <time>2025-09-30T12:04:43Z</time>
      </trkpt>
      <trkpt lat="48.58869" lon="-2.55214">
        <ele>6.2</ele>
        <time>2025-09-30T12:04:46Z</time>
      </trkpt>
      <trkpt lat="48.58869" lon="-2.55214">
        <ele>6.2</ele>
        <time>2025-09-30T12:04:50Z</time>
      </trkpt>
      <trkpt lat="48.58868" lon="-2.55214">
        <ele>6.2</ele>
        <time>2025-09-30T12:05:07Z</time>
      </trkpt>
      <trkpt lat="48.58868" lon="-2.55215">
        <ele>6.2</ele>
        <time>2025-09-30T12:05:10Z</time>
      </trkpt>
      <trkpt lat="48.58868" lon="-2.55215">
        <ele>6.2</ele>
        <time>2025-09-30T12:05:12Z</time>
      </trkpt>
      <trkpt lat="48.58868" lon="-2.55216">
        <ele>6.2</ele>
        <time>2025-09-30T12:05:40Z</time>
      </trkpt>
      <trkpt lat="48.5887" lon="-2.55215">
        <ele>6.2</ele>
        <time>2025-09-30T12:06:05Z</time>
      </trkpt>
      <trkpt lat="48.58871" lon="-2.55216">
        <ele>6.2</ele>
        <time>2025-09-30T12:06:06Z</time>
      </trkpt>
      <trkpt lat="48.58871" lon="-2.55216">
        <ele>6.2</ele>
        <time>2025-09-30T12:06:07Z</time>
      </trkpt>
      <trkpt lat="48.58871" lon="-2.55215">
        <ele>6.2</ele>
        <time>2025-09-30T12:06:17Z</time>
      </trkpt>
      <trkpt lat="48.58868" lon="-2.55214">
        <ele>6.2</ele>
        <time>2025-09-30T12:06:24Z</time>
      </trkpt>
      <trkpt lat="48.58868" lon="-2.55215">
        <ele>6.2</ele>
        <time>2025-09-30T12:06:30Z</time>
      </trkpt>
      <trkpt lat="48.58868" lon="-2.55216">
        <ele>6.2</ele>
        <time>2025-09-30T12:06:33Z</time>
      </trkpt>
      <trkpt lat="48.58868" lon="-2.55216">
        <ele>6.2</ele>
        <time>2025-09-30T12:06:34Z</time>
      </trkpt>
      <trkpt lat="48.58868" lon="-2.55216">
        <ele>6.2</ele>
        <time>2025-09-30T12:06:36Z</time>
      </trkpt>
      <trkpt lat="48.58869" lon="-2.55215">
        <ele>6.2</ele>
        <time>2025-09-30T12:07:03Z</time>
      </trkpt>
      <trkpt lat="48.58869" lon="-2.55216">
        <ele>6.2</ele>
        <time>2025-09-30T12:07:08Z</time>
      </trkpt>
      <trkpt lat="48.58869" lon="-2.55216">
        <ele>6.2</ele>
        <time>2025-09-30T12:07:13Z</time>
      </trkpt>
      <trkpt lat="48.58869" lon="-2.55215">
        <ele>6.2</ele>
        <time>2025-09-30T12:07:20Z</time>
      </trkpt>
      <trkpt lat="48.58869" lon="-2.55215">
        <ele>6.2</ele>
        <time>2025-09-30T12:07:21Z</time>
      </trkpt>
      <trkpt lat="48.58869" lon="-2.55215">
        <ele>6.2</ele>
        <time>2025-09-30T12:07:28Z</time>
      </trkpt>
      <trkpt lat="48.58869" lon="-2.55216">
        <ele>6.2</ele>
        <time>2025-09-30T12:07:35Z</time>
      </trkpt>
      <trkpt lat="48.58869" lon="-2.55216">
        <ele>6.2</ele>
        <time>2025-09-30T12:07:37Z</time>
      </trkpt>
      <trkpt lat="48.58869" lon="-2.55216">
        <ele>6.2</ele>
        <time>2025-09-30T12:07:43Z</time>
      </trkpt>
      <trkpt lat="48.58868" lon="-2.55217">
        <ele>6.2</ele>
        <time>2025-09-30T12:07:51Z</time>
      </trkpt>
      <trkpt lat="48.58868" lon="-2.55218">
        <ele>6.2</ele>
        <time>2025-09-30T12:07:56Z</time>
      </trkpt>
      <trkpt lat="48.58868" lon="-2.55219">
        <ele>6.2</ele>
        <time>2025-09-30T12:08:08Z</time>
      </trkpt>
      <trkpt lat="48.58868" lon="-2.55219">
        <ele>6.2</ele>
        <time>2025-09-30T12:08:22Z</time>
      </trkpt>
      <trkpt lat="48.58868" lon="-2.55219">
        <ele>6.2</ele>
        <time>2025-09-30T12:08:28Z</time>
      </trkpt>
      <trkpt lat="48.58868" lon="-2.55219">
        <ele>6.2</ele>
        <time>2025-09-30T12:08:32Z</time>
      </trkpt>
      <trkpt lat="48.58868" lon="-2.55219">
        <ele>6.2</ele>
        <time>2025-09-30T12:08:33Z</time>
      </trkpt>
      <trkpt lat="48.58868" lon="-2.55219">
        <ele>6.2</ele>
        <time>2025-09-30T12:08:34Z</time>
      </trkpt>
      <trkpt lat="48.58868" lon="-2.5522">
        <ele>6.2</ele>
        <time>2025-09-30T12:08:35Z</time>
      </trkpt>
      <trkpt lat="48.58868" lon="-2.5522">
        <ele>6.2</ele>
        <time>2025-09-30T12:08:42Z</time>
      </trkpt>
      <trkpt lat="48.58868" lon="-2.55221">
        <ele>6.2</ele>
        <time>2025-09-30T12:09:03Z</time>
      </trkpt>
      <trkpt lat="48.58868" lon="-2.55222">
        <ele>6.2</ele>
        <time>2025-09-30T12:09:16Z</time>
      </trkpt>
      <trkpt lat="48.58868" lon="-2.55222">
        <ele>6.2</ele>
        <time>2025-09-30T12:09:20Z</time>
      </trkpt>
      <trkpt lat="48.58868" lon="-2.55222">
        <ele>6.2</ele>
        <time>2025-09-30T12:09:54Z</time>
      </trkpt>
      <trkpt lat="48.58868" lon="-2.55221">
        <ele>6.2</ele>
        <time>2025-09-30T12:10:09Z</time>
      </trkpt>
      <trkpt lat="48.58867" lon="-2.5522">
        <ele>6.2</ele>
        <time>2025-09-30T12:10:49Z</time>
      </trkpt>
      <trkpt lat="48.58866" lon="-2.55222">
        <ele>6.2</ele>
        <time>2025-09-30T12:11:01Z</time>
      </trkpt>
      <trkpt lat="48.58865" lon="-2.55224">
        <ele>6.2</ele>
        <time>2025-09-30T12:11:04Z</time>
      </trkpt>
      <trkpt lat="48.58866" lon="-2.55221">
        <ele>6.2</ele>
        <time>2025-09-30T12:11:09Z</time>
      </trkpt>
      <trkpt lat="48.58868" lon="-2.55219">
        <ele>6.2</ele>
        <time>2025-09-30T12:11:11Z</time>
      </trkpt>
      <trkpt lat="48.5887" lon="-2.55216">
        <ele>5.8</ele>
        <time>2025-09-30T12:11:14Z</time>
      </trkpt>
      <trkpt lat="48.5887" lon="-2.55217">
        <ele>6</ele>
        <time>2025-09-30T12:11:22Z</time>
      </trkpt>
      <trkpt lat="48.5887" lon="-2.55217">
        <ele>6</ele>
        <time>2025-09-30T12:11:23Z</time>
      </trkpt>
      <trkpt lat="48.58871" lon="-2.55216">
        <ele>6</ele>
        <time>2025-09-30T12:11:26Z</time>
      </trkpt>
      <trkpt lat="48.58869" lon="-2.55217">
        <ele>6.4</ele>
        <time>2025-09-30T12:11:54Z</time>
      </trkpt>
      <trkpt lat="48.58869" lon="-2.55217">
        <ele>6.2</ele>
        <time>2025-09-30T12:11:55Z</time>
      </trkpt>
      <trkpt lat="48.58869" lon="-2.55218">
        <ele>6</ele>
        <time>2025-09-30T12:11:57Z</time>
      </trkpt>
      <trkpt lat="48.5887" lon="-2.55219">
        <ele>6</ele>
        <time>2025-09-30T12:12:00Z</time>
      </trkpt>
      <trkpt lat="48.5887" lon="-2.55219">
        <ele>6.2</ele>
        <time>2025-09-30T12:12:02Z</time>
      </trkpt>
      <trkpt lat="48.58871" lon="-2.55219">
        <ele>6.2</ele>
        <time>2025-09-30T12:12:05Z</time>
      </trkpt>
      <trkpt lat="48.58871" lon="-2.55219">
        <ele>6.6</ele>
        <time>2025-09-30T12:12:10Z</time>
      </trkpt>
      <trkpt lat="48.58871" lon="-2.55219">
        <ele>6.4</ele>
        <time>2025-09-30T12:12:14Z</time>
      </trkpt>
      <trkpt lat="48.58871" lon="-2.55219">
        <ele>6.4</ele>
        <time>2025-09-30T12:12:30Z</time>
      </trkpt>
      <trkpt lat="48.58872" lon="-2.55218">
        <ele>6.4</ele>
        <time>2025-09-30T12:12:45Z</time>
      </trkpt>
      <trkpt lat="48.58872" lon="-2.55217">
        <ele>6.4</ele>
        <time>2025-09-30T12:12:58Z</time>
      </trkpt>
      <trkpt lat="48.58873" lon="-2.55218">
        <ele>6.4</ele>
        <time>2025-09-30T12:13:48Z</time>
      </trkpt>
      <trkpt lat="48.58873" lon="-2.55218">
        <ele>6.4</ele>
        <time>2025-09-30T12:13:56Z</time>
      </trkpt>
      <trkpt lat="48.58873" lon="-2.55217">
        <ele>6.4</ele>
        <time>2025-09-30T12:14:20Z</time>
      </trkpt>
      <trkpt lat="48.58873" lon="-2.55216">
        <ele>6.4</ele>
        <time>2025-09-30T12:14:32Z</time>
      </trkpt>
      <trkpt lat="48.58872" lon="-2.55213">
        <ele>6.4</ele>
        <time>2025-09-30T12:14:59Z</time>
      </trkpt>
      <trkpt lat="48.58872" lon="-2.55213">
        <ele>6.4</ele>
        <time>2025-09-30T12:15:07Z</time>
      </trkpt>
      <trkpt lat="48.58868" lon="-2.55208">
        <ele>6.4</ele>
        <time>2025-09-30T12:15:10Z</time>
      </trkpt>
      <trkpt lat="48.58853" lon="-2.552">
        <ele>6.6</ele>
        <time>2025-09-30T12:15:17Z</time>
      </trkpt>
      <trkpt lat="48.58833" lon="-2.55195">
        <ele>7.2</ele>
        <time>2025-09-30T12:15:25Z</time>
      </trkpt>
      <trkpt lat="48.58808" lon="-2.55187">
        <ele>8.4</ele>
        <time>2025-09-30T12:15:35Z</time>
      </trkpt>
      <trkpt lat="48.5879" lon="-2.55175">
        <ele>9.2</ele>
        <time>2025-09-30T12:15:43Z</time>
      </trkpt>
      <trkpt lat="48.58788" lon="-2.55173">
        <ele>9.4</ele>
        <time>2025-09-30T12:15:44Z</time>
      </trkpt>
      <trkpt lat="48.58777" lon="-2.55158">
        <ele>9.8</ele>
        <time>2025-09-30T12:15:49Z</time>
      </trkpt>
      <trkpt lat="48.58762" lon="-2.5513">
        <ele>10.2</ele>
        <time>2025-09-30T12:15:57Z</time>
      </trkpt>
      <trkpt lat="48.58757" lon="-2.5512">
        <ele>10.4</ele>
        <time>2025-09-30T12:16:00Z</time>
      </trkpt>
      <trkpt lat="48.58746" lon="-2.55093">
        <ele>10.6</ele>
        <time>2025-09-30T12:16:07Z</time>
      </trkpt>
      <trkpt lat="48.58727" lon="-2.55048">
        <ele>10.6</ele>
        <time>2025-09-30T12:16:18Z</time>
      </trkpt>
      <trkpt lat="48.58706" lon="-2.55016">
        <ele>10.8</ele>
        <time>2025-09-30T12:16:26Z</time>
      </trkpt>
      <trkpt lat="48.58687" lon="-2.54982">
        <ele>11</ele>
        <time>2025-09-30T12:16:34Z</time>
      </trkpt>
      <trkpt lat="48.58678" lon="-2.54953">
        <ele>11.6</ele>
        <time>2025-09-30T12:16:40Z</time>
      </trkpt>
      <trkpt lat="48.58671" lon="-2.54937">
        <ele>11.8</ele>
        <time>2025-09-30T12:16:43Z</time>
      </trkpt>
      <trkpt lat="48.58665" lon="-2.54915">
        <ele>12.6</ele>
        <time>2025-09-30T12:16:47Z</time>
      </trkpt>
      <trkpt lat="48.58665" lon="-2.54903">
        <ele>13</ele>
        <time>2025-09-30T12:16:49Z</time>
      </trkpt>
      <trkpt lat="48.58667" lon="-2.54868">
        <ele>13.6</ele>
        <time>2025-09-30T12:16:55Z</time>
      </trkpt>
      <trkpt lat="48.58678" lon="-2.54815">
        <ele>13.8</ele>
        <time>2025-09-30T12:17:04Z</time>
      </trkpt>
      <trkpt lat="48.58689" lon="-2.54763">
        <ele>13.8</ele>
        <time>2025-09-30T12:17:13Z</time>
      </trkpt>
      <trkpt lat="48.5869" lon="-2.54757">
        <ele>14</ele>
        <time>2025-09-30T12:17:14Z</time>
      </trkpt>
      <trkpt lat="48.5869" lon="-2.54724">
        <ele>14.2</ele>
        <time>2025-09-30T12:17:20Z</time>
      </trkpt>
      <trkpt lat="48.58686" lon="-2.54702">
        <ele>14.4</ele>
        <time>2025-09-30T12:17:24Z</time>
      </trkpt>
      <trkpt lat="48.58688" lon="-2.5469">
        <ele>14.6</ele>
        <time>2025-09-30T12:17:26Z</time>
      </trkpt>
      <trkpt lat="48.5869" lon="-2.54678">
        <ele>14.6</ele>
        <time>2025-09-30T12:17:28Z</time>
      </trkpt>
      <trkpt lat="48.58691" lon="-2.54646">
        <ele>15.2</ele>
        <time>2025-09-30T12:17:33Z</time>
      </trkpt>
      <trkpt lat="48.58692" lon="-2.54626">
        <ele>15.6</ele>
        <time>2025-09-30T12:17:36Z</time>
      </trkpt>
      <trkpt lat="48.58692" lon="-2.54613">
        <ele>15.6</ele>
        <time>2025-09-30T12:17:38Z</time>
      </trkpt>
      <trkpt lat="48.58693" lon="-2.54593">
        <ele>15.8</ele>
        <time>2025-09-30T12:17:41Z</time>
      </trkpt>
      <trkpt lat="48.58694" lon="-2.54586">
        <ele>16</ele>
        <time>2025-09-30T12:17:42Z</time>
      </trkpt>
      <trkpt lat="48.58697" lon="-2.54574">
        <ele>16.4</ele>
        <time>2025-09-30T12:17:44Z</time>
      </trkpt>
      <trkpt lat="48.58701" lon="-2.54563">
        <ele>16.8</ele>
        <time>2025-09-30T12:17:46Z</time>
      </trkpt>
      <trkpt lat="48.58712" lon="-2.54528">
        <ele>18.2</ele>
        <time>2025-09-30T12:17:52Z</time>
      </trkpt>
      <trkpt lat="48.58714" lon="-2.54523">
        <ele>18.4</ele>
        <time>2025-09-30T12:17:53Z</time>
      </trkpt>
      <trkpt lat="48.58716" lon="-2.54518">
        <ele>18.6</ele>
        <time>2025-09-30T12:17:54Z</time>
      </trkpt>
      <trkpt lat="48.58718" lon="-2.54508">
        <ele>19.2</ele>
        <time>2025-09-30T12:17:56Z</time>
      </trkpt>
      <trkpt lat="48.58719" lon="-2.54497">
        <ele>19.8</ele>
        <time>2025-09-30T12:17:58Z</time>
      </trkpt>
      <trkpt lat="48.58718" lon="-2.54487">
        <ele>20.2</ele>
        <time>2025-09-30T12:18:00Z</time>
      </trkpt>
      <trkpt lat="48.58713" lon="-2.54473">
        <ele>21.2</ele>
        <time>2025-09-30T12:18:03Z</time>
      </trkpt>
      <trkpt lat="48.5871" lon="-2.54469">
        <ele>21.4</ele>
        <time>2025-09-30T12:18:04Z</time>
      </trkpt>
      <trkpt lat="48.58699" lon="-2.54455">
        <ele>22.4</ele>
        <time>2025-09-30T12:18:08Z</time>
      </trkpt>
      <trkpt lat="48.58693" lon="-2.5445">
        <ele>23</ele>
        <time>2025-09-30T12:18:10Z</time>
      </trkpt>
      <trkpt lat="48.58687" lon="-2.54444">
        <ele>23.4</ele>
        <time>2025-09-30T12:18:12Z</time>
      </trkpt>
      <trkpt lat="48.58678" lon="-2.54435">
        <ele>24.6</ele>
        <time>2025-09-30T12:18:15Z</time>
      </trkpt>
      <trkpt lat="48.58674" lon="-2.54431">
        <ele>24.6</ele>
        <time>2025-09-30T12:18:16Z</time>
      </trkpt>
      <trkpt lat="48.58662" lon="-2.5442">
        <ele>26</ele>
        <time>2025-09-30T12:18:20Z</time>
      </trkpt>
      <trkpt lat="48.5865" lon="-2.54408">
        <ele>26.8</ele>
        <time>2025-09-30T12:18:24Z</time>
      </trkpt>
      <trkpt lat="48.58646" lon="-2.54405">
        <ele>27</ele>
        <time>2025-09-30T12:18:25Z</time>
      </trkpt>
      <trkpt lat="48.58632" lon="-2.54389">
        <ele>28.4</ele>
        <time>2025-09-30T12:18:30Z</time>
      </trkpt>
      <trkpt lat="48.58627" lon="-2.5438">
        <ele>28.8</ele>
        <time>2025-09-30T12:18:32Z</time>
      </trkpt>
      <trkpt lat="48.58622" lon="-2.54366">
        <ele>29.6</ele>
        <time>2025-09-30T12:18:35Z</time>
      </trkpt>
      <trkpt lat="48.58619" lon="-2.5435">
        <ele>30.6</ele>
        <time>2025-09-30T12:18:38Z</time>
      </trkpt>
      <trkpt lat="48.58618" lon="-2.54345">
        <ele>30.6</ele>
        <time>2025-09-30T12:18:39Z</time>
      </trkpt>
      <trkpt lat="48.58615" lon="-2.54323">
        <ele>32</ele>
        <time>2025-09-30T12:18:43Z</time>
      </trkpt>
      <trkpt lat="48.58613" lon="-2.54301">
        <ele>33.2</ele>
        <time>2025-09-30T12:18:47Z</time>
      </trkpt>
      <trkpt lat="48.58611" lon="-2.54285">
        <ele>34</ele>
        <time>2025-09-30T12:18:50Z</time>
      </trkpt>
      <trkpt lat="48.58609" lon="-2.54275">
        <ele>34.6</ele>
        <time>2025-09-30T12:18:52Z</time>
      </trkpt>
      <trkpt lat="48.58605" lon="-2.54258">
        <ele>35.8</ele>
        <time>2025-09-30T12:18:56Z</time>
      </trkpt>
      <trkpt lat="48.58604" lon="-2.54253">
        <ele>36</ele>
        <time>2025-09-30T12:18:57Z</time>
      </trkpt>
      <trkpt lat="48.58599" lon="-2.54239">
        <ele>36.8</ele>
        <time>2025-09-30T12:19:01Z</time>
      </trkpt>
      <trkpt lat="48.58598" lon="-2.54236">
        <ele>36.8</ele>
        <time>2025-09-30T12:19:02Z</time>
      </trkpt>
      <trkpt lat="48.58603" lon="-2.54234">
        <ele>37.2</ele>
        <time>2025-09-30T12:19:05Z</time>
      </trkpt>
      <trkpt lat="48.5862" lon="-2.54224">
        <ele>37.2</ele>
        <time>2025-09-30T12:19:10Z</time>
      </trkpt>
      <trkpt lat="48.58643" lon="-2.54204">
        <ele>37.8</ele>
        <time>2025-09-30T12:19:17Z</time>
      </trkpt>
      <trkpt lat="48.58647" lon="-2.54201">
        <ele>37.8</ele>
        <time>2025-09-30T12:19:18Z</time>
      </trkpt>
      <trkpt lat="48.58679" lon="-2.54181">
        <ele>39</ele>
        <time>2025-09-30T12:19:26Z</time>
      </trkpt>
      <trkpt lat="48.58705" lon="-2.54161">
        <ele>40</ele>
        <time>2025-09-30T12:19:33Z</time>
      </trkpt>
      <trkpt lat="48.58709" lon="-2.54156">
        <ele>40</ele>
        <time>2025-09-30T12:19:34Z</time>
      </trkpt>
      <trkpt lat="48.58725" lon="-2.54135">
        <ele>41</ele>
        <time>2025-09-30T12:19:39Z</time>
      </trkpt>
      <trkpt lat="48.58728" lon="-2.54128">
        <ele>41.2</ele>
        <time>2025-09-30T12:19:40Z</time>
      </trkpt>
      <trkpt lat="48.58733" lon="-2.54112">
        <ele>41.6</ele>
        <time>2025-09-30T12:19:43Z</time>
      </trkpt>
      <trkpt lat="48.58737" lon="-2.54101">
        <ele>42</ele>
        <time>2025-09-30T12:19:45Z</time>
      </trkpt>
      <trkpt lat="48.5874" lon="-2.5409">
        <ele>42.2</ele>
        <time>2025-09-30T12:19:47Z</time>
      </trkpt>
      <trkpt lat="48.58742" lon="-2.54084">
        <ele>42.4</ele>
        <time>2025-09-30T12:19:48Z</time>
      </trkpt>
      <trkpt lat="48.58743" lon="-2.54078">
        <ele>42.4</ele>
        <time>2025-09-30T12:19:49Z</time>
      </trkpt>
      <trkpt lat="48.58745" lon="-2.5404">
        <ele>43</ele>
        <time>2025-09-30T12:19:55Z</time>
      </trkpt>
      <trkpt lat="48.58745" lon="-2.54028">
        <ele>43.2</ele>
        <time>2025-09-30T12:19:57Z</time>
      </trkpt>
      <trkpt lat="48.58746" lon="-2.54015">
        <ele>43.4</ele>
        <time>2025-09-30T12:19:59Z</time>
      </trkpt>
      <trkpt lat="48.58746" lon="-2.53996">
        <ele>44</ele>
        <time>2025-09-30T12:20:02Z</time>
      </trkpt>
      <trkpt lat="48.58746" lon="-2.53984">
        <ele>44.4</ele>
        <time>2025-09-30T12:20:04Z</time>
      </trkpt>
      <trkpt lat="48.58746" lon="-2.53978">
        <ele>44.6</ele>
        <time>2025-09-30T12:20:05Z</time>
      </trkpt>
      <trkpt lat="48.58748" lon="-2.53955">
        <ele>45.4</ele>
        <time>2025-09-30T12:20:10Z</time>
      </trkpt>
      <trkpt lat="48.58748" lon="-2.5395">
        <ele>45.8</ele>
        <time>2025-09-30T12:20:12Z</time>
      </trkpt>
      <trkpt lat="48.58748" lon="-2.53946">
        <ele>45.8</ele>
        <time>2025-09-30T12:20:15Z</time>
      </trkpt>
      <trkpt lat="48.58748" lon="-2.53946">
        <ele>45.6</ele>
        <time>2025-09-30T12:20:23Z</time>
      </trkpt>
      <trkpt lat="48.58748" lon="-2.53946">
        <ele>45.6</ele>
        <time>2025-09-30T12:20:30Z</time>
      </trkpt>
      <trkpt lat="48.58748" lon="-2.53933">
        <ele>45.8</ele>
        <time>2025-09-30T12:20:35Z</time>
      </trkpt>
      <trkpt lat="48.58748" lon="-2.539">
        <ele>46.2</ele>
        <time>2025-09-30T12:20:41Z</time>
      </trkpt>
      <trkpt lat="48.5875" lon="-2.53879">
        <ele>46.8</ele>
        <time>2025-09-30T12:20:44Z</time>
      </trkpt>
      <trkpt lat="48.5875" lon="-2.53865">
        <ele>47</ele>
        <time>2025-09-30T12:20:46Z</time>
      </trkpt>
      <trkpt lat="48.58751" lon="-2.53815">
        <ele>47.4</ele>
        <time>2025-09-30T12:20:54Z</time>
      </trkpt>
      <trkpt lat="48.58753" lon="-2.53776">
        <ele>47.6</ele>
        <time>2025-09-30T12:21:01Z</time>
      </trkpt>
      <trkpt lat="48.58758" lon="-2.53755">
        <ele>47.6</ele>
        <time>2025-09-30T12:21:05Z</time>
      </trkpt>
      <trkpt lat="48.5876" lon="-2.53715">
        <ele>47.8</ele>
        <time>2025-09-30T12:21:11Z</time>
      </trkpt>
      <trkpt lat="48.58761" lon="-2.53694">
        <ele>47.8</ele>
        <time>2025-09-30T12:21:14Z</time>
      </trkpt>
      <trkpt lat="48.58762" lon="-2.53679">
        <ele>47.6</ele>
        <time>2025-09-30T12:21:16Z</time>
      </trkpt>
      <trkpt lat="48.58763" lon="-2.53626">
        <ele>47.4</ele>
        <time>2025-09-30T12:21:23Z</time>
      </trkpt>
      <trkpt lat="48.58767" lon="-2.53541">
        <ele>47.4</ele>
        <time>2025-09-30T12:21:34Z</time>
      </trkpt>
      <trkpt lat="48.58767" lon="-2.53533">
        <ele>47.4</ele>
        <time>2025-09-30T12:21:35Z</time>
      </trkpt>
      <trkpt lat="48.58771" lon="-2.53444">
        <ele>47.6</ele>
        <time>2025-09-30T12:21:46Z</time>
      </trkpt>
      <trkpt lat="48.58774" lon="-2.53361">
        <ele>47.4</ele>
        <time>2025-09-30T12:21:56Z</time>
      </trkpt>
      <trkpt lat="48.58774" lon="-2.53344">
        <ele>47.4</ele>
        <time>2025-09-30T12:21:58Z</time>
      </trkpt>
      <trkpt lat="48.58776" lon="-2.53303">
        <ele>46.8</ele>
        <time>2025-09-30T12:22:03Z</time>
      </trkpt>
      <trkpt lat="48.5878" lon="-2.5326">
        <ele>45.6</ele>
        <time>2025-09-30T12:22:08Z</time>
      </trkpt>
      <trkpt lat="48.58785" lon="-2.53248">
        <ele>45.2</ele>
        <time>2025-09-30T12:22:10Z</time>
      </trkpt>
      <trkpt lat="48.58791" lon="-2.53234">
        <ele>45</ele>
        <time>2025-09-30T12:22:12Z</time>
      </trkpt>
      <trkpt lat="48.58793" lon="-2.53221">
        <ele>44.8</ele>
        <time>2025-09-30T12:22:14Z</time>
      </trkpt>
      <trkpt lat="48.58793" lon="-2.53215">
        <ele>44.6</ele>
        <time>2025-09-30T12:22:15Z</time>
      </trkpt>
      <trkpt lat="48.58792" lon="-2.53209">
        <ele>44.6</ele>
        <time>2025-09-30T12:22:16Z</time>
      </trkpt>
      <trkpt lat="48.58788" lon="-2.53193">
        <ele>43.8</ele>
        <time>2025-09-30T12:22:20Z</time>
      </trkpt>
      <trkpt lat="48.5879" lon="-2.53176">
        <ele>43.6</ele>
        <time>2025-09-30T12:22:24Z</time>
      </trkpt>
      <trkpt lat="48.58801" lon="-2.53143">
        <ele>44</ele>
        <time>2025-09-30T12:22:29Z</time>
      </trkpt>
      <trkpt lat="48.58809" lon="-2.53108">
        <ele>44.4</ele>
        <time>2025-09-30T12:22:34Z</time>
      </trkpt>
      <trkpt lat="48.58813" lon="-2.53086">
        <ele>44.8</ele>
        <time>2025-09-30T12:22:37Z</time>
      </trkpt>
      <trkpt lat="48.58822" lon="-2.53044">
        <ele>45.8</ele>
        <time>2025-09-30T12:22:43Z</time>
      </trkpt>
      <trkpt lat="48.5883" lon="-2.53011">
        <ele>46.6</ele>
        <time>2025-09-30T12:22:48Z</time>
      </trkpt>
      <trkpt lat="48.58832" lon="-2.53005">
        <ele>47</ele>
        <time>2025-09-30T12:22:49Z</time>
      </trkpt>
      <trkpt lat="48.58844" lon="-2.52968">
        <ele>48</ele>
        <time>2025-09-30T12:22:55Z</time>
      </trkpt>
      <trkpt lat="48.58849" lon="-2.52948">
        <ele>48.6</ele>
        <time>2025-09-30T12:22:58Z</time>
      </trkpt>
      <trkpt lat="48.58852" lon="-2.52913">
        <ele>49</ele>
        <time>2025-09-30T12:23:03Z</time>
      </trkpt>
      <trkpt lat="48.58854" lon="-2.52897">
        <ele>49.2</ele>
        <time>2025-09-30T12:23:05Z</time>
      </trkpt>
      <trkpt lat="48.58856" lon="-2.52877">
        <ele>49.6</ele>
        <time>2025-09-30T12:23:08Z</time>
      </trkpt>
      <trkpt lat="48.58864" lon="-2.52829">
        <ele>49.8</ele>
        <time>2025-09-30T12:23:15Z</time>
      </trkpt>
      <trkpt lat="48.58864" lon="-2.52816">
        <ele>50.2</ele>
        <time>2025-09-30T12:23:17Z</time>
      </trkpt>
      <trkpt lat="48.58862" lon="-2.52803">
        <ele>50.2</ele>
        <time>2025-09-30T12:23:19Z</time>
      </trkpt>
      <trkpt lat="48.58858" lon="-2.52748">
        <ele>51</ele>
        <time>2025-09-30T12:23:27Z</time>
      </trkpt>
      <trkpt lat="48.58857" lon="-2.52735">
        <ele>51.2</ele>
        <time>2025-09-30T12:23:29Z</time>
      </trkpt>
      <trkpt lat="48.58855" lon="-2.52685">
        <ele>52.2</ele>
        <time>2025-09-30T12:23:37Z</time>
      </trkpt>
      <trkpt lat="48.58855" lon="-2.52678">
        <ele>52.4</ele>
        <time>2025-09-30T12:23:38Z</time>
      </trkpt>
      <trkpt lat="48.58857" lon="-2.52666">
        <ele>52.6</ele>
        <time>2025-09-30T12:23:40Z</time>
      </trkpt>
      <trkpt lat="48.58861" lon="-2.52641">
        <ele>53</ele>
        <time>2025-09-30T12:23:44Z</time>
      </trkpt>
      <trkpt lat="48.58864" lon="-2.52629">
        <ele>53.4</ele>
        <time>2025-09-30T12:23:46Z</time>
      </trkpt>
      <trkpt lat="48.58879" lon="-2.52574">
        <ele>54.6</ele>
        <time>2025-09-30T12:23:55Z</time>
      </trkpt>
      <trkpt lat="48.58894" lon="-2.52516">
        <ele>55.6</ele>
        <time>2025-09-30T12:24:05Z</time>
      </trkpt>
      <trkpt lat="48.58895" lon="-2.5251">
        <ele>55.8</ele>
        <time>2025-09-30T12:24:06Z</time>
      </trkpt>
      <trkpt lat="48.58907" lon="-2.52467">
        <ele>56.8</ele>
        <time>2025-09-30T12:24:13Z</time>
      </trkpt>
      <trkpt lat="48.58912" lon="-2.52449">
        <ele>57.2</ele>
        <time>2025-09-30T12:24:16Z</time>
      </trkpt>
      <trkpt lat="48.58928" lon="-2.52407">
        <ele>57.8</ele>
        <time>2025-09-30T12:24:23Z</time>
      </trkpt>
      <trkpt lat="48.58931" lon="-2.52402">
        <ele>57.8</ele>
        <time>2025-09-30T12:24:24Z</time>
      </trkpt>
      <trkpt lat="48.58958" lon="-2.52362">
        <ele>58.2</ele>
        <time>2025-09-30T12:24:32Z</time>
      </trkpt>
      <trkpt lat="48.58981" lon="-2.52313">
        <ele>58.6</ele>
        <time>2025-09-30T12:24:40Z</time>
      </trkpt>
      <trkpt lat="48.59007" lon="-2.52248">
        <ele>58.6</ele>
        <time>2025-09-30T12:24:50Z</time>
      </trkpt>
      <trkpt lat="48.59026" lon="-2.52184">
        <ele>58.6</ele>
        <time>2025-09-30T12:24:59Z</time>
      </trkpt>
      <trkpt lat="48.59039" lon="-2.52107">
        <ele>58.6</ele>
        <time>2025-09-30T12:25:09Z</time>
      </trkpt>
      <trkpt lat="48.59049" lon="-2.52044">
        <ele>58.4</ele>
        <time>2025-09-30T12:25:18Z</time>
      </trkpt>
      <trkpt lat="48.59053" lon="-2.52032">
        <ele>58.4</ele>
        <time>2025-09-30T12:25:20Z</time>
      </trkpt>
      <trkpt lat="48.59055" lon="-2.52019">
        <ele>58</ele>
        <time>2025-09-30T12:25:22Z</time>
      </trkpt>
      <trkpt lat="48.59055" lon="-2.52012">
        <ele>57.4</ele>
        <time>2025-09-30T12:25:23Z</time>
      </trkpt>
      <trkpt lat="48.59056" lon="-2.51998">
        <ele>57.2</ele>
        <time>2025-09-30T12:25:25Z</time>
      </trkpt>
      <trkpt lat="48.59056" lon="-2.51983">
        <ele>56.8</ele>
        <time>2025-09-30T12:25:27Z</time>
      </trkpt>
      <trkpt lat="48.59056" lon="-2.51974">
        <ele>56.8</ele>
        <time>2025-09-30T12:25:28Z</time>
      </trkpt>
      <trkpt lat="48.59056" lon="-2.51956">
        <ele>56.4</ele>
        <time>2025-09-30T12:25:30Z</time>
      </trkpt>
      <trkpt lat="48.59054" lon="-2.51917">
        <ele>55.8</ele>
        <time>2025-09-30T12:25:34Z</time>
      </trkpt>
      <trkpt lat="48.59052" lon="-2.51888">
        <ele>54.8</ele>
        <time>2025-09-30T12:25:37Z</time>
      </trkpt>
      <trkpt lat="48.59052" lon="-2.51879">
        <ele>54.2</ele>
        <time>2025-09-30T12:25:38Z</time>
      </trkpt>
      <trkpt lat="48.59054" lon="-2.51864">
        <ele>53.8</ele>
        <time>2025-09-30T12:25:40Z</time>
      </trkpt>
      <trkpt lat="48.59056" lon="-2.51857">
        <ele>53.2</ele>
        <time>2025-09-30T12:25:41Z</time>
      </trkpt>
      <trkpt lat="48.59058" lon="-2.5185">
        <ele>52.8</ele>
        <time>2025-09-30T12:25:42Z</time>
      </trkpt>
      <trkpt lat="48.59066" lon="-2.5184">
        <ele>52</ele>
        <time>2025-09-30T12:25:44Z</time>
      </trkpt>
      <trkpt lat="48.59083" lon="-2.51822">
        <ele>51</ele>
        <time>2025-09-30T12:25:47Z</time>
      </trkpt>
      <trkpt lat="48.59089" lon="-2.51815">
        <ele>50.6</ele>
        <time>2025-09-30T12:25:48Z</time>
      </trkpt>
      <trkpt lat="48.59096" lon="-2.51807">
        <ele>49.8</ele>
        <time>2025-09-30T12:25:49Z</time>
      </trkpt>
      <trkpt lat="48.59109" lon="-2.51791">
        <ele>47.8</ele>
        <time>2025-09-30T12:25:51Z</time>
      </trkpt>
      <trkpt lat="48.5912" lon="-2.51774">
        <ele>46.6</ele>
        <time>2025-09-30T12:25:53Z</time>
      </trkpt>
      <trkpt lat="48.59133" lon="-2.51745">
        <ele>45.2</ele>
        <time>2025-09-30T12:25:56Z</time>
      </trkpt>
      <trkpt lat="48.59139" lon="-2.51723">
        <ele>44.4</ele>
        <time>2025-09-30T12:25:58Z</time>
      </trkpt>
      <trkpt lat="48.59141" lon="-2.51712">
        <ele>43.6</ele>
        <time>2025-09-30T12:25:59Z</time>
      </trkpt>
      <trkpt lat="48.59142" lon="-2.51678">
        <ele>42.2</ele>
        <time>2025-09-30T12:26:02Z</time>
      </trkpt>
      <trkpt lat="48.59143" lon="-2.51659">
        <ele>40.8</ele>
        <time>2025-09-30T12:26:04Z</time>
      </trkpt>
      <trkpt lat="48.59144" lon="-2.51643">
        <ele>39.6</ele>
        <time>2025-09-30T12:26:06Z</time>
      </trkpt>
      <trkpt lat="48.59148" lon="-2.51629">
        <ele>39.4</ele>
        <time>2025-09-30T12:26:08Z</time>
      </trkpt>
      <trkpt lat="48.59153" lon="-2.51617">
        <ele>39.4</ele>
        <time>2025-09-30T12:26:10Z</time>
      </trkpt>
      <trkpt lat="48.59159" lon="-2.51604">
        <ele>39.6</ele>
        <time>2025-09-30T12:26:13Z</time>
      </trkpt>
      <trkpt lat="48.59165" lon="-2.51596">
        <ele>40.2</ele>
        <time>2025-09-30T12:26:15Z</time>
      </trkpt>
      <trkpt lat="48.59172" lon="-2.51587">
        <ele>40.8</ele>
        <time>2025-09-30T12:26:17Z</time>
      </trkpt>
      <trkpt lat="48.59189" lon="-2.51561">
        <ele>42</ele>
        <time>2025-09-30T12:26:22Z</time>
      </trkpt>
      <trkpt lat="48.59199" lon="-2.51536">
        <ele>42.8</ele>
        <time>2025-09-30T12:26:26Z</time>
      </trkpt>
      <trkpt lat="48.59201" lon="-2.51529">
        <ele>43</ele>
        <time>2025-09-30T12:26:27Z</time>
      </trkpt>
      <trkpt lat="48.59203" lon="-2.51516">
        <ele>43.4</ele>
        <time>2025-09-30T12:26:29Z</time>
      </trkpt>
      <trkpt lat="48.59204" lon="-2.51504">
        <ele>44</ele>
        <time>2025-09-30T12:26:31Z</time>
      </trkpt>
      <trkpt lat="48.59208" lon="-2.51473">
        <ele>45.6</ele>
        <time>2025-09-30T12:26:36Z</time>
      </trkpt>
      <trkpt lat="48.59211" lon="-2.51455">
        <ele>46.6</ele>
        <time>2025-09-30T12:26:39Z</time>
      </trkpt>
      <trkpt lat="48.59214" lon="-2.51444">
        <ele>47.6</ele>
        <time>2025-09-30T12:26:41Z</time>
      </trkpt>
      <trkpt lat="48.59216" lon="-2.51439">
        <ele>48.2</ele>
        <time>2025-09-30T12:26:42Z</time>
      </trkpt>
      <trkpt lat="48.59219" lon="-2.51434">
        <ele>48.4</ele>
        <time>2025-09-30T12:26:43Z</time>
      </trkpt>
      <trkpt lat="48.59224" lon="-2.51425">
        <ele>49.4</ele>
        <time>2025-09-30T12:26:45Z</time>
      </trkpt>
      <trkpt lat="48.59232" lon="-2.51414">
        <ele>50.4</ele>
        <time>2025-09-30T12:26:48Z</time>
      </trkpt>
      <trkpt lat="48.5924" lon="-2.51403">
        <ele>51.6</ele>
        <time>2025-09-30T12:26:51Z</time>
      </trkpt>
      <trkpt lat="48.59249" lon="-2.51393">
        <ele>52.6</ele>
        <time>2025-09-30T12:26:54Z</time>
      </trkpt>
      <trkpt lat="48.59257" lon="-2.51381">
        <ele>53.8</ele>
        <time>2025-09-30T12:26:57Z</time>
      </trkpt>
      <trkpt lat="48.59264" lon="-2.51368">
        <ele>54.6</ele>
        <time>2025-09-30T12:27:00Z</time>
      </trkpt>
      <trkpt lat="48.59266" lon="-2.51363">
        <ele>54.8</ele>
        <time>2025-09-30T12:27:01Z</time>
      </trkpt>
      <trkpt lat="48.59268" lon="-2.51352">
        <ele>56</ele>
        <time>2025-09-30T12:27:03Z</time>
      </trkpt>
      <trkpt lat="48.59269" lon="-2.5134">
        <ele>56.8</ele>
        <time>2025-09-30T12:27:05Z</time>
      </trkpt>
      <trkpt lat="48.5927" lon="-2.51334">
        <ele>57</ele>
        <time>2025-09-30T12:27:06Z</time>
      </trkpt>
      <trkpt lat="48.59271" lon="-2.51318">
        <ele>58</ele>
        <time>2025-09-30T12:27:09Z</time>
      </trkpt>
      <trkpt lat="48.59273" lon="-2.51305">
        <ele>58.4</ele>
        <time>2025-09-30T12:27:11Z</time>
      </trkpt>
      <trkpt lat="48.59279" lon="-2.51271">
        <ele>59.2</ele>
        <time>2025-09-30T12:27:17Z</time>
      </trkpt>
      <trkpt lat="48.59282" lon="-2.51253">
        <ele>59.4</ele>
        <time>2025-09-30T12:27:20Z</time>
      </trkpt>
      <trkpt lat="48.59283" lon="-2.51229">
        <ele>60.2</ele>
        <time>2025-09-30T12:27:24Z</time>
      </trkpt>
      <trkpt lat="48.59282" lon="-2.5121">
        <ele>60.8</ele>
        <time>2025-09-30T12:27:27Z</time>
      </trkpt>
      <trkpt lat="48.59282" lon="-2.51185">
        <ele>61.4</ele>
        <time>2025-09-30T12:27:31Z</time>
      </trkpt>
      <trkpt lat="48.59281" lon="-2.51154">
        <ele>62.2</ele>
        <time>2025-09-30T12:27:36Z</time>
      </trkpt>
      <trkpt lat="48.59281" lon="-2.51148">
        <ele>62.4</ele>
        <time>2025-09-30T12:27:37Z</time>
      </trkpt>
      <trkpt lat="48.59283" lon="-2.51117">
        <ele>63.2</ele>
        <time>2025-09-30T12:27:42Z</time>
      </trkpt>
      <trkpt lat="48.59285" lon="-2.51104">
        <ele>63.6</ele>
        <time>2025-09-30T12:27:44Z</time>
      </trkpt>
      <trkpt lat="48.59295" lon="-2.51063">
        <ele>64.6</ele>
        <time>2025-09-30T12:27:51Z</time>
      </trkpt>
      <trkpt lat="48.59296" lon="-2.51058">
        <ele>64.8</ele>
        <time>2025-09-30T12:27:52Z</time>
      </trkpt>
      <trkpt lat="48.59309" lon="-2.51025">
        <ele>65.6</ele>
        <time>2025-09-30T12:27:58Z</time>
      </trkpt>
      <trkpt lat="48.59316" lon="-2.51009">
        <ele>66</ele>
        <time>2025-09-30T12:28:01Z</time>
      </trkpt>
      <trkpt lat="48.59324" lon="-2.50988">
        <ele>66.6</ele>
        <time>2025-09-30T12:28:05Z</time>
      </trkpt>
      <trkpt lat="48.59326" lon="-2.50983">
        <ele>66.8</ele>
        <time>2025-09-30T12:28:06Z</time>
      </trkpt>
      <trkpt lat="48.59332" lon="-2.50968">
        <ele>67.2</ele>
        <time>2025-09-30T12:28:09Z</time>
      </trkpt>
      <trkpt lat="48.5934" lon="-2.50947">
        <ele>67.8</ele>
        <time>2025-09-30T12:28:13Z</time>
      </trkpt>
      <trkpt lat="48.59351" lon="-2.5092">
        <ele>68.6</ele>
        <time>2025-09-30T12:28:18Z</time>
      </trkpt>
      <trkpt lat="48.59358" lon="-2.50897">
        <ele>68.8</ele>
        <time>2025-09-30T12:28:22Z</time>
      </trkpt>
      <trkpt lat="48.59366" lon="-2.50869">
        <ele>69</ele>
        <time>2025-09-30T12:28:27Z</time>
      </trkpt>
      <trkpt lat="48.59377" lon="-2.50815">
        <ele>69.8</ele>
        <time>2025-09-30T12:28:36Z</time>
      </trkpt>
      <trkpt lat="48.59378" lon="-2.50802">
        <ele>70</ele>
        <time>2025-09-30T12:28:38Z</time>
      </trkpt>
      <trkpt lat="48.59379" lon="-2.50754">
        <ele>70.8</ele>
        <time>2025-09-30T12:28:46Z</time>
      </trkpt>
      <trkpt lat="48.59378" lon="-2.50748">
        <ele>71</ele>
        <time>2025-09-30T12:28:47Z</time>
      </trkpt>
      <trkpt lat="48.59376" lon="-2.50702">
        <ele>71.8</ele>
        <time>2025-09-30T12:28:55Z</time>
      </trkpt>
      <trkpt lat="48.59375" lon="-2.50696">
        <ele>72</ele>
        <time>2025-09-30T12:28:56Z</time>
      </trkpt>
      <trkpt lat="48.59371" lon="-2.5067">
        <ele>72.4</ele>
        <time>2025-09-30T12:29:01Z</time>
      </trkpt>
      <trkpt lat="48.59369" lon="-2.50666">
        <ele>72.6</ele>
        <time>2025-09-30T12:29:02Z</time>
      </trkpt>
      <trkpt lat="48.59362" lon="-2.50662">
        <ele>73</ele>
        <time>2025-09-30T12:29:04Z</time>
      </trkpt>
      <trkpt lat="48.59336" lon="-2.50646">
        <ele>74</ele>
        <time>2025-09-30T12:29:11Z</time>
      </trkpt>
      <trkpt lat="48.59318" lon="-2.50632">
        <ele>74.8</ele>
        <time>2025-09-30T12:29:16Z</time>
      </trkpt>
      <trkpt lat="48.59314" lon="-2.50626">
        <ele>75</ele>
        <time>2025-09-30T12:29:18Z</time>
      </trkpt>
      <trkpt lat="48.59314" lon="-2.50621">
        <ele>75.2</ele>
        <time>2025-09-30T12:29:19Z</time>
      </trkpt>
      <trkpt lat="48.59318" lon="-2.50599">
        <ele>75.6</ele>
        <time>2025-09-30T12:29:24Z</time>
      </trkpt>
      <trkpt lat="48.59329" lon="-2.50565">
        <ele>75.2</ele>
        <time>2025-09-30T12:29:30Z</time>
      </trkpt>
      <trkpt lat="48.59346" lon="-2.50514">
        <ele>74.4</ele>
        <time>2025-09-30T12:29:37Z</time>
      </trkpt>
      <trkpt lat="48.5935" lon="-2.50499">
        <ele>74</ele>
        <time>2025-09-30T12:29:39Z</time>
      </trkpt>
      <trkpt lat="48.59354" lon="-2.50464">
        <ele>73.4</ele>
        <time>2025-09-30T12:29:43Z</time>
      </trkpt>
      <trkpt lat="48.59353" lon="-2.50446">
        <ele>73.2</ele>
        <time>2025-09-30T12:29:45Z</time>
      </trkpt>
      <trkpt lat="48.5935" lon="-2.50414">
        <ele>73.6</ele>
        <time>2025-09-30T12:29:49Z</time>
      </trkpt>
      <trkpt lat="48.59345" lon="-2.50372">
        <ele>74.4</ele>
        <time>2025-09-30T12:29:55Z</time>
      </trkpt>
      <trkpt lat="48.59345" lon="-2.50365">
        <ele>74.6</ele>
        <time>2025-09-30T12:29:56Z</time>
      </trkpt>
      <trkpt lat="48.59346" lon="-2.50357">
        <ele>74.6</ele>
        <time>2025-09-30T12:29:57Z</time>
      </trkpt>
      <trkpt lat="48.59348" lon="-2.50344">
        <ele>75</ele>
        <time>2025-09-30T12:29:59Z</time>
      </trkpt>
      <trkpt lat="48.5935" lon="-2.50338">
        <ele>75.2</ele>
        <time>2025-09-30T12:30:00Z</time>
      </trkpt>
      <trkpt lat="48.59352" lon="-2.50331">
        <ele>75.4</ele>
        <time>2025-09-30T12:30:01Z</time>
      </trkpt>
      <trkpt lat="48.5936" lon="-2.50312">
        <ele>75.4</ele>
        <time>2025-09-30T12:30:04Z</time>
      </trkpt>
      <trkpt lat="48.59368" lon="-2.50294">
        <ele>75.4</ele>
        <time>2025-09-30T12:30:07Z</time>
      </trkpt>
      <trkpt lat="48.59392" lon="-2.50236">
        <ele>75.4</ele>
        <time>2025-09-30T12:30:17Z</time>
      </trkpt>
      <trkpt lat="48.59397" lon="-2.50224">
        <ele>75.4</ele>
        <time>2025-09-30T12:30:19Z</time>
      </trkpt>
      <trkpt lat="48.59414" lon="-2.50191">
        <ele>75</ele>
        <time>2025-09-30T12:30:25Z</time>
      </trkpt>
      <trkpt lat="48.59419" lon="-2.50179">
        <ele>74.8</ele>
        <time>2025-09-30T12:30:27Z</time>
      </trkpt>
      <trkpt lat="48.59432" lon="-2.50155">
        <ele>74</ele>
        <time>2025-09-30T12:30:31Z</time>
      </trkpt>
      <trkpt lat="48.59439" lon="-2.50143">
        <ele>73.6</ele>
        <time>2025-09-30T12:30:33Z</time>
      </trkpt>
      <trkpt lat="48.59442" lon="-2.50127">
        <ele>73.2</ele>
        <time>2025-09-30T12:30:35Z</time>
      </trkpt>
      <trkpt lat="48.59443" lon="-2.50099">
        <ele>73.8</ele>
        <time>2025-09-30T12:30:39Z</time>
      </trkpt>
      <trkpt lat="48.59447" lon="-2.50086">
        <ele>74.2</ele>
        <time>2025-09-30T12:30:41Z</time>
      </trkpt>
      <trkpt lat="48.59452" lon="-2.50074">
        <ele>74.4</ele>
        <time>2025-09-30T12:30:43Z</time>
      </trkpt>
      <trkpt lat="48.59465" lon="-2.50057">
        <ele>74.4</ele>
        <time>2025-09-30T12:30:46Z</time>
      </trkpt>
      <trkpt lat="48.59478" lon="-2.50043">
        <ele>73.8</ele>
        <time>2025-09-30T12:30:49Z</time>
      </trkpt>
      <trkpt lat="48.59488" lon="-2.50036">
        <ele>73.4</ele>
        <time>2025-09-30T12:30:51Z</time>
      </trkpt>
      <trkpt lat="48.59493" lon="-2.50032">
        <ele>73.4</ele>
        <time>2025-09-30T12:30:52Z</time>
      </trkpt>
      <trkpt lat="48.59509" lon="-2.50021">
        <ele>73</ele>
        <time>2025-09-30T12:30:55Z</time>
      </trkpt>
      <trkpt lat="48.59538" lon="-2.50004">
        <ele>72</ele>
        <time>2025-09-30T12:31:00Z</time>
      </trkpt>
      <trkpt lat="48.59544" lon="-2.5">
        <ele>72</ele>
        <time>2025-09-30T12:31:01Z</time>
      </trkpt>
      <trkpt lat="48.59579" lon="-2.49969">
        <ele>70.8</ele>
        <time>2025-09-30T12:31:07Z</time>
      </trkpt>
      <trkpt lat="48.59584" lon="-2.49963">
        <ele>70.6</ele>
        <time>2025-09-30T12:31:08Z</time>
      </trkpt>
      <trkpt lat="48.59612" lon="-2.49931">
        <ele>69.6</ele>
        <time>2025-09-30T12:31:13Z</time>
      </trkpt>
      <trkpt lat="48.59623" lon="-2.49917">
        <ele>69</ele>
        <time>2025-09-30T12:31:15Z</time>
      </trkpt>
      <trkpt lat="48.59639" lon="-2.49893">
        <ele>68.4</ele>
        <time>2025-09-30T12:31:18Z</time>
      </trkpt>
      <trkpt lat="48.59659" lon="-2.49859">
        <ele>67.4</ele>
        <time>2025-09-30T12:31:22Z</time>
      </trkpt>
      <trkpt lat="48.59673" lon="-2.49831">
        <ele>66.8</ele>
        <time>2025-09-30T12:31:25Z</time>
      </trkpt>
      <trkpt lat="48.59683" lon="-2.49812">
        <ele>66.4</ele>
        <time>2025-09-30T12:31:27Z</time>
      </trkpt>
      <trkpt lat="48.59693" lon="-2.49794">
        <ele>65.8</ele>
        <time>2025-09-30T12:31:29Z</time>
      </trkpt>
      <trkpt lat="48.59707" lon="-2.49767">
        <ele>65.2</ele>
        <time>2025-09-30T12:31:32Z</time>
      </trkpt>
      <trkpt lat="48.59725" lon="-2.4973">
        <ele>64</ele>
        <time>2025-09-30T12:31:36Z</time>
      </trkpt>
      <trkpt lat="48.5973" lon="-2.49721">
        <ele>63.8</ele>
        <time>2025-09-30T12:31:37Z</time>
      </trkpt>
      <trkpt lat="48.59752" lon="-2.49677">
        <ele>63.8</ele>
        <time>2025-09-30T12:31:42Z</time>
      </trkpt>
      <trkpt lat="48.59768" lon="-2.49645">
        <ele>63.2</ele>
        <time>2025-09-30T12:31:46Z</time>
      </trkpt>
      <trkpt lat="48.59791" lon="-2.49601">
        <ele>63.2</ele>
        <time>2025-09-30T12:31:52Z</time>
      </trkpt>
      <trkpt lat="48.59813" lon="-2.49559">
        <ele>63.6</ele>
        <time>2025-09-30T12:31:58Z</time>
      </trkpt>
      <trkpt lat="48.5983" lon="-2.49517">
        <ele>63.6</ele>
        <time>2025-09-30T12:32:04Z</time>
      </trkpt>
      <trkpt lat="48.59833" lon="-2.49502">
        <ele>63.6</ele>
        <time>2025-09-30T12:32:06Z</time>
      </trkpt>
      <trkpt lat="48.59841" lon="-2.49455">
        <ele>63.8</ele>
        <time>2025-09-30T12:32:12Z</time>
      </trkpt>
      <trkpt lat="48.59842" lon="-2.49447">
        <ele>63.6</ele>
        <time>2025-09-30T12:32:13Z</time>
      </trkpt>
      <trkpt lat="48.59858" lon="-2.49397">
        <ele>63.2</ele>
        <time>2025-09-30T12:32:20Z</time>
      </trkpt>
      <trkpt lat="48.59864" lon="-2.49383">
        <ele>63</ele>
        <time>2025-09-30T12:32:22Z</time>
      </trkpt>
      <trkpt lat="48.59897" lon="-2.49325">
        <ele>61.8</ele>
        <time>2025-09-30T12:32:31Z</time>
      </trkpt>
      <trkpt lat="48.59932" lon="-2.49281">
        <ele>60.8</ele>
        <time>2025-09-30T12:32:38Z</time>
      </trkpt>
      <trkpt lat="48.5995" lon="-2.49248">
        <ele>59.4</ele>
        <time>2025-09-30T12:32:42Z</time>
      </trkpt>
      <trkpt lat="48.59963" lon="-2.49221">
        <ele>58.8</ele>
        <time>2025-09-30T12:32:45Z</time>
      </trkpt>
      <trkpt lat="48.5997" lon="-2.49206">
        <ele>58.2</ele>
        <time>2025-09-30T12:32:47Z</time>
      </trkpt>
      <trkpt lat="48.59978" lon="-2.49189">
        <ele>57.4</ele>
        <time>2025-09-30T12:32:50Z</time>
      </trkpt>
      <trkpt lat="48.5998" lon="-2.49184">
        <ele>57.2</ele>
        <time>2025-09-30T12:32:51Z</time>
      </trkpt>
      <trkpt lat="48.5999" lon="-2.49168">
        <ele>56.6</ele>
        <time>2025-09-30T12:32:55Z</time>
      </trkpt>
      <trkpt lat="48.60003" lon="-2.49154">
        <ele>56</ele>
        <time>2025-09-30T12:32:58Z</time>
      </trkpt>
      <trkpt lat="48.60012" lon="-2.49143">
        <ele>55.6</ele>
        <time>2025-09-30T12:33:00Z</time>
      </trkpt>
      <trkpt lat="48.6002" lon="-2.4913">
        <ele>54.8</ele>
        <time>2025-09-30T12:33:02Z</time>
      </trkpt>
      <trkpt lat="48.60045" lon="-2.49093">
        <ele>53.8</ele>
        <time>2025-09-30T12:33:07Z</time>
      </trkpt>
      <trkpt lat="48.6005" lon="-2.49085">
        <ele>53.6</ele>
        <time>2025-09-30T12:33:08Z</time>
      </trkpt>
      <trkpt lat="48.60077" lon="-2.49037">
        <ele>53.2</ele>
        <time>2025-09-30T12:33:14Z</time>
      </trkpt>
      <trkpt lat="48.60081" lon="-2.4903">
        <ele>53</ele>
        <time>2025-09-30T12:33:15Z</time>
      </trkpt>
      <trkpt lat="48.60095" lon="-2.49001">
        <ele>52.8</ele>
        <time>2025-09-30T12:33:19Z</time>
      </trkpt>
      <trkpt lat="48.601" lon="-2.48987">
        <ele>52.6</ele>
        <time>2025-09-30T12:33:21Z</time>
      </trkpt>
      <trkpt lat="48.60109" lon="-2.48961">
        <ele>52.4</ele>
        <time>2025-09-30T12:33:25Z</time>
      </trkpt>
      <trkpt lat="48.60113" lon="-2.48949">
        <ele>52.2</ele>
        <time>2025-09-30T12:33:27Z</time>
      </trkpt>
      <trkpt lat="48.60117" lon="-2.48939">
        <ele>52.2</ele>
        <time>2025-09-30T12:33:29Z</time>
      </trkpt>
      <trkpt lat="48.60123" lon="-2.48922">
        <ele>52</ele>
        <time>2025-09-30T12:33:33Z</time>
      </trkpt>
      <trkpt lat="48.60132" lon="-2.48889">
        <ele>52.2</ele>
        <time>2025-09-30T12:33:38Z</time>
      </trkpt>
      <trkpt lat="48.6014" lon="-2.4886">
        <ele>52.6</ele>
        <time>2025-09-30T12:33:42Z</time>
      </trkpt>
      <trkpt lat="48.60145" lon="-2.48846">
        <ele>52.8</ele>
        <time>2025-09-30T12:33:44Z</time>
      </trkpt>
      <trkpt lat="48.60167" lon="-2.48782">
        <ele>52.4</ele>
        <time>2025-09-30T12:33:53Z</time>
      </trkpt>
      <trkpt lat="48.60173" lon="-2.48767">
        <ele>52.4</ele>
        <time>2025-09-30T12:33:55Z</time>
      </trkpt>
      <trkpt lat="48.60182" lon="-2.48746">
        <ele>52.4</ele>
        <time>2025-09-30T12:33:58Z</time>
      </trkpt>
      <trkpt lat="48.60195" lon="-2.48718">
        <ele>52.6</ele>
        <time>2025-09-30T12:34:02Z</time>
      </trkpt>
      <trkpt lat="48.60223" lon="-2.48657">
        <ele>52.8</ele>
        <time>2025-09-30T12:34:11Z</time>
      </trkpt>
      <trkpt lat="48.60254" lon="-2.48594">
        <ele>53.2</ele>
        <time>2025-09-30T12:34:21Z</time>
      </trkpt>
      <trkpt lat="48.6026" lon="-2.48582">
        <ele>53.6</ele>
        <time>2025-09-30T12:34:23Z</time>
      </trkpt>
      <trkpt lat="48.60285" lon="-2.48527">
        <ele>54.6</ele>
        <time>2025-09-30T12:34:32Z</time>
      </trkpt>
      <trkpt lat="48.60288" lon="-2.48521">
        <ele>54.6</ele>
        <time>2025-09-30T12:34:33Z</time>
      </trkpt>
      <trkpt lat="48.60322" lon="-2.48459">
        <ele>55.4</ele>
        <time>2025-09-30T12:34:44Z</time>
      </trkpt>
      <trkpt lat="48.60325" lon="-2.48453">
        <ele>55.6</ele>
        <time>2025-09-30T12:34:45Z</time>
      </trkpt>
      <trkpt lat="48.60355" lon="-2.48404">
        <ele>56</ele>
        <time>2025-09-30T12:34:54Z</time>
      </trkpt>
      <trkpt lat="48.60391" lon="-2.48337">
        <ele>55.4</ele>
        <time>2025-09-30T12:35:05Z</time>
      </trkpt>
      <trkpt lat="48.60412" lon="-2.48297">
        <ele>54.4</ele>
        <time>2025-09-30T12:35:11Z</time>
      </trkpt>
      <trkpt lat="48.60422" lon="-2.48275">
        <ele>54.2</ele>
        <time>2025-09-30T12:35:14Z</time>
      </trkpt>
      <trkpt lat="48.60444" lon="-2.48231">
        <ele>53.6</ele>
        <time>2025-09-30T12:35:20Z</time>
      </trkpt>
      <trkpt lat="48.60456" lon="-2.48209">
        <ele>53.4</ele>
        <time>2025-09-30T12:35:23Z</time>
      </trkpt>
      <trkpt lat="48.60459" lon="-2.48202">
        <ele>53.2</ele>
        <time>2025-09-30T12:35:24Z</time>
      </trkpt>
      <trkpt lat="48.6048" lon="-2.48165">
        <ele>52.4</ele>
        <time>2025-09-30T12:35:29Z</time>
      </trkpt>
      <trkpt lat="48.60498" lon="-2.48136">
        <ele>51.6</ele>
        <time>2025-09-30T12:35:33Z</time>
      </trkpt>
      <trkpt lat="48.60508" lon="-2.48123">
        <ele>51.2</ele>
        <time>2025-09-30T12:35:35Z</time>
      </trkpt>
      <trkpt lat="48.60532" lon="-2.48086">
        <ele>50.2</ele>
        <time>2025-09-30T12:35:40Z</time>
      </trkpt>
      <trkpt lat="48.60536" lon="-2.48079">
        <ele>50.2</ele>
        <time>2025-09-30T12:35:41Z</time>
      </trkpt>
      <trkpt lat="48.60544" lon="-2.48065">
        <ele>50</ele>
        <time>2025-09-30T12:35:43Z</time>
      </trkpt>
      <trkpt lat="48.60555" lon="-2.48042">
        <ele>50.2</ele>
        <time>2025-09-30T12:35:46Z</time>
      </trkpt>
      <trkpt lat="48.60565" lon="-2.48022">
        <ele>51</ele>
        <time>2025-09-30T12:35:49Z</time>
      </trkpt>
      <trkpt lat="48.60569" lon="-2.48016">
        <ele>51.2</ele>
        <time>2025-09-30T12:35:50Z</time>
      </trkpt>
      <trkpt lat="48.60574" lon="-2.48012">
        <ele>51.4</ele>
        <time>2025-09-30T12:35:51Z</time>
      </trkpt>
      <trkpt lat="48.60601" lon="-2.47998">
        <ele>52</ele>
        <time>2025-09-30T12:35:56Z</time>
      </trkpt>
      <trkpt lat="48.60645" lon="-2.47986">
        <ele>52.2</ele>
        <time>2025-09-30T12:36:04Z</time>
      </trkpt>
      <trkpt lat="48.60655" lon="-2.47983">
        <ele>52.2</ele>
        <time>2025-09-30T12:36:06Z</time>
      </trkpt>
      <trkpt lat="48.607" lon="-2.47969">
        <ele>52.6</ele>
        <time>2025-09-30T12:36:15Z</time>
      </trkpt>
      <trkpt lat="48.60721" lon="-2.47963">
        <ele>53.4</ele>
        <time>2025-09-30T12:36:19Z</time>
      </trkpt>
      <trkpt lat="48.60731" lon="-2.47962">
        <ele>54</ele>
        <time>2025-09-30T12:36:21Z</time>
      </trkpt>
      <trkpt lat="48.60751" lon="-2.47964">
        <ele>54.6</ele>
        <time>2025-09-30T12:36:25Z</time>
      </trkpt>
      <trkpt lat="48.60761" lon="-2.47967">
        <ele>54.8</ele>
        <time>2025-09-30T12:36:27Z</time>
      </trkpt>
      <trkpt lat="48.60779" lon="-2.47977">
        <ele>56</ele>
        <time>2025-09-30T12:36:31Z</time>
      </trkpt>
      <trkpt lat="48.60792" lon="-2.47986">
        <ele>56.6</ele>
        <time>2025-09-30T12:36:34Z</time>
      </trkpt>
      <trkpt lat="48.60804" lon="-2.48">
        <ele>57</ele>
        <time>2025-09-30T12:36:37Z</time>
      </trkpt>
      <trkpt lat="48.60818" lon="-2.48019">
        <ele>57.4</ele>
        <time>2025-09-30T12:36:41Z</time>
      </trkpt>
      <trkpt lat="48.60829" lon="-2.48032">
        <ele>58.2</ele>
        <time>2025-09-30T12:36:44Z</time>
      </trkpt>
      <trkpt lat="48.60844" lon="-2.48047">
        <ele>58.6</ele>
        <time>2025-09-30T12:36:48Z</time>
      </trkpt>
      <trkpt lat="48.60882" lon="-2.48077">
        <ele>57</ele>
        <time>2025-09-30T12:36:57Z</time>
      </trkpt>
      <trkpt lat="48.60904" lon="-2.48092">
        <ele>55.6</ele>
        <time>2025-09-30T12:37:01Z</time>
      </trkpt>
      <trkpt lat="48.60915" lon="-2.48101">
        <ele>54.6</ele>
        <time>2025-09-30T12:37:03Z</time>
      </trkpt>
      <trkpt lat="48.60921" lon="-2.48104">
        <ele>54.6</ele>
        <time>2025-09-30T12:37:04Z</time>
      </trkpt>
      <trkpt lat="48.60946" lon="-2.48108">
        <ele>53.4</ele>
        <time>2025-09-30T12:37:09Z</time>
      </trkpt>
      <trkpt lat="48.60957" lon="-2.48107">
        <ele>52</ele>
        <time>2025-09-30T12:37:12Z</time>
      </trkpt>
      <trkpt lat="48.60965" lon="-2.48108">
        <ele>51.4</ele>
        <time>2025-09-30T12:37:14Z</time>
      </trkpt>
      <trkpt lat="48.60965" lon="-2.48108">
        <ele>51</ele>
        <time>2025-09-30T12:37:15Z</time>
      </trkpt>
      <trkpt lat="48.60967" lon="-2.48109">
        <ele>50</ele>
        <time>2025-09-30T12:37:18Z</time>
      </trkpt>
      <trkpt lat="48.60967" lon="-2.48109">
        <ele>49.8</ele>
        <time>2025-09-30T12:37:19Z</time>
      </trkpt>
      <trkpt lat="48.60967" lon="-2.48109">
        <ele>49.8</ele>
        <time>2025-09-30T12:37:30Z</time>
      </trkpt>
      <trkpt lat="48.60967" lon="-2.48108">
        <ele>49.8</ele>
        <time>2025-09-30T12:37:45Z</time>
      </trkpt>
      <trkpt lat="48.60967" lon="-2.48108">
        <ele>49.8</ele>
        <time>2025-09-30T12:37:58Z</time>
      </trkpt>
      <trkpt lat="48.60967" lon="-2.48108">
        <ele>49.8</ele>
        <time>2025-09-30T12:37:59Z</time>
      </trkpt>
      <trkpt lat="48.60967" lon="-2.48108">
        <ele>49.8</ele>
        <time>2025-09-30T12:38:00Z</time>
      </trkpt>
      <trkpt lat="48.60967" lon="-2.48111">
        <ele>49.8</ele>
        <time>2025-09-30T12:38:12Z</time>
      </trkpt>
      <trkpt lat="48.60959" lon="-2.48124">
        <ele>50</ele>
        <time>2025-09-30T12:38:17Z</time>
      </trkpt>
      <trkpt lat="48.60953" lon="-2.48157">
        <ele>50.6</ele>
        <time>2025-09-30T12:38:22Z</time>
      </trkpt>
      <trkpt lat="48.60948" lon="-2.4818">
        <ele>50.8</ele>
        <time>2025-09-30T12:38:25Z</time>
      </trkpt>
      <trkpt lat="48.60946" lon="-2.48188">
        <ele>51</ele>
        <time>2025-09-30T12:38:26Z</time>
      </trkpt>
      <trkpt lat="48.60939" lon="-2.48215">
        <ele>51</ele>
        <time>2025-09-30T12:38:30Z</time>
      </trkpt>
      <trkpt lat="48.60923" lon="-2.48261">
        <ele>51.2</ele>
        <time>2025-09-30T12:38:38Z</time>
      </trkpt>
      <trkpt lat="48.60914" lon="-2.48285">
        <ele>51</ele>
        <time>2025-09-30T12:38:45Z</time>
      </trkpt>
      <trkpt lat="48.60914" lon="-2.48285">
        <ele>51.4</ele>
        <time>2025-09-30T12:38:56Z</time>
      </trkpt>
      <trkpt lat="48.60914" lon="-2.48285">
        <ele>51.4</ele>
        <time>2025-09-30T12:38:59Z</time>
      </trkpt>
      <trkpt lat="48.60914" lon="-2.48285">
        <ele>51.4</ele>
        <time>2025-09-30T12:39:00Z</time>
      </trkpt>
      <trkpt lat="48.60914" lon="-2.48285">
        <ele>50.6</ele>
        <time>2025-09-30T12:39:05Z</time>
      </trkpt>
      <trkpt lat="48.60914" lon="-2.48285">
        <ele>50.6</ele>
        <time>2025-09-30T12:39:10Z</time>
      </trkpt>
      <trkpt lat="48.60914" lon="-2.48285">
        <ele>50.6</ele>
        <time>2025-09-30T12:39:13Z</time>
      </trkpt>
      <trkpt lat="48.60914" lon="-2.48284">
        <ele>50.6</ele>
        <time>2025-09-30T12:39:38Z</time>
      </trkpt>
      <trkpt lat="48.60913" lon="-2.48287">
        <ele>50.4</ele>
        <time>2025-09-30T12:39:44Z</time>
      </trkpt>
      <trkpt lat="48.60912" lon="-2.48288">
        <ele>50.4</ele>
        <time>2025-09-30T12:39:45Z</time>
      </trkpt>
      <trkpt lat="48.60912" lon="-2.48288">
        <ele>51</ele>
        <time>2025-09-30T12:39:49Z</time>
      </trkpt>
      <trkpt lat="48.60912" lon="-2.48288">
        <ele>51</ele>
        <time>2025-09-30T12:39:57Z</time>
      </trkpt>
      <trkpt lat="48.60912" lon="-2.48287">
        <ele>51</ele>
        <time>2025-09-30T12:40:03Z</time>
      </trkpt>
      <trkpt lat="48.60914" lon="-2.48285">
        <ele>51</ele>
        <time>2025-09-30T12:40:09Z</time>
      </trkpt>
      <trkpt lat="48.60913" lon="-2.48282">
        <ele>51</ele>
        <time>2025-09-30T12:40:14Z</time>
      </trkpt>
      <trkpt lat="48.60913" lon="-2.48282">
        <ele>51</ele>
        <time>2025-09-30T12:40:16Z</time>
      </trkpt>
      <trkpt lat="48.60913" lon="-2.48282">
        <ele>51</ele>
        <time>2025-09-30T12:40:24Z</time>
      </trkpt>
      <trkpt lat="48.60913" lon="-2.48282">
        <ele>51</ele>
        <time>2025-09-30T12:40:25Z</time>
      </trkpt>
      <trkpt lat="48.60913" lon="-2.48282">
        <ele>51</ele>
        <time>2025-09-30T12:40:26Z</time>
      </trkpt>
      <trkpt lat="48.60913" lon="-2.48282">
        <ele>51</ele>
        <time>2025-09-30T12:40:27Z</time>
      </trkpt>
      <trkpt lat="48.60913" lon="-2.48282">
        <ele>51</ele>
        <time>2025-09-30T12:40:30Z</time>
      </trkpt>
      <trkpt lat="48.60913" lon="-2.48282">
        <ele>51</ele>
        <time>2025-09-30T12:40:34Z</time>
      </trkpt>
      <trkpt lat="48.60913" lon="-2.48282">
        <ele>51</ele>
        <time>2025-09-30T12:40:37Z</time>
      </trkpt>
      <trkpt lat="48.60913" lon="-2.48282">
        <ele>51</ele>
        <time>2025-09-30T12:40:43Z</time>
      </trkpt>
      <trkpt lat="48.60913" lon="-2.48282">
        <ele>51</ele>
        <time>2025-09-30T12:40:44Z</time>
      </trkpt>
      <trkpt lat="48.60913" lon="-2.48282">
        <ele>51</ele>
        <time>2025-09-30T12:40:45Z</time>
      </trkpt>
      <trkpt lat="48.60913" lon="-2.48282">
        <ele>51</ele>
        <time>2025-09-30T12:40:46Z</time>
      </trkpt>
      <trkpt lat="48.60913" lon="-2.48282">
        <ele>51</ele>
        <time>2025-09-30T12:41:30Z</time>
      </trkpt>
      <trkpt lat="48.60913" lon="-2.48282">
        <ele>51</ele>
        <time>2025-09-30T12:41:50Z</time>
      </trkpt>
      <trkpt lat="48.60914" lon="-2.48279">
        <ele>51</ele>
        <time>2025-09-30T12:41:55Z</time>
      </trkpt>
      <trkpt lat="48.60918" lon="-2.4827">
        <ele>51.2</ele>
        <time>2025-09-30T12:41:58Z</time>
      </trkpt>
      <trkpt lat="48.60926" lon="-2.48246">
        <ele>51</ele>
        <time>2025-09-30T12:42:03Z</time>
      </trkpt>
      <trkpt lat="48.60939" lon="-2.48206">
        <ele>50.8</ele>
        <time>2025-09-30T12:42:11Z</time>
      </trkpt>
      <trkpt lat="48.60951" lon="-2.48159">
        <ele>50.4</ele>
        <time>2025-09-30T12:42:18Z</time>
      </trkpt>
      <trkpt lat="48.60958" lon="-2.48118">
        <ele>49.8</ele>
        <time>2025-09-30T12:42:25Z</time>
      </trkpt>
      <trkpt lat="48.60962" lon="-2.48112">
        <ele>49.8</ele>
        <time>2025-09-30T12:42:27Z</time>
      </trkpt>
      <trkpt lat="48.60968" lon="-2.48111">
        <ele>49.6</ele>
        <time>2025-09-30T12:42:29Z</time>
      </trkpt>
      <trkpt lat="48.60979" lon="-2.48113">
        <ele>49.2</ele>
        <time>2025-09-30T12:42:32Z</time>
      </trkpt>
      <trkpt lat="48.60983" lon="-2.48115">
        <ele>48.4</ele>
        <time>2025-09-30T12:42:33Z</time>
      </trkpt>
      <trkpt lat="48.60992" lon="-2.48119">
        <ele>47.8</ele>
        <time>2025-09-30T12:42:35Z</time>
      </trkpt>
      <trkpt lat="48.61001" lon="-2.48126">
        <ele>47.4</ele>
        <time>2025-09-30T12:42:37Z</time>
      </trkpt>
      <trkpt lat="48.61016" lon="-2.48138">
        <ele>46</ele>
        <time>2025-09-30T12:42:40Z</time>
      </trkpt>
      <trkpt lat="48.61026" lon="-2.48147">
        <ele>45.2</ele>
        <time>2025-09-30T12:42:42Z</time>
      </trkpt>
      <trkpt lat="48.61031" lon="-2.48152">
        <ele>44.4</ele>
        <time>2025-09-30T12:42:43Z</time>
      </trkpt>
      <trkpt lat="48.6105" lon="-2.48166">
        <ele>43.2</ele>
        <time>2025-09-30T12:42:46Z</time>
      </trkpt>
      <trkpt lat="48.61063" lon="-2.48176">
        <ele>42</ele>
        <time>2025-09-30T12:42:48Z</time>
      </trkpt>
      <trkpt lat="48.61093" lon="-2.48196">
        <ele>40.4</ele>
        <time>2025-09-30T12:42:52Z</time>
      </trkpt>
      <trkpt lat="48.61109" lon="-2.48205">
        <ele>39</ele>
        <time>2025-09-30T12:42:54Z</time>
      </trkpt>
      <trkpt lat="48.61126" lon="-2.48213">
        <ele>38</ele>
        <time>2025-09-30T12:42:56Z</time>
      </trkpt>
      <trkpt lat="48.61155" lon="-2.48229">
        <ele>36.8</ele>
        <time>2025-09-30T12:43:00Z</time>
      </trkpt>
      <trkpt lat="48.61177" lon="-2.48249">
        <ele>35.8</ele>
        <time>2025-09-30T12:43:04Z</time>
      </trkpt>
      <trkpt lat="48.61182" lon="-2.48253">
        <ele>35.8</ele>
        <time>2025-09-30T12:43:05Z</time>
      </trkpt>
      <trkpt lat="48.6119" lon="-2.48256">
        <ele>35.8</ele>
        <time>2025-09-30T12:43:07Z</time>
      </trkpt>
      <trkpt lat="48.61194" lon="-2.48256">
        <ele>35.8</ele>
        <time>2025-09-30T12:43:08Z</time>
      </trkpt>
      <trkpt lat="48.61197" lon="-2.48255">
        <ele>35.8</ele>
        <time>2025-09-30T12:43:09Z</time>
      </trkpt>
      <trkpt lat="48.61201" lon="-2.48246">
        <ele>35.6</ele>
        <time>2025-09-30T12:43:11Z</time>
      </trkpt>
      <trkpt lat="48.61213" lon="-2.48216">
        <ele>35.2</ele>
        <time>2025-09-30T12:43:16Z</time>
      </trkpt>
      <trkpt lat="48.61221" lon="-2.48207">
        <ele>35</ele>
        <time>2025-09-30T12:43:18Z</time>
      </trkpt>
      <trkpt lat="48.6123" lon="-2.48202">
        <ele>34.8</ele>
        <time>2025-09-30T12:43:20Z</time>
      </trkpt>
      <trkpt lat="48.61235" lon="-2.482">
        <ele>34.4</ele>
        <time>2025-09-30T12:43:21Z</time>
      </trkpt>
      <trkpt lat="48.61259" lon="-2.48197">
        <ele>34</ele>
        <time>2025-09-30T12:43:26Z</time>
      </trkpt>
      <trkpt lat="48.61284" lon="-2.48197">
        <ele>33.6</ele>
        <time>2025-09-30T12:43:31Z</time>
      </trkpt>
      <trkpt lat="48.61295" lon="-2.48196">
        <ele>33.4</ele>
        <time>2025-09-30T12:43:33Z</time>
      </trkpt>
      <trkpt lat="48.61299" lon="-2.48193">
        <ele>33.4</ele>
        <time>2025-09-30T12:43:34Z</time>
      </trkpt>
      <trkpt lat="48.61304" lon="-2.48189">
        <ele>33.2</ele>
        <time>2025-09-30T12:43:35Z</time>
      </trkpt>
      <trkpt lat="48.61313" lon="-2.48176">
        <ele>33</ele>
        <time>2025-09-30T12:43:37Z</time>
      </trkpt>
      <trkpt lat="48.61316" lon="-2.48169">
        <ele>32.8</ele>
        <time>2025-09-30T12:43:38Z</time>
      </trkpt>
      <trkpt lat="48.61319" lon="-2.4816">
        <ele>32.6</ele>
        <time>2025-09-30T12:43:39Z</time>
      </trkpt>
      <trkpt lat="48.61321" lon="-2.48152">
        <ele>32.4</ele>
        <time>2025-09-30T12:43:40Z</time>
      </trkpt>
      <trkpt lat="48.61325" lon="-2.48134">
        <ele>31.4</ele>
        <time>2025-09-30T12:43:42Z</time>
      </trkpt>
      <trkpt lat="48.61329" lon="-2.48118">
        <ele>31</ele>
        <time>2025-09-30T12:43:44Z</time>
      </trkpt>
      <trkpt lat="48.61332" lon="-2.4811">
        <ele>30.4</ele>
        <time>2025-09-30T12:43:45Z</time>
      </trkpt>
      <trkpt lat="48.61335" lon="-2.48103">
        <ele>29.8</ele>
        <time>2025-09-30T12:43:46Z</time>
      </trkpt>
      <trkpt lat="48.6134" lon="-2.48095">
        <ele>29.6</ele>
        <time>2025-09-30T12:43:47Z</time>
      </trkpt>
      <trkpt lat="48.6135" lon="-2.48081">
        <ele>28.8</ele>
        <time>2025-09-30T12:43:49Z</time>
      </trkpt>
      <trkpt lat="48.61362" lon="-2.48067">
        <ele>27.8</ele>
        <time>2025-09-30T12:43:51Z</time>
      </trkpt>
      <trkpt lat="48.61368" lon="-2.4806">
        <ele>27.2</ele>
        <time>2025-09-30T12:43:52Z</time>
      </trkpt>
      <trkpt lat="48.61381" lon="-2.48046">
        <ele>25.6</ele>
        <time>2025-09-30T12:43:54Z</time>
      </trkpt>
      <trkpt lat="48.61393" lon="-2.48035">
        <ele>24.6</ele>
        <time>2025-09-30T12:43:56Z</time>
      </trkpt>
      <trkpt lat="48.614" lon="-2.48031">
        <ele>24.2</ele>
        <time>2025-09-30T12:43:57Z</time>
      </trkpt>
      <trkpt lat="48.61407" lon="-2.48027">
        <ele>23.2</ele>
        <time>2025-09-30T12:43:58Z</time>
      </trkpt>
      <trkpt lat="48.61414" lon="-2.48022">
        <ele>22.4</ele>
        <time>2025-09-30T12:43:59Z</time>
      </trkpt>
      <trkpt lat="48.61421" lon="-2.48017">
        <ele>22</ele>
        <time>2025-09-30T12:44:00Z</time>
      </trkpt>
      <trkpt lat="48.61428" lon="-2.48011">
        <ele>20.8</ele>
        <time>2025-09-30T12:44:01Z</time>
      </trkpt>
      <trkpt lat="48.61442" lon="-2.48001">
        <ele>18.4</ele>
        <time>2025-09-30T12:44:03Z</time>
      </trkpt>
      <trkpt lat="48.61449" lon="-2.47998">
        <ele>17.8</ele>
        <time>2025-09-30T12:44:04Z</time>
      </trkpt>
      <trkpt lat="48.61456" lon="-2.47996">
        <ele>17.2</ele>
        <time>2025-09-30T12:44:05Z</time>
      </trkpt>
      <trkpt lat="48.61464" lon="-2.47996">
        <ele>16.2</ele>
        <time>2025-09-30T12:44:06Z</time>
      </trkpt>
      <trkpt lat="48.61473" lon="-2.47998">
        <ele>15.8</ele>
        <time>2025-09-30T12:44:07Z</time>
      </trkpt>
      <trkpt lat="48.6149" lon="-2.48002">
        <ele>14.2</ele>
        <time>2025-09-30T12:44:09Z</time>
      </trkpt>
      <trkpt lat="48.61499" lon="-2.48005">
        <ele>13</ele>
        <time>2025-09-30T12:44:10Z</time>
      </trkpt>
      <trkpt lat="48.61514" lon="-2.48011">
        <ele>12.2</ele>
        <time>2025-09-30T12:44:12Z</time>
      </trkpt>
      <trkpt lat="48.6152" lon="-2.48013">
        <ele>11.6</ele>
        <time>2025-09-30T12:44:13Z</time>
      </trkpt>
      <trkpt lat="48.61533" lon="-2.48018">
        <ele>9.8</ele>
        <time>2025-09-30T12:44:15Z</time>
      </trkpt>
      <trkpt lat="48.61547" lon="-2.48021">
        <ele>9.2</ele>
        <time>2025-09-30T12:44:17Z</time>
      </trkpt>
      <trkpt lat="48.61554" lon="-2.48022">
        <ele>8.4</ele>
        <time>2025-09-30T12:44:18Z</time>
      </trkpt>
      <trkpt lat="48.61561" lon="-2.48021">
        <ele>8.2</ele>
        <time>2025-09-30T12:44:19Z</time>
      </trkpt>
      <trkpt lat="48.61575" lon="-2.48015">
        <ele>7.6</ele>
        <time>2025-09-30T12:44:21Z</time>
      </trkpt>
      <trkpt lat="48.61581" lon="-2.48012">
        <ele>7</ele>
        <time>2025-09-30T12:44:22Z</time>
      </trkpt>
      <trkpt lat="48.61586" lon="-2.48008">
        <ele>7</ele>
        <time>2025-09-30T12:44:23Z</time>
      </trkpt>
      <trkpt lat="48.61596" lon="-2.47998">
        <ele>6.8</ele>
        <time>2025-09-30T12:44:25Z</time>
      </trkpt>
      <trkpt lat="48.6162" lon="-2.47964">
        <ele>7.6</ele>
        <time>2025-09-30T12:44:31Z</time>
      </trkpt>
      <trkpt lat="48.61651" lon="-2.47913">
        <ele>7</ele>
        <time>2025-09-30T12:44:39Z</time>
      </trkpt>
      <trkpt lat="48.6168" lon="-2.47865">
        <ele>6</ele>
        <time>2025-09-30T12:44:46Z</time>
      </trkpt>
      <trkpt lat="48.61688" lon="-2.47851">
        <ele>5.8</ele>
        <time>2025-09-30T12:44:48Z</time>
      </trkpt>
      <trkpt lat="48.61711" lon="-2.47814">
        <ele>6.6</ele>
        <time>2025-09-30T12:44:54Z</time>
      </trkpt>
      <trkpt lat="48.61722" lon="-2.47796">
        <ele>7.2</ele>
        <time>2025-09-30T12:44:57Z</time>
      </trkpt>
      <trkpt lat="48.6174" lon="-2.47765">
        <ele>8</ele>
        <time>2025-09-30T12:45:02Z</time>
      </trkpt>
      <trkpt lat="48.61747" lon="-2.47753">
        <ele>8.4</ele>
        <time>2025-09-30T12:45:04Z</time>
      </trkpt>
      <trkpt lat="48.61758" lon="-2.47734">
        <ele>9.4</ele>
        <time>2025-09-30T12:45:07Z</time>
      </trkpt>
      <trkpt lat="48.61776" lon="-2.47708">
        <ele>10.4</ele>
        <time>2025-09-30T12:45:12Z</time>
      </trkpt>
      <trkpt lat="48.6178" lon="-2.47701">
        <ele>10.8</ele>
        <time>2025-09-30T12:45:13Z</time>
      </trkpt>
      <trkpt lat="48.61785" lon="-2.4769">
        <ele>11</ele>
        <time>2025-09-30T12:45:15Z</time>
      </trkpt>
      <trkpt lat="48.61791" lon="-2.47677">
        <ele>10.6</ele>
        <time>2025-09-30T12:45:17Z</time>
      </trkpt>
      <trkpt lat="48.61794" lon="-2.47669">
        <ele>10.4</ele>
        <time>2025-09-30T12:45:18Z</time>
      </trkpt>
      <trkpt lat="48.61797" lon="-2.4766">
        <ele>10.2</ele>
        <time>2025-09-30T12:45:19Z</time>
      </trkpt>
      <trkpt lat="48.61806" lon="-2.47606">
        <ele>10.6</ele>
        <time>2025-09-30T12:45:26Z</time>
      </trkpt>
      <trkpt lat="48.61816" lon="-2.4754">
        <ele>11.2</ele>
        <time>2025-09-30T12:45:35Z</time>
      </trkpt>
      <trkpt lat="48.61822" lon="-2.47459">
        <ele>10.8</ele>
        <time>2025-09-30T12:45:45Z</time>
      </trkpt>
      <trkpt lat="48.61824" lon="-2.47449">
        <ele>10.8</ele>
        <time>2025-09-30T12:45:46Z</time>
      </trkpt>
      <trkpt lat="48.61829" lon="-2.47434">
        <ele>10.6</ele>
        <time>2025-09-30T12:45:48Z</time>
      </trkpt>
      <trkpt lat="48.61834" lon="-2.47424">
        <ele>10.2</ele>
        <time>2025-09-30T12:45:49Z</time>
      </trkpt>
      <trkpt lat="48.61844" lon="-2.4741">
        <ele>9.2</ele>
        <time>2025-09-30T12:45:51Z</time>
      </trkpt>
      <trkpt lat="48.61854" lon="-2.47396">
        <ele>8</ele>
        <time>2025-09-30T12:45:53Z</time>
      </trkpt>
      <trkpt lat="48.61859" lon="-2.47389">
        <ele>7.8</ele>
        <time>2025-09-30T12:45:54Z</time>
      </trkpt>
      <trkpt lat="48.61865" lon="-2.47382">
        <ele>6.6</ele>
        <time>2025-09-30T12:45:55Z</time>
      </trkpt>
      <trkpt lat="48.6187" lon="-2.47372">
        <ele>6.4</ele>
        <time>2025-09-30T12:45:57Z</time>
      </trkpt>
      <trkpt lat="48.61871" lon="-2.47365">
        <ele>6.2</ele>
        <time>2025-09-30T12:45:58Z</time>
      </trkpt>
      <trkpt lat="48.6187" lon="-2.47361">
        <ele>6.4</ele>
        <time>2025-09-30T12:45:59Z</time>
      </trkpt>
      <trkpt lat="48.61866" lon="-2.47353">
        <ele>6.6</ele>
        <time>2025-09-30T12:46:01Z</time>
      </trkpt>
      <trkpt lat="48.61856" lon="-2.47335">
        <ele>8</ele>
        <time>2025-09-30T12:46:05Z</time>
      </trkpt>
      <trkpt lat="48.6185" lon="-2.47319">
        <ele>9</ele>
        <time>2025-09-30T12:46:08Z</time>
      </trkpt>
      <trkpt lat="48.61848" lon="-2.47312">
        <ele>10.4</ele>
        <time>2025-09-30T12:46:10Z</time>
      </trkpt>
      <trkpt lat="48.61847" lon="-2.4731">
        <ele>10.8</ele>
        <time>2025-09-30T12:46:11Z</time>
      </trkpt>
      <trkpt lat="48.61845" lon="-2.47309">
        <ele>11</ele>
        <time>2025-09-30T12:46:12Z</time>
      </trkpt>
      <trkpt lat="48.61843" lon="-2.47309">
        <ele>11</ele>
        <time>2025-09-30T12:46:13Z</time>
      </trkpt>
      <trkpt lat="48.61839" lon="-2.47311">
        <ele>11.8</ele>
        <time>2025-09-30T12:46:15Z</time>
      </trkpt>
      <trkpt lat="48.61837" lon="-2.47311">
        <ele>12</ele>
        <time>2025-09-30T12:46:16Z</time>
      </trkpt>
      <trkpt lat="48.61837" lon="-2.47311">
        <ele>12.4</ele>
        <time>2025-09-30T12:46:19Z</time>
      </trkpt>
      <trkpt lat="48.61837" lon="-2.47311">
        <ele>13</ele>
        <time>2025-09-30T12:46:26Z</time>
      </trkpt>
      <trkpt lat="48.61837" lon="-2.47311">
        <ele>13</ele>
        <time>2025-09-30T12:46:27Z</time>
      </trkpt>
      <trkpt lat="48.61839" lon="-2.47309">
        <ele>13.6</ele>
        <time>2025-09-30T12:46:35Z</time>
      </trkpt>
      <trkpt lat="48.6184" lon="-2.47307">
        <ele>14</ele>
        <time>2025-09-30T12:46:38Z</time>
      </trkpt>
      <trkpt lat="48.61841" lon="-2.47306">
        <ele>14.4</ele>
        <time>2025-09-30T12:46:42Z</time>
      </trkpt>
      <trkpt lat="48.61841" lon="-2.47306">
        <ele>14.4</ele>
        <time>2025-09-30T12:46:45Z</time>
      </trkpt>
      <trkpt lat="48.61841" lon="-2.47306">
        <ele>14.4</ele>
        <time>2025-09-30T12:46:47Z</time>
      </trkpt>
      <trkpt lat="48.6184" lon="-2.47302">
        <ele>14.6</ele>
        <time>2025-09-30T12:46:52Z</time>
      </trkpt>
      <trkpt lat="48.61839" lon="-2.473">
        <ele>14.6</ele>
        <time>2025-09-30T12:46:53Z</time>
      </trkpt>
      <trkpt lat="48.61839" lon="-2.47298">
        <ele>14.4</ele>
        <time>2025-09-30T12:46:54Z</time>
      </trkpt>
      <trkpt lat="48.61835" lon="-2.47295">
        <ele>14.6</ele>
        <time>2025-09-30T12:46:56Z</time>
      </trkpt>
      <trkpt lat="48.61834" lon="-2.47295">
        <ele>14.6</ele>
        <time>2025-09-30T12:46:57Z</time>
      </trkpt>
      <trkpt lat="48.61831" lon="-2.47295">
        <ele>14.4</ele>
        <time>2025-09-30T12:46:59Z</time>
      </trkpt>
      <trkpt lat="48.6183" lon="-2.47291">
        <ele>14.6</ele>
        <time>2025-09-30T12:47:01Z</time>
      </trkpt>
      <trkpt lat="48.61831" lon="-2.47289">
        <ele>14.8</ele>
        <time>2025-09-30T12:47:05Z</time>
      </trkpt>
      <trkpt lat="48.61831" lon="-2.47289">
        <ele>14.8</ele>
        <time>2025-09-30T12:47:16Z</time>
      </trkpt>
      <trkpt lat="48.61832" lon="-2.47287">
        <ele>14.8</ele>
        <time>2025-09-30T12:47:18Z</time>
      </trkpt>
      <trkpt lat="48.61834" lon="-2.47284">
        <ele>15</ele>
        <time>2025-09-30T12:47:19Z</time>
      </trkpt>
      <trkpt lat="48.61836" lon="-2.47282">
        <ele>15</ele>
        <time>2025-09-30T12:47:20Z</time>
      </trkpt>
      <trkpt lat="48.61838" lon="-2.47279">
        <ele>15</ele>
        <time>2025-09-30T12:47:21Z</time>
      </trkpt>
      <trkpt lat="48.61852" lon="-2.47263">
        <ele>16</ele>
        <time>2025-09-30T12:47:27Z</time>
      </trkpt>
      <trkpt lat="48.61854" lon="-2.47261">
        <ele>16.2</ele>
        <time>2025-09-30T12:47:28Z</time>
      </trkpt>
      <trkpt lat="48.61865" lon="-2.4725">
        <ele>16.8</ele>
        <time>2025-09-30T12:47:33Z</time>
      </trkpt>
      <trkpt lat="48.61871" lon="-2.47241">
        <ele>17.2</ele>
        <time>2025-09-30T12:47:36Z</time>
      </trkpt>
      <trkpt lat="48.6188" lon="-2.47232">
        <ele>17.8</ele>
        <time>2025-09-30T12:47:40Z</time>
      </trkpt>
      <trkpt lat="48.61889" lon="-2.47221">
        <ele>18.2</ele>
        <time>2025-09-30T12:47:44Z</time>
      </trkpt>
      <trkpt lat="48.61891" lon="-2.47219">
        <ele>18.4</ele>
        <time>2025-09-30T12:47:45Z</time>
      </trkpt>
      <trkpt lat="48.61899" lon="-2.4721">
        <ele>19</ele>
        <time>2025-09-30T12:47:49Z</time>
      </trkpt>
      <trkpt lat="48.61924" lon="-2.47189">
        <ele>18.8</ele>
        <time>2025-09-30T12:47:58Z</time>
      </trkpt>
      <trkpt lat="48.61931" lon="-2.47181">
        <ele>18.6</ele>
        <time>2025-09-30T12:48:01Z</time>
      </trkpt>
      <trkpt lat="48.61945" lon="-2.47167">
        <ele>18.2</ele>
        <time>2025-09-30T12:48:07Z</time>
      </trkpt>
      <trkpt lat="48.61962" lon="-2.47143">
        <ele>18</ele>
        <time>2025-09-30T12:48:13Z</time>
      </trkpt>
      <trkpt lat="48.61984" lon="-2.47111">
        <ele>17.4</ele>
        <time>2025-09-30T12:48:22Z</time>
      </trkpt>
      <trkpt lat="48.61985" lon="-2.47109">
        <ele>17.2</ele>
        <time>2025-09-30T12:48:23Z</time>
      </trkpt>
      <trkpt lat="48.61984" lon="-2.47106">
        <ele>17</ele>
        <time>2025-09-30T12:48:25Z</time>
      </trkpt>
      <trkpt lat="48.61985" lon="-2.47105">
        <ele>17</ele>
        <time>2025-09-30T12:48:26Z</time>
      </trkpt>
      <trkpt lat="48.61986" lon="-2.47105">
        <ele>17</ele>
        <time>2025-09-30T12:48:28Z</time>
      </trkpt>
      <trkpt lat="48.61987" lon="-2.47102">
        <ele>17.2</ele>
        <time>2025-09-30T12:48:30Z</time>
      </trkpt>
      <trkpt lat="48.61988" lon="-2.47099">
        <ele>17.4</ele>
        <time>2025-09-30T12:48:32Z</time>
      </trkpt>
      <trkpt lat="48.61993" lon="-2.47092">
        <ele>17.6</ele>
        <time>2025-09-30T12:48:35Z</time>
      </trkpt>
      <trkpt lat="48.62007" lon="-2.47072">
        <ele>18</ele>
        <time>2025-09-30T12:48:41Z</time>
      </trkpt>
      <trkpt lat="48.6201" lon="-2.47065">
        <ele>18.2</ele>
        <time>2025-09-30T12:48:43Z</time>
      </trkpt>
      <trkpt lat="48.62013" lon="-2.47062">
        <ele>18.4</ele>
        <time>2025-09-30T12:48:44Z</time>
      </trkpt>
      <trkpt lat="48.6203" lon="-2.47034">
        <ele>19</ele>
        <time>2025-09-30T12:48:52Z</time>
      </trkpt>
      <trkpt lat="48.62034" lon="-2.47029">
        <ele>19.4</ele>
        <time>2025-09-30T12:48:54Z</time>
      </trkpt>
      <trkpt lat="48.62036" lon="-2.47027">
        <ele>19.4</ele>
        <time>2025-09-30T12:48:56Z</time>
      </trkpt>
      <trkpt lat="48.62036" lon="-2.47027">
        <ele>20</ele>
        <time>2025-09-30T12:49:04Z</time>
      </trkpt>
      <trkpt lat="48.62036" lon="-2.47027">
        <ele>19.6</ele>
        <time>2025-09-30T12:49:09Z</time>
      </trkpt>
      <trkpt lat="48.62036" lon="-2.47027">
        <ele>19.2</ele>
        <time>2025-09-30T12:49:14Z</time>
      </trkpt>
      <trkpt lat="48.62036" lon="-2.47027">
        <ele>19.6</ele>
        <time>2025-09-30T12:49:24Z</time>
      </trkpt>
      <trkpt lat="48.62036" lon="-2.47027">
        <ele>19.6</ele>
        <time>2025-09-30T12:49:29Z</time>
      </trkpt>
      <trkpt lat="48.62036" lon="-2.47027">
        <ele>19.6</ele>
        <time>2025-09-30T12:49:30Z</time>
      </trkpt>
      <trkpt lat="48.62036" lon="-2.47027">
        <ele>19.6</ele>
        <time>2025-09-30T12:49:33Z</time>
      </trkpt>
      <trkpt lat="48.62036" lon="-2.47027">
        <ele>19.8</ele>
        <time>2025-09-30T12:49:37Z</time>
      </trkpt>
      <trkpt lat="48.62036" lon="-2.47027">
        <ele>19</ele>
        <time>2025-09-30T12:49:49Z</time>
      </trkpt>
      <trkpt lat="48.62036" lon="-2.47027">
        <ele>18.8</ele>
        <time>2025-09-30T12:50:05Z</time>
      </trkpt>
      <trkpt lat="48.62036" lon="-2.47027">
        <ele>19.2</ele>
        <time>2025-09-30T12:50:07Z</time>
      </trkpt>
      <trkpt lat="48.62036" lon="-2.47027">
        <ele>19.4</ele>
        <time>2025-09-30T12:50:09Z</time>
      </trkpt>
      <trkpt lat="48.62037" lon="-2.47024">
        <ele>19.4</ele>
        <time>2025-09-30T12:50:13Z</time>
      </trkpt>
      <trkpt lat="48.62039" lon="-2.47019">
        <ele>19.4</ele>
        <time>2025-09-30T12:50:15Z</time>
      </trkpt>
      <trkpt lat="48.62047" lon="-2.47008">
        <ele>19.8</ele>
        <time>2025-09-30T12:50:20Z</time>
      </trkpt>
      <trkpt lat="48.62049" lon="-2.47005">
        <ele>19.8</ele>
        <time>2025-09-30T12:50:21Z</time>
      </trkpt>
      <trkpt lat="48.62051" lon="-2.47003">
        <ele>19.8</ele>
        <time>2025-09-30T12:50:22Z</time>
      </trkpt>
      <trkpt lat="48.62053" lon="-2.46998">
        <ele>20</ele>
        <time>2025-09-30T12:50:24Z</time>
      </trkpt>
      <trkpt lat="48.62054" lon="-2.46993">
        <ele>20</ele>
        <time>2025-09-30T12:50:27Z</time>
      </trkpt>
      <trkpt lat="48.62057" lon="-2.46992">
        <ele>19.6</ele>
        <time>2025-09-30T12:50:33Z</time>
      </trkpt>
      <trkpt lat="48.62057" lon="-2.46992">
        <ele>19.6</ele>
        <time>2025-09-30T12:50:35Z</time>
      </trkpt>
      <trkpt lat="48.62057" lon="-2.46992">
        <ele>19.6</ele>
        <time>2025-09-30T12:50:36Z</time>
      </trkpt>
      <trkpt lat="48.62058" lon="-2.4699">
        <ele>19.6</ele>
        <time>2025-09-30T12:50:38Z</time>
      </trkpt>
      <trkpt lat="48.62061" lon="-2.46987">
        <ele>19.6</ele>
        <time>2025-09-30T12:50:39Z</time>
      </trkpt>
      <trkpt lat="48.62069" lon="-2.46975">
        <ele>19.8</ele>
        <time>2025-09-30T12:50:44Z</time>
      </trkpt>
      <trkpt lat="48.62072" lon="-2.46971">
        <ele>20</ele>
        <time>2025-09-30T12:50:46Z</time>
      </trkpt>
      <trkpt lat="48.62077" lon="-2.46966">
        <ele>20</ele>
        <time>2025-09-30T12:50:48Z</time>
      </trkpt>
      <trkpt lat="48.62083" lon="-2.46959">
        <ele>20.4</ele>
        <time>2025-09-30T12:50:51Z</time>
      </trkpt>
      <trkpt lat="48.62096" lon="-2.46948">
        <ele>20.8</ele>
        <time>2025-09-30T12:50:57Z</time>
      </trkpt>
      <trkpt lat="48.62102" lon="-2.46945">
        <ele>21</ele>
        <time>2025-09-30T12:50:59Z</time>
      </trkpt>
      <trkpt lat="48.62108" lon="-2.4694">
        <ele>21.2</ele>
        <time>2025-09-30T12:51:01Z</time>
      </trkpt>
      <trkpt lat="48.62111" lon="-2.46939">
        <ele>21.4</ele>
        <time>2025-09-30T12:51:02Z</time>
      </trkpt>
      <trkpt lat="48.62114" lon="-2.46936">
        <ele>21.6</ele>
        <time>2025-09-30T12:51:03Z</time>
      </trkpt>
      <trkpt lat="48.62132" lon="-2.46921">
        <ele>22.2</ele>
        <time>2025-09-30T12:51:10Z</time>
      </trkpt>
      <trkpt lat="48.62138" lon="-2.46917">
        <ele>22.6</ele>
        <time>2025-09-30T12:51:12Z</time>
      </trkpt>
      <trkpt lat="48.62162" lon="-2.46898">
        <ele>23.6</ele>
        <time>2025-09-30T12:51:21Z</time>
      </trkpt>
      <trkpt lat="48.62169" lon="-2.46895">
        <ele>23.8</ele>
        <time>2025-09-30T12:51:24Z</time>
      </trkpt>
      <trkpt lat="48.6219" lon="-2.46876">
        <ele>24.2</ele>
        <time>2025-09-30T12:51:32Z</time>
      </trkpt>
      <trkpt lat="48.62195" lon="-2.46872">
        <ele>24.6</ele>
        <time>2025-09-30T12:51:34Z</time>
      </trkpt>
      <trkpt lat="48.62212" lon="-2.46856">
        <ele>25</ele>
        <time>2025-09-30T12:51:40Z</time>
      </trkpt>
      <trkpt lat="48.62221" lon="-2.46849">
        <ele>25.6</ele>
        <time>2025-09-30T12:51:43Z</time>
      </trkpt>
      <trkpt lat="48.6224" lon="-2.46833">
        <ele>26.4</ele>
        <time>2025-09-30T12:51:49Z</time>
      </trkpt>
      <trkpt lat="48.62243" lon="-2.4683">
        <ele>26.6</ele>
        <time>2025-09-30T12:51:50Z</time>
      </trkpt>
      <trkpt lat="48.6226" lon="-2.46812">
        <ele>27.4</ele>
        <time>2025-09-30T12:51:56Z</time>
      </trkpt>
      <trkpt lat="48.62267" lon="-2.46803">
        <ele>27.6</ele>
        <time>2025-09-30T12:51:59Z</time>
      </trkpt>
      <trkpt lat="48.62282" lon="-2.46785">
        <ele>28.2</ele>
        <time>2025-09-30T12:52:05Z</time>
      </trkpt>
      <trkpt lat="48.62288" lon="-2.46776">
        <ele>28.8</ele>
        <time>2025-09-30T12:52:08Z</time>
      </trkpt>
      <trkpt lat="48.62291" lon="-2.46769">
        <ele>29</ele>
        <time>2025-09-30T12:52:10Z</time>
      </trkpt>
      <trkpt lat="48.62293" lon="-2.46766">
        <ele>29.2</ele>
        <time>2025-09-30T12:52:11Z</time>
      </trkpt>
      <trkpt lat="48.62308" lon="-2.46743">
        <ele>29.8</ele>
        <time>2025-09-30T12:52:18Z</time>
      </trkpt>
      <trkpt lat="48.62312" lon="-2.46737">
        <ele>30</ele>
        <time>2025-09-30T12:52:20Z</time>
      </trkpt>
      <trkpt lat="48.62314" lon="-2.46732">
        <ele>30.4</ele>
        <time>2025-09-30T12:52:21Z</time>
      </trkpt>
      <trkpt lat="48.62316" lon="-2.46729">
        <ele>30.6</ele>
        <time>2025-09-30T12:52:22Z</time>
      </trkpt>
      <trkpt lat="48.62321" lon="-2.46717">
        <ele>30.8</ele>
        <time>2025-09-30T12:52:25Z</time>
      </trkpt>
      <trkpt lat="48.62327" lon="-2.46707">
        <ele>31.4</ele>
        <time>2025-09-30T12:52:28Z</time>
      </trkpt>
      <trkpt lat="48.62338" lon="-2.46688">
        <ele>31.8</ele>
        <time>2025-09-30T12:52:33Z</time>
      </trkpt>
      <trkpt lat="48.62342" lon="-2.46681">
        <ele>32</ele>
        <time>2025-09-30T12:52:35Z</time>
      </trkpt>
      <trkpt lat="48.62355" lon="-2.46652">
        <ele>32.8</ele>
        <time>2025-09-30T12:52:42Z</time>
      </trkpt>
      <trkpt lat="48.6236" lon="-2.46644">
        <ele>33</ele>
        <time>2025-09-30T12:52:44Z</time>
      </trkpt>
      <trkpt lat="48.62375" lon="-2.46618">
        <ele>33.6</ele>
        <time>2025-09-30T12:52:50Z</time>
      </trkpt>
      <trkpt lat="48.62385" lon="-2.46602">
        <ele>34</ele>
        <time>2025-09-30T12:52:54Z</time>
      </trkpt>
      <trkpt lat="48.624" lon="-2.46583">
        <ele>35</ele>
        <time>2025-09-30T12:53:00Z</time>
      </trkpt>
      <trkpt lat="48.62403" lon="-2.46581">
        <ele>35</ele>
        <time>2025-09-30T12:53:01Z</time>
      </trkpt>
      <trkpt lat="48.62415" lon="-2.46564">
        <ele>35.4</ele>
        <time>2025-09-30T12:53:06Z</time>
      </trkpt>
      <trkpt lat="48.62423" lon="-2.46555">
        <ele>35.8</ele>
        <time>2025-09-30T12:53:09Z</time>
      </trkpt>
      <trkpt lat="48.62429" lon="-2.46549">
        <ele>36.2</ele>
        <time>2025-09-30T12:53:11Z</time>
      </trkpt>
      <trkpt lat="48.62435" lon="-2.46544">
        <ele>36.4</ele>
        <time>2025-09-30T12:53:13Z</time>
      </trkpt>
      <trkpt lat="48.62451" lon="-2.46529">
        <ele>37.2</ele>
        <time>2025-09-30T12:53:18Z</time>
      </trkpt>
      <trkpt lat="48.62463" lon="-2.46519">
        <ele>37.8</ele>
        <time>2025-09-30T12:53:22Z</time>
      </trkpt>
      <trkpt lat="48.62474" lon="-2.4651">
        <ele>38.2</ele>
        <time>2025-09-30T12:53:25Z</time>
      </trkpt>
      <trkpt lat="48.62492" lon="-2.46495">
        <ele>38.8</ele>
        <time>2025-09-30T12:53:30Z</time>
      </trkpt>
      <trkpt lat="48.62502" lon="-2.46488">
        <ele>39.4</ele>
        <time>2025-09-30T12:53:33Z</time>
      </trkpt>
      <trkpt lat="48.62526" lon="-2.46468">
        <ele>40.4</ele>
        <time>2025-09-30T12:53:40Z</time>
      </trkpt>
      <trkpt lat="48.62551" lon="-2.46448">
        <ele>40.4</ele>
        <time>2025-09-30T12:53:48Z</time>
      </trkpt>
      <trkpt lat="48.62571" lon="-2.46432">
        <ele>40.2</ele>
        <time>2025-09-30T12:53:55Z</time>
      </trkpt>
      <trkpt lat="48.62596" lon="-2.46412">
        <ele>39.6</ele>
        <time>2025-09-30T12:54:02Z</time>
      </trkpt>
      <trkpt lat="48.62599" lon="-2.46409">
        <ele>39.6</ele>
        <time>2025-09-30T12:54:03Z</time>
      </trkpt>
      <trkpt lat="48.62604" lon="-2.46405">
        <ele>39.4</ele>
        <time>2025-09-30T12:54:04Z</time>
      </trkpt>
      <trkpt lat="48.6263" lon="-2.46378">
        <ele>38.2</ele>
        <time>2025-09-30T12:54:11Z</time>
      </trkpt>
      <trkpt lat="48.62646" lon="-2.46358">
        <ele>37.4</ele>
        <time>2025-09-30T12:54:15Z</time>
      </trkpt>
      <trkpt lat="48.62656" lon="-2.46341">
        <ele>37.2</ele>
        <time>2025-09-30T12:54:18Z</time>
      </trkpt>
      <trkpt lat="48.62677" lon="-2.463">
        <ele>36</ele>
        <time>2025-09-30T12:54:24Z</time>
      </trkpt>
      <trkpt lat="48.62683" lon="-2.46285">
        <ele>35.6</ele>
        <time>2025-09-30T12:54:26Z</time>
      </trkpt>
      <trkpt lat="48.62686" lon="-2.46277">
        <ele>34.6</ele>
        <time>2025-09-30T12:54:27Z</time>
      </trkpt>
      <trkpt lat="48.62704" lon="-2.46226">
        <ele>33.8</ele>
        <time>2025-09-30T12:54:33Z</time>
      </trkpt>
      <trkpt lat="48.62708" lon="-2.46215">
        <ele>33.6</ele>
        <time>2025-09-30T12:54:34Z</time>
      </trkpt>
      <trkpt lat="48.62721" lon="-2.4618">
        <ele>32.4</ele>
        <time>2025-09-30T12:54:38Z</time>
      </trkpt>
      <trkpt lat="48.62731" lon="-2.46153">
        <ele>31.6</ele>
        <time>2025-09-30T12:54:41Z</time>
      </trkpt>
      <trkpt lat="48.62735" lon="-2.46141">
        <ele>31.2</ele>
        <time>2025-09-30T12:54:42Z</time>
      </trkpt>
      <trkpt lat="48.62749" lon="-2.46103">
        <ele>30</ele>
        <time>2025-09-30T12:54:46Z</time>
      </trkpt>
      <trkpt lat="48.62755" lon="-2.46085">
        <ele>29.8</ele>
        <time>2025-09-30T12:54:48Z</time>
      </trkpt>
      <trkpt lat="48.62765" lon="-2.46056">
        <ele>28.8</ele>
        <time>2025-09-30T12:54:51Z</time>
      </trkpt>
      <trkpt lat="48.62783" lon="-2.46008">
        <ele>27.8</ele>
        <time>2025-09-30T12:54:56Z</time>
      </trkpt>
      <trkpt lat="48.62785" lon="-2.46001">
        <ele>27.4</ele>
        <time>2025-09-30T12:54:57Z</time>
      </trkpt>
      <trkpt lat="48.62788" lon="-2.45993">
        <ele>27.2</ele>
        <time>2025-09-30T12:54:58Z</time>
      </trkpt>
      <trkpt lat="48.6279" lon="-2.45985">
        <ele>27</ele>
        <time>2025-09-30T12:54:59Z</time>
      </trkpt>
      <trkpt lat="48.62792" lon="-2.45979">
        <ele>26.6</ele>
        <time>2025-09-30T12:55:00Z</time>
      </trkpt>
      <trkpt lat="48.62793" lon="-2.45973">
        <ele>26</ele>
        <time>2025-09-30T12:55:01Z</time>
      </trkpt>
      <trkpt lat="48.62798" lon="-2.45961">
        <ele>25.4</ele>
        <time>2025-09-30T12:55:04Z</time>
      </trkpt>
      <trkpt lat="48.62799" lon="-2.45959">
        <ele>24.8</ele>
        <time>2025-09-30T12:55:05Z</time>
      </trkpt>
      <trkpt lat="48.628" lon="-2.45958">
        <ele>24.6</ele>
        <time>2025-09-30T12:55:06Z</time>
      </trkpt>
      <trkpt lat="48.62801" lon="-2.45958">
        <ele>24.4</ele>
        <time>2025-09-30T12:55:08Z</time>
      </trkpt>
      <trkpt lat="48.62801" lon="-2.45958">
        <ele>24.4</ele>
        <time>2025-09-30T12:55:11Z</time>
      </trkpt>
      <trkpt lat="48.62801" lon="-2.45958">
        <ele>24.4</ele>
        <time>2025-09-30T12:55:17Z</time>
      </trkpt>
      <trkpt lat="48.62801" lon="-2.45958">
        <ele>24.4</ele>
        <time>2025-09-30T12:55:18Z</time>
      </trkpt>
      <trkpt lat="48.62801" lon="-2.45958">
        <ele>24.4</ele>
        <time>2025-09-30T12:55:19Z</time>
      </trkpt>
      <trkpt lat="48.62801" lon="-2.45957">
        <ele>24.4</ele>
        <time>2025-09-30T12:55:21Z</time>
      </trkpt>
      <trkpt lat="48.62806" lon="-2.45956">
        <ele>24.6</ele>
        <time>2025-09-30T12:55:24Z</time>
      </trkpt>
      <trkpt lat="48.62808" lon="-2.45953">
        <ele>24.4</ele>
        <time>2025-09-30T12:55:25Z</time>
      </trkpt>
      <trkpt lat="48.62814" lon="-2.45941">
        <ele>24.8</ele>
        <time>2025-09-30T12:55:28Z</time>
      </trkpt>
      <trkpt lat="48.62817" lon="-2.45936">
        <ele>25</ele>
        <time>2025-09-30T12:55:29Z</time>
      </trkpt>
      <trkpt lat="48.62832" lon="-2.45908">
        <ele>25.2</ele>
        <time>2025-09-30T12:55:35Z</time>
      </trkpt>
      <trkpt lat="48.62838" lon="-2.45899">
        <ele>25.2</ele>
        <time>2025-09-30T12:55:37Z</time>
      </trkpt>
      <trkpt lat="48.62854" lon="-2.45878">
        <ele>25</ele>
        <time>2025-09-30T12:55:42Z</time>
      </trkpt>
      <trkpt lat="48.62859" lon="-2.45869">
        <ele>25</ele>
        <time>2025-09-30T12:55:44Z</time>
      </trkpt>
      <trkpt lat="48.62865" lon="-2.45847">
        <ele>24.8</ele>
        <time>2025-09-30T12:55:49Z</time>
      </trkpt>
      <trkpt lat="48.62873" lon="-2.4582">
        <ele>24.6</ele>
        <time>2025-09-30T12:55:55Z</time>
      </trkpt>
      <trkpt lat="48.62892" lon="-2.45789">
        <ele>24.6</ele>
        <time>2025-09-30T12:56:02Z</time>
      </trkpt>
      <trkpt lat="48.629" lon="-2.4576">
        <ele>24.8</ele>
        <time>2025-09-30T12:56:08Z</time>
      </trkpt>
      <trkpt lat="48.62908" lon="-2.45728">
        <ele>25</ele>
        <time>2025-09-30T12:56:14Z</time>
      </trkpt>
      <trkpt lat="48.62917" lon="-2.45712">
        <ele>25.2</ele>
        <time>2025-09-30T12:56:18Z</time>
      </trkpt>
      <trkpt lat="48.6292" lon="-2.457">
        <ele>25.6</ele>
        <time>2025-09-30T12:56:21Z</time>
      </trkpt>
      <trkpt lat="48.62923" lon="-2.45689">
        <ele>25.8</ele>
        <time>2025-09-30T12:56:24Z</time>
      </trkpt>
      <trkpt lat="48.62931" lon="-2.45669">
        <ele>26</ele>
        <time>2025-09-30T12:56:29Z</time>
      </trkpt>
      <trkpt lat="48.62934" lon="-2.45649">
        <ele>26.4</ele>
        <time>2025-09-30T12:56:33Z</time>
      </trkpt>
      <trkpt lat="48.62937" lon="-2.45631">
        <ele>26.6</ele>
        <time>2025-09-30T12:56:36Z</time>
      </trkpt>
      <trkpt lat="48.62938" lon="-2.45626">
        <ele>26.6</ele>
        <time>2025-09-30T12:56:37Z</time>
      </trkpt>
      <trkpt lat="48.62942" lon="-2.45596">
        <ele>27.2</ele>
        <time>2025-09-30T12:56:42Z</time>
      </trkpt>
      <trkpt lat="48.62943" lon="-2.45587">
        <ele>27.4</ele>
        <time>2025-09-30T12:56:44Z</time>
      </trkpt>
      <trkpt lat="48.62946" lon="-2.4556">
        <ele>27.8</ele>
        <time>2025-09-30T12:56:49Z</time>
      </trkpt>
      <trkpt lat="48.62947" lon="-2.45549">
        <ele>27.8</ele>
        <time>2025-09-30T12:56:51Z</time>
      </trkpt>
      <trkpt lat="48.62951" lon="-2.45498">
        <ele>28.2</ele>
        <time>2025-09-30T12:57:00Z</time>
      </trkpt>
      <trkpt lat="48.62955" lon="-2.45462">
        <ele>28.4</ele>
        <time>2025-09-30T12:57:07Z</time>
      </trkpt>
      <trkpt lat="48.62961" lon="-2.45409">
        <ele>28.4</ele>
        <time>2025-09-30T12:57:15Z</time>
      </trkpt>
      <trkpt lat="48.62963" lon="-2.45395">
        <ele>28.8</ele>
        <time>2025-09-30T12:57:17Z</time>
      </trkpt>
      <trkpt lat="48.62967" lon="-2.45353">
        <ele>28.8</ele>
        <time>2025-09-30T12:57:23Z</time>
      </trkpt>
      <trkpt lat="48.62974" lon="-2.45285">
        <ele>29.4</ele>
        <time>2025-09-30T12:57:33Z</time>
      </trkpt>
      <trkpt lat="48.62983" lon="-2.45207">
        <ele>29.2</ele>
        <time>2025-09-30T12:57:44Z</time>
      </trkpt>
      <trkpt lat="48.62992" lon="-2.45134">
        <ele>28.8</ele>
        <time>2025-09-30T12:57:54Z</time>
      </trkpt>
      <trkpt lat="48.62999" lon="-2.45069">
        <ele>29.2</ele>
        <time>2025-09-30T12:58:03Z</time>
      </trkpt>
      <trkpt lat="48.63004" lon="-2.45026">
        <ele>29.8</ele>
        <time>2025-09-30T12:58:09Z</time>
      </trkpt>
      <trkpt lat="48.63006" lon="-2.45012">
        <ele>30</ele>
        <time>2025-09-30T12:58:11Z</time>
      </trkpt>
      <trkpt lat="48.63013" lon="-2.44967">
        <ele>30.6</ele>
        <time>2025-09-30T12:58:19Z</time>
      </trkpt>
      <trkpt lat="48.63014" lon="-2.44963">
        <ele>30.8</ele>
        <time>2025-09-30T12:58:20Z</time>
      </trkpt>
      <trkpt lat="48.63015" lon="-2.44957">
        <ele>31</ele>
        <time>2025-09-30T12:58:22Z</time>
      </trkpt>
      <trkpt lat="48.63022" lon="-2.44943">
        <ele>31.2</ele>
        <time>2025-09-30T12:58:25Z</time>
      </trkpt>
      <trkpt lat="48.63031" lon="-2.44919">
        <ele>31.6</ele>
        <time>2025-09-30T12:58:30Z</time>
      </trkpt>
      <trkpt lat="48.63039" lon="-2.44897">
        <ele>32</ele>
        <time>2025-09-30T12:58:34Z</time>
      </trkpt>
      <trkpt lat="48.63051" lon="-2.4486">
        <ele>32.2</ele>
        <time>2025-09-30T12:58:40Z</time>
      </trkpt>
      <trkpt lat="48.63065" lon="-2.44813">
        <ele>32.4</ele>
        <time>2025-09-30T12:58:47Z</time>
      </trkpt>
      <trkpt lat="48.63068" lon="-2.44801">
        <ele>32.8</ele>
        <time>2025-09-30T12:58:49Z</time>
      </trkpt>
      <trkpt lat="48.63073" lon="-2.44773">
        <ele>33</ele>
        <time>2025-09-30T12:58:53Z</time>
      </trkpt>
      <trkpt lat="48.63079" lon="-2.44722">
        <ele>33.2</ele>
        <time>2025-09-30T12:59:00Z</time>
      </trkpt>
      <trkpt lat="48.63089" lon="-2.44637">
        <ele>34</ele>
        <time>2025-09-30T12:59:12Z</time>
      </trkpt>
      <trkpt lat="48.63089" lon="-2.44629">
        <ele>34</ele>
        <time>2025-09-30T12:59:13Z</time>
      </trkpt>
      <trkpt lat="48.63098" lon="-2.44565">
        <ele>35</ele>
        <time>2025-09-30T12:59:22Z</time>
      </trkpt>
      <trkpt lat="48.63098" lon="-2.44557">
        <ele>35.2</ele>
        <time>2025-09-30T12:59:23Z</time>
      </trkpt>
      <trkpt lat="48.63104" lon="-2.44517">
        <ele>36.4</ele>
        <time>2025-09-30T12:59:29Z</time>
      </trkpt>
      <trkpt lat="48.63106" lon="-2.44501">
        <ele>37</ele>
        <time>2025-09-30T12:59:32Z</time>
      </trkpt>
      <trkpt lat="48.63108" lon="-2.44482">
        <ele>37.4</ele>
        <time>2025-09-30T12:59:36Z</time>
      </trkpt>
      <trkpt lat="48.63113" lon="-2.44435">
        <ele>38.6</ele>
        <time>2025-09-30T12:59:43Z</time>
      </trkpt>
      <trkpt lat="48.63115" lon="-2.44421">
        <ele>39</ele>
        <time>2025-09-30T12:59:45Z</time>
      </trkpt>
      <trkpt lat="48.63118" lon="-2.44395">
        <ele>39.6</ele>
        <time>2025-09-30T12:59:49Z</time>
      </trkpt>
      <trkpt lat="48.63122" lon="-2.44368">
        <ele>40.2</ele>
        <time>2025-09-30T12:59:54Z</time>
      </trkpt>
      <trkpt lat="48.63122" lon="-2.44367">
        <ele>40</ele>
        <time>2025-09-30T12:59:57Z</time>
      </trkpt>
      <trkpt lat="48.63123" lon="-2.44355">
        <ele>40.4</ele>
        <time>2025-09-30T13:00:08Z</time>
      </trkpt>
      <trkpt lat="48.63126" lon="-2.44332">
        <ele>40.8</ele>
        <time>2025-09-30T13:00:12Z</time>
      </trkpt>
      <trkpt lat="48.63133" lon="-2.44283">
        <ele>41.4</ele>
        <time>2025-09-30T13:00:19Z</time>
      </trkpt>
      <trkpt lat="48.63138" lon="-2.44232">
        <ele>41.8</ele>
        <time>2025-09-30T13:00:26Z</time>
      </trkpt>
      <trkpt lat="48.6314" lon="-2.44219">
        <ele>41.8</ele>
        <time>2025-09-30T13:00:28Z</time>
      </trkpt>
      <trkpt lat="48.6315" lon="-2.44138">
        <ele>42.4</ele>
        <time>2025-09-30T13:00:39Z</time>
      </trkpt>
      <trkpt lat="48.63153" lon="-2.4411">
        <ele>42.8</ele>
        <time>2025-09-30T13:00:43Z</time>
      </trkpt>
      <trkpt lat="48.63159" lon="-2.4407">
        <ele>43.6</ele>
        <time>2025-09-30T13:00:49Z</time>
      </trkpt>
      <trkpt lat="48.6316" lon="-2.44057">
        <ele>43.6</ele>
        <time>2025-09-30T13:00:51Z</time>
      </trkpt>
      <trkpt lat="48.63163" lon="-2.44031">
        <ele>43.8</ele>
        <time>2025-09-30T13:00:55Z</time>
      </trkpt>
      <trkpt lat="48.63164" lon="-2.44023">
        <ele>44</ele>
        <time>2025-09-30T13:00:56Z</time>
      </trkpt>
      <trkpt lat="48.6317" lon="-2.43971">
        <ele>44.6</ele>
        <time>2025-09-30T13:01:04Z</time>
      </trkpt>
      <trkpt lat="48.63173" lon="-2.43952">
        <ele>45</ele>
        <time>2025-09-30T13:01:07Z</time>
      </trkpt>
      <trkpt lat="48.63177" lon="-2.43912">
        <ele>44.6</ele>
        <time>2025-09-30T13:01:13Z</time>
      </trkpt>
      <trkpt lat="48.63185" lon="-2.43855">
        <ele>43.8</ele>
        <time>2025-09-30T13:01:21Z</time>
      </trkpt>
      <trkpt lat="48.63191" lon="-2.43798">
        <ele>43.2</ele>
        <time>2025-09-30T13:01:29Z</time>
      </trkpt>
      <trkpt lat="48.63192" lon="-2.43785">
        <ele>43</ele>
        <time>2025-09-30T13:01:31Z</time>
      </trkpt>
      <trkpt lat="48.63196" lon="-2.43752">
        <ele>42.8</ele>
        <time>2025-09-30T13:01:36Z</time>
      </trkpt>
      <trkpt lat="48.63196" lon="-2.43744">
        <ele>42.8</ele>
        <time>2025-09-30T13:01:37Z</time>
      </trkpt>
      <trkpt lat="48.63198" lon="-2.43732">
        <ele>42.8</ele>
        <time>2025-09-30T13:01:39Z</time>
      </trkpt>
      <trkpt lat="48.63201" lon="-2.43717">
        <ele>42.6</ele>
        <time>2025-09-30T13:01:41Z</time>
      </trkpt>
      <trkpt lat="48.6321" lon="-2.43656">
        <ele>42.2</ele>
        <time>2025-09-30T13:01:49Z</time>
      </trkpt>
      <trkpt lat="48.63214" lon="-2.43622">
        <ele>42</ele>
        <time>2025-09-30T13:01:55Z</time>
      </trkpt>
      <trkpt lat="48.63217" lon="-2.43601">
        <ele>41.6</ele>
        <time>2025-09-30T13:01:59Z</time>
      </trkpt>
      <trkpt lat="48.63219" lon="-2.43586">
        <ele>41.4</ele>
        <time>2025-09-30T13:02:02Z</time>
      </trkpt>
      <trkpt lat="48.63222" lon="-2.43552">
        <ele>40.6</ele>
        <time>2025-09-30T13:02:09Z</time>
      </trkpt>
      <trkpt lat="48.63224" lon="-2.43545">
        <ele>40.4</ele>
        <time>2025-09-30T13:02:11Z</time>
      </trkpt>
      <trkpt lat="48.63226" lon="-2.43526">
        <ele>40</ele>
        <time>2025-09-30T13:02:15Z</time>
      </trkpt>
      <trkpt lat="48.6323" lon="-2.43491">
        <ele>39.8</ele>
        <time>2025-09-30T13:02:21Z</time>
      </trkpt>
      <trkpt lat="48.63234" lon="-2.43456">
        <ele>39.4</ele>
        <time>2025-09-30T13:02:26Z</time>
      </trkpt>
      <trkpt lat="48.63235" lon="-2.43444">
        <ele>39.2</ele>
        <time>2025-09-30T13:02:28Z</time>
      </trkpt>
      <trkpt lat="48.63243" lon="-2.43384">
        <ele>39.2</ele>
        <time>2025-09-30T13:02:37Z</time>
      </trkpt>
      <trkpt lat="48.63244" lon="-2.43378">
        <ele>39.2</ele>
        <time>2025-09-30T13:02:38Z</time>
      </trkpt>
      <trkpt lat="48.63245" lon="-2.43367">
        <ele>38.8</ele>
        <time>2025-09-30T13:02:40Z</time>
      </trkpt>
      <trkpt lat="48.63247" lon="-2.43355">
        <ele>38.6</ele>
        <time>2025-09-30T13:02:43Z</time>
      </trkpt>
      <trkpt lat="48.63249" lon="-2.43339">
        <ele>38.4</ele>
        <time>2025-09-30T13:02:46Z</time>
      </trkpt>
      <trkpt lat="48.6325" lon="-2.43334">
        <ele>38.4</ele>
        <time>2025-09-30T13:02:47Z</time>
      </trkpt>
      <trkpt lat="48.63255" lon="-2.43315">
        <ele>38.2</ele>
        <time>2025-09-30T13:02:50Z</time>
      </trkpt>
      <trkpt lat="48.63263" lon="-2.4329">
        <ele>37.6</ele>
        <time>2025-09-30T13:02:54Z</time>
      </trkpt>
      <trkpt lat="48.63269" lon="-2.43277">
        <ele>37.4</ele>
        <time>2025-09-30T13:02:56Z</time>
      </trkpt>
      <trkpt lat="48.63283" lon="-2.43252">
        <ele>36.6</ele>
        <time>2025-09-30T13:03:00Z</time>
      </trkpt>
      <trkpt lat="48.63286" lon="-2.43247">
        <ele>36.2</ele>
        <time>2025-09-30T13:03:01Z</time>
      </trkpt>
      <trkpt lat="48.63313" lon="-2.43206">
        <ele>35</ele>
        <time>2025-09-30T13:03:07Z</time>
      </trkpt>
      <trkpt lat="48.63326" lon="-2.43183">
        <ele>34.2</ele>
        <time>2025-09-30T13:03:10Z</time>
      </trkpt>
      <trkpt lat="48.63334" lon="-2.43166">
        <ele>33.8</ele>
        <time>2025-09-30T13:03:12Z</time>
      </trkpt>
      <trkpt lat="48.63338" lon="-2.43155">
        <ele>33.6</ele>
        <time>2025-09-30T13:03:13Z</time>
      </trkpt>
      <trkpt lat="48.63346" lon="-2.43125">
        <ele>33.2</ele>
        <time>2025-09-30T13:03:16Z</time>
      </trkpt>
      <trkpt lat="48.63349" lon="-2.43106">
        <ele>32.6</ele>
        <time>2025-09-30T13:03:18Z</time>
      </trkpt>
      <trkpt lat="48.6335" lon="-2.43095">
        <ele>32.4</ele>
        <time>2025-09-30T13:03:19Z</time>
      </trkpt>
      <trkpt lat="48.63352" lon="-2.43047">
        <ele>31.6</ele>
        <time>2025-09-30T13:03:23Z</time>
      </trkpt>
      <trkpt lat="48.63351" lon="-2.43039">
        <ele>31.6</ele>
        <time>2025-09-30T13:03:24Z</time>
      </trkpt>
      <trkpt lat="48.63349" lon="-2.43026">
        <ele>31.2</ele>
        <time>2025-09-30T13:03:25Z</time>
      </trkpt>
      <trkpt lat="48.63345" lon="-2.43006">
        <ele>30.6</ele>
        <time>2025-09-30T13:03:27Z</time>
      </trkpt>
      <trkpt lat="48.63341" lon="-2.42982">
        <ele>30</ele>
        <time>2025-09-30T13:03:29Z</time>
      </trkpt>
      <trkpt lat="48.63337" lon="-2.42963">
        <ele>29.6</ele>
        <time>2025-09-30T13:03:31Z</time>
      </trkpt>
      <trkpt lat="48.63335" lon="-2.42951">
        <ele>29.2</ele>
        <time>2025-09-30T13:03:32Z</time>
      </trkpt>
      <trkpt lat="48.63329" lon="-2.42914">
        <ele>28</ele>
        <time>2025-09-30T13:03:35Z</time>
      </trkpt>
      <trkpt lat="48.63327" lon="-2.42853">
        <ele>27</ele>
        <time>2025-09-30T13:03:40Z</time>
      </trkpt>
      <trkpt lat="48.63327" lon="-2.42841">
        <ele>26.8</ele>
        <time>2025-09-30T13:03:41Z</time>
      </trkpt>
      <trkpt lat="48.6333" lon="-2.42792">
        <ele>25.8</ele>
        <time>2025-09-30T13:03:45Z</time>
      </trkpt>
      <trkpt lat="48.63333" lon="-2.4277">
        <ele>25.4</ele>
        <time>2025-09-30T13:03:47Z</time>
      </trkpt>
      <trkpt lat="48.63336" lon="-2.42744">
        <ele>24.6</ele>
        <time>2025-09-30T13:03:49Z</time>
      </trkpt>
      <trkpt lat="48.63336" lon="-2.42733">
        <ele>24.2</ele>
        <time>2025-09-30T13:03:50Z</time>
      </trkpt>
      <trkpt lat="48.63335" lon="-2.42711">
        <ele>23.4</ele>
        <time>2025-09-30T13:03:52Z</time>
      </trkpt>
      <trkpt lat="48.63334" lon="-2.42702">
        <ele>23</ele>
        <time>2025-09-30T13:03:53Z</time>
      </trkpt>
      <trkpt lat="48.6333" lon="-2.4268">
        <ele>22.8</ele>
        <time>2025-09-30T13:03:55Z</time>
      </trkpt>
      <trkpt lat="48.63323" lon="-2.42656">
        <ele>22</ele>
        <time>2025-09-30T13:03:57Z</time>
      </trkpt>
      <trkpt lat="48.6332" lon="-2.42646">
        <ele>21.6</ele>
        <time>2025-09-30T13:03:58Z</time>
      </trkpt>
      <trkpt lat="48.63308" lon="-2.42617">
        <ele>21</ele>
        <time>2025-09-30T13:04:01Z</time>
      </trkpt>
      <trkpt lat="48.633" lon="-2.42598">
        <ele>20.6</ele>
        <time>2025-09-30T13:04:03Z</time>
      </trkpt>
      <trkpt lat="48.6329" lon="-2.4258">
        <ele>20</ele>
        <time>2025-09-30T13:04:05Z</time>
      </trkpt>
      <trkpt lat="48.63286" lon="-2.42571">
        <ele>19.4</ele>
        <time>2025-09-30T13:04:06Z</time>
      </trkpt>
      <trkpt lat="48.63277" lon="-2.42553">
        <ele>19</ele>
        <time>2025-09-30T13:04:08Z</time>
      </trkpt>
      <trkpt lat="48.63267" lon="-2.42523">
        <ele>18.6</ele>
        <time>2025-09-30T13:04:11Z</time>
      </trkpt>
      <trkpt lat="48.63266" lon="-2.42514">
        <ele>18</ele>
        <time>2025-09-30T13:04:12Z</time>
      </trkpt>
      <trkpt lat="48.63264" lon="-2.42501">
        <ele>17.8</ele>
        <time>2025-09-30T13:04:13Z</time>
      </trkpt>
      <trkpt lat="48.63264" lon="-2.4248">
        <ele>17.6</ele>
        <time>2025-09-30T13:04:15Z</time>
      </trkpt>
      <trkpt lat="48.63265" lon="-2.42444">
        <ele>17</ele>
        <time>2025-09-30T13:04:18Z</time>
      </trkpt>
      <trkpt lat="48.63266" lon="-2.42433">
        <ele>17</ele>
        <time>2025-09-30T13:04:19Z</time>
      </trkpt>
      <trkpt lat="48.63271" lon="-2.42415">
        <ele>16.6</ele>
        <time>2025-09-30T13:04:21Z</time>
      </trkpt>
      <trkpt lat="48.63278" lon="-2.42395">
        <ele>16.4</ele>
        <time>2025-09-30T13:04:23Z</time>
      </trkpt>
      <trkpt lat="48.63282" lon="-2.42386">
        <ele>16</ele>
        <time>2025-09-30T13:04:24Z</time>
      </trkpt>
      <trkpt lat="48.63291" lon="-2.42369">
        <ele>15.6</ele>
        <time>2025-09-30T13:04:26Z</time>
      </trkpt>
      <trkpt lat="48.63305" lon="-2.42344">
        <ele>15</ele>
        <time>2025-09-30T13:04:29Z</time>
      </trkpt>
      <trkpt lat="48.63314" lon="-2.42326">
        <ele>14.4</ele>
        <time>2025-09-30T13:04:31Z</time>
      </trkpt>
      <trkpt lat="48.63323" lon="-2.4231">
        <ele>13.8</ele>
        <time>2025-09-30T13:04:33Z</time>
      </trkpt>
      <trkpt lat="48.63342" lon="-2.42276">
        <ele>12.6</ele>
        <time>2025-09-30T13:04:37Z</time>
      </trkpt>
      <trkpt lat="48.63351" lon="-2.4226">
        <ele>12.4</ele>
        <time>2025-09-30T13:04:39Z</time>
      </trkpt>
      <trkpt lat="48.63358" lon="-2.42243">
        <ele>11.2</ele>
        <time>2025-09-30T13:04:41Z</time>
      </trkpt>
      <trkpt lat="48.63361" lon="-2.42236">
        <ele>11</ele>
        <time>2025-09-30T13:04:42Z</time>
      </trkpt>
      <trkpt lat="48.63363" lon="-2.42229">
        <ele>11</ele>
        <time>2025-09-30T13:04:43Z</time>
      </trkpt>
      <trkpt lat="48.63368" lon="-2.42215">
        <ele>10.8</ele>
        <time>2025-09-30T13:04:45Z</time>
      </trkpt>
      <trkpt lat="48.63371" lon="-2.42193">
        <ele>10</ele>
        <time>2025-09-30T13:04:48Z</time>
      </trkpt>
      <trkpt lat="48.63372" lon="-2.42182">
        <ele>9.6</ele>
        <time>2025-09-30T13:04:49Z</time>
      </trkpt>
      <trkpt lat="48.63374" lon="-2.42158">
        <ele>9</ele>
        <time>2025-09-30T13:04:52Z</time>
      </trkpt>
      <trkpt lat="48.63374" lon="-2.42149">
        <ele>8.8</ele>
        <time>2025-09-30T13:04:53Z</time>
      </trkpt>
      <trkpt lat="48.63374" lon="-2.42142">
        <ele>8.6</ele>
        <time>2025-09-30T13:04:54Z</time>
      </trkpt>
      <trkpt lat="48.63374" lon="-2.42127">
        <ele>8.2</ele>
        <time>2025-09-30T13:04:56Z</time>
      </trkpt>
      <trkpt lat="48.63373" lon="-2.42119">
        <ele>8.2</ele>
        <time>2025-09-30T13:04:57Z</time>
      </trkpt>
      <trkpt lat="48.63371" lon="-2.42104">
        <ele>7.8</ele>
        <time>2025-09-30T13:04:59Z</time>
      </trkpt>
      <trkpt lat="48.63367" lon="-2.42087">
        <ele>7.4</ele>
        <time>2025-09-30T13:05:01Z</time>
      </trkpt>
      <trkpt lat="48.63363" lon="-2.42069">
        <ele>7.2</ele>
        <time>2025-09-30T13:05:03Z</time>
      </trkpt>
      <trkpt lat="48.63357" lon="-2.42053">
        <ele>6.6</ele>
        <time>2025-09-30T13:05:05Z</time>
      </trkpt>
      <trkpt lat="48.63344" lon="-2.42014">
        <ele>6</ele>
        <time>2025-09-30T13:05:10Z</time>
      </trkpt>
      <trkpt lat="48.63339" lon="-2.41999">
        <ele>5.4</ele>
        <time>2025-09-30T13:05:12Z</time>
      </trkpt>
      <trkpt lat="48.63326" lon="-2.41956">
        <ele>4.4</ele>
        <time>2025-09-30T13:05:17Z</time>
      </trkpt>
      <trkpt lat="48.63323" lon="-2.41945">
        <ele>4.4</ele>
        <time>2025-09-30T13:05:18Z</time>
      </trkpt>
      <trkpt lat="48.63321" lon="-2.41938">
        <ele>4.2</ele>
        <time>2025-09-30T13:05:19Z</time>
      </trkpt>
      <trkpt lat="48.63303" lon="-2.41883">
        <ele>3.2</ele>
        <time>2025-09-30T13:05:25Z</time>
      </trkpt>
      <trkpt lat="48.63292" lon="-2.41848">
        <ele>2.2</ele>
        <time>2025-09-30T13:05:29Z</time>
      </trkpt>
      <trkpt lat="48.63288" lon="-2.41836">
        <ele>2</ele>
        <time>2025-09-30T13:05:30Z</time>
      </trkpt>
      <trkpt lat="48.6328" lon="-2.4181">
        <ele>1</ele>
        <time>2025-09-30T13:05:33Z</time>
      </trkpt>
      <trkpt lat="48.63271" lon="-2.41778">
        <ele>0.39999999999998</ele>
        <time>2025-09-30T13:05:37Z</time>
      </trkpt>
      <trkpt lat="48.63255" lon="-2.41729">
        <ele>0.39999999999998</ele>
        <time>2025-09-30T13:05:44Z</time>
      </trkpt>
      <trkpt lat="48.63253" lon="-2.41721">
        <ele>0.39999999999998</ele>
        <time>2025-09-30T13:05:45Z</time>
      </trkpt>
      <trkpt lat="48.63239" lon="-2.41675">
        <ele>0.60000000000002</ele>
        <time>2025-09-30T13:05:52Z</time>
      </trkpt>
      <trkpt lat="48.63235" lon="-2.41664">
        <ele>0.60000000000002</ele>
        <time>2025-09-30T13:05:54Z</time>
      </trkpt>
      <trkpt lat="48.63226" lon="-2.41635">
        <ele>2</ele>
        <time>2025-09-30T13:06:00Z</time>
      </trkpt>
      <trkpt lat="48.63225" lon="-2.41631">
        <ele>2</ele>
        <time>2025-09-30T13:06:01Z</time>
      </trkpt>
      <trkpt lat="48.63218" lon="-2.41602">
        <ele>2.2</ele>
        <time>2025-09-30T13:06:06Z</time>
      </trkpt>
      <trkpt lat="48.63212" lon="-2.41562">
        <ele>1.8</ele>
        <time>2025-09-30T13:06:11Z</time>
      </trkpt>
      <trkpt lat="48.63205" lon="-2.4151">
        <ele>1</ele>
        <time>2025-09-30T13:06:17Z</time>
      </trkpt>
      <trkpt lat="48.63204" lon="-2.41501">
        <ele>1</ele>
        <time>2025-09-30T13:06:18Z</time>
      </trkpt>
      <trkpt lat="48.632" lon="-2.41461">
        <ele>0.80000000000001</ele>
        <time>2025-09-30T13:06:23Z</time>
      </trkpt>
      <trkpt lat="48.632" lon="-2.41441">
        <ele>0.39999999999998</ele>
        <time>2025-09-30T13:06:26Z</time>
      </trkpt>
      <trkpt lat="48.63199" lon="-2.41431">
        <ele>0.39999999999998</ele>
        <time>2025-09-30T13:06:28Z</time>
      </trkpt>
      <trkpt lat="48.63197" lon="-2.41425">
        <ele>0.19999999999999</ele>
        <time>2025-09-30T13:06:30Z</time>
      </trkpt>
      <trkpt lat="48.63197" lon="-2.41421">
        <ele>0.39999999999998</ele>
        <time>2025-09-30T13:06:31Z</time>
      </trkpt>
      <trkpt lat="48.632" lon="-2.41405">
        <ele>0.19999999999999</ele>
        <time>2025-09-30T13:06:34Z</time>
      </trkpt>
      <trkpt lat="48.632" lon="-2.41373">
        <ele>0.39999999999998</ele>
        <time>2025-09-30T13:06:40Z</time>
      </trkpt>
      <trkpt lat="48.632" lon="-2.4135">
        <ele>0.60000000000002</ele>
        <time>2025-09-30T13:06:45Z</time>
      </trkpt>
      <trkpt lat="48.63206" lon="-2.41327">
        <ele>1.4</ele>
        <time>2025-09-30T13:06:49Z</time>
      </trkpt>
      <trkpt lat="48.63208" lon="-2.41321">
        <ele>1.4</ele>
        <time>2025-09-30T13:06:50Z</time>
      </trkpt>
      <trkpt lat="48.6321" lon="-2.41314">
        <ele>1.8</ele>
        <time>2025-09-30T13:06:51Z</time>
      </trkpt>
      <trkpt lat="48.63219" lon="-2.41282">
        <ele>1.6</ele>
        <time>2025-09-30T13:06:56Z</time>
      </trkpt>
      <trkpt lat="48.63219" lon="-2.41252">
        <ele>1.4</ele>
        <time>2025-09-30T13:07:01Z</time>
      </trkpt>
      <trkpt lat="48.63225" lon="-2.41237">
        <ele>1.2</ele>
        <time>2025-09-30T13:07:05Z</time>
      </trkpt>
      <trkpt lat="48.63253" lon="-2.412">
        <ele>1.6</ele>
        <time>2025-09-30T13:07:14Z</time>
      </trkpt>
      <trkpt lat="48.63268" lon="-2.41184">
        <ele>1.6</ele>
        <time>2025-09-30T13:07:18Z</time>
      </trkpt>
      <trkpt lat="48.63278" lon="-2.41173">
        <ele>1.4</ele>
        <time>2025-09-30T13:07:21Z</time>
      </trkpt>
      <trkpt lat="48.63281" lon="-2.41171">
        <ele>1.4</ele>
        <time>2025-09-30T13:07:22Z</time>
      </trkpt>
      <trkpt lat="48.63291" lon="-2.41165">
        <ele>1.6</ele>
        <time>2025-09-30T13:07:26Z</time>
      </trkpt>
      <trkpt lat="48.63302" lon="-2.4117">
        <ele>1.4</ele>
        <time>2025-09-30T13:07:29Z</time>
      </trkpt>
      <trkpt lat="48.63307" lon="-2.41171">
        <ele>1.4</ele>
        <time>2025-09-30T13:07:30Z</time>
      </trkpt>
      <trkpt lat="48.63312" lon="-2.41171">
        <ele>1.4</ele>
        <time>2025-09-30T13:07:31Z</time>
      </trkpt>
      <trkpt lat="48.63328" lon="-2.41168">
        <ele>0.80000000000001</ele>
        <time>2025-09-30T13:07:34Z</time>
      </trkpt>
      <trkpt lat="48.63351" lon="-2.41159">
        <ele>0.39999999999998</ele>
        <time>2025-09-30T13:07:39Z</time>
      </trkpt>
      <trkpt lat="48.63372" lon="-2.4115">
        <ele>0.19999999999999</ele>
        <time>2025-09-30T13:07:44Z</time>
      </trkpt>
      <trkpt lat="48.63381" lon="-2.41151">
        <ele>0.19999999999999</ele>
        <time>2025-09-30T13:07:46Z</time>
      </trkpt>
      <trkpt lat="48.63392" lon="-2.41154">
        <ele>-0.39999999999998</ele>
        <time>2025-09-30T13:07:48Z</time>
      </trkpt>
      <trkpt lat="48.63402" lon="-2.4115">
        <ele>-1</ele>
        <time>2025-09-30T13:07:50Z</time>
      </trkpt>
      <trkpt lat="48.63411" lon="-2.41138">
        <ele>-1</ele>
        <time>2025-09-30T13:07:52Z</time>
      </trkpt>
      <trkpt lat="48.63423" lon="-2.41122">
        <ele>-1.2</ele>
        <time>2025-09-30T13:07:55Z</time>
      </trkpt>
      <trkpt lat="48.63442" lon="-2.41099">
        <ele>-0.80000000000001</ele>
        <time>2025-09-30T13:08:00Z</time>
      </trkpt>
      <trkpt lat="48.63447" lon="-2.41088">
        <ele>-0.80000000000001</ele>
        <time>2025-09-30T13:08:02Z</time>
      </trkpt>
      <trkpt lat="48.63446" lon="-2.4107">
        <ele>-0.60000000000002</ele>
        <time>2025-09-30T13:08:05Z</time>
      </trkpt>
      <trkpt lat="48.63438" lon="-2.41036">
        <ele>-0.60000000000002</ele>
        <time>2025-09-30T13:08:11Z</time>
      </trkpt>
      <trkpt lat="48.63439" lon="-2.41031">
        <ele>-0.60000000000002</ele>
        <time>2025-09-30T13:08:12Z</time>
      </trkpt>
      <trkpt lat="48.6344" lon="-2.41028">
        <ele>0.19999999999999</ele>
        <time>2025-09-30T13:08:13Z</time>
      </trkpt>
      <trkpt lat="48.63446" lon="-2.41023">
        <ele>0.80000000000001</ele>
        <time>2025-09-30T13:08:16Z</time>
      </trkpt>
      <trkpt lat="48.63454" lon="-2.41021">
        <ele>1</ele>
        <time>2025-09-30T13:08:19Z</time>
      </trkpt>
      <trkpt lat="48.63457" lon="-2.41023">
        <ele>1</ele>
        <time>2025-09-30T13:08:20Z</time>
      </trkpt>
      <trkpt lat="48.63472" lon="-2.41034">
        <ele>0.80000000000001</ele>
        <time>2025-09-30T13:08:25Z</time>
      </trkpt>
      <trkpt lat="48.63482" lon="-2.41026">
        <ele>0.60000000000002</ele>
        <time>2025-09-30T13:08:28Z</time>
      </trkpt>
      <trkpt lat="48.63496" lon="-2.41002">
        <ele>0.39999999999998</ele>
        <time>2025-09-30T13:08:33Z</time>
      </trkpt>
      <trkpt lat="48.63522" lon="-2.40958">
        <ele>0.39999999999998</ele>
        <time>2025-09-30T13:08:41Z</time>
      </trkpt>
      <trkpt lat="48.63552" lon="-2.40912">
        <ele>0.39999999999998</ele>
        <time>2025-09-30T13:08:50Z</time>
      </trkpt>
      <trkpt lat="48.63563" lon="-2.40899">
        <ele>0.39999999999998</ele>
        <time>2025-09-30T13:08:53Z</time>
      </trkpt>
      <trkpt lat="48.63576" lon="-2.40884">
        <ele>0.19999999999999</ele>
        <time>2025-09-30T13:08:57Z</time>
      </trkpt>
      <trkpt lat="48.63586" lon="-2.40876">
        <ele>0.19999999999999</ele>
        <time>2025-09-30T13:09:00Z</time>
      </trkpt>
      <trkpt lat="48.63593" lon="-2.40873">
        <ele>0.39999999999998</ele>
        <time>2025-09-30T13:09:02Z</time>
      </trkpt>
      <trkpt lat="48.63597" lon="-2.40872">
        <ele>0.39999999999998</ele>
        <time>2025-09-30T13:09:03Z</time>
      </trkpt>
      <trkpt lat="48.636" lon="-2.40873">
        <ele>0.39999999999998</ele>
        <time>2025-09-30T13:09:04Z</time>
      </trkpt>
      <trkpt lat="48.63608" lon="-2.40878">
        <ele>0.19999999999999</ele>
        <time>2025-09-30T13:09:06Z</time>
      </trkpt>
      <trkpt lat="48.63636" lon="-2.40903">
        <ele>0.19999999999999</ele>
        <time>2025-09-30T13:09:13Z</time>
      </trkpt>
      <trkpt lat="48.63652" lon="-2.40916">
        <ele>0.19999999999999</ele>
        <time>2025-09-30T13:09:17Z</time>
      </trkpt>
      <trkpt lat="48.63667" lon="-2.40924">
        <ele>0.19999999999999</ele>
        <time>2025-09-30T13:09:21Z</time>
      </trkpt>
      <trkpt lat="48.63673" lon="-2.40926">
        <ele>0.19999999999999</ele>
        <time>2025-09-30T13:09:23Z</time>
      </trkpt>
      <trkpt lat="48.63679" lon="-2.40922">
        <ele>0.19999999999999</ele>
        <time>2025-09-30T13:09:25Z</time>
      </trkpt>
      <trkpt lat="48.63698" lon="-2.40897">
        <ele>0.60000000000002</ele>
        <time>2025-09-30T13:09:31Z</time>
      </trkpt>
      <trkpt lat="48.63706" lon="-2.40888">
        <ele>1</ele>
        <time>2025-09-30T13:09:33Z</time>
      </trkpt>
      <trkpt lat="48.63732" lon="-2.40853">
        <ele>1.4</ele>
        <time>2025-09-30T13:09:40Z</time>
      </trkpt>
      <trkpt lat="48.6377" lon="-2.40802">
        <ele>2</ele>
        <time>2025-09-30T13:09:50Z</time>
      </trkpt>
      <trkpt lat="48.63793" lon="-2.40774">
        <ele>2.6</ele>
        <time>2025-09-30T13:09:56Z</time>
      </trkpt>
      <trkpt lat="48.63799" lon="-2.40766">
        <ele>2.8</ele>
        <time>2025-09-30T13:09:58Z</time>
      </trkpt>
      <trkpt lat="48.63811" lon="-2.40749">
        <ele>3.2</ele>
        <time>2025-09-30T13:10:01Z</time>
      </trkpt>
      <trkpt lat="48.63821" lon="-2.40736">
        <ele>3.8</ele>
        <time>2025-09-30T13:10:04Z</time>
      </trkpt>
      <trkpt lat="48.63823" lon="-2.40732">
        <ele>3.8</ele>
        <time>2025-09-30T13:10:05Z</time>
      </trkpt>
      <trkpt lat="48.63824" lon="-2.40727">
        <ele>3.8</ele>
        <time>2025-09-30T13:10:06Z</time>
      </trkpt>
      <trkpt lat="48.63822" lon="-2.40718">
        <ele>4</ele>
        <time>2025-09-30T13:10:08Z</time>
      </trkpt>
      <trkpt lat="48.63807" lon="-2.40706">
        <ele>4</ele>
        <time>2025-09-30T13:10:12Z</time>
      </trkpt>
      <trkpt lat="48.63784" lon="-2.40692">
        <ele>3.6</ele>
        <time>2025-09-30T13:10:17Z</time>
      </trkpt>
      <trkpt lat="48.6378" lon="-2.40689">
        <ele>3.6</ele>
        <time>2025-09-30T13:10:18Z</time>
      </trkpt>
      <trkpt lat="48.63762" lon="-2.40678">
        <ele>3.2</ele>
        <time>2025-09-30T13:10:23Z</time>
      </trkpt>
      <trkpt lat="48.63759" lon="-2.40674">
        <ele>3.2</ele>
        <time>2025-09-30T13:10:24Z</time>
      </trkpt>
      <trkpt lat="48.63753" lon="-2.40652">
        <ele>3.2</ele>
        <time>2025-09-30T13:10:28Z</time>
      </trkpt>
      <trkpt lat="48.63753" lon="-2.40622">
        <ele>3.6</ele>
        <time>2025-09-30T13:10:33Z</time>
      </trkpt>
      <trkpt lat="48.63765" lon="-2.40556">
        <ele>4</ele>
        <time>2025-09-30T13:10:43Z</time>
      </trkpt>
      <trkpt lat="48.63767" lon="-2.4054">
        <ele>4.2</ele>
        <time>2025-09-30T13:10:45Z</time>
      </trkpt>
      <trkpt lat="48.63776" lon="-2.40492">
        <ele>4.8</ele>
        <time>2025-09-30T13:10:52Z</time>
      </trkpt>
      <trkpt lat="48.63785" lon="-2.40444">
        <ele>5.2</ele>
        <time>2025-09-30T13:10:59Z</time>
      </trkpt>
      <trkpt lat="48.63786" lon="-2.40437">
        <ele>5.2</ele>
        <time>2025-09-30T13:11:00Z</time>
      </trkpt>
      <trkpt lat="48.63785" lon="-2.40431">
        <ele>5.4</ele>
        <time>2025-09-30T13:11:01Z</time>
      </trkpt>
      <trkpt lat="48.63784" lon="-2.40425">
        <ele>5.6</ele>
        <time>2025-09-30T13:11:02Z</time>
      </trkpt>
      <trkpt lat="48.63775" lon="-2.40407">
        <ele>6.6</ele>
        <time>2025-09-30T13:11:06Z</time>
      </trkpt>
      <trkpt lat="48.63772" lon="-2.40402">
        <ele>6.8</ele>
        <time>2025-09-30T13:11:07Z</time>
      </trkpt>
      <trkpt lat="48.6377" lon="-2.40397">
        <ele>7</ele>
        <time>2025-09-30T13:11:08Z</time>
      </trkpt>
      <trkpt lat="48.63758" lon="-2.40374">
        <ele>8</ele>
        <time>2025-09-30T13:11:13Z</time>
      </trkpt>
      <trkpt lat="48.63753" lon="-2.40359">
        <ele>8.6</ele>
        <time>2025-09-30T13:11:16Z</time>
      </trkpt>
      <trkpt lat="48.6375" lon="-2.40348">
        <ele>9.2</ele>
        <time>2025-09-30T13:11:18Z</time>
      </trkpt>
      <trkpt lat="48.63746" lon="-2.40317">
        <ele>10.4</ele>
        <time>2025-09-30T13:11:24Z</time>
      </trkpt>
      <trkpt lat="48.63749" lon="-2.40287">
        <ele>10.8</ele>
        <time>2025-09-30T13:11:30Z</time>
      </trkpt>
      <trkpt lat="48.6376" lon="-2.4026">
        <ele>10.4</ele>
        <time>2025-09-30T13:11:35Z</time>
      </trkpt>
      <trkpt lat="48.63767" lon="-2.40248">
        <ele>9.4</ele>
        <time>2025-09-30T13:11:37Z</time>
      </trkpt>
      <trkpt lat="48.63774" lon="-2.40237">
        <ele>9</ele>
        <time>2025-09-30T13:11:39Z</time>
      </trkpt>
      <trkpt lat="48.63782" lon="-2.40229">
        <ele>8.2</ele>
        <time>2025-09-30T13:11:41Z</time>
      </trkpt>
      <trkpt lat="48.63801" lon="-2.40222">
        <ele>7.2</ele>
        <time>2025-09-30T13:11:45Z</time>
      </trkpt>
      <trkpt lat="48.6381" lon="-2.40219">
        <ele>7.2</ele>
        <time>2025-09-30T13:11:47Z</time>
      </trkpt>
      <trkpt lat="48.63842" lon="-2.40205">
        <ele>7</ele>
        <time>2025-09-30T13:11:55Z</time>
      </trkpt>
      <trkpt lat="48.63856" lon="-2.40199">
        <ele>7</ele>
        <time>2025-09-30T13:11:59Z</time>
      </trkpt>
      <trkpt lat="48.63865" lon="-2.40195">
        <ele>7.2</ele>
        <time>2025-09-30T13:12:01Z</time>
      </trkpt>
      <trkpt lat="48.63869" lon="-2.40192">
        <ele>7.2</ele>
        <time>2025-09-30T13:12:02Z</time>
      </trkpt>
      <trkpt lat="48.63894" lon="-2.40175">
        <ele>7.4</ele>
        <time>2025-09-30T13:12:08Z</time>
      </trkpt>
      <trkpt lat="48.63905" lon="-2.4016">
        <ele>7.4</ele>
        <time>2025-09-30T13:12:11Z</time>
      </trkpt>
      <trkpt lat="48.63909" lon="-2.4015">
        <ele>7.6</ele>
        <time>2025-09-30T13:12:13Z</time>
      </trkpt>
      <trkpt lat="48.63917" lon="-2.40127">
        <ele>7.8</ele>
        <time>2025-09-30T13:12:18Z</time>
      </trkpt>
      <trkpt lat="48.63929" lon="-2.40091">
        <ele>8.2</ele>
        <time>2025-09-30T13:12:24Z</time>
      </trkpt>
      <trkpt lat="48.63931" lon="-2.40085">
        <ele>8.4</ele>
        <time>2025-09-30T13:12:25Z</time>
      </trkpt>
      <trkpt lat="48.63933" lon="-2.40079">
        <ele>8.4</ele>
        <time>2025-09-30T13:12:26Z</time>
      </trkpt>
      <trkpt lat="48.63944" lon="-2.40053">
        <ele>9.6</ele>
        <time>2025-09-30T13:12:31Z</time>
      </trkpt>
      <trkpt lat="48.6395" lon="-2.40041">
        <ele>10.8</ele>
        <time>2025-09-30T13:12:34Z</time>
      </trkpt>
      <trkpt lat="48.63959" lon="-2.40029">
        <ele>12.2</ele>
        <time>2025-09-30T13:12:37Z</time>
      </trkpt>
      <trkpt lat="48.63966" lon="-2.40024">
        <ele>12.8</ele>
        <time>2025-09-30T13:12:39Z</time>
      </trkpt>
      <trkpt lat="48.63973" lon="-2.40018">
        <ele>13.2</ele>
        <time>2025-09-30T13:12:41Z</time>
      </trkpt>
      <trkpt lat="48.63984" lon="-2.40011">
        <ele>14.4</ele>
        <time>2025-09-30T13:12:44Z</time>
      </trkpt>
      <trkpt lat="48.63994" lon="-2.40006">
        <ele>15.4</ele>
        <time>2025-09-30T13:12:47Z</time>
      </trkpt>
      <trkpt lat="48.64014" lon="-2.39998">
        <ele>16.4</ele>
        <time>2025-09-30T13:12:53Z</time>
      </trkpt>
      <trkpt lat="48.64017" lon="-2.39996">
        <ele>16.4</ele>
        <time>2025-09-30T13:12:54Z</time>
      </trkpt>
      <trkpt lat="48.64024" lon="-2.39985">
        <ele>16.2</ele>
        <time>2025-09-30T13:12:57Z</time>
      </trkpt>
      <trkpt lat="48.64026" lon="-2.39976">
        <ele>16.2</ele>
        <time>2025-09-30T13:12:59Z</time>
      </trkpt>
      <trkpt lat="48.64024" lon="-2.39973">
        <ele>16.2</ele>
        <time>2025-09-30T13:13:00Z</time>
      </trkpt>
      <trkpt lat="48.64012" lon="-2.39961">
        <ele>16.8</ele>
        <time>2025-09-30T13:13:05Z</time>
      </trkpt>
      <trkpt lat="48.64007" lon="-2.39958">
        <ele>17.4</ele>
        <time>2025-09-30T13:13:07Z</time>
      </trkpt>
      <trkpt lat="48.64004" lon="-2.39958">
        <ele>17.6</ele>
        <time>2025-09-30T13:13:08Z</time>
      </trkpt>
      <trkpt lat="48.64002" lon="-2.39956">
        <ele>17.6</ele>
        <time>2025-09-30T13:13:09Z</time>
      </trkpt>
      <trkpt lat="48.63992" lon="-2.39951">
        <ele>18.6</ele>
        <time>2025-09-30T13:13:12Z</time>
      </trkpt>
      <trkpt lat="48.63979" lon="-2.39942">
        <ele>19.6</ele>
        <time>2025-09-30T13:13:16Z</time>
      </trkpt>
      <trkpt lat="48.63966" lon="-2.39933">
        <ele>21</ele>
        <time>2025-09-30T13:13:20Z</time>
      </trkpt>
      <trkpt lat="48.63955" lon="-2.39927">
        <ele>22.2</ele>
        <time>2025-09-30T13:13:23Z</time>
      </trkpt>
      <trkpt lat="48.63948" lon="-2.39924">
        <ele>22.6</ele>
        <time>2025-09-30T13:13:25Z</time>
      </trkpt>
      <trkpt lat="48.63937" lon="-2.39918">
        <ele>23.4</ele>
        <time>2025-09-30T13:13:28Z</time>
      </trkpt>
      <trkpt lat="48.63924" lon="-2.39909">
        <ele>24.8</ele>
        <time>2025-09-30T13:13:32Z</time>
      </trkpt>
      <trkpt lat="48.63921" lon="-2.39908">
        <ele>25</ele>
        <time>2025-09-30T13:13:33Z</time>
      </trkpt>
      <trkpt lat="48.63911" lon="-2.39901">
        <ele>26</ele>
        <time>2025-09-30T13:13:36Z</time>
      </trkpt>
      <trkpt lat="48.63898" lon="-2.39891">
        <ele>27.2</ele>
        <time>2025-09-30T13:13:40Z</time>
      </trkpt>
      <trkpt lat="48.63891" lon="-2.39881">
        <ele>28.2</ele>
        <time>2025-09-30T13:13:43Z</time>
      </trkpt>
      <trkpt lat="48.63889" lon="-2.39871">
        <ele>28.6</ele>
        <time>2025-09-30T13:13:45Z</time>
      </trkpt>
      <trkpt lat="48.63883" lon="-2.39824">
        <ele>28.4</ele>
        <time>2025-09-30T13:13:54Z</time>
      </trkpt>
      <trkpt lat="48.63881" lon="-2.39794">
        <ele>28.4</ele>
        <time>2025-09-30T13:14:00Z</time>
      </trkpt>
      <trkpt lat="48.63879" lon="-2.39781">
        <ele>28.4</ele>
        <time>2025-09-30T13:14:05Z</time>
      </trkpt>
      <trkpt lat="48.63879" lon="-2.39781">
        <ele>28.4</ele>
        <time>2025-09-30T13:14:12Z</time>
      </trkpt>
      <trkpt lat="48.6388" lon="-2.3978">
        <ele>28.4</ele>
        <time>2025-09-30T13:14:21Z</time>
      </trkpt>
      <trkpt lat="48.63882" lon="-2.39781">
        <ele>28.4</ele>
        <time>2025-09-30T13:14:23Z</time>
      </trkpt>
      <trkpt lat="48.63884" lon="-2.398">
        <ele>28.2</ele>
        <time>2025-09-30T13:14:27Z</time>
      </trkpt>
      <trkpt lat="48.63889" lon="-2.39847">
        <ele>28.2</ele>
        <time>2025-09-30T13:14:35Z</time>
      </trkpt>
      <trkpt lat="48.63894" lon="-2.39881">
        <ele>28.2</ele>
        <time>2025-09-30T13:14:43Z</time>
      </trkpt>
      <trkpt lat="48.63902" lon="-2.39892">
        <ele>28</ele>
        <time>2025-09-30T13:14:47Z</time>
      </trkpt>
      <trkpt lat="48.63905" lon="-2.39895">
        <ele>27.8</ele>
        <time>2025-09-30T13:14:48Z</time>
      </trkpt>
      <trkpt lat="48.63909" lon="-2.39898">
        <ele>27.6</ele>
        <time>2025-09-30T13:14:49Z</time>
      </trkpt>
      <trkpt lat="48.63915" lon="-2.39904">
        <ele>27.2</ele>
        <time>2025-09-30T13:14:51Z</time>
      </trkpt>
      <trkpt lat="48.63924" lon="-2.39912">
        <ele>26</ele>
        <time>2025-09-30T13:14:54Z</time>
      </trkpt>
      <trkpt lat="48.63932" lon="-2.39918">
        <ele>24.8</ele>
        <time>2025-09-30T13:14:57Z</time>
      </trkpt>
      <trkpt lat="48.63935" lon="-2.39921">
        <ele>24.4</ele>
        <time>2025-09-30T13:14:59Z</time>
      </trkpt>
      <trkpt lat="48.63937" lon="-2.39922">
        <ele>23.8</ele>
        <time>2025-09-30T13:15:01Z</time>
      </trkpt>
      <trkpt lat="48.63937" lon="-2.39922">
        <ele>23.6</ele>
        <time>2025-09-30T13:15:04Z</time>
      </trkpt>
      <trkpt lat="48.63937" lon="-2.39922">
        <ele>23.8</ele>
        <time>2025-09-30T13:15:08Z</time>
      </trkpt>
      <trkpt lat="48.63937" lon="-2.39922">
        <ele>23.8</ele>
        <time>2025-09-30T13:15:19Z</time>
      </trkpt>
      <trkpt lat="48.63937" lon="-2.39922">
        <ele>23.6</ele>
        <time>2025-09-30T13:15:45Z</time>
      </trkpt>
      <trkpt lat="48.63937" lon="-2.39922">
        <ele>23.6</ele>
        <time>2025-09-30T13:15:47Z</time>
      </trkpt>
      <trkpt lat="48.63937" lon="-2.39922">
        <ele>23.6</ele>
        <time>2025-09-30T13:15:57Z</time>
      </trkpt>
      <trkpt lat="48.63936" lon="-2.39922">
        <ele>23.8</ele>
        <time>2025-09-30T13:16:09Z</time>
      </trkpt>
      <trkpt lat="48.63937" lon="-2.39922">
        <ele>23.8</ele>
        <time>2025-09-30T13:16:26Z</time>
      </trkpt>
      <trkpt lat="48.63936" lon="-2.39921">
        <ele>23.8</ele>
        <time>2025-09-30T13:16:33Z</time>
      </trkpt>
      <trkpt lat="48.63934" lon="-2.39917">
        <ele>23.8</ele>
        <time>2025-09-30T13:16:37Z</time>
      </trkpt>
      <trkpt lat="48.63932" lon="-2.39915">
        <ele>23.8</ele>
        <time>2025-09-30T13:16:38Z</time>
      </trkpt>
      <trkpt lat="48.63917" lon="-2.39905">
        <ele>24.8</ele>
        <time>2025-09-30T13:16:43Z</time>
      </trkpt>
      <trkpt lat="48.63913" lon="-2.39902">
        <ele>25</ele>
        <time>2025-09-30T13:16:44Z</time>
      </trkpt>
      <trkpt lat="48.63894" lon="-2.39888">
        <ele>26.2</ele>
        <time>2025-09-30T13:16:50Z</time>
      </trkpt>
      <trkpt lat="48.6389" lon="-2.39881">
        <ele>27.4</ele>
        <time>2025-09-30T13:16:52Z</time>
      </trkpt>
      <trkpt lat="48.63888" lon="-2.39873">
        <ele>27.4</ele>
        <time>2025-09-30T13:16:54Z</time>
      </trkpt>
      <trkpt lat="48.63886" lon="-2.39839">
        <ele>27.4</ele>
        <time>2025-09-30T13:17:00Z</time>
      </trkpt>
      <trkpt lat="48.63884" lon="-2.39825">
        <ele>27.4</ele>
        <time>2025-09-30T13:17:02Z</time>
      </trkpt>
      <trkpt lat="48.63877" lon="-2.39761">
        <ele>27.8</ele>
        <time>2025-09-30T13:17:12Z</time>
      </trkpt>
      <trkpt lat="48.63874" lon="-2.39739">
        <ele>28.4</ele>
        <time>2025-09-30T13:17:16Z</time>
      </trkpt>
      <trkpt lat="48.63871" lon="-2.39724">
        <ele>29.2</ele>
        <time>2025-09-30T13:17:19Z</time>
      </trkpt>
      <trkpt lat="48.63869" lon="-2.39714">
        <ele>29.6</ele>
        <time>2025-09-30T13:17:21Z</time>
      </trkpt>
      <trkpt lat="48.63862" lon="-2.39682">
        <ele>30.6</ele>
        <time>2025-09-30T13:17:27Z</time>
      </trkpt>
      <trkpt lat="48.63857" lon="-2.39662">
        <ele>31.6</ele>
        <time>2025-09-30T13:17:31Z</time>
      </trkpt>
      <trkpt lat="48.63856" lon="-2.39645">
        <ele>32.2</ele>
        <time>2025-09-30T13:17:34Z</time>
      </trkpt>
      <trkpt lat="48.63861" lon="-2.39631">
        <ele>32.8</ele>
        <time>2025-09-30T13:17:37Z</time>
      </trkpt>
      <trkpt lat="48.63865" lon="-2.39622">
        <ele>33</ele>
        <time>2025-09-30T13:17:39Z</time>
      </trkpt>
      <trkpt lat="48.63884" lon="-2.39571">
        <ele>33.2</ele>
        <time>2025-09-30T13:17:49Z</time>
      </trkpt>
      <trkpt lat="48.63889" lon="-2.39522">
        <ele>34</ele>
        <time>2025-09-30T13:17:57Z</time>
      </trkpt>
      <trkpt lat="48.63891" lon="-2.39498">
        <ele>34</ele>
        <time>2025-09-30T13:18:02Z</time>
      </trkpt>
      <trkpt lat="48.63897" lon="-2.39484">
        <ele>34.2</ele>
        <time>2025-09-30T13:18:06Z</time>
      </trkpt>
      <trkpt lat="48.63918" lon="-2.39474">
        <ele>34.2</ele>
        <time>2025-09-30T13:18:12Z</time>
      </trkpt>
      <trkpt lat="48.63952" lon="-2.39461">
        <ele>33.4</ele>
        <time>2025-09-30T13:18:20Z</time>
      </trkpt>
      <trkpt lat="48.6397" lon="-2.39455">
        <ele>33</ele>
        <time>2025-09-30T13:18:24Z</time>
      </trkpt>
      <trkpt lat="48.63974" lon="-2.39453">
        <ele>33</ele>
        <time>2025-09-30T13:18:25Z</time>
      </trkpt>
      <trkpt lat="48.63979" lon="-2.39452">
        <ele>32.8</ele>
        <time>2025-09-30T13:18:26Z</time>
      </trkpt>
      <trkpt lat="48.63988" lon="-2.39448">
        <ele>32.6</ele>
        <time>2025-09-30T13:18:28Z</time>
      </trkpt>
      <trkpt lat="48.64002" lon="-2.39443">
        <ele>32.4</ele>
        <time>2025-09-30T13:18:31Z</time>
      </trkpt>
      <trkpt lat="48.6401" lon="-2.39437">
        <ele>31.8</ele>
        <time>2025-09-30T13:18:33Z</time>
      </trkpt>
      <trkpt lat="48.64014" lon="-2.39433">
        <ele>31.6</ele>
        <time>2025-09-30T13:18:34Z</time>
      </trkpt>
      <trkpt lat="48.64017" lon="-2.39427">
        <ele>31.4</ele>
        <time>2025-09-30T13:18:35Z</time>
      </trkpt>
      <trkpt lat="48.6402" lon="-2.39421">
        <ele>31.4</ele>
        <time>2025-09-30T13:18:36Z</time>
      </trkpt>
      <trkpt lat="48.64037" lon="-2.39379">
        <ele>30.6</ele>
        <time>2025-09-30T13:18:42Z</time>
      </trkpt>
      <trkpt lat="48.6404" lon="-2.39373">
        <ele>30.4</ele>
        <time>2025-09-30T13:18:43Z</time>
      </trkpt>
      <trkpt lat="48.64048" lon="-2.39356">
        <ele>29.8</ele>
        <time>2025-09-30T13:18:45Z</time>
      </trkpt>
      <trkpt lat="48.64052" lon="-2.39348">
        <ele>29.6</ele>
        <time>2025-09-30T13:18:46Z</time>
      </trkpt>
      <trkpt lat="48.64063" lon="-2.39318">
        <ele>28.4</ele>
        <time>2025-09-30T13:18:49Z</time>
      </trkpt>
      <trkpt lat="48.64067" lon="-2.39308">
        <ele>27.8</ele>
        <time>2025-09-30T13:18:50Z</time>
      </trkpt>
      <trkpt lat="48.64071" lon="-2.39297">
        <ele>27.4</ele>
        <time>2025-09-30T13:18:51Z</time>
      </trkpt>
      <trkpt lat="48.64085" lon="-2.39263">
        <ele>26.4</ele>
        <time>2025-09-30T13:18:55Z</time>
      </trkpt>
      <trkpt lat="48.64093" lon="-2.39243">
        <ele>28.8</ele>
        <time>2025-09-30T13:18:58Z</time>
      </trkpt>
      <trkpt lat="48.64102" lon="-2.39224">
        <ele>29.6</ele>
        <time>2025-09-30T13:19:01Z</time>
      </trkpt>
      <trkpt lat="48.64105" lon="-2.39217">
        <ele>30.2</ele>
        <time>2025-09-30T13:19:02Z</time>
      </trkpt>
      <trkpt lat="48.64114" lon="-2.39199">
        <ele>31.4</ele>
        <time>2025-09-30T13:19:05Z</time>
      </trkpt>
      <trkpt lat="48.64126" lon="-2.39174">
        <ele>32.6</ele>
        <time>2025-09-30T13:19:09Z</time>
      </trkpt>
      <trkpt lat="48.64132" lon="-2.39162">
        <ele>32.8</ele>
        <time>2025-09-30T13:19:11Z</time>
      </trkpt>
      <trkpt lat="48.64138" lon="-2.3915">
        <ele>33.8</ele>
        <time>2025-09-30T13:19:13Z</time>
      </trkpt>
      <trkpt lat="48.64144" lon="-2.39138">
        <ele>34.8</ele>
        <time>2025-09-30T13:19:15Z</time>
      </trkpt>
      <trkpt lat="48.64154" lon="-2.39121">
        <ele>36</ele>
        <time>2025-09-30T13:19:18Z</time>
      </trkpt>
      <trkpt lat="48.6416" lon="-2.39109">
        <ele>36.4</ele>
        <time>2025-09-30T13:19:20Z</time>
      </trkpt>
      <trkpt lat="48.64163" lon="-2.39103">
        <ele>36.6</ele>
        <time>2025-09-30T13:19:21Z</time>
      </trkpt>
      <trkpt lat="48.64166" lon="-2.39097">
        <ele>37.2</ele>
        <time>2025-09-30T13:19:22Z</time>
      </trkpt>
      <trkpt lat="48.64179" lon="-2.39073">
        <ele>37.6</ele>
        <time>2025-09-30T13:19:26Z</time>
      </trkpt>
      <trkpt lat="48.64192" lon="-2.39051">
        <ele>37.8</ele>
        <time>2025-09-30T13:19:30Z</time>
      </trkpt>
      <trkpt lat="48.64198" lon="-2.3904">
        <ele>38</ele>
        <time>2025-09-30T13:19:32Z</time>
      </trkpt>
      <trkpt lat="48.64223" lon="-2.38998">
        <ele>38.2</ele>
        <time>2025-09-30T13:19:40Z</time>
      </trkpt>
      <trkpt lat="48.64228" lon="-2.38987">
        <ele>38.4</ele>
        <time>2025-09-30T13:19:42Z</time>
      </trkpt>
      <trkpt lat="48.64245" lon="-2.38956">
        <ele>38.8</ele>
        <time>2025-09-30T13:19:48Z</time>
      </trkpt>
      <trkpt lat="48.64272" lon="-2.3891">
        <ele>39</ele>
        <time>2025-09-30T13:19:58Z</time>
      </trkpt>
      <trkpt lat="48.64279" lon="-2.38897">
        <ele>39.2</ele>
        <time>2025-09-30T13:20:01Z</time>
      </trkpt>
      <trkpt lat="48.64287" lon="-2.38879">
        <ele>39.6</ele>
        <time>2025-09-30T13:20:05Z</time>
      </trkpt>
      <trkpt lat="48.64284" lon="-2.38866">
        <ele>39.8</ele>
        <time>2025-09-30T13:20:08Z</time>
      </trkpt>
      <trkpt lat="48.64275" lon="-2.38855">
        <ele>40.2</ele>
        <time>2025-09-30T13:20:11Z</time>
      </trkpt>
      <trkpt lat="48.64268" lon="-2.38848">
        <ele>40.2</ele>
        <time>2025-09-30T13:20:13Z</time>
      </trkpt>
      <trkpt lat="48.64265" lon="-2.38844">
        <ele>40.4</ele>
        <time>2025-09-30T13:20:14Z</time>
      </trkpt>
      <trkpt lat="48.64243" lon="-2.3882">
        <ele>41</ele>
        <time>2025-09-30T13:20:21Z</time>
      </trkpt>
      <trkpt lat="48.64237" lon="-2.38812">
        <ele>41</ele>
        <time>2025-09-30T13:20:23Z</time>
      </trkpt>
      <trkpt lat="48.64204" lon="-2.38776">
        <ele>41.2</ele>
        <time>2025-09-30T13:20:31Z</time>
      </trkpt>
      <trkpt lat="48.64167" lon="-2.38729">
        <ele>41</ele>
        <time>2025-09-30T13:20:41Z</time>
      </trkpt>
      <trkpt lat="48.6413" lon="-2.38681">
        <ele>40.8</ele>
        <time>2025-09-30T13:20:50Z</time>
      </trkpt>
      <trkpt lat="48.64097" lon="-2.38639">
        <ele>41</ele>
        <time>2025-09-30T13:20:58Z</time>
      </trkpt>
      <trkpt lat="48.64063" lon="-2.38587">
        <ele>40.8</ele>
        <time>2025-09-30T13:21:07Z</time>
      </trkpt>
      <trkpt lat="48.64031" lon="-2.38534">
        <ele>40.6</ele>
        <time>2025-09-30T13:21:16Z</time>
      </trkpt>
      <trkpt lat="48.64022" lon="-2.38518">
        <ele>40.2</ele>
        <time>2025-09-30T13:21:19Z</time>
      </trkpt>
      <trkpt lat="48.6402" lon="-2.38505">
        <ele>40.4</ele>
        <time>2025-09-30T13:21:21Z</time>
      </trkpt>
      <trkpt lat="48.64028" lon="-2.38461">
        <ele>40.2</ele>
        <time>2025-09-30T13:21:27Z</time>
      </trkpt>
      <trkpt lat="48.64028" lon="-2.3843">
        <ele>40.2</ele>
        <time>2025-09-30T13:21:31Z</time>
      </trkpt>
      <trkpt lat="48.64027" lon="-2.38423">
        <ele>40.4</ele>
        <time>2025-09-30T13:21:32Z</time>
      </trkpt>
      <trkpt lat="48.64026" lon="-2.38415">
        <ele>40.4</ele>
        <time>2025-09-30T13:21:33Z</time>
      </trkpt>
      <trkpt lat="48.64021" lon="-2.38403">
        <ele>40.4</ele>
        <time>2025-09-30T13:21:35Z</time>
      </trkpt>
      <trkpt lat="48.64018" lon="-2.38398">
        <ele>40.2</ele>
        <time>2025-09-30T13:21:36Z</time>
      </trkpt>
      <trkpt lat="48.64014" lon="-2.38395">
        <ele>40</ele>
        <time>2025-09-30T13:21:37Z</time>
      </trkpt>
      <trkpt lat="48.64006" lon="-2.38385">
        <ele>39.8</ele>
        <time>2025-09-30T13:21:39Z</time>
      </trkpt>
      <trkpt lat="48.64003" lon="-2.3838">
        <ele>39.8</ele>
        <time>2025-09-30T13:21:40Z</time>
      </trkpt>
      <trkpt lat="48.64" lon="-2.38371">
        <ele>39.8</ele>
        <time>2025-09-30T13:21:41Z</time>
      </trkpt>
      <trkpt lat="48.63999" lon="-2.38347">
        <ele>39.6</ele>
        <time>2025-09-30T13:21:44Z</time>
      </trkpt>
      <trkpt lat="48.63999" lon="-2.38339">
        <ele>39.4</ele>
        <time>2025-09-30T13:21:45Z</time>
      </trkpt>
      <trkpt lat="48.63999" lon="-2.38322">
        <ele>39.4</ele>
        <time>2025-09-30T13:21:47Z</time>
      </trkpt>
      <trkpt lat="48.64" lon="-2.38296">
        <ele>39.2</ele>
        <time>2025-09-30T13:21:50Z</time>
      </trkpt>
      <trkpt lat="48.64" lon="-2.38287">
        <ele>39.2</ele>
        <time>2025-09-30T13:21:51Z</time>
      </trkpt>
      <trkpt lat="48.63998" lon="-2.38261">
        <ele>39.2</ele>
        <time>2025-09-30T13:21:54Z</time>
      </trkpt>
      <trkpt lat="48.63996" lon="-2.38243">
        <ele>39</ele>
        <time>2025-09-30T13:21:56Z</time>
      </trkpt>
      <trkpt lat="48.63993" lon="-2.38218">
        <ele>39</ele>
        <time>2025-09-30T13:21:59Z</time>
      </trkpt>
      <trkpt lat="48.63988" lon="-2.3815">
        <ele>38.8</ele>
        <time>2025-09-30T13:22:07Z</time>
      </trkpt>
      <trkpt lat="48.63996" lon="-2.38076">
        <ele>39.2</ele>
        <time>2025-09-30T13:22:16Z</time>
      </trkpt>
      <trkpt lat="48.64015" lon="-2.38004">
        <ele>39.6</ele>
        <time>2025-09-30T13:22:25Z</time>
      </trkpt>
      <trkpt lat="48.64039" lon="-2.37946">
        <ele>39.6</ele>
        <time>2025-09-30T13:22:33Z</time>
      </trkpt>
      <trkpt lat="48.64062" lon="-2.37887">
        <ele>39.4</ele>
        <time>2025-09-30T13:22:41Z</time>
      </trkpt>
      <trkpt lat="48.64086" lon="-2.3781">
        <ele>39</ele>
        <time>2025-09-30T13:22:51Z</time>
      </trkpt>
      <trkpt lat="48.64104" lon="-2.3775">
        <ele>38.6</ele>
        <time>2025-09-30T13:22:59Z</time>
      </trkpt>
      <trkpt lat="48.64105" lon="-2.37744">
        <ele>38.6</ele>
        <time>2025-09-30T13:23:00Z</time>
      </trkpt>
      <trkpt lat="48.64104" lon="-2.37731">
        <ele>38.6</ele>
        <time>2025-09-30T13:23:02Z</time>
      </trkpt>
      <trkpt lat="48.64089" lon="-2.37712">
        <ele>38.8</ele>
        <time>2025-09-30T13:23:06Z</time>
      </trkpt>
      <trkpt lat="48.64059" lon="-2.37676">
        <ele>39.2</ele>
        <time>2025-09-30T13:23:13Z</time>
      </trkpt>
      <trkpt lat="48.64055" lon="-2.3767">
        <ele>39.2</ele>
        <time>2025-09-30T13:23:14Z</time>
      </trkpt>
      <trkpt lat="48.64038" lon="-2.3765">
        <ele>39</ele>
        <time>2025-09-30T13:23:18Z</time>
      </trkpt>
      <trkpt lat="48.64035" lon="-2.37638">
        <ele>39</ele>
        <time>2025-09-30T13:23:20Z</time>
      </trkpt>
      <trkpt lat="48.64038" lon="-2.37626">
        <ele>39.4</ele>
        <time>2025-09-30T13:23:22Z</time>
      </trkpt>
      <trkpt lat="48.64041" lon="-2.3762">
        <ele>39.4</ele>
        <time>2025-09-30T13:23:23Z</time>
      </trkpt>
      <trkpt lat="48.64065" lon="-2.37586">
        <ele>40.6</ele>
        <time>2025-09-30T13:23:29Z</time>
      </trkpt>
      <trkpt lat="48.64106" lon="-2.37544">
        <ele>41.2</ele>
        <time>2025-09-30T13:23:38Z</time>
      </trkpt>
      <trkpt lat="48.6413" lon="-2.37512">
        <ele>40</ele>
        <time>2025-09-30T13:23:43Z</time>
      </trkpt>
      <trkpt lat="48.6415" lon="-2.37488">
        <ele>39.8</ele>
        <time>2025-09-30T13:23:47Z</time>
      </trkpt>
      <trkpt lat="48.64161" lon="-2.3748">
        <ele>39.8</ele>
        <time>2025-09-30T13:23:49Z</time>
      </trkpt>
      <trkpt lat="48.64173" lon="-2.37477">
        <ele>39.6</ele>
        <time>2025-09-30T13:23:51Z</time>
      </trkpt>
      <trkpt lat="48.64184" lon="-2.37475">
        <ele>39.6</ele>
        <time>2025-09-30T13:23:53Z</time>
      </trkpt>
      <trkpt lat="48.6419" lon="-2.37475">
        <ele>39.6</ele>
        <time>2025-09-30T13:23:54Z</time>
      </trkpt>
      <trkpt lat="48.64243" lon="-2.37474">
        <ele>38.4</ele>
        <time>2025-09-30T13:24:03Z</time>
      </trkpt>
      <trkpt lat="48.64249" lon="-2.37474">
        <ele>38.2</ele>
        <time>2025-09-30T13:24:04Z</time>
      </trkpt>
      <trkpt lat="48.64297" lon="-2.37469">
        <ele>37.4</ele>
        <time>2025-09-30T13:24:12Z</time>
      </trkpt>
      <trkpt lat="48.64303" lon="-2.37467">
        <ele>37.4</ele>
        <time>2025-09-30T13:24:13Z</time>
      </trkpt>
      <trkpt lat="48.64333" lon="-2.37445">
        <ele>37.2</ele>
        <time>2025-09-30T13:24:19Z</time>
      </trkpt>
      <trkpt lat="48.64382" lon="-2.37409">
        <ele>36.4</ele>
        <time>2025-09-30T13:24:28Z</time>
      </trkpt>
      <trkpt lat="48.64388" lon="-2.37405">
        <ele>35.8</ele>
        <time>2025-09-30T13:24:29Z</time>
      </trkpt>
      <trkpt lat="48.64407" lon="-2.37394">
        <ele>34.6</ele>
        <time>2025-09-30T13:24:32Z</time>
      </trkpt>
      <trkpt lat="48.6443" lon="-2.37377">
        <ele>34.2</ele>
        <time>2025-09-30T13:24:36Z</time>
      </trkpt>
      <trkpt lat="48.64453" lon="-2.37359">
        <ele>33.2</ele>
        <time>2025-09-30T13:24:40Z</time>
      </trkpt>
      <trkpt lat="48.64478" lon="-2.37339">
        <ele>32</ele>
        <time>2025-09-30T13:24:44Z</time>
      </trkpt>
      <trkpt lat="48.64509" lon="-2.37315">
        <ele>30.6</ele>
        <time>2025-09-30T13:24:49Z</time>
      </trkpt>
      <trkpt lat="48.64522" lon="-2.37305">
        <ele>30.2</ele>
        <time>2025-09-30T13:24:51Z</time>
      </trkpt>
      <trkpt lat="48.64528" lon="-2.37299">
        <ele>30.2</ele>
        <time>2025-09-30T13:24:52Z</time>
      </trkpt>
      <trkpt lat="48.64541" lon="-2.37289">
        <ele>29.6</ele>
        <time>2025-09-30T13:24:54Z</time>
      </trkpt>
      <trkpt lat="48.64558" lon="-2.37274">
        <ele>29.4</ele>
        <time>2025-09-30T13:24:57Z</time>
      </trkpt>
      <trkpt lat="48.64567" lon="-2.37267">
        <ele>29.8</ele>
        <time>2025-09-30T13:24:59Z</time>
      </trkpt>
      <trkpt lat="48.64575" lon="-2.37261">
        <ele>30.6</ele>
        <time>2025-09-30T13:25:01Z</time>
      </trkpt>
      <trkpt lat="48.64592" lon="-2.37248">
        <ele>31.8</ele>
        <time>2025-09-30T13:25:05Z</time>
      </trkpt>
      <trkpt lat="48.646" lon="-2.37241">
        <ele>32.6</ele>
        <time>2025-09-30T13:25:07Z</time>
      </trkpt>
      <trkpt lat="48.64604" lon="-2.37238">
        <ele>33</ele>
        <time>2025-09-30T13:25:08Z</time>
      </trkpt>
      <trkpt lat="48.64616" lon="-2.37229">
        <ele>34</ele>
        <time>2025-09-30T13:25:11Z</time>
      </trkpt>
      <trkpt lat="48.64628" lon="-2.37221">
        <ele>35.2</ele>
        <time>2025-09-30T13:25:14Z</time>
      </trkpt>
      <trkpt lat="48.64643" lon="-2.37208">
        <ele>36.4</ele>
        <time>2025-09-30T13:25:18Z</time>
      </trkpt>
      <trkpt lat="48.64647" lon="-2.37206">
        <ele>37</ele>
        <time>2025-09-30T13:25:19Z</time>
      </trkpt>
      <trkpt lat="48.6465" lon="-2.37203">
        <ele>37.4</ele>
        <time>2025-09-30T13:25:20Z</time>
      </trkpt>
      <trkpt lat="48.64658" lon="-2.37198">
        <ele>38.6</ele>
        <time>2025-09-30T13:25:22Z</time>
      </trkpt>
      <trkpt lat="48.64669" lon="-2.3719">
        <ele>39.6</ele>
        <time>2025-09-30T13:25:25Z</time>
      </trkpt>
      <trkpt lat="48.64682" lon="-2.37185">
        <ele>41</ele>
        <time>2025-09-30T13:25:28Z</time>
      </trkpt>
      <trkpt lat="48.64695" lon="-2.37182">
        <ele>42.2</ele>
        <time>2025-09-30T13:25:31Z</time>
      </trkpt>
      <trkpt lat="48.64709" lon="-2.37177">
        <ele>42.2</ele>
        <time>2025-09-30T13:25:34Z</time>
      </trkpt>
      <trkpt lat="48.64714" lon="-2.37174">
        <ele>42.2</ele>
        <time>2025-09-30T13:25:35Z</time>
      </trkpt>
      <trkpt lat="48.64719" lon="-2.37169">
        <ele>42</ele>
        <time>2025-09-30T13:25:36Z</time>
      </trkpt>
      <trkpt lat="48.64727" lon="-2.37156">
        <ele>41.4</ele>
        <time>2025-09-30T13:25:38Z</time>
      </trkpt>
      <trkpt lat="48.64731" lon="-2.37149">
        <ele>41.2</ele>
        <time>2025-09-30T13:25:39Z</time>
      </trkpt>
      <trkpt lat="48.64734" lon="-2.37141">
        <ele>40.8</ele>
        <time>2025-09-30T13:25:40Z</time>
      </trkpt>
      <trkpt lat="48.64748" lon="-2.37107">
        <ele>39.6</ele>
        <time>2025-09-30T13:25:44Z</time>
      </trkpt>
      <trkpt lat="48.64752" lon="-2.37098">
        <ele>39.2</ele>
        <time>2025-09-30T13:25:45Z</time>
      </trkpt>
      <trkpt lat="48.64755" lon="-2.37089">
        <ele>38.6</ele>
        <time>2025-09-30T13:25:46Z</time>
      </trkpt>
      <trkpt lat="48.64766" lon="-2.37058">
        <ele>37.4</ele>
        <time>2025-09-30T13:25:49Z</time>
      </trkpt>
      <trkpt lat="48.64778" lon="-2.37028">
        <ele>36.8</ele>
        <time>2025-09-30T13:25:52Z</time>
      </trkpt>
      <trkpt lat="48.64782" lon="-2.37018">
        <ele>36</ele>
        <time>2025-09-30T13:25:53Z</time>
      </trkpt>
      <trkpt lat="48.6479" lon="-2.36997">
        <ele>35</ele>
        <time>2025-09-30T13:25:55Z</time>
      </trkpt>
      <trkpt lat="48.64806" lon="-2.36955">
        <ele>33.6</ele>
        <time>2025-09-30T13:25:59Z</time>
      </trkpt>
      <trkpt lat="48.64814" lon="-2.36937">
        <ele>32.6</ele>
        <time>2025-09-30T13:26:01Z</time>
      </trkpt>
      <trkpt lat="48.64817" lon="-2.36929">
        <ele>31.4</ele>
        <time>2025-09-30T13:26:02Z</time>
      </trkpt>
      <trkpt lat="48.64826" lon="-2.36916">
        <ele>31</ele>
        <time>2025-09-30T13:26:04Z</time>
      </trkpt>
      <trkpt lat="48.64831" lon="-2.36911">
        <ele>31</ele>
        <time>2025-09-30T13:26:05Z</time>
      </trkpt>
      <trkpt lat="48.64856" lon="-2.36893">
        <ele>31.8</ele>
        <time>2025-09-30T13:26:10Z</time>
      </trkpt>
      <trkpt lat="48.6487" lon="-2.36885">
        <ele>32.8</ele>
        <time>2025-09-30T13:26:13Z</time>
      </trkpt>
      <trkpt lat="48.64878" lon="-2.36879">
        <ele>34</ele>
        <time>2025-09-30T13:26:15Z</time>
      </trkpt>
      <trkpt lat="48.64887" lon="-2.36873">
        <ele>35</ele>
        <time>2025-09-30T13:26:17Z</time>
      </trkpt>
      <trkpt lat="48.64891" lon="-2.3687">
        <ele>35.6</ele>
        <time>2025-09-30T13:26:18Z</time>
      </trkpt>
      <trkpt lat="48.64898" lon="-2.36864">
        <ele>36.6</ele>
        <time>2025-09-30T13:26:20Z</time>
      </trkpt>
      <trkpt lat="48.64905" lon="-2.36857">
        <ele>37.8</ele>
        <time>2025-09-30T13:26:22Z</time>
      </trkpt>
      <trkpt lat="48.64916" lon="-2.36847">
        <ele>38.8</ele>
        <time>2025-09-30T13:26:25Z</time>
      </trkpt>
      <trkpt lat="48.64927" lon="-2.36836">
        <ele>39.4</ele>
        <time>2025-09-30T13:26:28Z</time>
      </trkpt>
      <trkpt lat="48.64937" lon="-2.36825">
        <ele>40</ele>
        <time>2025-09-30T13:26:31Z</time>
      </trkpt>
      <trkpt lat="48.64945" lon="-2.36818">
        <ele>40.4</ele>
        <time>2025-09-30T13:26:33Z</time>
      </trkpt>
      <trkpt lat="48.64956" lon="-2.36808">
        <ele>41.4</ele>
        <time>2025-09-30T13:26:36Z</time>
      </trkpt>
      <trkpt lat="48.6497" lon="-2.36794">
        <ele>42.6</ele>
        <time>2025-09-30T13:26:40Z</time>
      </trkpt>
      <trkpt lat="48.6498" lon="-2.36782">
        <ele>43.6</ele>
        <time>2025-09-30T13:26:43Z</time>
      </trkpt>
      <trkpt lat="48.64983" lon="-2.36779">
        <ele>44</ele>
        <time>2025-09-30T13:26:44Z</time>
      </trkpt>
      <trkpt lat="48.6499" lon="-2.36771">
        <ele>45</ele>
        <time>2025-09-30T13:26:46Z</time>
      </trkpt>
      <trkpt lat="48.64999" lon="-2.3676">
        <ele>46.2</ele>
        <time>2025-09-30T13:26:49Z</time>
      </trkpt>
      <trkpt lat="48.6501" lon="-2.36743">
        <ele>47.4</ele>
        <time>2025-09-30T13:26:53Z</time>
      </trkpt>
      <trkpt lat="48.6502" lon="-2.36724">
        <ele>48.8</ele>
        <time>2025-09-30T13:26:57Z</time>
      </trkpt>
      <trkpt lat="48.65032" lon="-2.36699">
        <ele>49.6</ele>
        <time>2025-09-30T13:27:02Z</time>
      </trkpt>
      <trkpt lat="48.65036" lon="-2.36689">
        <ele>49.6</ele>
        <time>2025-09-30T13:27:04Z</time>
      </trkpt>
      <trkpt lat="48.65038" lon="-2.36684">
        <ele>49.8</ele>
        <time>2025-09-30T13:27:05Z</time>
      </trkpt>
      <trkpt lat="48.65046" lon="-2.36662">
        <ele>49.8</ele>
        <time>2025-09-30T13:27:09Z</time>
      </trkpt>
      <trkpt lat="48.65058" lon="-2.36621">
        <ele>49.4</ele>
        <time>2025-09-30T13:27:16Z</time>
      </trkpt>
      <trkpt lat="48.65059" lon="-2.36615">
        <ele>49.4</ele>
        <time>2025-09-30T13:27:17Z</time>
      </trkpt>
      <trkpt lat="48.65062" lon="-2.36581">
        <ele>49.2</ele>
        <time>2025-09-30T13:27:22Z</time>
      </trkpt>
      <trkpt lat="48.65063" lon="-2.36561">
        <ele>48.6</ele>
        <time>2025-09-30T13:27:26Z</time>
      </trkpt>
      <trkpt lat="48.65062" lon="-2.36557">
        <ele>48.4</ele>
        <time>2025-09-30T13:27:27Z</time>
      </trkpt>
      <trkpt lat="48.65061" lon="-2.36553">
        <ele>48.2</ele>
        <time>2025-09-30T13:27:28Z</time>
      </trkpt>
      <trkpt lat="48.65058" lon="-2.36549">
        <ele>48</ele>
        <time>2025-09-30T13:27:29Z</time>
      </trkpt>
      <trkpt lat="48.65053" lon="-2.36539">
        <ele>47.8</ele>
        <time>2025-09-30T13:27:31Z</time>
      </trkpt>
      <trkpt lat="48.65052" lon="-2.36533">
        <ele>47.8</ele>
        <time>2025-09-30T13:27:32Z</time>
      </trkpt>
      <trkpt lat="48.65053" lon="-2.36512">
        <ele>47.8</ele>
        <time>2025-09-30T13:27:35Z</time>
      </trkpt>
      <trkpt lat="48.65053" lon="-2.36443">
        <ele>47.6</ele>
        <time>2025-09-30T13:27:44Z</time>
      </trkpt>
      <trkpt lat="48.65054" lon="-2.36428">
        <ele>47.4</ele>
        <time>2025-09-30T13:27:46Z</time>
      </trkpt>
      <trkpt lat="48.65055" lon="-2.36349">
        <ele>47.4</ele>
        <time>2025-09-30T13:27:56Z</time>
      </trkpt>
      <trkpt lat="48.65055" lon="-2.36266">
        <ele>48.4</ele>
        <time>2025-09-30T13:28:07Z</time>
      </trkpt>
      <trkpt lat="48.65055" lon="-2.36258">
        <ele>48.4</ele>
        <time>2025-09-30T13:28:08Z</time>
      </trkpt>
      <trkpt lat="48.65055" lon="-2.36181">
        <ele>48.6</ele>
        <time>2025-09-30T13:28:18Z</time>
      </trkpt>
      <trkpt lat="48.65054" lon="-2.36128">
        <ele>48</ele>
        <time>2025-09-30T13:28:25Z</time>
      </trkpt>
      <trkpt lat="48.65053" lon="-2.3612">
        <ele>47.8</ele>
        <time>2025-09-30T13:28:26Z</time>
      </trkpt>
      <trkpt lat="48.6505" lon="-2.36113">
        <ele>47.6</ele>
        <time>2025-09-30T13:28:27Z</time>
      </trkpt>
      <trkpt lat="48.65047" lon="-2.36106">
        <ele>47.4</ele>
        <time>2025-09-30T13:28:28Z</time>
      </trkpt>
      <trkpt lat="48.65039" lon="-2.36094">
        <ele>47</ele>
        <time>2025-09-30T13:28:30Z</time>
      </trkpt>
      <trkpt lat="48.65016" lon="-2.36064">
        <ele>46.4</ele>
        <time>2025-09-30T13:28:35Z</time>
      </trkpt>
      <trkpt lat="48.65011" lon="-2.36057">
        <ele>46.2</ele>
        <time>2025-09-30T13:28:36Z</time>
      </trkpt>
      <trkpt lat="48.65" lon="-2.36043">
        <ele>45.4</ele>
        <time>2025-09-30T13:28:38Z</time>
      </trkpt>
      <trkpt lat="48.64982" lon="-2.3602">
        <ele>44.8</ele>
        <time>2025-09-30T13:28:41Z</time>
      </trkpt>
      <trkpt lat="48.64976" lon="-2.36012">
        <ele>44</ele>
        <time>2025-09-30T13:28:42Z</time>
      </trkpt>
      <trkpt lat="48.64962" lon="-2.35995">
        <ele>43</ele>
        <time>2025-09-30T13:28:44Z</time>
      </trkpt>
      <trkpt lat="48.64948" lon="-2.35977">
        <ele>41.4</ele>
        <time>2025-09-30T13:28:46Z</time>
      </trkpt>
      <trkpt lat="48.64932" lon="-2.35963">
        <ele>40.2</ele>
        <time>2025-09-30T13:28:48Z</time>
      </trkpt>
      <trkpt lat="48.64916" lon="-2.35952">
        <ele>38.4</ele>
        <time>2025-09-30T13:28:50Z</time>
      </trkpt>
      <trkpt lat="48.64908" lon="-2.35948">
        <ele>37</ele>
        <time>2025-09-30T13:28:51Z</time>
      </trkpt>
      <trkpt lat="48.64894" lon="-2.35941">
        <ele>36.4</ele>
        <time>2025-09-30T13:28:53Z</time>
      </trkpt>
      <trkpt lat="48.64884" lon="-2.35934">
        <ele>35.8</ele>
        <time>2025-09-30T13:28:55Z</time>
      </trkpt>
      <trkpt lat="48.64876" lon="-2.35927">
        <ele>34.6</ele>
        <time>2025-09-30T13:28:57Z</time>
      </trkpt>
      <trkpt lat="48.64868" lon="-2.35918">
        <ele>33.6</ele>
        <time>2025-09-30T13:29:01Z</time>
      </trkpt>
      <trkpt lat="48.64864" lon="-2.35914">
        <ele>33.6</ele>
        <time>2025-09-30T13:29:03Z</time>
      </trkpt>
      <trkpt lat="48.64862" lon="-2.35914">
        <ele>33.6</ele>
        <time>2025-09-30T13:29:04Z</time>
      </trkpt>
      <trkpt lat="48.6486" lon="-2.35916">
        <ele>33.6</ele>
        <time>2025-09-30T13:29:05Z</time>
      </trkpt>
      <trkpt lat="48.64856" lon="-2.35919">
        <ele>33.4</ele>
        <time>2025-09-30T13:29:07Z</time>
      </trkpt>
      <trkpt lat="48.64854" lon="-2.35917">
        <ele>33</ele>
        <time>2025-09-30T13:29:09Z</time>
      </trkpt>
      <trkpt lat="48.64855" lon="-2.35913">
        <ele>32.8</ele>
        <time>2025-09-30T13:29:11Z</time>
      </trkpt>
      <trkpt lat="48.64856" lon="-2.35914">
        <ele>32.8</ele>
        <time>2025-09-30T13:29:12Z</time>
      </trkpt>
      <trkpt lat="48.64858" lon="-2.35916">
        <ele>32.8</ele>
        <time>2025-09-30T13:29:15Z</time>
      </trkpt>
      <trkpt lat="48.64862" lon="-2.35915">
        <ele>33.2</ele>
        <time>2025-09-30T13:29:17Z</time>
      </trkpt>
      <trkpt lat="48.64875" lon="-2.35902">
        <ele>33.4</ele>
        <time>2025-09-30T13:29:22Z</time>
      </trkpt>
      <trkpt lat="48.64883" lon="-2.35889">
        <ele>33.4</ele>
        <time>2025-09-30T13:29:25Z</time>
      </trkpt>
      <trkpt lat="48.64891" lon="-2.35871">
        <ele>33</ele>
        <time>2025-09-30T13:29:28Z</time>
      </trkpt>
      <trkpt lat="48.64898" lon="-2.35849">
        <ele>32.4</ele>
        <time>2025-09-30T13:29:31Z</time>
      </trkpt>
      <trkpt lat="48.64905" lon="-2.35824">
        <ele>31.8</ele>
        <time>2025-09-30T13:29:34Z</time>
      </trkpt>
      <trkpt lat="48.64908" lon="-2.35815">
        <ele>31.4</ele>
        <time>2025-09-30T13:29:35Z</time>
      </trkpt>
      <trkpt lat="48.64918" lon="-2.35778">
        <ele>30.4</ele>
        <time>2025-09-30T13:29:39Z</time>
      </trkpt>
      <trkpt lat="48.64925" lon="-2.35749">
        <ele>29.8</ele>
        <time>2025-09-30T13:29:42Z</time>
      </trkpt>
      <trkpt lat="48.64933" lon="-2.35719">
        <ele>29.4</ele>
        <time>2025-09-30T13:29:45Z</time>
      </trkpt>
      <trkpt lat="48.64943" lon="-2.35678">
        <ele>28</ele>
        <time>2025-09-30T13:29:49Z</time>
      </trkpt>
      <trkpt lat="48.64946" lon="-2.35667">
        <ele>27.6</ele>
        <time>2025-09-30T13:29:50Z</time>
      </trkpt>
      <trkpt lat="48.64951" lon="-2.35646">
        <ele>26.8</ele>
        <time>2025-09-30T13:29:52Z</time>
      </trkpt>
      <trkpt lat="48.6496" lon="-2.35615">
        <ele>26.2</ele>
        <time>2025-09-30T13:29:55Z</time>
      </trkpt>
      <trkpt lat="48.64968" lon="-2.35585">
        <ele>25.8</ele>
        <time>2025-09-30T13:29:58Z</time>
      </trkpt>
      <trkpt lat="48.64981" lon="-2.35542">
        <ele>25.8</ele>
        <time>2025-09-30T13:30:03Z</time>
      </trkpt>
      <trkpt lat="48.64985" lon="-2.35534">
        <ele>25.6</ele>
        <time>2025-09-30T13:30:04Z</time>
      </trkpt>
      <trkpt lat="48.64999" lon="-2.35507">
        <ele>25.6</ele>
        <time>2025-09-30T13:30:08Z</time>
      </trkpt>
      <trkpt lat="48.65027" lon="-2.35475">
        <ele>25.4</ele>
        <time>2025-09-30T13:30:14Z</time>
      </trkpt>
      <trkpt lat="48.65042" lon="-2.35457">
        <ele>24.6</ele>
        <time>2025-09-30T13:30:17Z</time>
      </trkpt>
      <trkpt lat="48.65053" lon="-2.35434">
        <ele>24.2</ele>
        <time>2025-09-30T13:30:20Z</time>
      </trkpt>
      <trkpt lat="48.65056" lon="-2.35426">
        <ele>24</ele>
        <time>2025-09-30T13:30:21Z</time>
      </trkpt>
      <trkpt lat="48.65056" lon="-2.35408">
        <ele>24</ele>
        <time>2025-09-30T13:30:23Z</time>
      </trkpt>
      <trkpt lat="48.65045" lon="-2.35359">
        <ele>24.2</ele>
        <time>2025-09-30T13:30:29Z</time>
      </trkpt>
      <trkpt lat="48.65036" lon="-2.353">
        <ele>24.4</ele>
        <time>2025-09-30T13:30:36Z</time>
      </trkpt>
      <trkpt lat="48.65031" lon="-2.35253">
        <ele>24.4</ele>
        <time>2025-09-30T13:30:42Z</time>
      </trkpt>
      <trkpt lat="48.65034" lon="-2.35242">
        <ele>24.4</ele>
        <time>2025-09-30T13:30:44Z</time>
      </trkpt>
      <trkpt lat="48.65037" lon="-2.35239">
        <ele>24.4</ele>
        <time>2025-09-30T13:30:45Z</time>
      </trkpt>
      <trkpt lat="48.65041" lon="-2.35239">
        <ele>24.6</ele>
        <time>2025-09-30T13:30:46Z</time>
      </trkpt>
      <trkpt lat="48.65049" lon="-2.35241">
        <ele>24.8</ele>
        <time>2025-09-30T13:30:48Z</time>
      </trkpt>
      <trkpt lat="48.65054" lon="-2.35243">
        <ele>25</ele>
        <time>2025-09-30T13:30:49Z</time>
      </trkpt>
      <trkpt lat="48.65061" lon="-2.35248">
        <ele>25.6</ele>
        <time>2025-09-30T13:30:51Z</time>
      </trkpt>
      <trkpt lat="48.65077" lon="-2.35259">
        <ele>26.8</ele>
        <time>2025-09-30T13:30:55Z</time>
      </trkpt>
      <trkpt lat="48.65094" lon="-2.35268">
        <ele>27.6</ele>
        <time>2025-09-30T13:30:59Z</time>
      </trkpt>
      <trkpt lat="48.65098" lon="-2.3527">
        <ele>28</ele>
        <time>2025-09-30T13:31:00Z</time>
      </trkpt>
      <trkpt lat="48.65106" lon="-2.35273">
        <ele>28.6</ele>
        <time>2025-09-30T13:31:02Z</time>
      </trkpt>
      <trkpt lat="48.6511" lon="-2.35275">
        <ele>28.8</ele>
        <time>2025-09-30T13:31:03Z</time>
      </trkpt>
      <trkpt lat="48.65114" lon="-2.35276">
        <ele>29</ele>
        <time>2025-09-30T13:31:04Z</time>
      </trkpt>
      <trkpt lat="48.6514" lon="-2.35283">
        <ele>29.4</ele>
        <time>2025-09-30T13:31:10Z</time>
      </trkpt>
      <trkpt lat="48.65183" lon="-2.35296">
        <ele>28.4</ele>
        <time>2025-09-30T13:31:20Z</time>
      </trkpt>
      <trkpt lat="48.65202" lon="-2.35301">
        <ele>28</ele>
        <time>2025-09-30T13:31:24Z</time>
      </trkpt>
      <trkpt lat="48.65223" lon="-2.35308">
        <ele>27.4</ele>
        <time>2025-09-30T13:31:28Z</time>
      </trkpt>
      <trkpt lat="48.65234" lon="-2.35311">
        <ele>26.8</ele>
        <time>2025-09-30T13:31:30Z</time>
      </trkpt>
      <trkpt lat="48.65268" lon="-2.35317">
        <ele>25.8</ele>
        <time>2025-09-30T13:31:36Z</time>
      </trkpt>
      <trkpt lat="48.65274" lon="-2.35316">
        <ele>25.6</ele>
        <time>2025-09-30T13:31:37Z</time>
      </trkpt>
      <trkpt lat="48.65302" lon="-2.35309">
        <ele>24.6</ele>
        <time>2025-09-30T13:31:42Z</time>
      </trkpt>
      <trkpt lat="48.65307" lon="-2.35307">
        <ele>24.6</ele>
        <time>2025-09-30T13:31:43Z</time>
      </trkpt>
      <trkpt lat="48.65344" lon="-2.35295">
        <ele>24</ele>
        <time>2025-09-30T13:31:50Z</time>
      </trkpt>
      <trkpt lat="48.65354" lon="-2.35292">
        <ele>24</ele>
        <time>2025-09-30T13:31:52Z</time>
      </trkpt>
      <trkpt lat="48.6537" lon="-2.35288">
        <ele>23.6</ele>
        <time>2025-09-30T13:31:55Z</time>
      </trkpt>
      <trkpt lat="48.65407" lon="-2.35275">
        <ele>22.4</ele>
        <time>2025-09-30T13:32:02Z</time>
      </trkpt>
      <trkpt lat="48.65413" lon="-2.35273">
        <ele>22</ele>
        <time>2025-09-30T13:32:03Z</time>
      </trkpt>
      <trkpt lat="48.65431" lon="-2.35263">
        <ele>20.8</ele>
        <time>2025-09-30T13:32:06Z</time>
      </trkpt>
      <trkpt lat="48.65444" lon="-2.35255">
        <ele>18.8</ele>
        <time>2025-09-30T13:32:08Z</time>
      </trkpt>
      <trkpt lat="48.65456" lon="-2.35248">
        <ele>17.8</ele>
        <time>2025-09-30T13:32:10Z</time>
      </trkpt>
      <trkpt lat="48.65466" lon="-2.35242">
        <ele>16.6</ele>
        <time>2025-09-30T13:32:12Z</time>
      </trkpt>
      <trkpt lat="48.6547" lon="-2.3524">
        <ele>16.2</ele>
        <time>2025-09-30T13:32:13Z</time>
      </trkpt>
      <trkpt lat="48.65489" lon="-2.35231">
        <ele>15.8</ele>
        <time>2025-09-30T13:32:18Z</time>
      </trkpt>
      <trkpt lat="48.65498" lon="-2.35227">
        <ele>15.6</ele>
        <time>2025-09-30T13:32:20Z</time>
      </trkpt>
      <trkpt lat="48.65505" lon="-2.35219">
        <ele>15.8</ele>
        <time>2025-09-30T13:32:22Z</time>
      </trkpt>
      <trkpt lat="48.65533" lon="-2.35198">
        <ele>16</ele>
        <time>2025-09-30T13:32:29Z</time>
      </trkpt>
      <trkpt lat="48.65536" lon="-2.35195">
        <ele>15.8</ele>
        <time>2025-09-30T13:32:30Z</time>
      </trkpt>
      <trkpt lat="48.65543" lon="-2.35187">
        <ele>15.4</ele>
        <time>2025-09-30T13:32:32Z</time>
      </trkpt>
      <trkpt lat="48.65552" lon="-2.3518">
        <ele>15.2</ele>
        <time>2025-09-30T13:32:34Z</time>
      </trkpt>
      <trkpt lat="48.65574" lon="-2.35168">
        <ele>14.4</ele>
        <time>2025-09-30T13:32:38Z</time>
      </trkpt>
      <trkpt lat="48.65586" lon="-2.35162">
        <ele>14</ele>
        <time>2025-09-30T13:32:40Z</time>
      </trkpt>
      <trkpt lat="48.65624" lon="-2.35144">
        <ele>13.2</ele>
        <time>2025-09-30T13:32:47Z</time>
      </trkpt>
      <trkpt lat="48.65644" lon="-2.35135">
        <ele>13.6</ele>
        <time>2025-09-30T13:32:51Z</time>
      </trkpt>
      <trkpt lat="48.65648" lon="-2.35131">
        <ele>13.6</ele>
        <time>2025-09-30T13:32:52Z</time>
      </trkpt>
      <trkpt lat="48.65651" lon="-2.35121">
        <ele>13.8</ele>
        <time>2025-09-30T13:32:54Z</time>
      </trkpt>
      <trkpt lat="48.65652" lon="-2.35106">
        <ele>14.6</ele>
        <time>2025-09-30T13:32:57Z</time>
      </trkpt>
      <trkpt lat="48.65651" lon="-2.35091">
        <ele>16</ele>
        <time>2025-09-30T13:33:00Z</time>
      </trkpt>
      <trkpt lat="48.65652" lon="-2.3507">
        <ele>17.2</ele>
        <time>2025-09-30T13:33:04Z</time>
      </trkpt>
      <trkpt lat="48.65653" lon="-2.3506">
        <ele>18.2</ele>
        <time>2025-09-30T13:33:06Z</time>
      </trkpt>
      <trkpt lat="48.65653" lon="-2.35054">
        <ele>18.4</ele>
        <time>2025-09-30T13:33:07Z</time>
      </trkpt>
      <trkpt lat="48.65658" lon="-2.35037">
        <ele>18.8</ele>
        <time>2025-09-30T13:33:11Z</time>
      </trkpt>
      <trkpt lat="48.65661" lon="-2.35035">
        <ele>19</ele>
        <time>2025-09-30T13:33:12Z</time>
      </trkpt>
      <trkpt lat="48.6567" lon="-2.3503">
        <ele>19.6</ele>
        <time>2025-09-30T13:33:15Z</time>
      </trkpt>
      <trkpt lat="48.65677" lon="-2.35025">
        <ele>19.8</ele>
        <time>2025-09-30T13:33:17Z</time>
      </trkpt>
      <trkpt lat="48.65693" lon="-2.35005">
        <ele>20.6</ele>
        <time>2025-09-30T13:33:23Z</time>
      </trkpt>
      <trkpt lat="48.65696" lon="-2.35002">
        <ele>20.6</ele>
        <time>2025-09-30T13:33:24Z</time>
      </trkpt>
      <trkpt lat="48.65709" lon="-2.34989">
        <ele>21</ele>
        <time>2025-09-30T13:33:28Z</time>
      </trkpt>
      <trkpt lat="48.65726" lon="-2.3497">
        <ele>21.6</ele>
        <time>2025-09-30T13:33:33Z</time>
      </trkpt>
      <trkpt lat="48.6573" lon="-2.34967">
        <ele>21.6</ele>
        <time>2025-09-30T13:33:34Z</time>
      </trkpt>
      <trkpt lat="48.65737" lon="-2.34959">
        <ele>21.8</ele>
        <time>2025-09-30T13:33:36Z</time>
      </trkpt>
      <trkpt lat="48.65752" lon="-2.34937">
        <ele>22.4</ele>
        <time>2025-09-30T13:33:41Z</time>
      </trkpt>
      <trkpt lat="48.65755" lon="-2.34933">
        <ele>22.2</ele>
        <time>2025-09-30T13:33:42Z</time>
      </trkpt>
      <trkpt lat="48.65761" lon="-2.34932">
        <ele>22.2</ele>
        <time>2025-09-30T13:33:44Z</time>
      </trkpt>
      <trkpt lat="48.65772" lon="-2.34946">
        <ele>22</ele>
        <time>2025-09-30T13:33:48Z</time>
      </trkpt>
      <trkpt lat="48.65788" lon="-2.34972">
        <ele>21.6</ele>
        <time>2025-09-30T13:33:55Z</time>
      </trkpt>
      <trkpt lat="48.65789" lon="-2.34973">
        <ele>21.4</ele>
        <time>2025-09-30T13:33:58Z</time>
      </trkpt>
      <trkpt lat="48.65789" lon="-2.34973">
        <ele>21</ele>
        <time>2025-09-30T13:34:08Z</time>
      </trkpt>
      <trkpt lat="48.65789" lon="-2.34973">
        <ele>21</ele>
        <time>2025-09-30T13:34:11Z</time>
      </trkpt>
      <trkpt lat="48.65789" lon="-2.34973">
        <ele>21.2</ele>
        <time>2025-09-30T13:34:14Z</time>
      </trkpt>
      <trkpt lat="48.65789" lon="-2.34973">
        <ele>21.4</ele>
        <time>2025-09-30T13:34:17Z</time>
      </trkpt>
      <trkpt lat="48.65789" lon="-2.34973">
        <ele>21.8</ele>
        <time>2025-09-30T13:34:22Z</time>
      </trkpt>
      <trkpt lat="48.65789" lon="-2.34973">
        <ele>21.8</ele>
        <time>2025-09-30T13:34:27Z</time>
      </trkpt>
      <trkpt lat="48.65789" lon="-2.34973">
        <ele>21.8</ele>
        <time>2025-09-30T13:34:28Z</time>
      </trkpt>
      <trkpt lat="48.65789" lon="-2.34973">
        <ele>21.8</ele>
        <time>2025-09-30T13:34:29Z</time>
      </trkpt>
      <trkpt lat="48.65789" lon="-2.34973">
        <ele>21.8</ele>
        <time>2025-09-30T13:34:30Z</time>
      </trkpt>
      <trkpt lat="48.65789" lon="-2.34973">
        <ele>21.6</ele>
        <time>2025-09-30T13:34:32Z</time>
      </trkpt>
      <trkpt lat="48.65789" lon="-2.34973">
        <ele>21</ele>
        <time>2025-09-30T13:34:46Z</time>
      </trkpt>
      <trkpt lat="48.65789" lon="-2.34973">
        <ele>21.2</ele>
        <time>2025-09-30T13:35:07Z</time>
      </trkpt>
      <trkpt lat="48.65789" lon="-2.34973">
        <ele>21.2</ele>
        <time>2025-09-30T13:35:10Z</time>
      </trkpt>
      <trkpt lat="48.65789" lon="-2.34973">
        <ele>21.2</ele>
        <time>2025-09-30T13:35:18Z</time>
      </trkpt>
      <trkpt lat="48.65789" lon="-2.34973">
        <ele>21.2</ele>
        <time>2025-09-30T13:35:23Z</time>
      </trkpt>
      <trkpt lat="48.65789" lon="-2.34973">
        <ele>21.2</ele>
        <time>2025-09-30T13:35:33Z</time>
      </trkpt>
      <trkpt lat="48.65789" lon="-2.34973">
        <ele>21.2</ele>
        <time>2025-09-30T13:35:34Z</time>
      </trkpt>
      <trkpt lat="48.65789" lon="-2.34973">
        <ele>21.2</ele>
        <time>2025-09-30T13:35:35Z</time>
      </trkpt>
      <trkpt lat="48.65789" lon="-2.34973">
        <ele>21.2</ele>
        <time>2025-09-30T13:35:37Z</time>
      </trkpt>
      <trkpt lat="48.65789" lon="-2.34973">
        <ele>21.2</ele>
        <time>2025-09-30T13:35:40Z</time>
      </trkpt>
      <trkpt lat="48.65789" lon="-2.34973">
        <ele>21.2</ele>
        <time>2025-09-30T13:35:47Z</time>
      </trkpt>
      <trkpt lat="48.65789" lon="-2.34973">
        <ele>21.2</ele>
        <time>2025-09-30T13:36:16Z</time>
      </trkpt>
      <trkpt lat="48.65789" lon="-2.34973">
        <ele>21.2</ele>
        <time>2025-09-30T13:36:23Z</time>
      </trkpt>
      <trkpt lat="48.6579" lon="-2.34976">
        <ele>21.2</ele>
        <time>2025-09-30T13:36:36Z</time>
      </trkpt>
      <trkpt lat="48.6579" lon="-2.34977">
        <ele>21.2</ele>
        <time>2025-09-30T13:36:37Z</time>
      </trkpt>
      <trkpt lat="48.65792" lon="-2.34979">
        <ele>21</ele>
        <time>2025-09-30T13:36:39Z</time>
      </trkpt>
      <trkpt lat="48.65796" lon="-2.34986">
        <ele>21</ele>
        <time>2025-09-30T13:36:44Z</time>
      </trkpt>
      <trkpt lat="48.65799" lon="-2.34992">
        <ele>21</ele>
        <time>2025-09-30T13:36:48Z</time>
      </trkpt>
      <trkpt lat="48.65801" lon="-2.34997">
        <ele>21.2</ele>
        <time>2025-09-30T13:36:52Z</time>
      </trkpt>
      <trkpt lat="48.65802" lon="-2.35">
        <ele>21.2</ele>
        <time>2025-09-30T13:36:58Z</time>
      </trkpt>
      <trkpt lat="48.65802" lon="-2.34999">
        <ele>21</ele>
        <time>2025-09-30T13:37:05Z</time>
      </trkpt>
      <trkpt lat="48.65802" lon="-2.34999">
        <ele>21</ele>
        <time>2025-09-30T13:37:16Z</time>
      </trkpt>
      <trkpt lat="48.65802" lon="-2.34999">
        <ele>21</ele>
        <time>2025-09-30T13:37:18Z</time>
      </trkpt>
      <trkpt lat="48.65802" lon="-2.34999">
        <ele>21</ele>
        <time>2025-09-30T13:37:24Z</time>
      </trkpt>
      <trkpt lat="48.65801" lon="-2.34999">
        <ele>20.8</ele>
        <time>2025-09-30T13:37:29Z</time>
      </trkpt>
      <trkpt lat="48.65801" lon="-2.34999">
        <ele>21</ele>
        <time>2025-09-30T13:37:30Z</time>
      </trkpt>
      <trkpt lat="48.65801" lon="-2.34999">
        <ele>21</ele>
        <time>2025-09-30T13:37:40Z</time>
      </trkpt>
      <trkpt lat="48.65801" lon="-2.35">
        <ele>20.8</ele>
        <time>2025-09-30T13:37:48Z</time>
      </trkpt>
      <trkpt lat="48.65801" lon="-2.35">
        <ele>20.6</ele>
        <time>2025-09-30T13:37:56Z</time>
      </trkpt>
      <trkpt lat="48.65801" lon="-2.34999">
        <ele>21</ele>
        <time>2025-09-30T13:37:58Z</time>
      </trkpt>
      <trkpt lat="48.65801" lon="-2.34999">
        <ele>21</ele>
        <time>2025-09-30T13:38:07Z</time>
      </trkpt>
      <trkpt lat="48.65801" lon="-2.34999">
        <ele>21</ele>
        <time>2025-09-30T13:38:12Z</time>
      </trkpt>
      <trkpt lat="48.65801" lon="-2.34999">
        <ele>21</ele>
        <time>2025-09-30T13:38:19Z</time>
      </trkpt>
      <trkpt lat="48.65801" lon="-2.34999">
        <ele>21</ele>
        <time>2025-09-30T13:38:28Z</time>
      </trkpt>
      <trkpt lat="48.65801" lon="-2.34999">
        <ele>21</ele>
        <time>2025-09-30T13:38:29Z</time>
      </trkpt>
      <trkpt lat="48.65801" lon="-2.34999">
        <ele>21</ele>
        <time>2025-09-30T13:38:30Z</time>
      </trkpt>
      <trkpt lat="48.65801" lon="-2.34999">
        <ele>21</ele>
        <time>2025-09-30T13:38:32Z</time>
      </trkpt>
      <trkpt lat="48.65801" lon="-2.34999">
        <ele>21</ele>
        <time>2025-09-30T13:38:42Z</time>
      </trkpt>
      <trkpt lat="48.65801" lon="-2.34999">
        <ele>21</ele>
        <time>2025-09-30T13:38:53Z</time>
      </trkpt>
      <trkpt lat="48.65802" lon="-2.34999">
        <ele>21</ele>
        <time>2025-09-30T13:39:00Z</time>
      </trkpt>
      <trkpt lat="48.65802" lon="-2.34999">
        <ele>21</ele>
        <time>2025-09-30T13:39:01Z</time>
      </trkpt>
      <trkpt lat="48.65802" lon="-2.34999">
        <ele>21</ele>
        <time>2025-09-30T13:39:02Z</time>
      </trkpt>
      <trkpt lat="48.65802" lon="-2.34999">
        <ele>21</ele>
        <time>2025-09-30T13:39:03Z</time>
      </trkpt>
      <trkpt lat="48.65802" lon="-2.34999">
        <ele>21</ele>
        <time>2025-09-30T13:39:04Z</time>
      </trkpt>
      <trkpt lat="48.65802" lon="-2.34999">
        <ele>21</ele>
        <time>2025-09-30T13:39:14Z</time>
      </trkpt>
      <trkpt lat="48.65801" lon="-2.34998">
        <ele>21</ele>
        <time>2025-09-30T13:39:25Z</time>
      </trkpt>
      <trkpt lat="48.65801" lon="-2.34998">
        <ele>21</ele>
        <time>2025-09-30T13:39:37Z</time>
      </trkpt>
      <trkpt lat="48.65801" lon="-2.34998">
        <ele>21</ele>
        <time>2025-09-30T13:39:41Z</time>
      </trkpt>
      <trkpt lat="48.65801" lon="-2.34998">
        <ele>21</ele>
        <time>2025-09-30T13:39:53Z</time>
      </trkpt>
      <trkpt lat="48.65801" lon="-2.34998">
        <ele>21</ele>
        <time>2025-09-30T13:40:00Z</time>
      </trkpt>
      <trkpt lat="48.65801" lon="-2.34999">
        <ele>21</ele>
        <time>2025-09-30T13:40:14Z</time>
      </trkpt>
      <trkpt lat="48.65801" lon="-2.35">
        <ele>21</ele>
        <time>2025-09-30T13:40:21Z</time>
      </trkpt>
      <trkpt lat="48.65801" lon="-2.35">
        <ele>21</ele>
        <time>2025-09-30T13:40:35Z</time>
      </trkpt>
      <trkpt lat="48.65801" lon="-2.35">
        <ele>21</ele>
        <time>2025-09-30T13:40:40Z</time>
      </trkpt>
      <trkpt lat="48.65801" lon="-2.35">
        <ele>21</ele>
        <time>2025-09-30T13:40:52Z</time>
      </trkpt>
      <trkpt lat="48.65801" lon="-2.35">
        <ele>21</ele>
        <time>2025-09-30T13:40:57Z</time>
      </trkpt>
      <trkpt lat="48.65801" lon="-2.35">
        <ele>21</ele>
        <time>2025-09-30T13:41:02Z</time>
      </trkpt>
      <trkpt lat="48.65801" lon="-2.35">
        <ele>21</ele>
        <time>2025-09-30T13:41:09Z</time>
      </trkpt>
      <trkpt lat="48.65801" lon="-2.35">
        <ele>21</ele>
        <time>2025-09-30T13:41:12Z</time>
      </trkpt>
      <trkpt lat="48.65801" lon="-2.35">
        <ele>21</ele>
        <time>2025-09-30T13:41:20Z</time>
      </trkpt>
      <trkpt lat="48.65801" lon="-2.35">
        <ele>21</ele>
        <time>2025-09-30T13:41:23Z</time>
      </trkpt>
      <trkpt lat="48.65801" lon="-2.35">
        <ele>21</ele>
        <time>2025-09-30T13:41:30Z</time>
      </trkpt>
      <trkpt lat="48.65801" lon="-2.35">
        <ele>21</ele>
        <time>2025-09-30T13:41:34Z</time>
      </trkpt>
      <trkpt lat="48.65801" lon="-2.35">
        <ele>21</ele>
        <time>2025-09-30T13:41:38Z</time>
      </trkpt>
      <trkpt lat="48.65801" lon="-2.35">
        <ele>21</ele>
        <time>2025-09-30T13:41:41Z</time>
      </trkpt>
      <trkpt lat="48.65801" lon="-2.35">
        <ele>21</ele>
        <time>2025-09-30T13:41:50Z</time>
      </trkpt>
      <trkpt lat="48.65801" lon="-2.35">
        <ele>21</ele>
        <time>2025-09-30T13:41:53Z</time>
      </trkpt>
      <trkpt lat="48.65802" lon="-2.35004">
        <ele>21</ele>
        <time>2025-09-30T13:42:12Z</time>
      </trkpt>
      <trkpt lat="48.65804" lon="-2.35015">
        <ele>21</ele>
        <time>2025-09-30T13:42:15Z</time>
      </trkpt>
      <trkpt lat="48.65806" lon="-2.35025">
        <ele>21</ele>
        <time>2025-09-30T13:42:18Z</time>
      </trkpt>
      <trkpt lat="48.65813" lon="-2.35045">
        <ele>20.6</ele>
        <time>2025-09-30T13:42:26Z</time>
      </trkpt>
      <trkpt lat="48.65825" lon="-2.35058">
        <ele>19.8</ele>
        <time>2025-09-30T13:42:34Z</time>
      </trkpt>
      <trkpt lat="48.65828" lon="-2.35058">
        <ele>19.4</ele>
        <time>2025-09-30T13:42:36Z</time>
      </trkpt>
      <trkpt lat="48.65831" lon="-2.35057">
        <ele>19.4</ele>
        <time>2025-09-30T13:42:38Z</time>
      </trkpt>
      <trkpt lat="48.65833" lon="-2.35057">
        <ele>19.2</ele>
        <time>2025-09-30T13:42:40Z</time>
      </trkpt>
      <trkpt lat="48.65845" lon="-2.35053">
        <ele>18.4</ele>
        <time>2025-09-30T13:42:47Z</time>
      </trkpt>
      <trkpt lat="48.6585" lon="-2.35051">
        <ele>18.2</ele>
        <time>2025-09-30T13:42:50Z</time>
      </trkpt>
      <trkpt lat="48.65858" lon="-2.35045">
        <ele>17.8</ele>
        <time>2025-09-30T13:42:57Z</time>
      </trkpt>
      <trkpt lat="48.65858" lon="-2.35044">
        <ele>17.6</ele>
        <time>2025-09-30T13:43:06Z</time>
      </trkpt>
      <trkpt lat="48.65863" lon="-2.35038">
        <ele>17.6</ele>
        <time>2025-09-30T13:43:10Z</time>
      </trkpt>
      <trkpt lat="48.65871" lon="-2.35029">
        <ele>17.4</ele>
        <time>2025-09-30T13:43:13Z</time>
      </trkpt>
      <trkpt lat="48.65876" lon="-2.35022">
        <ele>17.2</ele>
        <time>2025-09-30T13:43:15Z</time>
      </trkpt>
      <trkpt lat="48.6588" lon="-2.35019">
        <ele>17.2</ele>
        <time>2025-09-30T13:43:16Z</time>
      </trkpt>
      <trkpt lat="48.65901" lon="-2.34991">
        <ele>16.4</ele>
        <time>2025-09-30T13:43:23Z</time>
      </trkpt>
      <trkpt lat="48.6593" lon="-2.34957">
        <ele>16.8</ele>
        <time>2025-09-30T13:43:33Z</time>
      </trkpt>
      <trkpt lat="48.65951" lon="-2.34937">
        <ele>17.2</ele>
        <time>2025-09-30T13:43:40Z</time>
      </trkpt>
      <trkpt lat="48.65958" lon="-2.34935">
        <ele>17</ele>
        <time>2025-09-30T13:43:44Z</time>
      </trkpt>
      <trkpt lat="48.65958" lon="-2.34935">
        <ele>17</ele>
        <time>2025-09-30T13:43:54Z</time>
      </trkpt>
      <trkpt lat="48.65958" lon="-2.34935">
        <ele>17</ele>
        <time>2025-09-30T13:44:02Z</time>
      </trkpt>
      <trkpt lat="48.65958" lon="-2.34935">
        <ele>17</ele>
        <time>2025-09-30T13:44:08Z</time>
      </trkpt>
      <trkpt lat="48.65958" lon="-2.34935">
        <ele>17</ele>
        <time>2025-09-30T13:44:14Z</time>
      </trkpt>
      <trkpt lat="48.65958" lon="-2.34935">
        <ele>17</ele>
        <time>2025-09-30T13:44:31Z</time>
      </trkpt>
      <trkpt lat="48.65958" lon="-2.34935">
        <ele>17</ele>
        <time>2025-09-30T13:44:34Z</time>
      </trkpt>
      <trkpt lat="48.65958" lon="-2.34935">
        <ele>17</ele>
        <time>2025-09-30T13:44:46Z</time>
      </trkpt>
      <trkpt lat="48.65958" lon="-2.34935">
        <ele>17</ele>
        <time>2025-09-30T13:44:47Z</time>
      </trkpt>
      <trkpt lat="48.65958" lon="-2.34935">
        <ele>17</ele>
        <time>2025-09-30T13:44:51Z</time>
      </trkpt>
      <trkpt lat="48.65958" lon="-2.34935">
        <ele>17</ele>
        <time>2025-09-30T13:45:26Z</time>
      </trkpt>
      <trkpt lat="48.65958" lon="-2.34935">
        <ele>17</ele>
        <time>2025-09-30T13:45:42Z</time>
      </trkpt>
      <trkpt lat="48.65958" lon="-2.34935">
        <ele>17</ele>
        <time>2025-09-30T13:46:10Z</time>
      </trkpt>
      <trkpt lat="48.65958" lon="-2.34935">
        <ele>17</ele>
        <time>2025-09-30T13:46:39Z</time>
      </trkpt>
      <trkpt lat="48.65958" lon="-2.34935">
        <ele>17</ele>
        <time>2025-09-30T13:46:56Z</time>
      </trkpt>
      <trkpt lat="48.65958" lon="-2.34935">
        <ele>17</ele>
        <time>2025-09-30T13:47:11Z</time>
      </trkpt>
      <trkpt lat="48.6596" lon="-2.34933">
        <ele>17</ele>
        <time>2025-09-30T13:47:24Z</time>
      </trkpt>
      <trkpt lat="48.65963" lon="-2.34929">
        <ele>17</ele>
        <time>2025-09-30T13:47:26Z</time>
      </trkpt>
      <trkpt lat="48.6597" lon="-2.3492">
        <ele>17</ele>
        <time>2025-09-30T13:47:29Z</time>
      </trkpt>
      <trkpt lat="48.65975" lon="-2.34912">
        <ele>16.8</ele>
        <time>2025-09-30T13:47:31Z</time>
      </trkpt>
      <trkpt lat="48.65982" lon="-2.34904">
        <ele>16.4</ele>
        <time>2025-09-30T13:47:33Z</time>
      </trkpt>
      <trkpt lat="48.65988" lon="-2.34895">
        <ele>16</ele>
        <time>2025-09-30T13:47:35Z</time>
      </trkpt>
      <trkpt lat="48.65998" lon="-2.34882">
        <ele>15.2</ele>
        <time>2025-09-30T13:47:38Z</time>
      </trkpt>
      <trkpt lat="48.66012" lon="-2.34865">
        <ele>14.2</ele>
        <time>2025-09-30T13:47:42Z</time>
      </trkpt>
      <trkpt lat="48.66022" lon="-2.3486">
        <ele>13.4</ele>
        <time>2025-09-30T13:47:45Z</time>
      </trkpt>
      <trkpt lat="48.66025" lon="-2.34862">
        <ele>13</ele>
        <time>2025-09-30T13:47:46Z</time>
      </trkpt>
      <trkpt lat="48.66029" lon="-2.34874">
        <ele>12</ele>
        <time>2025-09-30T13:47:49Z</time>
      </trkpt>
      <trkpt lat="48.66033" lon="-2.34881">
        <ele>11.6</ele>
        <time>2025-09-30T13:47:51Z</time>
      </trkpt>
      <trkpt lat="48.66036" lon="-2.34883">
        <ele>11.2</ele>
        <time>2025-09-30T13:47:52Z</time>
      </trkpt>
      <trkpt lat="48.66041" lon="-2.34881">
        <ele>10.8</ele>
        <time>2025-09-30T13:47:54Z</time>
      </trkpt>
      <trkpt lat="48.66045" lon="-2.34878">
        <ele>10.2</ele>
        <time>2025-09-30T13:47:58Z</time>
      </trkpt>
      <trkpt lat="48.66045" lon="-2.34878">
        <ele>10.2</ele>
        <time>2025-09-30T13:48:05Z</time>
      </trkpt>
      <trkpt lat="48.66045" lon="-2.34878">
        <ele>10</ele>
        <time>2025-09-30T13:48:06Z</time>
      </trkpt>
      <trkpt lat="48.66045" lon="-2.34878">
        <ele>10.2</ele>
        <time>2025-09-30T13:48:11Z</time>
      </trkpt>
      <trkpt lat="48.66045" lon="-2.34878">
        <ele>10.2</ele>
        <time>2025-09-30T13:48:16Z</time>
      </trkpt>
      <trkpt lat="48.66046" lon="-2.34877">
        <ele>10</ele>
        <time>2025-09-30T13:48:31Z</time>
      </trkpt>
      <trkpt lat="48.66055" lon="-2.34866">
        <ele>10</ele>
        <time>2025-09-30T13:48:35Z</time>
      </trkpt>
      <trkpt lat="48.6607" lon="-2.34856">
        <ele>9.8</ele>
        <time>2025-09-30T13:48:39Z</time>
      </trkpt>
      <trkpt lat="48.66073" lon="-2.34853">
        <ele>9.8</ele>
        <time>2025-09-30T13:48:40Z</time>
      </trkpt>
      <trkpt lat="48.66077" lon="-2.3485">
        <ele>9.6</ele>
        <time>2025-09-30T13:48:41Z</time>
      </trkpt>
      <trkpt lat="48.66087" lon="-2.34842">
        <ele>8.6</ele>
        <time>2025-09-30T13:48:43Z</time>
      </trkpt>
      <trkpt lat="48.66091" lon="-2.3484">
        <ele>8</ele>
        <time>2025-09-30T13:48:44Z</time>
      </trkpt>
      <trkpt lat="48.66095" lon="-2.34836">
        <ele>7.6</ele>
        <time>2025-09-30T13:48:45Z</time>
      </trkpt>
      <trkpt lat="48.66099" lon="-2.34833">
        <ele>7.4</ele>
        <time>2025-09-30T13:48:46Z</time>
      </trkpt>
      <trkpt lat="48.66103" lon="-2.34829">
        <ele>7</ele>
        <time>2025-09-30T13:48:47Z</time>
      </trkpt>
      <trkpt lat="48.66108" lon="-2.34818">
        <ele>6.6</ele>
        <time>2025-09-30T13:48:49Z</time>
      </trkpt>
      <trkpt lat="48.66109" lon="-2.34812">
        <ele>6.6</ele>
        <time>2025-09-30T13:48:50Z</time>
      </trkpt>
      <trkpt lat="48.66114" lon="-2.34793">
        <ele>6.8</ele>
        <time>2025-09-30T13:48:54Z</time>
      </trkpt>
      <trkpt lat="48.66126" lon="-2.34794">
        <ele>6.6</ele>
        <time>2025-09-30T13:48:58Z</time>
      </trkpt>
      <trkpt lat="48.66134" lon="-2.34798">
        <ele>6.4</ele>
        <time>2025-09-30T13:49:00Z</time>
      </trkpt>
      <trkpt lat="48.66157" lon="-2.34811">
        <ele>7</ele>
        <time>2025-09-30T13:49:07Z</time>
      </trkpt>
      <trkpt lat="48.66172" lon="-2.34818">
        <ele>7.6</ele>
        <time>2025-09-30T13:49:11Z</time>
      </trkpt>
      <trkpt lat="48.66189" lon="-2.34827">
        <ele>8</ele>
        <time>2025-09-30T13:49:16Z</time>
      </trkpt>
      <trkpt lat="48.66204" lon="-2.34833">
        <ele>8.4</ele>
        <time>2025-09-30T13:49:21Z</time>
      </trkpt>
      <trkpt lat="48.66212" lon="-2.34835">
        <ele>8.6</ele>
        <time>2025-09-30T13:49:24Z</time>
      </trkpt>
      <trkpt lat="48.66228" lon="-2.34837">
        <ele>9.2</ele>
        <time>2025-09-30T13:49:28Z</time>
      </trkpt>
      <trkpt lat="48.66237" lon="-2.34838">
        <ele>9.6</ele>
        <time>2025-09-30T13:49:30Z</time>
      </trkpt>
      <trkpt lat="48.6624" lon="-2.34838">
        <ele>9.8</ele>
        <time>2025-09-30T13:49:31Z</time>
      </trkpt>
      <trkpt lat="48.66244" lon="-2.34837">
        <ele>10.2</ele>
        <time>2025-09-30T13:49:32Z</time>
      </trkpt>
      <trkpt lat="48.66251" lon="-2.34834">
        <ele>10.4</ele>
        <time>2025-09-30T13:49:34Z</time>
      </trkpt>
      <trkpt lat="48.66255" lon="-2.34833">
        <ele>10.8</ele>
        <time>2025-09-30T13:49:35Z</time>
      </trkpt>
      <trkpt lat="48.66265" lon="-2.34828">
        <ele>11</ele>
        <time>2025-09-30T13:49:38Z</time>
      </trkpt>
      <trkpt lat="48.66278" lon="-2.34819">
        <ele>11.8</ele>
        <time>2025-09-30T13:49:42Z</time>
      </trkpt>
      <trkpt lat="48.6629" lon="-2.34809">
        <ele>12.8</ele>
        <time>2025-09-30T13:49:46Z</time>
      </trkpt>
      <trkpt lat="48.66305" lon="-2.34791">
        <ele>14</ele>
        <time>2025-09-30T13:49:51Z</time>
      </trkpt>
      <trkpt lat="48.66315" lon="-2.34775">
        <ele>14.8</ele>
        <time>2025-09-30T13:49:55Z</time>
      </trkpt>
      <trkpt lat="48.66322" lon="-2.34762">
        <ele>15.2</ele>
        <time>2025-09-30T13:49:58Z</time>
      </trkpt>
      <trkpt lat="48.66327" lon="-2.34747">
        <ele>16.2</ele>
        <time>2025-09-30T13:50:01Z</time>
      </trkpt>
      <trkpt lat="48.6633" lon="-2.34736">
        <ele>16.8</ele>
        <time>2025-09-30T13:50:03Z</time>
      </trkpt>
      <trkpt lat="48.66333" lon="-2.34728">
        <ele>17.2</ele>
        <time>2025-09-30T13:50:07Z</time>
      </trkpt>
      <trkpt lat="48.66333" lon="-2.34728">
        <ele>17</ele>
        <time>2025-09-30T13:50:21Z</time>
      </trkpt>
      <trkpt lat="48.66332" lon="-2.34732">
        <ele>17</ele>
        <time>2025-09-30T13:50:29Z</time>
      </trkpt>
      <trkpt lat="48.66332" lon="-2.34735">
        <ele>17.2</ele>
        <time>2025-09-30T13:50:36Z</time>
      </trkpt>
      <trkpt lat="48.66332" lon="-2.34735">
        <ele>17.4</ele>
        <time>2025-09-30T13:50:37Z</time>
      </trkpt>
      <trkpt lat="48.66332" lon="-2.34735">
        <ele>17.4</ele>
        <time>2025-09-30T13:50:42Z</time>
      </trkpt>
      <trkpt lat="48.66332" lon="-2.34733">
        <ele>16.6</ele>
        <time>2025-09-30T13:50:46Z</time>
      </trkpt>
      <trkpt lat="48.66332" lon="-2.34732">
        <ele>16.8</ele>
        <time>2025-09-30T13:50:55Z</time>
      </trkpt>
      <trkpt lat="48.66332" lon="-2.34732">
        <ele>16.6</ele>
        <time>2025-09-30T13:51:04Z</time>
      </trkpt>
      <trkpt lat="48.66332" lon="-2.34732">
        <ele>16.8</ele>
        <time>2025-09-30T13:51:05Z</time>
      </trkpt>
      <trkpt lat="48.66332" lon="-2.34732">
        <ele>16.8</ele>
        <time>2025-09-30T13:51:06Z</time>
      </trkpt>
      <trkpt lat="48.66332" lon="-2.34732">
        <ele>16.8</ele>
        <time>2025-09-30T13:51:07Z</time>
      </trkpt>
      <trkpt lat="48.66332" lon="-2.34732">
        <ele>16.8</ele>
        <time>2025-09-30T13:51:09Z</time>
      </trkpt>
      <trkpt lat="48.66332" lon="-2.34732">
        <ele>16.8</ele>
        <time>2025-09-30T13:51:14Z</time>
      </trkpt>
      <trkpt lat="48.66332" lon="-2.34732">
        <ele>16.8</ele>
        <time>2025-09-30T13:51:19Z</time>
      </trkpt>
      <trkpt lat="48.66332" lon="-2.34732">
        <ele>16.8</ele>
        <time>2025-09-30T13:51:24Z</time>
      </trkpt>
      <trkpt lat="48.66332" lon="-2.34732">
        <ele>16.8</ele>
        <time>2025-09-30T13:51:41Z</time>
      </trkpt>
      <trkpt lat="48.66332" lon="-2.34729">
        <ele>16.8</ele>
        <time>2025-09-30T13:51:56Z</time>
      </trkpt>
      <trkpt lat="48.66333" lon="-2.34723">
        <ele>16.4</ele>
        <time>2025-09-30T13:51:58Z</time>
      </trkpt>
      <trkpt lat="48.66338" lon="-2.34698">
        <ele>17.4</ele>
        <time>2025-09-30T13:52:03Z</time>
      </trkpt>
      <trkpt lat="48.6634" lon="-2.34682">
        <ele>17.8</ele>
        <time>2025-09-30T13:52:06Z</time>
      </trkpt>
      <trkpt lat="48.66341" lon="-2.3466">
        <ele>18.4</ele>
        <time>2025-09-30T13:52:10Z</time>
      </trkpt>
      <trkpt lat="48.66339" lon="-2.34632">
        <ele>19.6</ele>
        <time>2025-09-30T13:52:15Z</time>
      </trkpt>
      <trkpt lat="48.66337" lon="-2.34622">
        <ele>20</ele>
        <time>2025-09-30T13:52:17Z</time>
      </trkpt>
      <trkpt lat="48.66335" lon="-2.34607">
        <ele>21</ele>
        <time>2025-09-30T13:52:20Z</time>
      </trkpt>
      <trkpt lat="48.6633" lon="-2.34584">
        <ele>22.2</ele>
        <time>2025-09-30T13:52:25Z</time>
      </trkpt>
      <trkpt lat="48.66329" lon="-2.34579">
        <ele>22.4</ele>
        <time>2025-09-30T13:52:26Z</time>
      </trkpt>
      <trkpt lat="48.66325" lon="-2.34554">
        <ele>23.4</ele>
        <time>2025-09-30T13:52:31Z</time>
      </trkpt>
      <trkpt lat="48.66322" lon="-2.34542">
        <ele>23.8</ele>
        <time>2025-09-30T13:52:33Z</time>
      </trkpt>
      <trkpt lat="48.66321" lon="-2.34531">
        <ele>24.6</ele>
        <time>2025-09-30T13:52:35Z</time>
      </trkpt>
      <trkpt lat="48.66316" lon="-2.34513">
        <ele>25.8</ele>
        <time>2025-09-30T13:52:39Z</time>
      </trkpt>
      <trkpt lat="48.66312" lon="-2.34491">
        <ele>26.8</ele>
        <time>2025-09-30T13:52:43Z</time>
      </trkpt>
      <trkpt lat="48.66307" lon="-2.34465">
        <ele>28</ele>
        <time>2025-09-30T13:52:48Z</time>
      </trkpt>
      <trkpt lat="48.66306" lon="-2.34453">
        <ele>28.2</ele>
        <time>2025-09-30T13:52:50Z</time>
      </trkpt>
      <trkpt lat="48.66302" lon="-2.34434">
        <ele>29</ele>
        <time>2025-09-30T13:52:54Z</time>
      </trkpt>
      <trkpt lat="48.66302" lon="-2.34423">
        <ele>29.4</ele>
        <time>2025-09-30T13:52:56Z</time>
      </trkpt>
      <trkpt lat="48.66302" lon="-2.34403">
        <ele>30</ele>
        <time>2025-09-30T13:53:00Z</time>
      </trkpt>
      <trkpt lat="48.66303" lon="-2.34393">
        <ele>30.4</ele>
        <time>2025-09-30T13:53:02Z</time>
      </trkpt>
      <trkpt lat="48.6631" lon="-2.34364">
        <ele>31</ele>
        <time>2025-09-30T13:53:08Z</time>
      </trkpt>
      <trkpt lat="48.66313" lon="-2.34354">
        <ele>31.2</ele>
        <time>2025-09-30T13:53:10Z</time>
      </trkpt>
      <trkpt lat="48.66325" lon="-2.3433">
        <ele>31.2</ele>
        <time>2025-09-30T13:53:16Z</time>
      </trkpt>
      <trkpt lat="48.66339" lon="-2.34312">
        <ele>31.4</ele>
        <time>2025-09-30T13:53:23Z</time>
      </trkpt>
      <trkpt lat="48.66364" lon="-2.34295">
        <ele>31.4</ele>
        <time>2025-09-30T13:53:32Z</time>
      </trkpt>
      <trkpt lat="48.66391" lon="-2.34288">
        <ele>31</ele>
        <time>2025-09-30T13:53:41Z</time>
      </trkpt>
      <trkpt lat="48.66404" lon="-2.34286">
        <ele>31</ele>
        <time>2025-09-30T13:53:45Z</time>
      </trkpt>
      <trkpt lat="48.66409" lon="-2.34285">
        <ele>30.8</ele>
        <time>2025-09-30T13:53:47Z</time>
      </trkpt>
      <trkpt lat="48.66421" lon="-2.34284">
        <ele>30.6</ele>
        <time>2025-09-30T13:53:51Z</time>
      </trkpt>
      <trkpt lat="48.6644" lon="-2.34282">
        <ele>30.6</ele>
        <time>2025-09-30T13:53:57Z</time>
      </trkpt>
      <trkpt lat="48.66447" lon="-2.34281">
        <ele>30.4</ele>
        <time>2025-09-30T13:53:59Z</time>
      </trkpt>
      <trkpt lat="48.66479" lon="-2.34278">
        <ele>30.4</ele>
        <time>2025-09-30T13:54:08Z</time>
      </trkpt>
      <trkpt lat="48.66512" lon="-2.34265">
        <ele>30.2</ele>
        <time>2025-09-30T13:54:16Z</time>
      </trkpt>
      <trkpt lat="48.66532" lon="-2.34251">
        <ele>30</ele>
        <time>2025-09-30T13:54:21Z</time>
      </trkpt>
      <trkpt lat="48.66545" lon="-2.34243">
        <ele>29.8</ele>
        <time>2025-09-30T13:54:24Z</time>
      </trkpt>
      <trkpt lat="48.66584" lon="-2.34216">
        <ele>30.6</ele>
        <time>2025-09-30T13:54:34Z</time>
      </trkpt>
      <trkpt lat="48.66596" lon="-2.34208">
        <ele>31.2</ele>
        <time>2025-09-30T13:54:37Z</time>
      </trkpt>
      <trkpt lat="48.66613" lon="-2.34196">
        <ele>32.2</ele>
        <time>2025-09-30T13:54:41Z</time>
      </trkpt>
      <trkpt lat="48.66624" lon="-2.34188">
        <ele>32.4</ele>
        <time>2025-09-30T13:54:44Z</time>
      </trkpt>
      <trkpt lat="48.66638" lon="-2.34176">
        <ele>32.8</ele>
        <time>2025-09-30T13:54:48Z</time>
      </trkpt>
      <trkpt lat="48.66648" lon="-2.34164">
        <ele>32.8</ele>
        <time>2025-09-30T13:54:51Z</time>
      </trkpt>
      <trkpt lat="48.66666" lon="-2.34129">
        <ele>32.6</ele>
        <time>2025-09-30T13:54:58Z</time>
      </trkpt>
      <trkpt lat="48.66675" lon="-2.34079">
        <ele>33</ele>
        <time>2025-09-30T13:55:06Z</time>
      </trkpt>
      <trkpt lat="48.66681" lon="-2.34006">
        <ele>31.6</ele>
        <time>2025-09-30T13:55:17Z</time>
      </trkpt>
      <trkpt lat="48.66683" lon="-2.33977">
        <ele>31.2</ele>
        <time>2025-09-30T13:55:21Z</time>
      </trkpt>
      <trkpt lat="48.66686" lon="-2.33946">
        <ele>30.6</ele>
        <time>2025-09-30T13:55:26Z</time>
      </trkpt>
      <trkpt lat="48.66688" lon="-2.33928">
        <ele>30.2</ele>
        <time>2025-09-30T13:55:29Z</time>
      </trkpt>
      <trkpt lat="48.6669" lon="-2.33918">
        <ele>30</ele>
        <time>2025-09-30T13:55:31Z</time>
      </trkpt>
      <trkpt lat="48.66693" lon="-2.33901">
        <ele>29.6</ele>
        <time>2025-09-30T13:55:35Z</time>
      </trkpt>
      <trkpt lat="48.66694" lon="-2.33899">
        <ele>29.6</ele>
        <time>2025-09-30T13:55:36Z</time>
      </trkpt>
      <trkpt lat="48.66694" lon="-2.33898">
        <ele>29.2</ele>
        <time>2025-09-30T13:55:40Z</time>
      </trkpt>
      <trkpt lat="48.66694" lon="-2.33898">
        <ele>29</ele>
        <time>2025-09-30T13:55:45Z</time>
      </trkpt>
      <trkpt lat="48.66694" lon="-2.33898">
        <ele>29</ele>
        <time>2025-09-30T13:55:49Z</time>
      </trkpt>
      <trkpt lat="48.66694" lon="-2.33898">
        <ele>29</ele>
        <time>2025-09-30T13:55:50Z</time>
      </trkpt>
      <trkpt lat="48.66694" lon="-2.33898">
        <ele>29</ele>
        <time>2025-09-30T13:55:56Z</time>
      </trkpt>
      <trkpt lat="48.66694" lon="-2.33898">
        <ele>29.6</ele>
        <time>2025-09-30T13:56:03Z</time>
      </trkpt>
      <trkpt lat="48.66694" lon="-2.33898">
        <ele>29.6</ele>
        <time>2025-09-30T13:56:18Z</time>
      </trkpt>
      <trkpt lat="48.66694" lon="-2.33898">
        <ele>28.8</ele>
        <time>2025-09-30T13:56:31Z</time>
      </trkpt>
      <trkpt lat="48.66694" lon="-2.33898">
        <ele>29</ele>
        <time>2025-09-30T13:56:41Z</time>
      </trkpt>
      <trkpt lat="48.66695" lon="-2.33896">
        <ele>29</ele>
        <time>2025-09-30T13:56:45Z</time>
      </trkpt>
      <trkpt lat="48.66695" lon="-2.33894">
        <ele>29</ele>
        <time>2025-09-30T13:56:46Z</time>
      </trkpt>
      <trkpt lat="48.66695" lon="-2.33891">
        <ele>28.8</ele>
        <time>2025-09-30T13:56:47Z</time>
      </trkpt>
      <trkpt lat="48.66697" lon="-2.33884">
        <ele>28.8</ele>
        <time>2025-09-30T13:56:49Z</time>
      </trkpt>
      <trkpt lat="48.66699" lon="-2.33871">
        <ele>28.6</ele>
        <time>2025-09-30T13:56:52Z</time>
      </trkpt>
      <trkpt lat="48.66705" lon="-2.33843">
        <ele>28.4</ele>
        <time>2025-09-30T13:56:59Z</time>
      </trkpt>
      <trkpt lat="48.66708" lon="-2.33834">
        <ele>28.4</ele>
        <time>2025-09-30T13:57:02Z</time>
      </trkpt>
      <trkpt lat="48.66709" lon="-2.33831">
        <ele>28.4</ele>
        <time>2025-09-30T13:57:03Z</time>
      </trkpt>
      <trkpt lat="48.6671" lon="-2.33828">
        <ele>28.4</ele>
        <time>2025-09-30T13:57:05Z</time>
      </trkpt>
      <trkpt lat="48.6671" lon="-2.33826">
        <ele>28.2</ele>
        <time>2025-09-30T13:57:09Z</time>
      </trkpt>
      <trkpt lat="48.6671" lon="-2.33826">
        <ele>28.2</ele>
        <time>2025-09-30T13:57:10Z</time>
      </trkpt>
      <trkpt lat="48.6671" lon="-2.33826">
        <ele>28.2</ele>
        <time>2025-09-30T13:57:13Z</time>
      </trkpt>
      <trkpt lat="48.6671" lon="-2.33826">
        <ele>28.2</ele>
        <time>2025-09-30T13:57:17Z</time>
      </trkpt>
      <trkpt lat="48.6671" lon="-2.33826">
        <ele>28.4</ele>
        <time>2025-09-30T13:57:22Z</time>
      </trkpt>
      <trkpt lat="48.6671" lon="-2.33826">
        <ele>28.2</ele>
        <time>2025-09-30T13:57:24Z</time>
      </trkpt>
      <trkpt lat="48.6671" lon="-2.33826">
        <ele>28.2</ele>
        <time>2025-09-30T13:57:33Z</time>
      </trkpt>
      <trkpt lat="48.6671" lon="-2.33826">
        <ele>28.2</ele>
        <time>2025-09-30T13:57:55Z</time>
      </trkpt>
      <trkpt lat="48.66712" lon="-2.33818">
        <ele>28.4</ele>
        <time>2025-09-30T13:58:07Z</time>
      </trkpt>
      <trkpt lat="48.66717" lon="-2.33796">
        <ele>28.4</ele>
        <time>2025-09-30T13:58:12Z</time>
      </trkpt>
      <trkpt lat="48.66727" lon="-2.33765">
        <ele>28.6</ele>
        <time>2025-09-30T13:58:18Z</time>
      </trkpt>
      <trkpt lat="48.6673" lon="-2.33754">
        <ele>29</ele>
        <time>2025-09-30T13:58:20Z</time>
      </trkpt>
      <trkpt lat="48.66747" lon="-2.33716">
        <ele>29.4</ele>
        <time>2025-09-30T13:58:28Z</time>
      </trkpt>
      <trkpt lat="48.66761" lon="-2.33688">
        <ele>30</ele>
        <time>2025-09-30T13:58:34Z</time>
      </trkpt>
      <trkpt lat="48.66776" lon="-2.3366">
        <ele>30.4</ele>
        <time>2025-09-30T13:58:40Z</time>
      </trkpt>
      <trkpt lat="48.6679" lon="-2.33636">
        <ele>31</ele>
        <time>2025-09-30T13:58:45Z</time>
      </trkpt>
      <trkpt lat="48.66803" lon="-2.3362">
        <ele>31.8</ele>
        <time>2025-09-30T13:58:49Z</time>
      </trkpt>
      <trkpt lat="48.66812" lon="-2.33607">
        <ele>32</ele>
        <time>2025-09-30T13:58:52Z</time>
      </trkpt>
      <trkpt lat="48.66832" lon="-2.33585">
        <ele>32.6</ele>
        <time>2025-09-30T13:58:58Z</time>
      </trkpt>
      <trkpt lat="48.6684" lon="-2.33578">
        <ele>33</ele>
        <time>2025-09-30T13:59:00Z</time>
      </trkpt>
      <trkpt lat="48.66846" lon="-2.33571">
        <ele>33</ele>
        <time>2025-09-30T13:59:02Z</time>
      </trkpt>
      <trkpt lat="48.66885" lon="-2.33535">
        <ele>33.8</ele>
        <time>2025-09-30T13:59:13Z</time>
      </trkpt>
      <trkpt lat="48.66892" lon="-2.33529">
        <ele>34.2</ele>
        <time>2025-09-30T13:59:15Z</time>
      </trkpt>
      <trkpt lat="48.66907" lon="-2.33516">
        <ele>34.4</ele>
        <time>2025-09-30T13:59:19Z</time>
      </trkpt>
      <trkpt lat="48.66932" lon="-2.33494">
        <ele>35.2</ele>
        <time>2025-09-30T13:59:26Z</time>
      </trkpt>
      <trkpt lat="48.66936" lon="-2.33491">
        <ele>35.4</ele>
        <time>2025-09-30T13:59:27Z</time>
      </trkpt>
      <trkpt lat="48.66956" lon="-2.33467">
        <ele>36</ele>
        <time>2025-09-30T13:59:33Z</time>
      </trkpt>
      <trkpt lat="48.66968" lon="-2.33437">
        <ele>36.4</ele>
        <time>2025-09-30T13:59:39Z</time>
      </trkpt>
      <trkpt lat="48.6697" lon="-2.33431">
        <ele>36.4</ele>
        <time>2025-09-30T13:59:40Z</time>
      </trkpt>
      <trkpt lat="48.66975" lon="-2.3341">
        <ele>36.4</ele>
        <time>2025-09-30T13:59:44Z</time>
      </trkpt>
      <trkpt lat="48.66978" lon="-2.33394">
        <ele>36.6</ele>
        <time>2025-09-30T13:59:47Z</time>
      </trkpt>
      <trkpt lat="48.66977" lon="-2.33356">
        <ele>37.2</ele>
        <time>2025-09-30T13:59:54Z</time>
      </trkpt>
      <trkpt lat="48.66976" lon="-2.33334">
        <ele>37.4</ele>
        <time>2025-09-30T13:59:58Z</time>
      </trkpt>
      <trkpt lat="48.66974" lon="-2.33305">
        <ele>38.2</ele>
        <time>2025-09-30T14:00:03Z</time>
      </trkpt>
      <trkpt lat="48.66973" lon="-2.33288">
        <ele>38.6</ele>
        <time>2025-09-30T14:00:06Z</time>
      </trkpt>
      <trkpt lat="48.66972" lon="-2.33246">
        <ele>39.2</ele>
        <time>2025-09-30T14:00:13Z</time>
      </trkpt>
      <trkpt lat="48.66972" lon="-2.33236">
        <ele>39.6</ele>
        <time>2025-09-30T14:00:15Z</time>
      </trkpt>
      <trkpt lat="48.66975" lon="-2.332">
        <ele>40.6</ele>
        <time>2025-09-30T14:00:21Z</time>
      </trkpt>
      <trkpt lat="48.66984" lon="-2.33154">
        <ele>41.6</ele>
        <time>2025-09-30T14:00:29Z</time>
      </trkpt>
      <trkpt lat="48.66985" lon="-2.33148">
        <ele>41.8</ele>
        <time>2025-09-30T14:00:30Z</time>
      </trkpt>
      <trkpt lat="48.66996" lon="-2.33116">
        <ele>42.2</ele>
        <time>2025-09-30T14:00:37Z</time>
      </trkpt>
      <trkpt lat="48.67001" lon="-2.33107">
        <ele>42.2</ele>
        <time>2025-09-30T14:00:43Z</time>
      </trkpt>
      <trkpt lat="48.67001" lon="-2.33107">
        <ele>42.6</ele>
        <time>2025-09-30T14:00:54Z</time>
      </trkpt>
      <trkpt lat="48.67001" lon="-2.33107">
        <ele>42.4</ele>
        <time>2025-09-30T14:00:59Z</time>
      </trkpt>
      <trkpt lat="48.67001" lon="-2.33107">
        <ele>42.4</ele>
        <time>2025-09-30T14:01:04Z</time>
      </trkpt>
      <trkpt lat="48.67001" lon="-2.33107">
        <ele>42.4</ele>
        <time>2025-09-30T14:01:11Z</time>
      </trkpt>
      <trkpt lat="48.67001" lon="-2.33107">
        <ele>42.4</ele>
        <time>2025-09-30T14:01:14Z</time>
      </trkpt>
      <trkpt lat="48.67001" lon="-2.33107">
        <ele>42.4</ele>
        <time>2025-09-30T14:01:17Z</time>
      </trkpt>
      <trkpt lat="48.67001" lon="-2.33107">
        <ele>42.2</ele>
        <time>2025-09-30T14:01:37Z</time>
      </trkpt>
      <trkpt lat="48.67001" lon="-2.33107">
        <ele>42.2</ele>
        <time>2025-09-30T14:02:06Z</time>
      </trkpt>
      <trkpt lat="48.67006" lon="-2.33099">
        <ele>42.4</ele>
        <time>2025-09-30T14:02:21Z</time>
      </trkpt>
      <trkpt lat="48.67017" lon="-2.33077">
        <ele>42.8</ele>
        <time>2025-09-30T14:02:26Z</time>
      </trkpt>
      <trkpt lat="48.67023" lon="-2.33068">
        <ele>43.2</ele>
        <time>2025-09-30T14:02:28Z</time>
      </trkpt>
      <trkpt lat="48.67034" lon="-2.33052">
        <ele>43.6</ele>
        <time>2025-09-30T14:02:32Z</time>
      </trkpt>
      <trkpt lat="48.67037" lon="-2.33048">
        <ele>43.6</ele>
        <time>2025-09-30T14:02:33Z</time>
      </trkpt>
      <trkpt lat="48.6704" lon="-2.33044">
        <ele>43.8</ele>
        <time>2025-09-30T14:02:34Z</time>
      </trkpt>
      <trkpt lat="48.67067" lon="-2.33006">
        <ele>44.2</ele>
        <time>2025-09-30T14:02:43Z</time>
      </trkpt>
      <trkpt lat="48.67094" lon="-2.32969">
        <ele>44.4</ele>
        <time>2025-09-30T14:02:53Z</time>
      </trkpt>
      <trkpt lat="48.6711" lon="-2.32949">
        <ele>44.4</ele>
        <time>2025-09-30T14:03:00Z</time>
      </trkpt>
      <trkpt lat="48.67122" lon="-2.32931">
        <ele>44.4</ele>
        <time>2025-09-30T14:03:06Z</time>
      </trkpt>
      <trkpt lat="48.67131" lon="-2.32918">
        <ele>44.4</ele>
        <time>2025-09-30T14:03:11Z</time>
      </trkpt>
      <trkpt lat="48.67142" lon="-2.32904">
        <ele>44</ele>
        <time>2025-09-30T14:03:16Z</time>
      </trkpt>
      <trkpt lat="48.67155" lon="-2.32887">
        <ele>43.8</ele>
        <time>2025-09-30T14:03:21Z</time>
      </trkpt>
      <trkpt lat="48.6718" lon="-2.32851">
        <ele>43</ele>
        <time>2025-09-30T14:03:30Z</time>
      </trkpt>
      <trkpt lat="48.67188" lon="-2.32839">
        <ele>42.6</ele>
        <time>2025-09-30T14:03:33Z</time>
      </trkpt>
      <trkpt lat="48.67203" lon="-2.32816">
        <ele>42.2</ele>
        <time>2025-09-30T14:03:38Z</time>
      </trkpt>
      <trkpt lat="48.67231" lon="-2.3278">
        <ele>42.4</ele>
        <time>2025-09-30T14:03:47Z</time>
      </trkpt>
      <trkpt lat="48.67259" lon="-2.3274">
        <ele>43.8</ele>
        <time>2025-09-30T14:03:57Z</time>
      </trkpt>
      <trkpt lat="48.67268" lon="-2.32729">
        <ele>44.4</ele>
        <time>2025-09-30T14:04:00Z</time>
      </trkpt>
      <trkpt lat="48.6728" lon="-2.32713">
        <ele>44.8</ele>
        <time>2025-09-30T14:04:04Z</time>
      </trkpt>
      <trkpt lat="48.67289" lon="-2.32702">
        <ele>45.6</ele>
        <time>2025-09-30T14:04:07Z</time>
      </trkpt>
      <trkpt lat="48.67295" lon="-2.32695">
        <ele>45.8</ele>
        <time>2025-09-30T14:04:09Z</time>
      </trkpt>
      <trkpt lat="48.67314" lon="-2.32676">
        <ele>46.8</ele>
        <time>2025-09-30T14:04:15Z</time>
      </trkpt>
      <trkpt lat="48.67321" lon="-2.3267">
        <ele>47</ele>
        <time>2025-09-30T14:04:17Z</time>
      </trkpt>
      <trkpt lat="48.67332" lon="-2.32663">
        <ele>47.6</ele>
        <time>2025-09-30T14:04:20Z</time>
      </trkpt>
      <trkpt lat="48.67342" lon="-2.32657">
        <ele>48</ele>
        <time>2025-09-30T14:04:23Z</time>
      </trkpt>
      <trkpt lat="48.67346" lon="-2.32655">
        <ele>48.4</ele>
        <time>2025-09-30T14:04:24Z</time>
      </trkpt>
      <trkpt lat="48.67365" lon="-2.32647">
        <ele>49.4</ele>
        <time>2025-09-30T14:04:29Z</time>
      </trkpt>
      <trkpt lat="48.67377" lon="-2.32645">
        <ele>49.8</ele>
        <time>2025-09-30T14:04:32Z</time>
      </trkpt>
      <trkpt lat="48.674" lon="-2.3264">
        <ele>50.6</ele>
        <time>2025-09-30T14:04:38Z</time>
      </trkpt>
      <trkpt lat="48.67416" lon="-2.32637">
        <ele>51.2</ele>
        <time>2025-09-30T14:04:42Z</time>
      </trkpt>
      <trkpt lat="48.67435" lon="-2.32631">
        <ele>51.6</ele>
        <time>2025-09-30T14:04:47Z</time>
      </trkpt>
      <trkpt lat="48.67449" lon="-2.32624">
        <ele>51.6</ele>
        <time>2025-09-30T14:04:51Z</time>
      </trkpt>
      <trkpt lat="48.67477" lon="-2.32603">
        <ele>51.4</ele>
        <time>2025-09-30T14:04:59Z</time>
      </trkpt>
      <trkpt lat="48.6751" lon="-2.32565">
        <ele>50.6</ele>
        <time>2025-09-30T14:05:09Z</time>
      </trkpt>
      <trkpt lat="48.67513" lon="-2.32561">
        <ele>50.6</ele>
        <time>2025-09-30T14:05:10Z</time>
      </trkpt>
      <trkpt lat="48.6754" lon="-2.32522">
        <ele>49.8</ele>
        <time>2025-09-30T14:05:18Z</time>
      </trkpt>
      <trkpt lat="48.67554" lon="-2.32502">
        <ele>49.4</ele>
        <time>2025-09-30T14:05:22Z</time>
      </trkpt>
      <trkpt lat="48.67564" lon="-2.32488">
        <ele>49</ele>
        <time>2025-09-30T14:05:25Z</time>
      </trkpt>
      <trkpt lat="48.6757" lon="-2.32479">
        <ele>49</ele>
        <time>2025-09-30T14:05:27Z</time>
      </trkpt>
      <trkpt lat="48.67596" lon="-2.32442">
        <ele>49.2</ele>
        <time>2025-09-30T14:05:35Z</time>
      </trkpt>
      <trkpt lat="48.67603" lon="-2.32432">
        <ele>49.4</ele>
        <time>2025-09-30T14:05:37Z</time>
      </trkpt>
      <trkpt lat="48.67626" lon="-2.32399">
        <ele>49.8</ele>
        <time>2025-09-30T14:05:45Z</time>
      </trkpt>
      <trkpt lat="48.67641" lon="-2.32377">
        <ele>50.6</ele>
        <time>2025-09-30T14:05:50Z</time>
      </trkpt>
      <trkpt lat="48.67665" lon="-2.32344">
        <ele>51.8</ele>
        <time>2025-09-30T14:05:58Z</time>
      </trkpt>
      <trkpt lat="48.67682" lon="-2.32317">
        <ele>52.8</ele>
        <time>2025-09-30T14:06:04Z</time>
      </trkpt>
      <trkpt lat="48.67685" lon="-2.32313">
        <ele>52.8</ele>
        <time>2025-09-30T14:06:05Z</time>
      </trkpt>
      <trkpt lat="48.67691" lon="-2.32305">
        <ele>53.2</ele>
        <time>2025-09-30T14:06:07Z</time>
      </trkpt>
      <trkpt lat="48.67706" lon="-2.32283">
        <ele>53.8</ele>
        <time>2025-09-30T14:06:12Z</time>
      </trkpt>
      <trkpt lat="48.67723" lon="-2.32256">
        <ele>54.8</ele>
        <time>2025-09-30T14:06:18Z</time>
      </trkpt>
      <trkpt lat="48.67726" lon="-2.32252">
        <ele>55</ele>
        <time>2025-09-30T14:06:19Z</time>
      </trkpt>
      <trkpt lat="48.67735" lon="-2.32237">
        <ele>55.4</ele>
        <time>2025-09-30T14:06:22Z</time>
      </trkpt>
      <trkpt lat="48.67743" lon="-2.3222">
        <ele>56</ele>
        <time>2025-09-30T14:06:25Z</time>
      </trkpt>
      <trkpt lat="48.67745" lon="-2.32215">
        <ele>56.2</ele>
        <time>2025-09-30T14:06:26Z</time>
      </trkpt>
      <trkpt lat="48.6776" lon="-2.32173">
        <ele>57.4</ele>
        <time>2025-09-30T14:06:33Z</time>
      </trkpt>
      <trkpt lat="48.67768" lon="-2.32149">
        <ele>57.6</ele>
        <time>2025-09-30T14:06:37Z</time>
      </trkpt>
      <trkpt lat="48.67789" lon="-2.32083">
        <ele>57.6</ele>
        <time>2025-09-30T14:06:48Z</time>
      </trkpt>
      <trkpt lat="48.67807" lon="-2.32027">
        <ele>57.2</ele>
        <time>2025-09-30T14:06:57Z</time>
      </trkpt>
      <trkpt lat="48.67818" lon="-2.31994">
        <ele>57</ele>
        <time>2025-09-30T14:07:02Z</time>
      </trkpt>
      <trkpt lat="48.67827" lon="-2.31968">
        <ele>56.8</ele>
        <time>2025-09-30T14:07:06Z</time>
      </trkpt>
      <trkpt lat="48.67847" lon="-2.31906">
        <ele>56.6</ele>
        <time>2025-09-30T14:07:16Z</time>
      </trkpt>
      <trkpt lat="48.67859" lon="-2.31873">
        <ele>56.2</ele>
        <time>2025-09-30T14:07:21Z</time>
      </trkpt>
      <trkpt lat="48.67869" lon="-2.31847">
        <ele>56</ele>
        <time>2025-09-30T14:07:25Z</time>
      </trkpt>
      <trkpt lat="48.67881" lon="-2.31824">
        <ele>55.6</ele>
        <time>2025-09-30T14:07:29Z</time>
      </trkpt>
      <trkpt lat="48.67892" lon="-2.31812">
        <ele>55.4</ele>
        <time>2025-09-30T14:07:32Z</time>
      </trkpt>
      <trkpt lat="48.67896" lon="-2.31808">
        <ele>55.4</ele>
        <time>2025-09-30T14:07:33Z</time>
      </trkpt>
      <trkpt lat="48.67913" lon="-2.318">
        <ele>55.4</ele>
        <time>2025-09-30T14:07:37Z</time>
      </trkpt>
      <trkpt lat="48.67944" lon="-2.31798">
        <ele>55.4</ele>
        <time>2025-09-30T14:07:44Z</time>
      </trkpt>
      <trkpt lat="48.67994" lon="-2.31801">
        <ele>55.4</ele>
        <time>2025-09-30T14:07:55Z</time>
      </trkpt>
      <trkpt lat="48.68044" lon="-2.31801">
        <ele>55.4</ele>
        <time>2025-09-30T14:08:06Z</time>
      </trkpt>
      <trkpt lat="48.68084" lon="-2.31796">
        <ele>56</ele>
        <time>2025-09-30T14:08:15Z</time>
      </trkpt>
      <trkpt lat="48.68092" lon="-2.31792">
        <ele>56</ele>
        <time>2025-09-30T14:08:17Z</time>
      </trkpt>
      <trkpt lat="48.681" lon="-2.31786">
        <ele>56</ele>
        <time>2025-09-30T14:08:20Z</time>
      </trkpt>
      <trkpt lat="48.68102" lon="-2.31785">
        <ele>56</ele>
        <time>2025-09-30T14:08:21Z</time>
      </trkpt>
      <trkpt lat="48.68107" lon="-2.31786">
        <ele>56</ele>
        <time>2025-09-30T14:08:24Z</time>
      </trkpt>
      <trkpt lat="48.68108" lon="-2.31787">
        <ele>56</ele>
        <time>2025-09-30T14:08:30Z</time>
      </trkpt>
      <trkpt lat="48.68107" lon="-2.31786">
        <ele>56.2</ele>
        <time>2025-09-30T14:08:40Z</time>
      </trkpt>
      <trkpt lat="48.68106" lon="-2.31782">
        <ele>56.2</ele>
        <time>2025-09-30T14:08:43Z</time>
      </trkpt>
      <trkpt lat="48.68107" lon="-2.31782">
        <ele>56.2</ele>
        <time>2025-09-30T14:08:45Z</time>
      </trkpt>
      <trkpt lat="48.68107" lon="-2.31781">
        <ele>56</ele>
        <time>2025-09-30T14:08:49Z</time>
      </trkpt>
      <trkpt lat="48.68108" lon="-2.31781">
        <ele>56.4</ele>
        <time>2025-09-30T14:08:51Z</time>
      </trkpt>
      <trkpt lat="48.68111" lon="-2.31781">
        <ele>56.4</ele>
        <time>2025-09-30T14:08:52Z</time>
      </trkpt>
      <trkpt lat="48.68126" lon="-2.31783">
        <ele>56.4</ele>
        <time>2025-09-30T14:08:56Z</time>
      </trkpt>
      <trkpt lat="48.68153" lon="-2.31786">
        <ele>56.6</ele>
        <time>2025-09-30T14:09:03Z</time>
      </trkpt>
      <trkpt lat="48.68188" lon="-2.31797">
        <ele>56.8</ele>
        <time>2025-09-30T14:09:12Z</time>
      </trkpt>
      <trkpt lat="48.68215" lon="-2.31809">
        <ele>56.6</ele>
        <time>2025-09-30T14:09:20Z</time>
      </trkpt>
      <trkpt lat="48.68225" lon="-2.3181">
        <ele>56.6</ele>
        <time>2025-09-30T14:09:23Z</time>
      </trkpt>
      <trkpt lat="48.68228" lon="-2.31807">
        <ele>56.4</ele>
        <time>2025-09-30T14:09:24Z</time>
      </trkpt>
      <trkpt lat="48.68231" lon="-2.31787">
        <ele>56.4</ele>
        <time>2025-09-30T14:09:28Z</time>
      </trkpt>
      <trkpt lat="48.68231" lon="-2.31775">
        <ele>56.4</ele>
        <time>2025-09-30T14:09:31Z</time>
      </trkpt>
      <trkpt lat="48.68229" lon="-2.31769">
        <ele>56.4</ele>
        <time>2025-09-30T14:09:33Z</time>
      </trkpt>
      <trkpt lat="48.68228" lon="-2.31766">
        <ele>56.4</ele>
        <time>2025-09-30T14:09:34Z</time>
      </trkpt>
      <trkpt lat="48.68228" lon="-2.31755">
        <ele>56.4</ele>
        <time>2025-09-30T14:09:38Z</time>
      </trkpt>
      <trkpt lat="48.68228" lon="-2.31746">
        <ele>56.4</ele>
        <time>2025-09-30T14:09:42Z</time>
      </trkpt>
      <trkpt lat="48.68228" lon="-2.31745">
        <ele>56.2</ele>
        <time>2025-09-30T14:09:43Z</time>
      </trkpt>
      <trkpt lat="48.68228" lon="-2.31744">
        <ele>55.8</ele>
        <time>2025-09-30T14:09:47Z</time>
      </trkpt>
      <trkpt lat="48.68228" lon="-2.31744">
        <ele>55.8</ele>
        <time>2025-09-30T14:09:50Z</time>
      </trkpt>
      <trkpt lat="48.68228" lon="-2.31744">
        <ele>55.8</ele>
        <time>2025-09-30T14:09:52Z</time>
      </trkpt>
      <trkpt lat="48.68228" lon="-2.31744">
        <ele>55.8</ele>
        <time>2025-09-30T14:09:54Z</time>
      </trkpt>
      <trkpt lat="48.68228" lon="-2.31744">
        <ele>55.8</ele>
        <time>2025-09-30T14:09:59Z</time>
      </trkpt>
      <trkpt lat="48.68228" lon="-2.31744">
        <ele>55.8</ele>
        <time>2025-09-30T14:10:08Z</time>
      </trkpt>
      <trkpt lat="48.68228" lon="-2.31744">
        <ele>55.8</ele>
        <time>2025-09-30T14:10:14Z</time>
      </trkpt>
      <trkpt lat="48.68228" lon="-2.31744">
        <ele>55.8</ele>
        <time>2025-09-30T14:10:26Z</time>
      </trkpt>
      <trkpt lat="48.68228" lon="-2.31745">
        <ele>55.8</ele>
        <time>2025-09-30T14:10:35Z</time>
      </trkpt>
      <trkpt lat="48.68228" lon="-2.31745">
        <ele>55.8</ele>
        <time>2025-09-30T14:10:38Z</time>
      </trkpt>
      <trkpt lat="48.68228" lon="-2.31745">
        <ele>55.8</ele>
        <time>2025-09-30T14:10:40Z</time>
      </trkpt>
      <trkpt lat="48.68228" lon="-2.31745">
        <ele>55.8</ele>
        <time>2025-09-30T14:10:46Z</time>
      </trkpt>
      <trkpt lat="48.68228" lon="-2.31745">
        <ele>55.8</ele>
        <time>2025-09-30T14:10:57Z</time>
      </trkpt>
      <trkpt lat="48.68228" lon="-2.31745">
        <ele>55.8</ele>
        <time>2025-09-30T14:11:08Z</time>
      </trkpt>
      <trkpt lat="48.68228" lon="-2.31745">
        <ele>55.8</ele>
        <time>2025-09-30T14:11:14Z</time>
      </trkpt>
      <trkpt lat="48.68228" lon="-2.31745">
        <ele>55.8</ele>
        <time>2025-09-30T14:11:18Z</time>
      </trkpt>
      <trkpt lat="48.68229" lon="-2.31748">
        <ele>55.8</ele>
        <time>2025-09-30T14:11:20Z</time>
      </trkpt>
      <trkpt lat="48.6823" lon="-2.31748">
        <ele>56</ele>
        <time>2025-09-30T14:11:23Z</time>
      </trkpt>
      <trkpt lat="48.68226" lon="-2.31745">
        <ele>56.2</ele>
        <time>2025-09-30T14:11:29Z</time>
      </trkpt>
      <trkpt lat="48.68226" lon="-2.31746">
        <ele>56</ele>
        <time>2025-09-30T14:11:37Z</time>
      </trkpt>
      <trkpt lat="48.68231" lon="-2.31747">
        <ele>55.8</ele>
        <time>2025-09-30T14:11:43Z</time>
      </trkpt>
      <trkpt lat="48.68231" lon="-2.31746">
        <ele>55.8</ele>
        <time>2025-09-30T14:11:44Z</time>
      </trkpt>
      <trkpt lat="48.68237" lon="-2.31738">
        <ele>55.6</ele>
        <time>2025-09-30T14:11:50Z</time>
      </trkpt>
      <trkpt lat="48.68241" lon="-2.31736">
        <ele>56</ele>
        <time>2025-09-30T14:11:55Z</time>
      </trkpt>
      <trkpt lat="48.68245" lon="-2.31734">
        <ele>55</ele>
        <time>2025-09-30T14:11:58Z</time>
      </trkpt>
      <trkpt lat="48.68255" lon="-2.31733">
        <ele>54.6</ele>
        <time>2025-09-30T14:12:06Z</time>
      </trkpt>
      <trkpt lat="48.68261" lon="-2.31732">
        <ele>54.8</ele>
        <time>2025-09-30T14:12:13Z</time>
      </trkpt>
      <trkpt lat="48.68261" lon="-2.31732">
        <ele>54.8</ele>
        <time>2025-09-30T14:12:17Z</time>
      </trkpt>
      <trkpt lat="48.68261" lon="-2.31732">
        <ele>55.2</ele>
        <time>2025-09-30T14:12:30Z</time>
      </trkpt>
      <trkpt lat="48.68269" lon="-2.31728">
        <ele>54.4</ele>
        <time>2025-09-30T14:12:36Z</time>
      </trkpt>
      <trkpt lat="48.6827" lon="-2.31727">
        <ele>54.4</ele>
        <time>2025-09-30T14:12:37Z</time>
      </trkpt>
      <trkpt lat="48.68276" lon="-2.31729">
        <ele>54.4</ele>
        <time>2025-09-30T14:12:42Z</time>
      </trkpt>
      <trkpt lat="48.68282" lon="-2.3173">
        <ele>54.6</ele>
        <time>2025-09-30T14:12:48Z</time>
      </trkpt>
      <trkpt lat="48.68284" lon="-2.31731">
        <ele>54.6</ele>
        <time>2025-09-30T14:12:50Z</time>
      </trkpt>
      <trkpt lat="48.6829" lon="-2.31736">
        <ele>54.6</ele>
        <time>2025-09-30T14:12:55Z</time>
      </trkpt>
      <trkpt lat="48.68292" lon="-2.31738">
        <ele>54.6</ele>
        <time>2025-09-30T14:12:57Z</time>
      </trkpt>
      <trkpt lat="48.68293" lon="-2.3174">
        <ele>54.8</ele>
        <time>2025-09-30T14:12:59Z</time>
      </trkpt>
      <trkpt lat="48.68295" lon="-2.31746">
        <ele>54.8</ele>
        <time>2025-09-30T14:13:02Z</time>
      </trkpt>
      <trkpt lat="48.68297" lon="-2.31752">
        <ele>55</ele>
        <time>2025-09-30T14:13:05Z</time>
      </trkpt>
      <trkpt lat="48.68299" lon="-2.31754">
        <ele>55</ele>
        <time>2025-09-30T14:13:07Z</time>
      </trkpt>
      <trkpt lat="48.683" lon="-2.31755">
        <ele>55.2</ele>
        <time>2025-09-30T14:13:10Z</time>
      </trkpt>
      <trkpt lat="48.68301" lon="-2.31761">
        <ele>55.4</ele>
        <time>2025-09-30T14:13:13Z</time>
      </trkpt>
      <trkpt lat="48.68302" lon="-2.31764">
        <ele>55.4</ele>
        <time>2025-09-30T14:13:15Z</time>
      </trkpt>
      <trkpt lat="48.68304" lon="-2.31768">
        <ele>55.4</ele>
        <time>2025-09-30T14:13:17Z</time>
      </trkpt>
      <trkpt lat="48.68304" lon="-2.31769">
        <ele>55.4</ele>
        <time>2025-09-30T14:13:18Z</time>
      </trkpt>
      <trkpt lat="48.68307" lon="-2.31775">
        <ele>55.8</ele>
        <time>2025-09-30T14:13:22Z</time>
      </trkpt>
      <trkpt lat="48.6831" lon="-2.3178">
        <ele>55.8</ele>
        <time>2025-09-30T14:13:25Z</time>
      </trkpt>
      <trkpt lat="48.68311" lon="-2.31781">
        <ele>55.8</ele>
        <time>2025-09-30T14:13:26Z</time>
      </trkpt>
      <trkpt lat="48.68312" lon="-2.31791">
        <ele>56</ele>
        <time>2025-09-30T14:13:30Z</time>
      </trkpt>
      <trkpt lat="48.68313" lon="-2.31793">
        <ele>56</ele>
        <time>2025-09-30T14:13:31Z</time>
      </trkpt>
      <trkpt lat="48.68313" lon="-2.31795">
        <ele>56</ele>
        <time>2025-09-30T14:13:33Z</time>
      </trkpt>
      <trkpt lat="48.68314" lon="-2.31795">
        <ele>56.2</ele>
        <time>2025-09-30T14:13:34Z</time>
      </trkpt>
      <trkpt lat="48.68315" lon="-2.31795">
        <ele>56.2</ele>
        <time>2025-09-30T14:13:35Z</time>
      </trkpt>
      <trkpt lat="48.68317" lon="-2.31798">
        <ele>56.2</ele>
        <time>2025-09-30T14:13:37Z</time>
      </trkpt>
      <trkpt lat="48.68321" lon="-2.31803">
        <ele>56.4</ele>
        <time>2025-09-30T14:13:40Z</time>
      </trkpt>
      <trkpt lat="48.68325" lon="-2.31807">
        <ele>56.6</ele>
        <time>2025-09-30T14:13:43Z</time>
      </trkpt>
      <trkpt lat="48.68325" lon="-2.31808">
        <ele>56.8</ele>
        <time>2025-09-30T14:13:44Z</time>
      </trkpt>
      <trkpt lat="48.68327" lon="-2.31808">
        <ele>56.8</ele>
        <time>2025-09-30T14:13:46Z</time>
      </trkpt>
      <trkpt lat="48.68327" lon="-2.31809">
        <ele>56.8</ele>
        <time>2025-09-30T14:13:47Z</time>
      </trkpt>
      <trkpt lat="48.68329" lon="-2.31819">
        <ele>57.2</ele>
        <time>2025-09-30T14:13:51Z</time>
      </trkpt>
      <trkpt lat="48.68329" lon="-2.31822">
        <ele>57.2</ele>
        <time>2025-09-30T14:13:52Z</time>
      </trkpt>
      <trkpt lat="48.68332" lon="-2.31824">
        <ele>57.6</ele>
        <time>2025-09-30T14:13:55Z</time>
      </trkpt>
      <trkpt lat="48.68333" lon="-2.31825">
        <ele>57.8</ele>
        <time>2025-09-30T14:13:57Z</time>
      </trkpt>
      <trkpt lat="48.68333" lon="-2.31826">
        <ele>58</ele>
        <time>2025-09-30T14:13:59Z</time>
      </trkpt>
      <trkpt lat="48.68335" lon="-2.31834">
        <ele>58.2</ele>
        <time>2025-09-30T14:14:02Z</time>
      </trkpt>
      <trkpt lat="48.68336" lon="-2.31838">
        <ele>58.4</ele>
        <time>2025-09-30T14:14:03Z</time>
      </trkpt>
      <trkpt lat="48.68336" lon="-2.31839">
        <ele>58.4</ele>
        <time>2025-09-30T14:14:04Z</time>
      </trkpt>
      <trkpt lat="48.68337" lon="-2.31841">
        <ele>58.6</ele>
        <time>2025-09-30T14:14:06Z</time>
      </trkpt>
      <trkpt lat="48.68338" lon="-2.31851">
        <ele>58.8</ele>
        <time>2025-09-30T14:14:12Z</time>
      </trkpt>
      <trkpt lat="48.68338" lon="-2.31855">
        <ele>58.8</ele>
        <time>2025-09-30T14:14:13Z</time>
      </trkpt>
      <trkpt lat="48.68339" lon="-2.3186">
        <ele>59</ele>
        <time>2025-09-30T14:14:18Z</time>
      </trkpt>
      <trkpt lat="48.6834" lon="-2.3186">
        <ele>59.2</ele>
        <time>2025-09-30T14:14:20Z</time>
      </trkpt>
      <trkpt lat="48.68343" lon="-2.31858">
        <ele>59.4</ele>
        <time>2025-09-30T14:14:23Z</time>
      </trkpt>
      <trkpt lat="48.68344" lon="-2.31852">
        <ele>59.2</ele>
        <time>2025-09-30T14:14:27Z</time>
      </trkpt>
      <trkpt lat="48.68344" lon="-2.31851">
        <ele>59.2</ele>
        <time>2025-09-30T14:14:28Z</time>
      </trkpt>
      <trkpt lat="48.68347" lon="-2.31846">
        <ele>59.2</ele>
        <time>2025-09-30T14:14:31Z</time>
      </trkpt>
      <trkpt lat="48.6835" lon="-2.31844">
        <ele>59.2</ele>
        <time>2025-09-30T14:14:34Z</time>
      </trkpt>
      <trkpt lat="48.68351" lon="-2.31842">
        <ele>59.2</ele>
        <time>2025-09-30T14:14:36Z</time>
      </trkpt>
      <trkpt lat="48.68352" lon="-2.31841">
        <ele>59.2</ele>
        <time>2025-09-30T14:14:38Z</time>
      </trkpt>
      <trkpt lat="48.68354" lon="-2.31841">
        <ele>59</ele>
        <time>2025-09-30T14:14:39Z</time>
      </trkpt>
      <trkpt lat="48.68355" lon="-2.31841">
        <ele>59</ele>
        <time>2025-09-30T14:14:40Z</time>
      </trkpt>
      <trkpt lat="48.68361" lon="-2.3184">
        <ele>59</ele>
        <time>2025-09-30T14:14:44Z</time>
      </trkpt>
      <trkpt lat="48.68359" lon="-2.31841">
        <ele>59</ele>
        <time>2025-09-30T14:14:47Z</time>
      </trkpt>
      <trkpt lat="48.68359" lon="-2.31841">
        <ele>59.2</ele>
        <time>2025-09-30T14:14:56Z</time>
      </trkpt>
      <trkpt lat="48.68358" lon="-2.31842">
        <ele>59</ele>
        <time>2025-09-30T14:15:02Z</time>
      </trkpt>
      <trkpt lat="48.68358" lon="-2.31842">
        <ele>59.2</ele>
        <time>2025-09-30T14:15:03Z</time>
      </trkpt>
      <trkpt lat="48.68358" lon="-2.31842">
        <ele>59.4</ele>
        <time>2025-09-30T14:15:05Z</time>
      </trkpt>
      <trkpt lat="48.6836" lon="-2.31846">
        <ele>59</ele>
        <time>2025-09-30T14:15:08Z</time>
      </trkpt>
      <trkpt lat="48.68361" lon="-2.31849">
        <ele>59</ele>
        <time>2025-09-30T14:15:10Z</time>
      </trkpt>
      <trkpt lat="48.68363" lon="-2.31854">
        <ele>59</ele>
        <time>2025-09-30T14:15:14Z</time>
      </trkpt>
      <trkpt lat="48.68364" lon="-2.31857">
        <ele>59</ele>
        <time>2025-09-30T14:15:16Z</time>
      </trkpt>
      <trkpt lat="48.68365" lon="-2.31868">
        <ele>59</ele>
        <time>2025-09-30T14:15:22Z</time>
      </trkpt>
      <trkpt lat="48.68366" lon="-2.31879">
        <ele>59</ele>
        <time>2025-09-30T14:15:27Z</time>
      </trkpt>
      <trkpt lat="48.68368" lon="-2.31882">
        <ele>59</ele>
        <time>2025-09-30T14:15:30Z</time>
      </trkpt>
      <trkpt lat="48.68374" lon="-2.31887">
        <ele>59.2</ele>
        <time>2025-09-30T14:15:36Z</time>
      </trkpt>
      <trkpt lat="48.68376" lon="-2.31888">
        <ele>59.2</ele>
        <time>2025-09-30T14:15:38Z</time>
      </trkpt>
      <trkpt lat="48.68378" lon="-2.3189">
        <ele>59.4</ele>
        <time>2025-09-30T14:15:40Z</time>
      </trkpt>
      <trkpt lat="48.68385" lon="-2.31891">
        <ele>59.4</ele>
        <time>2025-09-30T14:15:45Z</time>
      </trkpt>
      <trkpt lat="48.68393" lon="-2.31893">
        <ele>59.8</ele>
        <time>2025-09-30T14:15:51Z</time>
      </trkpt>
      <trkpt lat="48.68394" lon="-2.31893">
        <ele>59.8</ele>
        <time>2025-09-30T14:15:52Z</time>
      </trkpt>
      <trkpt lat="48.68395" lon="-2.31897">
        <ele>59.8</ele>
        <time>2025-09-30T14:15:55Z</time>
      </trkpt>
      <trkpt lat="48.68398" lon="-2.31904">
        <ele>60</ele>
        <time>2025-09-30T14:16:01Z</time>
      </trkpt>
      <trkpt lat="48.68399" lon="-2.31905">
        <ele>60</ele>
        <time>2025-09-30T14:16:02Z</time>
      </trkpt>
      <trkpt lat="48.68407" lon="-2.31905">
        <ele>60</ele>
        <time>2025-09-30T14:16:09Z</time>
      </trkpt>
      <trkpt lat="48.68412" lon="-2.31904">
        <ele>60</ele>
        <time>2025-09-30T14:16:15Z</time>
      </trkpt>
      <trkpt lat="48.68413" lon="-2.31904">
        <ele>60.2</ele>
        <time>2025-09-30T14:16:16Z</time>
      </trkpt>
      <trkpt lat="48.68414" lon="-2.31904">
        <ele>60.2</ele>
        <time>2025-09-30T14:16:17Z</time>
      </trkpt>
      <trkpt lat="48.68415" lon="-2.31904">
        <ele>60.2</ele>
        <time>2025-09-30T14:16:18Z</time>
      </trkpt>
      <trkpt lat="48.68421" lon="-2.31907">
        <ele>60</ele>
        <time>2025-09-30T14:16:23Z</time>
      </trkpt>
      <trkpt lat="48.68421" lon="-2.31907">
        <ele>60</ele>
        <time>2025-09-30T14:16:24Z</time>
      </trkpt>
      <trkpt lat="48.68426" lon="-2.31907">
        <ele>59.4</ele>
        <time>2025-09-30T14:16:31Z</time>
      </trkpt>
      <trkpt lat="48.68427" lon="-2.31908">
        <ele>59.4</ele>
        <time>2025-09-30T14:16:37Z</time>
      </trkpt>
      <trkpt lat="48.68427" lon="-2.31908">
        <ele>59.4</ele>
        <time>2025-09-30T14:16:38Z</time>
      </trkpt>
      <trkpt lat="48.68427" lon="-2.31908">
        <ele>59.4</ele>
        <time>2025-09-30T14:16:39Z</time>
      </trkpt>
      <trkpt lat="48.68427" lon="-2.31908">
        <ele>59.4</ele>
        <time>2025-09-30T14:16:40Z</time>
      </trkpt>
      <trkpt lat="48.68427" lon="-2.31908">
        <ele>59.4</ele>
        <time>2025-09-30T14:16:41Z</time>
      </trkpt>
      <trkpt lat="48.6843" lon="-2.31908">
        <ele>59.4</ele>
        <time>2025-09-30T14:16:43Z</time>
      </trkpt>
      <trkpt lat="48.68431" lon="-2.31907">
        <ele>59.4</ele>
        <time>2025-09-30T14:16:45Z</time>
      </trkpt>
      <trkpt lat="48.68433" lon="-2.31907">
        <ele>59.4</ele>
        <time>2025-09-30T14:16:47Z</time>
      </trkpt>
      <trkpt lat="48.68436" lon="-2.31909">
        <ele>59.2</ele>
        <time>2025-09-30T14:16:50Z</time>
      </trkpt>
      <trkpt lat="48.68439" lon="-2.31909">
        <ele>58.8</ele>
        <time>2025-09-30T14:16:57Z</time>
      </trkpt>
      <trkpt lat="48.68439" lon="-2.31909">
        <ele>59.2</ele>
        <time>2025-09-30T14:17:05Z</time>
      </trkpt>
      <trkpt lat="48.68439" lon="-2.31909">
        <ele>59.2</ele>
        <time>2025-09-30T14:17:06Z</time>
      </trkpt>
      <trkpt lat="48.68438" lon="-2.31909">
        <ele>58.8</ele>
        <time>2025-09-30T14:17:13Z</time>
      </trkpt>
      <trkpt lat="48.68434" lon="-2.31908">
        <ele>59.2</ele>
        <time>2025-09-30T14:17:20Z</time>
      </trkpt>
      <trkpt lat="48.68437" lon="-2.31908">
        <ele>59.2</ele>
        <time>2025-09-30T14:17:25Z</time>
      </trkpt>
      <trkpt lat="48.68438" lon="-2.31908">
        <ele>59.2</ele>
        <time>2025-09-30T14:17:26Z</time>
      </trkpt>
      <trkpt lat="48.68439" lon="-2.31909">
        <ele>58.6</ele>
        <time>2025-09-30T14:17:35Z</time>
      </trkpt>
      <trkpt lat="48.68439" lon="-2.31909">
        <ele>58.8</ele>
        <time>2025-09-30T14:17:52Z</time>
      </trkpt>
      <trkpt lat="48.68439" lon="-2.31909">
        <ele>58.8</ele>
        <time>2025-09-30T14:18:00Z</time>
      </trkpt>
      <trkpt lat="48.68439" lon="-2.31909">
        <ele>58.8</ele>
        <time>2025-09-30T14:18:06Z</time>
      </trkpt>
      <trkpt lat="48.68439" lon="-2.31908">
        <ele>58.8</ele>
        <time>2025-09-30T14:18:12Z</time>
      </trkpt>
      <trkpt lat="48.68439" lon="-2.31908">
        <ele>58.8</ele>
        <time>2025-09-30T14:18:24Z</time>
      </trkpt>
      <trkpt lat="48.68439" lon="-2.31908">
        <ele>58.8</ele>
        <time>2025-09-30T14:18:30Z</time>
      </trkpt>
      <trkpt lat="48.68439" lon="-2.31908">
        <ele>58.8</ele>
        <time>2025-09-30T14:18:39Z</time>
      </trkpt>
      <trkpt lat="48.68438" lon="-2.31907">
        <ele>58.8</ele>
        <time>2025-09-30T14:18:48Z</time>
      </trkpt>
      <trkpt lat="48.68435" lon="-2.31905">
        <ele>58.8</ele>
        <time>2025-09-30T14:18:55Z</time>
      </trkpt>
      <trkpt lat="48.68435" lon="-2.31905">
        <ele>58.8</ele>
        <time>2025-09-30T14:18:56Z</time>
      </trkpt>
      <trkpt lat="48.68428" lon="-2.31907">
        <ele>59.2</ele>
        <time>2025-09-30T14:19:03Z</time>
      </trkpt>
      <trkpt lat="48.68426" lon="-2.31908">
        <ele>59.6</ele>
        <time>2025-09-30T14:19:06Z</time>
      </trkpt>
      <trkpt lat="48.68424" lon="-2.31909">
        <ele>59.8</ele>
        <time>2025-09-30T14:19:09Z</time>
      </trkpt>
      <trkpt lat="48.68419" lon="-2.31908">
        <ele>60</ele>
        <time>2025-09-30T14:19:14Z</time>
      </trkpt>
      <trkpt lat="48.68417" lon="-2.31908">
        <ele>60.4</ele>
        <time>2025-09-30T14:19:17Z</time>
      </trkpt>
      <trkpt lat="48.68413" lon="-2.31908">
        <ele>60.4</ele>
        <time>2025-09-30T14:19:19Z</time>
      </trkpt>
      <trkpt lat="48.68411" lon="-2.31908">
        <ele>60.4</ele>
        <time>2025-09-30T14:19:21Z</time>
      </trkpt>
      <trkpt lat="48.68409" lon="-2.31907">
        <ele>60.6</ele>
        <time>2025-09-30T14:19:25Z</time>
      </trkpt>
      <trkpt lat="48.68401" lon="-2.31905">
        <ele>60.6</ele>
        <time>2025-09-30T14:19:32Z</time>
      </trkpt>
      <trkpt lat="48.684" lon="-2.31903">
        <ele>60.6</ele>
        <time>2025-09-30T14:19:35Z</time>
      </trkpt>
      <trkpt lat="48.68398" lon="-2.31903">
        <ele>60.6</ele>
        <time>2025-09-30T14:19:37Z</time>
      </trkpt>
      <trkpt lat="48.68397" lon="-2.31901">
        <ele>60.6</ele>
        <time>2025-09-30T14:19:38Z</time>
      </trkpt>
      <trkpt lat="48.68394" lon="-2.31897">
        <ele>60.6</ele>
        <time>2025-09-30T14:19:41Z</time>
      </trkpt>
      <trkpt lat="48.68393" lon="-2.31896">
        <ele>60.4</ele>
        <time>2025-09-30T14:19:43Z</time>
      </trkpt>
      <trkpt lat="48.68393" lon="-2.31893">
        <ele>60.4</ele>
        <time>2025-09-30T14:19:47Z</time>
      </trkpt>
      <trkpt lat="48.68386" lon="-2.31888">
        <ele>60.4</ele>
        <time>2025-09-30T14:19:54Z</time>
      </trkpt>
      <trkpt lat="48.68382" lon="-2.31888">
        <ele>60.2</ele>
        <time>2025-09-30T14:19:57Z</time>
      </trkpt>
      <trkpt lat="48.68382" lon="-2.31888">
        <ele>60.2</ele>
        <time>2025-09-30T14:19:59Z</time>
      </trkpt>
      <trkpt lat="48.68381" lon="-2.31887">
        <ele>60.2</ele>
        <time>2025-09-30T14:20:00Z</time>
      </trkpt>
      <trkpt lat="48.68377" lon="-2.31885">
        <ele>60.2</ele>
        <time>2025-09-30T14:20:04Z</time>
      </trkpt>
      <trkpt lat="48.68375" lon="-2.31883">
        <ele>60.2</ele>
        <time>2025-09-30T14:20:06Z</time>
      </trkpt>
      <trkpt lat="48.68373" lon="-2.3188">
        <ele>60.2</ele>
        <time>2025-09-30T14:20:08Z</time>
      </trkpt>
      <trkpt lat="48.68372" lon="-2.3188">
        <ele>60.2</ele>
        <time>2025-09-30T14:20:10Z</time>
      </trkpt>
      <trkpt lat="48.68369" lon="-2.31877">
        <ele>60.2</ele>
        <time>2025-09-30T14:20:13Z</time>
      </trkpt>
      <trkpt lat="48.68366" lon="-2.31874">
        <ele>60.2</ele>
        <time>2025-09-30T14:20:15Z</time>
      </trkpt>
      <trkpt lat="48.68362" lon="-2.31872">
        <ele>60</ele>
        <time>2025-09-30T14:20:20Z</time>
      </trkpt>
      <trkpt lat="48.68361" lon="-2.31872">
        <ele>60</ele>
        <time>2025-09-30T14:20:22Z</time>
      </trkpt>
      <trkpt lat="48.68361" lon="-2.31873">
        <ele>60</ele>
        <time>2025-09-30T14:20:23Z</time>
      </trkpt>
      <trkpt lat="48.68358" lon="-2.31872">
        <ele>60</ele>
        <time>2025-09-30T14:20:25Z</time>
      </trkpt>
      <trkpt lat="48.68356" lon="-2.31872">
        <ele>60</ele>
        <time>2025-09-30T14:20:27Z</time>
      </trkpt>
      <trkpt lat="48.68351" lon="-2.3187">
        <ele>60</ele>
        <time>2025-09-30T14:20:32Z</time>
      </trkpt>
      <trkpt lat="48.6835" lon="-2.3187">
        <ele>60</ele>
        <time>2025-09-30T14:20:33Z</time>
      </trkpt>
      <trkpt lat="48.68347" lon="-2.31869">
        <ele>60</ele>
        <time>2025-09-30T14:20:36Z</time>
      </trkpt>
      <trkpt lat="48.68345" lon="-2.31866">
        <ele>60</ele>
        <time>2025-09-30T14:20:39Z</time>
      </trkpt>
      <trkpt lat="48.68344" lon="-2.31867">
        <ele>60</ele>
        <time>2025-09-30T14:20:47Z</time>
      </trkpt>
      <trkpt lat="48.68344" lon="-2.31867">
        <ele>60</ele>
        <time>2025-09-30T14:20:53Z</time>
      </trkpt>
      <trkpt lat="48.68343" lon="-2.31867">
        <ele>60</ele>
        <time>2025-09-30T14:21:03Z</time>
      </trkpt>
      <trkpt lat="48.68343" lon="-2.31867">
        <ele>60.2</ele>
        <time>2025-09-30T14:21:06Z</time>
      </trkpt>
      <trkpt lat="48.68343" lon="-2.31867">
        <ele>60</ele>
        <time>2025-09-30T14:21:09Z</time>
      </trkpt>
      <trkpt lat="48.68342" lon="-2.31866">
        <ele>60</ele>
        <time>2025-09-30T14:21:22Z</time>
      </trkpt>
      <trkpt lat="48.68341" lon="-2.31864">
        <ele>60</ele>
        <time>2025-09-30T14:21:23Z</time>
      </trkpt>
      <trkpt lat="48.68341" lon="-2.3186">
        <ele>60</ele>
        <time>2025-09-30T14:21:27Z</time>
      </trkpt>
      <trkpt lat="48.6834" lon="-2.31857">
        <ele>60</ele>
        <time>2025-09-30T14:21:29Z</time>
      </trkpt>
      <trkpt lat="48.68339" lon="-2.31855">
        <ele>60</ele>
        <time>2025-09-30T14:21:32Z</time>
      </trkpt>
      <trkpt lat="48.6834" lon="-2.31852">
        <ele>60</ele>
        <time>2025-09-30T14:21:33Z</time>
      </trkpt>
      <trkpt lat="48.6834" lon="-2.31848">
        <ele>59.8</ele>
        <time>2025-09-30T14:21:35Z</time>
      </trkpt>
      <trkpt lat="48.6834" lon="-2.31847">
        <ele>59.8</ele>
        <time>2025-09-30T14:21:36Z</time>
      </trkpt>
      <trkpt lat="48.68339" lon="-2.31838">
        <ele>59.6</ele>
        <time>2025-09-30T14:21:41Z</time>
      </trkpt>
      <trkpt lat="48.68338" lon="-2.31837">
        <ele>59.6</ele>
        <time>2025-09-30T14:21:42Z</time>
      </trkpt>
      <trkpt lat="48.68337" lon="-2.31835">
        <ele>59.4</ele>
        <time>2025-09-30T14:21:45Z</time>
      </trkpt>
      <trkpt lat="48.68336" lon="-2.31833">
        <ele>59.4</ele>
        <time>2025-09-30T14:21:46Z</time>
      </trkpt>
      <trkpt lat="48.68335" lon="-2.31828">
        <ele>59.2</ele>
        <time>2025-09-30T14:21:49Z</time>
      </trkpt>
      <trkpt lat="48.68334" lon="-2.31827">
        <ele>59</ele>
        <time>2025-09-30T14:21:50Z</time>
      </trkpt>
      <trkpt lat="48.68332" lon="-2.31824">
        <ele>58.8</ele>
        <time>2025-09-30T14:21:53Z</time>
      </trkpt>
      <trkpt lat="48.68332" lon="-2.31822">
        <ele>58.6</ele>
        <time>2025-09-30T14:21:54Z</time>
      </trkpt>
      <trkpt lat="48.6833" lon="-2.3182">
        <ele>58.4</ele>
        <time>2025-09-30T14:21:57Z</time>
      </trkpt>
      <trkpt lat="48.68329" lon="-2.31818">
        <ele>58.2</ele>
        <time>2025-09-30T14:21:59Z</time>
      </trkpt>
      <trkpt lat="48.68325" lon="-2.31811">
        <ele>58</ele>
        <time>2025-09-30T14:22:04Z</time>
      </trkpt>
      <trkpt lat="48.68323" lon="-2.31808">
        <ele>57.8</ele>
        <time>2025-09-30T14:22:08Z</time>
      </trkpt>
      <trkpt lat="48.68323" lon="-2.31805">
        <ele>58</ele>
        <time>2025-09-30T14:22:18Z</time>
      </trkpt>
      <trkpt lat="48.6832" lon="-2.31802">
        <ele>58</ele>
        <time>2025-09-30T14:22:22Z</time>
      </trkpt>
      <trkpt lat="48.68319" lon="-2.318">
        <ele>57.8</ele>
        <time>2025-09-30T14:22:23Z</time>
      </trkpt>
      <trkpt lat="48.68316" lon="-2.31794">
        <ele>57.6</ele>
        <time>2025-09-30T14:22:27Z</time>
      </trkpt>
      <trkpt lat="48.68315" lon="-2.31794">
        <ele>57.4</ele>
        <time>2025-09-30T14:22:28Z</time>
      </trkpt>
      <trkpt lat="48.68313" lon="-2.31785">
        <ele>57.4</ele>
        <time>2025-09-30T14:22:33Z</time>
      </trkpt>
      <trkpt lat="48.68312" lon="-2.31785">
        <ele>57.2</ele>
        <time>2025-09-30T14:22:35Z</time>
      </trkpt>
      <trkpt lat="48.68308" lon="-2.31778">
        <ele>57</ele>
        <time>2025-09-30T14:22:41Z</time>
      </trkpt>
      <trkpt lat="48.68304" lon="-2.3177">
        <ele>57</ele>
        <time>2025-09-30T14:22:46Z</time>
      </trkpt>
      <trkpt lat="48.68303" lon="-2.31769">
        <ele>57</ele>
        <time>2025-09-30T14:22:48Z</time>
      </trkpt>
      <trkpt lat="48.68301" lon="-2.31764">
        <ele>57</ele>
        <time>2025-09-30T14:22:51Z</time>
      </trkpt>
      <trkpt lat="48.683" lon="-2.31759">
        <ele>56.8</ele>
        <time>2025-09-30T14:22:55Z</time>
      </trkpt>
      <trkpt lat="48.683" lon="-2.31758">
        <ele>56.8</ele>
        <time>2025-09-30T14:22:56Z</time>
      </trkpt>
      <trkpt lat="48.68299" lon="-2.31756">
        <ele>56.8</ele>
        <time>2025-09-30T14:22:57Z</time>
      </trkpt>
      <trkpt lat="48.68296" lon="-2.31748">
        <ele>56.6</ele>
        <time>2025-09-30T14:23:01Z</time>
      </trkpt>
      <trkpt lat="48.68295" lon="-2.31748">
        <ele>56.6</ele>
        <time>2025-09-30T14:23:02Z</time>
      </trkpt>
      <trkpt lat="48.68295" lon="-2.31747">
        <ele>56.6</ele>
        <time>2025-09-30T14:23:03Z</time>
      </trkpt>
      <trkpt lat="48.68294" lon="-2.31744">
        <ele>56.4</ele>
        <time>2025-09-30T14:23:05Z</time>
      </trkpt>
      <trkpt lat="48.68294" lon="-2.31741">
        <ele>56.4</ele>
        <time>2025-09-30T14:23:07Z</time>
      </trkpt>
      <trkpt lat="48.68291" lon="-2.31738">
        <ele>56.4</ele>
        <time>2025-09-30T14:23:13Z</time>
      </trkpt>
      <trkpt lat="48.68289" lon="-2.31736">
        <ele>56.2</ele>
        <time>2025-09-30T14:23:21Z</time>
      </trkpt>
      <trkpt lat="48.68287" lon="-2.31735">
        <ele>56.2</ele>
        <time>2025-09-30T14:23:22Z</time>
      </trkpt>
      <trkpt lat="48.68279" lon="-2.31732">
        <ele>56</ele>
        <time>2025-09-30T14:23:28Z</time>
      </trkpt>
      <trkpt lat="48.68277" lon="-2.31733">
        <ele>56</ele>
        <time>2025-09-30T14:23:31Z</time>
      </trkpt>
      <trkpt lat="48.68272" lon="-2.3173">
        <ele>56</ele>
        <time>2025-09-30T14:23:34Z</time>
      </trkpt>
      <trkpt lat="48.68269" lon="-2.3173">
        <ele>56.2</ele>
        <time>2025-09-30T14:23:36Z</time>
      </trkpt>
      <trkpt lat="48.68269" lon="-2.3173">
        <ele>56.2</ele>
        <time>2025-09-30T14:23:38Z</time>
      </trkpt>
      <trkpt lat="48.68267" lon="-2.31731">
        <ele>56.2</ele>
        <time>2025-09-30T14:23:40Z</time>
      </trkpt>
      <trkpt lat="48.68261" lon="-2.31731">
        <ele>56.2</ele>
        <time>2025-09-30T14:23:43Z</time>
      </trkpt>
      <trkpt lat="48.68257" lon="-2.31731">
        <ele>56.4</ele>
        <time>2025-09-30T14:23:46Z</time>
      </trkpt>
      <trkpt lat="48.68255" lon="-2.31734">
        <ele>56.4</ele>
        <time>2025-09-30T14:23:49Z</time>
      </trkpt>
      <trkpt lat="48.68246" lon="-2.31736">
        <ele>56.6</ele>
        <time>2025-09-30T14:23:55Z</time>
      </trkpt>
      <trkpt lat="48.68246" lon="-2.31736">
        <ele>56.6</ele>
        <time>2025-09-30T14:23:56Z</time>
      </trkpt>
      <trkpt lat="48.68238" lon="-2.31739">
        <ele>56.8</ele>
        <time>2025-09-30T14:24:03Z</time>
      </trkpt>
      <trkpt lat="48.68236" lon="-2.31744">
        <ele>57.2</ele>
        <time>2025-09-30T14:24:09Z</time>
      </trkpt>
      <trkpt lat="48.68234" lon="-2.31745">
        <ele>57.4</ele>
        <time>2025-09-30T14:24:10Z</time>
      </trkpt>
      <trkpt lat="48.68231" lon="-2.3175">
        <ele>58.2</ele>
        <time>2025-09-30T14:24:15Z</time>
      </trkpt>
      <trkpt lat="48.68231" lon="-2.3175">
        <ele>58.8</ele>
        <time>2025-09-30T14:24:16Z</time>
      </trkpt>
      <trkpt lat="48.68228" lon="-2.31748">
        <ele>58.6</ele>
        <time>2025-09-30T14:24:22Z</time>
      </trkpt>
      <trkpt lat="48.68228" lon="-2.31747">
        <ele>57.8</ele>
        <time>2025-09-30T14:24:28Z</time>
      </trkpt>
      <trkpt lat="48.68228" lon="-2.31747">
        <ele>57.8</ele>
        <time>2025-09-30T14:24:29Z</time>
      </trkpt>
      <trkpt lat="48.68228" lon="-2.31747">
        <ele>57.8</ele>
        <time>2025-09-30T14:24:34Z</time>
      </trkpt>
      <trkpt lat="48.68228" lon="-2.31747">
        <ele>57.8</ele>
        <time>2025-09-30T14:24:38Z</time>
      </trkpt>
      <trkpt lat="48.68228" lon="-2.31747">
        <ele>57.8</ele>
        <time>2025-09-30T14:24:40Z</time>
      </trkpt>
      <trkpt lat="48.68228" lon="-2.31749">
        <ele>57.8</ele>
        <time>2025-09-30T14:24:42Z</time>
      </trkpt>
      <trkpt lat="48.68229" lon="-2.31755">
        <ele>57.8</ele>
        <time>2025-09-30T14:24:45Z</time>
      </trkpt>
      <trkpt lat="48.6823" lon="-2.31762">
        <ele>57.8</ele>
        <time>2025-09-30T14:24:50Z</time>
      </trkpt>
      <trkpt lat="48.68231" lon="-2.31767">
        <ele>57.8</ele>
        <time>2025-09-30T14:24:55Z</time>
      </trkpt>
      <trkpt lat="48.68231" lon="-2.31767">
        <ele>57.8</ele>
        <time>2025-09-30T14:24:56Z</time>
      </trkpt>
      <trkpt lat="48.68231" lon="-2.31767">
        <ele>57.8</ele>
        <time>2025-09-30T14:24:59Z</time>
      </trkpt>
      <trkpt lat="48.68231" lon="-2.31767">
        <ele>58</ele>
        <time>2025-09-30T14:25:07Z</time>
      </trkpt>
      <trkpt lat="48.68231" lon="-2.31767">
        <ele>58</ele>
        <time>2025-09-30T14:25:11Z</time>
      </trkpt>
      <trkpt lat="48.68231" lon="-2.31767">
        <ele>58</ele>
        <time>2025-09-30T14:25:17Z</time>
      </trkpt>
      <trkpt lat="48.68231" lon="-2.31767">
        <ele>57.8</ele>
        <time>2025-09-30T14:25:21Z</time>
      </trkpt>
      <trkpt lat="48.68231" lon="-2.31767">
        <ele>57.8</ele>
        <time>2025-09-30T14:25:22Z</time>
      </trkpt>
      <trkpt lat="48.68231" lon="-2.31767">
        <ele>57.8</ele>
        <time>2025-09-30T14:25:23Z</time>
      </trkpt>
      <trkpt lat="48.68231" lon="-2.31767">
        <ele>57.8</ele>
        <time>2025-09-30T14:25:24Z</time>
      </trkpt>
      <trkpt lat="48.68231" lon="-2.31767">
        <ele>58</ele>
        <time>2025-09-30T14:25:27Z</time>
      </trkpt>
      <trkpt lat="48.68231" lon="-2.31767">
        <ele>57.8</ele>
        <time>2025-09-30T14:25:32Z</time>
      </trkpt>
      <trkpt lat="48.68231" lon="-2.31767">
        <ele>58</ele>
        <time>2025-09-30T14:25:40Z</time>
      </trkpt>
      <trkpt lat="48.68232" lon="-2.31768">
        <ele>58</ele>
        <time>2025-09-30T14:25:50Z</time>
      </trkpt>
      <trkpt lat="48.68232" lon="-2.31768">
        <ele>58</ele>
        <time>2025-09-30T14:25:51Z</time>
      </trkpt>
      <trkpt lat="48.68232" lon="-2.31768">
        <ele>58</ele>
        <time>2025-09-30T14:25:52Z</time>
      </trkpt>
      <trkpt lat="48.68232" lon="-2.31768">
        <ele>58</ele>
        <time>2025-09-30T14:25:53Z</time>
      </trkpt>
      <trkpt lat="48.68232" lon="-2.31768">
        <ele>58</ele>
        <time>2025-09-30T14:25:54Z</time>
      </trkpt>
      <trkpt lat="48.68232" lon="-2.31762">
        <ele>58</ele>
        <time>2025-09-30T14:25:59Z</time>
      </trkpt>
      <trkpt lat="48.68232" lon="-2.3176">
        <ele>58</ele>
        <time>2025-09-30T14:26:00Z</time>
      </trkpt>
      <trkpt lat="48.6823" lon="-2.31754">
        <ele>57.8</ele>
        <time>2025-09-30T14:26:03Z</time>
      </trkpt>
      <trkpt lat="48.68229" lon="-2.31751">
        <ele>57.6</ele>
        <time>2025-09-30T14:26:04Z</time>
      </trkpt>
      <trkpt lat="48.68228" lon="-2.31747">
        <ele>57.4</ele>
        <time>2025-09-30T14:26:06Z</time>
      </trkpt>
      <trkpt lat="48.68228" lon="-2.31745">
        <ele>57.4</ele>
        <time>2025-09-30T14:26:07Z</time>
      </trkpt>
      <trkpt lat="48.68227" lon="-2.31744">
        <ele>57.6</ele>
        <time>2025-09-30T14:26:10Z</time>
      </trkpt>
      <trkpt lat="48.68227" lon="-2.31744">
        <ele>57.8</ele>
        <time>2025-09-30T14:26:16Z</time>
      </trkpt>
      <trkpt lat="48.68227" lon="-2.31744">
        <ele>57.8</ele>
        <time>2025-09-30T14:26:24Z</time>
      </trkpt>
      <trkpt lat="48.68227" lon="-2.31744">
        <ele>57.8</ele>
        <time>2025-09-30T14:26:26Z</time>
      </trkpt>
      <trkpt lat="48.68227" lon="-2.31744">
        <ele>58</ele>
        <time>2025-09-30T14:26:38Z</time>
      </trkpt>
      <trkpt lat="48.68227" lon="-2.31744">
        <ele>58</ele>
        <time>2025-09-30T14:26:43Z</time>
      </trkpt>
      <trkpt lat="48.68227" lon="-2.31745">
        <ele>58</ele>
        <time>2025-09-30T14:26:52Z</time>
      </trkpt>
      <trkpt lat="48.68227" lon="-2.31745">
        <ele>58</ele>
        <time>2025-09-30T14:27:05Z</time>
      </trkpt>
      <trkpt lat="48.68227" lon="-2.31745">
        <ele>58</ele>
        <time>2025-09-30T14:27:17Z</time>
      </trkpt>
      <trkpt lat="48.68227" lon="-2.31745">
        <ele>58</ele>
        <time>2025-09-30T14:28:02Z</time>
      </trkpt>
      <trkpt lat="48.68227" lon="-2.31746">
        <ele>58</ele>
        <time>2025-09-30T14:28:08Z</time>
      </trkpt>
      <trkpt lat="48.68227" lon="-2.31746">
        <ele>58</ele>
        <time>2025-09-30T14:28:17Z</time>
      </trkpt>
      <trkpt lat="48.68226" lon="-2.31746">
        <ele>58</ele>
        <time>2025-09-30T14:28:20Z</time>
      </trkpt>
      <trkpt lat="48.68226" lon="-2.31745">
        <ele>58</ele>
        <time>2025-09-30T14:28:30Z</time>
      </trkpt>
      <trkpt lat="48.68226" lon="-2.31745">
        <ele>58</ele>
        <time>2025-09-30T14:28:40Z</time>
      </trkpt>
      <trkpt lat="48.68226" lon="-2.31745">
        <ele>58</ele>
        <time>2025-09-30T14:28:46Z</time>
      </trkpt>
      <trkpt lat="48.68226" lon="-2.31745">
        <ele>58</ele>
        <time>2025-09-30T14:28:56Z</time>
      </trkpt>
      <trkpt lat="48.68226" lon="-2.31745">
        <ele>58</ele>
        <time>2025-09-30T14:29:04Z</time>
      </trkpt>
      <trkpt lat="48.68226" lon="-2.31745">
        <ele>58</ele>
        <time>2025-09-30T14:29:06Z</time>
      </trkpt>
      <trkpt lat="48.68226" lon="-2.31745">
        <ele>58</ele>
        <time>2025-09-30T14:29:14Z</time>
      </trkpt>
      <trkpt lat="48.68226" lon="-2.31745">
        <ele>58</ele>
        <time>2025-09-30T14:29:24Z</time>
      </trkpt>
      <trkpt lat="48.68226" lon="-2.31745">
        <ele>58</ele>
        <time>2025-09-30T14:29:33Z</time>
      </trkpt>
      <trkpt lat="48.68226" lon="-2.31745">
        <ele>58</ele>
        <time>2025-09-30T14:29:38Z</time>
      </trkpt>
      <trkpt lat="48.68226" lon="-2.31745">
        <ele>58</ele>
        <time>2025-09-30T14:30:04Z</time>
      </trkpt>
      <trkpt lat="48.68226" lon="-2.31745">
        <ele>58</ele>
        <time>2025-09-30T14:30:20Z</time>
      </trkpt>
      <trkpt lat="48.68226" lon="-2.31745">
        <ele>58</ele>
        <time>2025-09-30T14:30:41Z</time>
      </trkpt>
      <trkpt lat="48.68226" lon="-2.31745">
        <ele>58</ele>
        <time>2025-09-30T14:30:55Z</time>
      </trkpt>
      <trkpt lat="48.68226" lon="-2.31745">
        <ele>58</ele>
        <time>2025-09-30T14:30:56Z</time>
      </trkpt>
      <trkpt lat="48.68226" lon="-2.31745">
        <ele>58</ele>
        <time>2025-09-30T14:31:08Z</time>
      </trkpt>
      <trkpt lat="48.68227" lon="-2.31749">
        <ele>58</ele>
        <time>2025-09-30T14:31:22Z</time>
      </trkpt>
      <trkpt lat="48.68227" lon="-2.31752">
        <ele>58</ele>
        <time>2025-09-30T14:31:23Z</time>
      </trkpt>
      <trkpt lat="48.68229" lon="-2.31769">
        <ele>58</ele>
        <time>2025-09-30T14:31:28Z</time>
      </trkpt>
      <trkpt lat="48.68228" lon="-2.31772">
        <ele>58</ele>
        <time>2025-09-30T14:31:32Z</time>
      </trkpt>
      <trkpt lat="48.68227" lon="-2.31773">
        <ele>58.2</ele>
        <time>2025-09-30T14:31:41Z</time>
      </trkpt>
      <trkpt lat="48.68226" lon="-2.31773">
        <ele>58</ele>
        <time>2025-09-30T14:31:42Z</time>
      </trkpt>
      <trkpt lat="48.68221" lon="-2.31772">
        <ele>58.2</ele>
        <time>2025-09-30T14:31:45Z</time>
      </trkpt>
      <trkpt lat="48.68217" lon="-2.31771">
        <ele>58.2</ele>
        <time>2025-09-30T14:31:46Z</time>
      </trkpt>
      <trkpt lat="48.68196" lon="-2.3176">
        <ele>58</ele>
        <time>2025-09-30T14:31:52Z</time>
      </trkpt>
      <trkpt lat="48.68174" lon="-2.31748">
        <ele>57.6</ele>
        <time>2025-09-30T14:31:58Z</time>
      </trkpt>
      <trkpt lat="48.68145" lon="-2.31735">
        <ele>58.2</ele>
        <time>2025-09-30T14:32:06Z</time>
      </trkpt>
      <trkpt lat="48.68127" lon="-2.31736">
        <ele>58</ele>
        <time>2025-09-30T14:32:12Z</time>
      </trkpt>
      <trkpt lat="48.68124" lon="-2.3174">
        <ele>58.2</ele>
        <time>2025-09-30T14:32:13Z</time>
      </trkpt>
      <trkpt lat="48.68108" lon="-2.31768">
        <ele>58.4</ele>
        <time>2025-09-30T14:32:21Z</time>
      </trkpt>
      <trkpt lat="48.68089" lon="-2.31792">
        <ele>58.4</ele>
        <time>2025-09-30T14:32:28Z</time>
      </trkpt>
      <trkpt lat="48.68065" lon="-2.31801">
        <ele>57.8</ele>
        <time>2025-09-30T14:32:34Z</time>
      </trkpt>
      <trkpt lat="48.68061" lon="-2.31801">
        <ele>57.6</ele>
        <time>2025-09-30T14:32:35Z</time>
      </trkpt>
      <trkpt lat="48.68048" lon="-2.31801">
        <ele>57.6</ele>
        <time>2025-09-30T14:32:38Z</time>
      </trkpt>
      <trkpt lat="48.68017" lon="-2.31801">
        <ele>57.4</ele>
        <time>2025-09-30T14:32:45Z</time>
      </trkpt>
      <trkpt lat="48.68012" lon="-2.318">
        <ele>57.4</ele>
        <time>2025-09-30T14:32:46Z</time>
      </trkpt>
      <trkpt lat="48.67989" lon="-2.318">
        <ele>57.4</ele>
        <time>2025-09-30T14:32:51Z</time>
      </trkpt>
      <trkpt lat="48.67946" lon="-2.31799">
        <ele>57.4</ele>
        <time>2025-09-30T14:32:59Z</time>
      </trkpt>
      <trkpt lat="48.67909" lon="-2.31802">
        <ele>57.2</ele>
        <time>2025-09-30T14:33:06Z</time>
      </trkpt>
      <trkpt lat="48.67904" lon="-2.31805">
        <ele>57.2</ele>
        <time>2025-09-30T14:33:07Z</time>
      </trkpt>
      <trkpt lat="48.67891" lon="-2.31814">
        <ele>57.2</ele>
        <time>2025-09-30T14:33:10Z</time>
      </trkpt>
      <trkpt lat="48.67879" lon="-2.31826">
        <ele>57.2</ele>
        <time>2025-09-30T14:33:13Z</time>
      </trkpt>
      <trkpt lat="48.6787" lon="-2.31842">
        <ele>57.4</ele>
        <time>2025-09-30T14:33:16Z</time>
      </trkpt>
      <trkpt lat="48.67863" lon="-2.31859">
        <ele>57.6</ele>
        <time>2025-09-30T14:33:19Z</time>
      </trkpt>
      <trkpt lat="48.67847" lon="-2.31901">
        <ele>58.2</ele>
        <time>2025-09-30T14:33:26Z</time>
      </trkpt>
      <trkpt lat="48.67839" lon="-2.31925">
        <ele>58.4</ele>
        <time>2025-09-30T14:33:30Z</time>
      </trkpt>
      <trkpt lat="48.67833" lon="-2.31944">
        <ele>58.8</ele>
        <time>2025-09-30T14:33:33Z</time>
      </trkpt>
      <trkpt lat="48.67828" lon="-2.31962">
        <ele>58.8</ele>
        <time>2025-09-30T14:33:36Z</time>
      </trkpt>
      <trkpt lat="48.67821" lon="-2.31981">
        <ele>59</ele>
        <time>2025-09-30T14:33:39Z</time>
      </trkpt>
      <trkpt lat="48.6781" lon="-2.32017">
        <ele>59.2</ele>
        <time>2025-09-30T14:33:45Z</time>
      </trkpt>
      <trkpt lat="48.678" lon="-2.32047">
        <ele>59.4</ele>
        <time>2025-09-30T14:33:50Z</time>
      </trkpt>
      <trkpt lat="48.67791" lon="-2.32076">
        <ele>59.6</ele>
        <time>2025-09-30T14:33:55Z</time>
      </trkpt>
      <trkpt lat="48.67787" lon="-2.32089">
        <ele>59.8</ele>
        <time>2025-09-30T14:33:57Z</time>
      </trkpt>
      <trkpt lat="48.67775" lon="-2.32127">
        <ele>60</ele>
        <time>2025-09-30T14:34:03Z</time>
      </trkpt>
      <trkpt lat="48.67757" lon="-2.32181">
        <ele>60</ele>
        <time>2025-09-30T14:34:12Z</time>
      </trkpt>
      <trkpt lat="48.67744" lon="-2.32218">
        <ele>59.6</ele>
        <time>2025-09-30T14:34:18Z</time>
      </trkpt>
      <trkpt lat="48.67737" lon="-2.32231">
        <ele>59.4</ele>
        <time>2025-09-30T14:34:20Z</time>
      </trkpt>
      <trkpt lat="48.67723" lon="-2.32256">
        <ele>58.6</ele>
        <time>2025-09-30T14:34:24Z</time>
      </trkpt>
      <trkpt lat="48.67714" lon="-2.3227">
        <ele>58.2</ele>
        <time>2025-09-30T14:34:26Z</time>
      </trkpt>
      <trkpt lat="48.677" lon="-2.32291">
        <ele>57.6</ele>
        <time>2025-09-30T14:34:29Z</time>
      </trkpt>
      <trkpt lat="48.67695" lon="-2.32299">
        <ele>57.6</ele>
        <time>2025-09-30T14:34:30Z</time>
      </trkpt>
      <trkpt lat="48.67679" lon="-2.3232">
        <ele>56.8</ele>
        <time>2025-09-30T14:34:33Z</time>
      </trkpt>
      <trkpt lat="48.67669" lon="-2.32336">
        <ele>56.2</ele>
        <time>2025-09-30T14:34:35Z</time>
      </trkpt>
      <trkpt lat="48.67646" lon="-2.32369">
        <ele>55</ele>
        <time>2025-09-30T14:34:39Z</time>
      </trkpt>
      <trkpt lat="48.67624" lon="-2.324">
        <ele>54.4</ele>
        <time>2025-09-30T14:34:43Z</time>
      </trkpt>
      <trkpt lat="48.67618" lon="-2.32409">
        <ele>54</ele>
        <time>2025-09-30T14:34:44Z</time>
      </trkpt>
      <trkpt lat="48.67601" lon="-2.32434">
        <ele>53</ele>
        <time>2025-09-30T14:34:47Z</time>
      </trkpt>
      <trkpt lat="48.67568" lon="-2.32481">
        <ele>52.6</ele>
        <time>2025-09-30T14:34:53Z</time>
      </trkpt>
      <trkpt lat="48.67546" lon="-2.32512">
        <ele>52.4</ele>
        <time>2025-09-30T14:34:58Z</time>
      </trkpt>
      <trkpt lat="48.67518" lon="-2.32553">
        <ele>53</ele>
        <time>2025-09-30T14:35:05Z</time>
      </trkpt>
      <trkpt lat="48.67496" lon="-2.32583">
        <ele>54</ele>
        <time>2025-09-30T14:35:11Z</time>
      </trkpt>
      <trkpt lat="48.67483" lon="-2.32598">
        <ele>54.2</ele>
        <time>2025-09-30T14:35:14Z</time>
      </trkpt>
      <trkpt lat="48.67458" lon="-2.32619">
        <ele>54.6</ele>
        <time>2025-09-30T14:35:20Z</time>
      </trkpt>
      <trkpt lat="48.67423" lon="-2.32637">
        <ele>54.8</ele>
        <time>2025-09-30T14:35:28Z</time>
      </trkpt>
      <trkpt lat="48.67397" lon="-2.32645">
        <ele>54.4</ele>
        <time>2025-09-30T14:35:34Z</time>
      </trkpt>
      <trkpt lat="48.67364" lon="-2.3265">
        <ele>53.4</ele>
        <time>2025-09-30T14:35:40Z</time>
      </trkpt>
      <trkpt lat="48.67346" lon="-2.32655">
        <ele>53</ele>
        <time>2025-09-30T14:35:43Z</time>
      </trkpt>
      <trkpt lat="48.67333" lon="-2.32663">
        <ele>52.6</ele>
        <time>2025-09-30T14:35:45Z</time>
      </trkpt>
      <trkpt lat="48.6732" lon="-2.32671">
        <ele>51.6</ele>
        <time>2025-09-30T14:35:47Z</time>
      </trkpt>
      <trkpt lat="48.67295" lon="-2.32694">
        <ele>50.8</ele>
        <time>2025-09-30T14:35:51Z</time>
      </trkpt>
      <trkpt lat="48.67284" lon="-2.32707">
        <ele>50.2</ele>
        <time>2025-09-30T14:35:53Z</time>
      </trkpt>
      <trkpt lat="48.67253" lon="-2.32747">
        <ele>48.4</ele>
        <time>2025-09-30T14:35:58Z</time>
      </trkpt>
      <trkpt lat="48.67246" lon="-2.32757">
        <ele>48</ele>
        <time>2025-09-30T14:35:59Z</time>
      </trkpt>
      <trkpt lat="48.67235" lon="-2.32771">
        <ele>47.4</ele>
        <time>2025-09-30T14:36:01Z</time>
      </trkpt>
      <trkpt lat="48.67217" lon="-2.32797">
        <ele>46</ele>
        <time>2025-09-30T14:36:04Z</time>
      </trkpt>
      <trkpt lat="48.672" lon="-2.32821">
        <ele>45.8</ele>
        <time>2025-09-30T14:36:07Z</time>
      </trkpt>
      <trkpt lat="48.6717" lon="-2.32862">
        <ele>46.2</ele>
        <time>2025-09-30T14:36:13Z</time>
      </trkpt>
      <trkpt lat="48.67137" lon="-2.32909">
        <ele>47</ele>
        <time>2025-09-30T14:36:21Z</time>
      </trkpt>
      <trkpt lat="48.67108" lon="-2.32948">
        <ele>48</ele>
        <time>2025-09-30T14:36:28Z</time>
      </trkpt>
      <trkpt lat="48.67091" lon="-2.32971">
        <ele>48</ele>
        <time>2025-09-30T14:36:32Z</time>
      </trkpt>
      <trkpt lat="48.67077" lon="-2.32992">
        <ele>48</ele>
        <time>2025-09-30T14:36:36Z</time>
      </trkpt>
      <trkpt lat="48.67069" lon="-2.33002">
        <ele>47.8</ele>
        <time>2025-09-30T14:36:38Z</time>
      </trkpt>
      <trkpt lat="48.67042" lon="-2.3304">
        <ele>47.6</ele>
        <time>2025-09-30T14:36:45Z</time>
      </trkpt>
      <trkpt lat="48.67038" lon="-2.33045">
        <ele>47.4</ele>
        <time>2025-09-30T14:36:46Z</time>
      </trkpt>
      <trkpt lat="48.67031" lon="-2.33055">
        <ele>47.4</ele>
        <time>2025-09-30T14:36:48Z</time>
      </trkpt>
      <trkpt lat="48.67016" lon="-2.33076">
        <ele>47</ele>
        <time>2025-09-30T14:36:52Z</time>
      </trkpt>
      <trkpt lat="48.67005" lon="-2.33097">
        <ele>46.6</ele>
        <time>2025-09-30T14:36:56Z</time>
      </trkpt>
      <trkpt lat="48.66997" lon="-2.33109">
        <ele>46</ele>
        <time>2025-09-30T14:37:01Z</time>
      </trkpt>
      <trkpt lat="48.66995" lon="-2.3311">
        <ele>46</ele>
        <time>2025-09-30T14:37:02Z</time>
      </trkpt>
      <trkpt lat="48.66992" lon="-2.33108">
        <ele>46</ele>
        <time>2025-09-30T14:37:04Z</time>
      </trkpt>
      <trkpt lat="48.6699" lon="-2.33105">
        <ele>46</ele>
        <time>2025-09-30T14:37:05Z</time>
      </trkpt>
      <trkpt lat="48.66979" lon="-2.33083">
        <ele>46.4</ele>
        <time>2025-09-30T14:37:11Z</time>
      </trkpt>
      <trkpt lat="48.66964" lon="-2.33055">
        <ele>46.2</ele>
        <time>2025-09-30T14:37:17Z</time>
      </trkpt>
      <trkpt lat="48.66938" lon="-2.3303">
        <ele>45.8</ele>
        <time>2025-09-30T14:37:24Z</time>
      </trkpt>
      <trkpt lat="48.66913" lon="-2.33011">
        <ele>45</ele>
        <time>2025-09-30T14:37:30Z</time>
      </trkpt>
      <trkpt lat="48.66898" lon="-2.33001">
        <ele>44.4</ele>
        <time>2025-09-30T14:37:33Z</time>
      </trkpt>
      <trkpt lat="48.66866" lon="-2.32977">
        <ele>43.8</ele>
        <time>2025-09-30T14:37:40Z</time>
      </trkpt>
      <trkpt lat="48.66854" lon="-2.32969">
        <ele>43.6</ele>
        <time>2025-09-30T14:37:42Z</time>
      </trkpt>
      <trkpt lat="48.66837" lon="-2.32958">
        <ele>42.8</ele>
        <time>2025-09-30T14:37:45Z</time>
      </trkpt>
      <trkpt lat="48.66818" lon="-2.32946">
        <ele>42.2</ele>
        <time>2025-09-30T14:37:48Z</time>
      </trkpt>
      <trkpt lat="48.66799" lon="-2.32932">
        <ele>41.6</ele>
        <time>2025-09-30T14:37:51Z</time>
      </trkpt>
      <trkpt lat="48.66776" lon="-2.32913">
        <ele>40.6</ele>
        <time>2025-09-30T14:37:55Z</time>
      </trkpt>
      <trkpt lat="48.6677" lon="-2.32909">
        <ele>40.6</ele>
        <time>2025-09-30T14:37:56Z</time>
      </trkpt>
      <trkpt lat="48.6676" lon="-2.32901">
        <ele>40.4</ele>
        <time>2025-09-30T14:37:58Z</time>
      </trkpt>
      <trkpt lat="48.6675" lon="-2.32894">
        <ele>40.6</ele>
        <time>2025-09-30T14:38:00Z</time>
      </trkpt>
      <trkpt lat="48.66745" lon="-2.3289">
        <ele>40.6</ele>
        <time>2025-09-30T14:38:01Z</time>
      </trkpt>
      <trkpt lat="48.66711" lon="-2.32865">
        <ele>41.4</ele>
        <time>2025-09-30T14:38:09Z</time>
      </trkpt>
      <trkpt lat="48.66702" lon="-2.32858">
        <ele>41.6</ele>
        <time>2025-09-30T14:38:11Z</time>
      </trkpt>
      <trkpt lat="48.66672" lon="-2.32836">
        <ele>42.6</ele>
        <time>2025-09-30T14:38:18Z</time>
      </trkpt>
      <trkpt lat="48.6663" lon="-2.32806">
        <ele>43.8</ele>
        <time>2025-09-30T14:38:28Z</time>
      </trkpt>
      <trkpt lat="48.66622" lon="-2.328">
        <ele>43.8</ele>
        <time>2025-09-30T14:38:30Z</time>
      </trkpt>
      <trkpt lat="48.66586" lon="-2.32774">
        <ele>44.6</ele>
        <time>2025-09-30T14:38:39Z</time>
      </trkpt>
      <trkpt lat="48.66582" lon="-2.32771">
        <ele>44.8</ele>
        <time>2025-09-30T14:38:40Z</time>
      </trkpt>
      <trkpt lat="48.66578" lon="-2.32768">
        <ele>44.8</ele>
        <time>2025-09-30T14:38:41Z</time>
      </trkpt>
      <trkpt lat="48.66542" lon="-2.32745">
        <ele>45.6</ele>
        <time>2025-09-30T14:38:50Z</time>
      </trkpt>
      <trkpt lat="48.66538" lon="-2.32742">
        <ele>46</ele>
        <time>2025-09-30T14:38:51Z</time>
      </trkpt>
      <trkpt lat="48.66518" lon="-2.32727">
        <ele>47</ele>
        <time>2025-09-30T14:38:56Z</time>
      </trkpt>
      <trkpt lat="48.66496" lon="-2.32712">
        <ele>48</ele>
        <time>2025-09-30T14:39:02Z</time>
      </trkpt>
      <trkpt lat="48.66491" lon="-2.32708">
        <ele>48.4</ele>
        <time>2025-09-30T14:39:03Z</time>
      </trkpt>
      <trkpt lat="48.66481" lon="-2.32701">
        <ele>49.2</ele>
        <time>2025-09-30T14:39:06Z</time>
      </trkpt>
      <trkpt lat="48.66463" lon="-2.32689">
        <ele>50</ele>
        <time>2025-09-30T14:39:11Z</time>
      </trkpt>
      <trkpt lat="48.66458" lon="-2.32685">
        <ele>50.2</ele>
        <time>2025-09-30T14:39:12Z</time>
      </trkpt>
      <trkpt lat="48.6644" lon="-2.32672">
        <ele>51.4</ele>
        <time>2025-09-30T14:39:17Z</time>
      </trkpt>
      <trkpt lat="48.6643" lon="-2.32663">
        <ele>52</ele>
        <time>2025-09-30T14:39:20Z</time>
      </trkpt>
      <trkpt lat="48.66422" lon="-2.32658">
        <ele>52.4</ele>
        <time>2025-09-30T14:39:22Z</time>
      </trkpt>
      <trkpt lat="48.66411" lon="-2.32648">
        <ele>52.8</ele>
        <time>2025-09-30T14:39:26Z</time>
      </trkpt>
      <trkpt lat="48.66409" lon="-2.32647">
        <ele>53.2</ele>
        <time>2025-09-30T14:39:28Z</time>
      </trkpt>
      <trkpt lat="48.66406" lon="-2.3265">
        <ele>53.4</ele>
        <time>2025-09-30T14:39:30Z</time>
      </trkpt>
      <trkpt lat="48.66405" lon="-2.32671">
        <ele>53.2</ele>
        <time>2025-09-30T14:39:35Z</time>
      </trkpt>
      <trkpt lat="48.66403" lon="-2.32713">
        <ele>52.4</ele>
        <time>2025-09-30T14:39:42Z</time>
      </trkpt>
      <trkpt lat="48.66399" lon="-2.32764">
        <ele>51.6</ele>
        <time>2025-09-30T14:39:49Z</time>
      </trkpt>
      <trkpt lat="48.66398" lon="-2.32782">
        <ele>51.2</ele>
        <time>2025-09-30T14:39:51Z</time>
      </trkpt>
      <trkpt lat="48.66395" lon="-2.32832">
        <ele>50.6</ele>
        <time>2025-09-30T14:39:57Z</time>
      </trkpt>
      <trkpt lat="48.66391" lon="-2.32878">
        <ele>50.2</ele>
        <time>2025-09-30T14:40:03Z</time>
      </trkpt>
      <trkpt lat="48.66388" lon="-2.32893">
        <ele>50.2</ele>
        <time>2025-09-30T14:40:05Z</time>
      </trkpt>
      <trkpt lat="48.66387" lon="-2.32906">
        <ele>50.2</ele>
        <time>2025-09-30T14:40:07Z</time>
      </trkpt>
      <trkpt lat="48.66387" lon="-2.32915">
        <ele>50</ele>
        <time>2025-09-30T14:40:08Z</time>
      </trkpt>
      <trkpt lat="48.66377" lon="-2.3297">
        <ele>49.6</ele>
        <time>2025-09-30T14:40:15Z</time>
      </trkpt>
      <trkpt lat="48.66373" lon="-2.32984">
        <ele>49.6</ele>
        <time>2025-09-30T14:40:17Z</time>
      </trkpt>
      <trkpt lat="48.66368" lon="-2.32994">
        <ele>49.6</ele>
        <time>2025-09-30T14:40:19Z</time>
      </trkpt>
      <trkpt lat="48.66363" lon="-2.33">
        <ele>49.6</ele>
        <time>2025-09-30T14:40:20Z</time>
      </trkpt>
      <trkpt lat="48.6636" lon="-2.33005">
        <ele>49.8</ele>
        <time>2025-09-30T14:40:21Z</time>
      </trkpt>
      <trkpt lat="48.66341" lon="-2.3302">
        <ele>50</ele>
        <time>2025-09-30T14:40:25Z</time>
      </trkpt>
      <trkpt lat="48.66297" lon="-2.3305">
        <ele>51</ele>
        <time>2025-09-30T14:40:34Z</time>
      </trkpt>
      <trkpt lat="48.66292" lon="-2.33054">
        <ele>51.2</ele>
        <time>2025-09-30T14:40:35Z</time>
      </trkpt>
      <trkpt lat="48.66251" lon="-2.33076">
        <ele>51.6</ele>
        <time>2025-09-30T14:40:43Z</time>
      </trkpt>
      <trkpt lat="48.66197" lon="-2.33099">
        <ele>51.8</ele>
        <time>2025-09-30T14:40:53Z</time>
      </trkpt>
      <trkpt lat="48.66169" lon="-2.33114">
        <ele>50.8</ele>
        <time>2025-09-30T14:40:58Z</time>
      </trkpt>
      <trkpt lat="48.6616" lon="-2.33125">
        <ele>50.6</ele>
        <time>2025-09-30T14:41:00Z</time>
      </trkpt>
      <trkpt lat="48.66153" lon="-2.33142">
        <ele>50.2</ele>
        <time>2025-09-30T14:41:02Z</time>
      </trkpt>
      <trkpt lat="48.6615" lon="-2.33151">
        <ele>50</ele>
        <time>2025-09-30T14:41:03Z</time>
      </trkpt>
      <trkpt lat="48.66134" lon="-2.33212">
        <ele>49.4</ele>
        <time>2025-09-30T14:41:10Z</time>
      </trkpt>
      <trkpt lat="48.6613" lon="-2.3323">
        <ele>49</ele>
        <time>2025-09-30T14:41:12Z</time>
      </trkpt>
      <trkpt lat="48.66111" lon="-2.33302">
        <ele>48</ele>
        <time>2025-09-30T14:41:20Z</time>
      </trkpt>
      <trkpt lat="48.66099" lon="-2.33344">
        <ele>47.2</ele>
        <time>2025-09-30T14:41:25Z</time>
      </trkpt>
      <trkpt lat="48.66095" lon="-2.33352">
        <ele>46.8</ele>
        <time>2025-09-30T14:41:26Z</time>
      </trkpt>
      <trkpt lat="48.66092" lon="-2.3336">
        <ele>46.8</ele>
        <time>2025-09-30T14:41:27Z</time>
      </trkpt>
      <trkpt lat="48.66087" lon="-2.33367">
        <ele>46.2</ele>
        <time>2025-09-30T14:41:28Z</time>
      </trkpt>
      <trkpt lat="48.66075" lon="-2.33378">
        <ele>45.2</ele>
        <time>2025-09-30T14:41:30Z</time>
      </trkpt>
      <trkpt lat="48.66069" lon="-2.33381">
        <ele>44.8</ele>
        <time>2025-09-30T14:41:31Z</time>
      </trkpt>
      <trkpt lat="48.66063" lon="-2.33384">
        <ele>44.2</ele>
        <time>2025-09-30T14:41:32Z</time>
      </trkpt>
      <trkpt lat="48.66056" lon="-2.33384">
        <ele>44.2</ele>
        <time>2025-09-30T14:41:33Z</time>
      </trkpt>
      <trkpt lat="48.66044" lon="-2.33384">
        <ele>43.8</ele>
        <time>2025-09-30T14:41:35Z</time>
      </trkpt>
      <trkpt lat="48.66033" lon="-2.33387">
        <ele>43.4</ele>
        <time>2025-09-30T14:41:37Z</time>
      </trkpt>
      <trkpt lat="48.66028" lon="-2.33392">
        <ele>43.4</ele>
        <time>2025-09-30T14:41:38Z</time>
      </trkpt>
      <trkpt lat="48.66023" lon="-2.33398">
        <ele>43.2</ele>
        <time>2025-09-30T14:41:39Z</time>
      </trkpt>
      <trkpt lat="48.66019" lon="-2.33405">
        <ele>43</ele>
        <time>2025-09-30T14:41:40Z</time>
      </trkpt>
      <trkpt lat="48.66008" lon="-2.33425">
        <ele>41.8</ele>
        <time>2025-09-30T14:41:43Z</time>
      </trkpt>
      <trkpt lat="48.65999" lon="-2.33434">
        <ele>41</ele>
        <time>2025-09-30T14:41:45Z</time>
      </trkpt>
      <trkpt lat="48.65994" lon="-2.33435">
        <ele>40.8</ele>
        <time>2025-09-30T14:41:46Z</time>
      </trkpt>
      <trkpt lat="48.65989" lon="-2.33435">
        <ele>40.8</ele>
        <time>2025-09-30T14:41:47Z</time>
      </trkpt>
      <trkpt lat="48.65974" lon="-2.33428">
        <ele>41</ele>
        <time>2025-09-30T14:41:50Z</time>
      </trkpt>
      <trkpt lat="48.65952" lon="-2.33421">
        <ele>41.2</ele>
        <time>2025-09-30T14:41:55Z</time>
      </trkpt>
      <trkpt lat="48.65942" lon="-2.33419">
        <ele>41</ele>
        <time>2025-09-30T14:41:57Z</time>
      </trkpt>
      <trkpt lat="48.65931" lon="-2.33422">
        <ele>40</ele>
        <time>2025-09-30T14:41:59Z</time>
      </trkpt>
      <trkpt lat="48.65925" lon="-2.33425">
        <ele>39.6</ele>
        <time>2025-09-30T14:42:00Z</time>
      </trkpt>
      <trkpt lat="48.65919" lon="-2.33428">
        <ele>39.4</ele>
        <time>2025-09-30T14:42:01Z</time>
      </trkpt>
      <trkpt lat="48.65908" lon="-2.33437">
        <ele>38.8</ele>
        <time>2025-09-30T14:42:03Z</time>
      </trkpt>
      <trkpt lat="48.65897" lon="-2.33447">
        <ele>37.8</ele>
        <time>2025-09-30T14:42:05Z</time>
      </trkpt>
      <trkpt lat="48.65887" lon="-2.33459">
        <ele>37</ele>
        <time>2025-09-30T14:42:07Z</time>
      </trkpt>
      <trkpt lat="48.65881" lon="-2.33465">
        <ele>36.4</ele>
        <time>2025-09-30T14:42:08Z</time>
      </trkpt>
      <trkpt lat="48.65863" lon="-2.33485">
        <ele>35</ele>
        <time>2025-09-30T14:42:11Z</time>
      </trkpt>
      <trkpt lat="48.65856" lon="-2.33491">
        <ele>34</ele>
        <time>2025-09-30T14:42:12Z</time>
      </trkpt>
      <trkpt lat="48.6585" lon="-2.33494">
        <ele>33.6</ele>
        <time>2025-09-30T14:42:13Z</time>
      </trkpt>
      <trkpt lat="48.65843" lon="-2.33494">
        <ele>32.4</ele>
        <time>2025-09-30T14:42:14Z</time>
      </trkpt>
      <trkpt lat="48.65836" lon="-2.33493">
        <ele>32</ele>
        <time>2025-09-30T14:42:15Z</time>
      </trkpt>
      <trkpt lat="48.65829" lon="-2.33491">
        <ele>31.8</ele>
        <time>2025-09-30T14:42:16Z</time>
      </trkpt>
      <trkpt lat="48.65805" lon="-2.3348">
        <ele>31.6</ele>
        <time>2025-09-30T14:42:20Z</time>
      </trkpt>
      <trkpt lat="48.65775" lon="-2.33463">
        <ele>33</ele>
        <time>2025-09-30T14:42:25Z</time>
      </trkpt>
      <trkpt lat="48.65763" lon="-2.33457">
        <ele>33.6</ele>
        <time>2025-09-30T14:42:27Z</time>
      </trkpt>
      <trkpt lat="48.65747" lon="-2.33449">
        <ele>34.6</ele>
        <time>2025-09-30T14:42:30Z</time>
      </trkpt>
      <trkpt lat="48.65731" lon="-2.3344">
        <ele>35.6</ele>
        <time>2025-09-30T14:42:33Z</time>
      </trkpt>
      <trkpt lat="48.65725" lon="-2.33437">
        <ele>36.2</ele>
        <time>2025-09-30T14:42:34Z</time>
      </trkpt>
      <trkpt lat="48.65697" lon="-2.33423">
        <ele>37.2</ele>
        <time>2025-09-30T14:42:39Z</time>
      </trkpt>
      <trkpt lat="48.65692" lon="-2.3342">
        <ele>37.4</ele>
        <time>2025-09-30T14:42:40Z</time>
      </trkpt>
      <trkpt lat="48.65681" lon="-2.33411">
        <ele>37.8</ele>
        <time>2025-09-30T14:42:42Z</time>
      </trkpt>
      <trkpt lat="48.65671" lon="-2.33402">
        <ele>38.2</ele>
        <time>2025-09-30T14:42:44Z</time>
      </trkpt>
      <trkpt lat="48.65651" lon="-2.33384">
        <ele>39.4</ele>
        <time>2025-09-30T14:42:48Z</time>
      </trkpt>
      <trkpt lat="48.65646" lon="-2.33379">
        <ele>39.4</ele>
        <time>2025-09-30T14:42:49Z</time>
      </trkpt>
      <trkpt lat="48.65608" lon="-2.33351">
        <ele>40</ele>
        <time>2025-09-30T14:42:56Z</time>
      </trkpt>
      <trkpt lat="48.65588" lon="-2.33339">
        <ele>40.4</ele>
        <time>2025-09-30T14:43:00Z</time>
      </trkpt>
      <trkpt lat="48.65573" lon="-2.33332">
        <ele>40.8</ele>
        <time>2025-09-30T14:43:03Z</time>
      </trkpt>
      <trkpt lat="48.6554" lon="-2.33313">
        <ele>41</ele>
        <time>2025-09-30T14:43:10Z</time>
      </trkpt>
      <trkpt lat="48.65536" lon="-2.33309">
        <ele>41.2</ele>
        <time>2025-09-30T14:43:11Z</time>
      </trkpt>
      <trkpt lat="48.65532" lon="-2.33304">
        <ele>41</ele>
        <time>2025-09-30T14:43:12Z</time>
      </trkpt>
      <trkpt lat="48.65522" lon="-2.33279">
        <ele>40.6</ele>
        <time>2025-09-30T14:43:16Z</time>
      </trkpt>
      <trkpt lat="48.65518" lon="-2.33266">
        <ele>40.6</ele>
        <time>2025-09-30T14:43:18Z</time>
      </trkpt>
      <trkpt lat="48.65513" lon="-2.33236">
        <ele>40.2</ele>
        <time>2025-09-30T14:43:22Z</time>
      </trkpt>
      <trkpt lat="48.65509" lon="-2.33215">
        <ele>40.2</ele>
        <time>2025-09-30T14:43:25Z</time>
      </trkpt>
      <trkpt lat="48.65505" lon="-2.33204">
        <ele>40.2</ele>
        <time>2025-09-30T14:43:27Z</time>
      </trkpt>
      <trkpt lat="48.65491" lon="-2.33181">
        <ele>40.2</ele>
        <time>2025-09-30T14:43:33Z</time>
      </trkpt>
      <trkpt lat="48.65478" lon="-2.33186">
        <ele>40.4</ele>
        <time>2025-09-30T14:43:37Z</time>
      </trkpt>
      <trkpt lat="48.65453" lon="-2.33199">
        <ele>40.4</ele>
        <time>2025-09-30T14:43:43Z</time>
      </trkpt>
      <trkpt lat="48.65441" lon="-2.33205">
        <ele>40.6</ele>
        <time>2025-09-30T14:43:46Z</time>
      </trkpt>
      <trkpt lat="48.65434" lon="-2.33211">
        <ele>40.8</ele>
        <time>2025-09-30T14:43:48Z</time>
      </trkpt>
      <trkpt lat="48.65431" lon="-2.33215">
        <ele>40.8</ele>
        <time>2025-09-30T14:43:49Z</time>
      </trkpt>
      <trkpt lat="48.65421" lon="-2.33228">
        <ele>41.2</ele>
        <time>2025-09-30T14:43:52Z</time>
      </trkpt>
      <trkpt lat="48.65413" lon="-2.33234">
        <ele>41.4</ele>
        <time>2025-09-30T14:43:54Z</time>
      </trkpt>
      <trkpt lat="48.6539" lon="-2.33237">
        <ele>41.4</ele>
        <time>2025-09-30T14:43:59Z</time>
      </trkpt>
      <trkpt lat="48.65385" lon="-2.33236">
        <ele>41.4</ele>
        <time>2025-09-30T14:44:00Z</time>
      </trkpt>
      <trkpt lat="48.65381" lon="-2.33234">
        <ele>41.4</ele>
        <time>2025-09-30T14:44:01Z</time>
      </trkpt>
      <trkpt lat="48.65372" lon="-2.33229">
        <ele>41.4</ele>
        <time>2025-09-30T14:44:03Z</time>
      </trkpt>
      <trkpt lat="48.65358" lon="-2.33218">
        <ele>41.6</ele>
        <time>2025-09-30T14:44:06Z</time>
      </trkpt>
      <trkpt lat="48.65319" lon="-2.3319">
        <ele>42.4</ele>
        <time>2025-09-30T14:44:14Z</time>
      </trkpt>
      <trkpt lat="48.65308" lon="-2.33183">
        <ele>42.6</ele>
        <time>2025-09-30T14:44:16Z</time>
      </trkpt>
      <trkpt lat="48.6527" lon="-2.33162">
        <ele>43.2</ele>
        <time>2025-09-30T14:44:23Z</time>
      </trkpt>
      <trkpt lat="48.65234" lon="-2.33139">
        <ele>43.6</ele>
        <time>2025-09-30T14:44:30Z</time>
      </trkpt>
      <trkpt lat="48.65217" lon="-2.33128">
        <ele>43.6</ele>
        <time>2025-09-30T14:44:33Z</time>
      </trkpt>
      <trkpt lat="48.65178" lon="-2.33101">
        <ele>44.4</ele>
        <time>2025-09-30T14:44:41Z</time>
      </trkpt>
      <trkpt lat="48.65163" lon="-2.33091">
        <ele>44.8</ele>
        <time>2025-09-30T14:44:44Z</time>
      </trkpt>
      <trkpt lat="48.6514" lon="-2.33075">
        <ele>45.8</ele>
        <time>2025-09-30T14:44:49Z</time>
      </trkpt>
      <trkpt lat="48.65136" lon="-2.33071">
        <ele>46</ele>
        <time>2025-09-30T14:44:50Z</time>
      </trkpt>
      <trkpt lat="48.65113" lon="-2.33052">
        <ele>47</ele>
        <time>2025-09-30T14:44:55Z</time>
      </trkpt>
      <trkpt lat="48.65091" lon="-2.33034">
        <ele>47.6</ele>
        <time>2025-09-30T14:45:00Z</time>
      </trkpt>
      <trkpt lat="48.65056" lon="-2.33009">
        <ele>48.2</ele>
        <time>2025-09-30T14:45:08Z</time>
      </trkpt>
      <trkpt lat="48.65047" lon="-2.33004">
        <ele>48.2</ele>
        <time>2025-09-30T14:45:10Z</time>
      </trkpt>
      <trkpt lat="48.65039" lon="-2.32997">
        <ele>48.4</ele>
        <time>2025-09-30T14:45:12Z</time>
      </trkpt>
      <trkpt lat="48.65025" lon="-2.32981">
        <ele>49</ele>
        <time>2025-09-30T14:45:16Z</time>
      </trkpt>
      <trkpt lat="48.65015" lon="-2.32968">
        <ele>49.2</ele>
        <time>2025-09-30T14:45:19Z</time>
      </trkpt>
      <trkpt lat="48.6501" lon="-2.32957">
        <ele>49.2</ele>
        <time>2025-09-30T14:45:21Z</time>
      </trkpt>
      <trkpt lat="48.65006" lon="-2.32951">
        <ele>49.2</ele>
        <time>2025-09-30T14:45:22Z</time>
      </trkpt>
      <trkpt lat="48.64998" lon="-2.32942">
        <ele>49.2</ele>
        <time>2025-09-30T14:45:24Z</time>
      </trkpt>
      <trkpt lat="48.64987" lon="-2.32931">
        <ele>48.6</ele>
        <time>2025-09-30T14:45:27Z</time>
      </trkpt>
      <trkpt lat="48.64983" lon="-2.3293">
        <ele>48.4</ele>
        <time>2025-09-30T14:45:28Z</time>
      </trkpt>
      <trkpt lat="48.6498" lon="-2.32932">
        <ele>48.2</ele>
        <time>2025-09-30T14:45:29Z</time>
      </trkpt>
      <trkpt lat="48.64963" lon="-2.32943">
        <ele>47.6</ele>
        <time>2025-09-30T14:45:33Z</time>
      </trkpt>
      <trkpt lat="48.64949" lon="-2.3295">
        <ele>47</ele>
        <time>2025-09-30T14:45:36Z</time>
      </trkpt>
      <trkpt lat="48.64933" lon="-2.32962">
        <ele>46.4</ele>
        <time>2025-09-30T14:45:39Z</time>
      </trkpt>
      <trkpt lat="48.64922" lon="-2.32971">
        <ele>46</ele>
        <time>2025-09-30T14:45:41Z</time>
      </trkpt>
      <trkpt lat="48.64916" lon="-2.32975">
        <ele>45.6</ele>
        <time>2025-09-30T14:45:42Z</time>
      </trkpt>
      <trkpt lat="48.64904" lon="-2.32984">
        <ele>45.2</ele>
        <time>2025-09-30T14:45:44Z</time>
      </trkpt>
      <trkpt lat="48.64887" lon="-2.32997">
        <ele>45</ele>
        <time>2025-09-30T14:45:47Z</time>
      </trkpt>
      <trkpt lat="48.64865" lon="-2.33014">
        <ele>44.6</ele>
        <time>2025-09-30T14:45:51Z</time>
      </trkpt>
      <trkpt lat="48.6483" lon="-2.3304">
        <ele>44.4</ele>
        <time>2025-09-30T14:45:58Z</time>
      </trkpt>
      <trkpt lat="48.64812" lon="-2.33052">
        <ele>44.4</ele>
        <time>2025-09-30T14:46:02Z</time>
      </trkpt>
      <trkpt lat="48.64798" lon="-2.3306">
        <ele>44.4</ele>
        <time>2025-09-30T14:46:05Z</time>
      </trkpt>
      <trkpt lat="48.64757" lon="-2.33084">
        <ele>44.2</ele>
        <time>2025-09-30T14:46:13Z</time>
      </trkpt>
      <trkpt lat="48.64752" lon="-2.33087">
        <ele>44.2</ele>
        <time>2025-09-30T14:46:14Z</time>
      </trkpt>
      <trkpt lat="48.64742" lon="-2.33091">
        <ele>44</ele>
        <time>2025-09-30T14:46:16Z</time>
      </trkpt>
      <trkpt lat="48.64718" lon="-2.33099">
        <ele>44</ele>
        <time>2025-09-30T14:46:21Z</time>
      </trkpt>
      <trkpt lat="48.64714" lon="-2.331">
        <ele>44</ele>
        <time>2025-09-30T14:46:22Z</time>
      </trkpt>
      <trkpt lat="48.64705" lon="-2.33096">
        <ele>44</ele>
        <time>2025-09-30T14:46:24Z</time>
      </trkpt>
      <trkpt lat="48.64673" lon="-2.33074">
        <ele>44.4</ele>
        <time>2025-09-30T14:46:31Z</time>
      </trkpt>
      <trkpt lat="48.64669" lon="-2.33071">
        <ele>44.4</ele>
        <time>2025-09-30T14:46:32Z</time>
      </trkpt>
      <trkpt lat="48.64651" lon="-2.3306">
        <ele>44.4</ele>
        <time>2025-09-30T14:46:36Z</time>
      </trkpt>
      <trkpt lat="48.64641" lon="-2.33058">
        <ele>44.4</ele>
        <time>2025-09-30T14:46:38Z</time>
      </trkpt>
      <trkpt lat="48.64623" lon="-2.33055">
        <ele>44.4</ele>
        <time>2025-09-30T14:46:42Z</time>
      </trkpt>
      <trkpt lat="48.64613" lon="-2.33056">
        <ele>44.4</ele>
        <time>2025-09-30T14:46:44Z</time>
      </trkpt>
      <trkpt lat="48.64608" lon="-2.33059">
        <ele>44.4</ele>
        <time>2025-09-30T14:46:45Z</time>
      </trkpt>
      <trkpt lat="48.64575" lon="-2.33079">
        <ele>44.8</ele>
        <time>2025-09-30T14:46:52Z</time>
      </trkpt>
      <trkpt lat="48.64563" lon="-2.33085">
        <ele>45</ele>
        <time>2025-09-30T14:46:55Z</time>
      </trkpt>
      <trkpt lat="48.6456" lon="-2.33089">
        <ele>45.2</ele>
        <time>2025-09-30T14:46:56Z</time>
      </trkpt>
      <trkpt lat="48.64557" lon="-2.33094">
        <ele>45.2</ele>
        <time>2025-09-30T14:46:57Z</time>
      </trkpt>
      <trkpt lat="48.64542" lon="-2.33134">
        <ele>45.6</ele>
        <time>2025-09-30T14:47:04Z</time>
      </trkpt>
      <trkpt lat="48.64519" lon="-2.33175">
        <ele>46</ele>
        <time>2025-09-30T14:47:11Z</time>
      </trkpt>
      <trkpt lat="48.645" lon="-2.3321">
        <ele>46</ele>
        <time>2025-09-30T14:47:17Z</time>
      </trkpt>
      <trkpt lat="48.64482" lon="-2.33245">
        <ele>46</ele>
        <time>2025-09-30T14:47:23Z</time>
      </trkpt>
      <trkpt lat="48.64475" lon="-2.33258">
        <ele>46</ele>
        <time>2025-09-30T14:47:25Z</time>
      </trkpt>
      <trkpt lat="48.64473" lon="-2.33263">
        <ele>46.2</ele>
        <time>2025-09-30T14:47:26Z</time>
      </trkpt>
      <trkpt lat="48.6447" lon="-2.33269">
        <ele>46.2</ele>
        <time>2025-09-30T14:47:27Z</time>
      </trkpt>
      <trkpt lat="48.64463" lon="-2.33276">
        <ele>46.4</ele>
        <time>2025-09-30T14:47:29Z</time>
      </trkpt>
      <trkpt lat="48.64454" lon="-2.33277">
        <ele>46.2</ele>
        <time>2025-09-30T14:47:31Z</time>
      </trkpt>
      <trkpt lat="48.64448" lon="-2.33276">
        <ele>46.2</ele>
        <time>2025-09-30T14:47:32Z</time>
      </trkpt>
      <trkpt lat="48.64423" lon="-2.33261">
        <ele>46.2</ele>
        <time>2025-09-30T14:47:37Z</time>
      </trkpt>
      <trkpt lat="48.64414" lon="-2.33254">
        <ele>46.6</ele>
        <time>2025-09-30T14:47:39Z</time>
      </trkpt>
      <trkpt lat="48.64396" lon="-2.33242">
        <ele>46.8</ele>
        <time>2025-09-30T14:47:43Z</time>
      </trkpt>
      <trkpt lat="48.64371" lon="-2.33222">
        <ele>46.6</ele>
        <time>2025-09-30T14:47:48Z</time>
      </trkpt>
      <trkpt lat="48.64365" lon="-2.3321">
        <ele>46.6</ele>
        <time>2025-09-30T14:47:50Z</time>
      </trkpt>
      <trkpt lat="48.64363" lon="-2.33203">
        <ele>46.6</ele>
        <time>2025-09-30T14:47:51Z</time>
      </trkpt>
      <trkpt lat="48.64363" lon="-2.33195">
        <ele>46.6</ele>
        <time>2025-09-30T14:47:52Z</time>
      </trkpt>
      <trkpt lat="48.64363" lon="-2.33164">
        <ele>47</ele>
        <time>2025-09-30T14:47:56Z</time>
      </trkpt>
      <trkpt lat="48.64363" lon="-2.33148">
        <ele>47</ele>
        <time>2025-09-30T14:47:58Z</time>
      </trkpt>
      <trkpt lat="48.64362" lon="-2.3314">
        <ele>47.2</ele>
        <time>2025-09-30T14:47:59Z</time>
      </trkpt>
      <trkpt lat="48.6436" lon="-2.33133">
        <ele>47</ele>
        <time>2025-09-30T14:48:00Z</time>
      </trkpt>
      <trkpt lat="48.64357" lon="-2.33127">
        <ele>47.2</ele>
        <time>2025-09-30T14:48:01Z</time>
      </trkpt>
      <trkpt lat="48.64353" lon="-2.33123">
        <ele>47</ele>
        <time>2025-09-30T14:48:02Z</time>
      </trkpt>
      <trkpt lat="48.64343" lon="-2.3312">
        <ele>47.2</ele>
        <time>2025-09-30T14:48:04Z</time>
      </trkpt>
      <trkpt lat="48.64328" lon="-2.33122">
        <ele>47.4</ele>
        <time>2025-09-30T14:48:07Z</time>
      </trkpt>
      <trkpt lat="48.64313" lon="-2.33123">
        <ele>47.6</ele>
        <time>2025-09-30T14:48:10Z</time>
      </trkpt>
      <trkpt lat="48.6426" lon="-2.33119">
        <ele>47.8</ele>
        <time>2025-09-30T14:48:20Z</time>
      </trkpt>
      <trkpt lat="48.64233" lon="-2.33116">
        <ele>48.2</ele>
        <time>2025-09-30T14:48:25Z</time>
      </trkpt>
      <trkpt lat="48.64202" lon="-2.33113">
        <ele>48.4</ele>
        <time>2025-09-30T14:48:31Z</time>
      </trkpt>
      <trkpt lat="48.64151" lon="-2.33101">
        <ele>48.8</ele>
        <time>2025-09-30T14:48:41Z</time>
      </trkpt>
      <trkpt lat="48.64125" lon="-2.33086">
        <ele>49.2</ele>
        <time>2025-09-30T14:48:47Z</time>
      </trkpt>
      <trkpt lat="48.64083" lon="-2.33058">
        <ele>50.2</ele>
        <time>2025-09-30T14:48:56Z</time>
      </trkpt>
      <trkpt lat="48.64073" lon="-2.33053">
        <ele>50.4</ele>
        <time>2025-09-30T14:48:58Z</time>
      </trkpt>
      <trkpt lat="48.64028" lon="-2.33027">
        <ele>51.4</ele>
        <time>2025-09-30T14:49:07Z</time>
      </trkpt>
      <trkpt lat="48.63993" lon="-2.33009">
        <ele>52.4</ele>
        <time>2025-09-30T14:49:14Z</time>
      </trkpt>
      <trkpt lat="48.63983" lon="-2.33004">
        <ele>52.6</ele>
        <time>2025-09-30T14:49:16Z</time>
      </trkpt>
      <trkpt lat="48.63974" lon="-2.32997">
        <ele>52.6</ele>
        <time>2025-09-30T14:49:18Z</time>
      </trkpt>
      <trkpt lat="48.63963" lon="-2.32983">
        <ele>52.6</ele>
        <time>2025-09-30T14:49:21Z</time>
      </trkpt>
      <trkpt lat="48.63953" lon="-2.32969">
        <ele>52.8</ele>
        <time>2025-09-30T14:49:24Z</time>
      </trkpt>
      <trkpt lat="48.63947" lon="-2.32961">
        <ele>52.8</ele>
        <time>2025-09-30T14:49:26Z</time>
      </trkpt>
      <trkpt lat="48.63934" lon="-2.32936">
        <ele>53.4</ele>
        <time>2025-09-30T14:49:31Z</time>
      </trkpt>
      <trkpt lat="48.63931" lon="-2.3293">
        <ele>53.6</ele>
        <time>2025-09-30T14:49:32Z</time>
      </trkpt>
      <trkpt lat="48.63928" lon="-2.32924">
        <ele>53.8</ele>
        <time>2025-09-30T14:49:33Z</time>
      </trkpt>
      <trkpt lat="48.63919" lon="-2.32911">
        <ele>54</ele>
        <time>2025-09-30T14:49:35Z</time>
      </trkpt>
      <trkpt lat="48.63912" lon="-2.32901">
        <ele>54.4</ele>
        <time>2025-09-30T14:49:37Z</time>
      </trkpt>
      <trkpt lat="48.63907" lon="-2.32896">
        <ele>54.6</ele>
        <time>2025-09-30T14:49:38Z</time>
      </trkpt>
      <trkpt lat="48.63874" lon="-2.32866">
        <ele>55.2</ele>
        <time>2025-09-30T14:49:45Z</time>
      </trkpt>
      <trkpt lat="48.63855" lon="-2.32852">
        <ele>55.8</ele>
        <time>2025-09-30T14:49:49Z</time>
      </trkpt>
      <trkpt lat="48.63833" lon="-2.32841">
        <ele>56</ele>
        <time>2025-09-30T14:49:53Z</time>
      </trkpt>
      <trkpt lat="48.63802" lon="-2.32831">
        <ele>56</ele>
        <time>2025-09-30T14:49:59Z</time>
      </trkpt>
      <trkpt lat="48.63798" lon="-2.3283">
        <ele>55.8</ele>
        <time>2025-09-30T14:50:00Z</time>
      </trkpt>
      <trkpt lat="48.63768" lon="-2.32821">
        <ele>56.2</ele>
        <time>2025-09-30T14:50:06Z</time>
      </trkpt>
      <trkpt lat="48.63722" lon="-2.32807">
        <ele>56.2</ele>
        <time>2025-09-30T14:50:15Z</time>
      </trkpt>
      <trkpt lat="48.63706" lon="-2.32802">
        <ele>56.2</ele>
        <time>2025-09-30T14:50:18Z</time>
      </trkpt>
      <trkpt lat="48.63701" lon="-2.328">
        <ele>56.2</ele>
        <time>2025-09-30T14:50:19Z</time>
      </trkpt>
      <trkpt lat="48.63669" lon="-2.32788">
        <ele>56.2</ele>
        <time>2025-09-30T14:50:25Z</time>
      </trkpt>
      <trkpt lat="48.63626" lon="-2.32765">
        <ele>56.2</ele>
        <time>2025-09-30T14:50:34Z</time>
      </trkpt>
      <trkpt lat="48.63587" lon="-2.32746">
        <ele>56.4</ele>
        <time>2025-09-30T14:50:42Z</time>
      </trkpt>
      <trkpt lat="48.63578" lon="-2.32743">
        <ele>56.4</ele>
        <time>2025-09-30T14:50:44Z</time>
      </trkpt>
      <trkpt lat="48.63572" lon="-2.32742">
        <ele>56.4</ele>
        <time>2025-09-30T14:50:45Z</time>
      </trkpt>
      <trkpt lat="48.63547" lon="-2.32733">
        <ele>56.4</ele>
        <time>2025-09-30T14:50:50Z</time>
      </trkpt>
      <trkpt lat="48.63545" lon="-2.32729">
        <ele>56.2</ele>
        <time>2025-09-30T14:50:51Z</time>
      </trkpt>
      <trkpt lat="48.63544" lon="-2.32724">
        <ele>56.2</ele>
        <time>2025-09-30T14:50:52Z</time>
      </trkpt>
      <trkpt lat="48.63547" lon="-2.32716">
        <ele>56.2</ele>
        <time>2025-09-30T14:50:54Z</time>
      </trkpt>
      <trkpt lat="48.6356" lon="-2.32691">
        <ele>56.6</ele>
        <time>2025-09-30T14:50:59Z</time>
      </trkpt>
      <trkpt lat="48.63563" lon="-2.32685">
        <ele>56.8</ele>
        <time>2025-09-30T14:51:00Z</time>
      </trkpt>
      <trkpt lat="48.63584" lon="-2.32641">
        <ele>57.4</ele>
        <time>2025-09-30T14:51:07Z</time>
      </trkpt>
      <trkpt lat="48.63615" lon="-2.32592">
        <ele>58</ele>
        <time>2025-09-30T14:51:16Z</time>
      </trkpt>
      <trkpt lat="48.63622" lon="-2.32582">
        <ele>58.4</ele>
        <time>2025-09-30T14:51:18Z</time>
      </trkpt>
      <trkpt lat="48.63627" lon="-2.3257">
        <ele>58.6</ele>
        <time>2025-09-30T14:51:20Z</time>
      </trkpt>
      <trkpt lat="48.63628" lon="-2.32562">
        <ele>58.6</ele>
        <time>2025-09-30T14:51:21Z</time>
      </trkpt>
      <trkpt lat="48.63628" lon="-2.32555">
        <ele>58.8</ele>
        <time>2025-09-30T14:51:22Z</time>
      </trkpt>
      <trkpt lat="48.63625" lon="-2.32541">
        <ele>59</ele>
        <time>2025-09-30T14:51:24Z</time>
      </trkpt>
      <trkpt lat="48.63625" lon="-2.32534">
        <ele>59.2</ele>
        <time>2025-09-30T14:51:25Z</time>
      </trkpt>
      <trkpt lat="48.63626" lon="-2.32527">
        <ele>59.2</ele>
        <time>2025-09-30T14:51:26Z</time>
      </trkpt>
      <trkpt lat="48.63634" lon="-2.32506">
        <ele>59.2</ele>
        <time>2025-09-30T14:51:29Z</time>
      </trkpt>
      <trkpt lat="48.63654" lon="-2.32454">
        <ele>58.6</ele>
        <time>2025-09-30T14:51:37Z</time>
      </trkpt>
      <trkpt lat="48.63661" lon="-2.32428">
        <ele>58.4</ele>
        <time>2025-09-30T14:51:41Z</time>
      </trkpt>
      <trkpt lat="48.63663" lon="-2.32414">
        <ele>58.2</ele>
        <time>2025-09-30T14:51:43Z</time>
      </trkpt>
      <trkpt lat="48.63661" lon="-2.32399">
        <ele>58</ele>
        <time>2025-09-30T14:51:45Z</time>
      </trkpt>
      <trkpt lat="48.63657" lon="-2.32383">
        <ele>58</ele>
        <time>2025-09-30T14:51:47Z</time>
      </trkpt>
      <trkpt lat="48.63632" lon="-2.32328">
        <ele>57.4</ele>
        <time>2025-09-30T14:51:55Z</time>
      </trkpt>
      <trkpt lat="48.63623" lon="-2.32309">
        <ele>57.2</ele>
        <time>2025-09-30T14:51:58Z</time>
      </trkpt>
      <trkpt lat="48.63617" lon="-2.32297">
        <ele>57</ele>
        <time>2025-09-30T14:52:00Z</time>
      </trkpt>
      <trkpt lat="48.63614" lon="-2.32292">
        <ele>56.8</ele>
        <time>2025-09-30T14:52:01Z</time>
      </trkpt>
      <trkpt lat="48.63613" lon="-2.32288">
        <ele>56.8</ele>
        <time>2025-09-30T14:52:02Z</time>
      </trkpt>
      <trkpt lat="48.63613" lon="-2.32274">
        <ele>56.2</ele>
        <time>2025-09-30T14:52:05Z</time>
      </trkpt>
      <trkpt lat="48.63625" lon="-2.3226">
        <ele>56.2</ele>
        <time>2025-09-30T14:52:09Z</time>
      </trkpt>
      <trkpt lat="48.63648" lon="-2.32248">
        <ele>56.8</ele>
        <time>2025-09-30T14:52:14Z</time>
      </trkpt>
      <trkpt lat="48.63661" lon="-2.32241">
        <ele>57</ele>
        <time>2025-09-30T14:52:17Z</time>
      </trkpt>
      <trkpt lat="48.63665" lon="-2.3224">
        <ele>57</ele>
        <time>2025-09-30T14:52:18Z</time>
      </trkpt>
      <trkpt lat="48.63669" lon="-2.32236">
        <ele>57</ele>
        <time>2025-09-30T14:52:19Z</time>
      </trkpt>
      <trkpt lat="48.63672" lon="-2.32232">
        <ele>57</ele>
        <time>2025-09-30T14:52:20Z</time>
      </trkpt>
      <trkpt lat="48.63674" lon="-2.32226">
        <ele>57.2</ele>
        <time>2025-09-30T14:52:21Z</time>
      </trkpt>
      <trkpt lat="48.63674" lon="-2.32218">
        <ele>57.2</ele>
        <time>2025-09-30T14:52:22Z</time>
      </trkpt>
      <trkpt lat="48.63673" lon="-2.32212">
        <ele>57.2</ele>
        <time>2025-09-30T14:52:23Z</time>
      </trkpt>
      <trkpt lat="48.63657" lon="-2.32179">
        <ele>57.4</ele>
        <time>2025-09-30T14:52:28Z</time>
      </trkpt>
      <trkpt lat="48.63643" lon="-2.32165">
        <ele>57.4</ele>
        <time>2025-09-30T14:52:31Z</time>
      </trkpt>
      <trkpt lat="48.6363" lon="-2.32152">
        <ele>57.2</ele>
        <time>2025-09-30T14:52:34Z</time>
      </trkpt>
      <trkpt lat="48.63608" lon="-2.3212">
        <ele>56.8</ele>
        <time>2025-09-30T14:52:40Z</time>
      </trkpt>
      <trkpt lat="48.63604" lon="-2.32115">
        <ele>56.8</ele>
        <time>2025-09-30T14:52:41Z</time>
      </trkpt>
      <trkpt lat="48.63585" lon="-2.32088">
        <ele>56</ele>
        <time>2025-09-30T14:52:46Z</time>
      </trkpt>
      <trkpt lat="48.63577" lon="-2.32077">
        <ele>55.4</ele>
        <time>2025-09-30T14:52:48Z</time>
      </trkpt>
      <trkpt lat="48.63567" lon="-2.32065">
        <ele>54.6</ele>
        <time>2025-09-30T14:52:50Z</time>
      </trkpt>
      <trkpt lat="48.63556" lon="-2.32049">
        <ele>53.6</ele>
        <time>2025-09-30T14:52:53Z</time>
      </trkpt>
      <trkpt lat="48.63545" lon="-2.32032">
        <ele>52.2</ele>
        <time>2025-09-30T14:52:56Z</time>
      </trkpt>
      <trkpt lat="48.63537" lon="-2.32026">
        <ele>51.6</ele>
        <time>2025-09-30T14:52:58Z</time>
      </trkpt>
      <trkpt lat="48.63533" lon="-2.32026">
        <ele>51</ele>
        <time>2025-09-30T14:52:59Z</time>
      </trkpt>
      <trkpt lat="48.63527" lon="-2.32027">
        <ele>50.8</ele>
        <time>2025-09-30T14:53:00Z</time>
      </trkpt>
      <trkpt lat="48.63522" lon="-2.32031">
        <ele>49.6</ele>
        <time>2025-09-30T14:53:01Z</time>
      </trkpt>
      <trkpt lat="48.63517" lon="-2.32035">
        <ele>49.4</ele>
        <time>2025-09-30T14:53:02Z</time>
      </trkpt>
      <trkpt lat="48.63512" lon="-2.3204">
        <ele>49.2</ele>
        <time>2025-09-30T14:53:03Z</time>
      </trkpt>
      <trkpt lat="48.63497" lon="-2.32056">
        <ele>48.4</ele>
        <time>2025-09-30T14:53:06Z</time>
      </trkpt>
      <trkpt lat="48.63483" lon="-2.32067">
        <ele>47.8</ele>
        <time>2025-09-30T14:53:08Z</time>
      </trkpt>
      <trkpt lat="48.63469" lon="-2.32077">
        <ele>47.2</ele>
        <time>2025-09-30T14:53:10Z</time>
      </trkpt>
      <trkpt lat="48.63448" lon="-2.32092">
        <ele>46.4</ele>
        <time>2025-09-30T14:53:13Z</time>
      </trkpt>
      <trkpt lat="48.6344" lon="-2.32098">
        <ele>45.8</ele>
        <time>2025-09-30T14:53:14Z</time>
      </trkpt>
      <trkpt lat="48.63425" lon="-2.32108">
        <ele>45.4</ele>
        <time>2025-09-30T14:53:16Z</time>
      </trkpt>
      <trkpt lat="48.63409" lon="-2.32112">
        <ele>44.8</ele>
        <time>2025-09-30T14:53:18Z</time>
      </trkpt>
      <trkpt lat="48.63401" lon="-2.32113">
        <ele>44.8</ele>
        <time>2025-09-30T14:53:19Z</time>
      </trkpt>
      <trkpt lat="48.63395" lon="-2.32111">
        <ele>44.6</ele>
        <time>2025-09-30T14:53:20Z</time>
      </trkpt>
      <trkpt lat="48.63386" lon="-2.32107">
        <ele>44.6</ele>
        <time>2025-09-30T14:53:21Z</time>
      </trkpt>
      <trkpt lat="48.63361" lon="-2.32091">
        <ele>43.2</ele>
        <time>2025-09-30T14:53:24Z</time>
      </trkpt>
      <trkpt lat="48.63344" lon="-2.32084">
        <ele>41</ele>
        <time>2025-09-30T14:53:26Z</time>
      </trkpt>
      <trkpt lat="48.63334" lon="-2.32081">
        <ele>40.2</ele>
        <time>2025-09-30T14:53:27Z</time>
      </trkpt>
      <trkpt lat="48.63325" lon="-2.3208">
        <ele>38.8</ele>
        <time>2025-09-30T14:53:28Z</time>
      </trkpt>
      <trkpt lat="48.63316" lon="-2.3208">
        <ele>38</ele>
        <time>2025-09-30T14:53:29Z</time>
      </trkpt>
      <trkpt lat="48.63307" lon="-2.32081">
        <ele>37.2</ele>
        <time>2025-09-30T14:53:30Z</time>
      </trkpt>
      <trkpt lat="48.63289" lon="-2.32084">
        <ele>35.4</ele>
        <time>2025-09-30T14:53:32Z</time>
      </trkpt>
      <trkpt lat="48.63268" lon="-2.32091">
        <ele>33.8</ele>
        <time>2025-09-30T14:53:34Z</time>
      </trkpt>
      <trkpt lat="48.6326" lon="-2.32093">
        <ele>32.6</ele>
        <time>2025-09-30T14:53:35Z</time>
      </trkpt>
      <trkpt lat="48.6325" lon="-2.32097">
        <ele>31</ele>
        <time>2025-09-30T14:53:36Z</time>
      </trkpt>
      <trkpt lat="48.63241" lon="-2.32101">
        <ele>30.2</ele>
        <time>2025-09-30T14:53:37Z</time>
      </trkpt>
      <trkpt lat="48.63232" lon="-2.32108">
        <ele>29.4</ele>
        <time>2025-09-30T14:53:38Z</time>
      </trkpt>
      <trkpt lat="48.63223" lon="-2.32117">
        <ele>28.4</ele>
        <time>2025-09-30T14:53:39Z</time>
      </trkpt>
      <trkpt lat="48.63208" lon="-2.32134">
        <ele>27.2</ele>
        <time>2025-09-30T14:53:41Z</time>
      </trkpt>
      <trkpt lat="48.63184" lon="-2.32154">
        <ele>26</ele>
        <time>2025-09-30T14:53:44Z</time>
      </trkpt>
      <trkpt lat="48.63168" lon="-2.32165">
        <ele>24.6</ele>
        <time>2025-09-30T14:53:46Z</time>
      </trkpt>
      <trkpt lat="48.63147" lon="-2.32184">
        <ele>22.6</ele>
        <time>2025-09-30T14:53:49Z</time>
      </trkpt>
      <trkpt lat="48.63133" lon="-2.322">
        <ele>20.6</ele>
        <time>2025-09-30T14:53:51Z</time>
      </trkpt>
      <trkpt lat="48.63122" lon="-2.32213">
        <ele>19.2</ele>
        <time>2025-09-30T14:53:53Z</time>
      </trkpt>
      <trkpt lat="48.63102" lon="-2.32231">
        <ele>18</ele>
        <time>2025-09-30T14:53:56Z</time>
      </trkpt>
      <trkpt lat="48.63088" lon="-2.32237">
        <ele>17.2</ele>
        <time>2025-09-30T14:53:58Z</time>
      </trkpt>
      <trkpt lat="48.63083" lon="-2.32238">
        <ele>17</ele>
        <time>2025-09-30T14:53:59Z</time>
      </trkpt>
      <trkpt lat="48.63075" lon="-2.32237">
        <ele>17</ele>
        <time>2025-09-30T14:54:00Z</time>
      </trkpt>
      <trkpt lat="48.63064" lon="-2.32232">
        <ele>16.8</ele>
        <time>2025-09-30T14:54:02Z</time>
      </trkpt>
      <trkpt lat="48.63059" lon="-2.32228">
        <ele>16.8</ele>
        <time>2025-09-30T14:54:03Z</time>
      </trkpt>
      <trkpt lat="48.63055" lon="-2.32224">
        <ele>16.6</ele>
        <time>2025-09-30T14:54:04Z</time>
      </trkpt>
      <trkpt lat="48.63036" lon="-2.322">
        <ele>16.6</ele>
        <time>2025-09-30T14:54:08Z</time>
      </trkpt>
      <trkpt lat="48.63012" lon="-2.32168">
        <ele>16.4</ele>
        <time>2025-09-30T14:54:13Z</time>
      </trkpt>
      <trkpt lat="48.63003" lon="-2.32156">
        <ele>15.8</ele>
        <time>2025-09-30T14:54:15Z</time>
      </trkpt>
      <trkpt lat="48.62998" lon="-2.32151">
        <ele>15.8</ele>
        <time>2025-09-30T14:54:16Z</time>
      </trkpt>
      <trkpt lat="48.6299" lon="-2.32138">
        <ele>15.6</ele>
        <time>2025-09-30T14:54:18Z</time>
      </trkpt>
      <trkpt lat="48.62979" lon="-2.32117">
        <ele>15.2</ele>
        <time>2025-09-30T14:54:21Z</time>
      </trkpt>
      <trkpt lat="48.62972" lon="-2.32105">
        <ele>15</ele>
        <time>2025-09-30T14:54:23Z</time>
      </trkpt>
      <trkpt lat="48.62957" lon="-2.32088">
        <ele>14.8</ele>
        <time>2025-09-30T14:54:26Z</time>
      </trkpt>
      <trkpt lat="48.62951" lon="-2.32084">
        <ele>14.6</ele>
        <time>2025-09-30T14:54:27Z</time>
      </trkpt>
      <trkpt lat="48.62921" lon="-2.32067">
        <ele>13.4</ele>
        <time>2025-09-30T14:54:32Z</time>
      </trkpt>
      <trkpt lat="48.62907" lon="-2.3206">
        <ele>12.2</ele>
        <time>2025-09-30T14:54:34Z</time>
      </trkpt>
      <trkpt lat="48.629" lon="-2.32058">
        <ele>12</ele>
        <time>2025-09-30T14:54:35Z</time>
      </trkpt>
      <trkpt lat="48.62886" lon="-2.32061">
        <ele>11</ele>
        <time>2025-09-30T14:54:37Z</time>
      </trkpt>
      <trkpt lat="48.6288" lon="-2.32067">
        <ele>9.8</ele>
        <time>2025-09-30T14:54:38Z</time>
      </trkpt>
      <trkpt lat="48.62875" lon="-2.32075">
        <ele>9.2</ele>
        <time>2025-09-30T14:54:39Z</time>
      </trkpt>
      <trkpt lat="48.62871" lon="-2.32085">
        <ele>8.6</ele>
        <time>2025-09-30T14:54:40Z</time>
      </trkpt>
      <trkpt lat="48.62868" lon="-2.32096">
        <ele>7.6</ele>
        <time>2025-09-30T14:54:41Z</time>
      </trkpt>
      <trkpt lat="48.62862" lon="-2.32132">
        <ele>6</ele>
        <time>2025-09-30T14:54:44Z</time>
      </trkpt>
      <trkpt lat="48.62861" lon="-2.32144">
        <ele>5.2</ele>
        <time>2025-09-30T14:54:45Z</time>
      </trkpt>
      <trkpt lat="48.62861" lon="-2.32158">
        <ele>4.6</ele>
        <time>2025-09-30T14:54:46Z</time>
      </trkpt>
      <trkpt lat="48.62862" lon="-2.32171">
        <ele>4</ele>
        <time>2025-09-30T14:54:47Z</time>
      </trkpt>
      <trkpt lat="48.62866" lon="-2.32197">
        <ele>3.2</ele>
        <time>2025-09-30T14:54:49Z</time>
      </trkpt>
      <trkpt lat="48.62864" lon="-2.32224">
        <ele>3.2</ele>
        <time>2025-09-30T14:54:51Z</time>
      </trkpt>
      <trkpt lat="48.62852" lon="-2.32265">
        <ele>3</ele>
        <time>2025-09-30T14:54:55Z</time>
      </trkpt>
      <trkpt lat="48.62836" lon="-2.32316">
        <ele>3.2</ele>
        <time>2025-09-30T14:55:01Z</time>
      </trkpt>
      <trkpt lat="48.62822" lon="-2.32368">
        <ele>2.6</ele>
        <time>2025-09-30T14:55:07Z</time>
      </trkpt>
      <trkpt lat="48.62804" lon="-2.32435">
        <ele>2.4</ele>
        <time>2025-09-30T14:55:15Z</time>
      </trkpt>
      <trkpt lat="48.62789" lon="-2.32495">
        <ele>2</ele>
        <time>2025-09-30T14:55:22Z</time>
      </trkpt>
      <trkpt lat="48.62783" lon="-2.32512">
        <ele>2.2</ele>
        <time>2025-09-30T14:55:24Z</time>
      </trkpt>
      <trkpt lat="48.62766" lon="-2.32552">
        <ele>2.2</ele>
        <time>2025-09-30T14:55:29Z</time>
      </trkpt>
      <trkpt lat="48.62729" lon="-2.32609">
        <ele>1.8</ele>
        <time>2025-09-30T14:55:38Z</time>
      </trkpt>
      <trkpt lat="48.62722" lon="-2.32622">
        <ele>1.8</ele>
        <time>2025-09-30T14:55:40Z</time>
      </trkpt>
      <trkpt lat="48.62708" lon="-2.3266">
        <ele>1.6</ele>
        <time>2025-09-30T14:55:45Z</time>
      </trkpt>
      <trkpt lat="48.62699" lon="-2.32671">
        <ele>1.6</ele>
        <time>2025-09-30T14:55:47Z</time>
      </trkpt>
      <trkpt lat="48.62689" lon="-2.32678">
        <ele>1.6</ele>
        <time>2025-09-30T14:55:49Z</time>
      </trkpt>
      <trkpt lat="48.6266" lon="-2.32687">
        <ele>1.6</ele>
        <time>2025-09-30T14:55:54Z</time>
      </trkpt>
      <trkpt lat="48.62648" lon="-2.32696">
        <ele>1.8</ele>
        <time>2025-09-30T14:55:56Z</time>
      </trkpt>
      <trkpt lat="48.62639" lon="-2.32708">
        <ele>2</ele>
        <time>2025-09-30T14:55:58Z</time>
      </trkpt>
      <trkpt lat="48.62636" lon="-2.32715">
        <ele>2</ele>
        <time>2025-09-30T14:55:59Z</time>
      </trkpt>
      <trkpt lat="48.62625" lon="-2.32748">
        <ele>1.8</ele>
        <time>2025-09-30T14:56:03Z</time>
      </trkpt>
      <trkpt lat="48.62603" lon="-2.32812">
        <ele>1.6</ele>
        <time>2025-09-30T14:56:11Z</time>
      </trkpt>
      <trkpt lat="48.62596" lon="-2.32825">
        <ele>1.6</ele>
        <time>2025-09-30T14:56:13Z</time>
      </trkpt>
      <trkpt lat="48.62585" lon="-2.32837">
        <ele>1.4</ele>
        <time>2025-09-30T14:56:15Z</time>
      </trkpt>
      <trkpt lat="48.6257" lon="-2.32852">
        <ele>1.6</ele>
        <time>2025-09-30T14:56:18Z</time>
      </trkpt>
      <trkpt lat="48.62557" lon="-2.32872">
        <ele>1.8</ele>
        <time>2025-09-30T14:56:21Z</time>
      </trkpt>
      <trkpt lat="48.62549" lon="-2.32887">
        <ele>1.8</ele>
        <time>2025-09-30T14:56:23Z</time>
      </trkpt>
      <trkpt lat="48.62527" lon="-2.3293">
        <ele>1.6</ele>
        <time>2025-09-30T14:56:29Z</time>
      </trkpt>
      <trkpt lat="48.62489" lon="-2.32991">
        <ele>1.6</ele>
        <time>2025-09-30T14:56:38Z</time>
      </trkpt>
      <trkpt lat="48.62479" lon="-2.33004">
        <ele>1.8</ele>
        <time>2025-09-30T14:56:40Z</time>
      </trkpt>
      <trkpt lat="48.62462" lon="-2.33031">
        <ele>1.8</ele>
        <time>2025-09-30T14:56:44Z</time>
      </trkpt>
      <trkpt lat="48.62444" lon="-2.33059">
        <ele>1.8</ele>
        <time>2025-09-30T14:56:48Z</time>
      </trkpt>
      <trkpt lat="48.62423" lon="-2.33093">
        <ele>1.6</ele>
        <time>2025-09-30T14:56:53Z</time>
      </trkpt>
      <trkpt lat="48.62387" lon="-2.3316">
        <ele>1.8</ele>
        <time>2025-09-30T14:57:02Z</time>
      </trkpt>
      <trkpt lat="48.62357" lon="-2.33234">
        <ele>1.6</ele>
        <time>2025-09-30T14:57:11Z</time>
      </trkpt>
      <trkpt lat="48.62334" lon="-2.33292">
        <ele>1.4</ele>
        <time>2025-09-30T14:57:18Z</time>
      </trkpt>
      <trkpt lat="48.62314" lon="-2.3334">
        <ele>1.4</ele>
        <time>2025-09-30T14:57:24Z</time>
      </trkpt>
      <trkpt lat="48.62283" lon="-2.33411">
        <ele>1.2</ele>
        <time>2025-09-30T14:57:33Z</time>
      </trkpt>
      <trkpt lat="48.62279" lon="-2.33418">
        <ele>1.2</ele>
        <time>2025-09-30T14:57:34Z</time>
      </trkpt>
      <trkpt lat="48.6226" lon="-2.33444">
        <ele>1.2</ele>
        <time>2025-09-30T14:57:38Z</time>
      </trkpt>
      <trkpt lat="48.62255" lon="-2.33449">
        <ele>1.2</ele>
        <time>2025-09-30T14:57:39Z</time>
      </trkpt>
      <trkpt lat="48.62238" lon="-2.33462">
        <ele>1.4</ele>
        <time>2025-09-30T14:57:42Z</time>
      </trkpt>
      <trkpt lat="48.62226" lon="-2.33466">
        <ele>1.4</ele>
        <time>2025-09-30T14:57:44Z</time>
      </trkpt>
      <trkpt lat="48.6219" lon="-2.33473">
        <ele>1.4</ele>
        <time>2025-09-30T14:57:50Z</time>
      </trkpt>
      <trkpt lat="48.62185" lon="-2.33477">
        <ele>1.6</ele>
        <time>2025-09-30T14:57:51Z</time>
      </trkpt>
      <trkpt lat="48.62178" lon="-2.33483">
        <ele>1.4</ele>
        <time>2025-09-30T14:57:52Z</time>
      </trkpt>
      <trkpt lat="48.62169" lon="-2.33494">
        <ele>1.2</ele>
        <time>2025-09-30T14:57:54Z</time>
      </trkpt>
      <trkpt lat="48.62165" lon="-2.33502">
        <ele>1</ele>
        <time>2025-09-30T14:57:55Z</time>
      </trkpt>
      <trkpt lat="48.62131" lon="-2.33564">
        <ele>0.60000000000002</ele>
        <time>2025-09-30T14:58:03Z</time>
      </trkpt>
      <trkpt lat="48.62128" lon="-2.33572">
        <ele>0.60000000000002</ele>
        <time>2025-09-30T14:58:04Z</time>
      </trkpt>
      <trkpt lat="48.62119" lon="-2.336">
        <ele>0.60000000000002</ele>
        <time>2025-09-30T14:58:07Z</time>
      </trkpt>
      <trkpt lat="48.62117" lon="-2.33609">
        <ele>0.60000000000002</ele>
        <time>2025-09-30T14:58:08Z</time>
      </trkpt>
      <trkpt lat="48.62104" lon="-2.33662">
        <ele>1</ele>
        <time>2025-09-30T14:58:14Z</time>
      </trkpt>
      <trkpt lat="48.62091" lon="-2.33693">
        <ele>1</ele>
        <time>2025-09-30T14:58:18Z</time>
      </trkpt>
      <trkpt lat="48.6208" lon="-2.33716">
        <ele>1</ele>
        <time>2025-09-30T14:58:21Z</time>
      </trkpt>
      <trkpt lat="48.62068" lon="-2.33747">
        <ele>1.2</ele>
        <time>2025-09-30T14:58:25Z</time>
      </trkpt>
      <trkpt lat="48.62054" lon="-2.33777">
        <ele>1.4</ele>
        <time>2025-09-30T14:58:29Z</time>
      </trkpt>
      <trkpt lat="48.62037" lon="-2.33813">
        <ele>1.8</ele>
        <time>2025-09-30T14:58:35Z</time>
      </trkpt>
      <trkpt lat="48.62026" lon="-2.33831">
        <ele>2</ele>
        <time>2025-09-30T14:58:40Z</time>
      </trkpt>
      <trkpt lat="48.62025" lon="-2.33831">
        <ele>2.2</ele>
        <time>2025-09-30T14:58:43Z</time>
      </trkpt>
      <trkpt lat="48.62025" lon="-2.33831">
        <ele>2.4</ele>
        <time>2025-09-30T14:58:44Z</time>
      </trkpt>
      <trkpt lat="48.62025" lon="-2.33832">
        <ele>2.8</ele>
        <time>2025-09-30T14:58:53Z</time>
      </trkpt>
      <trkpt lat="48.62025" lon="-2.33831">
        <ele>2.8</ele>
        <time>2025-09-30T14:59:06Z</time>
      </trkpt>
      <trkpt lat="48.62025" lon="-2.33831">
        <ele>2.8</ele>
        <time>2025-09-30T14:59:08Z</time>
      </trkpt>
      <trkpt lat="48.62024" lon="-2.33831">
        <ele>2.6</ele>
        <time>2025-09-30T14:59:15Z</time>
      </trkpt>
      <trkpt lat="48.62023" lon="-2.33832">
        <ele>2.8</ele>
        <time>2025-09-30T14:59:16Z</time>
      </trkpt>
      <trkpt lat="48.62021" lon="-2.33832">
        <ele>3</ele>
        <time>2025-09-30T14:59:17Z</time>
      </trkpt>
      <trkpt lat="48.62008" lon="-2.33822">
        <ele>3</ele>
        <time>2025-09-30T14:59:21Z</time>
      </trkpt>
      <trkpt lat="48.62002" lon="-2.33812">
        <ele>2.8</ele>
        <time>2025-09-30T14:59:23Z</time>
      </trkpt>
      <trkpt lat="48.61991" lon="-2.33798">
        <ele>2.8</ele>
        <time>2025-09-30T14:59:26Z</time>
      </trkpt>
      <trkpt lat="48.61969" lon="-2.33771">
        <ele>3.2</ele>
        <time>2025-09-30T14:59:32Z</time>
      </trkpt>
      <trkpt lat="48.61965" lon="-2.33765">
        <ele>3.2</ele>
        <time>2025-09-30T14:59:33Z</time>
      </trkpt>
      <trkpt lat="48.61955" lon="-2.33753">
        <ele>3.4</ele>
        <time>2025-09-30T14:59:36Z</time>
      </trkpt>
      <trkpt lat="48.61942" lon="-2.33736">
        <ele>3.2</ele>
        <time>2025-09-30T14:59:40Z</time>
      </trkpt>
      <trkpt lat="48.61934" lon="-2.33733">
        <ele>3.2</ele>
        <time>2025-09-30T14:59:42Z</time>
      </trkpt>
      <trkpt lat="48.6193" lon="-2.33731">
        <ele>3</ele>
        <time>2025-09-30T14:59:43Z</time>
      </trkpt>
      <trkpt lat="48.61923" lon="-2.33724">
        <ele>2.8</ele>
        <time>2025-09-30T14:59:45Z</time>
      </trkpt>
      <trkpt lat="48.6192" lon="-2.3372">
        <ele>2.8</ele>
        <time>2025-09-30T14:59:46Z</time>
      </trkpt>
      <trkpt lat="48.61901" lon="-2.337">
        <ele>2.2</ele>
        <time>2025-09-30T14:59:51Z</time>
      </trkpt>
      <trkpt lat="48.61888" lon="-2.33692">
        <ele>2</ele>
        <time>2025-09-30T14:59:54Z</time>
      </trkpt>
      <trkpt lat="48.61856" lon="-2.33667">
        <ele>1.4</ele>
        <time>2025-09-30T15:00:02Z</time>
      </trkpt>
      <trkpt lat="48.61847" lon="-2.33663">
        <ele>1.4</ele>
        <time>2025-09-30T15:00:04Z</time>
      </trkpt>
      <trkpt lat="48.61838" lon="-2.33664">
        <ele>1.6</ele>
        <time>2025-09-30T15:00:06Z</time>
      </trkpt>
      <trkpt lat="48.6183" lon="-2.33671">
        <ele>1.4</ele>
        <time>2025-09-30T15:00:08Z</time>
      </trkpt>
      <trkpt lat="48.61827" lon="-2.33677">
        <ele>1.2</ele>
        <time>2025-09-30T15:00:09Z</time>
      </trkpt>
      <trkpt lat="48.61824" lon="-2.33684">
        <ele>1</ele>
        <time>2025-09-30T15:00:10Z</time>
      </trkpt>
      <trkpt lat="48.61811" lon="-2.33718">
        <ele>0.60000000000002</ele>
        <time>2025-09-30T15:00:15Z</time>
      </trkpt>
      <trkpt lat="48.61809" lon="-2.33723">
        <ele>0.60000000000002</ele>
        <time>2025-09-30T15:00:16Z</time>
      </trkpt>
      <trkpt lat="48.61805" lon="-2.33725">
        <ele>0.60000000000002</ele>
        <time>2025-09-30T15:00:17Z</time>
      </trkpt>
      <trkpt lat="48.618" lon="-2.33723">
        <ele>1</ele>
        <time>2025-09-30T15:00:19Z</time>
      </trkpt>
      <trkpt lat="48.61788" lon="-2.33706">
        <ele>2</ele>
        <time>2025-09-30T15:00:23Z</time>
      </trkpt>
      <trkpt lat="48.61785" lon="-2.33702">
        <ele>2</ele>
        <time>2025-09-30T15:00:24Z</time>
      </trkpt>
      <trkpt lat="48.61772" lon="-2.33686">
        <ele>2.4</ele>
        <time>2025-09-30T15:00:28Z</time>
      </trkpt>
      <trkpt lat="48.61766" lon="-2.33685">
        <ele>2.8</ele>
        <time>2025-09-30T15:00:30Z</time>
      </trkpt>
      <trkpt lat="48.6176" lon="-2.3369">
        <ele>3.2</ele>
        <time>2025-09-30T15:00:32Z</time>
      </trkpt>
      <trkpt lat="48.61744" lon="-2.33703">
        <ele>3.8</ele>
        <time>2025-09-30T15:00:36Z</time>
      </trkpt>
      <trkpt lat="48.61724" lon="-2.3372">
        <ele>4.2</ele>
        <time>2025-09-30T15:00:41Z</time>
      </trkpt>
      <trkpt lat="48.61712" lon="-2.33731">
        <ele>4.6</ele>
        <time>2025-09-30T15:00:44Z</time>
      </trkpt>
      <trkpt lat="48.61687" lon="-2.33752">
        <ele>5.4</ele>
        <time>2025-09-30T15:00:50Z</time>
      </trkpt>
      <trkpt lat="48.61667" lon="-2.3377">
        <ele>6</ele>
        <time>2025-09-30T15:00:55Z</time>
      </trkpt>
      <trkpt lat="48.61659" lon="-2.33777">
        <ele>6.4</ele>
        <time>2025-09-30T15:00:57Z</time>
      </trkpt>
      <trkpt lat="48.61635" lon="-2.33799">
        <ele>7.8</ele>
        <time>2025-09-30T15:01:03Z</time>
      </trkpt>
      <trkpt lat="48.61622" lon="-2.33811">
        <ele>8.2</ele>
        <time>2025-09-30T15:01:06Z</time>
      </trkpt>
      <trkpt lat="48.61618" lon="-2.33815">
        <ele>8.2</ele>
        <time>2025-09-30T15:01:07Z</time>
      </trkpt>
      <trkpt lat="48.61614" lon="-2.33819">
        <ele>8.6</ele>
        <time>2025-09-30T15:01:08Z</time>
      </trkpt>
      <trkpt lat="48.6161" lon="-2.33823">
        <ele>8.8</ele>
        <time>2025-09-30T15:01:09Z</time>
      </trkpt>
      <trkpt lat="48.61596" lon="-2.33834">
        <ele>9.4</ele>
        <time>2025-09-30T15:01:12Z</time>
      </trkpt>
      <trkpt lat="48.61591" lon="-2.33837">
        <ele>9.6</ele>
        <time>2025-09-30T15:01:13Z</time>
      </trkpt>
      <trkpt lat="48.61587" lon="-2.3384">
        <ele>9.6</ele>
        <time>2025-09-30T15:01:14Z</time>
      </trkpt>
      <trkpt lat="48.61583" lon="-2.33843">
        <ele>9.8</ele>
        <time>2025-09-30T15:01:15Z</time>
      </trkpt>
      <trkpt lat="48.61579" lon="-2.33847">
        <ele>10</ele>
        <time>2025-09-30T15:01:16Z</time>
      </trkpt>
      <trkpt lat="48.6155" lon="-2.33874">
        <ele>11.2</ele>
        <time>2025-09-30T15:01:23Z</time>
      </trkpt>
      <trkpt lat="48.61534" lon="-2.33889">
        <ele>11.8</ele>
        <time>2025-09-30T15:01:27Z</time>
      </trkpt>
      <trkpt lat="48.61526" lon="-2.33897">
        <ele>12.4</ele>
        <time>2025-09-30T15:01:29Z</time>
      </trkpt>
      <trkpt lat="48.61499" lon="-2.33922">
        <ele>13.2</ele>
        <time>2025-09-30T15:01:36Z</time>
      </trkpt>
      <trkpt lat="48.61495" lon="-2.33925">
        <ele>13.4</ele>
        <time>2025-09-30T15:01:37Z</time>
      </trkpt>
      <trkpt lat="48.61474" lon="-2.33945">
        <ele>14.4</ele>
        <time>2025-09-30T15:01:42Z</time>
      </trkpt>
      <trkpt lat="48.61463" lon="-2.33956">
        <ele>14.8</ele>
        <time>2025-09-30T15:01:45Z</time>
      </trkpt>
      <trkpt lat="48.61449" lon="-2.33969">
        <ele>15.2</ele>
        <time>2025-09-30T15:01:50Z</time>
      </trkpt>
      <trkpt lat="48.61448" lon="-2.3397">
        <ele>15.2</ele>
        <time>2025-09-30T15:01:54Z</time>
      </trkpt>
      <trkpt lat="48.61448" lon="-2.3397">
        <ele>15</ele>
        <time>2025-09-30T15:02:00Z</time>
      </trkpt>
      <trkpt lat="48.61448" lon="-2.3397">
        <ele>15</ele>
        <time>2025-09-30T15:02:08Z</time>
      </trkpt>
      <trkpt lat="48.61448" lon="-2.3397">
        <ele>15</ele>
        <time>2025-09-30T15:02:12Z</time>
      </trkpt>
      <trkpt lat="48.61448" lon="-2.3397">
        <ele>15</ele>
        <time>2025-09-30T15:02:19Z</time>
      </trkpt>
      <trkpt lat="48.61448" lon="-2.3397">
        <ele>15</ele>
        <time>2025-09-30T15:02:24Z</time>
      </trkpt>
      <trkpt lat="48.61448" lon="-2.3397">
        <ele>15.2</ele>
        <time>2025-09-30T15:02:34Z</time>
      </trkpt>
      <trkpt lat="48.61448" lon="-2.3397">
        <ele>15.2</ele>
        <time>2025-09-30T15:02:36Z</time>
      </trkpt>
      <trkpt lat="48.61448" lon="-2.3397">
        <ele>15</ele>
        <time>2025-09-30T15:02:42Z</time>
      </trkpt>
      <trkpt lat="48.61448" lon="-2.3397">
        <ele>15.2</ele>
        <time>2025-09-30T15:02:48Z</time>
      </trkpt>
      <trkpt lat="48.61448" lon="-2.3397">
        <ele>14.8</ele>
        <time>2025-09-30T15:03:02Z</time>
      </trkpt>
      <trkpt lat="48.61448" lon="-2.3397">
        <ele>14.8</ele>
        <time>2025-09-30T15:03:30Z</time>
      </trkpt>
      <trkpt lat="48.61448" lon="-2.3397">
        <ele>14.8</ele>
        <time>2025-09-30T15:03:39Z</time>
      </trkpt>
      <trkpt lat="48.61448" lon="-2.3397">
        <ele>14.8</ele>
        <time>2025-09-30T15:03:58Z</time>
      </trkpt>
      <trkpt lat="48.61443" lon="-2.33971">
        <ele>15</ele>
        <time>2025-09-30T15:04:04Z</time>
      </trkpt>
      <trkpt lat="48.61429" lon="-2.33984">
        <ele>15.2</ele>
        <time>2025-09-30T15:04:10Z</time>
      </trkpt>
      <trkpt lat="48.61416" lon="-2.33995">
        <ele>15.6</ele>
        <time>2025-09-30T15:04:14Z</time>
      </trkpt>
      <trkpt lat="48.61406" lon="-2.34003">
        <ele>15.8</ele>
        <time>2025-09-30T15:04:17Z</time>
      </trkpt>
      <trkpt lat="48.6137" lon="-2.34034">
        <ele>16.6</ele>
        <time>2025-09-30T15:04:27Z</time>
      </trkpt>
      <trkpt lat="48.61365" lon="-2.34037">
        <ele>16.6</ele>
        <time>2025-09-30T15:04:28Z</time>
      </trkpt>
      <trkpt lat="48.6136" lon="-2.34041">
        <ele>17</ele>
        <time>2025-09-30T15:04:29Z</time>
      </trkpt>
      <trkpt lat="48.61349" lon="-2.34051">
        <ele>17.4</ele>
        <time>2025-09-30T15:04:32Z</time>
      </trkpt>
      <trkpt lat="48.61346" lon="-2.34054">
        <ele>17.6</ele>
        <time>2025-09-30T15:04:33Z</time>
      </trkpt>
      <trkpt lat="48.61343" lon="-2.34058">
        <ele>17.6</ele>
        <time>2025-09-30T15:04:34Z</time>
      </trkpt>
      <trkpt lat="48.61339" lon="-2.34062">
        <ele>18</ele>
        <time>2025-09-30T15:04:35Z</time>
      </trkpt>
      <trkpt lat="48.61328" lon="-2.34073">
        <ele>18.4</ele>
        <time>2025-09-30T15:04:38Z</time>
      </trkpt>
      <trkpt lat="48.61322" lon="-2.34079">
        <ele>18.6</ele>
        <time>2025-09-30T15:04:40Z</time>
      </trkpt>
      <trkpt lat="48.61319" lon="-2.34083">
        <ele>18.8</ele>
        <time>2025-09-30T15:04:41Z</time>
      </trkpt>
      <trkpt lat="48.61311" lon="-2.3409">
        <ele>19</ele>
        <time>2025-09-30T15:04:43Z</time>
      </trkpt>
      <trkpt lat="48.61292" lon="-2.34107">
        <ele>20</ele>
        <time>2025-09-30T15:04:48Z</time>
      </trkpt>
      <trkpt lat="48.61278" lon="-2.3412">
        <ele>21</ele>
        <time>2025-09-30T15:04:52Z</time>
      </trkpt>
      <trkpt lat="48.61251" lon="-2.34143">
        <ele>22.2</ele>
        <time>2025-09-30T15:04:59Z</time>
      </trkpt>
      <trkpt lat="48.61237" lon="-2.34156">
        <ele>22.8</ele>
        <time>2025-09-30T15:05:03Z</time>
      </trkpt>
      <trkpt lat="48.61225" lon="-2.34167">
        <ele>23.4</ele>
        <time>2025-09-30T15:05:06Z</time>
      </trkpt>
      <trkpt lat="48.61205" lon="-2.34183">
        <ele>24.4</ele>
        <time>2025-09-30T15:05:11Z</time>
      </trkpt>
      <trkpt lat="48.61181" lon="-2.34205">
        <ele>25.4</ele>
        <time>2025-09-30T15:05:17Z</time>
      </trkpt>
      <trkpt lat="48.61177" lon="-2.34208">
        <ele>25.4</ele>
        <time>2025-09-30T15:05:18Z</time>
      </trkpt>
      <trkpt lat="48.61148" lon="-2.34234">
        <ele>26.6</ele>
        <time>2025-09-30T15:05:25Z</time>
      </trkpt>
      <trkpt lat="48.61128" lon="-2.34252">
        <ele>27.6</ele>
        <time>2025-09-30T15:05:30Z</time>
      </trkpt>
      <trkpt lat="48.6112" lon="-2.34259">
        <ele>28</ele>
        <time>2025-09-30T15:05:32Z</time>
      </trkpt>
      <trkpt lat="48.61091" lon="-2.34285">
        <ele>29</ele>
        <time>2025-09-30T15:05:39Z</time>
      </trkpt>
      <trkpt lat="48.61071" lon="-2.34303">
        <ele>29.8</ele>
        <time>2025-09-30T15:05:44Z</time>
      </trkpt>
      <trkpt lat="48.61062" lon="-2.3431">
        <ele>30</ele>
        <time>2025-09-30T15:05:46Z</time>
      </trkpt>
      <trkpt lat="48.61037" lon="-2.34332">
        <ele>31</ele>
        <time>2025-09-30T15:05:52Z</time>
      </trkpt>
      <trkpt lat="48.61029" lon="-2.34339">
        <ele>31.2</ele>
        <time>2025-09-30T15:05:54Z</time>
      </trkpt>
      <trkpt lat="48.61002" lon="-2.34363">
        <ele>32</ele>
        <time>2025-09-30T15:06:01Z</time>
      </trkpt>
      <trkpt lat="48.60995" lon="-2.34369">
        <ele>32.2</ele>
        <time>2025-09-30T15:06:03Z</time>
      </trkpt>
      <trkpt lat="48.60988" lon="-2.34369">
        <ele>32.4</ele>
        <time>2025-09-30T15:06:05Z</time>
      </trkpt>
      <trkpt lat="48.60981" lon="-2.34351">
        <ele>32.8</ele>
        <time>2025-09-30T15:06:09Z</time>
      </trkpt>
      <trkpt lat="48.60966" lon="-2.34308">
        <ele>33.4</ele>
        <time>2025-09-30T15:06:17Z</time>
      </trkpt>
      <trkpt lat="48.60964" lon="-2.34302">
        <ele>33.4</ele>
        <time>2025-09-30T15:06:18Z</time>
      </trkpt>
      <trkpt lat="48.60956" lon="-2.34276">
        <ele>34.6</ele>
        <time>2025-09-30T15:06:23Z</time>
      </trkpt>
      <trkpt lat="48.60949" lon="-2.34253">
        <ele>35.6</ele>
        <time>2025-09-30T15:06:27Z</time>
      </trkpt>
      <trkpt lat="48.60948" lon="-2.34248">
        <ele>36.2</ele>
        <time>2025-09-30T15:06:28Z</time>
      </trkpt>
      <trkpt lat="48.60945" lon="-2.34236">
        <ele>36.8</ele>
        <time>2025-09-30T15:06:30Z</time>
      </trkpt>
      <trkpt lat="48.60936" lon="-2.34203">
        <ele>38.2</ele>
        <time>2025-09-30T15:06:36Z</time>
      </trkpt>
      <trkpt lat="48.60932" lon="-2.34186">
        <ele>38.6</ele>
        <time>2025-09-30T15:06:39Z</time>
      </trkpt>
      <trkpt lat="48.60929" lon="-2.34176">
        <ele>39.4</ele>
        <time>2025-09-30T15:06:41Z</time>
      </trkpt>
      <trkpt lat="48.60924" lon="-2.34159">
        <ele>40</ele>
        <time>2025-09-30T15:06:44Z</time>
      </trkpt>
      <trkpt lat="48.6092" lon="-2.34143">
        <ele>40.6</ele>
        <time>2025-09-30T15:06:47Z</time>
      </trkpt>
      <trkpt lat="48.60917" lon="-2.34131">
        <ele>41.2</ele>
        <time>2025-09-30T15:06:49Z</time>
      </trkpt>
      <trkpt lat="48.60912" lon="-2.34108">
        <ele>41.6</ele>
        <time>2025-09-30T15:06:53Z</time>
      </trkpt>
      <trkpt lat="48.60909" lon="-2.34084">
        <ele>41.8</ele>
        <time>2025-09-30T15:06:57Z</time>
      </trkpt>
      <trkpt lat="48.60906" lon="-2.34053">
        <ele>42.4</ele>
        <time>2025-09-30T15:07:02Z</time>
      </trkpt>
      <trkpt lat="48.60905" lon="-2.34035">
        <ele>42.6</ele>
        <time>2025-09-30T15:07:05Z</time>
      </trkpt>
      <trkpt lat="48.60905" lon="-2.34029">
        <ele>42.6</ele>
        <time>2025-09-30T15:07:06Z</time>
      </trkpt>
      <trkpt lat="48.60904" lon="-2.33976">
        <ele>42.2</ele>
        <time>2025-09-30T15:07:14Z</time>
      </trkpt>
      <trkpt lat="48.60903" lon="-2.33922">
        <ele>41.2</ele>
        <time>2025-09-30T15:07:21Z</time>
      </trkpt>
      <trkpt lat="48.60903" lon="-2.33913">
        <ele>41</ele>
        <time>2025-09-30T15:07:22Z</time>
      </trkpt>
      <trkpt lat="48.60903" lon="-2.33895">
        <ele>40.4</ele>
        <time>2025-09-30T15:07:24Z</time>
      </trkpt>
      <trkpt lat="48.60902" lon="-2.33857">
        <ele>39.4</ele>
        <time>2025-09-30T15:07:28Z</time>
      </trkpt>
      <trkpt lat="48.60902" lon="-2.33847">
        <ele>39.4</ele>
        <time>2025-09-30T15:07:29Z</time>
      </trkpt>
      <trkpt lat="48.60903" lon="-2.33838">
        <ele>39</ele>
        <time>2025-09-30T15:07:30Z</time>
      </trkpt>
      <trkpt lat="48.60908" lon="-2.33807">
        <ele>38.4</ele>
        <time>2025-09-30T15:07:34Z</time>
      </trkpt>
      <trkpt lat="48.60909" lon="-2.33779">
        <ele>37.2</ele>
        <time>2025-09-30T15:07:39Z</time>
      </trkpt>
      <trkpt lat="48.60908" lon="-2.33776">
        <ele>36.8</ele>
        <time>2025-09-30T15:07:40Z</time>
      </trkpt>
      <trkpt lat="48.60903" lon="-2.33775">
        <ele>36.6</ele>
        <time>2025-09-30T15:07:42Z</time>
      </trkpt>
      <trkpt lat="48.60891" lon="-2.33777">
        <ele>36.2</ele>
        <time>2025-09-30T15:07:45Z</time>
      </trkpt>
      <trkpt lat="48.60886" lon="-2.33781">
        <ele>36</ele>
        <time>2025-09-30T15:07:46Z</time>
      </trkpt>
      <trkpt lat="48.60875" lon="-2.33789">
        <ele>35.6</ele>
        <time>2025-09-30T15:07:49Z</time>
      </trkpt>
      <trkpt lat="48.6087" lon="-2.33792">
        <ele>35.6</ele>
        <time>2025-09-30T15:07:50Z</time>
      </trkpt>
      <trkpt lat="48.60865" lon="-2.33795">
        <ele>35.4</ele>
        <time>2025-09-30T15:07:51Z</time>
      </trkpt>
      <trkpt lat="48.6086" lon="-2.33798">
        <ele>35.4</ele>
        <time>2025-09-30T15:07:52Z</time>
      </trkpt>
      <trkpt lat="48.60855" lon="-2.33801">
        <ele>35.4</ele>
        <time>2025-09-30T15:07:53Z</time>
      </trkpt>
      <trkpt lat="48.60841" lon="-2.33809">
        <ele>35.2</ele>
        <time>2025-09-30T15:07:56Z</time>
      </trkpt>
      <trkpt lat="48.60826" lon="-2.3382">
        <ele>35</ele>
        <time>2025-09-30T15:07:59Z</time>
      </trkpt>
      <trkpt lat="48.60821" lon="-2.33826">
        <ele>35</ele>
        <time>2025-09-30T15:08:00Z</time>
      </trkpt>
      <trkpt lat="48.608" lon="-2.33858">
        <ele>35.2</ele>
        <time>2025-09-30T15:08:06Z</time>
      </trkpt>
      <trkpt lat="48.60794" lon="-2.33864">
        <ele>35.4</ele>
        <time>2025-09-30T15:08:08Z</time>
      </trkpt>
      <trkpt lat="48.60789" lon="-2.33866">
        <ele>35.6</ele>
        <time>2025-09-30T15:08:09Z</time>
      </trkpt>
      <trkpt lat="48.60785" lon="-2.33866">
        <ele>35.6</ele>
        <time>2025-09-30T15:08:10Z</time>
      </trkpt>
      <trkpt lat="48.60776" lon="-2.33865">
        <ele>35.6</ele>
        <time>2025-09-30T15:08:12Z</time>
      </trkpt>
      <trkpt lat="48.6077" lon="-2.33862">
        <ele>35.4</ele>
        <time>2025-09-30T15:08:13Z</time>
      </trkpt>
      <trkpt lat="48.60745" lon="-2.33848">
        <ele>34</ele>
        <time>2025-09-30T15:08:17Z</time>
      </trkpt>
      <trkpt lat="48.60737" lon="-2.33845">
        <ele>33.4</ele>
        <time>2025-09-30T15:08:18Z</time>
      </trkpt>
      <trkpt lat="48.60719" lon="-2.33845">
        <ele>32.4</ele>
        <time>2025-09-30T15:08:20Z</time>
      </trkpt>
      <trkpt lat="48.60702" lon="-2.33852">
        <ele>31.4</ele>
        <time>2025-09-30T15:08:22Z</time>
      </trkpt>
      <trkpt lat="48.60694" lon="-2.33858">
        <ele>31.2</ele>
        <time>2025-09-30T15:08:23Z</time>
      </trkpt>
      <trkpt lat="48.60684" lon="-2.33865">
        <ele>31</ele>
        <time>2025-09-30T15:08:24Z</time>
      </trkpt>
      <trkpt lat="48.60653" lon="-2.33885">
        <ele>30</ele>
        <time>2025-09-30T15:08:28Z</time>
      </trkpt>
      <trkpt lat="48.6062" lon="-2.33905">
        <ele>28.8</ele>
        <time>2025-09-30T15:08:32Z</time>
      </trkpt>
      <trkpt lat="48.6061" lon="-2.3391">
        <ele>28.6</ele>
        <time>2025-09-30T15:08:33Z</time>
      </trkpt>
      <trkpt lat="48.60577" lon="-2.33927">
        <ele>27.6</ele>
        <time>2025-09-30T15:08:37Z</time>
      </trkpt>
      <trkpt lat="48.60541" lon="-2.33943">
        <ele>26.4</ele>
        <time>2025-09-30T15:08:41Z</time>
      </trkpt>
      <trkpt lat="48.60535" lon="-2.33945">
        <ele>26.2</ele>
        <time>2025-09-30T15:08:42Z</time>
      </trkpt>
      <trkpt lat="48.60496" lon="-2.33959">
        <ele>25.4</ele>
        <time>2025-09-30T15:08:47Z</time>
      </trkpt>
      <trkpt lat="48.60489" lon="-2.33962">
        <ele>25</ele>
        <time>2025-09-30T15:08:48Z</time>
      </trkpt>
      <trkpt lat="48.60469" lon="-2.33968">
        <ele>24.2</ele>
        <time>2025-09-30T15:08:51Z</time>
      </trkpt>
      <trkpt lat="48.60463" lon="-2.33969">
        <ele>24.2</ele>
        <time>2025-09-30T15:08:52Z</time>
      </trkpt>
      <trkpt lat="48.6046" lon="-2.33967">
        <ele>23.8</ele>
        <time>2025-09-30T15:08:53Z</time>
      </trkpt>
      <trkpt lat="48.60456" lon="-2.33964">
        <ele>23.6</ele>
        <time>2025-09-30T15:08:54Z</time>
      </trkpt>
      <trkpt lat="48.60449" lon="-2.33949">
        <ele>23.2</ele>
        <time>2025-09-30T15:08:56Z</time>
      </trkpt>
      <trkpt lat="48.60437" lon="-2.33916">
        <ele>21.2</ele>
        <time>2025-09-30T15:08:59Z</time>
      </trkpt>
      <trkpt lat="48.60432" lon="-2.33903">
        <ele>20.2</ele>
        <time>2025-09-30T15:09:00Z</time>
      </trkpt>
      <trkpt lat="48.60424" lon="-2.33875">
        <ele>19</ele>
        <time>2025-09-30T15:09:02Z</time>
      </trkpt>
      <trkpt lat="48.60421" lon="-2.33859">
        <ele>17.4</ele>
        <time>2025-09-30T15:09:03Z</time>
      </trkpt>
      <trkpt lat="48.60417" lon="-2.33844">
        <ele>17</ele>
        <time>2025-09-30T15:09:04Z</time>
      </trkpt>
      <trkpt lat="48.60413" lon="-2.33828">
        <ele>16</ele>
        <time>2025-09-30T15:09:05Z</time>
      </trkpt>
      <trkpt lat="48.6041" lon="-2.33811">
        <ele>14.2</ele>
        <time>2025-09-30T15:09:06Z</time>
      </trkpt>
      <trkpt lat="48.60407" lon="-2.33791">
        <ele>13.6</ele>
        <time>2025-09-30T15:09:07Z</time>
      </trkpt>
      <trkpt lat="48.60406" lon="-2.33776">
        <ele>12</ele>
        <time>2025-09-30T15:09:08Z</time>
      </trkpt>
      <trkpt lat="48.60403" lon="-2.33742">
        <ele>10.6</ele>
        <time>2025-09-30T15:09:10Z</time>
      </trkpt>
      <trkpt lat="48.604" lon="-2.33708">
        <ele>8.8</ele>
        <time>2025-09-30T15:09:12Z</time>
      </trkpt>
      <trkpt lat="48.60399" lon="-2.33688">
        <ele>7.2</ele>
        <time>2025-09-30T15:09:13Z</time>
      </trkpt>
      <trkpt lat="48.60397" lon="-2.33657">
        <ele>6</ele>
        <time>2025-09-30T15:09:15Z</time>
      </trkpt>
      <trkpt lat="48.60395" lon="-2.33641">
        <ele>5.8</ele>
        <time>2025-09-30T15:09:16Z</time>
      </trkpt>
      <trkpt lat="48.60391" lon="-2.33608">
        <ele>4.4</ele>
        <time>2025-09-30T15:09:18Z</time>
      </trkpt>
      <trkpt lat="48.60388" lon="-2.33593">
        <ele>4.2</ele>
        <time>2025-09-30T15:09:19Z</time>
      </trkpt>
      <trkpt lat="48.60382" lon="-2.33563">
        <ele>4</ele>
        <time>2025-09-30T15:09:21Z</time>
      </trkpt>
      <trkpt lat="48.60374" lon="-2.33527">
        <ele>4</ele>
        <time>2025-09-30T15:09:24Z</time>
      </trkpt>
      <trkpt lat="48.60372" lon="-2.33516">
        <ele>4</ele>
        <time>2025-09-30T15:09:25Z</time>
      </trkpt>
      <trkpt lat="48.60371" lon="-2.33491">
        <ele>3.4</ele>
        <time>2025-09-30T15:09:28Z</time>
      </trkpt>
      <trkpt lat="48.6037" lon="-2.33487">
        <ele>3.2</ele>
        <time>2025-09-30T15:09:29Z</time>
      </trkpt>
      <trkpt lat="48.60368" lon="-2.33483">
        <ele>3.2</ele>
        <time>2025-09-30T15:09:30Z</time>
      </trkpt>
      <trkpt lat="48.60362" lon="-2.33479">
        <ele>3.2</ele>
        <time>2025-09-30T15:09:32Z</time>
      </trkpt>
      <trkpt lat="48.60359" lon="-2.33476">
        <ele>3.4</ele>
        <time>2025-09-30T15:09:33Z</time>
      </trkpt>
      <trkpt lat="48.60358" lon="-2.33466">
        <ele>3.4</ele>
        <time>2025-09-30T15:09:35Z</time>
      </trkpt>
      <trkpt lat="48.60358" lon="-2.3346">
        <ele>3.4</ele>
        <time>2025-09-30T15:09:36Z</time>
      </trkpt>
      <trkpt lat="48.60363" lon="-2.33432">
        <ele>3.2</ele>
        <time>2025-09-30T15:09:40Z</time>
      </trkpt>
      <trkpt lat="48.60369" lon="-2.33388">
        <ele>4.2</ele>
        <time>2025-09-30T15:09:46Z</time>
      </trkpt>
      <trkpt lat="48.6037" lon="-2.33381">
        <ele>4.4</ele>
        <time>2025-09-30T15:09:47Z</time>
      </trkpt>
      <trkpt lat="48.60379" lon="-2.33324">
        <ele>5.6</ele>
        <time>2025-09-30T15:09:55Z</time>
      </trkpt>
      <trkpt lat="48.60384" lon="-2.3328">
        <ele>6.6</ele>
        <time>2025-09-30T15:10:01Z</time>
      </trkpt>
      <trkpt lat="48.60388" lon="-2.33252">
        <ele>7.6</ele>
        <time>2025-09-30T15:10:05Z</time>
      </trkpt>
      <trkpt lat="48.60389" lon="-2.33244">
        <ele>7.8</ele>
        <time>2025-09-30T15:10:06Z</time>
      </trkpt>
      <trkpt lat="48.60391" lon="-2.3323">
        <ele>8</ele>
        <time>2025-09-30T15:10:08Z</time>
      </trkpt>
      <trkpt lat="48.60394" lon="-2.33216">
        <ele>8.4</ele>
        <time>2025-09-30T15:10:10Z</time>
      </trkpt>
      <trkpt lat="48.60397" lon="-2.33202">
        <ele>9</ele>
        <time>2025-09-30T15:10:12Z</time>
      </trkpt>
      <trkpt lat="48.60401" lon="-2.33175">
        <ele>9.4</ele>
        <time>2025-09-30T15:10:16Z</time>
      </trkpt>
      <trkpt lat="48.60408" lon="-2.33133">
        <ele>10</ele>
        <time>2025-09-30T15:10:22Z</time>
      </trkpt>
      <trkpt lat="48.60411" lon="-2.33112">
        <ele>10.4</ele>
        <time>2025-09-30T15:10:25Z</time>
      </trkpt>
      <trkpt lat="48.60415" lon="-2.33085">
        <ele>11</ele>
        <time>2025-09-30T15:10:29Z</time>
      </trkpt>
      <trkpt lat="48.60418" lon="-2.33049">
        <ele>12</ele>
        <time>2025-09-30T15:10:34Z</time>
      </trkpt>
      <trkpt lat="48.60418" lon="-2.33034">
        <ele>12.2</ele>
        <time>2025-09-30T15:10:36Z</time>
      </trkpt>
      <trkpt lat="48.60412" lon="-2.32984">
        <ele>13</ele>
        <time>2025-09-30T15:10:43Z</time>
      </trkpt>
      <trkpt lat="48.60409" lon="-2.32963">
        <ele>13.2</ele>
        <time>2025-09-30T15:10:46Z</time>
      </trkpt>
      <trkpt lat="48.60405" lon="-2.32914">
        <ele>13.8</ele>
        <time>2025-09-30T15:10:53Z</time>
      </trkpt>
      <trkpt lat="48.60403" lon="-2.32893">
        <ele>14</ele>
        <time>2025-09-30T15:10:56Z</time>
      </trkpt>
      <trkpt lat="48.60401" lon="-2.32879">
        <ele>14.4</ele>
        <time>2025-09-30T15:10:58Z</time>
      </trkpt>
      <trkpt lat="48.60397" lon="-2.32865">
        <ele>15</ele>
        <time>2025-09-30T15:11:00Z</time>
      </trkpt>
      <trkpt lat="48.60392" lon="-2.32845">
        <ele>15.4</ele>
        <time>2025-09-30T15:11:03Z</time>
      </trkpt>
      <trkpt lat="48.60382" lon="-2.32813">
        <ele>16.4</ele>
        <time>2025-09-30T15:11:08Z</time>
      </trkpt>
      <trkpt lat="48.60379" lon="-2.32807">
        <ele>16.6</ele>
        <time>2025-09-30T15:11:09Z</time>
      </trkpt>
      <trkpt lat="48.60371" lon="-2.32789">
        <ele>17.4</ele>
        <time>2025-09-30T15:11:12Z</time>
      </trkpt>
      <trkpt lat="48.60368" lon="-2.32784">
        <ele>17.6</ele>
        <time>2025-09-30T15:11:13Z</time>
      </trkpt>
      <trkpt lat="48.60359" lon="-2.32767">
        <ele>18.2</ele>
        <time>2025-09-30T15:11:16Z</time>
      </trkpt>
      <trkpt lat="48.60353" lon="-2.32756">
        <ele>18.6</ele>
        <time>2025-09-30T15:11:18Z</time>
      </trkpt>
      <trkpt lat="48.60336" lon="-2.3272">
        <ele>19.6</ele>
        <time>2025-09-30T15:11:25Z</time>
      </trkpt>
      <trkpt lat="48.60319" lon="-2.32667">
        <ele>20.4</ele>
        <time>2025-09-30T15:11:34Z</time>
      </trkpt>
      <trkpt lat="48.6031" lon="-2.32625">
        <ele>20.4</ele>
        <time>2025-09-30T15:11:41Z</time>
      </trkpt>
      <trkpt lat="48.60302" lon="-2.32582">
        <ele>20.4</ele>
        <time>2025-09-30T15:11:48Z</time>
      </trkpt>
      <trkpt lat="48.603" lon="-2.32562">
        <ele>20.4</ele>
        <time>2025-09-30T15:11:51Z</time>
      </trkpt>
      <trkpt lat="48.60297" lon="-2.32497">
        <ele>19.4</ele>
        <time>2025-09-30T15:12:00Z</time>
      </trkpt>
      <trkpt lat="48.60294" lon="-2.32452">
        <ele>18.4</ele>
        <time>2025-09-30T15:12:05Z</time>
      </trkpt>
      <trkpt lat="48.60293" lon="-2.32442">
        <ele>18</ele>
        <time>2025-09-30T15:12:06Z</time>
      </trkpt>
      <trkpt lat="48.60292" lon="-2.32421">
        <ele>17</ele>
        <time>2025-09-30T15:12:08Z</time>
      </trkpt>
      <trkpt lat="48.60291" lon="-2.32387">
        <ele>16</ele>
        <time>2025-09-30T15:12:11Z</time>
      </trkpt>
      <trkpt lat="48.6029" lon="-2.32364">
        <ele>15.2</ele>
        <time>2025-09-30T15:12:13Z</time>
      </trkpt>
      <trkpt lat="48.60288" lon="-2.32351">
        <ele>15</ele>
        <time>2025-09-30T15:12:14Z</time>
      </trkpt>
      <trkpt lat="48.60286" lon="-2.32339">
        <ele>14.6</ele>
        <time>2025-09-30T15:12:15Z</time>
      </trkpt>
      <trkpt lat="48.60282" lon="-2.32314">
        <ele>14.2</ele>
        <time>2025-09-30T15:12:17Z</time>
      </trkpt>
      <trkpt lat="48.60279" lon="-2.32302">
        <ele>14</ele>
        <time>2025-09-30T15:12:18Z</time>
      </trkpt>
      <trkpt lat="48.60277" lon="-2.3229">
        <ele>13.6</ele>
        <time>2025-09-30T15:12:19Z</time>
      </trkpt>
      <trkpt lat="48.60273" lon="-2.32279">
        <ele>13</ele>
        <time>2025-09-30T15:12:20Z</time>
      </trkpt>
      <trkpt lat="48.6027" lon="-2.32268">
        <ele>12.4</ele>
        <time>2025-09-30T15:12:21Z</time>
      </trkpt>
      <trkpt lat="48.6025" lon="-2.32214">
        <ele>11.4</ele>
        <time>2025-09-30T15:12:26Z</time>
      </trkpt>
      <trkpt lat="48.60242" lon="-2.3218">
        <ele>10.8</ele>
        <time>2025-09-30T15:12:29Z</time>
      </trkpt>
      <trkpt lat="48.60239" lon="-2.32157">
        <ele>10.4</ele>
        <time>2025-09-30T15:12:31Z</time>
      </trkpt>
      <trkpt lat="48.60236" lon="-2.32109">
        <ele>9.4</ele>
        <time>2025-09-30T15:12:35Z</time>
      </trkpt>
      <trkpt lat="48.60235" lon="-2.32098">
        <ele>9.4</ele>
        <time>2025-09-30T15:12:36Z</time>
      </trkpt>
      <trkpt lat="48.60232" lon="-2.32087">
        <ele>9</ele>
        <time>2025-09-30T15:12:37Z</time>
      </trkpt>
      <trkpt lat="48.60214" lon="-2.32037">
        <ele>8</ele>
        <time>2025-09-30T15:12:42Z</time>
      </trkpt>
      <trkpt lat="48.60194" lon="-2.31998">
        <ele>8</ele>
        <time>2025-09-30T15:12:47Z</time>
      </trkpt>
      <trkpt lat="48.60172" lon="-2.31968">
        <ele>8.6</ele>
        <time>2025-09-30T15:12:52Z</time>
      </trkpt>
      <trkpt lat="48.60168" lon="-2.31963">
        <ele>9</ele>
        <time>2025-09-30T15:12:53Z</time>
      </trkpt>
      <trkpt lat="48.60164" lon="-2.31957">
        <ele>9.2</ele>
        <time>2025-09-30T15:12:54Z</time>
      </trkpt>
      <trkpt lat="48.60151" lon="-2.31932">
        <ele>10.4</ele>
        <time>2025-09-30T15:12:58Z</time>
      </trkpt>
      <trkpt lat="48.60149" lon="-2.31926">
        <ele>10.8</ele>
        <time>2025-09-30T15:12:59Z</time>
      </trkpt>
      <trkpt lat="48.60143" lon="-2.31915">
        <ele>11.4</ele>
        <time>2025-09-30T15:13:01Z</time>
      </trkpt>
      <trkpt lat="48.60134" lon="-2.31897">
        <ele>12.6</ele>
        <time>2025-09-30T15:13:04Z</time>
      </trkpt>
      <trkpt lat="48.60125" lon="-2.3188">
        <ele>13.6</ele>
        <time>2025-09-30T15:13:07Z</time>
      </trkpt>
      <trkpt lat="48.60123" lon="-2.31873">
        <ele>13.8</ele>
        <time>2025-09-30T15:13:08Z</time>
      </trkpt>
      <trkpt lat="48.60113" lon="-2.31841">
        <ele>15</ele>
        <time>2025-09-30T15:13:13Z</time>
      </trkpt>
      <trkpt lat="48.60108" lon="-2.3182">
        <ele>15.6</ele>
        <time>2025-09-30T15:13:16Z</time>
      </trkpt>
      <trkpt lat="48.60104" lon="-2.31805">
        <ele>15.8</ele>
        <time>2025-09-30T15:13:18Z</time>
      </trkpt>
      <trkpt lat="48.60099" lon="-2.31793">
        <ele>16</ele>
        <time>2025-09-30T15:13:20Z</time>
      </trkpt>
      <trkpt lat="48.60092" lon="-2.31775">
        <ele>16.6</ele>
        <time>2025-09-30T15:13:23Z</time>
      </trkpt>
      <trkpt lat="48.60085" lon="-2.31756">
        <ele>17.2</ele>
        <time>2025-09-30T15:13:26Z</time>
      </trkpt>
      <trkpt lat="48.60081" lon="-2.31746">
        <ele>17.8</ele>
        <time>2025-09-30T15:13:28Z</time>
      </trkpt>
      <trkpt lat="48.60076" lon="-2.31734">
        <ele>18.4</ele>
        <time>2025-09-30T15:13:30Z</time>
      </trkpt>
      <trkpt lat="48.60065" lon="-2.31707">
        <ele>19.4</ele>
        <time>2025-09-30T15:13:35Z</time>
      </trkpt>
      <trkpt lat="48.60056" lon="-2.31684">
        <ele>20.4</ele>
        <time>2025-09-30T15:13:39Z</time>
      </trkpt>
      <trkpt lat="48.60039" lon="-2.31638">
        <ele>21.2</ele>
        <time>2025-09-30T15:13:47Z</time>
      </trkpt>
      <trkpt lat="48.6003" lon="-2.31616">
        <ele>21.6</ele>
        <time>2025-09-30T15:13:51Z</time>
      </trkpt>
      <trkpt lat="48.60012" lon="-2.31569">
        <ele>22.2</ele>
        <time>2025-09-30T15:13:59Z</time>
      </trkpt>
      <trkpt lat="48.60007" lon="-2.31559">
        <ele>22.4</ele>
        <time>2025-09-30T15:14:01Z</time>
      </trkpt>
      <trkpt lat="48.60004" lon="-2.31554">
        <ele>22.6</ele>
        <time>2025-09-30T15:14:02Z</time>
      </trkpt>
      <trkpt lat="48.59992" lon="-2.31538">
        <ele>23.6</ele>
        <time>2025-09-30T15:14:06Z</time>
      </trkpt>
      <trkpt lat="48.59987" lon="-2.31534">
        <ele>23.8</ele>
        <time>2025-09-30T15:14:07Z</time>
      </trkpt>
      <trkpt lat="48.59968" lon="-2.3152">
        <ele>24.2</ele>
        <time>2025-09-30T15:14:12Z</time>
      </trkpt>
      <trkpt lat="48.59946" lon="-2.31509">
        <ele>24.8</ele>
        <time>2025-09-30T15:14:17Z</time>
      </trkpt>
      <trkpt lat="48.59933" lon="-2.31503">
        <ele>24.8</ele>
        <time>2025-09-30T15:14:20Z</time>
      </trkpt>
      <trkpt lat="48.59916" lon="-2.31496">
        <ele>25.4</ele>
        <time>2025-09-30T15:14:24Z</time>
      </trkpt>
      <trkpt lat="48.59907" lon="-2.31493">
        <ele>25.8</ele>
        <time>2025-09-30T15:14:26Z</time>
      </trkpt>
      <trkpt lat="48.59904" lon="-2.3149">
        <ele>25.8</ele>
        <time>2025-09-30T15:14:27Z</time>
      </trkpt>
      <trkpt lat="48.599" lon="-2.31487">
        <ele>26.2</ele>
        <time>2025-09-30T15:14:28Z</time>
      </trkpt>
      <trkpt lat="48.59895" lon="-2.31477">
        <ele>26.6</ele>
        <time>2025-09-30T15:14:30Z</time>
      </trkpt>
      <trkpt lat="48.59894" lon="-2.3147">
        <ele>26.8</ele>
        <time>2025-09-30T15:14:31Z</time>
      </trkpt>
      <trkpt lat="48.59891" lon="-2.31457">
        <ele>27</ele>
        <time>2025-09-30T15:14:33Z</time>
      </trkpt>
      <trkpt lat="48.59881" lon="-2.31409">
        <ele>27.2</ele>
        <time>2025-09-30T15:14:40Z</time>
      </trkpt>
      <trkpt lat="48.59872" lon="-2.31375">
        <ele>28</ele>
        <time>2025-09-30T15:14:45Z</time>
      </trkpt>
      <trkpt lat="48.59861" lon="-2.31342">
        <ele>28.8</ele>
        <time>2025-09-30T15:14:50Z</time>
      </trkpt>
      <trkpt lat="48.59856" lon="-2.31326">
        <ele>29</ele>
        <time>2025-09-30T15:14:52Z</time>
      </trkpt>
      <trkpt lat="48.59839" lon="-2.31282">
        <ele>30.2</ele>
        <time>2025-09-30T15:14:59Z</time>
      </trkpt>
      <trkpt lat="48.59837" lon="-2.31275">
        <ele>30.4</ele>
        <time>2025-09-30T15:15:00Z</time>
      </trkpt>
      <trkpt lat="48.59829" lon="-2.31251">
        <ele>31</ele>
        <time>2025-09-30T15:15:04Z</time>
      </trkpt>
      <trkpt lat="48.59825" lon="-2.31239">
        <ele>31.2</ele>
        <time>2025-09-30T15:15:06Z</time>
      </trkpt>
      <trkpt lat="48.5982" lon="-2.31227">
        <ele>31.6</ele>
        <time>2025-09-30T15:15:08Z</time>
      </trkpt>
      <trkpt lat="48.59819" lon="-2.31222">
        <ele>31.6</ele>
        <time>2025-09-30T15:15:09Z</time>
      </trkpt>
      <trkpt lat="48.59821" lon="-2.31204">
        <ele>32.2</ele>
        <time>2025-09-30T15:15:12Z</time>
      </trkpt>
      <trkpt lat="48.59822" lon="-2.31197">
        <ele>32.4</ele>
        <time>2025-09-30T15:15:13Z</time>
      </trkpt>
      <trkpt lat="48.59825" lon="-2.31177">
        <ele>32.6</ele>
        <time>2025-09-30T15:15:16Z</time>
      </trkpt>
      <trkpt lat="48.59825" lon="-2.31166">
        <ele>32.8</ele>
        <time>2025-09-30T15:15:18Z</time>
      </trkpt>
      <trkpt lat="48.59826" lon="-2.31149">
        <ele>33.4</ele>
        <time>2025-09-30T15:15:21Z</time>
      </trkpt>
      <trkpt lat="48.59823" lon="-2.31121">
        <ele>34.4</ele>
        <time>2025-09-30T15:15:26Z</time>
      </trkpt>
      <trkpt lat="48.59822" lon="-2.31116">
        <ele>34.6</ele>
        <time>2025-09-30T15:15:27Z</time>
      </trkpt>
      <trkpt lat="48.59819" lon="-2.31088">
        <ele>35.4</ele>
        <time>2025-09-30T15:15:32Z</time>
      </trkpt>
      <trkpt lat="48.59818" lon="-2.31081">
        <ele>35.6</ele>
        <time>2025-09-30T15:15:33Z</time>
      </trkpt>
      <trkpt lat="48.59816" lon="-2.31071">
        <ele>36</ele>
        <time>2025-09-30T15:15:35Z</time>
      </trkpt>
      <trkpt lat="48.5981" lon="-2.31048">
        <ele>36.6</ele>
        <time>2025-09-30T15:15:39Z</time>
      </trkpt>
      <trkpt lat="48.59809" lon="-2.31043">
        <ele>36.8</ele>
        <time>2025-09-30T15:15:40Z</time>
      </trkpt>
      <trkpt lat="48.59805" lon="-2.31026">
        <ele>37.2</ele>
        <time>2025-09-30T15:15:43Z</time>
      </trkpt>
      <trkpt lat="48.59804" lon="-2.3102">
        <ele>37.4</ele>
        <time>2025-09-30T15:15:44Z</time>
      </trkpt>
      <trkpt lat="48.59799" lon="-2.31004">
        <ele>37.8</ele>
        <time>2025-09-30T15:15:47Z</time>
      </trkpt>
      <trkpt lat="48.5979" lon="-2.30964">
        <ele>39</ele>
        <time>2025-09-30T15:15:54Z</time>
      </trkpt>
      <trkpt lat="48.59789" lon="-2.30959">
        <ele>39.4</ele>
        <time>2025-09-30T15:15:55Z</time>
      </trkpt>
      <trkpt lat="48.59785" lon="-2.30936">
        <ele>40.2</ele>
        <time>2025-09-30T15:15:59Z</time>
      </trkpt>
      <trkpt lat="48.59781" lon="-2.30893">
        <ele>41.2</ele>
        <time>2025-09-30T15:16:06Z</time>
      </trkpt>
      <trkpt lat="48.59779" lon="-2.30842">
        <ele>42.4</ele>
        <time>2025-09-30T15:16:14Z</time>
      </trkpt>
      <trkpt lat="48.59779" lon="-2.3083">
        <ele>42.6</ele>
        <time>2025-09-30T15:16:16Z</time>
      </trkpt>
      <trkpt lat="48.59778" lon="-2.30805">
        <ele>43.2</ele>
        <time>2025-09-30T15:16:20Z</time>
      </trkpt>
      <trkpt lat="48.59777" lon="-2.30787">
        <ele>43.4</ele>
        <time>2025-09-30T15:16:23Z</time>
      </trkpt>
      <trkpt lat="48.59777" lon="-2.30781">
        <ele>43.4</ele>
        <time>2025-09-30T15:16:24Z</time>
      </trkpt>
      <trkpt lat="48.59776" lon="-2.30736">
        <ele>44.4</ele>
        <time>2025-09-30T15:16:31Z</time>
      </trkpt>
      <trkpt lat="48.59776" lon="-2.30717">
        <ele>44.8</ele>
        <time>2025-09-30T15:16:34Z</time>
      </trkpt>
      <trkpt lat="48.59783" lon="-2.30647">
        <ele>45</ele>
        <time>2025-09-30T15:16:44Z</time>
      </trkpt>
      <trkpt lat="48.59791" lon="-2.30584">
        <ele>45.2</ele>
        <time>2025-09-30T15:16:53Z</time>
      </trkpt>
      <trkpt lat="48.59795" lon="-2.30508">
        <ele>44.4</ele>
        <time>2025-09-30T15:17:03Z</time>
      </trkpt>
      <trkpt lat="48.59796" lon="-2.30484">
        <ele>44</ele>
        <time>2025-09-30T15:17:06Z</time>
      </trkpt>
      <trkpt lat="48.59797" lon="-2.30477">
        <ele>44</ele>
        <time>2025-09-30T15:17:07Z</time>
      </trkpt>
      <trkpt lat="48.59797" lon="-2.30467">
        <ele>44</ele>
        <time>2025-09-30T15:17:08Z</time>
      </trkpt>
      <trkpt lat="48.59798" lon="-2.30461">
        <ele>44</ele>
        <time>2025-09-30T15:17:09Z</time>
      </trkpt>
      <trkpt lat="48.59801" lon="-2.30436">
        <ele>43.6</ele>
        <time>2025-09-30T15:17:12Z</time>
      </trkpt>
      <trkpt lat="48.59801" lon="-2.3043">
        <ele>43.4</ele>
        <time>2025-09-30T15:17:13Z</time>
      </trkpt>
      <trkpt lat="48.5981" lon="-2.30372">
        <ele>42.4</ele>
        <time>2025-09-30T15:17:20Z</time>
      </trkpt>
      <trkpt lat="48.59811" lon="-2.30364">
        <ele>42.2</ele>
        <time>2025-09-30T15:17:21Z</time>
      </trkpt>
      <trkpt lat="48.59812" lon="-2.30357">
        <ele>42</ele>
        <time>2025-09-30T15:17:22Z</time>
      </trkpt>
      <trkpt lat="48.59814" lon="-2.30347">
        <ele>42</ele>
        <time>2025-09-30T15:17:23Z</time>
      </trkpt>
      <trkpt lat="48.59815" lon="-2.30341">
        <ele>41.8</ele>
        <time>2025-09-30T15:17:24Z</time>
      </trkpt>
      <trkpt lat="48.59817" lon="-2.30322">
        <ele>41.4</ele>
        <time>2025-09-30T15:17:26Z</time>
      </trkpt>
      <trkpt lat="48.59819" lon="-2.30314">
        <ele>41.4</ele>
        <time>2025-09-30T15:17:27Z</time>
      </trkpt>
      <trkpt lat="48.59821" lon="-2.30299">
        <ele>41.2</ele>
        <time>2025-09-30T15:17:29Z</time>
      </trkpt>
      <trkpt lat="48.59821" lon="-2.3029">
        <ele>41</ele>
        <time>2025-09-30T15:17:30Z</time>
      </trkpt>
      <trkpt lat="48.5982" lon="-2.30272">
        <ele>40.8</ele>
        <time>2025-09-30T15:17:32Z</time>
      </trkpt>
      <trkpt lat="48.59817" lon="-2.30255">
        <ele>40.6</ele>
        <time>2025-09-30T15:17:34Z</time>
      </trkpt>
      <trkpt lat="48.59811" lon="-2.30238">
        <ele>40.2</ele>
        <time>2025-09-30T15:17:36Z</time>
      </trkpt>
      <trkpt lat="48.59798" lon="-2.30217">
        <ele>40.2</ele>
        <time>2025-09-30T15:17:39Z</time>
      </trkpt>
      <trkpt lat="48.59762" lon="-2.30163">
        <ele>40</ele>
        <time>2025-09-30T15:17:48Z</time>
      </trkpt>
      <trkpt lat="48.59735" lon="-2.30129">
        <ele>39.8</ele>
        <time>2025-09-30T15:17:54Z</time>
      </trkpt>
      <trkpt lat="48.59704" lon="-2.30088">
        <ele>39.8</ele>
        <time>2025-09-30T15:18:02Z</time>
      </trkpt>
      <trkpt lat="48.59678" lon="-2.30045">
        <ele>40</ele>
        <time>2025-09-30T15:18:09Z</time>
      </trkpt>
      <trkpt lat="48.59655" lon="-2.29986">
        <ele>39.6</ele>
        <time>2025-09-30T15:18:17Z</time>
      </trkpt>
      <trkpt lat="48.59643" lon="-2.29955">
        <ele>39.2</ele>
        <time>2025-09-30T15:18:21Z</time>
      </trkpt>
      <trkpt lat="48.59633" lon="-2.29931">
        <ele>38.8</ele>
        <time>2025-09-30T15:18:24Z</time>
      </trkpt>
      <trkpt lat="48.5963" lon="-2.29924">
        <ele>38.8</ele>
        <time>2025-09-30T15:18:25Z</time>
      </trkpt>
      <trkpt lat="48.59623" lon="-2.29909">
        <ele>38.8</ele>
        <time>2025-09-30T15:18:27Z</time>
      </trkpt>
      <trkpt lat="48.59614" lon="-2.29894">
        <ele>38.6</ele>
        <time>2025-09-30T15:18:29Z</time>
      </trkpt>
      <trkpt lat="48.59606" lon="-2.2988">
        <ele>38.2</ele>
        <time>2025-09-30T15:18:31Z</time>
      </trkpt>
      <trkpt lat="48.59597" lon="-2.29865">
        <ele>36.8</ele>
        <time>2025-09-30T15:18:33Z</time>
      </trkpt>
      <trkpt lat="48.59585" lon="-2.29843">
        <ele>35.4</ele>
        <time>2025-09-30T15:18:36Z</time>
      </trkpt>
      <trkpt lat="48.59578" lon="-2.29823">
        <ele>34.4</ele>
        <time>2025-09-30T15:18:38Z</time>
      </trkpt>
      <trkpt lat="48.59576" lon="-2.29814">
        <ele>33.8</ele>
        <time>2025-09-30T15:18:39Z</time>
      </trkpt>
      <trkpt lat="48.59574" lon="-2.29803">
        <ele>32.8</ele>
        <time>2025-09-30T15:18:40Z</time>
      </trkpt>
      <trkpt lat="48.59573" lon="-2.29792">
        <ele>32.6</ele>
        <time>2025-09-30T15:18:41Z</time>
      </trkpt>
      <trkpt lat="48.59569" lon="-2.29769">
        <ele>32.2</ele>
        <time>2025-09-30T15:18:43Z</time>
      </trkpt>
      <trkpt lat="48.59567" lon="-2.29758">
        <ele>32</ele>
        <time>2025-09-30T15:18:44Z</time>
      </trkpt>
      <trkpt lat="48.59563" lon="-2.29748">
        <ele>31.8</ele>
        <time>2025-09-30T15:18:45Z</time>
      </trkpt>
      <trkpt lat="48.59553" lon="-2.29723">
        <ele>32</ele>
        <time>2025-09-30T15:18:48Z</time>
      </trkpt>
      <trkpt lat="48.59547" lon="-2.29709">
        <ele>32.6</ele>
        <time>2025-09-30T15:18:50Z</time>
      </trkpt>
      <trkpt lat="48.59544" lon="-2.29706">
        <ele>33</ele>
        <time>2025-09-30T15:18:51Z</time>
      </trkpt>
      <trkpt lat="48.59541" lon="-2.29701">
        <ele>33.4</ele>
        <time>2025-09-30T15:18:52Z</time>
      </trkpt>
      <trkpt lat="48.59536" lon="-2.2969">
        <ele>34</ele>
        <time>2025-09-30T15:18:54Z</time>
      </trkpt>
      <trkpt lat="48.59533" lon="-2.29685">
        <ele>34.4</ele>
        <time>2025-09-30T15:18:55Z</time>
      </trkpt>
      <trkpt lat="48.59528" lon="-2.29674">
        <ele>35.6</ele>
        <time>2025-09-30T15:18:57Z</time>
      </trkpt>
      <trkpt lat="48.59526" lon="-2.29668">
        <ele>35.8</ele>
        <time>2025-09-30T15:18:58Z</time>
      </trkpt>
      <trkpt lat="48.5952" lon="-2.29652">
        <ele>36.8</ele>
        <time>2025-09-30T15:19:01Z</time>
      </trkpt>
      <trkpt lat="48.59517" lon="-2.29644">
        <ele>37.6</ele>
        <time>2025-09-30T15:19:03Z</time>
      </trkpt>
      <trkpt lat="48.59509" lon="-2.29616">
        <ele>37.6</ele>
        <time>2025-09-30T15:19:10Z</time>
      </trkpt>
      <trkpt lat="48.5951" lon="-2.29606">
        <ele>37.8</ele>
        <time>2025-09-30T15:19:12Z</time>
      </trkpt>
      <trkpt lat="48.59512" lon="-2.29584">
        <ele>39.4</ele>
        <time>2025-09-30T15:19:16Z</time>
      </trkpt>
      <trkpt lat="48.59512" lon="-2.29576">
        <ele>39.6</ele>
        <time>2025-09-30T15:19:17Z</time>
      </trkpt>
      <trkpt lat="48.59513" lon="-2.29558">
        <ele>40.4</ele>
        <time>2025-09-30T15:19:20Z</time>
      </trkpt>
      <trkpt lat="48.59514" lon="-2.2954">
        <ele>41.6</ele>
        <time>2025-09-30T15:19:23Z</time>
      </trkpt>
      <trkpt lat="48.59514" lon="-2.29528">
        <ele>42.4</ele>
        <time>2025-09-30T15:19:25Z</time>
      </trkpt>
      <trkpt lat="48.59514" lon="-2.29522">
        <ele>42.8</ele>
        <time>2025-09-30T15:19:26Z</time>
      </trkpt>
      <trkpt lat="48.59516" lon="-2.29499">
        <ele>44</ele>
        <time>2025-09-30T15:19:30Z</time>
      </trkpt>
      <trkpt lat="48.59517" lon="-2.29481">
        <ele>45</ele>
        <time>2025-09-30T15:19:33Z</time>
      </trkpt>
      <trkpt lat="48.59518" lon="-2.29476">
        <ele>45.4</ele>
        <time>2025-09-30T15:19:34Z</time>
      </trkpt>
      <trkpt lat="48.59521" lon="-2.29459">
        <ele>46.4</ele>
        <time>2025-09-30T15:19:37Z</time>
      </trkpt>
      <trkpt lat="48.59525" lon="-2.29445">
        <ele>47.4</ele>
        <time>2025-09-30T15:19:40Z</time>
      </trkpt>
      <trkpt lat="48.59529" lon="-2.29433">
        <ele>48.2</ele>
        <time>2025-09-30T15:19:42Z</time>
      </trkpt>
      <trkpt lat="48.59532" lon="-2.29424">
        <ele>48.4</ele>
        <time>2025-09-30T15:19:44Z</time>
      </trkpt>
      <trkpt lat="48.59542" lon="-2.294">
        <ele>49.6</ele>
        <time>2025-09-30T15:19:49Z</time>
      </trkpt>
      <trkpt lat="48.59546" lon="-2.29391">
        <ele>50.2</ele>
        <time>2025-09-30T15:19:51Z</time>
      </trkpt>
      <trkpt lat="48.5955" lon="-2.29382">
        <ele>50.8</ele>
        <time>2025-09-30T15:19:53Z</time>
      </trkpt>
      <trkpt lat="48.59557" lon="-2.29364">
        <ele>51.8</ele>
        <time>2025-09-30T15:19:57Z</time>
      </trkpt>
      <trkpt lat="48.59559" lon="-2.29359">
        <ele>51.8</ele>
        <time>2025-09-30T15:19:58Z</time>
      </trkpt>
      <trkpt lat="48.59568" lon="-2.29334">
        <ele>53.2</ele>
        <time>2025-09-30T15:20:03Z</time>
      </trkpt>
      <trkpt lat="48.5957" lon="-2.2933">
        <ele>53.4</ele>
        <time>2025-09-30T15:20:04Z</time>
      </trkpt>
      <trkpt lat="48.59579" lon="-2.29311">
        <ele>54.2</ele>
        <time>2025-09-30T15:20:08Z</time>
      </trkpt>
      <trkpt lat="48.59583" lon="-2.29302">
        <ele>55</ele>
        <time>2025-09-30T15:20:10Z</time>
      </trkpt>
      <trkpt lat="48.59587" lon="-2.29294">
        <ele>55.6</ele>
        <time>2025-09-30T15:20:12Z</time>
      </trkpt>
      <trkpt lat="48.59598" lon="-2.29274">
        <ele>57</ele>
        <time>2025-09-30T15:20:17Z</time>
      </trkpt>
      <trkpt lat="48.596" lon="-2.29269">
        <ele>57.2</ele>
        <time>2025-09-30T15:20:18Z</time>
      </trkpt>
      <trkpt lat="48.59604" lon="-2.29261">
        <ele>58.2</ele>
        <time>2025-09-30T15:20:20Z</time>
      </trkpt>
      <trkpt lat="48.59612" lon="-2.29248">
        <ele>59.4</ele>
        <time>2025-09-30T15:20:24Z</time>
      </trkpt>
      <trkpt lat="48.59613" lon="-2.29246">
        <ele>59.6</ele>
        <time>2025-09-30T15:20:25Z</time>
      </trkpt>
      <trkpt lat="48.59613" lon="-2.29244">
        <ele>59.6</ele>
        <time>2025-09-30T15:20:26Z</time>
      </trkpt>
      <trkpt lat="48.59613" lon="-2.29244">
        <ele>59.8</ele>
        <time>2025-09-30T15:20:28Z</time>
      </trkpt>
      <trkpt lat="48.59614" lon="-2.29244">
        <ele>60</ele>
        <time>2025-09-30T15:20:30Z</time>
      </trkpt>
      <trkpt lat="48.59614" lon="-2.2924">
        <ele>60.6</ele>
        <time>2025-09-30T15:20:32Z</time>
      </trkpt>
      <trkpt lat="48.59615" lon="-2.29231">
        <ele>60.8</ele>
        <time>2025-09-30T15:20:34Z</time>
      </trkpt>
      <trkpt lat="48.59617" lon="-2.29208">
        <ele>61.6</ele>
        <time>2025-09-30T15:20:38Z</time>
      </trkpt>
      <trkpt lat="48.59617" lon="-2.29196">
        <ele>62</ele>
        <time>2025-09-30T15:20:40Z</time>
      </trkpt>
      <trkpt lat="48.59619" lon="-2.29155">
        <ele>62.4</ele>
        <time>2025-09-30T15:20:48Z</time>
      </trkpt>
      <trkpt lat="48.59619" lon="-2.29145">
        <ele>62.4</ele>
        <time>2025-09-30T15:20:50Z</time>
      </trkpt>
      <trkpt lat="48.59617" lon="-2.29108">
        <ele>62.4</ele>
        <time>2025-09-30T15:20:56Z</time>
      </trkpt>
      <trkpt lat="48.59611" lon="-2.29059">
        <ele>62.2</ele>
        <time>2025-09-30T15:21:03Z</time>
      </trkpt>
      <trkpt lat="48.59595" lon="-2.29002">
        <ele>62.4</ele>
        <time>2025-09-30T15:21:12Z</time>
      </trkpt>
      <trkpt lat="48.59584" lon="-2.28961">
        <ele>62.8</ele>
        <time>2025-09-30T15:21:18Z</time>
      </trkpt>
      <trkpt lat="48.59581" lon="-2.28949">
        <ele>62.8</ele>
        <time>2025-09-30T15:21:20Z</time>
      </trkpt>
      <trkpt lat="48.5958" lon="-2.28942">
        <ele>62.8</ele>
        <time>2025-09-30T15:21:21Z</time>
      </trkpt>
      <trkpt lat="48.59566" lon="-2.28899">
        <ele>62.6</ele>
        <time>2025-09-30T15:21:28Z</time>
      </trkpt>
      <trkpt lat="48.59562" lon="-2.28888">
        <ele>62.6</ele>
        <time>2025-09-30T15:21:30Z</time>
      </trkpt>
      <trkpt lat="48.59561" lon="-2.28874">
        <ele>62.8</ele>
        <time>2025-09-30T15:21:32Z</time>
      </trkpt>
      <trkpt lat="48.5956" lon="-2.28869">
        <ele>63</ele>
        <time>2025-09-30T15:21:33Z</time>
      </trkpt>
      <trkpt lat="48.5956" lon="-2.28863">
        <ele>63.2</ele>
        <time>2025-09-30T15:21:34Z</time>
      </trkpt>
      <trkpt lat="48.59554" lon="-2.28831">
        <ele>63.2</ele>
        <time>2025-09-30T15:21:39Z</time>
      </trkpt>
      <trkpt lat="48.59549" lon="-2.28805">
        <ele>63.4</ele>
        <time>2025-09-30T15:21:43Z</time>
      </trkpt>
      <trkpt lat="48.59542" lon="-2.28786">
        <ele>63.4</ele>
        <time>2025-09-30T15:21:46Z</time>
      </trkpt>
      <trkpt lat="48.5952" lon="-2.2873">
        <ele>63.6</ele>
        <time>2025-09-30T15:21:55Z</time>
      </trkpt>
      <trkpt lat="48.59518" lon="-2.28725">
        <ele>63.8</ele>
        <time>2025-09-30T15:21:56Z</time>
      </trkpt>
      <trkpt lat="48.59503" lon="-2.28689">
        <ele>63.8</ele>
        <time>2025-09-30T15:22:02Z</time>
      </trkpt>
      <trkpt lat="48.59497" lon="-2.28676">
        <ele>63.8</ele>
        <time>2025-09-30T15:22:04Z</time>
      </trkpt>
      <trkpt lat="48.59479" lon="-2.28651">
        <ele>63.6</ele>
        <time>2025-09-30T15:22:09Z</time>
      </trkpt>
      <trkpt lat="48.59461" lon="-2.28626">
        <ele>63.8</ele>
        <time>2025-09-30T15:22:14Z</time>
      </trkpt>
      <trkpt lat="48.59449" lon="-2.28604">
        <ele>63.6</ele>
        <time>2025-09-30T15:22:18Z</time>
      </trkpt>
      <trkpt lat="48.59444" lon="-2.2859">
        <ele>63.8</ele>
        <time>2025-09-30T15:22:20Z</time>
      </trkpt>
      <trkpt lat="48.59424" lon="-2.2851">
        <ele>63.2</ele>
        <time>2025-09-30T15:22:30Z</time>
      </trkpt>
      <trkpt lat="48.59423" lon="-2.28503">
        <ele>62.8</ele>
        <time>2025-09-30T15:22:31Z</time>
      </trkpt>
      <trkpt lat="48.59421" lon="-2.28494">
        <ele>62.6</ele>
        <time>2025-09-30T15:22:32Z</time>
      </trkpt>
      <trkpt lat="48.59414" lon="-2.28467">
        <ele>62.2</ele>
        <time>2025-09-30T15:22:35Z</time>
      </trkpt>
      <trkpt lat="48.59409" lon="-2.28447">
        <ele>62</ele>
        <time>2025-09-30T15:22:37Z</time>
      </trkpt>
      <trkpt lat="48.59405" lon="-2.28428">
        <ele>61.6</ele>
        <time>2025-09-30T15:22:39Z</time>
      </trkpt>
      <trkpt lat="48.59403" lon="-2.28421">
        <ele>61.4</ele>
        <time>2025-09-30T15:22:40Z</time>
      </trkpt>
      <trkpt lat="48.5939" lon="-2.28366">
        <ele>60.8</ele>
        <time>2025-09-30T15:22:46Z</time>
      </trkpt>
      <trkpt lat="48.59385" lon="-2.28339">
        <ele>60.4</ele>
        <time>2025-09-30T15:22:49Z</time>
      </trkpt>
      <trkpt lat="48.59383" lon="-2.28328">
        <ele>60.4</ele>
        <time>2025-09-30T15:22:50Z</time>
      </trkpt>
      <trkpt lat="48.59371" lon="-2.28249">
        <ele>59.8</ele>
        <time>2025-09-30T15:22:59Z</time>
      </trkpt>
      <trkpt lat="48.59367" lon="-2.28222">
        <ele>59.8</ele>
        <time>2025-09-30T15:23:02Z</time>
      </trkpt>
      <trkpt lat="48.59356" lon="-2.28135">
        <ele>59.8</ele>
        <time>2025-09-30T15:23:12Z</time>
      </trkpt>
      <trkpt lat="48.59355" lon="-2.28126">
        <ele>59.8</ele>
        <time>2025-09-30T15:23:13Z</time>
      </trkpt>
      <trkpt lat="48.59353" lon="-2.28089">
        <ele>59.4</ele>
        <time>2025-09-30T15:23:17Z</time>
      </trkpt>
      <trkpt lat="48.59353" lon="-2.28046">
        <ele>59.2</ele>
        <time>2025-09-30T15:23:22Z</time>
      </trkpt>
      <trkpt lat="48.59352" lon="-2.27962">
        <ele>59</ele>
        <time>2025-09-30T15:23:31Z</time>
      </trkpt>
      <trkpt lat="48.59352" lon="-2.27944">
        <ele>59</ele>
        <time>2025-09-30T15:23:33Z</time>
      </trkpt>
      <trkpt lat="48.5935" lon="-2.27856">
        <ele>59</ele>
        <time>2025-09-30T15:23:43Z</time>
      </trkpt>
      <trkpt lat="48.59349" lon="-2.27838">
        <ele>59</ele>
        <time>2025-09-30T15:23:45Z</time>
      </trkpt>
      <trkpt lat="48.5934" lon="-2.27758">
        <ele>59.2</ele>
        <time>2025-09-30T15:23:54Z</time>
      </trkpt>
      <trkpt lat="48.59327" lon="-2.27694">
        <ele>59</ele>
        <time>2025-09-30T15:24:02Z</time>
      </trkpt>
      <trkpt lat="48.59305" lon="-2.27614">
        <ele>59.2</ele>
        <time>2025-09-30T15:24:12Z</time>
      </trkpt>
      <trkpt lat="48.59284" lon="-2.27535">
        <ele>59.2</ele>
        <time>2025-09-30T15:24:22Z</time>
      </trkpt>
      <trkpt lat="48.59282" lon="-2.27528">
        <ele>59.2</ele>
        <time>2025-09-30T15:24:23Z</time>
      </trkpt>
      <trkpt lat="48.5927" lon="-2.27483">
        <ele>59.4</ele>
        <time>2025-09-30T15:24:29Z</time>
      </trkpt>
      <trkpt lat="48.59266" lon="-2.27468">
        <ele>59.6</ele>
        <time>2025-09-30T15:24:31Z</time>
      </trkpt>
      <trkpt lat="48.59262" lon="-2.27452">
        <ele>59.6</ele>
        <time>2025-09-30T15:24:33Z</time>
      </trkpt>
      <trkpt lat="48.59253" lon="-2.27421">
        <ele>60</ele>
        <time>2025-09-30T15:24:37Z</time>
      </trkpt>
      <trkpt lat="48.59251" lon="-2.27413">
        <ele>60</ele>
        <time>2025-09-30T15:24:38Z</time>
      </trkpt>
      <trkpt lat="48.59249" lon="-2.27406">
        <ele>60</ele>
        <time>2025-09-30T15:24:39Z</time>
      </trkpt>
      <trkpt lat="48.59245" lon="-2.2739">
        <ele>60</ele>
        <time>2025-09-30T15:24:41Z</time>
      </trkpt>
      <trkpt lat="48.59243" lon="-2.27382">
        <ele>60</ele>
        <time>2025-09-30T15:24:42Z</time>
      </trkpt>
      <trkpt lat="48.59235" lon="-2.27352">
        <ele>60.2</ele>
        <time>2025-09-30T15:24:46Z</time>
      </trkpt>
      <trkpt lat="48.59232" lon="-2.27344">
        <ele>60.4</ele>
        <time>2025-09-30T15:24:47Z</time>
      </trkpt>
      <trkpt lat="48.59225" lon="-2.27322">
        <ele>60.4</ele>
        <time>2025-09-30T15:24:50Z</time>
      </trkpt>
      <trkpt lat="48.59223" lon="-2.27314">
        <ele>60.6</ele>
        <time>2025-09-30T15:24:51Z</time>
      </trkpt>
      <trkpt lat="48.59204" lon="-2.27242">
        <ele>61.4</ele>
        <time>2025-09-30T15:25:00Z</time>
      </trkpt>
      <trkpt lat="48.59198" lon="-2.27219">
        <ele>61.4</ele>
        <time>2025-09-30T15:25:03Z</time>
      </trkpt>
      <trkpt lat="48.59184" lon="-2.27167">
        <ele>62.4</ele>
        <time>2025-09-30T15:25:10Z</time>
      </trkpt>
      <trkpt lat="48.59182" lon="-2.2716">
        <ele>62.6</ele>
        <time>2025-09-30T15:25:11Z</time>
      </trkpt>
      <trkpt lat="48.59172" lon="-2.27124">
        <ele>63.2</ele>
        <time>2025-09-30T15:25:16Z</time>
      </trkpt>
      <trkpt lat="48.59167" lon="-2.27103">
        <ele>63.4</ele>
        <time>2025-09-30T15:25:19Z</time>
      </trkpt>
      <trkpt lat="48.59161" lon="-2.27078">
        <ele>63.8</ele>
        <time>2025-09-30T15:25:23Z</time>
      </trkpt>
      <trkpt lat="48.59152" lon="-2.27045">
        <ele>64.4</ele>
        <time>2025-09-30T15:25:28Z</time>
      </trkpt>
      <trkpt lat="48.59144" lon="-2.27014">
        <ele>64.8</ele>
        <time>2025-09-30T15:25:33Z</time>
      </trkpt>
      <trkpt lat="48.59137" lon="-2.2699">
        <ele>65.4</ele>
        <time>2025-09-30T15:25:37Z</time>
      </trkpt>
      <trkpt lat="48.59134" lon="-2.26972">
        <ele>65.8</ele>
        <time>2025-09-30T15:25:40Z</time>
      </trkpt>
      <trkpt lat="48.59132" lon="-2.26966">
        <ele>66</ele>
        <time>2025-09-30T15:25:41Z</time>
      </trkpt>
      <trkpt lat="48.59126" lon="-2.26949">
        <ele>66.2</ele>
        <time>2025-09-30T15:25:44Z</time>
      </trkpt>
      <trkpt lat="48.59114" lon="-2.26905">
        <ele>67.2</ele>
        <time>2025-09-30T15:25:51Z</time>
      </trkpt>
      <trkpt lat="48.59111" lon="-2.26893">
        <ele>67.2</ele>
        <time>2025-09-30T15:25:53Z</time>
      </trkpt>
      <trkpt lat="48.59098" lon="-2.26844">
        <ele>67.4</ele>
        <time>2025-09-30T15:26:01Z</time>
      </trkpt>
      <trkpt lat="48.59082" lon="-2.26787">
        <ele>68.2</ele>
        <time>2025-09-30T15:26:10Z</time>
      </trkpt>
      <trkpt lat="48.5908" lon="-2.2678">
        <ele>68.2</ele>
        <time>2025-09-30T15:26:11Z</time>
      </trkpt>
      <trkpt lat="48.59059" lon="-2.26705">
        <ele>68.2</ele>
        <time>2025-09-30T15:26:23Z</time>
      </trkpt>
      <trkpt lat="48.59045" lon="-2.26654">
        <ele>68.4</ele>
        <time>2025-09-30T15:26:31Z</time>
      </trkpt>
      <trkpt lat="48.59025" lon="-2.26582">
        <ele>68.6</ele>
        <time>2025-09-30T15:26:42Z</time>
      </trkpt>
      <trkpt lat="48.59005" lon="-2.26508">
        <ele>68.4</ele>
        <time>2025-09-30T15:26:53Z</time>
      </trkpt>
      <trkpt lat="48.58992" lon="-2.26452">
        <ele>68.2</ele>
        <time>2025-09-30T15:27:01Z</time>
      </trkpt>
      <trkpt lat="48.58977" lon="-2.264">
        <ele>68</ele>
        <time>2025-09-30T15:27:09Z</time>
      </trkpt>
      <trkpt lat="48.58963" lon="-2.26352">
        <ele>68</ele>
        <time>2025-09-30T15:27:16Z</time>
      </trkpt>
      <trkpt lat="48.58962" lon="-2.26346">
        <ele>68</ele>
        <time>2025-09-30T15:27:17Z</time>
      </trkpt>
      <trkpt lat="48.58958" lon="-2.26333">
        <ele>68</ele>
        <time>2025-09-30T15:27:19Z</time>
      </trkpt>
      <trkpt lat="48.58956" lon="-2.26326">
        <ele>68</ele>
        <time>2025-09-30T15:27:20Z</time>
      </trkpt>
      <trkpt lat="48.58948" lon="-2.26299">
        <ele>67.8</ele>
        <time>2025-09-30T15:27:24Z</time>
      </trkpt>
      <trkpt lat="48.58937" lon="-2.26258">
        <ele>67.6</ele>
        <time>2025-09-30T15:27:30Z</time>
      </trkpt>
      <trkpt lat="48.58932" lon="-2.26243">
        <ele>67.6</ele>
        <time>2025-09-30T15:27:32Z</time>
      </trkpt>
      <trkpt lat="48.5893" lon="-2.26236">
        <ele>67.6</ele>
        <time>2025-09-30T15:27:33Z</time>
      </trkpt>
      <trkpt lat="48.58909" lon="-2.26161">
        <ele>67.4</ele>
        <time>2025-09-30T15:27:43Z</time>
      </trkpt>
      <trkpt lat="48.58903" lon="-2.26134">
        <ele>67</ele>
        <time>2025-09-30T15:27:47Z</time>
      </trkpt>
      <trkpt lat="48.58896" lon="-2.26106">
        <ele>66.8</ele>
        <time>2025-09-30T15:27:51Z</time>
      </trkpt>
      <trkpt lat="48.58891" lon="-2.26094">
        <ele>66.6</ele>
        <time>2025-09-30T15:27:53Z</time>
      </trkpt>
      <trkpt lat="48.58889" lon="-2.26087">
        <ele>66.6</ele>
        <time>2025-09-30T15:27:54Z</time>
      </trkpt>
      <trkpt lat="48.58883" lon="-2.26066">
        <ele>66.2</ele>
        <time>2025-09-30T15:27:57Z</time>
      </trkpt>
      <trkpt lat="48.58872" lon="-2.26025">
        <ele>66</ele>
        <time>2025-09-30T15:28:03Z</time>
      </trkpt>
      <trkpt lat="48.58864" lon="-2.25995">
        <ele>65.6</ele>
        <time>2025-09-30T15:28:07Z</time>
      </trkpt>
      <trkpt lat="48.58843" lon="-2.25918">
        <ele>64.8</ele>
        <time>2025-09-30T15:28:17Z</time>
      </trkpt>
      <trkpt lat="48.58822" lon="-2.25843">
        <ele>64</ele>
        <time>2025-09-30T15:28:26Z</time>
      </trkpt>
      <trkpt lat="48.5882" lon="-2.25834">
        <ele>63.8</ele>
        <time>2025-09-30T15:28:27Z</time>
      </trkpt>
      <trkpt lat="48.58818" lon="-2.25826">
        <ele>63.8</ele>
        <time>2025-09-30T15:28:28Z</time>
      </trkpt>
      <trkpt lat="48.58797" lon="-2.2575">
        <ele>63</ele>
        <time>2025-09-30T15:28:37Z</time>
      </trkpt>
      <trkpt lat="48.58792" lon="-2.25733">
        <ele>63</ele>
        <time>2025-09-30T15:28:39Z</time>
      </trkpt>
      <trkpt lat="48.58788" lon="-2.25716">
        <ele>62.8</ele>
        <time>2025-09-30T15:28:41Z</time>
      </trkpt>
      <trkpt lat="48.58769" lon="-2.25649">
        <ele>61.6</ele>
        <time>2025-09-30T15:28:49Z</time>
      </trkpt>
      <trkpt lat="48.58748" lon="-2.25572">
        <ele>60.6</ele>
        <time>2025-09-30T15:28:58Z</time>
      </trkpt>
      <trkpt lat="48.58746" lon="-2.25563">
        <ele>60.4</ele>
        <time>2025-09-30T15:28:59Z</time>
      </trkpt>
      <trkpt lat="48.58726" lon="-2.25493">
        <ele>59.4</ele>
        <time>2025-09-30T15:29:07Z</time>
      </trkpt>
      <trkpt lat="48.58724" lon="-2.25484">
        <ele>59</ele>
        <time>2025-09-30T15:29:08Z</time>
      </trkpt>
      <trkpt lat="48.58722" lon="-2.25474">
        <ele>59</ele>
        <time>2025-09-30T15:29:09Z</time>
      </trkpt>
      <trkpt lat="48.58711" lon="-2.25439">
        <ele>58.4</ele>
        <time>2025-09-30T15:29:13Z</time>
      </trkpt>
      <trkpt lat="48.58708" lon="-2.2543">
        <ele>58.4</ele>
        <time>2025-09-30T15:29:14Z</time>
      </trkpt>
      <trkpt lat="48.58701" lon="-2.25401">
        <ele>57.6</ele>
        <time>2025-09-30T15:29:18Z</time>
      </trkpt>
      <trkpt lat="48.587" lon="-2.25396">
        <ele>57.4</ele>
        <time>2025-09-30T15:29:19Z</time>
      </trkpt>
      <trkpt lat="48.58699" lon="-2.25373">
        <ele>57</ele>
        <time>2025-09-30T15:29:23Z</time>
      </trkpt>
      <trkpt lat="48.58707" lon="-2.25339">
        <ele>57.2</ele>
        <time>2025-09-30T15:29:28Z</time>
      </trkpt>
      <trkpt lat="48.58723" lon="-2.25274">
        <ele>58</ele>
        <time>2025-09-30T15:29:37Z</time>
      </trkpt>
      <trkpt lat="48.5873" lon="-2.25245">
        <ele>58</ele>
        <time>2025-09-30T15:29:41Z</time>
      </trkpt>
      <trkpt lat="48.58736" lon="-2.25232">
        <ele>58</ele>
        <time>2025-09-30T15:29:43Z</time>
      </trkpt>
      <trkpt lat="48.5874" lon="-2.25225">
        <ele>58</ele>
        <time>2025-09-30T15:29:44Z</time>
      </trkpt>
      <trkpt lat="48.58757" lon="-2.25202">
        <ele>57.6</ele>
        <time>2025-09-30T15:29:48Z</time>
      </trkpt>
      <trkpt lat="48.58795" lon="-2.25152">
        <ele>57.2</ele>
        <time>2025-09-30T15:29:57Z</time>
      </trkpt>
      <trkpt lat="48.5883" lon="-2.25103">
        <ele>57.4</ele>
        <time>2025-09-30T15:30:06Z</time>
      </trkpt>
      <trkpt lat="48.58872" lon="-2.25041">
        <ele>57.4</ele>
        <time>2025-09-30T15:30:17Z</time>
      </trkpt>
      <trkpt lat="48.58891" lon="-2.25013">
        <ele>58</ele>
        <time>2025-09-30T15:30:22Z</time>
      </trkpt>
      <trkpt lat="48.5891" lon="-2.24984">
        <ele>58.2</ele>
        <time>2025-09-30T15:30:27Z</time>
      </trkpt>
      <trkpt lat="48.58925" lon="-2.24962">
        <ele>58.4</ele>
        <time>2025-09-30T15:30:31Z</time>
      </trkpt>
      <trkpt lat="48.58947" lon="-2.24931">
        <ele>58.6</ele>
        <time>2025-09-30T15:30:37Z</time>
      </trkpt>
      <trkpt lat="48.5898" lon="-2.24877">
        <ele>58.6</ele>
        <time>2025-09-30T15:30:46Z</time>
      </trkpt>
      <trkpt lat="48.58985" lon="-2.24862">
        <ele>58.6</ele>
        <time>2025-09-30T15:30:48Z</time>
      </trkpt>
      <trkpt lat="48.58988" lon="-2.24839">
        <ele>58.8</ele>
        <time>2025-09-30T15:30:51Z</time>
      </trkpt>
      <trkpt lat="48.58992" lon="-2.24816">
        <ele>58.8</ele>
        <time>2025-09-30T15:30:54Z</time>
      </trkpt>
      <trkpt lat="48.58997" lon="-2.24803">
        <ele>59</ele>
        <time>2025-09-30T15:30:56Z</time>
      </trkpt>
      <trkpt lat="48.59006" lon="-2.24792">
        <ele>59.2</ele>
        <time>2025-09-30T15:30:58Z</time>
      </trkpt>
      <trkpt lat="48.59014" lon="-2.24784">
        <ele>59.2</ele>
        <time>2025-09-30T15:31:00Z</time>
      </trkpt>
      <trkpt lat="48.59029" lon="-2.24775">
        <ele>59.4</ele>
        <time>2025-09-30T15:31:03Z</time>
      </trkpt>
      <trkpt lat="48.59051" lon="-2.24761">
        <ele>59.8</ele>
        <time>2025-09-30T15:31:08Z</time>
      </trkpt>
      <trkpt lat="48.59081" lon="-2.24731">
        <ele>60</ele>
        <time>2025-09-30T15:31:15Z</time>
      </trkpt>
      <trkpt lat="48.59102" lon="-2.24697">
        <ele>60.2</ele>
        <time>2025-09-30T15:31:22Z</time>
      </trkpt>
      <trkpt lat="48.59115" lon="-2.24674">
        <ele>59.8</ele>
        <time>2025-09-30T15:31:28Z</time>
      </trkpt>
      <trkpt lat="48.59117" lon="-2.2467">
        <ele>59.6</ele>
        <time>2025-09-30T15:31:32Z</time>
      </trkpt>
      <trkpt lat="48.59117" lon="-2.2467">
        <ele>59.8</ele>
        <time>2025-09-30T15:31:38Z</time>
      </trkpt>
      <trkpt lat="48.59117" lon="-2.2467">
        <ele>59.8</ele>
        <time>2025-09-30T15:31:39Z</time>
      </trkpt>
      <trkpt lat="48.59119" lon="-2.24668">
        <ele>59.8</ele>
        <time>2025-09-30T15:31:42Z</time>
      </trkpt>
      <trkpt lat="48.59121" lon="-2.24666">
        <ele>59.8</ele>
        <time>2025-09-30T15:31:43Z</time>
      </trkpt>
      <trkpt lat="48.59131" lon="-2.24646">
        <ele>59.8</ele>
        <time>2025-09-30T15:31:47Z</time>
      </trkpt>
      <trkpt lat="48.59155" lon="-2.24594">
        <ele>59.8</ele>
        <time>2025-09-30T15:31:55Z</time>
      </trkpt>
      <trkpt lat="48.59181" lon="-2.24538">
        <ele>59.6</ele>
        <time>2025-09-30T15:32:04Z</time>
      </trkpt>
      <trkpt lat="48.59186" lon="-2.24527">
        <ele>59.8</ele>
        <time>2025-09-30T15:32:06Z</time>
      </trkpt>
      <trkpt lat="48.59211" lon="-2.2449">
        <ele>60</ele>
        <time>2025-09-30T15:32:13Z</time>
      </trkpt>
      <trkpt lat="48.59217" lon="-2.24483">
        <ele>60</ele>
        <time>2025-09-30T15:32:15Z</time>
      </trkpt>
      <trkpt lat="48.5923" lon="-2.24473">
        <ele>60.2</ele>
        <time>2025-09-30T15:32:19Z</time>
      </trkpt>
      <trkpt lat="48.59239" lon="-2.2447">
        <ele>60.6</ele>
        <time>2025-09-30T15:32:21Z</time>
      </trkpt>
      <trkpt lat="48.59257" lon="-2.24465">
        <ele>61</ele>
        <time>2025-09-30T15:32:25Z</time>
      </trkpt>
      <trkpt lat="48.59274" lon="-2.24468">
        <ele>61.6</ele>
        <time>2025-09-30T15:32:29Z</time>
      </trkpt>
      <trkpt lat="48.59287" lon="-2.24473">
        <ele>61.8</ele>
        <time>2025-09-30T15:32:32Z</time>
      </trkpt>
      <trkpt lat="48.59306" lon="-2.24479">
        <ele>62.2</ele>
        <time>2025-09-30T15:32:36Z</time>
      </trkpt>
      <trkpt lat="48.59316" lon="-2.2448">
        <ele>62.6</ele>
        <time>2025-09-30T15:32:38Z</time>
      </trkpt>
      <trkpt lat="48.59319" lon="-2.24479">
        <ele>62.6</ele>
        <time>2025-09-30T15:32:39Z</time>
      </trkpt>
      <trkpt lat="48.5935" lon="-2.24467">
        <ele>63.2</ele>
        <time>2025-09-30T15:32:46Z</time>
      </trkpt>
      <trkpt lat="48.59374" lon="-2.2445">
        <ele>63.4</ele>
        <time>2025-09-30T15:32:52Z</time>
      </trkpt>
      <trkpt lat="48.59387" lon="-2.24442">
        <ele>63.6</ele>
        <time>2025-09-30T15:32:55Z</time>
      </trkpt>
      <trkpt lat="48.59395" lon="-2.24438">
        <ele>64</ele>
        <time>2025-09-30T15:32:57Z</time>
      </trkpt>
      <trkpt lat="48.59405" lon="-2.24437">
        <ele>64</ele>
        <time>2025-09-30T15:32:59Z</time>
      </trkpt>
      <trkpt lat="48.59429" lon="-2.24451">
        <ele>64.2</ele>
        <time>2025-09-30T15:33:05Z</time>
      </trkpt>
      <trkpt lat="48.59436" lon="-2.24451">
        <ele>64.4</ele>
        <time>2025-09-30T15:33:07Z</time>
      </trkpt>
      <trkpt lat="48.5944" lon="-2.24447">
        <ele>64.2</ele>
        <time>2025-09-30T15:33:08Z</time>
      </trkpt>
      <trkpt lat="48.59441" lon="-2.24435">
        <ele>64.2</ele>
        <time>2025-09-30T15:33:10Z</time>
      </trkpt>
      <trkpt lat="48.5944" lon="-2.24421">
        <ele>64</ele>
        <time>2025-09-30T15:33:12Z</time>
      </trkpt>
      <trkpt lat="48.59438" lon="-2.24367">
        <ele>63.4</ele>
        <time>2025-09-30T15:33:19Z</time>
      </trkpt>
      <trkpt lat="48.59438" lon="-2.24351">
        <ele>63.2</ele>
        <time>2025-09-30T15:33:21Z</time>
      </trkpt>
      <trkpt lat="48.5944" lon="-2.24334">
        <ele>63</ele>
        <time>2025-09-30T15:33:23Z</time>
      </trkpt>
      <trkpt lat="48.59442" lon="-2.24321">
        <ele>63</ele>
        <time>2025-09-30T15:33:25Z</time>
      </trkpt>
      <trkpt lat="48.59455" lon="-2.24283">
        <ele>62.6</ele>
        <time>2025-09-30T15:33:31Z</time>
      </trkpt>
      <trkpt lat="48.59457" lon="-2.24276">
        <ele>62.6</ele>
        <time>2025-09-30T15:33:32Z</time>
      </trkpt>
      <trkpt lat="48.59469" lon="-2.24231">
        <ele>61.6</ele>
        <time>2025-09-30T15:33:38Z</time>
      </trkpt>
      <trkpt lat="48.5947" lon="-2.24223">
        <ele>61.6</ele>
        <time>2025-09-30T15:33:39Z</time>
      </trkpt>
      <trkpt lat="48.59477" lon="-2.24162">
        <ele>60.8</ele>
        <time>2025-09-30T15:33:46Z</time>
      </trkpt>
      <trkpt lat="48.59481" lon="-2.24147">
        <ele>60.4</ele>
        <time>2025-09-30T15:33:48Z</time>
      </trkpt>
      <trkpt lat="48.59492" lon="-2.24124">
        <ele>60.2</ele>
        <time>2025-09-30T15:33:51Z</time>
      </trkpt>
      <trkpt lat="48.59507" lon="-2.24091">
        <ele>60</ele>
        <time>2025-09-30T15:33:55Z</time>
      </trkpt>
      <trkpt lat="48.59511" lon="-2.24075">
        <ele>59.6</ele>
        <time>2025-09-30T15:33:57Z</time>
      </trkpt>
      <trkpt lat="48.59514" lon="-2.24048">
        <ele>59.2</ele>
        <time>2025-09-30T15:34:00Z</time>
      </trkpt>
      <trkpt lat="48.5952" lon="-2.24001">
        <ele>58.2</ele>
        <time>2025-09-30T15:34:05Z</time>
      </trkpt>
      <trkpt lat="48.59521" lon="-2.23994">
        <ele>58.2</ele>
        <time>2025-09-30T15:34:06Z</time>
      </trkpt>
      <trkpt lat="48.59537" lon="-2.23919">
        <ele>58</ele>
        <time>2025-09-30T15:34:14Z</time>
      </trkpt>
      <trkpt lat="48.5955" lon="-2.23839">
        <ele>57.2</ele>
        <time>2025-09-30T15:34:23Z</time>
      </trkpt>
      <trkpt lat="48.59551" lon="-2.2383">
        <ele>57</ele>
        <time>2025-09-30T15:34:24Z</time>
      </trkpt>
      <trkpt lat="48.59555" lon="-2.23783">
        <ele>56.4</ele>
        <time>2025-09-30T15:34:30Z</time>
      </trkpt>
      <trkpt lat="48.59556" lon="-2.23767">
        <ele>56.4</ele>
        <time>2025-09-30T15:34:32Z</time>
      </trkpt>
      <trkpt lat="48.59557" lon="-2.2376">
        <ele>56.4</ele>
        <time>2025-09-30T15:34:33Z</time>
      </trkpt>
      <trkpt lat="48.59555" lon="-2.23747">
        <ele>56.2</ele>
        <time>2025-09-30T15:34:35Z</time>
      </trkpt>
      <trkpt lat="48.59554" lon="-2.2374">
        <ele>56</ele>
        <time>2025-09-30T15:34:36Z</time>
      </trkpt>
      <trkpt lat="48.59554" lon="-2.23735">
        <ele>55.6</ele>
        <time>2025-09-30T15:34:37Z</time>
      </trkpt>
      <trkpt lat="48.5955" lon="-2.2368">
        <ele>54.8</ele>
        <time>2025-09-30T15:34:46Z</time>
      </trkpt>
      <trkpt lat="48.59546" lon="-2.23666">
        <ele>54.6</ele>
        <time>2025-09-30T15:34:50Z</time>
      </trkpt>
      <trkpt lat="48.59541" lon="-2.23665">
        <ele>54.6</ele>
        <time>2025-09-30T15:34:55Z</time>
      </trkpt>
      <trkpt lat="48.59541" lon="-2.23665">
        <ele>54.8</ele>
        <time>2025-09-30T15:35:08Z</time>
      </trkpt>
      <trkpt lat="48.59538" lon="-2.23666">
        <ele>54.8</ele>
        <time>2025-09-30T15:35:15Z</time>
      </trkpt>
      <trkpt lat="48.59534" lon="-2.23667">
        <ele>55</ele>
        <time>2025-09-30T15:35:18Z</time>
      </trkpt>
      <trkpt lat="48.5953" lon="-2.23668">
        <ele>55</ele>
        <time>2025-09-30T15:35:20Z</time>
      </trkpt>
      <trkpt lat="48.5951" lon="-2.23672">
        <ele>54.4</ele>
        <time>2025-09-30T15:35:27Z</time>
      </trkpt>
      <trkpt lat="48.59486" lon="-2.23676">
        <ele>53.8</ele>
        <time>2025-09-30T15:35:36Z</time>
      </trkpt>
      <trkpt lat="48.5948" lon="-2.23679">
        <ele>53.8</ele>
        <time>2025-09-30T15:35:39Z</time>
      </trkpt>
      <trkpt lat="48.59478" lon="-2.23679">
        <ele>53.6</ele>
        <time>2025-09-30T15:35:41Z</time>
      </trkpt>
      <trkpt lat="48.59478" lon="-2.23679">
        <ele>53.6</ele>
        <time>2025-09-30T15:35:49Z</time>
      </trkpt>
      <trkpt lat="48.59478" lon="-2.23679">
        <ele>53.6</ele>
        <time>2025-09-30T15:35:54Z</time>
      </trkpt>
      <trkpt lat="48.59478" lon="-2.23679">
        <ele>53.2</ele>
        <time>2025-09-30T15:36:24Z</time>
      </trkpt>
      <trkpt lat="48.59478" lon="-2.23679">
        <ele>53.4</ele>
        <time>2025-09-30T15:36:39Z</time>
      </trkpt>
      <trkpt lat="48.59478" lon="-2.23679">
        <ele>53.4</ele>
        <time>2025-09-30T15:36:47Z</time>
      </trkpt>
      <trkpt lat="48.59478" lon="-2.23679">
        <ele>53.4</ele>
        <time>2025-09-30T15:36:50Z</time>
      </trkpt>
      <trkpt lat="48.59478" lon="-2.23679">
        <ele>53.4</ele>
        <time>2025-09-30T15:37:12Z</time>
      </trkpt>
      <trkpt lat="48.59478" lon="-2.23679">
        <ele>53.4</ele>
        <time>2025-09-30T15:37:13Z</time>
      </trkpt>
      <trkpt lat="48.59478" lon="-2.2368">
        <ele>53.4</ele>
        <time>2025-09-30T15:37:20Z</time>
      </trkpt>
      <trkpt lat="48.59478" lon="-2.2368">
        <ele>53.4</ele>
        <time>2025-09-30T15:37:32Z</time>
      </trkpt>
      <trkpt lat="48.59478" lon="-2.2368">
        <ele>53.4</ele>
        <time>2025-09-30T15:37:47Z</time>
      </trkpt>
      <trkpt lat="48.59478" lon="-2.23681">
        <ele>53.4</ele>
        <time>2025-09-30T15:38:00Z</time>
      </trkpt>
      <trkpt lat="48.59478" lon="-2.23685">
        <ele>53.4</ele>
        <time>2025-09-30T15:38:03Z</time>
      </trkpt>
      <trkpt lat="48.59478" lon="-2.23691">
        <ele>53.4</ele>
        <time>2025-09-30T15:38:05Z</time>
      </trkpt>
      <trkpt lat="48.59477" lon="-2.23708">
        <ele>53.4</ele>
        <time>2025-09-30T15:38:09Z</time>
      </trkpt>
      <trkpt lat="48.59483" lon="-2.23725">
        <ele>54.2</ele>
        <time>2025-09-30T15:38:14Z</time>
      </trkpt>
      <trkpt lat="48.59487" lon="-2.23743">
        <ele>54.6</ele>
        <time>2025-09-30T15:38:20Z</time>
      </trkpt>
      <trkpt lat="48.59487" lon="-2.23745">
        <ele>54.6</ele>
        <time>2025-09-30T15:38:26Z</time>
      </trkpt>
      <trkpt lat="48.59487" lon="-2.23745">
        <ele>54.8</ele>
        <time>2025-09-30T15:38:37Z</time>
      </trkpt>
      <trkpt lat="48.59488" lon="-2.23744">
        <ele>54.8</ele>
        <time>2025-09-30T15:38:38Z</time>
      </trkpt>
      <trkpt lat="48.59488" lon="-2.23739">
        <ele>54.8</ele>
        <time>2025-09-30T15:38:43Z</time>
      </trkpt>
      <trkpt lat="48.59484" lon="-2.23724">
        <ele>54.6</ele>
        <time>2025-09-30T15:38:49Z</time>
      </trkpt>
      <trkpt lat="48.59478" lon="-2.23702">
        <ele>53.8</ele>
        <time>2025-09-30T15:38:56Z</time>
      </trkpt>
      <trkpt lat="48.59478" lon="-2.23692">
        <ele>53.4</ele>
        <time>2025-09-30T15:38:59Z</time>
      </trkpt>
      <trkpt lat="48.59479" lon="-2.23678">
        <ele>53.4</ele>
        <time>2025-09-30T15:39:03Z</time>
      </trkpt>
      <trkpt lat="48.59479" lon="-2.23675">
        <ele>53.4</ele>
        <time>2025-09-30T15:39:04Z</time>
      </trkpt>
      <trkpt lat="48.59476" lon="-2.23656">
        <ele>53.6</ele>
        <time>2025-09-30T15:39:09Z</time>
      </trkpt>
      <trkpt lat="48.59475" lon="-2.23626">
        <ele>53</ele>
        <time>2025-09-30T15:39:16Z</time>
      </trkpt>
      <trkpt lat="48.59475" lon="-2.2362">
        <ele>52.6</ele>
        <time>2025-09-30T15:39:20Z</time>
      </trkpt>
      <trkpt lat="48.59475" lon="-2.2362">
        <ele>52.6</ele>
        <time>2025-09-30T15:39:21Z</time>
      </trkpt>
      <trkpt lat="48.59474" lon="-2.23622">
        <ele>52.8</ele>
        <time>2025-09-30T15:39:29Z</time>
      </trkpt>
      <trkpt lat="48.59474" lon="-2.23625">
        <ele>53.2</ele>
        <time>2025-09-30T15:39:32Z</time>
      </trkpt>
      <trkpt lat="48.59474" lon="-2.23625">
        <ele>53.2</ele>
        <time>2025-09-30T15:39:33Z</time>
      </trkpt>
      <trkpt lat="48.59474" lon="-2.23625">
        <ele>53.2</ele>
        <time>2025-09-30T15:39:35Z</time>
      </trkpt>
      <trkpt lat="48.59474" lon="-2.23626">
        <ele>52.8</ele>
        <time>2025-09-30T15:39:36Z</time>
      </trkpt>
      <trkpt lat="48.59475" lon="-2.2363">
        <ele>52.8</ele>
        <time>2025-09-30T15:39:40Z</time>
      </trkpt>
      <trkpt lat="48.59475" lon="-2.23633">
        <ele>52.8</ele>
        <time>2025-09-30T15:39:43Z</time>
      </trkpt>
      <trkpt lat="48.59477" lon="-2.23639">
        <ele>53.2</ele>
        <time>2025-09-30T15:39:48Z</time>
      </trkpt>
      <trkpt lat="48.59477" lon="-2.23664">
        <ele>53.4</ele>
        <time>2025-09-30T15:39:53Z</time>
      </trkpt>
      <trkpt lat="48.59479" lon="-2.23675">
        <ele>53.6</ele>
        <time>2025-09-30T15:39:56Z</time>
      </trkpt>
      <trkpt lat="48.59481" lon="-2.23677">
        <ele>53.6</ele>
        <time>2025-09-30T15:39:57Z</time>
      </trkpt>
      <trkpt lat="48.59499" lon="-2.23675">
        <ele>53.6</ele>
        <time>2025-09-30T15:40:03Z</time>
      </trkpt>
      <trkpt lat="48.59513" lon="-2.23673">
        <ele>54</ele>
        <time>2025-09-30T15:40:07Z</time>
      </trkpt>
      <trkpt lat="48.59516" lon="-2.23673">
        <ele>54</ele>
        <time>2025-09-30T15:40:08Z</time>
      </trkpt>
      <trkpt lat="48.59526" lon="-2.23672">
        <ele>54.2</ele>
        <time>2025-09-30T15:40:11Z</time>
      </trkpt>
      <trkpt lat="48.5954" lon="-2.23668">
        <ele>54.8</ele>
        <time>2025-09-30T15:40:16Z</time>
      </trkpt>
      <trkpt lat="48.59544" lon="-2.23667">
        <ele>54.6</ele>
        <time>2025-09-30T15:40:18Z</time>
      </trkpt>
      <trkpt lat="48.59548" lon="-2.23665">
        <ele>54.6</ele>
        <time>2025-09-30T15:40:21Z</time>
      </trkpt>
      <trkpt lat="48.59549" lon="-2.23661">
        <ele>54.4</ele>
        <time>2025-09-30T15:40:23Z</time>
      </trkpt>
      <trkpt lat="48.59549" lon="-2.2364">
        <ele>54</ele>
        <time>2025-09-30T15:40:30Z</time>
      </trkpt>
      <trkpt lat="48.59549" lon="-2.23626">
        <ele>53.8</ele>
        <time>2025-09-30T15:40:35Z</time>
      </trkpt>
      <trkpt lat="48.59548" lon="-2.23614">
        <ele>53.6</ele>
        <time>2025-09-30T15:40:39Z</time>
      </trkpt>
      <trkpt lat="48.59547" lon="-2.23596">
        <ele>53.4</ele>
        <time>2025-09-30T15:40:44Z</time>
      </trkpt>
      <trkpt lat="48.59547" lon="-2.23585">
        <ele>53.2</ele>
        <time>2025-09-30T15:40:47Z</time>
      </trkpt>
      <trkpt lat="48.59546" lon="-2.23573">
        <ele>53</ele>
        <time>2025-09-30T15:40:50Z</time>
      </trkpt>
      <trkpt lat="48.59545" lon="-2.23557">
        <ele>52.8</ele>
        <time>2025-09-30T15:40:54Z</time>
      </trkpt>
      <trkpt lat="48.59545" lon="-2.23545">
        <ele>52.8</ele>
        <time>2025-09-30T15:40:57Z</time>
      </trkpt>
      <trkpt lat="48.59545" lon="-2.23537">
        <ele>52.6</ele>
        <time>2025-09-30T15:40:59Z</time>
      </trkpt>
      <trkpt lat="48.59547" lon="-2.23516">
        <ele>52.4</ele>
        <time>2025-09-30T15:41:05Z</time>
      </trkpt>
      <trkpt lat="48.59548" lon="-2.23514">
        <ele>52.2</ele>
        <time>2025-09-30T15:41:06Z</time>
      </trkpt>
      <trkpt lat="48.59551" lon="-2.23513">
        <ele>52.2</ele>
        <time>2025-09-30T15:41:08Z</time>
      </trkpt>
      <trkpt lat="48.59553" lon="-2.23513">
        <ele>52.2</ele>
        <time>2025-09-30T15:41:09Z</time>
      </trkpt>
      <trkpt lat="48.59554" lon="-2.23514">
        <ele>52.2</ele>
        <time>2025-09-30T15:41:15Z</time>
      </trkpt>
      <trkpt lat="48.59554" lon="-2.23514">
        <ele>52.2</ele>
        <time>2025-09-30T15:41:20Z</time>
      </trkpt>
      <trkpt lat="48.59554" lon="-2.23514">
        <ele>52.2</ele>
        <time>2025-09-30T15:41:22Z</time>
      </trkpt>
      <trkpt lat="48.59554" lon="-2.23514">
        <ele>52.2</ele>
        <time>2025-09-30T15:41:24Z</time>
      </trkpt>
      <trkpt lat="48.59554" lon="-2.23514">
        <ele>52.2</ele>
        <time>2025-09-30T15:41:27Z</time>
      </trkpt>
      <trkpt lat="48.59552" lon="-2.23513">
        <ele>52.2</ele>
        <time>2025-09-30T15:41:39Z</time>
      </trkpt>
      <trkpt lat="48.59551" lon="-2.23512">
        <ele>52.2</ele>
        <time>2025-09-30T15:41:44Z</time>
      </trkpt>
      <trkpt lat="48.59548" lon="-2.23508">
        <ele>52.2</ele>
        <time>2025-09-30T15:41:46Z</time>
      </trkpt>
      <trkpt lat="48.59548" lon="-2.23492">
        <ele>52</ele>
        <time>2025-09-30T15:41:50Z</time>
      </trkpt>
      <trkpt lat="48.59551" lon="-2.23462">
        <ele>51.6</ele>
        <time>2025-09-30T15:41:56Z</time>
      </trkpt>
      <trkpt lat="48.59551" lon="-2.23457">
        <ele>51.6</ele>
        <time>2025-09-30T15:41:57Z</time>
      </trkpt>
      <trkpt lat="48.59552" lon="-2.23441">
        <ele>51.4</ele>
        <time>2025-09-30T15:42:02Z</time>
      </trkpt>
      <trkpt lat="48.59552" lon="-2.23426">
        <ele>51</ele>
        <time>2025-09-30T15:42:08Z</time>
      </trkpt>
      <trkpt lat="48.59555" lon="-2.23424">
        <ele>50.8</ele>
        <time>2025-09-30T15:42:14Z</time>
      </trkpt>
      <trkpt lat="48.59555" lon="-2.23428">
        <ele>51</ele>
        <time>2025-09-30T15:42:16Z</time>
      </trkpt>
      <trkpt lat="48.59554" lon="-2.23437">
        <ele>51.4</ele>
        <time>2025-09-30T15:42:18Z</time>
      </trkpt>
      <trkpt lat="48.59553" lon="-2.23455">
        <ele>51.6</ele>
        <time>2025-09-30T15:42:21Z</time>
      </trkpt>
      <trkpt lat="48.59552" lon="-2.23466">
        <ele>51.6</ele>
        <time>2025-09-30T15:42:23Z</time>
      </trkpt>
      <trkpt lat="48.59547" lon="-2.23506">
        <ele>52</ele>
        <time>2025-09-30T15:42:31Z</time>
      </trkpt>
      <trkpt lat="48.59546" lon="-2.23508">
        <ele>52</ele>
        <time>2025-09-30T15:42:32Z</time>
      </trkpt>
      <trkpt lat="48.59543" lon="-2.2351">
        <ele>52</ele>
        <time>2025-09-30T15:42:35Z</time>
      </trkpt>
      <trkpt lat="48.59543" lon="-2.2351">
        <ele>52</ele>
        <time>2025-09-30T15:42:42Z</time>
      </trkpt>
      <trkpt lat="48.5954" lon="-2.23506">
        <ele>52.6</ele>
        <time>2025-09-30T15:42:53Z</time>
      </trkpt>
      <trkpt lat="48.59538" lon="-2.23503">
        <ele>52.6</ele>
        <time>2025-09-30T15:42:54Z</time>
      </trkpt>
      <trkpt lat="48.5953" lon="-2.23495">
        <ele>52.6</ele>
        <time>2025-09-30T15:42:57Z</time>
      </trkpt>
      <trkpt lat="48.59527" lon="-2.23493">
        <ele>52.4</ele>
        <time>2025-09-30T15:42:58Z</time>
      </trkpt>
      <trkpt lat="48.59509" lon="-2.23483">
        <ele>51.6</ele>
        <time>2025-09-30T15:43:04Z</time>
      </trkpt>
      <trkpt lat="48.59504" lon="-2.23481">
        <ele>51.4</ele>
        <time>2025-09-30T15:43:06Z</time>
      </trkpt>
      <trkpt lat="48.59498" lon="-2.2348">
        <ele>51.2</ele>
        <time>2025-09-30T15:43:10Z</time>
      </trkpt>
      <trkpt lat="48.59497" lon="-2.23479">
        <ele>51</ele>
        <time>2025-09-30T15:43:11Z</time>
      </trkpt>
      <trkpt lat="48.59497" lon="-2.23479">
        <ele>51</ele>
        <time>2025-09-30T15:43:12Z</time>
      </trkpt>
      <trkpt lat="48.59497" lon="-2.23479">
        <ele>51</ele>
        <time>2025-09-30T15:43:14Z</time>
      </trkpt>
      <trkpt lat="48.59497" lon="-2.23479">
        <ele>51</ele>
        <time>2025-09-30T15:43:15Z</time>
      </trkpt>
      <trkpt lat="48.59491" lon="-2.23476">
        <ele>51</ele>
        <time>2025-09-30T15:43:23Z</time>
      </trkpt>
      <trkpt lat="48.5949" lon="-2.23476">
        <ele>50.8</ele>
        <time>2025-09-30T15:43:28Z</time>
      </trkpt>
      <trkpt lat="48.5949" lon="-2.23476">
        <ele>50.8</ele>
        <time>2025-09-30T15:43:39Z</time>
      </trkpt>
      <trkpt lat="48.5949" lon="-2.23476">
        <ele>50.8</ele>
        <time>2025-09-30T15:43:40Z</time>
      </trkpt>
      <trkpt lat="48.5949" lon="-2.23476">
        <ele>50.8</ele>
        <time>2025-09-30T15:43:41Z</time>
      </trkpt>
      <trkpt lat="48.5949" lon="-2.23476">
        <ele>50.8</ele>
        <time>2025-09-30T15:43:44Z</time>
      </trkpt>
      <trkpt lat="48.59489" lon="-2.23478">
        <ele>51</ele>
        <time>2025-09-30T15:43:48Z</time>
      </trkpt>
      <trkpt lat="48.59489" lon="-2.23485">
        <ele>51</ele>
        <time>2025-09-30T15:43:50Z</time>
      </trkpt>
      <trkpt lat="48.59491" lon="-2.23502">
        <ele>52</ele>
        <time>2025-09-30T15:43:55Z</time>
      </trkpt>
      <trkpt lat="48.5949" lon="-2.23514">
        <ele>52.2</ele>
        <time>2025-09-30T15:43:58Z</time>
      </trkpt>
      <trkpt lat="48.59491" lon="-2.23532">
        <ele>52.6</ele>
        <time>2025-09-30T15:44:02Z</time>
      </trkpt>
      <trkpt lat="48.59492" lon="-2.23537">
        <ele>52.8</ele>
        <time>2025-09-30T15:44:03Z</time>
      </trkpt>
      <trkpt lat="48.59491" lon="-2.23564">
        <ele>53.4</ele>
        <time>2025-09-30T15:44:11Z</time>
      </trkpt>
      <trkpt lat="48.59491" lon="-2.23568">
        <ele>53.6</ele>
        <time>2025-09-30T15:44:17Z</time>
      </trkpt>
      <trkpt lat="48.59491" lon="-2.23568">
        <ele>53.6</ele>
        <time>2025-09-30T15:44:23Z</time>
      </trkpt>
      <trkpt lat="48.59491" lon="-2.23568">
        <ele>53.6</ele>
        <time>2025-09-30T15:44:27Z</time>
      </trkpt>
      <trkpt lat="48.59492" lon="-2.23568">
        <ele>53.6</ele>
        <time>2025-09-30T15:44:29Z</time>
      </trkpt>
    </trkseg>
  </trk>
</gpx>